<?xml version="1.0" encoding="UTF-8" standalone="no" ?>
<gpx xmlns="http://www.topografix.com/GPX/1/1" xmlns:xsi="http://www.w3.org/2001/XMLSchema-instance" xsi:schemaLocation="http://www.topografix.com/GPX/1/1 http://www.topografix.com/GPX/1/1/gpx.xsd" version="1.1" creator="VisuGPX - https://www.visugpx.com">
  <metadata>
    <name>Hautefage la Tour 10 km</name>
  </metadata>
  <trk>
    <name><![CDATA[Pierre_NARFIT_2025-10-12_14-11-16]]></name>
    <extensions>
      <line xmlns="http://www.topografix.com/GPX/gpx_style/0/2">
        <color>0000FF</color>
        <width>4</width>
      </line>
    </extensions>
    <trkseg>
      <trkpt lat="44.32312" lon="0.78432">
        <ele>245</ele>
        <time>2025-10-12T12:11:24.518Z</time>
      </trkpt>
      <trkpt lat="44.32317" lon="0.78434">
        <ele>244</ele>
        <time>2025-10-12T12:11:25.518Z</time>
      </trkpt>
      <trkpt lat="44.32313" lon="0.78434">
        <ele>242</ele>
        <time>2025-10-12T12:11:26.518Z</time>
      </trkpt>
      <trkpt lat="44.32317" lon="0.78439">
        <ele>240</ele>
        <time>2025-10-12T12:11:27.518Z</time>
      </trkpt>
      <trkpt lat="44.32316" lon="0.78441">
        <ele>238</ele>
        <time>2025-10-12T12:11:28.518Z</time>
      </trkpt>
      <trkpt lat="44.32315" lon="0.78443">
        <ele>236</ele>
        <time>2025-10-12T12:11:29.518Z</time>
      </trkpt>
      <trkpt lat="44.32317" lon="0.78445">
        <ele>234</ele>
        <time>2025-10-12T12:11:30.518Z</time>
      </trkpt>
      <trkpt lat="44.32317" lon="0.78448">
        <ele>232</ele>
        <time>2025-10-12T12:11:31.518Z</time>
      </trkpt>
      <trkpt lat="44.32318" lon="0.7845">
        <ele>230</ele>
        <time>2025-10-12T12:11:32.518Z</time>
      </trkpt>
      <trkpt lat="44.32318" lon="0.78451">
        <ele>228</ele>
        <time>2025-10-12T12:11:33.518Z</time>
      </trkpt>
      <trkpt lat="44.32319" lon="0.78452">
        <ele>227</ele>
        <time>2025-10-12T12:11:34.518Z</time>
      </trkpt>
      <trkpt lat="44.3232" lon="0.78453">
        <ele>226</ele>
        <time>2025-10-12T12:11:35.518Z</time>
      </trkpt>
      <trkpt lat="44.32321" lon="0.78453">
        <ele>224</ele>
        <time>2025-10-12T12:11:36.518Z</time>
      </trkpt>
      <trkpt lat="44.32323" lon="0.78454">
        <ele>224</ele>
        <time>2025-10-12T12:11:37.518Z</time>
      </trkpt>
      <trkpt lat="44.32324" lon="0.78456">
        <ele>223</ele>
        <time>2025-10-12T12:11:38.518Z</time>
      </trkpt>
      <trkpt lat="44.32325" lon="0.78457">
        <ele>222</ele>
        <time>2025-10-12T12:11:39.518Z</time>
      </trkpt>
      <trkpt lat="44.32327" lon="0.78458">
        <ele>222</ele>
        <time>2025-10-12T12:11:40.518Z</time>
      </trkpt>
      <trkpt lat="44.32328" lon="0.78459">
        <ele>222</ele>
        <time>2025-10-12T12:11:41.518Z</time>
      </trkpt>
      <trkpt lat="44.3233" lon="0.7846">
        <ele>221</ele>
        <time>2025-10-12T12:11:42.518Z</time>
      </trkpt>
      <trkpt lat="44.32332" lon="0.7846">
        <ele>221</ele>
        <time>2025-10-12T12:11:43.518Z</time>
      </trkpt>
      <trkpt lat="44.32333" lon="0.78462">
        <ele>221</ele>
        <time>2025-10-12T12:11:44.518Z</time>
      </trkpt>
      <trkpt lat="44.32334" lon="0.78463">
        <ele>221</ele>
        <time>2025-10-12T12:11:45.518Z</time>
      </trkpt>
      <trkpt lat="44.32334" lon="0.78464">
        <ele>221</ele>
        <time>2025-10-12T12:11:46.518Z</time>
      </trkpt>
      <trkpt lat="44.32334" lon="0.78465">
        <ele>221</ele>
        <time>2025-10-12T12:11:47.518Z</time>
      </trkpt>
      <trkpt lat="44.32335" lon="0.78467">
        <ele>221</ele>
        <time>2025-10-12T12:11:48.518Z</time>
      </trkpt>
      <trkpt lat="44.32335" lon="0.78468">
        <ele>221</ele>
        <time>2025-10-12T12:11:49.518Z</time>
      </trkpt>
      <trkpt lat="44.32336" lon="0.7847">
        <ele>221</ele>
        <time>2025-10-12T12:11:50.518Z</time>
      </trkpt>
      <trkpt lat="44.32336" lon="0.78471">
        <ele>221</ele>
        <time>2025-10-12T12:11:51.518Z</time>
      </trkpt>
      <trkpt lat="44.32337" lon="0.78472">
        <ele>221</ele>
        <time>2025-10-12T12:11:52.518Z</time>
      </trkpt>
      <trkpt lat="44.32338" lon="0.78473">
        <ele>221</ele>
        <time>2025-10-12T12:11:53.518Z</time>
      </trkpt>
      <trkpt lat="44.32339" lon="0.78474">
        <ele>220</ele>
        <time>2025-10-12T12:11:54.518Z</time>
      </trkpt>
      <trkpt lat="44.3234" lon="0.78475">
        <ele>220</ele>
        <time>2025-10-12T12:11:55.518Z</time>
      </trkpt>
      <trkpt lat="44.32341" lon="0.78475">
        <ele>220</ele>
        <time>2025-10-12T12:11:56.518Z</time>
      </trkpt>
      <trkpt lat="44.32342" lon="0.78476">
        <ele>220</ele>
        <time>2025-10-12T12:11:57.518Z</time>
      </trkpt>
      <trkpt lat="44.32344" lon="0.78476">
        <ele>219</ele>
        <time>2025-10-12T12:11:58.518Z</time>
      </trkpt>
      <trkpt lat="44.32344" lon="0.78477">
        <ele>219</ele>
        <time>2025-10-12T12:11:59.518Z</time>
      </trkpt>
      <trkpt lat="44.32345" lon="0.78478">
        <ele>219</ele>
        <time>2025-10-12T12:12:00.518Z</time>
      </trkpt>
      <trkpt lat="44.32347" lon="0.78479">
        <ele>218</ele>
        <time>2025-10-12T12:12:01.518Z</time>
      </trkpt>
      <trkpt lat="44.32348" lon="0.7848">
        <ele>218</ele>
        <time>2025-10-12T12:12:02.518Z</time>
      </trkpt>
      <trkpt lat="44.32349" lon="0.7848">
        <ele>218</ele>
        <time>2025-10-12T12:12:03.518Z</time>
      </trkpt>
      <trkpt lat="44.32349" lon="0.78481">
        <ele>218</ele>
        <time>2025-10-12T12:12:04.518Z</time>
      </trkpt>
      <trkpt lat="44.3235" lon="0.78481">
        <ele>217</ele>
        <time>2025-10-12T12:12:05.518Z</time>
      </trkpt>
      <trkpt lat="44.32351" lon="0.78482">
        <ele>217</ele>
        <time>2025-10-12T12:12:06.518Z</time>
      </trkpt>
      <trkpt lat="44.32352" lon="0.78482">
        <ele>217</ele>
        <time>2025-10-12T12:12:07.518Z</time>
      </trkpt>
      <trkpt lat="44.32352" lon="0.78483">
        <ele>217</ele>
        <time>2025-10-12T12:12:08.518Z</time>
      </trkpt>
      <trkpt lat="44.32354" lon="0.78484">
        <ele>217</ele>
        <time>2025-10-12T12:12:09.518Z</time>
      </trkpt>
      <trkpt lat="44.32355" lon="0.78484">
        <ele>217</ele>
        <time>2025-10-12T12:12:10.518Z</time>
      </trkpt>
      <trkpt lat="44.32356" lon="0.78485">
        <ele>217</ele>
        <time>2025-10-12T12:12:11.518Z</time>
      </trkpt>
      <trkpt lat="44.32357" lon="0.78485">
        <ele>217</ele>
        <time>2025-10-12T12:12:12.518Z</time>
      </trkpt>
      <trkpt lat="44.32358" lon="0.78485">
        <ele>217</ele>
        <time>2025-10-12T12:12:13.518Z</time>
      </trkpt>
      <trkpt lat="44.32359" lon="0.78486">
        <ele>217</ele>
        <time>2025-10-12T12:12:14.518Z</time>
      </trkpt>
      <trkpt lat="44.3236" lon="0.78486">
        <ele>218</ele>
        <time>2025-10-12T12:12:15.518Z</time>
      </trkpt>
      <trkpt lat="44.32361" lon="0.78487">
        <ele>218</ele>
        <time>2025-10-12T12:12:16.518Z</time>
      </trkpt>
      <trkpt lat="44.32362" lon="0.78488">
        <ele>218</ele>
        <time>2025-10-12T12:12:17.518Z</time>
      </trkpt>
      <trkpt lat="44.32364" lon="0.78489">
        <ele>218</ele>
        <time>2025-10-12T12:12:18.518Z</time>
      </trkpt>
      <trkpt lat="44.32365" lon="0.78489">
        <ele>219</ele>
        <time>2025-10-12T12:12:19.518Z</time>
      </trkpt>
      <trkpt lat="44.32366" lon="0.7849">
        <ele>219</ele>
        <time>2025-10-12T12:12:20.518Z</time>
      </trkpt>
      <trkpt lat="44.32367" lon="0.78491">
        <ele>219</ele>
        <time>2025-10-12T12:12:21.518Z</time>
      </trkpt>
      <trkpt lat="44.32368" lon="0.78492">
        <ele>220</ele>
        <time>2025-10-12T12:12:22.518Z</time>
      </trkpt>
      <trkpt lat="44.3237" lon="0.78493">
        <ele>220</ele>
        <time>2025-10-12T12:12:23.518Z</time>
      </trkpt>
      <trkpt lat="44.3237" lon="0.78493">
        <ele>220</ele>
        <time>2025-10-12T12:12:24.518Z</time>
      </trkpt>
      <trkpt lat="44.32371" lon="0.78494">
        <ele>220</ele>
        <time>2025-10-12T12:12:25.518Z</time>
      </trkpt>
      <trkpt lat="44.32372" lon="0.78495">
        <ele>220</ele>
        <time>2025-10-12T12:12:26.518Z</time>
      </trkpt>
      <trkpt lat="44.32373" lon="0.78496">
        <ele>220</ele>
        <time>2025-10-12T12:12:27.518Z</time>
      </trkpt>
      <trkpt lat="44.32374" lon="0.78497">
        <ele>219</ele>
        <time>2025-10-12T12:12:28.518Z</time>
      </trkpt>
      <trkpt lat="44.32374" lon="0.78498">
        <ele>219</ele>
        <time>2025-10-12T12:12:29.518Z</time>
      </trkpt>
      <trkpt lat="44.32375" lon="0.78499">
        <ele>219</ele>
        <time>2025-10-12T12:12:30.518Z</time>
      </trkpt>
      <trkpt lat="44.32376" lon="0.78499">
        <ele>219</ele>
        <time>2025-10-12T12:12:31.518Z</time>
      </trkpt>
      <trkpt lat="44.32376" lon="0.785">
        <ele>218</ele>
        <time>2025-10-12T12:12:32.518Z</time>
      </trkpt>
      <trkpt lat="44.32377" lon="0.78501">
        <ele>218</ele>
        <time>2025-10-12T12:12:33.518Z</time>
      </trkpt>
      <trkpt lat="44.32378" lon="0.78503">
        <ele>217</ele>
        <time>2025-10-12T12:12:34.518Z</time>
      </trkpt>
      <trkpt lat="44.32379" lon="0.78504">
        <ele>217</ele>
        <time>2025-10-12T12:12:35.518Z</time>
      </trkpt>
      <trkpt lat="44.32381" lon="0.78506">
        <ele>217</ele>
        <time>2025-10-12T12:12:36.518Z</time>
      </trkpt>
      <trkpt lat="44.32382" lon="0.78507">
        <ele>217</ele>
        <time>2025-10-12T12:12:37.518Z</time>
      </trkpt>
      <trkpt lat="44.32382" lon="0.78508">
        <ele>217</ele>
        <time>2025-10-12T12:12:38.518Z</time>
      </trkpt>
      <trkpt lat="44.32383" lon="0.78509">
        <ele>216</ele>
        <time>2025-10-12T12:12:39.518Z</time>
      </trkpt>
      <trkpt lat="44.32383" lon="0.7851">
        <ele>216</ele>
        <time>2025-10-12T12:12:40.518Z</time>
      </trkpt>
      <trkpt lat="44.32384" lon="0.78512">
        <ele>216</ele>
        <time>2025-10-12T12:12:41.518Z</time>
      </trkpt>
      <trkpt lat="44.32385" lon="0.78512">
        <ele>216</ele>
        <time>2025-10-12T12:12:42.518Z</time>
      </trkpt>
      <trkpt lat="44.32386" lon="0.78513">
        <ele>216</ele>
        <time>2025-10-12T12:12:43.518Z</time>
      </trkpt>
      <trkpt lat="44.32386" lon="0.78513">
        <ele>216</ele>
        <time>2025-10-12T12:12:44.518Z</time>
      </trkpt>
      <trkpt lat="44.32387" lon="0.78514">
        <ele>216</ele>
        <time>2025-10-12T12:12:45.518Z</time>
      </trkpt>
      <trkpt lat="44.32388" lon="0.78515">
        <ele>216</ele>
        <time>2025-10-12T12:12:46.518Z</time>
      </trkpt>
      <trkpt lat="44.32388" lon="0.78515">
        <ele>216</ele>
        <time>2025-10-12T12:12:47.518Z</time>
      </trkpt>
      <trkpt lat="44.32388" lon="0.78516">
        <ele>216</ele>
        <time>2025-10-12T12:12:48.518Z</time>
      </trkpt>
      <trkpt lat="44.32389" lon="0.78518">
        <ele>216</ele>
        <time>2025-10-12T12:12:49.518Z</time>
      </trkpt>
      <trkpt lat="44.32389" lon="0.78518">
        <ele>216</ele>
        <time>2025-10-12T12:12:50.518Z</time>
      </trkpt>
      <trkpt lat="44.3239" lon="0.7852">
        <ele>215</ele>
        <time>2025-10-12T12:12:51.518Z</time>
      </trkpt>
      <trkpt lat="44.32391" lon="0.78521">
        <ele>215</ele>
        <time>2025-10-12T12:12:52.518Z</time>
      </trkpt>
      <trkpt lat="44.32391" lon="0.78521">
        <ele>215</ele>
        <time>2025-10-12T12:12:53.518Z</time>
      </trkpt>
      <trkpt lat="44.32393" lon="0.78523">
        <ele>215</ele>
        <time>2025-10-12T12:12:54.518Z</time>
      </trkpt>
      <trkpt lat="44.32395" lon="0.78524">
        <ele>215</ele>
        <time>2025-10-12T12:12:55.518Z</time>
      </trkpt>
      <trkpt lat="44.32396" lon="0.78524">
        <ele>215</ele>
        <time>2025-10-12T12:12:56.518Z</time>
      </trkpt>
      <trkpt lat="44.32396" lon="0.78525">
        <ele>215</ele>
        <time>2025-10-12T12:12:57.518Z</time>
      </trkpt>
      <trkpt lat="44.32397" lon="0.78526">
        <ele>215</ele>
        <time>2025-10-12T12:12:58.518Z</time>
      </trkpt>
      <trkpt lat="44.32398" lon="0.78526">
        <ele>215</ele>
        <time>2025-10-12T12:12:59.518Z</time>
      </trkpt>
      <trkpt lat="44.32399" lon="0.78527">
        <ele>215</ele>
        <time>2025-10-12T12:13:00.518Z</time>
      </trkpt>
      <trkpt lat="44.324" lon="0.78529">
        <ele>215</ele>
        <time>2025-10-12T12:13:01.518Z</time>
      </trkpt>
      <trkpt lat="44.324" lon="0.7853">
        <ele>215</ele>
        <time>2025-10-12T12:13:02.518Z</time>
      </trkpt>
      <trkpt lat="44.32401" lon="0.78531">
        <ele>215</ele>
        <time>2025-10-12T12:13:03.518Z</time>
      </trkpt>
      <trkpt lat="44.32402" lon="0.78532">
        <ele>215</ele>
        <time>2025-10-12T12:13:04.518Z</time>
      </trkpt>
      <trkpt lat="44.32402" lon="0.78534">
        <ele>215</ele>
        <time>2025-10-12T12:13:05.518Z</time>
      </trkpt>
      <trkpt lat="44.32402" lon="0.78535">
        <ele>215</ele>
        <time>2025-10-12T12:13:06.518Z</time>
      </trkpt>
      <trkpt lat="44.32402" lon="0.78536">
        <ele>215</ele>
        <time>2025-10-12T12:13:07.518Z</time>
      </trkpt>
      <trkpt lat="44.32401" lon="0.78537">
        <ele>215</ele>
        <time>2025-10-12T12:13:08.518Z</time>
      </trkpt>
      <trkpt lat="44.32401" lon="0.78538">
        <ele>215</ele>
        <time>2025-10-12T12:13:09.518Z</time>
      </trkpt>
      <trkpt lat="44.324" lon="0.78539">
        <ele>214</ele>
        <time>2025-10-12T12:13:10.518Z</time>
      </trkpt>
      <trkpt lat="44.324" lon="0.7854">
        <ele>214</ele>
        <time>2025-10-12T12:13:11.518Z</time>
      </trkpt>
      <trkpt lat="44.32399" lon="0.78542">
        <ele>213</ele>
        <time>2025-10-12T12:13:12.518Z</time>
      </trkpt>
      <trkpt lat="44.32399" lon="0.78543">
        <ele>213</ele>
        <time>2025-10-12T12:13:13.518Z</time>
      </trkpt>
      <trkpt lat="44.32398" lon="0.78544">
        <ele>212</ele>
        <time>2025-10-12T12:13:14.518Z</time>
      </trkpt>
      <trkpt lat="44.32398" lon="0.78545">
        <ele>211</ele>
        <time>2025-10-12T12:13:15.518Z</time>
      </trkpt>
      <trkpt lat="44.32397" lon="0.78547">
        <ele>211</ele>
        <time>2025-10-12T12:13:16.518Z</time>
      </trkpt>
      <trkpt lat="44.32397" lon="0.78549">
        <ele>210</ele>
        <time>2025-10-12T12:13:17.518Z</time>
      </trkpt>
      <trkpt lat="44.32396" lon="0.7855">
        <ele>210</ele>
        <time>2025-10-12T12:13:18.518Z</time>
      </trkpt>
      <trkpt lat="44.32396" lon="0.78551">
        <ele>209</ele>
        <time>2025-10-12T12:13:19.518Z</time>
      </trkpt>
      <trkpt lat="44.32395" lon="0.78553">
        <ele>209</ele>
        <time>2025-10-12T12:13:20.518Z</time>
      </trkpt>
      <trkpt lat="44.32394" lon="0.78555">
        <ele>209</ele>
        <time>2025-10-12T12:13:21.518Z</time>
      </trkpt>
      <trkpt lat="44.32394" lon="0.78556">
        <ele>208</ele>
        <time>2025-10-12T12:13:22.518Z</time>
      </trkpt>
      <trkpt lat="44.32393" lon="0.78557">
        <ele>208</ele>
        <time>2025-10-12T12:13:23.518Z</time>
      </trkpt>
      <trkpt lat="44.32392" lon="0.78559">
        <ele>208</ele>
        <time>2025-10-12T12:13:24.518Z</time>
      </trkpt>
      <trkpt lat="44.32392" lon="0.7856">
        <ele>207</ele>
        <time>2025-10-12T12:13:25.518Z</time>
      </trkpt>
      <trkpt lat="44.32391" lon="0.78562">
        <ele>207</ele>
        <time>2025-10-12T12:13:26.518Z</time>
      </trkpt>
      <trkpt lat="44.3239" lon="0.78563">
        <ele>207</ele>
        <time>2025-10-12T12:13:27.518Z</time>
      </trkpt>
      <trkpt lat="44.3239" lon="0.78564">
        <ele>207</ele>
        <time>2025-10-12T12:13:28.518Z</time>
      </trkpt>
      <trkpt lat="44.32389" lon="0.78565">
        <ele>206</ele>
        <time>2025-10-12T12:13:29.518Z</time>
      </trkpt>
      <trkpt lat="44.32389" lon="0.78567">
        <ele>206</ele>
        <time>2025-10-12T12:13:30.518Z</time>
      </trkpt>
      <trkpt lat="44.32389" lon="0.78568">
        <ele>207</ele>
        <time>2025-10-12T12:13:31.518Z</time>
      </trkpt>
      <trkpt lat="44.32388" lon="0.7857">
        <ele>207</ele>
        <time>2025-10-12T12:13:32.518Z</time>
      </trkpt>
      <trkpt lat="44.32387" lon="0.78571">
        <ele>207</ele>
        <time>2025-10-12T12:13:33.518Z</time>
      </trkpt>
      <trkpt lat="44.32387" lon="0.78573">
        <ele>208</ele>
        <time>2025-10-12T12:13:34.518Z</time>
      </trkpt>
      <trkpt lat="44.32386" lon="0.78574">
        <ele>208</ele>
        <time>2025-10-12T12:13:35.518Z</time>
      </trkpt>
      <trkpt lat="44.32386" lon="0.78575">
        <ele>208</ele>
        <time>2025-10-12T12:13:36.518Z</time>
      </trkpt>
      <trkpt lat="44.32386" lon="0.78576">
        <ele>209</ele>
        <time>2025-10-12T12:13:37.518Z</time>
      </trkpt>
      <trkpt lat="44.32386" lon="0.78576">
        <ele>209</ele>
        <time>2025-10-12T12:13:38.518Z</time>
      </trkpt>
      <trkpt lat="44.32385" lon="0.78579">
        <ele>209</ele>
        <time>2025-10-12T12:13:39.518Z</time>
      </trkpt>
      <trkpt lat="44.32384" lon="0.78581">
        <ele>209</ele>
        <time>2025-10-12T12:13:40.518Z</time>
      </trkpt>
      <trkpt lat="44.32384" lon="0.78582">
        <ele>209</ele>
        <time>2025-10-12T12:13:41.518Z</time>
      </trkpt>
      <trkpt lat="44.32383" lon="0.78583">
        <ele>209</ele>
        <time>2025-10-12T12:13:42.518Z</time>
      </trkpt>
      <trkpt lat="44.32382" lon="0.78584">
        <ele>209</ele>
        <time>2025-10-12T12:13:43.518Z</time>
      </trkpt>
      <trkpt lat="44.32382" lon="0.78586">
        <ele>209</ele>
        <time>2025-10-12T12:13:44.518Z</time>
      </trkpt>
      <trkpt lat="44.32382" lon="0.78587">
        <ele>209</ele>
        <time>2025-10-12T12:13:45.518Z</time>
      </trkpt>
      <trkpt lat="44.32381" lon="0.78588">
        <ele>209</ele>
        <time>2025-10-12T12:13:46.518Z</time>
      </trkpt>
      <trkpt lat="44.32381" lon="0.7859">
        <ele>210</ele>
        <time>2025-10-12T12:13:47.518Z</time>
      </trkpt>
      <trkpt lat="44.32381" lon="0.78591">
        <ele>210</ele>
        <time>2025-10-12T12:13:48.518Z</time>
      </trkpt>
      <trkpt lat="44.3238" lon="0.78593">
        <ele>210</ele>
        <time>2025-10-12T12:13:49.518Z</time>
      </trkpt>
      <trkpt lat="44.3238" lon="0.78594">
        <ele>210</ele>
        <time>2025-10-12T12:13:50.518Z</time>
      </trkpt>
      <trkpt lat="44.32379" lon="0.78595">
        <ele>210</ele>
        <time>2025-10-12T12:13:51.518Z</time>
      </trkpt>
      <trkpt lat="44.32379" lon="0.78596">
        <ele>210</ele>
        <time>2025-10-12T12:13:52.518Z</time>
      </trkpt>
      <trkpt lat="44.32379" lon="0.78598">
        <ele>210</ele>
        <time>2025-10-12T12:13:53.518Z</time>
      </trkpt>
      <trkpt lat="44.32378" lon="0.786">
        <ele>210</ele>
        <time>2025-10-12T12:13:54.518Z</time>
      </trkpt>
      <trkpt lat="44.32378" lon="0.78601">
        <ele>211</ele>
        <time>2025-10-12T12:13:55.518Z</time>
      </trkpt>
      <trkpt lat="44.32377" lon="0.78603">
        <ele>211</ele>
        <time>2025-10-12T12:13:56.518Z</time>
      </trkpt>
      <trkpt lat="44.32377" lon="0.78604">
        <ele>211</ele>
        <time>2025-10-12T12:13:57.518Z</time>
      </trkpt>
      <trkpt lat="44.32376" lon="0.78605">
        <ele>211</ele>
        <time>2025-10-12T12:13:58.518Z</time>
      </trkpt>
      <trkpt lat="44.32376" lon="0.78605">
        <ele>211</ele>
        <time>2025-10-12T12:13:59.518Z</time>
      </trkpt>
      <trkpt lat="44.32375" lon="0.78608">
        <ele>211</ele>
        <time>2025-10-12T12:14:00.518Z</time>
      </trkpt>
      <trkpt lat="44.32374" lon="0.78609">
        <ele>211</ele>
        <time>2025-10-12T12:14:01.518Z</time>
      </trkpt>
      <trkpt lat="44.32374" lon="0.78611">
        <ele>211</ele>
        <time>2025-10-12T12:14:02.518Z</time>
      </trkpt>
      <trkpt lat="44.32373" lon="0.78612">
        <ele>211</ele>
        <time>2025-10-12T12:14:03.518Z</time>
      </trkpt>
      <trkpt lat="44.32373" lon="0.78614">
        <ele>211</ele>
        <time>2025-10-12T12:14:04.518Z</time>
      </trkpt>
      <trkpt lat="44.32373" lon="0.78614">
        <ele>211</ele>
        <time>2025-10-12T12:14:05.518Z</time>
      </trkpt>
      <trkpt lat="44.32372" lon="0.78616">
        <ele>211</ele>
        <time>2025-10-12T12:14:06.518Z</time>
      </trkpt>
      <trkpt lat="44.32372" lon="0.78617">
        <ele>211</ele>
        <time>2025-10-12T12:14:07.518Z</time>
      </trkpt>
      <trkpt lat="44.32371" lon="0.78618">
        <ele>211</ele>
        <time>2025-10-12T12:14:08.518Z</time>
      </trkpt>
      <trkpt lat="44.3237" lon="0.7862">
        <ele>211</ele>
        <time>2025-10-12T12:14:09.518Z</time>
      </trkpt>
      <trkpt lat="44.3237" lon="0.78622">
        <ele>211</ele>
        <time>2025-10-12T12:14:10.518Z</time>
      </trkpt>
      <trkpt lat="44.3237" lon="0.78622">
        <ele>211</ele>
        <time>2025-10-12T12:14:11.518Z</time>
      </trkpt>
      <trkpt lat="44.32369" lon="0.78625">
        <ele>211</ele>
        <time>2025-10-12T12:14:12.518Z</time>
      </trkpt>
      <trkpt lat="44.32369" lon="0.78626">
        <ele>211</ele>
        <time>2025-10-12T12:14:13.518Z</time>
      </trkpt>
      <trkpt lat="44.32369" lon="0.78626">
        <ele>211</ele>
        <time>2025-10-12T12:14:14.518Z</time>
      </trkpt>
      <trkpt lat="44.32368" lon="0.78629">
        <ele>212</ele>
        <time>2025-10-12T12:14:15.518Z</time>
      </trkpt>
      <trkpt lat="44.32367" lon="0.7863">
        <ele>212</ele>
        <time>2025-10-12T12:14:16.518Z</time>
      </trkpt>
      <trkpt lat="44.32367" lon="0.7863">
        <ele>212</ele>
        <time>2025-10-12T12:14:17.518Z</time>
      </trkpt>
      <trkpt lat="44.32367" lon="0.78634">
        <ele>212</ele>
        <time>2025-10-12T12:14:18.518Z</time>
      </trkpt>
      <trkpt lat="44.32367" lon="0.78635">
        <ele>212</ele>
        <time>2025-10-12T12:14:19.518Z</time>
      </trkpt>
      <trkpt lat="44.32367" lon="0.78635">
        <ele>212</ele>
        <time>2025-10-12T12:14:20.518Z</time>
      </trkpt>
      <trkpt lat="44.32366" lon="0.78637">
        <ele>212</ele>
        <time>2025-10-12T12:14:21.518Z</time>
      </trkpt>
      <trkpt lat="44.32366" lon="0.78639">
        <ele>212</ele>
        <time>2025-10-12T12:14:22.518Z</time>
      </trkpt>
      <trkpt lat="44.32366" lon="0.7864">
        <ele>212</ele>
        <time>2025-10-12T12:14:23.518Z</time>
      </trkpt>
      <trkpt lat="44.32366" lon="0.78642">
        <ele>213</ele>
        <time>2025-10-12T12:14:24.518Z</time>
      </trkpt>
      <trkpt lat="44.32366" lon="0.78643">
        <ele>213</ele>
        <time>2025-10-12T12:14:25.518Z</time>
      </trkpt>
      <trkpt lat="44.32366" lon="0.78644">
        <ele>213</ele>
        <time>2025-10-12T12:14:26.518Z</time>
      </trkpt>
      <trkpt lat="44.32366" lon="0.78646">
        <ele>213</ele>
        <time>2025-10-12T12:14:27.518Z</time>
      </trkpt>
      <trkpt lat="44.32366" lon="0.78647">
        <ele>213</ele>
        <time>2025-10-12T12:14:28.518Z</time>
      </trkpt>
      <trkpt lat="44.32366" lon="0.78649">
        <ele>213</ele>
        <time>2025-10-12T12:14:29.518Z</time>
      </trkpt>
      <trkpt lat="44.32366" lon="0.7865">
        <ele>213</ele>
        <time>2025-10-12T12:14:30.518Z</time>
      </trkpt>
      <trkpt lat="44.32366" lon="0.78651">
        <ele>213</ele>
        <time>2025-10-12T12:14:31.518Z</time>
      </trkpt>
      <trkpt lat="44.32367" lon="0.78652">
        <ele>213</ele>
        <time>2025-10-12T12:14:32.518Z</time>
      </trkpt>
      <trkpt lat="44.32367" lon="0.78653">
        <ele>213</ele>
        <time>2025-10-12T12:14:33.518Z</time>
      </trkpt>
      <trkpt lat="44.32367" lon="0.78654">
        <ele>213</ele>
        <time>2025-10-12T12:14:34.518Z</time>
      </trkpt>
      <trkpt lat="44.32367" lon="0.78654">
        <ele>213</ele>
        <time>2025-10-12T12:14:35.518Z</time>
      </trkpt>
      <trkpt lat="44.32367" lon="0.78656">
        <ele>213</ele>
        <time>2025-10-12T12:14:36.518Z</time>
      </trkpt>
      <trkpt lat="44.32367" lon="0.78657">
        <ele>213</ele>
        <time>2025-10-12T12:14:37.518Z</time>
      </trkpt>
      <trkpt lat="44.32367" lon="0.78657">
        <ele>213</ele>
        <time>2025-10-12T12:14:38.518Z</time>
      </trkpt>
      <trkpt lat="44.32369" lon="0.78659">
        <ele>212</ele>
        <time>2025-10-12T12:14:39.518Z</time>
      </trkpt>
      <trkpt lat="44.32369" lon="0.78659">
        <ele>212</ele>
        <time>2025-10-12T12:14:40.518Z</time>
      </trkpt>
      <trkpt lat="44.32369" lon="0.78659">
        <ele>212</ele>
        <time>2025-10-12T12:14:41.518Z</time>
      </trkpt>
      <trkpt lat="44.3237" lon="0.78661">
        <ele>212</ele>
        <time>2025-10-12T12:14:42.518Z</time>
      </trkpt>
      <trkpt lat="44.3237" lon="0.78662">
        <ele>212</ele>
        <time>2025-10-12T12:14:43.518Z</time>
      </trkpt>
      <trkpt lat="44.3237" lon="0.78662">
        <ele>212</ele>
        <time>2025-10-12T12:14:44.518Z</time>
      </trkpt>
      <trkpt lat="44.32371" lon="0.78664">
        <ele>212</ele>
        <time>2025-10-12T12:14:45.518Z</time>
      </trkpt>
      <trkpt lat="44.32371" lon="0.78665">
        <ele>212</ele>
        <time>2025-10-12T12:14:46.518Z</time>
      </trkpt>
      <trkpt lat="44.32371" lon="0.78665">
        <ele>212</ele>
        <time>2025-10-12T12:14:47.518Z</time>
      </trkpt>
      <trkpt lat="44.32374" lon="0.78668">
        <ele>213</ele>
        <time>2025-10-12T12:14:48.518Z</time>
      </trkpt>
      <trkpt lat="44.32375" lon="0.78668">
        <ele>213</ele>
        <time>2025-10-12T12:14:49.518Z</time>
      </trkpt>
      <trkpt lat="44.32375" lon="0.78668">
        <ele>213</ele>
        <time>2025-10-12T12:14:50.518Z</time>
      </trkpt>
      <trkpt lat="44.32377" lon="0.7867">
        <ele>213</ele>
        <time>2025-10-12T12:14:51.518Z</time>
      </trkpt>
      <trkpt lat="44.32377" lon="0.78671">
        <ele>214</ele>
        <time>2025-10-12T12:14:52.518Z</time>
      </trkpt>
      <trkpt lat="44.32377" lon="0.78671">
        <ele>214</ele>
        <time>2025-10-12T12:14:53.518Z</time>
      </trkpt>
      <trkpt lat="44.32379" lon="0.78672">
        <ele>214</ele>
        <time>2025-10-12T12:14:54.518Z</time>
      </trkpt>
      <trkpt lat="44.3238" lon="0.78673">
        <ele>215</ele>
        <time>2025-10-12T12:14:55.518Z</time>
      </trkpt>
      <trkpt lat="44.3238" lon="0.78673">
        <ele>215</ele>
        <time>2025-10-12T12:14:56.518Z</time>
      </trkpt>
      <trkpt lat="44.32382" lon="0.78673">
        <ele>215</ele>
        <time>2025-10-12T12:14:57.518Z</time>
      </trkpt>
      <trkpt lat="44.32383" lon="0.78673">
        <ele>216</ele>
        <time>2025-10-12T12:14:58.518Z</time>
      </trkpt>
      <trkpt lat="44.32384" lon="0.78674">
        <ele>216</ele>
        <time>2025-10-12T12:14:59.518Z</time>
      </trkpt>
      <trkpt lat="44.32386" lon="0.78674">
        <ele>216</ele>
        <time>2025-10-12T12:15:00.518Z</time>
      </trkpt>
      <trkpt lat="44.32387" lon="0.78675">
        <ele>216</ele>
        <time>2025-10-12T12:15:01.518Z</time>
      </trkpt>
      <trkpt lat="44.32387" lon="0.78675">
        <ele>216</ele>
        <time>2025-10-12T12:15:02.518Z</time>
      </trkpt>
      <trkpt lat="44.32389" lon="0.78675">
        <ele>216</ele>
        <time>2025-10-12T12:15:03.518Z</time>
      </trkpt>
      <trkpt lat="44.3239" lon="0.78676">
        <ele>216</ele>
        <time>2025-10-12T12:15:04.518Z</time>
      </trkpt>
      <trkpt lat="44.32391" lon="0.78676">
        <ele>216</ele>
        <time>2025-10-12T12:15:05.518Z</time>
      </trkpt>
      <trkpt lat="44.32392" lon="0.78676">
        <ele>216</ele>
        <time>2025-10-12T12:15:06.518Z</time>
      </trkpt>
      <trkpt lat="44.32394" lon="0.78676">
        <ele>216</ele>
        <time>2025-10-12T12:15:07.518Z</time>
      </trkpt>
      <trkpt lat="44.32395" lon="0.78676">
        <ele>216</ele>
        <time>2025-10-12T12:15:08.518Z</time>
      </trkpt>
      <trkpt lat="44.32396" lon="0.78676">
        <ele>216</ele>
        <time>2025-10-12T12:15:09.518Z</time>
      </trkpt>
      <trkpt lat="44.32397" lon="0.78676">
        <ele>216</ele>
        <time>2025-10-12T12:15:10.518Z</time>
      </trkpt>
      <trkpt lat="44.32397" lon="0.78676">
        <ele>216</ele>
        <time>2025-10-12T12:15:11.518Z</time>
      </trkpt>
      <trkpt lat="44.324" lon="0.78676">
        <ele>216</ele>
        <time>2025-10-12T12:15:12.518Z</time>
      </trkpt>
      <trkpt lat="44.32402" lon="0.78677">
        <ele>216</ele>
        <time>2025-10-12T12:15:13.518Z</time>
      </trkpt>
      <trkpt lat="44.32402" lon="0.78677">
        <ele>216</ele>
        <time>2025-10-12T12:15:14.518Z</time>
      </trkpt>
      <trkpt lat="44.32404" lon="0.78677">
        <ele>217</ele>
        <time>2025-10-12T12:15:15.518Z</time>
      </trkpt>
      <trkpt lat="44.32406" lon="0.78677">
        <ele>217</ele>
        <time>2025-10-12T12:15:16.518Z</time>
      </trkpt>
      <trkpt lat="44.32406" lon="0.78677">
        <ele>217</ele>
        <time>2025-10-12T12:15:17.518Z</time>
      </trkpt>
      <trkpt lat="44.32408" lon="0.78678">
        <ele>217</ele>
        <time>2025-10-12T12:15:18.518Z</time>
      </trkpt>
      <trkpt lat="44.32409" lon="0.78677">
        <ele>217</ele>
        <time>2025-10-12T12:15:19.518Z</time>
      </trkpt>
      <trkpt lat="44.32409" lon="0.78677">
        <ele>217</ele>
        <time>2025-10-12T12:15:20.518Z</time>
      </trkpt>
      <trkpt lat="44.32411" lon="0.78677">
        <ele>217</ele>
        <time>2025-10-12T12:15:21.518Z</time>
      </trkpt>
      <trkpt lat="44.32413" lon="0.78677">
        <ele>217</ele>
        <time>2025-10-12T12:15:22.518Z</time>
      </trkpt>
      <trkpt lat="44.32413" lon="0.78677">
        <ele>217</ele>
        <time>2025-10-12T12:15:23.518Z</time>
      </trkpt>
      <trkpt lat="44.32415" lon="0.78677">
        <ele>217</ele>
        <time>2025-10-12T12:15:24.518Z</time>
      </trkpt>
      <trkpt lat="44.32416" lon="0.78677">
        <ele>216</ele>
        <time>2025-10-12T12:15:25.518Z</time>
      </trkpt>
      <trkpt lat="44.32416" lon="0.78677">
        <ele>216</ele>
        <time>2025-10-12T12:15:26.518Z</time>
      </trkpt>
      <trkpt lat="44.32418" lon="0.78677">
        <ele>216</ele>
        <time>2025-10-12T12:15:27.518Z</time>
      </trkpt>
      <trkpt lat="44.32419" lon="0.78677">
        <ele>215</ele>
        <time>2025-10-12T12:15:28.518Z</time>
      </trkpt>
      <trkpt lat="44.32419" lon="0.78677">
        <ele>215</ele>
        <time>2025-10-12T12:15:29.518Z</time>
      </trkpt>
      <trkpt lat="44.32421" lon="0.78677">
        <ele>215</ele>
        <time>2025-10-12T12:15:30.518Z</time>
      </trkpt>
      <trkpt lat="44.32422" lon="0.78677">
        <ele>215</ele>
        <time>2025-10-12T12:15:31.518Z</time>
      </trkpt>
      <trkpt lat="44.32422" lon="0.78677">
        <ele>215</ele>
        <time>2025-10-12T12:15:32.518Z</time>
      </trkpt>
      <trkpt lat="44.32425" lon="0.78677">
        <ele>215</ele>
        <time>2025-10-12T12:15:33.518Z</time>
      </trkpt>
      <trkpt lat="44.32426" lon="0.78676">
        <ele>215</ele>
        <time>2025-10-12T12:15:34.518Z</time>
      </trkpt>
      <trkpt lat="44.32426" lon="0.78676">
        <ele>215</ele>
        <time>2025-10-12T12:15:35.518Z</time>
      </trkpt>
      <trkpt lat="44.32429" lon="0.78676">
        <ele>215</ele>
        <time>2025-10-12T12:15:36.518Z</time>
      </trkpt>
      <trkpt lat="44.3243" lon="0.78676">
        <ele>215</ele>
        <time>2025-10-12T12:15:37.518Z</time>
      </trkpt>
      <trkpt lat="44.32431" lon="0.78676">
        <ele>215</ele>
        <time>2025-10-12T12:15:38.518Z</time>
      </trkpt>
      <trkpt lat="44.32432" lon="0.78676">
        <ele>215</ele>
        <time>2025-10-12T12:15:39.518Z</time>
      </trkpt>
      <trkpt lat="44.32434" lon="0.78676">
        <ele>215</ele>
        <time>2025-10-12T12:15:40.518Z</time>
      </trkpt>
      <trkpt lat="44.32435" lon="0.78676">
        <ele>216</ele>
        <time>2025-10-12T12:15:41.518Z</time>
      </trkpt>
      <trkpt lat="44.32436" lon="0.78676">
        <ele>216</ele>
        <time>2025-10-12T12:15:42.518Z</time>
      </trkpt>
      <trkpt lat="44.32437" lon="0.78675">
        <ele>216</ele>
        <time>2025-10-12T12:15:43.518Z</time>
      </trkpt>
      <trkpt lat="44.32438" lon="0.78675">
        <ele>216</ele>
        <time>2025-10-12T12:15:44.518Z</time>
      </trkpt>
      <trkpt lat="44.3244" lon="0.78675">
        <ele>217</ele>
        <time>2025-10-12T12:15:45.518Z</time>
      </trkpt>
      <trkpt lat="44.32441" lon="0.78675">
        <ele>217</ele>
        <time>2025-10-12T12:15:46.518Z</time>
      </trkpt>
      <trkpt lat="44.32441" lon="0.78675">
        <ele>217</ele>
        <time>2025-10-12T12:15:47.518Z</time>
      </trkpt>
      <trkpt lat="44.32444" lon="0.78676">
        <ele>217</ele>
        <time>2025-10-12T12:15:48.518Z</time>
      </trkpt>
      <trkpt lat="44.32445" lon="0.78676">
        <ele>217</ele>
        <time>2025-10-12T12:15:49.518Z</time>
      </trkpt>
      <trkpt lat="44.32445" lon="0.78676">
        <ele>217</ele>
        <time>2025-10-12T12:15:50.518Z</time>
      </trkpt>
      <trkpt lat="44.32448" lon="0.78675">
        <ele>217</ele>
        <time>2025-10-12T12:15:51.518Z</time>
      </trkpt>
      <trkpt lat="44.32449" lon="0.78674">
        <ele>217</ele>
        <time>2025-10-12T12:15:52.518Z</time>
      </trkpt>
      <trkpt lat="44.32449" lon="0.78674">
        <ele>217</ele>
        <time>2025-10-12T12:15:53.518Z</time>
      </trkpt>
      <trkpt lat="44.32451" lon="0.78673">
        <ele>217</ele>
        <time>2025-10-12T12:15:54.518Z</time>
      </trkpt>
      <trkpt lat="44.32453" lon="0.78673">
        <ele>217</ele>
        <time>2025-10-12T12:15:55.518Z</time>
      </trkpt>
      <trkpt lat="44.32453" lon="0.78673">
        <ele>217</ele>
        <time>2025-10-12T12:15:56.518Z</time>
      </trkpt>
      <trkpt lat="44.32456" lon="0.78673">
        <ele>218</ele>
        <time>2025-10-12T12:15:57.518Z</time>
      </trkpt>
      <trkpt lat="44.32458" lon="0.78673">
        <ele>218</ele>
        <time>2025-10-12T12:15:58.518Z</time>
      </trkpt>
      <trkpt lat="44.32458" lon="0.78673">
        <ele>218</ele>
        <time>2025-10-12T12:15:59.518Z</time>
      </trkpt>
      <trkpt lat="44.32461" lon="0.78673">
        <ele>219</ele>
        <time>2025-10-12T12:16:00.518Z</time>
      </trkpt>
      <trkpt lat="44.32462" lon="0.78673">
        <ele>220</ele>
        <time>2025-10-12T12:16:01.518Z</time>
      </trkpt>
      <trkpt lat="44.32462" lon="0.78673">
        <ele>220</ele>
        <time>2025-10-12T12:16:02.518Z</time>
      </trkpt>
      <trkpt lat="44.32464" lon="0.78674">
        <ele>220</ele>
        <time>2025-10-12T12:16:03.518Z</time>
      </trkpt>
      <trkpt lat="44.32466" lon="0.78674">
        <ele>220</ele>
        <time>2025-10-12T12:16:04.518Z</time>
      </trkpt>
      <trkpt lat="44.32466" lon="0.78674">
        <ele>220</ele>
        <time>2025-10-12T12:16:05.518Z</time>
      </trkpt>
      <trkpt lat="44.32468" lon="0.78673">
        <ele>220</ele>
        <time>2025-10-12T12:16:06.518Z</time>
      </trkpt>
      <trkpt lat="44.3247" lon="0.78673">
        <ele>220</ele>
        <time>2025-10-12T12:16:07.518Z</time>
      </trkpt>
      <trkpt lat="44.3247" lon="0.78673">
        <ele>220</ele>
        <time>2025-10-12T12:16:08.519Z</time>
      </trkpt>
      <trkpt lat="44.32472" lon="0.78673">
        <ele>220</ele>
        <time>2025-10-12T12:16:09.518Z</time>
      </trkpt>
      <trkpt lat="44.32473" lon="0.78673">
        <ele>220</ele>
        <time>2025-10-12T12:16:10.518Z</time>
      </trkpt>
      <trkpt lat="44.32473" lon="0.78673">
        <ele>220</ele>
        <time>2025-10-12T12:16:11.518Z</time>
      </trkpt>
      <trkpt lat="44.32475" lon="0.78673">
        <ele>220</ele>
        <time>2025-10-12T12:16:12.518Z</time>
      </trkpt>
      <trkpt lat="44.32476" lon="0.78673">
        <ele>221</ele>
        <time>2025-10-12T12:16:13.518Z</time>
      </trkpt>
      <trkpt lat="44.32476" lon="0.78673">
        <ele>221</ele>
        <time>2025-10-12T12:16:14.518Z</time>
      </trkpt>
      <trkpt lat="44.32479" lon="0.78673">
        <ele>221</ele>
        <time>2025-10-12T12:16:15.518Z</time>
      </trkpt>
      <trkpt lat="44.3248" lon="0.78673">
        <ele>221</ele>
        <time>2025-10-12T12:16:16.518Z</time>
      </trkpt>
      <trkpt lat="44.3248" lon="0.78673">
        <ele>221</ele>
        <time>2025-10-12T12:16:17.518Z</time>
      </trkpt>
      <trkpt lat="44.32482" lon="0.78673">
        <ele>221</ele>
        <time>2025-10-12T12:16:18.518Z</time>
      </trkpt>
      <trkpt lat="44.32484" lon="0.78673">
        <ele>221</ele>
        <time>2025-10-12T12:16:19.518Z</time>
      </trkpt>
      <trkpt lat="44.32484" lon="0.78673">
        <ele>221</ele>
        <time>2025-10-12T12:16:20.518Z</time>
      </trkpt>
      <trkpt lat="44.32485" lon="0.78673">
        <ele>221</ele>
        <time>2025-10-12T12:16:21.518Z</time>
      </trkpt>
      <trkpt lat="44.32486" lon="0.78672">
        <ele>221</ele>
        <time>2025-10-12T12:16:22.518Z</time>
      </trkpt>
      <trkpt lat="44.32487" lon="0.78672">
        <ele>221</ele>
        <time>2025-10-12T12:16:23.518Z</time>
      </trkpt>
      <trkpt lat="44.32489" lon="0.78672">
        <ele>221</ele>
        <time>2025-10-12T12:16:24.518Z</time>
      </trkpt>
      <trkpt lat="44.3249" lon="0.78672">
        <ele>221</ele>
        <time>2025-10-12T12:16:25.518Z</time>
      </trkpt>
      <trkpt lat="44.3249" lon="0.78672">
        <ele>221</ele>
        <time>2025-10-12T12:16:26.518Z</time>
      </trkpt>
      <trkpt lat="44.32493" lon="0.78671">
        <ele>220</ele>
        <time>2025-10-12T12:16:27.518Z</time>
      </trkpt>
      <trkpt lat="44.32494" lon="0.78672">
        <ele>220</ele>
        <time>2025-10-12T12:16:28.518Z</time>
      </trkpt>
      <trkpt lat="44.32494" lon="0.78672">
        <ele>220</ele>
        <time>2025-10-12T12:16:29.518Z</time>
      </trkpt>
      <trkpt lat="44.32497" lon="0.78672">
        <ele>220</ele>
        <time>2025-10-12T12:16:30.518Z</time>
      </trkpt>
      <trkpt lat="44.32498" lon="0.78672">
        <ele>220</ele>
        <time>2025-10-12T12:16:31.518Z</time>
      </trkpt>
      <trkpt lat="44.32498" lon="0.78672">
        <ele>220</ele>
        <time>2025-10-12T12:16:32.518Z</time>
      </trkpt>
      <trkpt lat="44.32501" lon="0.78672">
        <ele>220</ele>
        <time>2025-10-12T12:16:33.518Z</time>
      </trkpt>
      <trkpt lat="44.32502" lon="0.78672">
        <ele>221</ele>
        <time>2025-10-12T12:16:34.518Z</time>
      </trkpt>
      <trkpt lat="44.32502" lon="0.78672">
        <ele>221</ele>
        <time>2025-10-12T12:16:35.518Z</time>
      </trkpt>
      <trkpt lat="44.32504" lon="0.78671">
        <ele>220</ele>
        <time>2025-10-12T12:16:36.518Z</time>
      </trkpt>
      <trkpt lat="44.32505" lon="0.78671">
        <ele>220</ele>
        <time>2025-10-12T12:16:37.518Z</time>
      </trkpt>
      <trkpt lat="44.32505" lon="0.78671">
        <ele>220</ele>
        <time>2025-10-12T12:16:38.518Z</time>
      </trkpt>
      <trkpt lat="44.32507" lon="0.78671">
        <ele>220</ele>
        <time>2025-10-12T12:16:39.518Z</time>
      </trkpt>
      <trkpt lat="44.32508" lon="0.78671">
        <ele>220</ele>
        <time>2025-10-12T12:16:40.518Z</time>
      </trkpt>
      <trkpt lat="44.32508" lon="0.78671">
        <ele>220</ele>
        <time>2025-10-12T12:16:41.518Z</time>
      </trkpt>
      <trkpt lat="44.32511" lon="0.7867">
        <ele>220</ele>
        <time>2025-10-12T12:16:42.518Z</time>
      </trkpt>
      <trkpt lat="44.32513" lon="0.7867">
        <ele>220</ele>
        <time>2025-10-12T12:16:43.518Z</time>
      </trkpt>
      <trkpt lat="44.32514" lon="0.7867">
        <ele>220</ele>
        <time>2025-10-12T12:16:44.518Z</time>
      </trkpt>
      <trkpt lat="44.32514" lon="0.7867">
        <ele>220</ele>
        <time>2025-10-12T12:16:45.518Z</time>
      </trkpt>
      <trkpt lat="44.32516" lon="0.7867">
        <ele>220</ele>
        <time>2025-10-12T12:16:46.518Z</time>
      </trkpt>
      <trkpt lat="44.32517" lon="0.7867">
        <ele>220</ele>
        <time>2025-10-12T12:16:47.518Z</time>
      </trkpt>
      <trkpt lat="44.32518" lon="0.7867">
        <ele>220</ele>
        <time>2025-10-12T12:16:48.518Z</time>
      </trkpt>
      <trkpt lat="44.3252" lon="0.7867">
        <ele>220</ele>
        <time>2025-10-12T12:16:49.518Z</time>
      </trkpt>
      <trkpt lat="44.32521" lon="0.7867">
        <ele>220</ele>
        <time>2025-10-12T12:16:50.518Z</time>
      </trkpt>
      <trkpt lat="44.32522" lon="0.78671">
        <ele>220</ele>
        <time>2025-10-12T12:16:51.518Z</time>
      </trkpt>
      <trkpt lat="44.32524" lon="0.78671">
        <ele>220</ele>
        <time>2025-10-12T12:16:52.518Z</time>
      </trkpt>
      <trkpt lat="44.32524" lon="0.78671">
        <ele>220</ele>
        <time>2025-10-12T12:16:53.518Z</time>
      </trkpt>
      <trkpt lat="44.32526" lon="0.78671">
        <ele>220</ele>
        <time>2025-10-12T12:16:54.518Z</time>
      </trkpt>
      <trkpt lat="44.32527" lon="0.78671">
        <ele>220</ele>
        <time>2025-10-12T12:16:55.518Z</time>
      </trkpt>
      <trkpt lat="44.32527" lon="0.78671">
        <ele>220</ele>
        <time>2025-10-12T12:16:56.518Z</time>
      </trkpt>
      <trkpt lat="44.32529" lon="0.78671">
        <ele>220</ele>
        <time>2025-10-12T12:16:57.518Z</time>
      </trkpt>
      <trkpt lat="44.32531" lon="0.78671">
        <ele>220</ele>
        <time>2025-10-12T12:16:58.518Z</time>
      </trkpt>
      <trkpt lat="44.32531" lon="0.78671">
        <ele>220</ele>
        <time>2025-10-12T12:16:59.518Z</time>
      </trkpt>
      <trkpt lat="44.32533" lon="0.78671">
        <ele>220</ele>
        <time>2025-10-12T12:17:00.518Z</time>
      </trkpt>
      <trkpt lat="44.32534" lon="0.78671">
        <ele>220</ele>
        <time>2025-10-12T12:17:01.518Z</time>
      </trkpt>
      <trkpt lat="44.32534" lon="0.78671">
        <ele>220</ele>
        <time>2025-10-12T12:17:02.518Z</time>
      </trkpt>
      <trkpt lat="44.32537" lon="0.78672">
        <ele>220</ele>
        <time>2025-10-12T12:17:03.518Z</time>
      </trkpt>
      <trkpt lat="44.32538" lon="0.78672">
        <ele>220</ele>
        <time>2025-10-12T12:17:04.518Z</time>
      </trkpt>
      <trkpt lat="44.32538" lon="0.78672">
        <ele>220</ele>
        <time>2025-10-12T12:17:05.518Z</time>
      </trkpt>
      <trkpt lat="44.32541" lon="0.78673">
        <ele>220</ele>
        <time>2025-10-12T12:17:06.518Z</time>
      </trkpt>
      <trkpt lat="44.32542" lon="0.78673">
        <ele>220</ele>
        <time>2025-10-12T12:17:07.518Z</time>
      </trkpt>
      <trkpt lat="44.32542" lon="0.78673">
        <ele>220</ele>
        <time>2025-10-12T12:17:08.518Z</time>
      </trkpt>
      <trkpt lat="44.32545" lon="0.78672">
        <ele>220</ele>
        <time>2025-10-12T12:17:09.518Z</time>
      </trkpt>
      <trkpt lat="44.32546" lon="0.78672">
        <ele>220</ele>
        <time>2025-10-12T12:17:10.518Z</time>
      </trkpt>
      <trkpt lat="44.32546" lon="0.78672">
        <ele>220</ele>
        <time>2025-10-12T12:17:11.518Z</time>
      </trkpt>
      <trkpt lat="44.32549" lon="0.78672">
        <ele>220</ele>
        <time>2025-10-12T12:17:12.518Z</time>
      </trkpt>
      <trkpt lat="44.3255" lon="0.78672">
        <ele>220</ele>
        <time>2025-10-12T12:17:13.518Z</time>
      </trkpt>
      <trkpt lat="44.3255" lon="0.78672">
        <ele>220</ele>
        <time>2025-10-12T12:17:14.518Z</time>
      </trkpt>
      <trkpt lat="44.32552" lon="0.78673">
        <ele>219</ele>
        <time>2025-10-12T12:17:15.518Z</time>
      </trkpt>
      <trkpt lat="44.32553" lon="0.78672">
        <ele>219</ele>
        <time>2025-10-12T12:17:16.518Z</time>
      </trkpt>
      <trkpt lat="44.32553" lon="0.78672">
        <ele>219</ele>
        <time>2025-10-12T12:17:17.518Z</time>
      </trkpt>
      <trkpt lat="44.32555" lon="0.78672">
        <ele>218</ele>
        <time>2025-10-12T12:17:18.518Z</time>
      </trkpt>
      <trkpt lat="44.32556" lon="0.78672">
        <ele>218</ele>
        <time>2025-10-12T12:17:19.518Z</time>
      </trkpt>
      <trkpt lat="44.32556" lon="0.78672">
        <ele>218</ele>
        <time>2025-10-12T12:17:20.518Z</time>
      </trkpt>
      <trkpt lat="44.32558" lon="0.78671">
        <ele>217</ele>
        <time>2025-10-12T12:17:21.518Z</time>
      </trkpt>
      <trkpt lat="44.32559" lon="0.78671">
        <ele>217</ele>
        <time>2025-10-12T12:17:22.518Z</time>
      </trkpt>
      <trkpt lat="44.32559" lon="0.78671">
        <ele>217</ele>
        <time>2025-10-12T12:17:23.518Z</time>
      </trkpt>
      <trkpt lat="44.32561" lon="0.78671">
        <ele>216</ele>
        <time>2025-10-12T12:17:24.518Z</time>
      </trkpt>
      <trkpt lat="44.32562" lon="0.78671">
        <ele>215</ele>
        <time>2025-10-12T12:17:25.518Z</time>
      </trkpt>
      <trkpt lat="44.32563" lon="0.78671">
        <ele>214</ele>
        <time>2025-10-12T12:17:26.518Z</time>
      </trkpt>
      <trkpt lat="44.32564" lon="0.7867">
        <ele>214</ele>
        <time>2025-10-12T12:17:27.518Z</time>
      </trkpt>
      <trkpt lat="44.32565" lon="0.7867">
        <ele>213</ele>
        <time>2025-10-12T12:17:28.518Z</time>
      </trkpt>
      <trkpt lat="44.32566" lon="0.78669">
        <ele>213</ele>
        <time>2025-10-12T12:17:29.518Z</time>
      </trkpt>
      <trkpt lat="44.32567" lon="0.78669">
        <ele>213</ele>
        <time>2025-10-12T12:17:30.518Z</time>
      </trkpt>
      <trkpt lat="44.32568" lon="0.78669">
        <ele>212</ele>
        <time>2025-10-12T12:17:31.518Z</time>
      </trkpt>
      <trkpt lat="44.32568" lon="0.78669">
        <ele>212</ele>
        <time>2025-10-12T12:17:32.518Z</time>
      </trkpt>
      <trkpt lat="44.3257" lon="0.78668">
        <ele>212</ele>
        <time>2025-10-12T12:17:33.518Z</time>
      </trkpt>
      <trkpt lat="44.32572" lon="0.78668">
        <ele>213</ele>
        <time>2025-10-12T12:17:34.518Z</time>
      </trkpt>
      <trkpt lat="44.32572" lon="0.78668">
        <ele>213</ele>
        <time>2025-10-12T12:17:35.518Z</time>
      </trkpt>
      <trkpt lat="44.32574" lon="0.78667">
        <ele>213</ele>
        <time>2025-10-12T12:17:36.518Z</time>
      </trkpt>
      <trkpt lat="44.32576" lon="0.78667">
        <ele>214</ele>
        <time>2025-10-12T12:17:37.518Z</time>
      </trkpt>
      <trkpt lat="44.32576" lon="0.78667">
        <ele>214</ele>
        <time>2025-10-12T12:17:38.518Z</time>
      </trkpt>
      <trkpt lat="44.32578" lon="0.78667">
        <ele>215</ele>
        <time>2025-10-12T12:17:39.518Z</time>
      </trkpt>
      <trkpt lat="44.32579" lon="0.78667">
        <ele>215</ele>
        <time>2025-10-12T12:17:40.518Z</time>
      </trkpt>
      <trkpt lat="44.32579" lon="0.78667">
        <ele>215</ele>
        <time>2025-10-12T12:17:41.518Z</time>
      </trkpt>
      <trkpt lat="44.32582" lon="0.78666">
        <ele>216</ele>
        <time>2025-10-12T12:17:42.518Z</time>
      </trkpt>
      <trkpt lat="44.32584" lon="0.78666">
        <ele>216</ele>
        <time>2025-10-12T12:17:43.518Z</time>
      </trkpt>
      <trkpt lat="44.32584" lon="0.78666">
        <ele>216</ele>
        <time>2025-10-12T12:17:44.518Z</time>
      </trkpt>
      <trkpt lat="44.32586" lon="0.78665">
        <ele>216</ele>
        <time>2025-10-12T12:17:45.518Z</time>
      </trkpt>
      <trkpt lat="44.32587" lon="0.78665">
        <ele>216</ele>
        <time>2025-10-12T12:17:46.518Z</time>
      </trkpt>
      <trkpt lat="44.32587" lon="0.78665">
        <ele>216</ele>
        <time>2025-10-12T12:17:47.518Z</time>
      </trkpt>
      <trkpt lat="44.32589" lon="0.78665">
        <ele>217</ele>
        <time>2025-10-12T12:17:48.518Z</time>
      </trkpt>
      <trkpt lat="44.3259" lon="0.78665">
        <ele>217</ele>
        <time>2025-10-12T12:17:49.518Z</time>
      </trkpt>
      <trkpt lat="44.3259" lon="0.78665">
        <ele>217</ele>
        <time>2025-10-12T12:17:50.518Z</time>
      </trkpt>
      <trkpt lat="44.32593" lon="0.78664">
        <ele>217</ele>
        <time>2025-10-12T12:17:51.518Z</time>
      </trkpt>
      <trkpt lat="44.32594" lon="0.78664">
        <ele>218</ele>
        <time>2025-10-12T12:17:52.518Z</time>
      </trkpt>
      <trkpt lat="44.32594" lon="0.78664">
        <ele>218</ele>
        <time>2025-10-12T12:17:53.518Z</time>
      </trkpt>
      <trkpt lat="44.32597" lon="0.78663">
        <ele>218</ele>
        <time>2025-10-12T12:17:54.518Z</time>
      </trkpt>
      <trkpt lat="44.32598" lon="0.78663">
        <ele>218</ele>
        <time>2025-10-12T12:17:55.518Z</time>
      </trkpt>
      <trkpt lat="44.32598" lon="0.78663">
        <ele>218</ele>
        <time>2025-10-12T12:17:56.518Z</time>
      </trkpt>
      <trkpt lat="44.326" lon="0.78662">
        <ele>218</ele>
        <time>2025-10-12T12:17:57.518Z</time>
      </trkpt>
      <trkpt lat="44.32601" lon="0.78662">
        <ele>218</ele>
        <time>2025-10-12T12:17:58.518Z</time>
      </trkpt>
      <trkpt lat="44.32601" lon="0.78662">
        <ele>218</ele>
        <time>2025-10-12T12:17:59.518Z</time>
      </trkpt>
      <trkpt lat="44.32603" lon="0.7866">
        <ele>218</ele>
        <time>2025-10-12T12:18:00.518Z</time>
      </trkpt>
      <trkpt lat="44.32603" lon="0.7866">
        <ele>218</ele>
        <time>2025-10-12T12:18:01.518Z</time>
      </trkpt>
      <trkpt lat="44.32605" lon="0.78659">
        <ele>217</ele>
        <time>2025-10-12T12:18:02.518Z</time>
      </trkpt>
      <trkpt lat="44.32606" lon="0.78658">
        <ele>217</ele>
        <time>2025-10-12T12:18:03.518Z</time>
      </trkpt>
      <trkpt lat="44.32606" lon="0.78658">
        <ele>217</ele>
        <time>2025-10-12T12:18:04.518Z</time>
      </trkpt>
      <trkpt lat="44.32608" lon="0.78657">
        <ele>217</ele>
        <time>2025-10-12T12:18:05.518Z</time>
      </trkpt>
      <trkpt lat="44.32609" lon="0.78656">
        <ele>217</ele>
        <time>2025-10-12T12:18:06.518Z</time>
      </trkpt>
      <trkpt lat="44.32611" lon="0.78655">
        <ele>216</ele>
        <time>2025-10-12T12:18:07.518Z</time>
      </trkpt>
      <trkpt lat="44.32611" lon="0.78655">
        <ele>216</ele>
        <time>2025-10-12T12:18:08.518Z</time>
      </trkpt>
      <trkpt lat="44.32613" lon="0.78654">
        <ele>216</ele>
        <time>2025-10-12T12:18:09.518Z</time>
      </trkpt>
      <trkpt lat="44.32614" lon="0.78653">
        <ele>216</ele>
        <time>2025-10-12T12:18:10.518Z</time>
      </trkpt>
      <trkpt lat="44.32614" lon="0.78653">
        <ele>216</ele>
        <time>2025-10-12T12:18:11.518Z</time>
      </trkpt>
      <trkpt lat="44.32616" lon="0.78652">
        <ele>216</ele>
        <time>2025-10-12T12:18:12.518Z</time>
      </trkpt>
      <trkpt lat="44.32617" lon="0.78651">
        <ele>216</ele>
        <time>2025-10-12T12:18:13.518Z</time>
      </trkpt>
      <trkpt lat="44.32617" lon="0.78651">
        <ele>216</ele>
        <time>2025-10-12T12:18:14.518Z</time>
      </trkpt>
      <trkpt lat="44.32619" lon="0.7865">
        <ele>215</ele>
        <time>2025-10-12T12:18:15.518Z</time>
      </trkpt>
      <trkpt lat="44.3262" lon="0.78649">
        <ele>216</ele>
        <time>2025-10-12T12:18:16.518Z</time>
      </trkpt>
      <trkpt lat="44.3262" lon="0.78649">
        <ele>216</ele>
        <time>2025-10-12T12:18:17.518Z</time>
      </trkpt>
      <trkpt lat="44.32622" lon="0.78648">
        <ele>216</ele>
        <time>2025-10-12T12:18:18.518Z</time>
      </trkpt>
      <trkpt lat="44.32623" lon="0.78648">
        <ele>216</ele>
        <time>2025-10-12T12:18:19.518Z</time>
      </trkpt>
      <trkpt lat="44.32623" lon="0.78648">
        <ele>216</ele>
        <time>2025-10-12T12:18:20.518Z</time>
      </trkpt>
      <trkpt lat="44.32626" lon="0.78647">
        <ele>216</ele>
        <time>2025-10-12T12:18:21.518Z</time>
      </trkpt>
      <trkpt lat="44.32627" lon="0.78646">
        <ele>216</ele>
        <time>2025-10-12T12:18:22.518Z</time>
      </trkpt>
      <trkpt lat="44.32627" lon="0.78646">
        <ele>216</ele>
        <time>2025-10-12T12:18:23.518Z</time>
      </trkpt>
      <trkpt lat="44.32629" lon="0.78645">
        <ele>216</ele>
        <time>2025-10-12T12:18:24.518Z</time>
      </trkpt>
      <trkpt lat="44.3263" lon="0.78645">
        <ele>216</ele>
        <time>2025-10-12T12:18:25.518Z</time>
      </trkpt>
      <trkpt lat="44.3263" lon="0.78645">
        <ele>216</ele>
        <time>2025-10-12T12:18:26.518Z</time>
      </trkpt>
      <trkpt lat="44.32632" lon="0.78644">
        <ele>216</ele>
        <time>2025-10-12T12:18:27.518Z</time>
      </trkpt>
      <trkpt lat="44.32634" lon="0.78644">
        <ele>216</ele>
        <time>2025-10-12T12:18:28.518Z</time>
      </trkpt>
      <trkpt lat="44.32634" lon="0.78644">
        <ele>216</ele>
        <time>2025-10-12T12:18:29.518Z</time>
      </trkpt>
      <trkpt lat="44.32636" lon="0.78643">
        <ele>216</ele>
        <time>2025-10-12T12:18:30.518Z</time>
      </trkpt>
      <trkpt lat="44.32637" lon="0.78642">
        <ele>216</ele>
        <time>2025-10-12T12:18:31.518Z</time>
      </trkpt>
      <trkpt lat="44.32637" lon="0.78642">
        <ele>216</ele>
        <time>2025-10-12T12:18:32.518Z</time>
      </trkpt>
      <trkpt lat="44.32639" lon="0.78642">
        <ele>216</ele>
        <time>2025-10-12T12:18:33.518Z</time>
      </trkpt>
      <trkpt lat="44.3264" lon="0.78642">
        <ele>216</ele>
        <time>2025-10-12T12:18:34.518Z</time>
      </trkpt>
      <trkpt lat="44.3264" lon="0.78642">
        <ele>216</ele>
        <time>2025-10-12T12:18:35.518Z</time>
      </trkpt>
      <trkpt lat="44.32643" lon="0.78641">
        <ele>215</ele>
        <time>2025-10-12T12:18:36.518Z</time>
      </trkpt>
      <trkpt lat="44.32643" lon="0.78641">
        <ele>215</ele>
        <time>2025-10-12T12:18:37.518Z</time>
      </trkpt>
      <trkpt lat="44.32645" lon="0.7864">
        <ele>215</ele>
        <time>2025-10-12T12:18:38.518Z</time>
      </trkpt>
      <trkpt lat="44.32645" lon="0.7864">
        <ele>215</ele>
        <time>2025-10-12T12:18:39.518Z</time>
      </trkpt>
      <trkpt lat="44.32646" lon="0.7864">
        <ele>215</ele>
        <time>2025-10-12T12:18:40.518Z</time>
      </trkpt>
      <trkpt lat="44.32648" lon="0.78639">
        <ele>215</ele>
        <time>2025-10-12T12:18:41.518Z</time>
      </trkpt>
      <trkpt lat="44.32649" lon="0.78639">
        <ele>215</ele>
        <time>2025-10-12T12:18:42.518Z</time>
      </trkpt>
      <trkpt lat="44.32651" lon="0.78638">
        <ele>215</ele>
        <time>2025-10-12T12:18:43.518Z</time>
      </trkpt>
      <trkpt lat="44.32652" lon="0.78638">
        <ele>215</ele>
        <time>2025-10-12T12:18:44.518Z</time>
      </trkpt>
      <trkpt lat="44.32653" lon="0.78638">
        <ele>215</ele>
        <time>2025-10-12T12:18:45.518Z</time>
      </trkpt>
      <trkpt lat="44.32654" lon="0.78637">
        <ele>215</ele>
        <time>2025-10-12T12:18:46.518Z</time>
      </trkpt>
      <trkpt lat="44.32654" lon="0.78637">
        <ele>215</ele>
        <time>2025-10-12T12:18:47.518Z</time>
      </trkpt>
      <trkpt lat="44.32656" lon="0.78636">
        <ele>214</ele>
        <time>2025-10-12T12:18:48.518Z</time>
      </trkpt>
      <trkpt lat="44.32656" lon="0.78636">
        <ele>214</ele>
        <time>2025-10-12T12:18:49.518Z</time>
      </trkpt>
      <trkpt lat="44.32656" lon="0.78636">
        <ele>214</ele>
        <time>2025-10-12T12:18:50.518Z</time>
      </trkpt>
      <trkpt lat="44.32658" lon="0.78635">
        <ele>213</ele>
        <time>2025-10-12T12:18:51.518Z</time>
      </trkpt>
      <trkpt lat="44.3266" lon="0.78634">
        <ele>213</ele>
        <time>2025-10-12T12:18:52.518Z</time>
      </trkpt>
      <trkpt lat="44.3266" lon="0.78634">
        <ele>213</ele>
        <time>2025-10-12T12:18:53.518Z</time>
      </trkpt>
      <trkpt lat="44.32662" lon="0.78633">
        <ele>213</ele>
        <time>2025-10-12T12:18:54.518Z</time>
      </trkpt>
      <trkpt lat="44.32663" lon="0.78633">
        <ele>213</ele>
        <time>2025-10-12T12:18:55.518Z</time>
      </trkpt>
      <trkpt lat="44.32663" lon="0.78633">
        <ele>213</ele>
        <time>2025-10-12T12:18:56.518Z</time>
      </trkpt>
      <trkpt lat="44.32665" lon="0.78632">
        <ele>213</ele>
        <time>2025-10-12T12:18:57.518Z</time>
      </trkpt>
      <trkpt lat="44.32666" lon="0.78632">
        <ele>213</ele>
        <time>2025-10-12T12:18:58.518Z</time>
      </trkpt>
      <trkpt lat="44.32666" lon="0.78632">
        <ele>213</ele>
        <time>2025-10-12T12:18:59.518Z</time>
      </trkpt>
      <trkpt lat="44.32668" lon="0.78631">
        <ele>213</ele>
        <time>2025-10-12T12:19:00.518Z</time>
      </trkpt>
      <trkpt lat="44.32669" lon="0.78631">
        <ele>213</ele>
        <time>2025-10-12T12:19:01.518Z</time>
      </trkpt>
      <trkpt lat="44.32669" lon="0.78631">
        <ele>213</ele>
        <time>2025-10-12T12:19:02.518Z</time>
      </trkpt>
      <trkpt lat="44.32672" lon="0.7863">
        <ele>213</ele>
        <time>2025-10-12T12:19:03.518Z</time>
      </trkpt>
      <trkpt lat="44.32673" lon="0.78629">
        <ele>213</ele>
        <time>2025-10-12T12:19:04.518Z</time>
      </trkpt>
      <trkpt lat="44.32673" lon="0.78629">
        <ele>213</ele>
        <time>2025-10-12T12:19:05.518Z</time>
      </trkpt>
      <trkpt lat="44.32675" lon="0.78628">
        <ele>213</ele>
        <time>2025-10-12T12:19:06.518Z</time>
      </trkpt>
      <trkpt lat="44.32676" lon="0.78628">
        <ele>213</ele>
        <time>2025-10-12T12:19:07.518Z</time>
      </trkpt>
      <trkpt lat="44.32676" lon="0.78628">
        <ele>213</ele>
        <time>2025-10-12T12:19:08.518Z</time>
      </trkpt>
      <trkpt lat="44.32678" lon="0.78628">
        <ele>213</ele>
        <time>2025-10-12T12:19:09.518Z</time>
      </trkpt>
      <trkpt lat="44.3268" lon="0.78627">
        <ele>212</ele>
        <time>2025-10-12T12:19:10.518Z</time>
      </trkpt>
      <trkpt lat="44.3268" lon="0.78627">
        <ele>212</ele>
        <time>2025-10-12T12:19:11.518Z</time>
      </trkpt>
      <trkpt lat="44.32682" lon="0.78627">
        <ele>212</ele>
        <time>2025-10-12T12:19:12.518Z</time>
      </trkpt>
      <trkpt lat="44.32683" lon="0.78626">
        <ele>212</ele>
        <time>2025-10-12T12:19:13.518Z</time>
      </trkpt>
      <trkpt lat="44.32683" lon="0.78626">
        <ele>212</ele>
        <time>2025-10-12T12:19:14.518Z</time>
      </trkpt>
      <trkpt lat="44.32686" lon="0.78626">
        <ele>212</ele>
        <time>2025-10-12T12:19:15.518Z</time>
      </trkpt>
      <trkpt lat="44.32687" lon="0.78626">
        <ele>212</ele>
        <time>2025-10-12T12:19:16.518Z</time>
      </trkpt>
      <trkpt lat="44.32687" lon="0.78626">
        <ele>212</ele>
        <time>2025-10-12T12:19:17.518Z</time>
      </trkpt>
      <trkpt lat="44.32688" lon="0.78626">
        <ele>212</ele>
        <time>2025-10-12T12:19:18.518Z</time>
      </trkpt>
      <trkpt lat="44.3269" lon="0.78625">
        <ele>212</ele>
        <time>2025-10-12T12:19:19.518Z</time>
      </trkpt>
      <trkpt lat="44.32691" lon="0.78625">
        <ele>212</ele>
        <time>2025-10-12T12:19:20.518Z</time>
      </trkpt>
      <trkpt lat="44.32692" lon="0.78625">
        <ele>212</ele>
        <time>2025-10-12T12:19:21.518Z</time>
      </trkpt>
      <trkpt lat="44.32693" lon="0.78624">
        <ele>212</ele>
        <time>2025-10-12T12:19:22.518Z</time>
      </trkpt>
      <trkpt lat="44.32695" lon="0.78624">
        <ele>212</ele>
        <time>2025-10-12T12:19:23.518Z</time>
      </trkpt>
      <trkpt lat="44.32696" lon="0.78624">
        <ele>212</ele>
        <time>2025-10-12T12:19:24.518Z</time>
      </trkpt>
      <trkpt lat="44.32698" lon="0.78624">
        <ele>213</ele>
        <time>2025-10-12T12:19:25.518Z</time>
      </trkpt>
      <trkpt lat="44.32698" lon="0.78624">
        <ele>213</ele>
        <time>2025-10-12T12:19:26.518Z</time>
      </trkpt>
      <trkpt lat="44.327" lon="0.78623">
        <ele>213</ele>
        <time>2025-10-12T12:19:27.518Z</time>
      </trkpt>
      <trkpt lat="44.32701" lon="0.78623">
        <ele>213</ele>
        <time>2025-10-12T12:19:28.518Z</time>
      </trkpt>
      <trkpt lat="44.32701" lon="0.78623">
        <ele>213</ele>
        <time>2025-10-12T12:19:29.518Z</time>
      </trkpt>
      <trkpt lat="44.32703" lon="0.78623">
        <ele>214</ele>
        <time>2025-10-12T12:19:30.518Z</time>
      </trkpt>
      <trkpt lat="44.32705" lon="0.78622">
        <ele>214</ele>
        <time>2025-10-12T12:19:31.518Z</time>
      </trkpt>
      <trkpt lat="44.32705" lon="0.78622">
        <ele>214</ele>
        <time>2025-10-12T12:19:32.518Z</time>
      </trkpt>
      <trkpt lat="44.32707" lon="0.78622">
        <ele>214</ele>
        <time>2025-10-12T12:19:33.518Z</time>
      </trkpt>
      <trkpt lat="44.32708" lon="0.78622">
        <ele>213</ele>
        <time>2025-10-12T12:19:34.518Z</time>
      </trkpt>
      <trkpt lat="44.32708" lon="0.78622">
        <ele>213</ele>
        <time>2025-10-12T12:19:35.518Z</time>
      </trkpt>
      <trkpt lat="44.3271" lon="0.78622">
        <ele>213</ele>
        <time>2025-10-12T12:19:36.518Z</time>
      </trkpt>
      <trkpt lat="44.32712" lon="0.78622">
        <ele>212</ele>
        <time>2025-10-12T12:19:37.518Z</time>
      </trkpt>
      <trkpt lat="44.32712" lon="0.78622">
        <ele>212</ele>
        <time>2025-10-12T12:19:38.518Z</time>
      </trkpt>
      <trkpt lat="44.32714" lon="0.78622">
        <ele>212</ele>
        <time>2025-10-12T12:19:39.518Z</time>
      </trkpt>
      <trkpt lat="44.32715" lon="0.78622">
        <ele>212</ele>
        <time>2025-10-12T12:19:40.518Z</time>
      </trkpt>
      <trkpt lat="44.32715" lon="0.78622">
        <ele>212</ele>
        <time>2025-10-12T12:19:41.518Z</time>
      </trkpt>
      <trkpt lat="44.32717" lon="0.78621">
        <ele>211</ele>
        <time>2025-10-12T12:19:42.518Z</time>
      </trkpt>
      <trkpt lat="44.32718" lon="0.78621">
        <ele>211</ele>
        <time>2025-10-12T12:19:43.518Z</time>
      </trkpt>
      <trkpt lat="44.32718" lon="0.78621">
        <ele>211</ele>
        <time>2025-10-12T12:19:44.518Z</time>
      </trkpt>
      <trkpt lat="44.3272" lon="0.78621">
        <ele>211</ele>
        <time>2025-10-12T12:19:45.518Z</time>
      </trkpt>
      <trkpt lat="44.32722" lon="0.78621">
        <ele>210</ele>
        <time>2025-10-12T12:19:46.518Z</time>
      </trkpt>
      <trkpt lat="44.32722" lon="0.78621">
        <ele>210</ele>
        <time>2025-10-12T12:19:47.518Z</time>
      </trkpt>
      <trkpt lat="44.32724" lon="0.78622">
        <ele>210</ele>
        <time>2025-10-12T12:19:48.518Z</time>
      </trkpt>
      <trkpt lat="44.32726" lon="0.78622">
        <ele>210</ele>
        <time>2025-10-12T12:19:49.518Z</time>
      </trkpt>
      <trkpt lat="44.32726" lon="0.78622">
        <ele>210</ele>
        <time>2025-10-12T12:19:50.518Z</time>
      </trkpt>
      <trkpt lat="44.32728" lon="0.78622">
        <ele>210</ele>
        <time>2025-10-12T12:19:51.518Z</time>
      </trkpt>
      <trkpt lat="44.32729" lon="0.78623">
        <ele>210</ele>
        <time>2025-10-12T12:19:52.518Z</time>
      </trkpt>
      <trkpt lat="44.3273" lon="0.78622">
        <ele>210</ele>
        <time>2025-10-12T12:19:53.518Z</time>
      </trkpt>
      <trkpt lat="44.32731" lon="0.78622">
        <ele>209</ele>
        <time>2025-10-12T12:19:54.518Z</time>
      </trkpt>
      <trkpt lat="44.32731" lon="0.78622">
        <ele>209</ele>
        <time>2025-10-12T12:19:55.518Z</time>
      </trkpt>
      <trkpt lat="44.32732" lon="0.78622">
        <ele>209</ele>
        <time>2025-10-12T12:19:56.518Z</time>
      </trkpt>
      <trkpt lat="44.32735" lon="0.78622">
        <ele>209</ele>
        <time>2025-10-12T12:19:57.518Z</time>
      </trkpt>
      <trkpt lat="44.32736" lon="0.78623">
        <ele>209</ele>
        <time>2025-10-12T12:19:58.518Z</time>
      </trkpt>
      <trkpt lat="44.32737" lon="0.78623">
        <ele>209</ele>
        <time>2025-10-12T12:19:59.518Z</time>
      </trkpt>
      <trkpt lat="44.32738" lon="0.78623">
        <ele>210</ele>
        <time>2025-10-12T12:20:00.518Z</time>
      </trkpt>
      <trkpt lat="44.32739" lon="0.78623">
        <ele>210</ele>
        <time>2025-10-12T12:20:01.518Z</time>
      </trkpt>
      <trkpt lat="44.32739" lon="0.78623">
        <ele>210</ele>
        <time>2025-10-12T12:20:02.518Z</time>
      </trkpt>
      <trkpt lat="44.32741" lon="0.78623">
        <ele>209</ele>
        <time>2025-10-12T12:20:03.518Z</time>
      </trkpt>
      <trkpt lat="44.32742" lon="0.78623">
        <ele>209</ele>
        <time>2025-10-12T12:20:04.518Z</time>
      </trkpt>
      <trkpt lat="44.32742" lon="0.78623">
        <ele>209</ele>
        <time>2025-10-12T12:20:05.518Z</time>
      </trkpt>
      <trkpt lat="44.32744" lon="0.78623">
        <ele>209</ele>
        <time>2025-10-12T12:20:06.518Z</time>
      </trkpt>
      <trkpt lat="44.32745" lon="0.78624">
        <ele>209</ele>
        <time>2025-10-12T12:20:07.518Z</time>
      </trkpt>
      <trkpt lat="44.32745" lon="0.78624">
        <ele>209</ele>
        <time>2025-10-12T12:20:08.518Z</time>
      </trkpt>
      <trkpt lat="44.32748" lon="0.78624">
        <ele>208</ele>
        <time>2025-10-12T12:20:09.518Z</time>
      </trkpt>
      <trkpt lat="44.32749" lon="0.78624">
        <ele>208</ele>
        <time>2025-10-12T12:20:10.518Z</time>
      </trkpt>
      <trkpt lat="44.32749" lon="0.78624">
        <ele>208</ele>
        <time>2025-10-12T12:20:11.518Z</time>
      </trkpt>
      <trkpt lat="44.32751" lon="0.78624">
        <ele>209</ele>
        <time>2025-10-12T12:20:12.518Z</time>
      </trkpt>
      <trkpt lat="44.32752" lon="0.78625">
        <ele>209</ele>
        <time>2025-10-12T12:20:13.518Z</time>
      </trkpt>
      <trkpt lat="44.32752" lon="0.78625">
        <ele>209</ele>
        <time>2025-10-12T12:20:14.518Z</time>
      </trkpt>
      <trkpt lat="44.32754" lon="0.78625">
        <ele>209</ele>
        <time>2025-10-12T12:20:15.518Z</time>
      </trkpt>
      <trkpt lat="44.32756" lon="0.78625">
        <ele>209</ele>
        <time>2025-10-12T12:20:16.518Z</time>
      </trkpt>
      <trkpt lat="44.32756" lon="0.78625">
        <ele>209</ele>
        <time>2025-10-12T12:20:17.518Z</time>
      </trkpt>
      <trkpt lat="44.32758" lon="0.78625">
        <ele>209</ele>
        <time>2025-10-12T12:20:18.518Z</time>
      </trkpt>
      <trkpt lat="44.32759" lon="0.78625">
        <ele>209</ele>
        <time>2025-10-12T12:20:19.518Z</time>
      </trkpt>
      <trkpt lat="44.32759" lon="0.78625">
        <ele>209</ele>
        <time>2025-10-12T12:20:20.518Z</time>
      </trkpt>
      <trkpt lat="44.32761" lon="0.78625">
        <ele>209</ele>
        <time>2025-10-12T12:20:21.518Z</time>
      </trkpt>
      <trkpt lat="44.32762" lon="0.78626">
        <ele>209</ele>
        <time>2025-10-12T12:20:22.518Z</time>
      </trkpt>
      <trkpt lat="44.32762" lon="0.78626">
        <ele>209</ele>
        <time>2025-10-12T12:20:23.518Z</time>
      </trkpt>
      <trkpt lat="44.32765" lon="0.78626">
        <ele>209</ele>
        <time>2025-10-12T12:20:24.518Z</time>
      </trkpt>
      <trkpt lat="44.32766" lon="0.78626">
        <ele>209</ele>
        <time>2025-10-12T12:20:25.518Z</time>
      </trkpt>
      <trkpt lat="44.32766" lon="0.78626">
        <ele>209</ele>
        <time>2025-10-12T12:20:26.518Z</time>
      </trkpt>
      <trkpt lat="44.32767" lon="0.78625">
        <ele>209</ele>
        <time>2025-10-12T12:20:27.518Z</time>
      </trkpt>
      <trkpt lat="44.32769" lon="0.78625">
        <ele>209</ele>
        <time>2025-10-12T12:20:28.518Z</time>
      </trkpt>
      <trkpt lat="44.32769" lon="0.78625">
        <ele>209</ele>
        <time>2025-10-12T12:20:29.518Z</time>
      </trkpt>
      <trkpt lat="44.32772" lon="0.78626">
        <ele>209</ele>
        <time>2025-10-12T12:20:30.518Z</time>
      </trkpt>
      <trkpt lat="44.32773" lon="0.78626">
        <ele>209</ele>
        <time>2025-10-12T12:20:31.518Z</time>
      </trkpt>
      <trkpt lat="44.32773" lon="0.78626">
        <ele>209</ele>
        <time>2025-10-12T12:20:32.518Z</time>
      </trkpt>
      <trkpt lat="44.32774" lon="0.78626">
        <ele>209</ele>
        <time>2025-10-12T12:20:33.518Z</time>
      </trkpt>
      <trkpt lat="44.32776" lon="0.78626">
        <ele>209</ele>
        <time>2025-10-12T12:20:34.518Z</time>
      </trkpt>
      <trkpt lat="44.32778" lon="0.78626">
        <ele>209</ele>
        <time>2025-10-12T12:20:35.518Z</time>
      </trkpt>
      <trkpt lat="44.32779" lon="0.78626">
        <ele>209</ele>
        <time>2025-10-12T12:20:36.518Z</time>
      </trkpt>
      <trkpt lat="44.3278" lon="0.78626">
        <ele>209</ele>
        <time>2025-10-12T12:20:37.518Z</time>
      </trkpt>
      <trkpt lat="44.32781" lon="0.78626">
        <ele>209</ele>
        <time>2025-10-12T12:20:38.518Z</time>
      </trkpt>
      <trkpt lat="44.32782" lon="0.78626">
        <ele>209</ele>
        <time>2025-10-12T12:20:39.518Z</time>
      </trkpt>
      <trkpt lat="44.32784" lon="0.78626">
        <ele>208</ele>
        <time>2025-10-12T12:20:40.518Z</time>
      </trkpt>
      <trkpt lat="44.32784" lon="0.78626">
        <ele>208</ele>
        <time>2025-10-12T12:20:41.518Z</time>
      </trkpt>
      <trkpt lat="44.32786" lon="0.78626">
        <ele>208</ele>
        <time>2025-10-12T12:20:42.518Z</time>
      </trkpt>
      <trkpt lat="44.32787" lon="0.78626">
        <ele>208</ele>
        <time>2025-10-12T12:20:43.518Z</time>
      </trkpt>
      <trkpt lat="44.32787" lon="0.78626">
        <ele>208</ele>
        <time>2025-10-12T12:20:44.518Z</time>
      </trkpt>
      <trkpt lat="44.3279" lon="0.78626">
        <ele>209</ele>
        <time>2025-10-12T12:20:45.518Z</time>
      </trkpt>
      <trkpt lat="44.32791" lon="0.78626">
        <ele>209</ele>
        <time>2025-10-12T12:20:46.518Z</time>
      </trkpt>
      <trkpt lat="44.32791" lon="0.78626">
        <ele>209</ele>
        <time>2025-10-12T12:20:47.518Z</time>
      </trkpt>
      <trkpt lat="44.32793" lon="0.78626">
        <ele>209</ele>
        <time>2025-10-12T12:20:48.518Z</time>
      </trkpt>
      <trkpt lat="44.32795" lon="0.78626">
        <ele>209</ele>
        <time>2025-10-12T12:20:49.518Z</time>
      </trkpt>
      <trkpt lat="44.32795" lon="0.78626">
        <ele>209</ele>
        <time>2025-10-12T12:20:50.518Z</time>
      </trkpt>
      <trkpt lat="44.32797" lon="0.78626">
        <ele>209</ele>
        <time>2025-10-12T12:20:51.518Z</time>
      </trkpt>
      <trkpt lat="44.32798" lon="0.78626">
        <ele>209</ele>
        <time>2025-10-12T12:20:52.518Z</time>
      </trkpt>
      <trkpt lat="44.32798" lon="0.78626">
        <ele>209</ele>
        <time>2025-10-12T12:20:53.518Z</time>
      </trkpt>
      <trkpt lat="44.328" lon="0.78626">
        <ele>208</ele>
        <time>2025-10-12T12:20:54.518Z</time>
      </trkpt>
      <trkpt lat="44.32801" lon="0.78626">
        <ele>208</ele>
        <time>2025-10-12T12:20:55.518Z</time>
      </trkpt>
      <trkpt lat="44.32801" lon="0.78626">
        <ele>208</ele>
        <time>2025-10-12T12:20:56.518Z</time>
      </trkpt>
      <trkpt lat="44.32802" lon="0.78626">
        <ele>209</ele>
        <time>2025-10-12T12:20:57.518Z</time>
      </trkpt>
      <trkpt lat="44.32803" lon="0.78626">
        <ele>209</ele>
        <time>2025-10-12T12:20:58.518Z</time>
      </trkpt>
      <trkpt lat="44.32805" lon="0.78627">
        <ele>209</ele>
        <time>2025-10-12T12:20:59.518Z</time>
      </trkpt>
      <trkpt lat="44.32807" lon="0.78627">
        <ele>209</ele>
        <time>2025-10-12T12:21:00.518Z</time>
      </trkpt>
      <trkpt lat="44.32808" lon="0.78627">
        <ele>209</ele>
        <time>2025-10-12T12:21:01.518Z</time>
      </trkpt>
      <trkpt lat="44.32808" lon="0.78627">
        <ele>209</ele>
        <time>2025-10-12T12:21:02.518Z</time>
      </trkpt>
      <trkpt lat="44.3281" lon="0.78627">
        <ele>208</ele>
        <time>2025-10-12T12:21:03.518Z</time>
      </trkpt>
      <trkpt lat="44.32811" lon="0.78627">
        <ele>208</ele>
        <time>2025-10-12T12:21:04.518Z</time>
      </trkpt>
      <trkpt lat="44.32811" lon="0.78627">
        <ele>208</ele>
        <time>2025-10-12T12:21:05.518Z</time>
      </trkpt>
      <trkpt lat="44.32813" lon="0.78628">
        <ele>208</ele>
        <time>2025-10-12T12:21:06.518Z</time>
      </trkpt>
      <trkpt lat="44.32814" lon="0.78627">
        <ele>208</ele>
        <time>2025-10-12T12:21:07.518Z</time>
      </trkpt>
      <trkpt lat="44.32814" lon="0.78627">
        <ele>208</ele>
        <time>2025-10-12T12:21:08.518Z</time>
      </trkpt>
      <trkpt lat="44.32816" lon="0.78627">
        <ele>208</ele>
        <time>2025-10-12T12:21:09.518Z</time>
      </trkpt>
      <trkpt lat="44.32818" lon="0.78628">
        <ele>207</ele>
        <time>2025-10-12T12:21:10.518Z</time>
      </trkpt>
      <trkpt lat="44.32818" lon="0.78628">
        <ele>207</ele>
        <time>2025-10-12T12:21:11.518Z</time>
      </trkpt>
      <trkpt lat="44.32819" lon="0.78628">
        <ele>208</ele>
        <time>2025-10-12T12:21:12.518Z</time>
      </trkpt>
      <trkpt lat="44.32821" lon="0.78627">
        <ele>208</ele>
        <time>2025-10-12T12:21:13.518Z</time>
      </trkpt>
      <trkpt lat="44.32822" lon="0.78627">
        <ele>208</ele>
        <time>2025-10-12T12:21:14.518Z</time>
      </trkpt>
      <trkpt lat="44.32824" lon="0.78627">
        <ele>208</ele>
        <time>2025-10-12T12:21:15.518Z</time>
      </trkpt>
      <trkpt lat="44.32825" lon="0.78627">
        <ele>208</ele>
        <time>2025-10-12T12:21:16.518Z</time>
      </trkpt>
      <trkpt lat="44.32826" lon="0.78627">
        <ele>208</ele>
        <time>2025-10-12T12:21:17.518Z</time>
      </trkpt>
      <trkpt lat="44.32827" lon="0.78627">
        <ele>208</ele>
        <time>2025-10-12T12:21:18.518Z</time>
      </trkpt>
      <trkpt lat="44.32828" lon="0.78627">
        <ele>208</ele>
        <time>2025-10-12T12:21:19.518Z</time>
      </trkpt>
      <trkpt lat="44.32828" lon="0.78627">
        <ele>208</ele>
        <time>2025-10-12T12:21:20.518Z</time>
      </trkpt>
      <trkpt lat="44.3283" lon="0.78627">
        <ele>208</ele>
        <time>2025-10-12T12:21:21.518Z</time>
      </trkpt>
      <trkpt lat="44.32831" lon="0.78627">
        <ele>208</ele>
        <time>2025-10-12T12:21:22.518Z</time>
      </trkpt>
      <trkpt lat="44.32831" lon="0.78627">
        <ele>208</ele>
        <time>2025-10-12T12:21:23.518Z</time>
      </trkpt>
      <trkpt lat="44.32833" lon="0.78627">
        <ele>208</ele>
        <time>2025-10-12T12:21:24.518Z</time>
      </trkpt>
      <trkpt lat="44.32834" lon="0.78627">
        <ele>208</ele>
        <time>2025-10-12T12:21:25.518Z</time>
      </trkpt>
      <trkpt lat="44.32834" lon="0.78627">
        <ele>208</ele>
        <time>2025-10-12T12:21:26.518Z</time>
      </trkpt>
      <trkpt lat="44.32837" lon="0.78627">
        <ele>208</ele>
        <time>2025-10-12T12:21:27.518Z</time>
      </trkpt>
      <trkpt lat="44.32838" lon="0.78627">
        <ele>208</ele>
        <time>2025-10-12T12:21:28.518Z</time>
      </trkpt>
      <trkpt lat="44.32838" lon="0.78627">
        <ele>208</ele>
        <time>2025-10-12T12:21:29.518Z</time>
      </trkpt>
      <trkpt lat="44.3284" lon="0.78627">
        <ele>209</ele>
        <time>2025-10-12T12:21:30.518Z</time>
      </trkpt>
      <trkpt lat="44.32841" lon="0.78626">
        <ele>209</ele>
        <time>2025-10-12T12:21:31.518Z</time>
      </trkpt>
      <trkpt lat="44.32841" lon="0.78626">
        <ele>209</ele>
        <time>2025-10-12T12:21:32.518Z</time>
      </trkpt>
      <trkpt lat="44.32844" lon="0.78626">
        <ele>209</ele>
        <time>2025-10-12T12:21:33.518Z</time>
      </trkpt>
      <trkpt lat="44.32845" lon="0.78626">
        <ele>209</ele>
        <time>2025-10-12T12:21:34.518Z</time>
      </trkpt>
      <trkpt lat="44.32845" lon="0.78626">
        <ele>209</ele>
        <time>2025-10-12T12:21:35.518Z</time>
      </trkpt>
      <trkpt lat="44.32847" lon="0.78626">
        <ele>209</ele>
        <time>2025-10-12T12:21:36.518Z</time>
      </trkpt>
      <trkpt lat="44.32848" lon="0.78626">
        <ele>209</ele>
        <time>2025-10-12T12:21:37.518Z</time>
      </trkpt>
      <trkpt lat="44.32848" lon="0.78626">
        <ele>209</ele>
        <time>2025-10-12T12:21:38.518Z</time>
      </trkpt>
      <trkpt lat="44.3285" lon="0.78625">
        <ele>209</ele>
        <time>2025-10-12T12:21:39.518Z</time>
      </trkpt>
      <trkpt lat="44.32851" lon="0.78626">
        <ele>208</ele>
        <time>2025-10-12T12:21:40.518Z</time>
      </trkpt>
      <trkpt lat="44.32851" lon="0.78626">
        <ele>208</ele>
        <time>2025-10-12T12:21:41.518Z</time>
      </trkpt>
      <trkpt lat="44.32853" lon="0.78626">
        <ele>208</ele>
        <time>2025-10-12T12:21:42.518Z</time>
      </trkpt>
      <trkpt lat="44.32855" lon="0.78625">
        <ele>208</ele>
        <time>2025-10-12T12:21:43.518Z</time>
      </trkpt>
      <trkpt lat="44.32855" lon="0.78625">
        <ele>208</ele>
        <time>2025-10-12T12:21:44.518Z</time>
      </trkpt>
      <trkpt lat="44.32857" lon="0.78625">
        <ele>208</ele>
        <time>2025-10-12T12:21:45.518Z</time>
      </trkpt>
      <trkpt lat="44.32858" lon="0.78625">
        <ele>208</ele>
        <time>2025-10-12T12:21:46.518Z</time>
      </trkpt>
      <trkpt lat="44.32858" lon="0.78625">
        <ele>208</ele>
        <time>2025-10-12T12:21:47.518Z</time>
      </trkpt>
      <trkpt lat="44.3286" lon="0.78625">
        <ele>208</ele>
        <time>2025-10-12T12:21:48.518Z</time>
      </trkpt>
      <trkpt lat="44.3286" lon="0.78625">
        <ele>208</ele>
        <time>2025-10-12T12:21:49.518Z</time>
      </trkpt>
      <trkpt lat="44.32862" lon="0.78625">
        <ele>208</ele>
        <time>2025-10-12T12:21:50.518Z</time>
      </trkpt>
      <trkpt lat="44.32864" lon="0.78625">
        <ele>208</ele>
        <time>2025-10-12T12:21:51.518Z</time>
      </trkpt>
      <trkpt lat="44.32865" lon="0.78625">
        <ele>208</ele>
        <time>2025-10-12T12:21:52.518Z</time>
      </trkpt>
      <trkpt lat="44.32866" lon="0.78625">
        <ele>207</ele>
        <time>2025-10-12T12:21:53.518Z</time>
      </trkpt>
      <trkpt lat="44.32867" lon="0.78625">
        <ele>207</ele>
        <time>2025-10-12T12:21:54.518Z</time>
      </trkpt>
      <trkpt lat="44.32867" lon="0.78625">
        <ele>207</ele>
        <time>2025-10-12T12:21:55.518Z</time>
      </trkpt>
      <trkpt lat="44.32868" lon="0.78625">
        <ele>206</ele>
        <time>2025-10-12T12:21:56.518Z</time>
      </trkpt>
      <trkpt lat="44.32871" lon="0.78625">
        <ele>206</ele>
        <time>2025-10-12T12:21:57.518Z</time>
      </trkpt>
      <trkpt lat="44.32872" lon="0.78625">
        <ele>206</ele>
        <time>2025-10-12T12:21:58.518Z</time>
      </trkpt>
      <trkpt lat="44.32872" lon="0.78625">
        <ele>206</ele>
        <time>2025-10-12T12:21:59.518Z</time>
      </trkpt>
      <trkpt lat="44.32874" lon="0.78625">
        <ele>206</ele>
        <time>2025-10-12T12:22:00.518Z</time>
      </trkpt>
      <trkpt lat="44.32875" lon="0.78624">
        <ele>206</ele>
        <time>2025-10-12T12:22:01.518Z</time>
      </trkpt>
      <trkpt lat="44.32875" lon="0.78624">
        <ele>206</ele>
        <time>2025-10-12T12:22:02.518Z</time>
      </trkpt>
      <trkpt lat="44.32877" lon="0.78624">
        <ele>206</ele>
        <time>2025-10-12T12:22:03.518Z</time>
      </trkpt>
      <trkpt lat="44.32878" lon="0.78624">
        <ele>206</ele>
        <time>2025-10-12T12:22:04.518Z</time>
      </trkpt>
      <trkpt lat="44.32878" lon="0.78624">
        <ele>206</ele>
        <time>2025-10-12T12:22:05.518Z</time>
      </trkpt>
      <trkpt lat="44.3288" lon="0.78624">
        <ele>207</ele>
        <time>2025-10-12T12:22:06.518Z</time>
      </trkpt>
      <trkpt lat="44.32881" lon="0.78624">
        <ele>206</ele>
        <time>2025-10-12T12:22:07.518Z</time>
      </trkpt>
      <trkpt lat="44.32881" lon="0.78624">
        <ele>206</ele>
        <time>2025-10-12T12:22:08.518Z</time>
      </trkpt>
      <trkpt lat="44.32883" lon="0.78624">
        <ele>206</ele>
        <time>2025-10-12T12:22:09.518Z</time>
      </trkpt>
      <trkpt lat="44.32884" lon="0.78624">
        <ele>206</ele>
        <time>2025-10-12T12:22:10.518Z</time>
      </trkpt>
      <trkpt lat="44.32884" lon="0.78624">
        <ele>206</ele>
        <time>2025-10-12T12:22:11.518Z</time>
      </trkpt>
      <trkpt lat="44.32886" lon="0.78623">
        <ele>206</ele>
        <time>2025-10-12T12:22:12.518Z</time>
      </trkpt>
      <trkpt lat="44.32887" lon="0.78623">
        <ele>206</ele>
        <time>2025-10-12T12:22:13.518Z</time>
      </trkpt>
      <trkpt lat="44.32887" lon="0.78623">
        <ele>206</ele>
        <time>2025-10-12T12:22:14.518Z</time>
      </trkpt>
      <trkpt lat="44.32889" lon="0.78623">
        <ele>206</ele>
        <time>2025-10-12T12:22:15.518Z</time>
      </trkpt>
      <trkpt lat="44.32891" lon="0.78623">
        <ele>206</ele>
        <time>2025-10-12T12:22:16.518Z</time>
      </trkpt>
      <trkpt lat="44.32891" lon="0.78623">
        <ele>206</ele>
        <time>2025-10-12T12:22:17.518Z</time>
      </trkpt>
      <trkpt lat="44.32893" lon="0.78623">
        <ele>206</ele>
        <time>2025-10-12T12:22:18.518Z</time>
      </trkpt>
      <trkpt lat="44.32893" lon="0.78624">
        <ele>206</ele>
        <time>2025-10-12T12:22:19.518Z</time>
      </trkpt>
      <trkpt lat="44.32893" lon="0.78624">
        <ele>206</ele>
        <time>2025-10-12T12:22:20.518Z</time>
      </trkpt>
      <trkpt lat="44.32895" lon="0.78625">
        <ele>206</ele>
        <time>2025-10-12T12:22:21.518Z</time>
      </trkpt>
      <trkpt lat="44.32895" lon="0.78625">
        <ele>206</ele>
        <time>2025-10-12T12:22:22.518Z</time>
      </trkpt>
      <trkpt lat="44.32895" lon="0.78625">
        <ele>206</ele>
        <time>2025-10-12T12:22:23.518Z</time>
      </trkpt>
      <trkpt lat="44.32896" lon="0.78625">
        <ele>206</ele>
        <time>2025-10-12T12:22:24.518Z</time>
      </trkpt>
      <trkpt lat="44.32897" lon="0.78625">
        <ele>205</ele>
        <time>2025-10-12T12:22:25.518Z</time>
      </trkpt>
      <trkpt lat="44.32897" lon="0.78625">
        <ele>205</ele>
        <time>2025-10-12T12:22:26.518Z</time>
      </trkpt>
      <trkpt lat="44.32897" lon="0.78625">
        <ele>205</ele>
        <time>2025-10-12T12:22:27.518Z</time>
      </trkpt>
      <trkpt lat="44.32898" lon="0.78626">
        <ele>205</ele>
        <time>2025-10-12T12:22:28.518Z</time>
      </trkpt>
      <trkpt lat="44.329" lon="0.78626">
        <ele>205</ele>
        <time>2025-10-12T12:22:29.518Z</time>
      </trkpt>
      <trkpt lat="44.32901" lon="0.78626">
        <ele>205</ele>
        <time>2025-10-12T12:22:30.518Z</time>
      </trkpt>
      <trkpt lat="44.32902" lon="0.78626">
        <ele>205</ele>
        <time>2025-10-12T12:22:31.518Z</time>
      </trkpt>
      <trkpt lat="44.32903" lon="0.78627">
        <ele>205</ele>
        <time>2025-10-12T12:22:32.518Z</time>
      </trkpt>
      <trkpt lat="44.32904" lon="0.78627">
        <ele>205</ele>
        <time>2025-10-12T12:22:33.518Z</time>
      </trkpt>
      <trkpt lat="44.32904" lon="0.78627">
        <ele>206</ele>
        <time>2025-10-12T12:22:34.518Z</time>
      </trkpt>
      <trkpt lat="44.32904" lon="0.78627">
        <ele>206</ele>
        <time>2025-10-12T12:22:35.518Z</time>
      </trkpt>
      <trkpt lat="44.32907" lon="0.78628">
        <ele>206</ele>
        <time>2025-10-12T12:22:36.518Z</time>
      </trkpt>
      <trkpt lat="44.32908" lon="0.78628">
        <ele>206</ele>
        <time>2025-10-12T12:22:37.518Z</time>
      </trkpt>
      <trkpt lat="44.32908" lon="0.78628">
        <ele>206</ele>
        <time>2025-10-12T12:22:38.518Z</time>
      </trkpt>
      <trkpt lat="44.32909" lon="0.78629">
        <ele>206</ele>
        <time>2025-10-12T12:22:39.518Z</time>
      </trkpt>
      <trkpt lat="44.3291" lon="0.7863">
        <ele>206</ele>
        <time>2025-10-12T12:22:40.518Z</time>
      </trkpt>
      <trkpt lat="44.3291" lon="0.7863">
        <ele>206</ele>
        <time>2025-10-12T12:22:41.518Z</time>
      </trkpt>
      <trkpt lat="44.32912" lon="0.7863">
        <ele>205</ele>
        <time>2025-10-12T12:22:42.518Z</time>
      </trkpt>
      <trkpt lat="44.32913" lon="0.78631">
        <ele>204</ele>
        <time>2025-10-12T12:22:43.518Z</time>
      </trkpt>
      <trkpt lat="44.32913" lon="0.78631">
        <ele>204</ele>
        <time>2025-10-12T12:22:44.518Z</time>
      </trkpt>
      <trkpt lat="44.32915" lon="0.78631">
        <ele>204</ele>
        <time>2025-10-12T12:22:45.518Z</time>
      </trkpt>
      <trkpt lat="44.32917" lon="0.78631">
        <ele>204</ele>
        <time>2025-10-12T12:22:46.518Z</time>
      </trkpt>
      <trkpt lat="44.32917" lon="0.78631">
        <ele>204</ele>
        <time>2025-10-12T12:22:47.518Z</time>
      </trkpt>
      <trkpt lat="44.32919" lon="0.78632">
        <ele>204</ele>
        <time>2025-10-12T12:22:48.518Z</time>
      </trkpt>
      <trkpt lat="44.3292" lon="0.78632">
        <ele>204</ele>
        <time>2025-10-12T12:22:49.518Z</time>
      </trkpt>
      <trkpt lat="44.3292" lon="0.78632">
        <ele>204</ele>
        <time>2025-10-12T12:22:50.518Z</time>
      </trkpt>
      <trkpt lat="44.32922" lon="0.78633">
        <ele>204</ele>
        <time>2025-10-12T12:22:51.518Z</time>
      </trkpt>
      <trkpt lat="44.32924" lon="0.78634">
        <ele>204</ele>
        <time>2025-10-12T12:22:52.518Z</time>
      </trkpt>
      <trkpt lat="44.32924" lon="0.78634">
        <ele>204</ele>
        <time>2025-10-12T12:22:53.518Z</time>
      </trkpt>
      <trkpt lat="44.32926" lon="0.78635">
        <ele>204</ele>
        <time>2025-10-12T12:22:54.518Z</time>
      </trkpt>
      <trkpt lat="44.32927" lon="0.78635">
        <ele>204</ele>
        <time>2025-10-12T12:22:55.518Z</time>
      </trkpt>
      <trkpt lat="44.32927" lon="0.78635">
        <ele>204</ele>
        <time>2025-10-12T12:22:56.518Z</time>
      </trkpt>
      <trkpt lat="44.32929" lon="0.78637">
        <ele>204</ele>
        <time>2025-10-12T12:22:57.518Z</time>
      </trkpt>
      <trkpt lat="44.3293" lon="0.78637">
        <ele>204</ele>
        <time>2025-10-12T12:22:58.518Z</time>
      </trkpt>
      <trkpt lat="44.3293" lon="0.78637">
        <ele>204</ele>
        <time>2025-10-12T12:22:59.518Z</time>
      </trkpt>
      <trkpt lat="44.32933" lon="0.78638">
        <ele>204</ele>
        <time>2025-10-12T12:23:00.518Z</time>
      </trkpt>
      <trkpt lat="44.32934" lon="0.78638">
        <ele>204</ele>
        <time>2025-10-12T12:23:01.518Z</time>
      </trkpt>
      <trkpt lat="44.32934" lon="0.78638">
        <ele>204</ele>
        <time>2025-10-12T12:23:02.518Z</time>
      </trkpt>
      <trkpt lat="44.32936" lon="0.78639">
        <ele>204</ele>
        <time>2025-10-12T12:23:03.518Z</time>
      </trkpt>
      <trkpt lat="44.32936" lon="0.78639">
        <ele>204</ele>
        <time>2025-10-12T12:23:04.518Z</time>
      </trkpt>
      <trkpt lat="44.32937" lon="0.78639">
        <ele>204</ele>
        <time>2025-10-12T12:23:05.518Z</time>
      </trkpt>
      <trkpt lat="44.32938" lon="0.7864">
        <ele>204</ele>
        <time>2025-10-12T12:23:06.518Z</time>
      </trkpt>
      <trkpt lat="44.3294" lon="0.7864">
        <ele>204</ele>
        <time>2025-10-12T12:23:07.518Z</time>
      </trkpt>
      <trkpt lat="44.32941" lon="0.7864">
        <ele>204</ele>
        <time>2025-10-12T12:23:08.518Z</time>
      </trkpt>
      <trkpt lat="44.32942" lon="0.7864">
        <ele>204</ele>
        <time>2025-10-12T12:23:09.518Z</time>
      </trkpt>
      <trkpt lat="44.32944" lon="0.78641">
        <ele>204</ele>
        <time>2025-10-12T12:23:10.518Z</time>
      </trkpt>
      <trkpt lat="44.32944" lon="0.78641">
        <ele>204</ele>
        <time>2025-10-12T12:23:11.518Z</time>
      </trkpt>
      <trkpt lat="44.32945" lon="0.78642">
        <ele>204</ele>
        <time>2025-10-12T12:23:12.518Z</time>
      </trkpt>
      <trkpt lat="44.32946" lon="0.78642">
        <ele>203</ele>
        <time>2025-10-12T12:23:13.518Z</time>
      </trkpt>
      <trkpt lat="44.32946" lon="0.78642">
        <ele>203</ele>
        <time>2025-10-12T12:23:14.518Z</time>
      </trkpt>
      <trkpt lat="44.32948" lon="0.78643">
        <ele>203</ele>
        <time>2025-10-12T12:23:15.518Z</time>
      </trkpt>
      <trkpt lat="44.32949" lon="0.78643">
        <ele>202</ele>
        <time>2025-10-12T12:23:16.518Z</time>
      </trkpt>
      <trkpt lat="44.32949" lon="0.78643">
        <ele>202</ele>
        <time>2025-10-12T12:23:17.518Z</time>
      </trkpt>
      <trkpt lat="44.32951" lon="0.78644">
        <ele>202</ele>
        <time>2025-10-12T12:23:18.518Z</time>
      </trkpt>
      <trkpt lat="44.32952" lon="0.78644">
        <ele>202</ele>
        <time>2025-10-12T12:23:19.518Z</time>
      </trkpt>
      <trkpt lat="44.32952" lon="0.78644">
        <ele>202</ele>
        <time>2025-10-12T12:23:20.518Z</time>
      </trkpt>
      <trkpt lat="44.32954" lon="0.78645">
        <ele>202</ele>
        <time>2025-10-12T12:23:21.518Z</time>
      </trkpt>
      <trkpt lat="44.32955" lon="0.78646">
        <ele>202</ele>
        <time>2025-10-12T12:23:22.518Z</time>
      </trkpt>
      <trkpt lat="44.32955" lon="0.78646">
        <ele>202</ele>
        <time>2025-10-12T12:23:23.518Z</time>
      </trkpt>
      <trkpt lat="44.32957" lon="0.78647">
        <ele>202</ele>
        <time>2025-10-12T12:23:24.518Z</time>
      </trkpt>
      <trkpt lat="44.32958" lon="0.78647">
        <ele>202</ele>
        <time>2025-10-12T12:23:25.518Z</time>
      </trkpt>
      <trkpt lat="44.32958" lon="0.78647">
        <ele>202</ele>
        <time>2025-10-12T12:23:26.518Z</time>
      </trkpt>
      <trkpt lat="44.3296" lon="0.78648">
        <ele>201</ele>
        <time>2025-10-12T12:23:27.518Z</time>
      </trkpt>
      <trkpt lat="44.32961" lon="0.78648">
        <ele>201</ele>
        <time>2025-10-12T12:23:28.518Z</time>
      </trkpt>
      <trkpt lat="44.32961" lon="0.78648">
        <ele>201</ele>
        <time>2025-10-12T12:23:29.518Z</time>
      </trkpt>
      <trkpt lat="44.32963" lon="0.78649">
        <ele>199</ele>
        <time>2025-10-12T12:23:30.518Z</time>
      </trkpt>
      <trkpt lat="44.32964" lon="0.78649">
        <ele>199</ele>
        <time>2025-10-12T12:23:31.518Z</time>
      </trkpt>
      <trkpt lat="44.32964" lon="0.78649">
        <ele>199</ele>
        <time>2025-10-12T12:23:32.518Z</time>
      </trkpt>
      <trkpt lat="44.32965" lon="0.7865">
        <ele>198</ele>
        <time>2025-10-12T12:23:33.518Z</time>
      </trkpt>
      <trkpt lat="44.32966" lon="0.7865">
        <ele>198</ele>
        <time>2025-10-12T12:23:34.518Z</time>
      </trkpt>
      <trkpt lat="44.32966" lon="0.7865">
        <ele>198</ele>
        <time>2025-10-12T12:23:35.518Z</time>
      </trkpt>
      <trkpt lat="44.32968" lon="0.78651">
        <ele>197</ele>
        <time>2025-10-12T12:23:36.518Z</time>
      </trkpt>
      <trkpt lat="44.32968" lon="0.78652">
        <ele>197</ele>
        <time>2025-10-12T12:23:37.518Z</time>
      </trkpt>
      <trkpt lat="44.32969" lon="0.78652">
        <ele>197</ele>
        <time>2025-10-12T12:23:38.518Z</time>
      </trkpt>
      <trkpt lat="44.3297" lon="0.78652">
        <ele>196</ele>
        <time>2025-10-12T12:23:39.518Z</time>
      </trkpt>
      <trkpt lat="44.32971" lon="0.78653">
        <ele>196</ele>
        <time>2025-10-12T12:23:40.518Z</time>
      </trkpt>
      <trkpt lat="44.32973" lon="0.78653">
        <ele>196</ele>
        <time>2025-10-12T12:23:41.518Z</time>
      </trkpt>
      <trkpt lat="44.32973" lon="0.78653">
        <ele>196</ele>
        <time>2025-10-12T12:23:42.518Z</time>
      </trkpt>
      <trkpt lat="44.32974" lon="0.78653">
        <ele>196</ele>
        <time>2025-10-12T12:23:43.518Z</time>
      </trkpt>
      <trkpt lat="44.32975" lon="0.78654">
        <ele>196</ele>
        <time>2025-10-12T12:23:44.518Z</time>
      </trkpt>
      <trkpt lat="44.32978" lon="0.78654">
        <ele>196</ele>
        <time>2025-10-12T12:23:45.518Z</time>
      </trkpt>
      <trkpt lat="44.32979" lon="0.78654">
        <ele>196</ele>
        <time>2025-10-12T12:23:46.518Z</time>
      </trkpt>
      <trkpt lat="44.3298" lon="0.78654">
        <ele>197</ele>
        <time>2025-10-12T12:23:47.518Z</time>
      </trkpt>
      <trkpt lat="44.32981" lon="0.78654">
        <ele>197</ele>
        <time>2025-10-12T12:23:48.518Z</time>
      </trkpt>
      <trkpt lat="44.32982" lon="0.78654">
        <ele>197</ele>
        <time>2025-10-12T12:23:49.518Z</time>
      </trkpt>
      <trkpt lat="44.32984" lon="0.78655">
        <ele>197</ele>
        <time>2025-10-12T12:23:50.518Z</time>
      </trkpt>
      <trkpt lat="44.32984" lon="0.78655">
        <ele>198</ele>
        <time>2025-10-12T12:23:51.518Z</time>
      </trkpt>
      <trkpt lat="44.32985" lon="0.78656">
        <ele>198</ele>
        <time>2025-10-12T12:23:52.518Z</time>
      </trkpt>
      <trkpt lat="44.32986" lon="0.78656">
        <ele>198</ele>
        <time>2025-10-12T12:23:53.518Z</time>
      </trkpt>
      <trkpt lat="44.32988" lon="0.78657">
        <ele>198</ele>
        <time>2025-10-12T12:23:54.518Z</time>
      </trkpt>
      <trkpt lat="44.32989" lon="0.78657">
        <ele>198</ele>
        <time>2025-10-12T12:23:55.518Z</time>
      </trkpt>
      <trkpt lat="44.3299" lon="0.78657">
        <ele>198</ele>
        <time>2025-10-12T12:23:56.518Z</time>
      </trkpt>
      <trkpt lat="44.32991" lon="0.78657">
        <ele>197</ele>
        <time>2025-10-12T12:23:57.518Z</time>
      </trkpt>
      <trkpt lat="44.32992" lon="0.78657">
        <ele>198</ele>
        <time>2025-10-12T12:23:58.518Z</time>
      </trkpt>
      <trkpt lat="44.32993" lon="0.78657">
        <ele>198</ele>
        <time>2025-10-12T12:23:59.518Z</time>
      </trkpt>
      <trkpt lat="44.32994" lon="0.78657">
        <ele>198</ele>
        <time>2025-10-12T12:24:00.518Z</time>
      </trkpt>
      <trkpt lat="44.32995" lon="0.78657">
        <ele>198</ele>
        <time>2025-10-12T12:24:01.518Z</time>
      </trkpt>
      <trkpt lat="44.32996" lon="0.78657">
        <ele>198</ele>
        <time>2025-10-12T12:24:02.518Z</time>
      </trkpt>
      <trkpt lat="44.32997" lon="0.78657">
        <ele>198</ele>
        <time>2025-10-12T12:24:03.518Z</time>
      </trkpt>
      <trkpt lat="44.32998" lon="0.78657">
        <ele>199</ele>
        <time>2025-10-12T12:24:04.518Z</time>
      </trkpt>
      <trkpt lat="44.32999" lon="0.78657">
        <ele>199</ele>
        <time>2025-10-12T12:24:05.518Z</time>
      </trkpt>
      <trkpt lat="44.33" lon="0.78657">
        <ele>199</ele>
        <time>2025-10-12T12:24:06.518Z</time>
      </trkpt>
      <trkpt lat="44.33002" lon="0.78657">
        <ele>200</ele>
        <time>2025-10-12T12:24:07.518Z</time>
      </trkpt>
      <trkpt lat="44.33002" lon="0.78657">
        <ele>200</ele>
        <time>2025-10-12T12:24:08.518Z</time>
      </trkpt>
      <trkpt lat="44.33003" lon="0.78657">
        <ele>200</ele>
        <time>2025-10-12T12:24:09.518Z</time>
      </trkpt>
      <trkpt lat="44.33004" lon="0.78657">
        <ele>201</ele>
        <time>2025-10-12T12:24:10.518Z</time>
      </trkpt>
      <trkpt lat="44.33005" lon="0.78657">
        <ele>201</ele>
        <time>2025-10-12T12:24:11.518Z</time>
      </trkpt>
      <trkpt lat="44.33006" lon="0.78658">
        <ele>201</ele>
        <time>2025-10-12T12:24:12.518Z</time>
      </trkpt>
      <trkpt lat="44.33007" lon="0.78658">
        <ele>202</ele>
        <time>2025-10-12T12:24:13.518Z</time>
      </trkpt>
      <trkpt lat="44.33008" lon="0.78659">
        <ele>202</ele>
        <time>2025-10-12T12:24:14.518Z</time>
      </trkpt>
      <trkpt lat="44.33009" lon="0.78659">
        <ele>202</ele>
        <time>2025-10-12T12:24:15.518Z</time>
      </trkpt>
      <trkpt lat="44.33009" lon="0.78659">
        <ele>201</ele>
        <time>2025-10-12T12:24:16.518Z</time>
      </trkpt>
      <trkpt lat="44.3301" lon="0.78658">
        <ele>201</ele>
        <time>2025-10-12T12:24:17.518Z</time>
      </trkpt>
      <trkpt lat="44.33011" lon="0.78658">
        <ele>201</ele>
        <time>2025-10-12T12:24:18.518Z</time>
      </trkpt>
      <trkpt lat="44.33012" lon="0.78658">
        <ele>201</ele>
        <time>2025-10-12T12:24:19.518Z</time>
      </trkpt>
      <trkpt lat="44.33012" lon="0.78658">
        <ele>201</ele>
        <time>2025-10-12T12:24:20.518Z</time>
      </trkpt>
      <trkpt lat="44.33013" lon="0.78659">
        <ele>201</ele>
        <time>2025-10-12T12:24:21.518Z</time>
      </trkpt>
      <trkpt lat="44.33015" lon="0.78659">
        <ele>201</ele>
        <time>2025-10-12T12:24:22.518Z</time>
      </trkpt>
      <trkpt lat="44.33015" lon="0.78659">
        <ele>201</ele>
        <time>2025-10-12T12:24:23.518Z</time>
      </trkpt>
      <trkpt lat="44.33016" lon="0.78659">
        <ele>201</ele>
        <time>2025-10-12T12:24:24.518Z</time>
      </trkpt>
      <trkpt lat="44.33016" lon="0.78659">
        <ele>201</ele>
        <time>2025-10-12T12:24:25.518Z</time>
      </trkpt>
      <trkpt lat="44.33018" lon="0.78658">
        <ele>202</ele>
        <time>2025-10-12T12:24:26.518Z</time>
      </trkpt>
      <trkpt lat="44.33019" lon="0.78658">
        <ele>202</ele>
        <time>2025-10-12T12:24:27.518Z</time>
      </trkpt>
      <trkpt lat="44.33019" lon="0.78658">
        <ele>202</ele>
        <time>2025-10-12T12:24:28.518Z</time>
      </trkpt>
      <trkpt lat="44.3302" lon="0.78658">
        <ele>202</ele>
        <time>2025-10-12T12:24:29.518Z</time>
      </trkpt>
      <trkpt lat="44.33021" lon="0.78658">
        <ele>202</ele>
        <time>2025-10-12T12:24:30.518Z</time>
      </trkpt>
      <trkpt lat="44.33022" lon="0.78657">
        <ele>202</ele>
        <time>2025-10-12T12:24:31.518Z</time>
      </trkpt>
      <trkpt lat="44.33022" lon="0.78657">
        <ele>202</ele>
        <time>2025-10-12T12:24:32.518Z</time>
      </trkpt>
      <trkpt lat="44.33023" lon="0.78656">
        <ele>201</ele>
        <time>2025-10-12T12:24:33.518Z</time>
      </trkpt>
      <trkpt lat="44.33023" lon="0.78655">
        <ele>201</ele>
        <time>2025-10-12T12:24:34.518Z</time>
      </trkpt>
      <trkpt lat="44.33025" lon="0.78654">
        <ele>201</ele>
        <time>2025-10-12T12:24:35.518Z</time>
      </trkpt>
      <trkpt lat="44.33025" lon="0.78652">
        <ele>201</ele>
        <time>2025-10-12T12:24:36.518Z</time>
      </trkpt>
      <trkpt lat="44.33025" lon="0.78652">
        <ele>201</ele>
        <time>2025-10-12T12:24:37.518Z</time>
      </trkpt>
      <trkpt lat="44.33026" lon="0.78651">
        <ele>201</ele>
        <time>2025-10-12T12:24:38.518Z</time>
      </trkpt>
      <trkpt lat="44.33027" lon="0.78651">
        <ele>201</ele>
        <time>2025-10-12T12:24:39.518Z</time>
      </trkpt>
      <trkpt lat="44.33028" lon="0.78651">
        <ele>201</ele>
        <time>2025-10-12T12:24:40.518Z</time>
      </trkpt>
      <trkpt lat="44.33029" lon="0.78651">
        <ele>201</ele>
        <time>2025-10-12T12:24:41.518Z</time>
      </trkpt>
      <trkpt lat="44.3303" lon="0.7865">
        <ele>201</ele>
        <time>2025-10-12T12:24:42.518Z</time>
      </trkpt>
      <trkpt lat="44.33031" lon="0.7865">
        <ele>202</ele>
        <time>2025-10-12T12:24:43.518Z</time>
      </trkpt>
      <trkpt lat="44.33032" lon="0.78651">
        <ele>203</ele>
        <time>2025-10-12T12:24:44.518Z</time>
      </trkpt>
      <trkpt lat="44.33033" lon="0.78651">
        <ele>203</ele>
        <time>2025-10-12T12:24:45.518Z</time>
      </trkpt>
      <trkpt lat="44.33034" lon="0.78651">
        <ele>204</ele>
        <time>2025-10-12T12:24:46.518Z</time>
      </trkpt>
      <trkpt lat="44.33035" lon="0.78652">
        <ele>204</ele>
        <time>2025-10-12T12:24:47.518Z</time>
      </trkpt>
      <trkpt lat="44.33036" lon="0.78652">
        <ele>204</ele>
        <time>2025-10-12T12:24:48.518Z</time>
      </trkpt>
      <trkpt lat="44.33038" lon="0.78653">
        <ele>204</ele>
        <time>2025-10-12T12:24:49.518Z</time>
      </trkpt>
      <trkpt lat="44.33038" lon="0.78654">
        <ele>204</ele>
        <time>2025-10-12T12:24:50.518Z</time>
      </trkpt>
      <trkpt lat="44.33039" lon="0.78655">
        <ele>204</ele>
        <time>2025-10-12T12:24:51.518Z</time>
      </trkpt>
      <trkpt lat="44.33039" lon="0.78655">
        <ele>204</ele>
        <time>2025-10-12T12:24:52.518Z</time>
      </trkpt>
      <trkpt lat="44.3304" lon="0.78656">
        <ele>204</ele>
        <time>2025-10-12T12:24:53.518Z</time>
      </trkpt>
      <trkpt lat="44.33041" lon="0.78658">
        <ele>204</ele>
        <time>2025-10-12T12:24:54.518Z</time>
      </trkpt>
      <trkpt lat="44.33041" lon="0.78658">
        <ele>203</ele>
        <time>2025-10-12T12:24:55.518Z</time>
      </trkpt>
      <trkpt lat="44.33042" lon="0.78658">
        <ele>203</ele>
        <time>2025-10-12T12:24:56.518Z</time>
      </trkpt>
      <trkpt lat="44.33042" lon="0.78659">
        <ele>202</ele>
        <time>2025-10-12T12:24:57.518Z</time>
      </trkpt>
      <trkpt lat="44.33042" lon="0.78659">
        <ele>202</ele>
        <time>2025-10-12T12:24:58.518Z</time>
      </trkpt>
      <trkpt lat="44.33043" lon="0.7866">
        <ele>202</ele>
        <time>2025-10-12T12:24:59.518Z</time>
      </trkpt>
      <trkpt lat="44.33044" lon="0.78662">
        <ele>201</ele>
        <time>2025-10-12T12:25:00.518Z</time>
      </trkpt>
      <trkpt lat="44.33045" lon="0.78663">
        <ele>201</ele>
        <time>2025-10-12T12:25:01.518Z</time>
      </trkpt>
      <trkpt lat="44.33046" lon="0.78663">
        <ele>201</ele>
        <time>2025-10-12T12:25:02.518Z</time>
      </trkpt>
      <trkpt lat="44.33047" lon="0.78664">
        <ele>201</ele>
        <time>2025-10-12T12:25:03.518Z</time>
      </trkpt>
      <trkpt lat="44.33048" lon="0.78665">
        <ele>201</ele>
        <time>2025-10-12T12:25:04.518Z</time>
      </trkpt>
      <trkpt lat="44.33048" lon="0.78665">
        <ele>201</ele>
        <time>2025-10-12T12:25:05.518Z</time>
      </trkpt>
      <trkpt lat="44.33049" lon="0.78665">
        <ele>201</ele>
        <time>2025-10-12T12:25:06.518Z</time>
      </trkpt>
      <trkpt lat="44.33049" lon="0.78666">
        <ele>201</ele>
        <time>2025-10-12T12:25:07.518Z</time>
      </trkpt>
      <trkpt lat="44.33049" lon="0.78666">
        <ele>201</ele>
        <time>2025-10-12T12:25:08.518Z</time>
      </trkpt>
      <trkpt lat="44.3305" lon="0.78667">
        <ele>201</ele>
        <time>2025-10-12T12:25:09.518Z</time>
      </trkpt>
      <trkpt lat="44.33051" lon="0.78668">
        <ele>201</ele>
        <time>2025-10-12T12:25:10.518Z</time>
      </trkpt>
      <trkpt lat="44.33052" lon="0.78668">
        <ele>201</ele>
        <time>2025-10-12T12:25:11.518Z</time>
      </trkpt>
      <trkpt lat="44.33053" lon="0.78669">
        <ele>201</ele>
        <time>2025-10-12T12:25:12.518Z</time>
      </trkpt>
      <trkpt lat="44.33054" lon="0.7867">
        <ele>201</ele>
        <time>2025-10-12T12:25:13.518Z</time>
      </trkpt>
      <trkpt lat="44.33056" lon="0.78671">
        <ele>200</ele>
        <time>2025-10-12T12:25:14.518Z</time>
      </trkpt>
      <trkpt lat="44.33057" lon="0.78673">
        <ele>200</ele>
        <time>2025-10-12T12:25:15.518Z</time>
      </trkpt>
      <trkpt lat="44.33058" lon="0.78675">
        <ele>200</ele>
        <time>2025-10-12T12:25:16.518Z</time>
      </trkpt>
      <trkpt lat="44.33059" lon="0.78676">
        <ele>200</ele>
        <time>2025-10-12T12:25:17.518Z</time>
      </trkpt>
      <trkpt lat="44.3306" lon="0.78677">
        <ele>199</ele>
        <time>2025-10-12T12:25:18.518Z</time>
      </trkpt>
      <trkpt lat="44.3306" lon="0.78677">
        <ele>199</ele>
        <time>2025-10-12T12:25:19.518Z</time>
      </trkpt>
      <trkpt lat="44.33061" lon="0.78679">
        <ele>199</ele>
        <time>2025-10-12T12:25:20.518Z</time>
      </trkpt>
      <trkpt lat="44.33061" lon="0.7868">
        <ele>198</ele>
        <time>2025-10-12T12:25:21.518Z</time>
      </trkpt>
      <trkpt lat="44.33062" lon="0.78681">
        <ele>198</ele>
        <time>2025-10-12T12:25:22.518Z</time>
      </trkpt>
      <trkpt lat="44.33062" lon="0.78681">
        <ele>198</ele>
        <time>2025-10-12T12:25:23.518Z</time>
      </trkpt>
      <trkpt lat="44.33062" lon="0.78681">
        <ele>198</ele>
        <time>2025-10-12T12:25:24.518Z</time>
      </trkpt>
      <trkpt lat="44.33063" lon="0.78683">
        <ele>197</ele>
        <time>2025-10-12T12:25:25.518Z</time>
      </trkpt>
      <trkpt lat="44.33064" lon="0.78684">
        <ele>196</ele>
        <time>2025-10-12T12:25:26.518Z</time>
      </trkpt>
      <trkpt lat="44.33064" lon="0.78684">
        <ele>196</ele>
        <time>2025-10-12T12:25:27.518Z</time>
      </trkpt>
      <trkpt lat="44.33064" lon="0.78685">
        <ele>195</ele>
        <time>2025-10-12T12:25:28.518Z</time>
      </trkpt>
      <trkpt lat="44.33064" lon="0.78685">
        <ele>195</ele>
        <time>2025-10-12T12:25:29.518Z</time>
      </trkpt>
      <trkpt lat="44.33065" lon="0.78687">
        <ele>194</ele>
        <time>2025-10-12T12:25:30.518Z</time>
      </trkpt>
      <trkpt lat="44.33065" lon="0.78688">
        <ele>193</ele>
        <time>2025-10-12T12:25:31.518Z</time>
      </trkpt>
      <trkpt lat="44.33066" lon="0.78689">
        <ele>193</ele>
        <time>2025-10-12T12:25:32.518Z</time>
      </trkpt>
      <trkpt lat="44.33066" lon="0.78689">
        <ele>192</ele>
        <time>2025-10-12T12:25:33.518Z</time>
      </trkpt>
      <trkpt lat="44.33066" lon="0.7869">
        <ele>192</ele>
        <time>2025-10-12T12:25:34.518Z</time>
      </trkpt>
      <trkpt lat="44.33067" lon="0.78691">
        <ele>191</ele>
        <time>2025-10-12T12:25:35.518Z</time>
      </trkpt>
      <trkpt lat="44.33067" lon="0.78691">
        <ele>191</ele>
        <time>2025-10-12T12:25:36.518Z</time>
      </trkpt>
      <trkpt lat="44.33068" lon="0.78691">
        <ele>191</ele>
        <time>2025-10-12T12:25:37.518Z</time>
      </trkpt>
      <trkpt lat="44.33068" lon="0.78693">
        <ele>190</ele>
        <time>2025-10-12T12:25:38.518Z</time>
      </trkpt>
      <trkpt lat="44.33068" lon="0.78693">
        <ele>189</ele>
        <time>2025-10-12T12:25:39.518Z</time>
      </trkpt>
      <trkpt lat="44.33071" lon="0.78695">
        <ele>189</ele>
        <time>2025-10-12T12:25:40.518Z</time>
      </trkpt>
      <trkpt lat="44.33072" lon="0.78696">
        <ele>189</ele>
        <time>2025-10-12T12:25:41.518Z</time>
      </trkpt>
      <trkpt lat="44.33073" lon="0.78697">
        <ele>188</ele>
        <time>2025-10-12T12:25:42.518Z</time>
      </trkpt>
      <trkpt lat="44.33073" lon="0.78697">
        <ele>188</ele>
        <time>2025-10-12T12:25:43.518Z</time>
      </trkpt>
      <trkpt lat="44.33073" lon="0.78698">
        <ele>188</ele>
        <time>2025-10-12T12:25:44.518Z</time>
      </trkpt>
      <trkpt lat="44.33074" lon="0.78699">
        <ele>188</ele>
        <time>2025-10-12T12:25:45.518Z</time>
      </trkpt>
      <trkpt lat="44.33074" lon="0.787">
        <ele>188</ele>
        <time>2025-10-12T12:25:46.518Z</time>
      </trkpt>
      <trkpt lat="44.33075" lon="0.78701">
        <ele>188</ele>
        <time>2025-10-12T12:25:47.518Z</time>
      </trkpt>
      <trkpt lat="44.33075" lon="0.78703">
        <ele>188</ele>
        <time>2025-10-12T12:25:48.518Z</time>
      </trkpt>
      <trkpt lat="44.33076" lon="0.78704">
        <ele>187</ele>
        <time>2025-10-12T12:25:49.518Z</time>
      </trkpt>
      <trkpt lat="44.33076" lon="0.78705">
        <ele>187</ele>
        <time>2025-10-12T12:25:50.518Z</time>
      </trkpt>
      <trkpt lat="44.33076" lon="0.78706">
        <ele>187</ele>
        <time>2025-10-12T12:25:51.518Z</time>
      </trkpt>
      <trkpt lat="44.33077" lon="0.78707">
        <ele>187</ele>
        <time>2025-10-12T12:25:52.518Z</time>
      </trkpt>
      <trkpt lat="44.33078" lon="0.78708">
        <ele>187</ele>
        <time>2025-10-12T12:25:53.518Z</time>
      </trkpt>
      <trkpt lat="44.33079" lon="0.7871">
        <ele>187</ele>
        <time>2025-10-12T12:25:54.518Z</time>
      </trkpt>
      <trkpt lat="44.33081" lon="0.78712">
        <ele>187</ele>
        <time>2025-10-12T12:25:55.518Z</time>
      </trkpt>
      <trkpt lat="44.33082" lon="0.78712">
        <ele>187</ele>
        <time>2025-10-12T12:25:56.518Z</time>
      </trkpt>
      <trkpt lat="44.33082" lon="0.78713">
        <ele>187</ele>
        <time>2025-10-12T12:25:57.518Z</time>
      </trkpt>
      <trkpt lat="44.33082" lon="0.78713">
        <ele>186</ele>
        <time>2025-10-12T12:25:58.518Z</time>
      </trkpt>
      <trkpt lat="44.33082" lon="0.78713">
        <ele>186</ele>
        <time>2025-10-12T12:25:59.518Z</time>
      </trkpt>
      <trkpt lat="44.33082" lon="0.78713">
        <ele>185</ele>
        <time>2025-10-12T12:26:00.518Z</time>
      </trkpt>
      <trkpt lat="44.33082" lon="0.78713">
        <ele>185</ele>
        <time>2025-10-12T12:26:01.518Z</time>
      </trkpt>
      <trkpt lat="44.33082" lon="0.78713">
        <ele>185</ele>
        <time>2025-10-12T12:26:02.518Z</time>
      </trkpt>
      <trkpt lat="44.33082" lon="0.78713">
        <ele>185</ele>
        <time>2025-10-12T12:26:03.518Z</time>
      </trkpt>
      <trkpt lat="44.33082" lon="0.78713">
        <ele>185</ele>
        <time>2025-10-12T12:26:04.518Z</time>
      </trkpt>
      <trkpt lat="44.33082" lon="0.78713">
        <ele>185</ele>
        <time>2025-10-12T12:26:05.518Z</time>
      </trkpt>
      <trkpt lat="44.33082" lon="0.78713">
        <ele>185</ele>
        <time>2025-10-12T12:26:06.518Z</time>
      </trkpt>
      <trkpt lat="44.33082" lon="0.78713">
        <ele>185</ele>
        <time>2025-10-12T12:26:07.518Z</time>
      </trkpt>
      <trkpt lat="44.33082" lon="0.78713">
        <ele>185</ele>
        <time>2025-10-12T12:26:08.518Z</time>
      </trkpt>
      <trkpt lat="44.33082" lon="0.78713">
        <ele>185</ele>
        <time>2025-10-12T12:26:09.518Z</time>
      </trkpt>
      <trkpt lat="44.33082" lon="0.78713">
        <ele>184</ele>
        <time>2025-10-12T12:26:10.518Z</time>
      </trkpt>
      <trkpt lat="44.33082" lon="0.78713">
        <ele>184</ele>
        <time>2025-10-12T12:26:11.518Z</time>
      </trkpt>
      <trkpt lat="44.33082" lon="0.78713">
        <ele>183</ele>
        <time>2025-10-12T12:26:12.518Z</time>
      </trkpt>
      <trkpt lat="44.33082" lon="0.78713">
        <ele>182</ele>
        <time>2025-10-12T12:26:13.518Z</time>
      </trkpt>
      <trkpt lat="44.33082" lon="0.78713">
        <ele>182</ele>
        <time>2025-10-12T12:26:14.518Z</time>
      </trkpt>
      <trkpt lat="44.33082" lon="0.78713">
        <ele>182</ele>
        <time>2025-10-12T12:26:15.518Z</time>
      </trkpt>
      <trkpt lat="44.33082" lon="0.78713">
        <ele>182</ele>
        <time>2025-10-12T12:26:16.518Z</time>
      </trkpt>
      <trkpt lat="44.33082" lon="0.78713">
        <ele>181</ele>
        <time>2025-10-12T12:26:17.518Z</time>
      </trkpt>
      <trkpt lat="44.33082" lon="0.78713">
        <ele>181</ele>
        <time>2025-10-12T12:26:18.518Z</time>
      </trkpt>
      <trkpt lat="44.33082" lon="0.78713">
        <ele>180</ele>
        <time>2025-10-12T12:26:19.518Z</time>
      </trkpt>
      <trkpt lat="44.33082" lon="0.78713">
        <ele>180</ele>
        <time>2025-10-12T12:26:20.518Z</time>
      </trkpt>
      <trkpt lat="44.33082" lon="0.78713">
        <ele>180</ele>
        <time>2025-10-12T12:26:21.518Z</time>
      </trkpt>
      <trkpt lat="44.33082" lon="0.78713">
        <ele>180</ele>
        <time>2025-10-12T12:26:22.518Z</time>
      </trkpt>
      <trkpt lat="44.33082" lon="0.78713">
        <ele>180</ele>
        <time>2025-10-12T12:26:23.518Z</time>
      </trkpt>
      <trkpt lat="44.33082" lon="0.78713">
        <ele>179</ele>
        <time>2025-10-12T12:26:24.518Z</time>
      </trkpt>
      <trkpt lat="44.33082" lon="0.78713">
        <ele>179</ele>
        <time>2025-10-12T12:26:25.518Z</time>
      </trkpt>
      <trkpt lat="44.33082" lon="0.78713">
        <ele>179</ele>
        <time>2025-10-12T12:26:26.518Z</time>
      </trkpt>
      <trkpt lat="44.33082" lon="0.78713">
        <ele>179</ele>
        <time>2025-10-12T12:26:27.518Z</time>
      </trkpt>
      <trkpt lat="44.33082" lon="0.78713">
        <ele>179</ele>
        <time>2025-10-12T12:26:28.518Z</time>
      </trkpt>
      <trkpt lat="44.33082" lon="0.78713">
        <ele>179</ele>
        <time>2025-10-12T12:26:29.518Z</time>
      </trkpt>
      <trkpt lat="44.33082" lon="0.78713">
        <ele>178</ele>
        <time>2025-10-12T12:26:30.518Z</time>
      </trkpt>
      <trkpt lat="44.33082" lon="0.78713">
        <ele>178</ele>
        <time>2025-10-12T12:26:31.518Z</time>
      </trkpt>
      <trkpt lat="44.33081" lon="0.78713">
        <ele>178</ele>
        <time>2025-10-12T12:26:32.518Z</time>
      </trkpt>
      <trkpt lat="44.33081" lon="0.78714">
        <ele>179</ele>
        <time>2025-10-12T12:26:33.518Z</time>
      </trkpt>
      <trkpt lat="44.33081" lon="0.78714">
        <ele>179</ele>
        <time>2025-10-12T12:26:34.518Z</time>
      </trkpt>
      <trkpt lat="44.33081" lon="0.78714">
        <ele>179</ele>
        <time>2025-10-12T12:26:35.518Z</time>
      </trkpt>
      <trkpt lat="44.33082" lon="0.78715">
        <ele>179</ele>
        <time>2025-10-12T12:26:36.518Z</time>
      </trkpt>
      <trkpt lat="44.33082" lon="0.78715">
        <ele>179</ele>
        <time>2025-10-12T12:26:37.518Z</time>
      </trkpt>
      <trkpt lat="44.33083" lon="0.78716">
        <ele>179</ele>
        <time>2025-10-12T12:26:38.518Z</time>
      </trkpt>
      <trkpt lat="44.33084" lon="0.78716">
        <ele>179</ele>
        <time>2025-10-12T12:26:39.518Z</time>
      </trkpt>
      <trkpt lat="44.33085" lon="0.78717">
        <ele>180</ele>
        <time>2025-10-12T12:26:40.518Z</time>
      </trkpt>
      <trkpt lat="44.33085" lon="0.78717">
        <ele>180</ele>
        <time>2025-10-12T12:26:41.518Z</time>
      </trkpt>
      <trkpt lat="44.33086" lon="0.78718">
        <ele>180</ele>
        <time>2025-10-12T12:26:42.518Z</time>
      </trkpt>
      <trkpt lat="44.33086" lon="0.78719">
        <ele>180</ele>
        <time>2025-10-12T12:26:43.518Z</time>
      </trkpt>
      <trkpt lat="44.33087" lon="0.7872">
        <ele>180</ele>
        <time>2025-10-12T12:26:44.518Z</time>
      </trkpt>
      <trkpt lat="44.33087" lon="0.78721">
        <ele>180</ele>
        <time>2025-10-12T12:26:45.518Z</time>
      </trkpt>
      <trkpt lat="44.33087" lon="0.78722">
        <ele>180</ele>
        <time>2025-10-12T12:26:46.518Z</time>
      </trkpt>
      <trkpt lat="44.33087" lon="0.78723">
        <ele>180</ele>
        <time>2025-10-12T12:26:47.518Z</time>
      </trkpt>
      <trkpt lat="44.33088" lon="0.78723">
        <ele>181</ele>
        <time>2025-10-12T12:26:48.518Z</time>
      </trkpt>
      <trkpt lat="44.33089" lon="0.78724">
        <ele>181</ele>
        <time>2025-10-12T12:26:49.518Z</time>
      </trkpt>
      <trkpt lat="44.33089" lon="0.78724">
        <ele>182</ele>
        <time>2025-10-12T12:26:50.518Z</time>
      </trkpt>
      <trkpt lat="44.3309" lon="0.78726">
        <ele>182</ele>
        <time>2025-10-12T12:26:51.518Z</time>
      </trkpt>
      <trkpt lat="44.3309" lon="0.78726">
        <ele>182</ele>
        <time>2025-10-12T12:26:52.518Z</time>
      </trkpt>
      <trkpt lat="44.33091" lon="0.78727">
        <ele>183</ele>
        <time>2025-10-12T12:26:53.518Z</time>
      </trkpt>
      <trkpt lat="44.33092" lon="0.78728">
        <ele>184</ele>
        <time>2025-10-12T12:26:54.518Z</time>
      </trkpt>
      <trkpt lat="44.33094" lon="0.78731">
        <ele>185</ele>
        <time>2025-10-12T12:26:55.518Z</time>
      </trkpt>
      <trkpt lat="44.33094" lon="0.78732">
        <ele>186</ele>
        <time>2025-10-12T12:26:56.518Z</time>
      </trkpt>
      <trkpt lat="44.33095" lon="0.78733">
        <ele>187</ele>
        <time>2025-10-12T12:26:57.518Z</time>
      </trkpt>
      <trkpt lat="44.33095" lon="0.78732">
        <ele>187</ele>
        <time>2025-10-12T12:26:58.518Z</time>
      </trkpt>
      <trkpt lat="44.33095" lon="0.78733">
        <ele>188</ele>
        <time>2025-10-12T12:26:59.518Z</time>
      </trkpt>
      <trkpt lat="44.33095" lon="0.78733">
        <ele>188</ele>
        <time>2025-10-12T12:27:00.518Z</time>
      </trkpt>
      <trkpt lat="44.33095" lon="0.78734">
        <ele>188</ele>
        <time>2025-10-12T12:27:01.518Z</time>
      </trkpt>
      <trkpt lat="44.33095" lon="0.78734">
        <ele>188</ele>
        <time>2025-10-12T12:27:02.518Z</time>
      </trkpt>
      <trkpt lat="44.33095" lon="0.78734">
        <ele>187</ele>
        <time>2025-10-12T12:27:03.518Z</time>
      </trkpt>
      <trkpt lat="44.33095" lon="0.78734">
        <ele>186</ele>
        <time>2025-10-12T12:27:04.518Z</time>
      </trkpt>
      <trkpt lat="44.33095" lon="0.78734">
        <ele>186</ele>
        <time>2025-10-12T12:27:05.518Z</time>
      </trkpt>
      <trkpt lat="44.33095" lon="0.78734">
        <ele>186</ele>
        <time>2025-10-12T12:27:06.518Z</time>
      </trkpt>
      <trkpt lat="44.33095" lon="0.78734">
        <ele>186</ele>
        <time>2025-10-12T12:27:07.518Z</time>
      </trkpt>
      <trkpt lat="44.33095" lon="0.78734">
        <ele>186</ele>
        <time>2025-10-12T12:27:08.518Z</time>
      </trkpt>
      <trkpt lat="44.33095" lon="0.78734">
        <ele>186</ele>
        <time>2025-10-12T12:27:09.518Z</time>
      </trkpt>
      <trkpt lat="44.33096" lon="0.78734">
        <ele>186</ele>
        <time>2025-10-12T12:27:10.518Z</time>
      </trkpt>
      <trkpt lat="44.33096" lon="0.78733">
        <ele>187</ele>
        <time>2025-10-12T12:27:11.518Z</time>
      </trkpt>
      <trkpt lat="44.33097" lon="0.78732">
        <ele>187</ele>
        <time>2025-10-12T12:27:12.518Z</time>
      </trkpt>
      <trkpt lat="44.33097" lon="0.78732">
        <ele>187</ele>
        <time>2025-10-12T12:27:13.518Z</time>
      </trkpt>
      <trkpt lat="44.33097" lon="0.78732">
        <ele>187</ele>
        <time>2025-10-12T12:27:14.518Z</time>
      </trkpt>
      <trkpt lat="44.33099" lon="0.78732">
        <ele>187</ele>
        <time>2025-10-12T12:27:15.518Z</time>
      </trkpt>
      <trkpt lat="44.33099" lon="0.78732">
        <ele>187</ele>
        <time>2025-10-12T12:27:16.518Z</time>
      </trkpt>
      <trkpt lat="44.33099" lon="0.78732">
        <ele>187</ele>
        <time>2025-10-12T12:27:17.518Z</time>
      </trkpt>
      <trkpt lat="44.33101" lon="0.78732">
        <ele>187</ele>
        <time>2025-10-12T12:27:18.518Z</time>
      </trkpt>
      <trkpt lat="44.33101" lon="0.78732">
        <ele>187</ele>
        <time>2025-10-12T12:27:19.518Z</time>
      </trkpt>
      <trkpt lat="44.33101" lon="0.78732">
        <ele>187</ele>
        <time>2025-10-12T12:27:20.518Z</time>
      </trkpt>
      <trkpt lat="44.33102" lon="0.7873">
        <ele>186</ele>
        <time>2025-10-12T12:27:21.518Z</time>
      </trkpt>
      <trkpt lat="44.33102" lon="0.78729">
        <ele>186</ele>
        <time>2025-10-12T12:27:22.518Z</time>
      </trkpt>
      <trkpt lat="44.33102" lon="0.78729">
        <ele>186</ele>
        <time>2025-10-12T12:27:23.518Z</time>
      </trkpt>
      <trkpt lat="44.33102" lon="0.78728">
        <ele>185</ele>
        <time>2025-10-12T12:27:24.518Z</time>
      </trkpt>
      <trkpt lat="44.33102" lon="0.78727">
        <ele>185</ele>
        <time>2025-10-12T12:27:25.518Z</time>
      </trkpt>
      <trkpt lat="44.33102" lon="0.78727">
        <ele>184</ele>
        <time>2025-10-12T12:27:26.518Z</time>
      </trkpt>
      <trkpt lat="44.33103" lon="0.78726">
        <ele>183</ele>
        <time>2025-10-12T12:27:27.518Z</time>
      </trkpt>
      <trkpt lat="44.33103" lon="0.78725">
        <ele>182</ele>
        <time>2025-10-12T12:27:28.518Z</time>
      </trkpt>
      <trkpt lat="44.33103" lon="0.78725">
        <ele>182</ele>
        <time>2025-10-12T12:27:29.518Z</time>
      </trkpt>
      <trkpt lat="44.33103" lon="0.78725">
        <ele>182</ele>
        <time>2025-10-12T12:27:30.518Z</time>
      </trkpt>
      <trkpt lat="44.33103" lon="0.78724">
        <ele>181</ele>
        <time>2025-10-12T12:27:31.518Z</time>
      </trkpt>
      <trkpt lat="44.33104" lon="0.78723">
        <ele>181</ele>
        <time>2025-10-12T12:27:32.518Z</time>
      </trkpt>
      <trkpt lat="44.33104" lon="0.78721">
        <ele>180</ele>
        <time>2025-10-12T12:27:33.518Z</time>
      </trkpt>
      <trkpt lat="44.33104" lon="0.7872">
        <ele>180</ele>
        <time>2025-10-12T12:27:34.518Z</time>
      </trkpt>
      <trkpt lat="44.33104" lon="0.78719">
        <ele>180</ele>
        <time>2025-10-12T12:27:35.518Z</time>
      </trkpt>
      <trkpt lat="44.33104" lon="0.78718">
        <ele>180</ele>
        <time>2025-10-12T12:27:36.518Z</time>
      </trkpt>
      <trkpt lat="44.33104" lon="0.78717">
        <ele>179</ele>
        <time>2025-10-12T12:27:37.518Z</time>
      </trkpt>
      <trkpt lat="44.33104" lon="0.78717">
        <ele>179</ele>
        <time>2025-10-12T12:27:38.518Z</time>
      </trkpt>
      <trkpt lat="44.33104" lon="0.78716">
        <ele>178</ele>
        <time>2025-10-12T12:27:39.518Z</time>
      </trkpt>
      <trkpt lat="44.33104" lon="0.78715">
        <ele>178</ele>
        <time>2025-10-12T12:27:40.518Z</time>
      </trkpt>
      <trkpt lat="44.33104" lon="0.78714">
        <ele>178</ele>
        <time>2025-10-12T12:27:41.518Z</time>
      </trkpt>
      <trkpt lat="44.33105" lon="0.78713">
        <ele>178</ele>
        <time>2025-10-12T12:27:42.518Z</time>
      </trkpt>
      <trkpt lat="44.33105" lon="0.78713">
        <ele>178</ele>
        <time>2025-10-12T12:27:43.518Z</time>
      </trkpt>
      <trkpt lat="44.33105" lon="0.78712">
        <ele>177</ele>
        <time>2025-10-12T12:27:44.518Z</time>
      </trkpt>
      <trkpt lat="44.33105" lon="0.78711">
        <ele>177</ele>
        <time>2025-10-12T12:27:45.518Z</time>
      </trkpt>
      <trkpt lat="44.33105" lon="0.78711">
        <ele>177</ele>
        <time>2025-10-12T12:27:46.518Z</time>
      </trkpt>
      <trkpt lat="44.33105" lon="0.7871">
        <ele>176</ele>
        <time>2025-10-12T12:27:47.518Z</time>
      </trkpt>
      <trkpt lat="44.33105" lon="0.78709">
        <ele>176</ele>
        <time>2025-10-12T12:27:48.518Z</time>
      </trkpt>
      <trkpt lat="44.33106" lon="0.78708">
        <ele>176</ele>
        <time>2025-10-12T12:27:49.518Z</time>
      </trkpt>
      <trkpt lat="44.33106" lon="0.78707">
        <ele>176</ele>
        <time>2025-10-12T12:27:50.518Z</time>
      </trkpt>
      <trkpt lat="44.33106" lon="0.78707">
        <ele>177</ele>
        <time>2025-10-12T12:27:51.518Z</time>
      </trkpt>
      <trkpt lat="44.33107" lon="0.78707">
        <ele>177</ele>
        <time>2025-10-12T12:27:52.518Z</time>
      </trkpt>
      <trkpt lat="44.33107" lon="0.78706">
        <ele>177</ele>
        <time>2025-10-12T12:27:53.518Z</time>
      </trkpt>
      <trkpt lat="44.33107" lon="0.78706">
        <ele>177</ele>
        <time>2025-10-12T12:27:54.518Z</time>
      </trkpt>
      <trkpt lat="44.33107" lon="0.78705">
        <ele>177</ele>
        <time>2025-10-12T12:27:55.518Z</time>
      </trkpt>
      <trkpt lat="44.33107" lon="0.78704">
        <ele>177</ele>
        <time>2025-10-12T12:27:56.518Z</time>
      </trkpt>
      <trkpt lat="44.33107" lon="0.78703">
        <ele>177</ele>
        <time>2025-10-12T12:27:57.518Z</time>
      </trkpt>
      <trkpt lat="44.33107" lon="0.78702">
        <ele>178</ele>
        <time>2025-10-12T12:27:58.518Z</time>
      </trkpt>
      <trkpt lat="44.33108" lon="0.78701">
        <ele>178</ele>
        <time>2025-10-12T12:27:59.518Z</time>
      </trkpt>
      <trkpt lat="44.33108" lon="0.78699">
        <ele>178</ele>
        <time>2025-10-12T12:28:00.518Z</time>
      </trkpt>
      <trkpt lat="44.33109" lon="0.78698">
        <ele>178</ele>
        <time>2025-10-12T12:28:01.518Z</time>
      </trkpt>
      <trkpt lat="44.33109" lon="0.78697">
        <ele>178</ele>
        <time>2025-10-12T12:28:02.518Z</time>
      </trkpt>
      <trkpt lat="44.33109" lon="0.78696">
        <ele>178</ele>
        <time>2025-10-12T12:28:03.518Z</time>
      </trkpt>
      <trkpt lat="44.33109" lon="0.78695">
        <ele>178</ele>
        <time>2025-10-12T12:28:04.518Z</time>
      </trkpt>
      <trkpt lat="44.3311" lon="0.78695">
        <ele>178</ele>
        <time>2025-10-12T12:28:05.518Z</time>
      </trkpt>
      <trkpt lat="44.3311" lon="0.78694">
        <ele>178</ele>
        <time>2025-10-12T12:28:06.518Z</time>
      </trkpt>
      <trkpt lat="44.3311" lon="0.78693">
        <ele>178</ele>
        <time>2025-10-12T12:28:07.518Z</time>
      </trkpt>
      <trkpt lat="44.3311" lon="0.78693">
        <ele>178</ele>
        <time>2025-10-12T12:28:08.518Z</time>
      </trkpt>
      <trkpt lat="44.3311" lon="0.78692">
        <ele>178</ele>
        <time>2025-10-12T12:28:09.518Z</time>
      </trkpt>
      <trkpt lat="44.33111" lon="0.7869">
        <ele>178</ele>
        <time>2025-10-12T12:28:10.518Z</time>
      </trkpt>
      <trkpt lat="44.33112" lon="0.78688">
        <ele>178</ele>
        <time>2025-10-12T12:28:11.518Z</time>
      </trkpt>
      <trkpt lat="44.33112" lon="0.78687">
        <ele>178</ele>
        <time>2025-10-12T12:28:12.518Z</time>
      </trkpt>
      <trkpt lat="44.33113" lon="0.78686">
        <ele>178</ele>
        <time>2025-10-12T12:28:13.518Z</time>
      </trkpt>
      <trkpt lat="44.33113" lon="0.78684">
        <ele>177</ele>
        <time>2025-10-12T12:28:14.518Z</time>
      </trkpt>
      <trkpt lat="44.33114" lon="0.78683">
        <ele>177</ele>
        <time>2025-10-12T12:28:15.518Z</time>
      </trkpt>
      <trkpt lat="44.33115" lon="0.78682">
        <ele>176</ele>
        <time>2025-10-12T12:28:16.518Z</time>
      </trkpt>
      <trkpt lat="44.33115" lon="0.78681">
        <ele>176</ele>
        <time>2025-10-12T12:28:17.518Z</time>
      </trkpt>
      <trkpt lat="44.33116" lon="0.78679">
        <ele>176</ele>
        <time>2025-10-12T12:28:18.518Z</time>
      </trkpt>
      <trkpt lat="44.33116" lon="0.78678">
        <ele>175</ele>
        <time>2025-10-12T12:28:19.518Z</time>
      </trkpt>
      <trkpt lat="44.33116" lon="0.78678">
        <ele>175</ele>
        <time>2025-10-12T12:28:20.518Z</time>
      </trkpt>
      <trkpt lat="44.33117" lon="0.78676">
        <ele>174</ele>
        <time>2025-10-12T12:28:21.518Z</time>
      </trkpt>
      <trkpt lat="44.33118" lon="0.78674">
        <ele>173</ele>
        <time>2025-10-12T12:28:22.518Z</time>
      </trkpt>
      <trkpt lat="44.33118" lon="0.78674">
        <ele>173</ele>
        <time>2025-10-12T12:28:23.518Z</time>
      </trkpt>
      <trkpt lat="44.33119" lon="0.78672">
        <ele>172</ele>
        <time>2025-10-12T12:28:24.518Z</time>
      </trkpt>
      <trkpt lat="44.3312" lon="0.78671">
        <ele>171</ele>
        <time>2025-10-12T12:28:25.518Z</time>
      </trkpt>
      <trkpt lat="44.3312" lon="0.78669">
        <ele>171</ele>
        <time>2025-10-12T12:28:26.518Z</time>
      </trkpt>
      <trkpt lat="44.33121" lon="0.78669">
        <ele>170</ele>
        <time>2025-10-12T12:28:27.518Z</time>
      </trkpt>
      <trkpt lat="44.33121" lon="0.78668">
        <ele>170</ele>
        <time>2025-10-12T12:28:28.518Z</time>
      </trkpt>
      <trkpt lat="44.33121" lon="0.78668">
        <ele>170</ele>
        <time>2025-10-12T12:28:29.518Z</time>
      </trkpt>
      <trkpt lat="44.33123" lon="0.78666">
        <ele>170</ele>
        <time>2025-10-12T12:28:30.518Z</time>
      </trkpt>
      <trkpt lat="44.33123" lon="0.78665">
        <ele>169</ele>
        <time>2025-10-12T12:28:31.518Z</time>
      </trkpt>
      <trkpt lat="44.33123" lon="0.78665">
        <ele>169</ele>
        <time>2025-10-12T12:28:32.518Z</time>
      </trkpt>
      <trkpt lat="44.33124" lon="0.78663">
        <ele>168</ele>
        <time>2025-10-12T12:28:33.518Z</time>
      </trkpt>
      <trkpt lat="44.33124" lon="0.78662">
        <ele>168</ele>
        <time>2025-10-12T12:28:34.518Z</time>
      </trkpt>
      <trkpt lat="44.33124" lon="0.78662">
        <ele>168</ele>
        <time>2025-10-12T12:28:35.518Z</time>
      </trkpt>
      <trkpt lat="44.33125" lon="0.7866">
        <ele>167</ele>
        <time>2025-10-12T12:28:36.518Z</time>
      </trkpt>
      <trkpt lat="44.33125" lon="0.78659">
        <ele>167</ele>
        <time>2025-10-12T12:28:37.518Z</time>
      </trkpt>
      <trkpt lat="44.33125" lon="0.78658">
        <ele>167</ele>
        <time>2025-10-12T12:28:38.518Z</time>
      </trkpt>
      <trkpt lat="44.33125" lon="0.78657">
        <ele>167</ele>
        <time>2025-10-12T12:28:39.518Z</time>
      </trkpt>
      <trkpt lat="44.33125" lon="0.78655">
        <ele>167</ele>
        <time>2025-10-12T12:28:40.518Z</time>
      </trkpt>
      <trkpt lat="44.33126" lon="0.78654">
        <ele>167</ele>
        <time>2025-10-12T12:28:41.518Z</time>
      </trkpt>
      <trkpt lat="44.33126" lon="0.78653">
        <ele>166</ele>
        <time>2025-10-12T12:28:42.518Z</time>
      </trkpt>
      <trkpt lat="44.33126" lon="0.78652">
        <ele>166</ele>
        <time>2025-10-12T12:28:43.518Z</time>
      </trkpt>
      <trkpt lat="44.33127" lon="0.78651">
        <ele>166</ele>
        <time>2025-10-12T12:28:44.518Z</time>
      </trkpt>
      <trkpt lat="44.33127" lon="0.78651">
        <ele>166</ele>
        <time>2025-10-12T12:28:45.518Z</time>
      </trkpt>
      <trkpt lat="44.33127" lon="0.7865">
        <ele>165</ele>
        <time>2025-10-12T12:28:46.518Z</time>
      </trkpt>
      <trkpt lat="44.33128" lon="0.7865">
        <ele>165</ele>
        <time>2025-10-12T12:28:47.518Z</time>
      </trkpt>
      <trkpt lat="44.33128" lon="0.78649">
        <ele>165</ele>
        <time>2025-10-12T12:28:48.518Z</time>
      </trkpt>
      <trkpt lat="44.33128" lon="0.78647">
        <ele>165</ele>
        <time>2025-10-12T12:28:49.518Z</time>
      </trkpt>
      <trkpt lat="44.33129" lon="0.78647">
        <ele>165</ele>
        <time>2025-10-12T12:28:50.518Z</time>
      </trkpt>
      <trkpt lat="44.33128" lon="0.78647">
        <ele>164</ele>
        <time>2025-10-12T12:28:51.518Z</time>
      </trkpt>
      <trkpt lat="44.33128" lon="0.78645">
        <ele>164</ele>
        <time>2025-10-12T12:28:52.518Z</time>
      </trkpt>
      <trkpt lat="44.33128" lon="0.78645">
        <ele>164</ele>
        <time>2025-10-12T12:28:53.518Z</time>
      </trkpt>
      <trkpt lat="44.33129" lon="0.78644">
        <ele>164</ele>
        <time>2025-10-12T12:28:54.518Z</time>
      </trkpt>
      <trkpt lat="44.33129" lon="0.78643">
        <ele>163</ele>
        <time>2025-10-12T12:28:55.518Z</time>
      </trkpt>
      <trkpt lat="44.3313" lon="0.78642">
        <ele>163</ele>
        <time>2025-10-12T12:28:56.518Z</time>
      </trkpt>
      <trkpt lat="44.3313" lon="0.78641">
        <ele>162</ele>
        <time>2025-10-12T12:28:57.518Z</time>
      </trkpt>
      <trkpt lat="44.3313" lon="0.78641">
        <ele>162</ele>
        <time>2025-10-12T12:28:58.518Z</time>
      </trkpt>
      <trkpt lat="44.3313" lon="0.7864">
        <ele>162</ele>
        <time>2025-10-12T12:28:59.518Z</time>
      </trkpt>
      <trkpt lat="44.33131" lon="0.7864">
        <ele>162</ele>
        <time>2025-10-12T12:29:00.518Z</time>
      </trkpt>
      <trkpt lat="44.33131" lon="0.7864">
        <ele>161</ele>
        <time>2025-10-12T12:29:01.518Z</time>
      </trkpt>
      <trkpt lat="44.33131" lon="0.7864">
        <ele>161</ele>
        <time>2025-10-12T12:29:02.518Z</time>
      </trkpt>
      <trkpt lat="44.33131" lon="0.7864">
        <ele>161</ele>
        <time>2025-10-12T12:29:03.518Z</time>
      </trkpt>
      <trkpt lat="44.33131" lon="0.78641">
        <ele>161</ele>
        <time>2025-10-12T12:29:04.518Z</time>
      </trkpt>
      <trkpt lat="44.33131" lon="0.78641">
        <ele>162</ele>
        <time>2025-10-12T12:29:05.518Z</time>
      </trkpt>
      <trkpt lat="44.33131" lon="0.78642">
        <ele>162</ele>
        <time>2025-10-12T12:29:06.518Z</time>
      </trkpt>
      <trkpt lat="44.33132" lon="0.78642">
        <ele>162</ele>
        <time>2025-10-12T12:29:07.518Z</time>
      </trkpt>
      <trkpt lat="44.33132" lon="0.78642">
        <ele>162</ele>
        <time>2025-10-12T12:29:08.518Z</time>
      </trkpt>
      <trkpt lat="44.33132" lon="0.78642">
        <ele>162</ele>
        <time>2025-10-12T12:29:09.518Z</time>
      </trkpt>
      <trkpt lat="44.33133" lon="0.78643">
        <ele>162</ele>
        <time>2025-10-12T12:29:10.518Z</time>
      </trkpt>
      <trkpt lat="44.33133" lon="0.78643">
        <ele>162</ele>
        <time>2025-10-12T12:29:11.518Z</time>
      </trkpt>
      <trkpt lat="44.33134" lon="0.78642">
        <ele>162</ele>
        <time>2025-10-12T12:29:12.518Z</time>
      </trkpt>
      <trkpt lat="44.33134" lon="0.78642">
        <ele>161</ele>
        <time>2025-10-12T12:29:13.518Z</time>
      </trkpt>
      <trkpt lat="44.33134" lon="0.78642">
        <ele>161</ele>
        <time>2025-10-12T12:29:14.518Z</time>
      </trkpt>
      <trkpt lat="44.33134" lon="0.78642">
        <ele>160</ele>
        <time>2025-10-12T12:29:15.518Z</time>
      </trkpt>
      <trkpt lat="44.33134" lon="0.78642">
        <ele>159</ele>
        <time>2025-10-12T12:29:16.518Z</time>
      </trkpt>
      <trkpt lat="44.33134" lon="0.78642">
        <ele>159</ele>
        <time>2025-10-12T12:29:17.518Z</time>
      </trkpt>
      <trkpt lat="44.33134" lon="0.78642">
        <ele>158</ele>
        <time>2025-10-12T12:29:18.518Z</time>
      </trkpt>
      <trkpt lat="44.33134" lon="0.78642">
        <ele>157</ele>
        <time>2025-10-12T12:29:19.518Z</time>
      </trkpt>
      <trkpt lat="44.33134" lon="0.78642">
        <ele>156</ele>
        <time>2025-10-12T12:29:20.518Z</time>
      </trkpt>
      <trkpt lat="44.33134" lon="0.78642">
        <ele>156</ele>
        <time>2025-10-12T12:29:21.518Z</time>
      </trkpt>
      <trkpt lat="44.33134" lon="0.78642">
        <ele>155</ele>
        <time>2025-10-12T12:29:22.518Z</time>
      </trkpt>
      <trkpt lat="44.33134" lon="0.78642">
        <ele>155</ele>
        <time>2025-10-12T12:29:23.518Z</time>
      </trkpt>
      <trkpt lat="44.33134" lon="0.78642">
        <ele>154</ele>
        <time>2025-10-12T12:29:24.518Z</time>
      </trkpt>
      <trkpt lat="44.33135" lon="0.78642">
        <ele>153</ele>
        <time>2025-10-12T12:29:25.518Z</time>
      </trkpt>
      <trkpt lat="44.33135" lon="0.78642">
        <ele>152</ele>
        <time>2025-10-12T12:29:26.518Z</time>
      </trkpt>
      <trkpt lat="44.33135" lon="0.78642">
        <ele>152</ele>
        <time>2025-10-12T12:29:27.518Z</time>
      </trkpt>
      <trkpt lat="44.33134" lon="0.78642">
        <ele>152</ele>
        <time>2025-10-12T12:29:28.518Z</time>
      </trkpt>
      <trkpt lat="44.33134" lon="0.78642">
        <ele>152</ele>
        <time>2025-10-12T12:29:29.518Z</time>
      </trkpt>
      <trkpt lat="44.33134" lon="0.78642">
        <ele>152</ele>
        <time>2025-10-12T12:29:30.518Z</time>
      </trkpt>
      <trkpt lat="44.33134" lon="0.78643">
        <ele>152</ele>
        <time>2025-10-12T12:29:31.518Z</time>
      </trkpt>
      <trkpt lat="44.33134" lon="0.78643">
        <ele>153</ele>
        <time>2025-10-12T12:29:32.518Z</time>
      </trkpt>
      <trkpt lat="44.33134" lon="0.78643">
        <ele>153</ele>
        <time>2025-10-12T12:29:33.518Z</time>
      </trkpt>
      <trkpt lat="44.33134" lon="0.78643">
        <ele>153</ele>
        <time>2025-10-12T12:29:34.518Z</time>
      </trkpt>
      <trkpt lat="44.33134" lon="0.78643">
        <ele>153</ele>
        <time>2025-10-12T12:29:35.518Z</time>
      </trkpt>
      <trkpt lat="44.33134" lon="0.78643">
        <ele>153</ele>
        <time>2025-10-12T12:29:36.518Z</time>
      </trkpt>
      <trkpt lat="44.33134" lon="0.78643">
        <ele>153</ele>
        <time>2025-10-12T12:29:37.518Z</time>
      </trkpt>
      <trkpt lat="44.33134" lon="0.78643">
        <ele>153</ele>
        <time>2025-10-12T12:29:38.518Z</time>
      </trkpt>
      <trkpt lat="44.33134" lon="0.78643">
        <ele>154</ele>
        <time>2025-10-12T12:29:39.518Z</time>
      </trkpt>
      <trkpt lat="44.33134" lon="0.78643">
        <ele>154</ele>
        <time>2025-10-12T12:29:40.518Z</time>
      </trkpt>
      <trkpt lat="44.33134" lon="0.78643">
        <ele>154</ele>
        <time>2025-10-12T12:29:41.518Z</time>
      </trkpt>
      <trkpt lat="44.33134" lon="0.78643">
        <ele>154</ele>
        <time>2025-10-12T12:29:42.518Z</time>
      </trkpt>
      <trkpt lat="44.33134" lon="0.78643">
        <ele>154</ele>
        <time>2025-10-12T12:29:43.518Z</time>
      </trkpt>
      <trkpt lat="44.33134" lon="0.78643">
        <ele>154</ele>
        <time>2025-10-12T12:29:44.518Z</time>
      </trkpt>
      <trkpt lat="44.33134" lon="0.78643">
        <ele>155</ele>
        <time>2025-10-12T12:29:45.518Z</time>
      </trkpt>
      <trkpt lat="44.33134" lon="0.78643">
        <ele>155</ele>
        <time>2025-10-12T12:29:46.518Z</time>
      </trkpt>
      <trkpt lat="44.33134" lon="0.78643">
        <ele>155</ele>
        <time>2025-10-12T12:29:47.518Z</time>
      </trkpt>
      <trkpt lat="44.33134" lon="0.78643">
        <ele>155</ele>
        <time>2025-10-12T12:29:48.518Z</time>
      </trkpt>
      <trkpt lat="44.33134" lon="0.78643">
        <ele>155</ele>
        <time>2025-10-12T12:29:49.518Z</time>
      </trkpt>
      <trkpt lat="44.33134" lon="0.78643">
        <ele>155</ele>
        <time>2025-10-12T12:29:50.518Z</time>
      </trkpt>
      <trkpt lat="44.33134" lon="0.78643">
        <ele>155</ele>
        <time>2025-10-12T12:29:51.518Z</time>
      </trkpt>
      <trkpt lat="44.33134" lon="0.78643">
        <ele>155</ele>
        <time>2025-10-12T12:29:52.518Z</time>
      </trkpt>
      <trkpt lat="44.33134" lon="0.78643">
        <ele>155</ele>
        <time>2025-10-12T12:29:53.518Z</time>
      </trkpt>
      <trkpt lat="44.33134" lon="0.78643">
        <ele>155</ele>
        <time>2025-10-12T12:29:54.518Z</time>
      </trkpt>
      <trkpt lat="44.33134" lon="0.78643">
        <ele>155</ele>
        <time>2025-10-12T12:29:55.518Z</time>
      </trkpt>
      <trkpt lat="44.33134" lon="0.78643">
        <ele>155</ele>
        <time>2025-10-12T12:29:56.518Z</time>
      </trkpt>
      <trkpt lat="44.33134" lon="0.78643">
        <ele>155</ele>
        <time>2025-10-12T12:29:57.518Z</time>
      </trkpt>
      <trkpt lat="44.33134" lon="0.78643">
        <ele>155</ele>
        <time>2025-10-12T12:29:58.518Z</time>
      </trkpt>
      <trkpt lat="44.33134" lon="0.78643">
        <ele>155</ele>
        <time>2025-10-12T12:29:59.518Z</time>
      </trkpt>
      <trkpt lat="44.33134" lon="0.78643">
        <ele>155</ele>
        <time>2025-10-12T12:30:00.518Z</time>
      </trkpt>
      <trkpt lat="44.33134" lon="0.78643">
        <ele>155</ele>
        <time>2025-10-12T12:30:01.518Z</time>
      </trkpt>
      <trkpt lat="44.33134" lon="0.78642">
        <ele>155</ele>
        <time>2025-10-12T12:30:02.518Z</time>
      </trkpt>
      <trkpt lat="44.33134" lon="0.78642">
        <ele>155</ele>
        <time>2025-10-12T12:30:03.518Z</time>
      </trkpt>
      <trkpt lat="44.33136" lon="0.78641">
        <ele>156</ele>
        <time>2025-10-12T12:30:04.518Z</time>
      </trkpt>
      <trkpt lat="44.33136" lon="0.7864">
        <ele>157</ele>
        <time>2025-10-12T12:30:05.518Z</time>
      </trkpt>
      <trkpt lat="44.33136" lon="0.7864">
        <ele>158</ele>
        <time>2025-10-12T12:30:06.518Z</time>
      </trkpt>
      <trkpt lat="44.33137" lon="0.7864">
        <ele>159</ele>
        <time>2025-10-12T12:30:07.518Z</time>
      </trkpt>
      <trkpt lat="44.33138" lon="0.7864">
        <ele>159</ele>
        <time>2025-10-12T12:30:08.518Z</time>
      </trkpt>
      <trkpt lat="44.33139" lon="0.7864">
        <ele>160</ele>
        <time>2025-10-12T12:30:09.518Z</time>
      </trkpt>
      <trkpt lat="44.3314" lon="0.78639">
        <ele>160</ele>
        <time>2025-10-12T12:30:10.518Z</time>
      </trkpt>
      <trkpt lat="44.3314" lon="0.78639">
        <ele>160</ele>
        <time>2025-10-12T12:30:11.518Z</time>
      </trkpt>
      <trkpt lat="44.33143" lon="0.78637">
        <ele>161</ele>
        <time>2025-10-12T12:30:12.518Z</time>
      </trkpt>
      <trkpt lat="44.33144" lon="0.78636">
        <ele>161</ele>
        <time>2025-10-12T12:30:13.518Z</time>
      </trkpt>
      <trkpt lat="44.33145" lon="0.78635">
        <ele>162</ele>
        <time>2025-10-12T12:30:14.518Z</time>
      </trkpt>
      <trkpt lat="44.33147" lon="0.78634">
        <ele>162</ele>
        <time>2025-10-12T12:30:15.518Z</time>
      </trkpt>
      <trkpt lat="44.33148" lon="0.78634">
        <ele>163</ele>
        <time>2025-10-12T12:30:16.518Z</time>
      </trkpt>
      <trkpt lat="44.33148" lon="0.78634">
        <ele>163</ele>
        <time>2025-10-12T12:30:17.518Z</time>
      </trkpt>
      <trkpt lat="44.33149" lon="0.78633">
        <ele>163</ele>
        <time>2025-10-12T12:30:18.518Z</time>
      </trkpt>
      <trkpt lat="44.3315" lon="0.78632">
        <ele>163</ele>
        <time>2025-10-12T12:30:19.518Z</time>
      </trkpt>
      <trkpt lat="44.3315" lon="0.78632">
        <ele>163</ele>
        <time>2025-10-12T12:30:20.518Z</time>
      </trkpt>
      <trkpt lat="44.33153" lon="0.78632">
        <ele>164</ele>
        <time>2025-10-12T12:30:21.518Z</time>
      </trkpt>
      <trkpt lat="44.33154" lon="0.78632">
        <ele>164</ele>
        <time>2025-10-12T12:30:22.518Z</time>
      </trkpt>
      <trkpt lat="44.33154" lon="0.78632">
        <ele>164</ele>
        <time>2025-10-12T12:30:23.518Z</time>
      </trkpt>
      <trkpt lat="44.33156" lon="0.78632">
        <ele>164</ele>
        <time>2025-10-12T12:30:24.518Z</time>
      </trkpt>
      <trkpt lat="44.33157" lon="0.78632">
        <ele>164</ele>
        <time>2025-10-12T12:30:25.518Z</time>
      </trkpt>
      <trkpt lat="44.33158" lon="0.78631">
        <ele>164</ele>
        <time>2025-10-12T12:30:26.518Z</time>
      </trkpt>
      <trkpt lat="44.33158" lon="0.78631">
        <ele>164</ele>
        <time>2025-10-12T12:30:27.518Z</time>
      </trkpt>
      <trkpt lat="44.33159" lon="0.78631">
        <ele>164</ele>
        <time>2025-10-12T12:30:28.518Z</time>
      </trkpt>
      <trkpt lat="44.33159" lon="0.78631">
        <ele>164</ele>
        <time>2025-10-12T12:30:29.518Z</time>
      </trkpt>
      <trkpt lat="44.33161" lon="0.78629">
        <ele>163</ele>
        <time>2025-10-12T12:30:30.518Z</time>
      </trkpt>
      <trkpt lat="44.33162" lon="0.78628">
        <ele>163</ele>
        <time>2025-10-12T12:30:31.518Z</time>
      </trkpt>
      <trkpt lat="44.33162" lon="0.78628">
        <ele>163</ele>
        <time>2025-10-12T12:30:32.518Z</time>
      </trkpt>
      <trkpt lat="44.33165" lon="0.78627">
        <ele>162</ele>
        <time>2025-10-12T12:30:33.518Z</time>
      </trkpt>
      <trkpt lat="44.33166" lon="0.78629">
        <ele>162</ele>
        <time>2025-10-12T12:30:34.518Z</time>
      </trkpt>
      <trkpt lat="44.33167" lon="0.78629">
        <ele>161</ele>
        <time>2025-10-12T12:30:35.518Z</time>
      </trkpt>
      <trkpt lat="44.33168" lon="0.7863">
        <ele>160</ele>
        <time>2025-10-12T12:30:36.518Z</time>
      </trkpt>
      <trkpt lat="44.33168" lon="0.78631">
        <ele>160</ele>
        <time>2025-10-12T12:30:37.518Z</time>
      </trkpt>
      <trkpt lat="44.33168" lon="0.78631">
        <ele>160</ele>
        <time>2025-10-12T12:30:38.518Z</time>
      </trkpt>
      <trkpt lat="44.33168" lon="0.78632">
        <ele>159</ele>
        <time>2025-10-12T12:30:39.518Z</time>
      </trkpt>
      <trkpt lat="44.33169" lon="0.78632">
        <ele>158</ele>
        <time>2025-10-12T12:30:40.518Z</time>
      </trkpt>
      <trkpt lat="44.33169" lon="0.78631">
        <ele>157</ele>
        <time>2025-10-12T12:30:41.518Z</time>
      </trkpt>
      <trkpt lat="44.33171" lon="0.78629">
        <ele>155</ele>
        <time>2025-10-12T12:30:42.518Z</time>
      </trkpt>
      <trkpt lat="44.33172" lon="0.78628">
        <ele>155</ele>
        <time>2025-10-12T12:30:43.518Z</time>
      </trkpt>
      <trkpt lat="44.33173" lon="0.78628">
        <ele>154</ele>
        <time>2025-10-12T12:30:44.518Z</time>
      </trkpt>
      <trkpt lat="44.33174" lon="0.78628">
        <ele>154</ele>
        <time>2025-10-12T12:30:45.518Z</time>
      </trkpt>
      <trkpt lat="44.33175" lon="0.78627">
        <ele>153</ele>
        <time>2025-10-12T12:30:46.518Z</time>
      </trkpt>
      <trkpt lat="44.33175" lon="0.78626">
        <ele>153</ele>
        <time>2025-10-12T12:30:47.518Z</time>
      </trkpt>
      <trkpt lat="44.33176" lon="0.78626">
        <ele>152</ele>
        <time>2025-10-12T12:30:48.518Z</time>
      </trkpt>
      <trkpt lat="44.33177" lon="0.78625">
        <ele>152</ele>
        <time>2025-10-12T12:30:49.518Z</time>
      </trkpt>
      <trkpt lat="44.33178" lon="0.78624">
        <ele>152</ele>
        <time>2025-10-12T12:30:50.518Z</time>
      </trkpt>
      <trkpt lat="44.33179" lon="0.78624">
        <ele>151</ele>
        <time>2025-10-12T12:30:51.518Z</time>
      </trkpt>
      <trkpt lat="44.3318" lon="0.78623">
        <ele>151</ele>
        <time>2025-10-12T12:30:52.518Z</time>
      </trkpt>
      <trkpt lat="44.3318" lon="0.78623">
        <ele>151</ele>
        <time>2025-10-12T12:30:53.518Z</time>
      </trkpt>
      <trkpt lat="44.33182" lon="0.78622">
        <ele>151</ele>
        <time>2025-10-12T12:30:54.518Z</time>
      </trkpt>
      <trkpt lat="44.33183" lon="0.78622">
        <ele>151</ele>
        <time>2025-10-12T12:30:55.518Z</time>
      </trkpt>
      <trkpt lat="44.33183" lon="0.78622">
        <ele>151</ele>
        <time>2025-10-12T12:30:56.518Z</time>
      </trkpt>
      <trkpt lat="44.33185" lon="0.7862">
        <ele>151</ele>
        <time>2025-10-12T12:30:57.518Z</time>
      </trkpt>
      <trkpt lat="44.33186" lon="0.7862">
        <ele>150</ele>
        <time>2025-10-12T12:30:58.518Z</time>
      </trkpt>
      <trkpt lat="44.33187" lon="0.78619">
        <ele>150</ele>
        <time>2025-10-12T12:30:59.518Z</time>
      </trkpt>
      <trkpt lat="44.33188" lon="0.78619">
        <ele>150</ele>
        <time>2025-10-12T12:31:00.518Z</time>
      </trkpt>
      <trkpt lat="44.3319" lon="0.78618">
        <ele>149</ele>
        <time>2025-10-12T12:31:01.518Z</time>
      </trkpt>
      <trkpt lat="44.3319" lon="0.78618">
        <ele>149</ele>
        <time>2025-10-12T12:31:02.518Z</time>
      </trkpt>
      <trkpt lat="44.33192" lon="0.78616">
        <ele>149</ele>
        <time>2025-10-12T12:31:03.518Z</time>
      </trkpt>
      <trkpt lat="44.33193" lon="0.78615">
        <ele>149</ele>
        <time>2025-10-12T12:31:04.518Z</time>
      </trkpt>
      <trkpt lat="44.33193" lon="0.78615">
        <ele>149</ele>
        <time>2025-10-12T12:31:05.518Z</time>
      </trkpt>
      <trkpt lat="44.33196" lon="0.78615">
        <ele>148</ele>
        <time>2025-10-12T12:31:06.518Z</time>
      </trkpt>
      <trkpt lat="44.33198" lon="0.78615">
        <ele>148</ele>
        <time>2025-10-12T12:31:07.518Z</time>
      </trkpt>
      <trkpt lat="44.33199" lon="0.78615">
        <ele>148</ele>
        <time>2025-10-12T12:31:08.518Z</time>
      </trkpt>
      <trkpt lat="44.332" lon="0.78615">
        <ele>147</ele>
        <time>2025-10-12T12:31:09.518Z</time>
      </trkpt>
      <trkpt lat="44.33202" lon="0.78615">
        <ele>147</ele>
        <time>2025-10-12T12:31:10.518Z</time>
      </trkpt>
      <trkpt lat="44.33203" lon="0.78614">
        <ele>147</ele>
        <time>2025-10-12T12:31:11.518Z</time>
      </trkpt>
      <trkpt lat="44.33204" lon="0.78613">
        <ele>147</ele>
        <time>2025-10-12T12:31:12.518Z</time>
      </trkpt>
      <trkpt lat="44.33205" lon="0.78613">
        <ele>146</ele>
        <time>2025-10-12T12:31:13.518Z</time>
      </trkpt>
      <trkpt lat="44.33206" lon="0.78613">
        <ele>145</ele>
        <time>2025-10-12T12:31:14.518Z</time>
      </trkpt>
      <trkpt lat="44.33206" lon="0.78613">
        <ele>145</ele>
        <time>2025-10-12T12:31:15.518Z</time>
      </trkpt>
      <trkpt lat="44.33207" lon="0.78613">
        <ele>145</ele>
        <time>2025-10-12T12:31:16.518Z</time>
      </trkpt>
      <trkpt lat="44.33208" lon="0.78612">
        <ele>144</ele>
        <time>2025-10-12T12:31:17.518Z</time>
      </trkpt>
      <trkpt lat="44.3321" lon="0.78611">
        <ele>144</ele>
        <time>2025-10-12T12:31:18.518Z</time>
      </trkpt>
      <trkpt lat="44.33212" lon="0.7861">
        <ele>143</ele>
        <time>2025-10-12T12:31:19.518Z</time>
      </trkpt>
      <trkpt lat="44.33213" lon="0.78609">
        <ele>143</ele>
        <time>2025-10-12T12:31:20.518Z</time>
      </trkpt>
      <trkpt lat="44.33214" lon="0.78609">
        <ele>142</ele>
        <time>2025-10-12T12:31:21.518Z</time>
      </trkpt>
      <trkpt lat="44.33215" lon="0.78608">
        <ele>142</ele>
        <time>2025-10-12T12:31:22.518Z</time>
      </trkpt>
      <trkpt lat="44.33216" lon="0.78607">
        <ele>143</ele>
        <time>2025-10-12T12:31:23.518Z</time>
      </trkpt>
      <trkpt lat="44.33217" lon="0.78607">
        <ele>143</ele>
        <time>2025-10-12T12:31:24.518Z</time>
      </trkpt>
      <trkpt lat="44.33218" lon="0.78607">
        <ele>143</ele>
        <time>2025-10-12T12:31:25.518Z</time>
      </trkpt>
      <trkpt lat="44.3322" lon="0.78607">
        <ele>143</ele>
        <time>2025-10-12T12:31:26.518Z</time>
      </trkpt>
      <trkpt lat="44.33221" lon="0.78608">
        <ele>143</ele>
        <time>2025-10-12T12:31:27.518Z</time>
      </trkpt>
      <trkpt lat="44.33222" lon="0.78609">
        <ele>143</ele>
        <time>2025-10-12T12:31:28.518Z</time>
      </trkpt>
      <trkpt lat="44.33224" lon="0.7861">
        <ele>144</ele>
        <time>2025-10-12T12:31:29.518Z</time>
      </trkpt>
      <trkpt lat="44.33226" lon="0.78611">
        <ele>144</ele>
        <time>2025-10-12T12:31:30.518Z</time>
      </trkpt>
      <trkpt lat="44.33228" lon="0.78612">
        <ele>144</ele>
        <time>2025-10-12T12:31:31.518Z</time>
      </trkpt>
      <trkpt lat="44.33228" lon="0.78612">
        <ele>144</ele>
        <time>2025-10-12T12:31:32.518Z</time>
      </trkpt>
      <trkpt lat="44.33229" lon="0.78616">
        <ele>145</ele>
        <time>2025-10-12T12:31:33.518Z</time>
      </trkpt>
      <trkpt lat="44.33229" lon="0.78619">
        <ele>145</ele>
        <time>2025-10-12T12:31:34.518Z</time>
      </trkpt>
      <trkpt lat="44.33229" lon="0.78619">
        <ele>145</ele>
        <time>2025-10-12T12:31:35.518Z</time>
      </trkpt>
      <trkpt lat="44.3323" lon="0.78623">
        <ele>145</ele>
        <time>2025-10-12T12:31:36.518Z</time>
      </trkpt>
      <trkpt lat="44.3323" lon="0.78625">
        <ele>144</ele>
        <time>2025-10-12T12:31:37.518Z</time>
      </trkpt>
      <trkpt lat="44.3323" lon="0.78625">
        <ele>144</ele>
        <time>2025-10-12T12:31:38.518Z</time>
      </trkpt>
      <trkpt lat="44.3323" lon="0.78629">
        <ele>143</ele>
        <time>2025-10-12T12:31:39.518Z</time>
      </trkpt>
      <trkpt lat="44.33231" lon="0.7863">
        <ele>143</ele>
        <time>2025-10-12T12:31:40.518Z</time>
      </trkpt>
      <trkpt lat="44.33231" lon="0.78632">
        <ele>143</ele>
        <time>2025-10-12T12:31:41.518Z</time>
      </trkpt>
      <trkpt lat="44.33232" lon="0.78634">
        <ele>143</ele>
        <time>2025-10-12T12:31:42.518Z</time>
      </trkpt>
      <trkpt lat="44.33232" lon="0.78636">
        <ele>143</ele>
        <time>2025-10-12T12:31:43.518Z</time>
      </trkpt>
      <trkpt lat="44.33233" lon="0.78637">
        <ele>143</ele>
        <time>2025-10-12T12:31:44.518Z</time>
      </trkpt>
      <trkpt lat="44.33233" lon="0.78639">
        <ele>143</ele>
        <time>2025-10-12T12:31:45.518Z</time>
      </trkpt>
      <trkpt lat="44.33233" lon="0.78641">
        <ele>143</ele>
        <time>2025-10-12T12:31:46.518Z</time>
      </trkpt>
      <trkpt lat="44.33233" lon="0.78642">
        <ele>143</ele>
        <time>2025-10-12T12:31:47.518Z</time>
      </trkpt>
      <trkpt lat="44.33234" lon="0.78643">
        <ele>143</ele>
        <time>2025-10-12T12:31:48.518Z</time>
      </trkpt>
      <trkpt lat="44.33234" lon="0.78645">
        <ele>143</ele>
        <time>2025-10-12T12:31:49.518Z</time>
      </trkpt>
      <trkpt lat="44.33234" lon="0.78647">
        <ele>143</ele>
        <time>2025-10-12T12:31:50.518Z</time>
      </trkpt>
      <trkpt lat="44.33234" lon="0.78648">
        <ele>143</ele>
        <time>2025-10-12T12:31:51.518Z</time>
      </trkpt>
      <trkpt lat="44.33234" lon="0.78648">
        <ele>143</ele>
        <time>2025-10-12T12:31:52.518Z</time>
      </trkpt>
      <trkpt lat="44.33235" lon="0.7865">
        <ele>143</ele>
        <time>2025-10-12T12:31:53.518Z</time>
      </trkpt>
      <trkpt lat="44.33235" lon="0.78652">
        <ele>143</ele>
        <time>2025-10-12T12:31:54.518Z</time>
      </trkpt>
      <trkpt lat="44.33235" lon="0.78653">
        <ele>142</ele>
        <time>2025-10-12T12:31:55.518Z</time>
      </trkpt>
      <trkpt lat="44.33235" lon="0.78656">
        <ele>142</ele>
        <time>2025-10-12T12:31:56.518Z</time>
      </trkpt>
      <trkpt lat="44.33235" lon="0.78657">
        <ele>141</ele>
        <time>2025-10-12T12:31:57.518Z</time>
      </trkpt>
      <trkpt lat="44.33235" lon="0.78659">
        <ele>141</ele>
        <time>2025-10-12T12:31:58.518Z</time>
      </trkpt>
      <trkpt lat="44.33236" lon="0.7866">
        <ele>140</ele>
        <time>2025-10-12T12:31:59.518Z</time>
      </trkpt>
      <trkpt lat="44.33236" lon="0.78661">
        <ele>140</ele>
        <time>2025-10-12T12:32:00.518Z</time>
      </trkpt>
      <trkpt lat="44.33236" lon="0.78662">
        <ele>139</ele>
        <time>2025-10-12T12:32:01.518Z</time>
      </trkpt>
      <trkpt lat="44.33236" lon="0.78663">
        <ele>138</ele>
        <time>2025-10-12T12:32:02.518Z</time>
      </trkpt>
      <trkpt lat="44.33235" lon="0.78664">
        <ele>138</ele>
        <time>2025-10-12T12:32:03.518Z</time>
      </trkpt>
      <trkpt lat="44.33236" lon="0.78665">
        <ele>138</ele>
        <time>2025-10-12T12:32:04.518Z</time>
      </trkpt>
      <trkpt lat="44.33236" lon="0.78665">
        <ele>138</ele>
        <time>2025-10-12T12:32:05.518Z</time>
      </trkpt>
      <trkpt lat="44.33236" lon="0.78666">
        <ele>137</ele>
        <time>2025-10-12T12:32:06.518Z</time>
      </trkpt>
      <trkpt lat="44.33236" lon="0.78667">
        <ele>137</ele>
        <time>2025-10-12T12:32:07.518Z</time>
      </trkpt>
      <trkpt lat="44.33236" lon="0.78667">
        <ele>137</ele>
        <time>2025-10-12T12:32:08.518Z</time>
      </trkpt>
      <trkpt lat="44.33237" lon="0.78669">
        <ele>137</ele>
        <time>2025-10-12T12:32:09.518Z</time>
      </trkpt>
      <trkpt lat="44.33238" lon="0.78671">
        <ele>137</ele>
        <time>2025-10-12T12:32:10.518Z</time>
      </trkpt>
      <trkpt lat="44.33238" lon="0.78671">
        <ele>137</ele>
        <time>2025-10-12T12:32:11.518Z</time>
      </trkpt>
      <trkpt lat="44.33239" lon="0.78674">
        <ele>137</ele>
        <time>2025-10-12T12:32:12.518Z</time>
      </trkpt>
      <trkpt lat="44.3324" lon="0.78675">
        <ele>137</ele>
        <time>2025-10-12T12:32:13.518Z</time>
      </trkpt>
      <trkpt lat="44.3324" lon="0.78675">
        <ele>137</ele>
        <time>2025-10-12T12:32:14.518Z</time>
      </trkpt>
      <trkpt lat="44.3324" lon="0.78678">
        <ele>138</ele>
        <time>2025-10-12T12:32:15.518Z</time>
      </trkpt>
      <trkpt lat="44.3324" lon="0.7868">
        <ele>138</ele>
        <time>2025-10-12T12:32:16.518Z</time>
      </trkpt>
      <trkpt lat="44.3324" lon="0.7868">
        <ele>138</ele>
        <time>2025-10-12T12:32:17.518Z</time>
      </trkpt>
      <trkpt lat="44.3324" lon="0.78683">
        <ele>138</ele>
        <time>2025-10-12T12:32:18.518Z</time>
      </trkpt>
      <trkpt lat="44.3324" lon="0.78684">
        <ele>138</ele>
        <time>2025-10-12T12:32:19.518Z</time>
      </trkpt>
      <trkpt lat="44.3324" lon="0.78684">
        <ele>138</ele>
        <time>2025-10-12T12:32:20.518Z</time>
      </trkpt>
      <trkpt lat="44.33239" lon="0.78687">
        <ele>138</ele>
        <time>2025-10-12T12:32:21.518Z</time>
      </trkpt>
      <trkpt lat="44.33239" lon="0.78689">
        <ele>138</ele>
        <time>2025-10-12T12:32:22.518Z</time>
      </trkpt>
      <trkpt lat="44.33239" lon="0.78689">
        <ele>138</ele>
        <time>2025-10-12T12:32:23.518Z</time>
      </trkpt>
      <trkpt lat="44.33239" lon="0.78692">
        <ele>137</ele>
        <time>2025-10-12T12:32:24.518Z</time>
      </trkpt>
      <trkpt lat="44.33238" lon="0.78694">
        <ele>137</ele>
        <time>2025-10-12T12:32:25.518Z</time>
      </trkpt>
      <trkpt lat="44.33238" lon="0.78694">
        <ele>137</ele>
        <time>2025-10-12T12:32:26.518Z</time>
      </trkpt>
      <trkpt lat="44.33238" lon="0.78697">
        <ele>137</ele>
        <time>2025-10-12T12:32:27.518Z</time>
      </trkpt>
      <trkpt lat="44.33237" lon="0.78699">
        <ele>137</ele>
        <time>2025-10-12T12:32:28.518Z</time>
      </trkpt>
      <trkpt lat="44.33237" lon="0.78699">
        <ele>137</ele>
        <time>2025-10-12T12:32:29.518Z</time>
      </trkpt>
      <trkpt lat="44.33237" lon="0.787">
        <ele>136</ele>
        <time>2025-10-12T12:32:30.518Z</time>
      </trkpt>
      <trkpt lat="44.33236" lon="0.78702">
        <ele>136</ele>
        <time>2025-10-12T12:32:31.518Z</time>
      </trkpt>
      <trkpt lat="44.33236" lon="0.78703">
        <ele>136</ele>
        <time>2025-10-12T12:32:32.518Z</time>
      </trkpt>
      <trkpt lat="44.33235" lon="0.78706">
        <ele>136</ele>
        <time>2025-10-12T12:32:33.518Z</time>
      </trkpt>
      <trkpt lat="44.33235" lon="0.78708">
        <ele>135</ele>
        <time>2025-10-12T12:32:34.518Z</time>
      </trkpt>
      <trkpt lat="44.33235" lon="0.78709">
        <ele>135</ele>
        <time>2025-10-12T12:32:35.518Z</time>
      </trkpt>
      <trkpt lat="44.33234" lon="0.78711">
        <ele>135</ele>
        <time>2025-10-12T12:32:36.518Z</time>
      </trkpt>
      <trkpt lat="44.33234" lon="0.78712">
        <ele>135</ele>
        <time>2025-10-12T12:32:37.518Z</time>
      </trkpt>
      <trkpt lat="44.33234" lon="0.78712">
        <ele>135</ele>
        <time>2025-10-12T12:32:38.518Z</time>
      </trkpt>
      <trkpt lat="44.33233" lon="0.78715">
        <ele>135</ele>
        <time>2025-10-12T12:32:39.518Z</time>
      </trkpt>
      <trkpt lat="44.33233" lon="0.78717">
        <ele>135</ele>
        <time>2025-10-12T12:32:40.518Z</time>
      </trkpt>
      <trkpt lat="44.33233" lon="0.78717">
        <ele>135</ele>
        <time>2025-10-12T12:32:41.518Z</time>
      </trkpt>
      <trkpt lat="44.33233" lon="0.78719">
        <ele>135</ele>
        <time>2025-10-12T12:32:42.518Z</time>
      </trkpt>
      <trkpt lat="44.33232" lon="0.7872">
        <ele>136</ele>
        <time>2025-10-12T12:32:43.518Z</time>
      </trkpt>
      <trkpt lat="44.33232" lon="0.7872">
        <ele>136</ele>
        <time>2025-10-12T12:32:44.518Z</time>
      </trkpt>
      <trkpt lat="44.33231" lon="0.78723">
        <ele>137</ele>
        <time>2025-10-12T12:32:45.518Z</time>
      </trkpt>
      <trkpt lat="44.33231" lon="0.78724">
        <ele>137</ele>
        <time>2025-10-12T12:32:46.518Z</time>
      </trkpt>
      <trkpt lat="44.33231" lon="0.78724">
        <ele>137</ele>
        <time>2025-10-12T12:32:47.518Z</time>
      </trkpt>
      <trkpt lat="44.33231" lon="0.78727">
        <ele>137</ele>
        <time>2025-10-12T12:32:48.518Z</time>
      </trkpt>
      <trkpt lat="44.3323" lon="0.78729">
        <ele>137</ele>
        <time>2025-10-12T12:32:49.518Z</time>
      </trkpt>
      <trkpt lat="44.3323" lon="0.78729">
        <ele>137</ele>
        <time>2025-10-12T12:32:50.518Z</time>
      </trkpt>
      <trkpt lat="44.3323" lon="0.78732">
        <ele>137</ele>
        <time>2025-10-12T12:32:51.518Z</time>
      </trkpt>
      <trkpt lat="44.33229" lon="0.78733">
        <ele>137</ele>
        <time>2025-10-12T12:32:52.518Z</time>
      </trkpt>
      <trkpt lat="44.33229" lon="0.78733">
        <ele>137</ele>
        <time>2025-10-12T12:32:53.518Z</time>
      </trkpt>
      <trkpt lat="44.33229" lon="0.78736">
        <ele>137</ele>
        <time>2025-10-12T12:32:54.518Z</time>
      </trkpt>
      <trkpt lat="44.33229" lon="0.78737">
        <ele>137</ele>
        <time>2025-10-12T12:32:55.518Z</time>
      </trkpt>
      <trkpt lat="44.33229" lon="0.78737">
        <ele>137</ele>
        <time>2025-10-12T12:32:56.518Z</time>
      </trkpt>
      <trkpt lat="44.33228" lon="0.78739">
        <ele>138</ele>
        <time>2025-10-12T12:32:57.518Z</time>
      </trkpt>
      <trkpt lat="44.33228" lon="0.78741">
        <ele>139</ele>
        <time>2025-10-12T12:32:58.518Z</time>
      </trkpt>
      <trkpt lat="44.33228" lon="0.78741">
        <ele>139</ele>
        <time>2025-10-12T12:32:59.518Z</time>
      </trkpt>
      <trkpt lat="44.33228" lon="0.78744">
        <ele>140</ele>
        <time>2025-10-12T12:33:00.518Z</time>
      </trkpt>
      <trkpt lat="44.33228" lon="0.78745">
        <ele>140</ele>
        <time>2025-10-12T12:33:01.518Z</time>
      </trkpt>
      <trkpt lat="44.33228" lon="0.78745">
        <ele>140</ele>
        <time>2025-10-12T12:33:02.518Z</time>
      </trkpt>
      <trkpt lat="44.33228" lon="0.78748">
        <ele>141</ele>
        <time>2025-10-12T12:33:03.518Z</time>
      </trkpt>
      <trkpt lat="44.33228" lon="0.7875">
        <ele>141</ele>
        <time>2025-10-12T12:33:04.518Z</time>
      </trkpt>
      <trkpt lat="44.33228" lon="0.78751">
        <ele>142</ele>
        <time>2025-10-12T12:33:05.518Z</time>
      </trkpt>
      <trkpt lat="44.33228" lon="0.78751">
        <ele>142</ele>
        <time>2025-10-12T12:33:06.518Z</time>
      </trkpt>
      <trkpt lat="44.33228" lon="0.78753">
        <ele>142</ele>
        <time>2025-10-12T12:33:07.518Z</time>
      </trkpt>
      <trkpt lat="44.33228" lon="0.78754">
        <ele>142</ele>
        <time>2025-10-12T12:33:08.518Z</time>
      </trkpt>
      <trkpt lat="44.33228" lon="0.78756">
        <ele>143</ele>
        <time>2025-10-12T12:33:09.518Z</time>
      </trkpt>
      <trkpt lat="44.33228" lon="0.78759">
        <ele>143</ele>
        <time>2025-10-12T12:33:10.518Z</time>
      </trkpt>
      <trkpt lat="44.33228" lon="0.7876">
        <ele>143</ele>
        <time>2025-10-12T12:33:11.518Z</time>
      </trkpt>
      <trkpt lat="44.33228" lon="0.78762">
        <ele>142</ele>
        <time>2025-10-12T12:33:12.518Z</time>
      </trkpt>
      <trkpt lat="44.33227" lon="0.78763">
        <ele>142</ele>
        <time>2025-10-12T12:33:13.518Z</time>
      </trkpt>
      <trkpt lat="44.33227" lon="0.78763">
        <ele>142</ele>
        <time>2025-10-12T12:33:14.518Z</time>
      </trkpt>
      <trkpt lat="44.33227" lon="0.78766">
        <ele>141</ele>
        <time>2025-10-12T12:33:15.518Z</time>
      </trkpt>
      <trkpt lat="44.33227" lon="0.78768">
        <ele>141</ele>
        <time>2025-10-12T12:33:16.518Z</time>
      </trkpt>
      <trkpt lat="44.33227" lon="0.78768">
        <ele>141</ele>
        <time>2025-10-12T12:33:17.518Z</time>
      </trkpt>
      <trkpt lat="44.33227" lon="0.78771">
        <ele>140</ele>
        <time>2025-10-12T12:33:18.518Z</time>
      </trkpt>
      <trkpt lat="44.33227" lon="0.78772">
        <ele>140</ele>
        <time>2025-10-12T12:33:19.518Z</time>
      </trkpt>
      <trkpt lat="44.33227" lon="0.78772">
        <ele>140</ele>
        <time>2025-10-12T12:33:20.518Z</time>
      </trkpt>
      <trkpt lat="44.33227" lon="0.78776">
        <ele>140</ele>
        <time>2025-10-12T12:33:21.518Z</time>
      </trkpt>
      <trkpt lat="44.33227" lon="0.78777">
        <ele>140</ele>
        <time>2025-10-12T12:33:22.518Z</time>
      </trkpt>
      <trkpt lat="44.33227" lon="0.78777">
        <ele>140</ele>
        <time>2025-10-12T12:33:23.518Z</time>
      </trkpt>
      <trkpt lat="44.33227" lon="0.78782">
        <ele>140</ele>
        <time>2025-10-12T12:33:24.518Z</time>
      </trkpt>
      <trkpt lat="44.33226" lon="0.78784">
        <ele>140</ele>
        <time>2025-10-12T12:33:25.518Z</time>
      </trkpt>
      <trkpt lat="44.33226" lon="0.78784">
        <ele>140</ele>
        <time>2025-10-12T12:33:26.518Z</time>
      </trkpt>
      <trkpt lat="44.33226" lon="0.78787">
        <ele>140</ele>
        <time>2025-10-12T12:33:27.518Z</time>
      </trkpt>
      <trkpt lat="44.33226" lon="0.78788">
        <ele>140</ele>
        <time>2025-10-12T12:33:28.518Z</time>
      </trkpt>
      <trkpt lat="44.33226" lon="0.78788">
        <ele>140</ele>
        <time>2025-10-12T12:33:29.518Z</time>
      </trkpt>
      <trkpt lat="44.33226" lon="0.78791">
        <ele>139</ele>
        <time>2025-10-12T12:33:30.518Z</time>
      </trkpt>
      <trkpt lat="44.33226" lon="0.78793">
        <ele>139</ele>
        <time>2025-10-12T12:33:31.518Z</time>
      </trkpt>
      <trkpt lat="44.33226" lon="0.78793">
        <ele>139</ele>
        <time>2025-10-12T12:33:32.518Z</time>
      </trkpt>
      <trkpt lat="44.33226" lon="0.78795">
        <ele>138</ele>
        <time>2025-10-12T12:33:33.518Z</time>
      </trkpt>
      <trkpt lat="44.33226" lon="0.78796">
        <ele>138</ele>
        <time>2025-10-12T12:33:34.518Z</time>
      </trkpt>
      <trkpt lat="44.33226" lon="0.78796">
        <ele>138</ele>
        <time>2025-10-12T12:33:35.518Z</time>
      </trkpt>
      <trkpt lat="44.33225" lon="0.78798">
        <ele>139</ele>
        <time>2025-10-12T12:33:36.518Z</time>
      </trkpt>
      <trkpt lat="44.33225" lon="0.78798">
        <ele>138</ele>
        <time>2025-10-12T12:33:37.518Z</time>
      </trkpt>
      <trkpt lat="44.33225" lon="0.78798">
        <ele>138</ele>
        <time>2025-10-12T12:33:38.518Z</time>
      </trkpt>
      <trkpt lat="44.33225" lon="0.78798">
        <ele>138</ele>
        <time>2025-10-12T12:33:39.518Z</time>
      </trkpt>
      <trkpt lat="44.33225" lon="0.78798">
        <ele>138</ele>
        <time>2025-10-12T12:33:40.518Z</time>
      </trkpt>
      <trkpt lat="44.33225" lon="0.78798">
        <ele>138</ele>
        <time>2025-10-12T12:33:41.518Z</time>
      </trkpt>
      <trkpt lat="44.33225" lon="0.78798">
        <ele>138</ele>
        <time>2025-10-12T12:33:42.518Z</time>
      </trkpt>
      <trkpt lat="44.33225" lon="0.78798">
        <ele>138</ele>
        <time>2025-10-12T12:33:43.518Z</time>
      </trkpt>
      <trkpt lat="44.33225" lon="0.78798">
        <ele>138</ele>
        <time>2025-10-12T12:33:44.518Z</time>
      </trkpt>
      <trkpt lat="44.33225" lon="0.78798">
        <ele>139</ele>
        <time>2025-10-12T12:33:45.518Z</time>
      </trkpt>
      <trkpt lat="44.33226" lon="0.78798">
        <ele>139</ele>
        <time>2025-10-12T12:33:46.518Z</time>
      </trkpt>
      <trkpt lat="44.33226" lon="0.78798">
        <ele>139</ele>
        <time>2025-10-12T12:33:47.518Z</time>
      </trkpt>
      <trkpt lat="44.33225" lon="0.78798">
        <ele>139</ele>
        <time>2025-10-12T12:33:48.518Z</time>
      </trkpt>
      <trkpt lat="44.33225" lon="0.78798">
        <ele>139</ele>
        <time>2025-10-12T12:33:49.518Z</time>
      </trkpt>
      <trkpt lat="44.33225" lon="0.78798">
        <ele>139</ele>
        <time>2025-10-12T12:33:50.518Z</time>
      </trkpt>
      <trkpt lat="44.33225" lon="0.78798">
        <ele>138</ele>
        <time>2025-10-12T12:33:51.518Z</time>
      </trkpt>
      <trkpt lat="44.33225" lon="0.78798">
        <ele>139</ele>
        <time>2025-10-12T12:33:52.518Z</time>
      </trkpt>
      <trkpt lat="44.33225" lon="0.78798">
        <ele>139</ele>
        <time>2025-10-12T12:33:53.518Z</time>
      </trkpt>
      <trkpt lat="44.33225" lon="0.78801">
        <ele>138</ele>
        <time>2025-10-12T12:33:54.518Z</time>
      </trkpt>
      <trkpt lat="44.33224" lon="0.78802">
        <ele>138</ele>
        <time>2025-10-12T12:33:55.518Z</time>
      </trkpt>
      <trkpt lat="44.33224" lon="0.78802">
        <ele>138</ele>
        <time>2025-10-12T12:33:56.518Z</time>
      </trkpt>
      <trkpt lat="44.33224" lon="0.78805">
        <ele>138</ele>
        <time>2025-10-12T12:33:57.518Z</time>
      </trkpt>
      <trkpt lat="44.33224" lon="0.78807">
        <ele>138</ele>
        <time>2025-10-12T12:33:58.518Z</time>
      </trkpt>
      <trkpt lat="44.33224" lon="0.78807">
        <ele>138</ele>
        <time>2025-10-12T12:33:59.518Z</time>
      </trkpt>
      <trkpt lat="44.33223" lon="0.78809">
        <ele>139</ele>
        <time>2025-10-12T12:34:00.518Z</time>
      </trkpt>
      <trkpt lat="44.33223" lon="0.7881">
        <ele>139</ele>
        <time>2025-10-12T12:34:01.518Z</time>
      </trkpt>
      <trkpt lat="44.33223" lon="0.7881">
        <ele>139</ele>
        <time>2025-10-12T12:34:02.518Z</time>
      </trkpt>
      <trkpt lat="44.33222" lon="0.78812">
        <ele>140</ele>
        <time>2025-10-12T12:34:03.518Z</time>
      </trkpt>
      <trkpt lat="44.33222" lon="0.78813">
        <ele>140</ele>
        <time>2025-10-12T12:34:04.518Z</time>
      </trkpt>
      <trkpt lat="44.33222" lon="0.78813">
        <ele>140</ele>
        <time>2025-10-12T12:34:05.518Z</time>
      </trkpt>
      <trkpt lat="44.33222" lon="0.78815">
        <ele>140</ele>
        <time>2025-10-12T12:34:06.518Z</time>
      </trkpt>
      <trkpt lat="44.33221" lon="0.78816">
        <ele>141</ele>
        <time>2025-10-12T12:34:07.518Z</time>
      </trkpt>
      <trkpt lat="44.33221" lon="0.78816">
        <ele>141</ele>
        <time>2025-10-12T12:34:08.518Z</time>
      </trkpt>
      <trkpt lat="44.33221" lon="0.78818">
        <ele>141</ele>
        <time>2025-10-12T12:34:09.518Z</time>
      </trkpt>
      <trkpt lat="44.3322" lon="0.78819">
        <ele>141</ele>
        <time>2025-10-12T12:34:10.518Z</time>
      </trkpt>
      <trkpt lat="44.3322" lon="0.78819">
        <ele>141</ele>
        <time>2025-10-12T12:34:11.518Z</time>
      </trkpt>
      <trkpt lat="44.3322" lon="0.78821">
        <ele>141</ele>
        <time>2025-10-12T12:34:12.518Z</time>
      </trkpt>
      <trkpt lat="44.33221" lon="0.78823">
        <ele>142</ele>
        <time>2025-10-12T12:34:13.518Z</time>
      </trkpt>
      <trkpt lat="44.33221" lon="0.78823">
        <ele>142</ele>
        <time>2025-10-12T12:34:14.518Z</time>
      </trkpt>
      <trkpt lat="44.33221" lon="0.78826">
        <ele>142</ele>
        <time>2025-10-12T12:34:15.518Z</time>
      </trkpt>
      <trkpt lat="44.33221" lon="0.78828">
        <ele>142</ele>
        <time>2025-10-12T12:34:16.518Z</time>
      </trkpt>
      <trkpt lat="44.33221" lon="0.78828">
        <ele>142</ele>
        <time>2025-10-12T12:34:17.518Z</time>
      </trkpt>
      <trkpt lat="44.33221" lon="0.78831">
        <ele>143</ele>
        <time>2025-10-12T12:34:18.518Z</time>
      </trkpt>
      <trkpt lat="44.3322" lon="0.78832">
        <ele>143</ele>
        <time>2025-10-12T12:34:19.518Z</time>
      </trkpt>
      <trkpt lat="44.3322" lon="0.78832">
        <ele>143</ele>
        <time>2025-10-12T12:34:20.518Z</time>
      </trkpt>
      <trkpt lat="44.3322" lon="0.78834">
        <ele>143</ele>
        <time>2025-10-12T12:34:21.518Z</time>
      </trkpt>
      <trkpt lat="44.3322" lon="0.78835">
        <ele>142</ele>
        <time>2025-10-12T12:34:22.518Z</time>
      </trkpt>
      <trkpt lat="44.3322" lon="0.78836">
        <ele>142</ele>
        <time>2025-10-12T12:34:23.518Z</time>
      </trkpt>
      <trkpt lat="44.33221" lon="0.78838">
        <ele>142</ele>
        <time>2025-10-12T12:34:24.519Z</time>
      </trkpt>
      <trkpt lat="44.33222" lon="0.78841">
        <ele>143</ele>
        <time>2025-10-12T12:34:25.518Z</time>
      </trkpt>
      <trkpt lat="44.33222" lon="0.78843">
        <ele>143</ele>
        <time>2025-10-12T12:34:26.518Z</time>
      </trkpt>
      <trkpt lat="44.33223" lon="0.78844">
        <ele>143</ele>
        <time>2025-10-12T12:34:27.518Z</time>
      </trkpt>
      <trkpt lat="44.33224" lon="0.78845">
        <ele>143</ele>
        <time>2025-10-12T12:34:28.518Z</time>
      </trkpt>
      <trkpt lat="44.33224" lon="0.78845">
        <ele>143</ele>
        <time>2025-10-12T12:34:29.518Z</time>
      </trkpt>
      <trkpt lat="44.33223" lon="0.78846">
        <ele>143</ele>
        <time>2025-10-12T12:34:30.518Z</time>
      </trkpt>
      <trkpt lat="44.33224" lon="0.78847">
        <ele>143</ele>
        <time>2025-10-12T12:34:31.518Z</time>
      </trkpt>
      <trkpt lat="44.33224" lon="0.78847">
        <ele>143</ele>
        <time>2025-10-12T12:34:32.518Z</time>
      </trkpt>
      <trkpt lat="44.33225" lon="0.78846">
        <ele>143</ele>
        <time>2025-10-12T12:34:33.518Z</time>
      </trkpt>
      <trkpt lat="44.33226" lon="0.78846">
        <ele>143</ele>
        <time>2025-10-12T12:34:34.518Z</time>
      </trkpt>
      <trkpt lat="44.33226" lon="0.78846">
        <ele>143</ele>
        <time>2025-10-12T12:34:35.518Z</time>
      </trkpt>
      <trkpt lat="44.33228" lon="0.78845">
        <ele>143</ele>
        <time>2025-10-12T12:34:36.518Z</time>
      </trkpt>
      <trkpt lat="44.33228" lon="0.78844">
        <ele>143</ele>
        <time>2025-10-12T12:34:37.518Z</time>
      </trkpt>
      <trkpt lat="44.33228" lon="0.78844">
        <ele>143</ele>
        <time>2025-10-12T12:34:38.518Z</time>
      </trkpt>
      <trkpt lat="44.33229" lon="0.78843">
        <ele>143</ele>
        <time>2025-10-12T12:34:39.518Z</time>
      </trkpt>
      <trkpt lat="44.3323" lon="0.78842">
        <ele>143</ele>
        <time>2025-10-12T12:34:40.518Z</time>
      </trkpt>
      <trkpt lat="44.3323" lon="0.78842">
        <ele>143</ele>
        <time>2025-10-12T12:34:41.518Z</time>
      </trkpt>
      <trkpt lat="44.33231" lon="0.7884">
        <ele>142</ele>
        <time>2025-10-12T12:34:42.518Z</time>
      </trkpt>
      <trkpt lat="44.33231" lon="0.78839">
        <ele>142</ele>
        <time>2025-10-12T12:34:43.518Z</time>
      </trkpt>
      <trkpt lat="44.33231" lon="0.78839">
        <ele>142</ele>
        <time>2025-10-12T12:34:44.518Z</time>
      </trkpt>
      <trkpt lat="44.33233" lon="0.78839">
        <ele>141</ele>
        <time>2025-10-12T12:34:45.518Z</time>
      </trkpt>
      <trkpt lat="44.33234" lon="0.78839">
        <ele>141</ele>
        <time>2025-10-12T12:34:46.518Z</time>
      </trkpt>
      <trkpt lat="44.33234" lon="0.78839">
        <ele>141</ele>
        <time>2025-10-12T12:34:47.518Z</time>
      </trkpt>
      <trkpt lat="44.33236" lon="0.78839">
        <ele>141</ele>
        <time>2025-10-12T12:34:48.518Z</time>
      </trkpt>
      <trkpt lat="44.33237" lon="0.78838">
        <ele>141</ele>
        <time>2025-10-12T12:34:49.518Z</time>
      </trkpt>
      <trkpt lat="44.33237" lon="0.78838">
        <ele>141</ele>
        <time>2025-10-12T12:34:50.518Z</time>
      </trkpt>
      <trkpt lat="44.33239" lon="0.78839">
        <ele>142</ele>
        <time>2025-10-12T12:34:51.518Z</time>
      </trkpt>
      <trkpt lat="44.3324" lon="0.78839">
        <ele>142</ele>
        <time>2025-10-12T12:34:52.518Z</time>
      </trkpt>
      <trkpt lat="44.3324" lon="0.78839">
        <ele>142</ele>
        <time>2025-10-12T12:34:53.518Z</time>
      </trkpt>
      <trkpt lat="44.33243" lon="0.78842">
        <ele>142</ele>
        <time>2025-10-12T12:34:54.518Z</time>
      </trkpt>
      <trkpt lat="44.33244" lon="0.78843">
        <ele>142</ele>
        <time>2025-10-12T12:34:55.518Z</time>
      </trkpt>
      <trkpt lat="44.33244" lon="0.78843">
        <ele>142</ele>
        <time>2025-10-12T12:34:56.518Z</time>
      </trkpt>
      <trkpt lat="44.33244" lon="0.78843">
        <ele>142</ele>
        <time>2025-10-12T12:34:57.518Z</time>
      </trkpt>
      <trkpt lat="44.33244" lon="0.78843">
        <ele>142</ele>
        <time>2025-10-12T12:34:58.518Z</time>
      </trkpt>
      <trkpt lat="44.33246" lon="0.78845">
        <ele>142</ele>
        <time>2025-10-12T12:34:59.518Z</time>
      </trkpt>
      <trkpt lat="44.33246" lon="0.78846">
        <ele>142</ele>
        <time>2025-10-12T12:35:00.518Z</time>
      </trkpt>
      <trkpt lat="44.33248" lon="0.78848">
        <ele>142</ele>
        <time>2025-10-12T12:35:01.518Z</time>
      </trkpt>
      <trkpt lat="44.33248" lon="0.78849">
        <ele>141</ele>
        <time>2025-10-12T12:35:02.518Z</time>
      </trkpt>
      <trkpt lat="44.33248" lon="0.7885">
        <ele>141</ele>
        <time>2025-10-12T12:35:03.518Z</time>
      </trkpt>
      <trkpt lat="44.33248" lon="0.7885">
        <ele>141</ele>
        <time>2025-10-12T12:35:04.518Z</time>
      </trkpt>
      <trkpt lat="44.33248" lon="0.7885">
        <ele>141</ele>
        <time>2025-10-12T12:35:05.518Z</time>
      </trkpt>
      <trkpt lat="44.33249" lon="0.78853">
        <ele>140</ele>
        <time>2025-10-12T12:35:06.518Z</time>
      </trkpt>
      <trkpt lat="44.3325" lon="0.78854">
        <ele>140</ele>
        <time>2025-10-12T12:35:07.518Z</time>
      </trkpt>
      <trkpt lat="44.3325" lon="0.78854">
        <ele>140</ele>
        <time>2025-10-12T12:35:08.518Z</time>
      </trkpt>
      <trkpt lat="44.33252" lon="0.78856">
        <ele>139</ele>
        <time>2025-10-12T12:35:09.518Z</time>
      </trkpt>
      <trkpt lat="44.33252" lon="0.78857">
        <ele>139</ele>
        <time>2025-10-12T12:35:10.518Z</time>
      </trkpt>
      <trkpt lat="44.33252" lon="0.78857">
        <ele>139</ele>
        <time>2025-10-12T12:35:11.518Z</time>
      </trkpt>
      <trkpt lat="44.33252" lon="0.78858">
        <ele>138</ele>
        <time>2025-10-12T12:35:12.518Z</time>
      </trkpt>
      <trkpt lat="44.33253" lon="0.78859">
        <ele>138</ele>
        <time>2025-10-12T12:35:13.518Z</time>
      </trkpt>
      <trkpt lat="44.33253" lon="0.78859">
        <ele>138</ele>
        <time>2025-10-12T12:35:14.518Z</time>
      </trkpt>
      <trkpt lat="44.33253" lon="0.78859">
        <ele>137</ele>
        <time>2025-10-12T12:35:15.518Z</time>
      </trkpt>
      <trkpt lat="44.33254" lon="0.7886">
        <ele>137</ele>
        <time>2025-10-12T12:35:16.518Z</time>
      </trkpt>
      <trkpt lat="44.33254" lon="0.7886">
        <ele>137</ele>
        <time>2025-10-12T12:35:17.518Z</time>
      </trkpt>
      <trkpt lat="44.33255" lon="0.7886">
        <ele>137</ele>
        <time>2025-10-12T12:35:18.518Z</time>
      </trkpt>
      <trkpt lat="44.33256" lon="0.78862">
        <ele>136</ele>
        <time>2025-10-12T12:35:19.518Z</time>
      </trkpt>
      <trkpt lat="44.33256" lon="0.78862">
        <ele>136</ele>
        <time>2025-10-12T12:35:20.518Z</time>
      </trkpt>
      <trkpt lat="44.33257" lon="0.78864">
        <ele>136</ele>
        <time>2025-10-12T12:35:21.518Z</time>
      </trkpt>
      <trkpt lat="44.33258" lon="0.78865">
        <ele>136</ele>
        <time>2025-10-12T12:35:22.518Z</time>
      </trkpt>
      <trkpt lat="44.33258" lon="0.78865">
        <ele>136</ele>
        <time>2025-10-12T12:35:23.518Z</time>
      </trkpt>
      <trkpt lat="44.33259" lon="0.78866">
        <ele>136</ele>
        <time>2025-10-12T12:35:24.518Z</time>
      </trkpt>
      <trkpt lat="44.3326" lon="0.78867">
        <ele>136</ele>
        <time>2025-10-12T12:35:25.518Z</time>
      </trkpt>
      <trkpt lat="44.3326" lon="0.78867">
        <ele>136</ele>
        <time>2025-10-12T12:35:26.518Z</time>
      </trkpt>
      <trkpt lat="44.33261" lon="0.78867">
        <ele>136</ele>
        <time>2025-10-12T12:35:27.518Z</time>
      </trkpt>
      <trkpt lat="44.33261" lon="0.78867">
        <ele>136</ele>
        <time>2025-10-12T12:35:28.518Z</time>
      </trkpt>
      <trkpt lat="44.33261" lon="0.78868">
        <ele>135</ele>
        <time>2025-10-12T12:35:29.518Z</time>
      </trkpt>
      <trkpt lat="44.33263" lon="0.7887">
        <ele>134</ele>
        <time>2025-10-12T12:35:30.518Z</time>
      </trkpt>
      <trkpt lat="44.33264" lon="0.78871">
        <ele>133</ele>
        <time>2025-10-12T12:35:31.518Z</time>
      </trkpt>
      <trkpt lat="44.33264" lon="0.78871">
        <ele>133</ele>
        <time>2025-10-12T12:35:32.518Z</time>
      </trkpt>
      <trkpt lat="44.33266" lon="0.78873">
        <ele>133</ele>
        <time>2025-10-12T12:35:33.518Z</time>
      </trkpt>
      <trkpt lat="44.33266" lon="0.78873">
        <ele>133</ele>
        <time>2025-10-12T12:35:34.518Z</time>
      </trkpt>
      <trkpt lat="44.33267" lon="0.78874">
        <ele>133</ele>
        <time>2025-10-12T12:35:35.518Z</time>
      </trkpt>
      <trkpt lat="44.33268" lon="0.78874">
        <ele>132</ele>
        <time>2025-10-12T12:35:36.518Z</time>
      </trkpt>
      <trkpt lat="44.33268" lon="0.78874">
        <ele>132</ele>
        <time>2025-10-12T12:35:37.518Z</time>
      </trkpt>
      <trkpt lat="44.3327" lon="0.78874">
        <ele>132</ele>
        <time>2025-10-12T12:35:38.518Z</time>
      </trkpt>
      <trkpt lat="44.33271" lon="0.78873">
        <ele>132</ele>
        <time>2025-10-12T12:35:39.518Z</time>
      </trkpt>
      <trkpt lat="44.33272" lon="0.78873">
        <ele>132</ele>
        <time>2025-10-12T12:35:40.518Z</time>
      </trkpt>
      <trkpt lat="44.33272" lon="0.78873">
        <ele>132</ele>
        <time>2025-10-12T12:35:41.518Z</time>
      </trkpt>
      <trkpt lat="44.33273" lon="0.78871">
        <ele>132</ele>
        <time>2025-10-12T12:35:42.518Z</time>
      </trkpt>
      <trkpt lat="44.33274" lon="0.7887">
        <ele>132</ele>
        <time>2025-10-12T12:35:43.518Z</time>
      </trkpt>
      <trkpt lat="44.33274" lon="0.7887">
        <ele>132</ele>
        <time>2025-10-12T12:35:44.518Z</time>
      </trkpt>
      <trkpt lat="44.33275" lon="0.78867">
        <ele>132</ele>
        <time>2025-10-12T12:35:45.518Z</time>
      </trkpt>
      <trkpt lat="44.33275" lon="0.78867">
        <ele>132</ele>
        <time>2025-10-12T12:35:46.518Z</time>
      </trkpt>
      <trkpt lat="44.33275" lon="0.78867">
        <ele>132</ele>
        <time>2025-10-12T12:35:47.518Z</time>
      </trkpt>
      <trkpt lat="44.33276" lon="0.78865">
        <ele>132</ele>
        <time>2025-10-12T12:35:48.518Z</time>
      </trkpt>
      <trkpt lat="44.33276" lon="0.78864">
        <ele>132</ele>
        <time>2025-10-12T12:35:49.518Z</time>
      </trkpt>
      <trkpt lat="44.33276" lon="0.78864">
        <ele>132</ele>
        <time>2025-10-12T12:35:50.518Z</time>
      </trkpt>
      <trkpt lat="44.33278" lon="0.78861">
        <ele>132</ele>
        <time>2025-10-12T12:35:51.518Z</time>
      </trkpt>
      <trkpt lat="44.33278" lon="0.78859">
        <ele>132</ele>
        <time>2025-10-12T12:35:52.518Z</time>
      </trkpt>
      <trkpt lat="44.33278" lon="0.78859">
        <ele>132</ele>
        <time>2025-10-12T12:35:53.518Z</time>
      </trkpt>
      <trkpt lat="44.3328" lon="0.78857">
        <ele>132</ele>
        <time>2025-10-12T12:35:54.518Z</time>
      </trkpt>
      <trkpt lat="44.3328" lon="0.78857">
        <ele>132</ele>
        <time>2025-10-12T12:35:55.518Z</time>
      </trkpt>
      <trkpt lat="44.3328" lon="0.78855">
        <ele>132</ele>
        <time>2025-10-12T12:35:56.518Z</time>
      </trkpt>
      <trkpt lat="44.33282" lon="0.78853">
        <ele>132</ele>
        <time>2025-10-12T12:35:57.518Z</time>
      </trkpt>
      <trkpt lat="44.33282" lon="0.78851">
        <ele>132</ele>
        <time>2025-10-12T12:35:58.518Z</time>
      </trkpt>
      <trkpt lat="44.33282" lon="0.78851">
        <ele>132</ele>
        <time>2025-10-12T12:35:59.518Z</time>
      </trkpt>
      <trkpt lat="44.33283" lon="0.78848">
        <ele>133</ele>
        <time>2025-10-12T12:36:00.518Z</time>
      </trkpt>
      <trkpt lat="44.33283" lon="0.78847">
        <ele>133</ele>
        <time>2025-10-12T12:36:01.518Z</time>
      </trkpt>
      <trkpt lat="44.33283" lon="0.78847">
        <ele>133</ele>
        <time>2025-10-12T12:36:02.518Z</time>
      </trkpt>
      <trkpt lat="44.33284" lon="0.78843">
        <ele>133</ele>
        <time>2025-10-12T12:36:03.518Z</time>
      </trkpt>
      <trkpt lat="44.33284" lon="0.78842">
        <ele>133</ele>
        <time>2025-10-12T12:36:04.518Z</time>
      </trkpt>
      <trkpt lat="44.33284" lon="0.78842">
        <ele>133</ele>
        <time>2025-10-12T12:36:05.518Z</time>
      </trkpt>
      <trkpt lat="44.33285" lon="0.78841">
        <ele>133</ele>
        <time>2025-10-12T12:36:06.518Z</time>
      </trkpt>
      <trkpt lat="44.33285" lon="0.78839">
        <ele>133</ele>
        <time>2025-10-12T12:36:07.518Z</time>
      </trkpt>
      <trkpt lat="44.33286" lon="0.78838">
        <ele>133</ele>
        <time>2025-10-12T12:36:08.518Z</time>
      </trkpt>
      <trkpt lat="44.33287" lon="0.78835">
        <ele>133</ele>
        <time>2025-10-12T12:36:09.518Z</time>
      </trkpt>
      <trkpt lat="44.33287" lon="0.78834">
        <ele>133</ele>
        <time>2025-10-12T12:36:10.518Z</time>
      </trkpt>
      <trkpt lat="44.33287" lon="0.78834">
        <ele>133</ele>
        <time>2025-10-12T12:36:11.518Z</time>
      </trkpt>
      <trkpt lat="44.33288" lon="0.78833">
        <ele>133</ele>
        <time>2025-10-12T12:36:12.518Z</time>
      </trkpt>
      <trkpt lat="44.33289" lon="0.78832">
        <ele>133</ele>
        <time>2025-10-12T12:36:13.518Z</time>
      </trkpt>
      <trkpt lat="44.33291" lon="0.78831">
        <ele>133</ele>
        <time>2025-10-12T12:36:14.518Z</time>
      </trkpt>
      <trkpt lat="44.33292" lon="0.7883">
        <ele>133</ele>
        <time>2025-10-12T12:36:15.518Z</time>
      </trkpt>
      <trkpt lat="44.33293" lon="0.78829">
        <ele>133</ele>
        <time>2025-10-12T12:36:16.518Z</time>
      </trkpt>
      <trkpt lat="44.33294" lon="0.78828">
        <ele>133</ele>
        <time>2025-10-12T12:36:17.518Z</time>
      </trkpt>
      <trkpt lat="44.33295" lon="0.78827">
        <ele>133</ele>
        <time>2025-10-12T12:36:18.518Z</time>
      </trkpt>
      <trkpt lat="44.33296" lon="0.78825">
        <ele>132</ele>
        <time>2025-10-12T12:36:19.518Z</time>
      </trkpt>
      <trkpt lat="44.33296" lon="0.78825">
        <ele>132</ele>
        <time>2025-10-12T12:36:20.518Z</time>
      </trkpt>
      <trkpt lat="44.33298" lon="0.78822">
        <ele>132</ele>
        <time>2025-10-12T12:36:21.518Z</time>
      </trkpt>
      <trkpt lat="44.33298" lon="0.78821">
        <ele>132</ele>
        <time>2025-10-12T12:36:22.518Z</time>
      </trkpt>
      <trkpt lat="44.33298" lon="0.78821">
        <ele>132</ele>
        <time>2025-10-12T12:36:23.518Z</time>
      </trkpt>
      <trkpt lat="44.333" lon="0.78819">
        <ele>132</ele>
        <time>2025-10-12T12:36:24.518Z</time>
      </trkpt>
      <trkpt lat="44.33301" lon="0.78817">
        <ele>131</ele>
        <time>2025-10-12T12:36:25.518Z</time>
      </trkpt>
      <trkpt lat="44.33301" lon="0.78817">
        <ele>131</ele>
        <time>2025-10-12T12:36:26.518Z</time>
      </trkpt>
      <trkpt lat="44.33303" lon="0.78815">
        <ele>131</ele>
        <time>2025-10-12T12:36:27.518Z</time>
      </trkpt>
      <trkpt lat="44.33304" lon="0.78814">
        <ele>131</ele>
        <time>2025-10-12T12:36:28.518Z</time>
      </trkpt>
      <trkpt lat="44.33304" lon="0.78814">
        <ele>131</ele>
        <time>2025-10-12T12:36:29.518Z</time>
      </trkpt>
      <trkpt lat="44.33304" lon="0.78813">
        <ele>131</ele>
        <time>2025-10-12T12:36:30.518Z</time>
      </trkpt>
      <trkpt lat="44.33305" lon="0.78812">
        <ele>131</ele>
        <time>2025-10-12T12:36:31.518Z</time>
      </trkpt>
      <trkpt lat="44.33306" lon="0.78812">
        <ele>131</ele>
        <time>2025-10-12T12:36:32.518Z</time>
      </trkpt>
      <trkpt lat="44.33308" lon="0.7881">
        <ele>132</ele>
        <time>2025-10-12T12:36:33.518Z</time>
      </trkpt>
      <trkpt lat="44.33309" lon="0.7881">
        <ele>132</ele>
        <time>2025-10-12T12:36:34.518Z</time>
      </trkpt>
      <trkpt lat="44.33309" lon="0.7881">
        <ele>132</ele>
        <time>2025-10-12T12:36:35.518Z</time>
      </trkpt>
      <trkpt lat="44.3331" lon="0.78809">
        <ele>132</ele>
        <time>2025-10-12T12:36:36.518Z</time>
      </trkpt>
      <trkpt lat="44.33312" lon="0.78809">
        <ele>132</ele>
        <time>2025-10-12T12:36:37.518Z</time>
      </trkpt>
      <trkpt lat="44.33312" lon="0.78809">
        <ele>132</ele>
        <time>2025-10-12T12:36:38.518Z</time>
      </trkpt>
      <trkpt lat="44.33314" lon="0.78808">
        <ele>131</ele>
        <time>2025-10-12T12:36:39.518Z</time>
      </trkpt>
      <trkpt lat="44.33314" lon="0.78807">
        <ele>131</ele>
        <time>2025-10-12T12:36:40.518Z</time>
      </trkpt>
      <trkpt lat="44.33314" lon="0.78807">
        <ele>131</ele>
        <time>2025-10-12T12:36:41.518Z</time>
      </trkpt>
      <trkpt lat="44.33316" lon="0.78805">
        <ele>130</ele>
        <time>2025-10-12T12:36:42.518Z</time>
      </trkpt>
      <trkpt lat="44.33317" lon="0.78804">
        <ele>130</ele>
        <time>2025-10-12T12:36:43.518Z</time>
      </trkpt>
      <trkpt lat="44.33317" lon="0.78804">
        <ele>130</ele>
        <time>2025-10-12T12:36:44.518Z</time>
      </trkpt>
      <trkpt lat="44.33318" lon="0.78803">
        <ele>129</ele>
        <time>2025-10-12T12:36:45.518Z</time>
      </trkpt>
      <trkpt lat="44.33319" lon="0.78802">
        <ele>128</ele>
        <time>2025-10-12T12:36:46.518Z</time>
      </trkpt>
      <trkpt lat="44.33319" lon="0.78802">
        <ele>128</ele>
        <time>2025-10-12T12:36:47.518Z</time>
      </trkpt>
      <trkpt lat="44.3332" lon="0.78799">
        <ele>128</ele>
        <time>2025-10-12T12:36:48.518Z</time>
      </trkpt>
      <trkpt lat="44.3332" lon="0.78799">
        <ele>128</ele>
        <time>2025-10-12T12:36:49.518Z</time>
      </trkpt>
      <trkpt lat="44.33321" lon="0.78798">
        <ele>128</ele>
        <time>2025-10-12T12:36:50.518Z</time>
      </trkpt>
      <trkpt lat="44.33322" lon="0.78797">
        <ele>129</ele>
        <time>2025-10-12T12:36:51.518Z</time>
      </trkpt>
      <trkpt lat="44.33323" lon="0.78796">
        <ele>130</ele>
        <time>2025-10-12T12:36:52.518Z</time>
      </trkpt>
      <trkpt lat="44.33324" lon="0.78796">
        <ele>130</ele>
        <time>2025-10-12T12:36:53.518Z</time>
      </trkpt>
      <trkpt lat="44.33325" lon="0.78795">
        <ele>131</ele>
        <time>2025-10-12T12:36:54.518Z</time>
      </trkpt>
      <trkpt lat="44.33326" lon="0.78795">
        <ele>132</ele>
        <time>2025-10-12T12:36:55.518Z</time>
      </trkpt>
      <trkpt lat="44.33327" lon="0.78795">
        <ele>132</ele>
        <time>2025-10-12T12:36:56.518Z</time>
      </trkpt>
      <trkpt lat="44.33328" lon="0.78795">
        <ele>132</ele>
        <time>2025-10-12T12:36:57.518Z</time>
      </trkpt>
      <trkpt lat="44.3333" lon="0.78797">
        <ele>133</ele>
        <time>2025-10-12T12:36:58.518Z</time>
      </trkpt>
      <trkpt lat="44.3333" lon="0.78797">
        <ele>133</ele>
        <time>2025-10-12T12:36:59.518Z</time>
      </trkpt>
      <trkpt lat="44.33332" lon="0.78799">
        <ele>133</ele>
        <time>2025-10-12T12:37:00.518Z</time>
      </trkpt>
      <trkpt lat="44.33332" lon="0.78799">
        <ele>133</ele>
        <time>2025-10-12T12:37:01.518Z</time>
      </trkpt>
      <trkpt lat="44.33333" lon="0.788">
        <ele>133</ele>
        <time>2025-10-12T12:37:02.518Z</time>
      </trkpt>
      <trkpt lat="44.33334" lon="0.78802">
        <ele>133</ele>
        <time>2025-10-12T12:37:03.518Z</time>
      </trkpt>
      <trkpt lat="44.33334" lon="0.78802">
        <ele>133</ele>
        <time>2025-10-12T12:37:04.518Z</time>
      </trkpt>
      <trkpt lat="44.33335" lon="0.78802">
        <ele>133</ele>
        <time>2025-10-12T12:37:05.518Z</time>
      </trkpt>
      <trkpt lat="44.33337" lon="0.78804">
        <ele>133</ele>
        <time>2025-10-12T12:37:06.518Z</time>
      </trkpt>
      <trkpt lat="44.33338" lon="0.78805">
        <ele>132</ele>
        <time>2025-10-12T12:37:07.518Z</time>
      </trkpt>
      <trkpt lat="44.33338" lon="0.78805">
        <ele>132</ele>
        <time>2025-10-12T12:37:08.518Z</time>
      </trkpt>
      <trkpt lat="44.3334" lon="0.78807">
        <ele>132</ele>
        <time>2025-10-12T12:37:09.518Z</time>
      </trkpt>
      <trkpt lat="44.33341" lon="0.78807">
        <ele>131</ele>
        <time>2025-10-12T12:37:10.518Z</time>
      </trkpt>
      <trkpt lat="44.33341" lon="0.78807">
        <ele>131</ele>
        <time>2025-10-12T12:37:11.518Z</time>
      </trkpt>
      <trkpt lat="44.33343" lon="0.7881">
        <ele>131</ele>
        <time>2025-10-12T12:37:12.518Z</time>
      </trkpt>
      <trkpt lat="44.33343" lon="0.7881">
        <ele>130</ele>
        <time>2025-10-12T12:37:13.518Z</time>
      </trkpt>
      <trkpt lat="44.33343" lon="0.7881">
        <ele>130</ele>
        <time>2025-10-12T12:37:14.518Z</time>
      </trkpt>
      <trkpt lat="44.33345" lon="0.78812">
        <ele>130</ele>
        <time>2025-10-12T12:37:15.518Z</time>
      </trkpt>
      <trkpt lat="44.33346" lon="0.78813">
        <ele>129</ele>
        <time>2025-10-12T12:37:16.518Z</time>
      </trkpt>
      <trkpt lat="44.33346" lon="0.78813">
        <ele>129</ele>
        <time>2025-10-12T12:37:17.518Z</time>
      </trkpt>
      <trkpt lat="44.33348" lon="0.78815">
        <ele>128</ele>
        <time>2025-10-12T12:37:18.518Z</time>
      </trkpt>
      <trkpt lat="44.33349" lon="0.78816">
        <ele>128</ele>
        <time>2025-10-12T12:37:19.518Z</time>
      </trkpt>
      <trkpt lat="44.33349" lon="0.78816">
        <ele>128</ele>
        <time>2025-10-12T12:37:20.518Z</time>
      </trkpt>
      <trkpt lat="44.33351" lon="0.78817">
        <ele>128</ele>
        <time>2025-10-12T12:37:21.518Z</time>
      </trkpt>
      <trkpt lat="44.33352" lon="0.78818">
        <ele>128</ele>
        <time>2025-10-12T12:37:22.518Z</time>
      </trkpt>
      <trkpt lat="44.33352" lon="0.78819">
        <ele>129</ele>
        <time>2025-10-12T12:37:23.518Z</time>
      </trkpt>
      <trkpt lat="44.33354" lon="0.7882">
        <ele>130</ele>
        <time>2025-10-12T12:37:24.518Z</time>
      </trkpt>
      <trkpt lat="44.33355" lon="0.78821">
        <ele>130</ele>
        <time>2025-10-12T12:37:25.518Z</time>
      </trkpt>
      <trkpt lat="44.33356" lon="0.78822">
        <ele>130</ele>
        <time>2025-10-12T12:37:26.518Z</time>
      </trkpt>
      <trkpt lat="44.33356" lon="0.78822">
        <ele>130</ele>
        <time>2025-10-12T12:37:27.518Z</time>
      </trkpt>
      <trkpt lat="44.33356" lon="0.78823">
        <ele>130</ele>
        <time>2025-10-12T12:37:28.518Z</time>
      </trkpt>
      <trkpt lat="44.33356" lon="0.78824">
        <ele>130</ele>
        <time>2025-10-12T12:37:29.518Z</time>
      </trkpt>
      <trkpt lat="44.33357" lon="0.78824">
        <ele>130</ele>
        <time>2025-10-12T12:37:30.518Z</time>
      </trkpt>
      <trkpt lat="44.33357" lon="0.78824">
        <ele>130</ele>
        <time>2025-10-12T12:37:31.518Z</time>
      </trkpt>
      <trkpt lat="44.33357" lon="0.78825">
        <ele>131</ele>
        <time>2025-10-12T12:37:32.518Z</time>
      </trkpt>
      <trkpt lat="44.33358" lon="0.78826">
        <ele>131</ele>
        <time>2025-10-12T12:37:33.518Z</time>
      </trkpt>
      <trkpt lat="44.33359" lon="0.78826">
        <ele>131</ele>
        <time>2025-10-12T12:37:34.518Z</time>
      </trkpt>
      <trkpt lat="44.33359" lon="0.78826">
        <ele>131</ele>
        <time>2025-10-12T12:37:35.518Z</time>
      </trkpt>
      <trkpt lat="44.33361" lon="0.78828">
        <ele>131</ele>
        <time>2025-10-12T12:37:36.518Z</time>
      </trkpt>
      <trkpt lat="44.33361" lon="0.7883">
        <ele>131</ele>
        <time>2025-10-12T12:37:37.518Z</time>
      </trkpt>
      <trkpt lat="44.33361" lon="0.7883">
        <ele>131</ele>
        <time>2025-10-12T12:37:38.518Z</time>
      </trkpt>
      <trkpt lat="44.33362" lon="0.78831">
        <ele>131</ele>
        <time>2025-10-12T12:37:39.518Z</time>
      </trkpt>
      <trkpt lat="44.33363" lon="0.78831">
        <ele>131</ele>
        <time>2025-10-12T12:37:40.518Z</time>
      </trkpt>
      <trkpt lat="44.33363" lon="0.78831">
        <ele>131</ele>
        <time>2025-10-12T12:37:41.518Z</time>
      </trkpt>
      <trkpt lat="44.33364" lon="0.78832">
        <ele>132</ele>
        <time>2025-10-12T12:37:42.518Z</time>
      </trkpt>
      <trkpt lat="44.33365" lon="0.78833">
        <ele>132</ele>
        <time>2025-10-12T12:37:43.518Z</time>
      </trkpt>
      <trkpt lat="44.33365" lon="0.78833">
        <ele>132</ele>
        <time>2025-10-12T12:37:44.518Z</time>
      </trkpt>
      <trkpt lat="44.33366" lon="0.78834">
        <ele>132</ele>
        <time>2025-10-12T12:37:45.518Z</time>
      </trkpt>
      <trkpt lat="44.33367" lon="0.78835">
        <ele>133</ele>
        <time>2025-10-12T12:37:46.518Z</time>
      </trkpt>
      <trkpt lat="44.33367" lon="0.78835">
        <ele>133</ele>
        <time>2025-10-12T12:37:47.518Z</time>
      </trkpt>
      <trkpt lat="44.33369" lon="0.78836">
        <ele>133</ele>
        <time>2025-10-12T12:37:48.518Z</time>
      </trkpt>
      <trkpt lat="44.3337" lon="0.78837">
        <ele>133</ele>
        <time>2025-10-12T12:37:49.518Z</time>
      </trkpt>
      <trkpt lat="44.3337" lon="0.78837">
        <ele>133</ele>
        <time>2025-10-12T12:37:50.518Z</time>
      </trkpt>
      <trkpt lat="44.33371" lon="0.78838">
        <ele>133</ele>
        <time>2025-10-12T12:37:51.518Z</time>
      </trkpt>
      <trkpt lat="44.33372" lon="0.78839">
        <ele>134</ele>
        <time>2025-10-12T12:37:52.518Z</time>
      </trkpt>
      <trkpt lat="44.33372" lon="0.78839">
        <ele>134</ele>
        <time>2025-10-12T12:37:53.518Z</time>
      </trkpt>
      <trkpt lat="44.33373" lon="0.78839">
        <ele>134</ele>
        <time>2025-10-12T12:37:54.518Z</time>
      </trkpt>
      <trkpt lat="44.33374" lon="0.7884">
        <ele>134</ele>
        <time>2025-10-12T12:37:55.518Z</time>
      </trkpt>
      <trkpt lat="44.33374" lon="0.7884">
        <ele>134</ele>
        <time>2025-10-12T12:37:56.518Z</time>
      </trkpt>
      <trkpt lat="44.33376" lon="0.78842">
        <ele>134</ele>
        <time>2025-10-12T12:37:57.518Z</time>
      </trkpt>
      <trkpt lat="44.33377" lon="0.78843">
        <ele>134</ele>
        <time>2025-10-12T12:37:58.518Z</time>
      </trkpt>
      <trkpt lat="44.33377" lon="0.78843">
        <ele>134</ele>
        <time>2025-10-12T12:37:59.518Z</time>
      </trkpt>
      <trkpt lat="44.3338" lon="0.78845">
        <ele>134</ele>
        <time>2025-10-12T12:38:00.518Z</time>
      </trkpt>
      <trkpt lat="44.33382" lon="0.78846">
        <ele>134</ele>
        <time>2025-10-12T12:38:01.518Z</time>
      </trkpt>
      <trkpt lat="44.33382" lon="0.78846">
        <ele>134</ele>
        <time>2025-10-12T12:38:02.518Z</time>
      </trkpt>
      <trkpt lat="44.33383" lon="0.78848">
        <ele>134</ele>
        <time>2025-10-12T12:38:03.518Z</time>
      </trkpt>
      <trkpt lat="44.33384" lon="0.78848">
        <ele>134</ele>
        <time>2025-10-12T12:38:04.518Z</time>
      </trkpt>
      <trkpt lat="44.33384" lon="0.78848">
        <ele>134</ele>
        <time>2025-10-12T12:38:05.518Z</time>
      </trkpt>
      <trkpt lat="44.33384" lon="0.78848">
        <ele>134</ele>
        <time>2025-10-12T12:38:06.518Z</time>
      </trkpt>
      <trkpt lat="44.33384" lon="0.78848">
        <ele>134</ele>
        <time>2025-10-12T12:38:07.518Z</time>
      </trkpt>
      <trkpt lat="44.33384" lon="0.78848">
        <ele>133</ele>
        <time>2025-10-12T12:38:08.518Z</time>
      </trkpt>
      <trkpt lat="44.33384" lon="0.78848">
        <ele>133</ele>
        <time>2025-10-12T12:38:09.518Z</time>
      </trkpt>
      <trkpt lat="44.33384" lon="0.78848">
        <ele>133</ele>
        <time>2025-10-12T12:38:10.518Z</time>
      </trkpt>
      <trkpt lat="44.33384" lon="0.78848">
        <ele>133</ele>
        <time>2025-10-12T12:38:11.518Z</time>
      </trkpt>
      <trkpt lat="44.33384" lon="0.78848">
        <ele>133</ele>
        <time>2025-10-12T12:38:12.518Z</time>
      </trkpt>
      <trkpt lat="44.33384" lon="0.78848">
        <ele>133</ele>
        <time>2025-10-12T12:38:13.518Z</time>
      </trkpt>
      <trkpt lat="44.33384" lon="0.78848">
        <ele>133</ele>
        <time>2025-10-12T12:38:14.518Z</time>
      </trkpt>
      <trkpt lat="44.33384" lon="0.78848">
        <ele>132</ele>
        <time>2025-10-12T12:38:15.518Z</time>
      </trkpt>
      <trkpt lat="44.33384" lon="0.78848">
        <ele>132</ele>
        <time>2025-10-12T12:38:16.518Z</time>
      </trkpt>
      <trkpt lat="44.33384" lon="0.78848">
        <ele>132</ele>
        <time>2025-10-12T12:38:17.518Z</time>
      </trkpt>
      <trkpt lat="44.33384" lon="0.78848">
        <ele>131</ele>
        <time>2025-10-12T12:38:18.518Z</time>
      </trkpt>
      <trkpt lat="44.33384" lon="0.78848">
        <ele>131</ele>
        <time>2025-10-12T12:38:19.518Z</time>
      </trkpt>
      <trkpt lat="44.33384" lon="0.78848">
        <ele>131</ele>
        <time>2025-10-12T12:38:20.518Z</time>
      </trkpt>
      <trkpt lat="44.33384" lon="0.78848">
        <ele>131</ele>
        <time>2025-10-12T12:38:21.518Z</time>
      </trkpt>
      <trkpt lat="44.33384" lon="0.78848">
        <ele>130</ele>
        <time>2025-10-12T12:38:22.518Z</time>
      </trkpt>
      <trkpt lat="44.33384" lon="0.78848">
        <ele>130</ele>
        <time>2025-10-12T12:38:23.518Z</time>
      </trkpt>
      <trkpt lat="44.33385" lon="0.78849">
        <ele>130</ele>
        <time>2025-10-12T12:38:24.518Z</time>
      </trkpt>
      <trkpt lat="44.33386" lon="0.78849">
        <ele>129</ele>
        <time>2025-10-12T12:38:25.518Z</time>
      </trkpt>
      <trkpt lat="44.33386" lon="0.78849">
        <ele>129</ele>
        <time>2025-10-12T12:38:26.518Z</time>
      </trkpt>
      <trkpt lat="44.33387" lon="0.78851">
        <ele>129</ele>
        <time>2025-10-12T12:38:27.518Z</time>
      </trkpt>
      <trkpt lat="44.33388" lon="0.78852">
        <ele>128</ele>
        <time>2025-10-12T12:38:28.518Z</time>
      </trkpt>
      <trkpt lat="44.33388" lon="0.78852">
        <ele>128</ele>
        <time>2025-10-12T12:38:29.518Z</time>
      </trkpt>
      <trkpt lat="44.33389" lon="0.78853">
        <ele>128</ele>
        <time>2025-10-12T12:38:30.518Z</time>
      </trkpt>
      <trkpt lat="44.3339" lon="0.78854">
        <ele>128</ele>
        <time>2025-10-12T12:38:31.518Z</time>
      </trkpt>
      <trkpt lat="44.3339" lon="0.78854">
        <ele>128</ele>
        <time>2025-10-12T12:38:32.518Z</time>
      </trkpt>
      <trkpt lat="44.33392" lon="0.78855">
        <ele>127</ele>
        <time>2025-10-12T12:38:33.518Z</time>
      </trkpt>
      <trkpt lat="44.33393" lon="0.78856">
        <ele>127</ele>
        <time>2025-10-12T12:38:34.518Z</time>
      </trkpt>
      <trkpt lat="44.33393" lon="0.78856">
        <ele>127</ele>
        <time>2025-10-12T12:38:35.518Z</time>
      </trkpt>
      <trkpt lat="44.33395" lon="0.78857">
        <ele>127</ele>
        <time>2025-10-12T12:38:36.518Z</time>
      </trkpt>
      <trkpt lat="44.33396" lon="0.78858">
        <ele>127</ele>
        <time>2025-10-12T12:38:37.518Z</time>
      </trkpt>
      <trkpt lat="44.33396" lon="0.78858">
        <ele>127</ele>
        <time>2025-10-12T12:38:38.518Z</time>
      </trkpt>
      <trkpt lat="44.33399" lon="0.7886">
        <ele>127</ele>
        <time>2025-10-12T12:38:39.518Z</time>
      </trkpt>
      <trkpt lat="44.334" lon="0.7886">
        <ele>127</ele>
        <time>2025-10-12T12:38:40.518Z</time>
      </trkpt>
      <trkpt lat="44.334" lon="0.7886">
        <ele>127</ele>
        <time>2025-10-12T12:38:41.518Z</time>
      </trkpt>
      <trkpt lat="44.33402" lon="0.78862">
        <ele>128</ele>
        <time>2025-10-12T12:38:42.518Z</time>
      </trkpt>
      <trkpt lat="44.33402" lon="0.78862">
        <ele>128</ele>
        <time>2025-10-12T12:38:43.518Z</time>
      </trkpt>
      <trkpt lat="44.33403" lon="0.78863">
        <ele>128</ele>
        <time>2025-10-12T12:38:44.518Z</time>
      </trkpt>
      <trkpt lat="44.33404" lon="0.78863">
        <ele>128</ele>
        <time>2025-10-12T12:38:45.518Z</time>
      </trkpt>
      <trkpt lat="44.33405" lon="0.78864">
        <ele>129</ele>
        <time>2025-10-12T12:38:46.518Z</time>
      </trkpt>
      <trkpt lat="44.33406" lon="0.78865">
        <ele>129</ele>
        <time>2025-10-12T12:38:47.518Z</time>
      </trkpt>
      <trkpt lat="44.33409" lon="0.78866">
        <ele>130</ele>
        <time>2025-10-12T12:38:48.518Z</time>
      </trkpt>
      <trkpt lat="44.33409" lon="0.78866">
        <ele>130</ele>
        <time>2025-10-12T12:38:49.518Z</time>
      </trkpt>
      <trkpt lat="44.3341" lon="0.78867">
        <ele>130</ele>
        <time>2025-10-12T12:38:50.518Z</time>
      </trkpt>
      <trkpt lat="44.33412" lon="0.78868">
        <ele>130</ele>
        <time>2025-10-12T12:38:51.518Z</time>
      </trkpt>
      <trkpt lat="44.33414" lon="0.78869">
        <ele>130</ele>
        <time>2025-10-12T12:38:52.518Z</time>
      </trkpt>
      <trkpt lat="44.33414" lon="0.78869">
        <ele>130</ele>
        <time>2025-10-12T12:38:53.518Z</time>
      </trkpt>
      <trkpt lat="44.33416" lon="0.78869">
        <ele>131</ele>
        <time>2025-10-12T12:38:54.518Z</time>
      </trkpt>
      <trkpt lat="44.33417" lon="0.7887">
        <ele>131</ele>
        <time>2025-10-12T12:38:55.518Z</time>
      </trkpt>
      <trkpt lat="44.33417" lon="0.7887">
        <ele>131</ele>
        <time>2025-10-12T12:38:56.518Z</time>
      </trkpt>
      <trkpt lat="44.3342" lon="0.7887">
        <ele>131</ele>
        <time>2025-10-12T12:38:57.518Z</time>
      </trkpt>
      <trkpt lat="44.33421" lon="0.7887">
        <ele>132</ele>
        <time>2025-10-12T12:38:58.518Z</time>
      </trkpt>
      <trkpt lat="44.33421" lon="0.7887">
        <ele>132</ele>
        <time>2025-10-12T12:38:59.518Z</time>
      </trkpt>
      <trkpt lat="44.33424" lon="0.78871">
        <ele>132</ele>
        <time>2025-10-12T12:39:00.518Z</time>
      </trkpt>
      <trkpt lat="44.33424" lon="0.78871">
        <ele>132</ele>
        <time>2025-10-12T12:39:01.518Z</time>
      </trkpt>
      <trkpt lat="44.33425" lon="0.78871">
        <ele>132</ele>
        <time>2025-10-12T12:39:02.518Z</time>
      </trkpt>
      <trkpt lat="44.33427" lon="0.78871">
        <ele>132</ele>
        <time>2025-10-12T12:39:03.518Z</time>
      </trkpt>
      <trkpt lat="44.33427" lon="0.78871">
        <ele>132</ele>
        <time>2025-10-12T12:39:04.518Z</time>
      </trkpt>
      <trkpt lat="44.33427" lon="0.78871">
        <ele>132</ele>
        <time>2025-10-12T12:39:05.518Z</time>
      </trkpt>
      <trkpt lat="44.33428" lon="0.78871">
        <ele>132</ele>
        <time>2025-10-12T12:39:06.518Z</time>
      </trkpt>
      <trkpt lat="44.33429" lon="0.78871">
        <ele>132</ele>
        <time>2025-10-12T12:39:07.518Z</time>
      </trkpt>
      <trkpt lat="44.3343" lon="0.78872">
        <ele>132</ele>
        <time>2025-10-12T12:39:08.518Z</time>
      </trkpt>
      <trkpt lat="44.33433" lon="0.78873">
        <ele>132</ele>
        <time>2025-10-12T12:39:09.518Z</time>
      </trkpt>
      <trkpt lat="44.33433" lon="0.78874">
        <ele>132</ele>
        <time>2025-10-12T12:39:10.518Z</time>
      </trkpt>
      <trkpt lat="44.33433" lon="0.78874">
        <ele>132</ele>
        <time>2025-10-12T12:39:11.518Z</time>
      </trkpt>
      <trkpt lat="44.33435" lon="0.78875">
        <ele>132</ele>
        <time>2025-10-12T12:39:12.518Z</time>
      </trkpt>
      <trkpt lat="44.33436" lon="0.78875">
        <ele>132</ele>
        <time>2025-10-12T12:39:13.518Z</time>
      </trkpt>
      <trkpt lat="44.33436" lon="0.78875">
        <ele>132</ele>
        <time>2025-10-12T12:39:14.518Z</time>
      </trkpt>
      <trkpt lat="44.33438" lon="0.78876">
        <ele>132</ele>
        <time>2025-10-12T12:39:15.518Z</time>
      </trkpt>
      <trkpt lat="44.33438" lon="0.78876">
        <ele>132</ele>
        <time>2025-10-12T12:39:16.518Z</time>
      </trkpt>
      <trkpt lat="44.33439" lon="0.78877">
        <ele>132</ele>
        <time>2025-10-12T12:39:17.518Z</time>
      </trkpt>
      <trkpt lat="44.33441" lon="0.78878">
        <ele>133</ele>
        <time>2025-10-12T12:39:18.518Z</time>
      </trkpt>
      <trkpt lat="44.33441" lon="0.78878">
        <ele>133</ele>
        <time>2025-10-12T12:39:19.518Z</time>
      </trkpt>
      <trkpt lat="44.33442" lon="0.78878">
        <ele>133</ele>
        <time>2025-10-12T12:39:20.518Z</time>
      </trkpt>
      <trkpt lat="44.33443" lon="0.78879">
        <ele>133</ele>
        <time>2025-10-12T12:39:21.518Z</time>
      </trkpt>
      <trkpt lat="44.33444" lon="0.78879">
        <ele>133</ele>
        <time>2025-10-12T12:39:22.518Z</time>
      </trkpt>
      <trkpt lat="44.33445" lon="0.7888">
        <ele>133</ele>
        <time>2025-10-12T12:39:23.518Z</time>
      </trkpt>
      <trkpt lat="44.33446" lon="0.78881">
        <ele>133</ele>
        <time>2025-10-12T12:39:24.518Z</time>
      </trkpt>
      <trkpt lat="44.33447" lon="0.78881">
        <ele>133</ele>
        <time>2025-10-12T12:39:25.518Z</time>
      </trkpt>
      <trkpt lat="44.33448" lon="0.78882">
        <ele>133</ele>
        <time>2025-10-12T12:39:26.518Z</time>
      </trkpt>
      <trkpt lat="44.33449" lon="0.78882">
        <ele>133</ele>
        <time>2025-10-12T12:39:27.518Z</time>
      </trkpt>
      <trkpt lat="44.33451" lon="0.78882">
        <ele>134</ele>
        <time>2025-10-12T12:39:28.518Z</time>
      </trkpt>
      <trkpt lat="44.33451" lon="0.78882">
        <ele>134</ele>
        <time>2025-10-12T12:39:29.518Z</time>
      </trkpt>
      <trkpt lat="44.33452" lon="0.78882">
        <ele>134</ele>
        <time>2025-10-12T12:39:30.518Z</time>
      </trkpt>
      <trkpt lat="44.33453" lon="0.78882">
        <ele>134</ele>
        <time>2025-10-12T12:39:31.518Z</time>
      </trkpt>
      <trkpt lat="44.33454" lon="0.78882">
        <ele>134</ele>
        <time>2025-10-12T12:39:32.518Z</time>
      </trkpt>
      <trkpt lat="44.33455" lon="0.78882">
        <ele>134</ele>
        <time>2025-10-12T12:39:33.518Z</time>
      </trkpt>
      <trkpt lat="44.33456" lon="0.78881">
        <ele>134</ele>
        <time>2025-10-12T12:39:34.518Z</time>
      </trkpt>
      <trkpt lat="44.33456" lon="0.78881">
        <ele>134</ele>
        <time>2025-10-12T12:39:35.518Z</time>
      </trkpt>
      <trkpt lat="44.33457" lon="0.78881">
        <ele>134</ele>
        <time>2025-10-12T12:39:36.518Z</time>
      </trkpt>
      <trkpt lat="44.33457" lon="0.78881">
        <ele>134</ele>
        <time>2025-10-12T12:39:37.518Z</time>
      </trkpt>
      <trkpt lat="44.33458" lon="0.7888">
        <ele>134</ele>
        <time>2025-10-12T12:39:38.518Z</time>
      </trkpt>
      <trkpt lat="44.33458" lon="0.7888">
        <ele>134</ele>
        <time>2025-10-12T12:39:39.518Z</time>
      </trkpt>
      <trkpt lat="44.33458" lon="0.7888">
        <ele>134</ele>
        <time>2025-10-12T12:39:40.518Z</time>
      </trkpt>
      <trkpt lat="44.33458" lon="0.7888">
        <ele>134</ele>
        <time>2025-10-12T12:39:41.518Z</time>
      </trkpt>
      <trkpt lat="44.33458" lon="0.7888">
        <ele>134</ele>
        <time>2025-10-12T12:39:42.518Z</time>
      </trkpt>
      <trkpt lat="44.33458" lon="0.7888">
        <ele>134</ele>
        <time>2025-10-12T12:39:43.518Z</time>
      </trkpt>
      <trkpt lat="44.33458" lon="0.7888">
        <ele>134</ele>
        <time>2025-10-12T12:39:44.518Z</time>
      </trkpt>
      <trkpt lat="44.33458" lon="0.7888">
        <ele>133</ele>
        <time>2025-10-12T12:39:45.518Z</time>
      </trkpt>
      <trkpt lat="44.33458" lon="0.7888">
        <ele>133</ele>
        <time>2025-10-12T12:39:46.518Z</time>
      </trkpt>
      <trkpt lat="44.33458" lon="0.7888">
        <ele>133</ele>
        <time>2025-10-12T12:39:47.518Z</time>
      </trkpt>
      <trkpt lat="44.33458" lon="0.7888">
        <ele>132</ele>
        <time>2025-10-12T12:39:48.518Z</time>
      </trkpt>
      <trkpt lat="44.33458" lon="0.7888">
        <ele>133</ele>
        <time>2025-10-12T12:39:49.518Z</time>
      </trkpt>
      <trkpt lat="44.33458" lon="0.7888">
        <ele>133</ele>
        <time>2025-10-12T12:39:50.518Z</time>
      </trkpt>
      <trkpt lat="44.33458" lon="0.7888">
        <ele>133</ele>
        <time>2025-10-12T12:39:51.518Z</time>
      </trkpt>
      <trkpt lat="44.33458" lon="0.7888">
        <ele>133</ele>
        <time>2025-10-12T12:39:52.518Z</time>
      </trkpt>
      <trkpt lat="44.33458" lon="0.7888">
        <ele>133</ele>
        <time>2025-10-12T12:39:53.518Z</time>
      </trkpt>
      <trkpt lat="44.33458" lon="0.7888">
        <ele>132</ele>
        <time>2025-10-12T12:39:54.518Z</time>
      </trkpt>
      <trkpt lat="44.33458" lon="0.7888">
        <ele>132</ele>
        <time>2025-10-12T12:39:55.518Z</time>
      </trkpt>
      <trkpt lat="44.33458" lon="0.7888">
        <ele>132</ele>
        <time>2025-10-12T12:39:56.518Z</time>
      </trkpt>
      <trkpt lat="44.33458" lon="0.7888">
        <ele>132</ele>
        <time>2025-10-12T12:39:57.518Z</time>
      </trkpt>
      <trkpt lat="44.33458" lon="0.7888">
        <ele>132</ele>
        <time>2025-10-12T12:39:58.518Z</time>
      </trkpt>
      <trkpt lat="44.33458" lon="0.7888">
        <ele>132</ele>
        <time>2025-10-12T12:39:59.518Z</time>
      </trkpt>
      <trkpt lat="44.33458" lon="0.7888">
        <ele>132</ele>
        <time>2025-10-12T12:40:00.518Z</time>
      </trkpt>
      <trkpt lat="44.33458" lon="0.7888">
        <ele>132</ele>
        <time>2025-10-12T12:40:01.518Z</time>
      </trkpt>
      <trkpt lat="44.33458" lon="0.7888">
        <ele>132</ele>
        <time>2025-10-12T12:40:02.518Z</time>
      </trkpt>
      <trkpt lat="44.33458" lon="0.7888">
        <ele>132</ele>
        <time>2025-10-12T12:40:03.518Z</time>
      </trkpt>
      <trkpt lat="44.33458" lon="0.7888">
        <ele>133</ele>
        <time>2025-10-12T12:40:04.518Z</time>
      </trkpt>
      <trkpt lat="44.33459" lon="0.78881">
        <ele>133</ele>
        <time>2025-10-12T12:40:05.518Z</time>
      </trkpt>
      <trkpt lat="44.33459" lon="0.78882">
        <ele>133</ele>
        <time>2025-10-12T12:40:06.518Z</time>
      </trkpt>
      <trkpt lat="44.3346" lon="0.78883">
        <ele>133</ele>
        <time>2025-10-12T12:40:07.518Z</time>
      </trkpt>
      <trkpt lat="44.3346" lon="0.78884">
        <ele>133</ele>
        <time>2025-10-12T12:40:08.518Z</time>
      </trkpt>
      <trkpt lat="44.33461" lon="0.78884">
        <ele>134</ele>
        <time>2025-10-12T12:40:09.518Z</time>
      </trkpt>
      <trkpt lat="44.33462" lon="0.78883">
        <ele>134</ele>
        <time>2025-10-12T12:40:10.518Z</time>
      </trkpt>
      <trkpt lat="44.33462" lon="0.78883">
        <ele>134</ele>
        <time>2025-10-12T12:40:11.518Z</time>
      </trkpt>
      <trkpt lat="44.33462" lon="0.78883">
        <ele>134</ele>
        <time>2025-10-12T12:40:12.518Z</time>
      </trkpt>
      <trkpt lat="44.33463" lon="0.78882">
        <ele>135</ele>
        <time>2025-10-12T12:40:13.518Z</time>
      </trkpt>
      <trkpt lat="44.33463" lon="0.78882">
        <ele>135</ele>
        <time>2025-10-12T12:40:14.518Z</time>
      </trkpt>
      <trkpt lat="44.33464" lon="0.78882">
        <ele>135</ele>
        <time>2025-10-12T12:40:15.518Z</time>
      </trkpt>
      <trkpt lat="44.33464" lon="0.78882">
        <ele>135</ele>
        <time>2025-10-12T12:40:16.518Z</time>
      </trkpt>
      <trkpt lat="44.33464" lon="0.78882">
        <ele>135</ele>
        <time>2025-10-12T12:40:17.518Z</time>
      </trkpt>
      <trkpt lat="44.33465" lon="0.78881">
        <ele>136</ele>
        <time>2025-10-12T12:40:18.518Z</time>
      </trkpt>
      <trkpt lat="44.33465" lon="0.7888">
        <ele>136</ele>
        <time>2025-10-12T12:40:19.518Z</time>
      </trkpt>
      <trkpt lat="44.33465" lon="0.7888">
        <ele>136</ele>
        <time>2025-10-12T12:40:20.518Z</time>
      </trkpt>
      <trkpt lat="44.33466" lon="0.7888">
        <ele>136</ele>
        <time>2025-10-12T12:40:21.518Z</time>
      </trkpt>
      <trkpt lat="44.33466" lon="0.78881">
        <ele>136</ele>
        <time>2025-10-12T12:40:22.518Z</time>
      </trkpt>
      <trkpt lat="44.33466" lon="0.78881">
        <ele>136</ele>
        <time>2025-10-12T12:40:23.518Z</time>
      </trkpt>
      <trkpt lat="44.33466" lon="0.78881">
        <ele>136</ele>
        <time>2025-10-12T12:40:24.518Z</time>
      </trkpt>
      <trkpt lat="44.33466" lon="0.78881">
        <ele>136</ele>
        <time>2025-10-12T12:40:25.518Z</time>
      </trkpt>
      <trkpt lat="44.33466" lon="0.78881">
        <ele>136</ele>
        <time>2025-10-12T12:40:26.518Z</time>
      </trkpt>
      <trkpt lat="44.33467" lon="0.78881">
        <ele>135</ele>
        <time>2025-10-12T12:40:27.518Z</time>
      </trkpt>
      <trkpt lat="44.33467" lon="0.78882">
        <ele>135</ele>
        <time>2025-10-12T12:40:28.518Z</time>
      </trkpt>
      <trkpt lat="44.33467" lon="0.78882">
        <ele>135</ele>
        <time>2025-10-12T12:40:29.518Z</time>
      </trkpt>
      <trkpt lat="44.33467" lon="0.78882">
        <ele>134</ele>
        <time>2025-10-12T12:40:30.518Z</time>
      </trkpt>
      <trkpt lat="44.33467" lon="0.78882">
        <ele>134</ele>
        <time>2025-10-12T12:40:31.518Z</time>
      </trkpt>
      <trkpt lat="44.33467" lon="0.78882">
        <ele>134</ele>
        <time>2025-10-12T12:40:32.518Z</time>
      </trkpt>
      <trkpt lat="44.33467" lon="0.78881">
        <ele>133</ele>
        <time>2025-10-12T12:40:33.518Z</time>
      </trkpt>
      <trkpt lat="44.33467" lon="0.78881">
        <ele>132</ele>
        <time>2025-10-12T12:40:34.518Z</time>
      </trkpt>
      <trkpt lat="44.33467" lon="0.78881">
        <ele>132</ele>
        <time>2025-10-12T12:40:35.518Z</time>
      </trkpt>
      <trkpt lat="44.33467" lon="0.78881">
        <ele>132</ele>
        <time>2025-10-12T12:40:36.518Z</time>
      </trkpt>
      <trkpt lat="44.33468" lon="0.7888">
        <ele>132</ele>
        <time>2025-10-12T12:40:37.518Z</time>
      </trkpt>
      <trkpt lat="44.33468" lon="0.7888">
        <ele>131</ele>
        <time>2025-10-12T12:40:38.518Z</time>
      </trkpt>
      <trkpt lat="44.33468" lon="0.7888">
        <ele>131</ele>
        <time>2025-10-12T12:40:39.518Z</time>
      </trkpt>
      <trkpt lat="44.33468" lon="0.7888">
        <ele>131</ele>
        <time>2025-10-12T12:40:40.518Z</time>
      </trkpt>
      <trkpt lat="44.33468" lon="0.7888">
        <ele>130</ele>
        <time>2025-10-12T12:40:41.518Z</time>
      </trkpt>
      <trkpt lat="44.33468" lon="0.7888">
        <ele>130</ele>
        <time>2025-10-12T12:40:42.518Z</time>
      </trkpt>
      <trkpt lat="44.33468" lon="0.7888">
        <ele>130</ele>
        <time>2025-10-12T12:40:43.518Z</time>
      </trkpt>
      <trkpt lat="44.33468" lon="0.7888">
        <ele>130</ele>
        <time>2025-10-12T12:40:44.518Z</time>
      </trkpt>
      <trkpt lat="44.33468" lon="0.78879">
        <ele>130</ele>
        <time>2025-10-12T12:40:45.518Z</time>
      </trkpt>
      <trkpt lat="44.33468" lon="0.78879">
        <ele>130</ele>
        <time>2025-10-12T12:40:46.518Z</time>
      </trkpt>
      <trkpt lat="44.33468" lon="0.78879">
        <ele>130</ele>
        <time>2025-10-12T12:40:47.518Z</time>
      </trkpt>
      <trkpt lat="44.33468" lon="0.78879">
        <ele>130</ele>
        <time>2025-10-12T12:40:48.518Z</time>
      </trkpt>
      <trkpt lat="44.33468" lon="0.78879">
        <ele>131</ele>
        <time>2025-10-12T12:40:49.518Z</time>
      </trkpt>
      <trkpt lat="44.33468" lon="0.78879">
        <ele>131</ele>
        <time>2025-10-12T12:40:50.518Z</time>
      </trkpt>
      <trkpt lat="44.33469" lon="0.78881">
        <ele>131</ele>
        <time>2025-10-12T12:40:51.518Z</time>
      </trkpt>
      <trkpt lat="44.33469" lon="0.78881">
        <ele>131</ele>
        <time>2025-10-12T12:40:52.518Z</time>
      </trkpt>
      <trkpt lat="44.33469" lon="0.78882">
        <ele>131</ele>
        <time>2025-10-12T12:40:53.518Z</time>
      </trkpt>
      <trkpt lat="44.33469" lon="0.78884">
        <ele>131</ele>
        <time>2025-10-12T12:40:54.518Z</time>
      </trkpt>
      <trkpt lat="44.33469" lon="0.78885">
        <ele>131</ele>
        <time>2025-10-12T12:40:55.518Z</time>
      </trkpt>
      <trkpt lat="44.33469" lon="0.78885">
        <ele>131</ele>
        <time>2025-10-12T12:40:56.518Z</time>
      </trkpt>
      <trkpt lat="44.33469" lon="0.78885">
        <ele>131</ele>
        <time>2025-10-12T12:40:57.518Z</time>
      </trkpt>
      <trkpt lat="44.33469" lon="0.78886">
        <ele>131</ele>
        <time>2025-10-12T12:40:58.518Z</time>
      </trkpt>
      <trkpt lat="44.33469" lon="0.78886">
        <ele>130</ele>
        <time>2025-10-12T12:40:59.518Z</time>
      </trkpt>
      <trkpt lat="44.33469" lon="0.78886">
        <ele>130</ele>
        <time>2025-10-12T12:41:00.518Z</time>
      </trkpt>
      <trkpt lat="44.33469" lon="0.78886">
        <ele>130</ele>
        <time>2025-10-12T12:41:01.518Z</time>
      </trkpt>
      <trkpt lat="44.33469" lon="0.78886">
        <ele>129</ele>
        <time>2025-10-12T12:41:02.518Z</time>
      </trkpt>
      <trkpt lat="44.33469" lon="0.78886">
        <ele>128</ele>
        <time>2025-10-12T12:41:03.518Z</time>
      </trkpt>
      <trkpt lat="44.33469" lon="0.78886">
        <ele>128</ele>
        <time>2025-10-12T12:41:04.518Z</time>
      </trkpt>
      <trkpt lat="44.33469" lon="0.78886">
        <ele>127</ele>
        <time>2025-10-12T12:41:05.518Z</time>
      </trkpt>
      <trkpt lat="44.33468" lon="0.78885">
        <ele>127</ele>
        <time>2025-10-12T12:41:06.518Z</time>
      </trkpt>
      <trkpt lat="44.33468" lon="0.78885">
        <ele>127</ele>
        <time>2025-10-12T12:41:07.518Z</time>
      </trkpt>
      <trkpt lat="44.33468" lon="0.78885">
        <ele>127</ele>
        <time>2025-10-12T12:41:08.518Z</time>
      </trkpt>
      <trkpt lat="44.33468" lon="0.78885">
        <ele>127</ele>
        <time>2025-10-12T12:41:09.518Z</time>
      </trkpt>
      <trkpt lat="44.33469" lon="0.78885">
        <ele>128</ele>
        <time>2025-10-12T12:41:10.518Z</time>
      </trkpt>
      <trkpt lat="44.33469" lon="0.78885">
        <ele>128</ele>
        <time>2025-10-12T12:41:11.518Z</time>
      </trkpt>
      <trkpt lat="44.33469" lon="0.78885">
        <ele>129</ele>
        <time>2025-10-12T12:41:12.518Z</time>
      </trkpt>
      <trkpt lat="44.33469" lon="0.78885">
        <ele>129</ele>
        <time>2025-10-12T12:41:13.518Z</time>
      </trkpt>
      <trkpt lat="44.33468" lon="0.78885">
        <ele>130</ele>
        <time>2025-10-12T12:41:14.518Z</time>
      </trkpt>
      <trkpt lat="44.33468" lon="0.78885">
        <ele>130</ele>
        <time>2025-10-12T12:41:15.518Z</time>
      </trkpt>
      <trkpt lat="44.33468" lon="0.78885">
        <ele>130</ele>
        <time>2025-10-12T12:41:16.518Z</time>
      </trkpt>
      <trkpt lat="44.33468" lon="0.78885">
        <ele>131</ele>
        <time>2025-10-12T12:41:17.518Z</time>
      </trkpt>
      <trkpt lat="44.33468" lon="0.78885">
        <ele>131</ele>
        <time>2025-10-12T12:41:18.518Z</time>
      </trkpt>
      <trkpt lat="44.33468" lon="0.78885">
        <ele>131</ele>
        <time>2025-10-12T12:41:19.518Z</time>
      </trkpt>
      <trkpt lat="44.33468" lon="0.78885">
        <ele>132</ele>
        <time>2025-10-12T12:41:20.518Z</time>
      </trkpt>
      <trkpt lat="44.33468" lon="0.78885">
        <ele>132</ele>
        <time>2025-10-12T12:41:21.518Z</time>
      </trkpt>
      <trkpt lat="44.33468" lon="0.78885">
        <ele>132</ele>
        <time>2025-10-12T12:41:22.518Z</time>
      </trkpt>
      <trkpt lat="44.33468" lon="0.78885">
        <ele>132</ele>
        <time>2025-10-12T12:41:23.518Z</time>
      </trkpt>
      <trkpt lat="44.33468" lon="0.78885">
        <ele>133</ele>
        <time>2025-10-12T12:41:24.518Z</time>
      </trkpt>
      <trkpt lat="44.33468" lon="0.78885">
        <ele>133</ele>
        <time>2025-10-12T12:41:25.518Z</time>
      </trkpt>
      <trkpt lat="44.33468" lon="0.78885">
        <ele>133</ele>
        <time>2025-10-12T12:41:26.518Z</time>
      </trkpt>
      <trkpt lat="44.33468" lon="0.78885">
        <ele>133</ele>
        <time>2025-10-12T12:41:27.518Z</time>
      </trkpt>
      <trkpt lat="44.33469" lon="0.78885">
        <ele>134</ele>
        <time>2025-10-12T12:41:28.518Z</time>
      </trkpt>
      <trkpt lat="44.33469" lon="0.78885">
        <ele>134</ele>
        <time>2025-10-12T12:41:29.518Z</time>
      </trkpt>
      <trkpt lat="44.33469" lon="0.78885">
        <ele>135</ele>
        <time>2025-10-12T12:41:30.518Z</time>
      </trkpt>
      <trkpt lat="44.33469" lon="0.78885">
        <ele>136</ele>
        <time>2025-10-12T12:41:31.518Z</time>
      </trkpt>
      <trkpt lat="44.33469" lon="0.78885">
        <ele>136</ele>
        <time>2025-10-12T12:41:32.518Z</time>
      </trkpt>
      <trkpt lat="44.3347" lon="0.78885">
        <ele>136</ele>
        <time>2025-10-12T12:41:33.518Z</time>
      </trkpt>
      <trkpt lat="44.33469" lon="0.78885">
        <ele>136</ele>
        <time>2025-10-12T12:41:34.518Z</time>
      </trkpt>
      <trkpt lat="44.33469" lon="0.78885">
        <ele>136</ele>
        <time>2025-10-12T12:41:35.518Z</time>
      </trkpt>
      <trkpt lat="44.33469" lon="0.78884">
        <ele>137</ele>
        <time>2025-10-12T12:41:36.518Z</time>
      </trkpt>
      <trkpt lat="44.33469" lon="0.78884">
        <ele>137</ele>
        <time>2025-10-12T12:41:37.518Z</time>
      </trkpt>
      <trkpt lat="44.33469" lon="0.78884">
        <ele>137</ele>
        <time>2025-10-12T12:41:38.518Z</time>
      </trkpt>
      <trkpt lat="44.33469" lon="0.78883">
        <ele>137</ele>
        <time>2025-10-12T12:41:39.518Z</time>
      </trkpt>
      <trkpt lat="44.33469" lon="0.78883">
        <ele>137</ele>
        <time>2025-10-12T12:41:40.518Z</time>
      </trkpt>
      <trkpt lat="44.33469" lon="0.78883">
        <ele>137</ele>
        <time>2025-10-12T12:41:41.518Z</time>
      </trkpt>
      <trkpt lat="44.33469" lon="0.78883">
        <ele>138</ele>
        <time>2025-10-12T12:41:42.518Z</time>
      </trkpt>
      <trkpt lat="44.33469" lon="0.78883">
        <ele>138</ele>
        <time>2025-10-12T12:41:43.518Z</time>
      </trkpt>
      <trkpt lat="44.33469" lon="0.78883">
        <ele>138</ele>
        <time>2025-10-12T12:41:44.518Z</time>
      </trkpt>
      <trkpt lat="44.33468" lon="0.78883">
        <ele>138</ele>
        <time>2025-10-12T12:41:45.518Z</time>
      </trkpt>
      <trkpt lat="44.33468" lon="0.78883">
        <ele>138</ele>
        <time>2025-10-12T12:41:46.518Z</time>
      </trkpt>
      <trkpt lat="44.33468" lon="0.78883">
        <ele>138</ele>
        <time>2025-10-12T12:41:47.518Z</time>
      </trkpt>
      <trkpt lat="44.33468" lon="0.78883">
        <ele>139</ele>
        <time>2025-10-12T12:41:48.518Z</time>
      </trkpt>
      <trkpt lat="44.33468" lon="0.78883">
        <ele>139</ele>
        <time>2025-10-12T12:41:49.518Z</time>
      </trkpt>
      <trkpt lat="44.33468" lon="0.78883">
        <ele>139</ele>
        <time>2025-10-12T12:41:50.518Z</time>
      </trkpt>
      <trkpt lat="44.33468" lon="0.78883">
        <ele>138</ele>
        <time>2025-10-12T12:41:51.518Z</time>
      </trkpt>
      <trkpt lat="44.33468" lon="0.78883">
        <ele>138</ele>
        <time>2025-10-12T12:41:52.518Z</time>
      </trkpt>
      <trkpt lat="44.33468" lon="0.78883">
        <ele>138</ele>
        <time>2025-10-12T12:41:53.518Z</time>
      </trkpt>
      <trkpt lat="44.33468" lon="0.78883">
        <ele>138</ele>
        <time>2025-10-12T12:41:54.518Z</time>
      </trkpt>
      <trkpt lat="44.33467" lon="0.78883">
        <ele>138</ele>
        <time>2025-10-12T12:41:55.518Z</time>
      </trkpt>
      <trkpt lat="44.33467" lon="0.78883">
        <ele>138</ele>
        <time>2025-10-12T12:41:56.518Z</time>
      </trkpt>
      <trkpt lat="44.33467" lon="0.78882">
        <ele>138</ele>
        <time>2025-10-12T12:41:57.518Z</time>
      </trkpt>
      <trkpt lat="44.33467" lon="0.78882">
        <ele>138</ele>
        <time>2025-10-12T12:41:58.518Z</time>
      </trkpt>
      <trkpt lat="44.33467" lon="0.78882">
        <ele>138</ele>
        <time>2025-10-12T12:41:59.518Z</time>
      </trkpt>
      <trkpt lat="44.33467" lon="0.78882">
        <ele>138</ele>
        <time>2025-10-12T12:42:00.518Z</time>
      </trkpt>
      <trkpt lat="44.33467" lon="0.78882">
        <ele>138</ele>
        <time>2025-10-12T12:42:01.518Z</time>
      </trkpt>
      <trkpt lat="44.33467" lon="0.78882">
        <ele>138</ele>
        <time>2025-10-12T12:42:02.518Z</time>
      </trkpt>
      <trkpt lat="44.33467" lon="0.78882">
        <ele>138</ele>
        <time>2025-10-12T12:42:03.518Z</time>
      </trkpt>
      <trkpt lat="44.33466" lon="0.78882">
        <ele>139</ele>
        <time>2025-10-12T12:42:04.518Z</time>
      </trkpt>
      <trkpt lat="44.33466" lon="0.78882">
        <ele>139</ele>
        <time>2025-10-12T12:42:05.518Z</time>
      </trkpt>
      <trkpt lat="44.33466" lon="0.78882">
        <ele>138</ele>
        <time>2025-10-12T12:42:06.518Z</time>
      </trkpt>
      <trkpt lat="44.33466" lon="0.78882">
        <ele>139</ele>
        <time>2025-10-12T12:42:07.518Z</time>
      </trkpt>
      <trkpt lat="44.33466" lon="0.78882">
        <ele>139</ele>
        <time>2025-10-12T12:42:08.518Z</time>
      </trkpt>
      <trkpt lat="44.33466" lon="0.78881">
        <ele>139</ele>
        <time>2025-10-12T12:42:09.518Z</time>
      </trkpt>
      <trkpt lat="44.33466" lon="0.78881">
        <ele>139</ele>
        <time>2025-10-12T12:42:10.518Z</time>
      </trkpt>
      <trkpt lat="44.33466" lon="0.78881">
        <ele>139</ele>
        <time>2025-10-12T12:42:11.518Z</time>
      </trkpt>
      <trkpt lat="44.33466" lon="0.78881">
        <ele>138</ele>
        <time>2025-10-12T12:42:12.518Z</time>
      </trkpt>
      <trkpt lat="44.33466" lon="0.78881">
        <ele>138</ele>
        <time>2025-10-12T12:42:13.518Z</time>
      </trkpt>
      <trkpt lat="44.33466" lon="0.78881">
        <ele>138</ele>
        <time>2025-10-12T12:42:14.518Z</time>
      </trkpt>
      <trkpt lat="44.33466" lon="0.78882">
        <ele>137</ele>
        <time>2025-10-12T12:42:15.518Z</time>
      </trkpt>
      <trkpt lat="44.33466" lon="0.78882">
        <ele>137</ele>
        <time>2025-10-12T12:42:16.518Z</time>
      </trkpt>
      <trkpt lat="44.33466" lon="0.78882">
        <ele>137</ele>
        <time>2025-10-12T12:42:17.518Z</time>
      </trkpt>
      <trkpt lat="44.33466" lon="0.78882">
        <ele>137</ele>
        <time>2025-10-12T12:42:18.518Z</time>
      </trkpt>
      <trkpt lat="44.33466" lon="0.78882">
        <ele>137</ele>
        <time>2025-10-12T12:42:19.518Z</time>
      </trkpt>
      <trkpt lat="44.33466" lon="0.78882">
        <ele>137</ele>
        <time>2025-10-12T12:42:20.518Z</time>
      </trkpt>
      <trkpt lat="44.33465" lon="0.78882">
        <ele>136</ele>
        <time>2025-10-12T12:42:21.518Z</time>
      </trkpt>
      <trkpt lat="44.33465" lon="0.78882">
        <ele>136</ele>
        <time>2025-10-12T12:42:22.518Z</time>
      </trkpt>
      <trkpt lat="44.33465" lon="0.78881">
        <ele>136</ele>
        <time>2025-10-12T12:42:23.518Z</time>
      </trkpt>
      <trkpt lat="44.33465" lon="0.78882">
        <ele>136</ele>
        <time>2025-10-12T12:42:24.518Z</time>
      </trkpt>
      <trkpt lat="44.33465" lon="0.78881">
        <ele>136</ele>
        <time>2025-10-12T12:42:25.518Z</time>
      </trkpt>
      <trkpt lat="44.33465" lon="0.78881">
        <ele>136</ele>
        <time>2025-10-12T12:42:26.518Z</time>
      </trkpt>
      <trkpt lat="44.33465" lon="0.78881">
        <ele>137</ele>
        <time>2025-10-12T12:42:27.518Z</time>
      </trkpt>
      <trkpt lat="44.33465" lon="0.78881">
        <ele>137</ele>
        <time>2025-10-12T12:42:28.518Z</time>
      </trkpt>
      <trkpt lat="44.33465" lon="0.78881">
        <ele>137</ele>
        <time>2025-10-12T12:42:29.518Z</time>
      </trkpt>
      <trkpt lat="44.33465" lon="0.78881">
        <ele>137</ele>
        <time>2025-10-12T12:42:30.518Z</time>
      </trkpt>
      <trkpt lat="44.33465" lon="0.78881">
        <ele>137</ele>
        <time>2025-10-12T12:42:31.518Z</time>
      </trkpt>
      <trkpt lat="44.33465" lon="0.78881">
        <ele>137</ele>
        <time>2025-10-12T12:42:32.518Z</time>
      </trkpt>
      <trkpt lat="44.33465" lon="0.78881">
        <ele>137</ele>
        <time>2025-10-12T12:42:33.518Z</time>
      </trkpt>
      <trkpt lat="44.33465" lon="0.78881">
        <ele>136</ele>
        <time>2025-10-12T12:42:34.518Z</time>
      </trkpt>
      <trkpt lat="44.33465" lon="0.78881">
        <ele>136</ele>
        <time>2025-10-12T12:42:35.518Z</time>
      </trkpt>
      <trkpt lat="44.33465" lon="0.78881">
        <ele>136</ele>
        <time>2025-10-12T12:42:36.518Z</time>
      </trkpt>
      <trkpt lat="44.33465" lon="0.78881">
        <ele>135</ele>
        <time>2025-10-12T12:42:37.518Z</time>
      </trkpt>
      <trkpt lat="44.33465" lon="0.78881">
        <ele>135</ele>
        <time>2025-10-12T12:42:38.518Z</time>
      </trkpt>
      <trkpt lat="44.33465" lon="0.78881">
        <ele>136</ele>
        <time>2025-10-12T12:42:39.518Z</time>
      </trkpt>
      <trkpt lat="44.33465" lon="0.78881">
        <ele>136</ele>
        <time>2025-10-12T12:42:40.518Z</time>
      </trkpt>
      <trkpt lat="44.33465" lon="0.78882">
        <ele>136</ele>
        <time>2025-10-12T12:42:41.518Z</time>
      </trkpt>
      <trkpt lat="44.33464" lon="0.78882">
        <ele>136</ele>
        <time>2025-10-12T12:42:42.518Z</time>
      </trkpt>
      <trkpt lat="44.33464" lon="0.78882">
        <ele>136</ele>
        <time>2025-10-12T12:42:43.518Z</time>
      </trkpt>
      <trkpt lat="44.33464" lon="0.78882">
        <ele>136</ele>
        <time>2025-10-12T12:42:44.518Z</time>
      </trkpt>
      <trkpt lat="44.33464" lon="0.78882">
        <ele>136</ele>
        <time>2025-10-12T12:42:45.518Z</time>
      </trkpt>
      <trkpt lat="44.33464" lon="0.78882">
        <ele>136</ele>
        <time>2025-10-12T12:42:46.518Z</time>
      </trkpt>
      <trkpt lat="44.33464" lon="0.78882">
        <ele>135</ele>
        <time>2025-10-12T12:42:47.518Z</time>
      </trkpt>
      <trkpt lat="44.33464" lon="0.78882">
        <ele>135</ele>
        <time>2025-10-12T12:42:48.518Z</time>
      </trkpt>
      <trkpt lat="44.33463" lon="0.78882">
        <ele>135</ele>
        <time>2025-10-12T12:42:49.518Z</time>
      </trkpt>
      <trkpt lat="44.33463" lon="0.78883">
        <ele>135</ele>
        <time>2025-10-12T12:42:50.518Z</time>
      </trkpt>
      <trkpt lat="44.33463" lon="0.78883">
        <ele>135</ele>
        <time>2025-10-12T12:42:51.518Z</time>
      </trkpt>
      <trkpt lat="44.33463" lon="0.78883">
        <ele>135</ele>
        <time>2025-10-12T12:42:52.518Z</time>
      </trkpt>
      <trkpt lat="44.33463" lon="0.78882">
        <ele>135</ele>
        <time>2025-10-12T12:42:53.518Z</time>
      </trkpt>
      <trkpt lat="44.33463" lon="0.78882">
        <ele>135</ele>
        <time>2025-10-12T12:42:54.518Z</time>
      </trkpt>
      <trkpt lat="44.33463" lon="0.78882">
        <ele>135</ele>
        <time>2025-10-12T12:42:55.518Z</time>
      </trkpt>
      <trkpt lat="44.33463" lon="0.78882">
        <ele>135</ele>
        <time>2025-10-12T12:42:56.518Z</time>
      </trkpt>
      <trkpt lat="44.33463" lon="0.78882">
        <ele>135</ele>
        <time>2025-10-12T12:42:57.518Z</time>
      </trkpt>
      <trkpt lat="44.33463" lon="0.78882">
        <ele>134</ele>
        <time>2025-10-12T12:42:58.518Z</time>
      </trkpt>
      <trkpt lat="44.33463" lon="0.78882">
        <ele>133</ele>
        <time>2025-10-12T12:42:59.518Z</time>
      </trkpt>
      <trkpt lat="44.33463" lon="0.78882">
        <ele>132</ele>
        <time>2025-10-12T12:43:00.518Z</time>
      </trkpt>
      <trkpt lat="44.33463" lon="0.78882">
        <ele>132</ele>
        <time>2025-10-12T12:43:01.518Z</time>
      </trkpt>
      <trkpt lat="44.33463" lon="0.78882">
        <ele>132</ele>
        <time>2025-10-12T12:43:02.518Z</time>
      </trkpt>
      <trkpt lat="44.33463" lon="0.78882">
        <ele>131</ele>
        <time>2025-10-12T12:43:03.518Z</time>
      </trkpt>
      <trkpt lat="44.33463" lon="0.78882">
        <ele>131</ele>
        <time>2025-10-12T12:43:04.518Z</time>
      </trkpt>
      <trkpt lat="44.33463" lon="0.78882">
        <ele>130</ele>
        <time>2025-10-12T12:43:05.518Z</time>
      </trkpt>
      <trkpt lat="44.33463" lon="0.78882">
        <ele>129</ele>
        <time>2025-10-12T12:43:06.518Z</time>
      </trkpt>
      <trkpt lat="44.33463" lon="0.78882">
        <ele>129</ele>
        <time>2025-10-12T12:43:07.518Z</time>
      </trkpt>
      <trkpt lat="44.33462" lon="0.78882">
        <ele>129</ele>
        <time>2025-10-12T12:43:08.518Z</time>
      </trkpt>
      <trkpt lat="44.33462" lon="0.78882">
        <ele>128</ele>
        <time>2025-10-12T12:43:09.518Z</time>
      </trkpt>
      <trkpt lat="44.33462" lon="0.78882">
        <ele>128</ele>
        <time>2025-10-12T12:43:10.518Z</time>
      </trkpt>
      <trkpt lat="44.33463" lon="0.78882">
        <ele>128</ele>
        <time>2025-10-12T12:43:11.518Z</time>
      </trkpt>
      <trkpt lat="44.33463" lon="0.78882">
        <ele>128</ele>
        <time>2025-10-12T12:43:12.518Z</time>
      </trkpt>
      <trkpt lat="44.33463" lon="0.78882">
        <ele>128</ele>
        <time>2025-10-12T12:43:13.518Z</time>
      </trkpt>
      <trkpt lat="44.33464" lon="0.78882">
        <ele>129</ele>
        <time>2025-10-12T12:43:14.518Z</time>
      </trkpt>
      <trkpt lat="44.33463" lon="0.78882">
        <ele>129</ele>
        <time>2025-10-12T12:43:15.518Z</time>
      </trkpt>
      <trkpt lat="44.33463" lon="0.78882">
        <ele>129</ele>
        <time>2025-10-12T12:43:16.518Z</time>
      </trkpt>
      <trkpt lat="44.33464" lon="0.78882">
        <ele>129</ele>
        <time>2025-10-12T12:43:17.518Z</time>
      </trkpt>
      <trkpt lat="44.33464" lon="0.78882">
        <ele>129</ele>
        <time>2025-10-12T12:43:18.518Z</time>
      </trkpt>
      <trkpt lat="44.33464" lon="0.78882">
        <ele>129</ele>
        <time>2025-10-12T12:43:19.518Z</time>
      </trkpt>
      <trkpt lat="44.33464" lon="0.78882">
        <ele>129</ele>
        <time>2025-10-12T12:43:20.518Z</time>
      </trkpt>
      <trkpt lat="44.33464" lon="0.78882">
        <ele>129</ele>
        <time>2025-10-12T12:43:21.518Z</time>
      </trkpt>
      <trkpt lat="44.33464" lon="0.78882">
        <ele>129</ele>
        <time>2025-10-12T12:43:22.518Z</time>
      </trkpt>
      <trkpt lat="44.33464" lon="0.78883">
        <ele>129</ele>
        <time>2025-10-12T12:43:23.518Z</time>
      </trkpt>
      <trkpt lat="44.33464" lon="0.78883">
        <ele>129</ele>
        <time>2025-10-12T12:43:24.518Z</time>
      </trkpt>
      <trkpt lat="44.33464" lon="0.78883">
        <ele>129</ele>
        <time>2025-10-12T12:43:25.518Z</time>
      </trkpt>
      <trkpt lat="44.33464" lon="0.78882">
        <ele>129</ele>
        <time>2025-10-12T12:43:26.518Z</time>
      </trkpt>
      <trkpt lat="44.33463" lon="0.78882">
        <ele>129</ele>
        <time>2025-10-12T12:43:27.518Z</time>
      </trkpt>
      <trkpt lat="44.33463" lon="0.78882">
        <ele>129</ele>
        <time>2025-10-12T12:43:28.518Z</time>
      </trkpt>
      <trkpt lat="44.33463" lon="0.78882">
        <ele>129</ele>
        <time>2025-10-12T12:43:29.518Z</time>
      </trkpt>
      <trkpt lat="44.33463" lon="0.78882">
        <ele>129</ele>
        <time>2025-10-12T12:43:30.518Z</time>
      </trkpt>
      <trkpt lat="44.33463" lon="0.78882">
        <ele>129</ele>
        <time>2025-10-12T12:43:31.518Z</time>
      </trkpt>
      <trkpt lat="44.33463" lon="0.78882">
        <ele>129</ele>
        <time>2025-10-12T12:43:32.518Z</time>
      </trkpt>
      <trkpt lat="44.33463" lon="0.78882">
        <ele>129</ele>
        <time>2025-10-12T12:43:33.518Z</time>
      </trkpt>
      <trkpt lat="44.33463" lon="0.78882">
        <ele>129</ele>
        <time>2025-10-12T12:43:34.518Z</time>
      </trkpt>
      <trkpt lat="44.33463" lon="0.78883">
        <ele>129</ele>
        <time>2025-10-12T12:43:35.518Z</time>
      </trkpt>
      <trkpt lat="44.33463" lon="0.78883">
        <ele>129</ele>
        <time>2025-10-12T12:43:36.518Z</time>
      </trkpt>
      <trkpt lat="44.33463" lon="0.78883">
        <ele>129</ele>
        <time>2025-10-12T12:43:37.518Z</time>
      </trkpt>
      <trkpt lat="44.33463" lon="0.78883">
        <ele>129</ele>
        <time>2025-10-12T12:43:38.518Z</time>
      </trkpt>
      <trkpt lat="44.33462" lon="0.78883">
        <ele>129</ele>
        <time>2025-10-12T12:43:39.518Z</time>
      </trkpt>
      <trkpt lat="44.33462" lon="0.78883">
        <ele>128</ele>
        <time>2025-10-12T12:43:40.518Z</time>
      </trkpt>
      <trkpt lat="44.33462" lon="0.78883">
        <ele>128</ele>
        <time>2025-10-12T12:43:41.518Z</time>
      </trkpt>
      <trkpt lat="44.33462" lon="0.78883">
        <ele>128</ele>
        <time>2025-10-12T12:43:42.518Z</time>
      </trkpt>
      <trkpt lat="44.33462" lon="0.78884">
        <ele>128</ele>
        <time>2025-10-12T12:43:43.518Z</time>
      </trkpt>
      <trkpt lat="44.33461" lon="0.78884">
        <ele>129</ele>
        <time>2025-10-12T12:43:44.518Z</time>
      </trkpt>
      <trkpt lat="44.33461" lon="0.78884">
        <ele>129</ele>
        <time>2025-10-12T12:43:45.518Z</time>
      </trkpt>
      <trkpt lat="44.33461" lon="0.78884">
        <ele>128</ele>
        <time>2025-10-12T12:43:46.518Z</time>
      </trkpt>
      <trkpt lat="44.33461" lon="0.78883">
        <ele>128</ele>
        <time>2025-10-12T12:43:47.518Z</time>
      </trkpt>
      <trkpt lat="44.33461" lon="0.78883">
        <ele>128</ele>
        <time>2025-10-12T12:43:48.518Z</time>
      </trkpt>
      <trkpt lat="44.33461" lon="0.78883">
        <ele>128</ele>
        <time>2025-10-12T12:43:49.518Z</time>
      </trkpt>
      <trkpt lat="44.33461" lon="0.78882">
        <ele>128</ele>
        <time>2025-10-12T12:43:50.518Z</time>
      </trkpt>
      <trkpt lat="44.3346" lon="0.78882">
        <ele>128</ele>
        <time>2025-10-12T12:43:51.518Z</time>
      </trkpt>
      <trkpt lat="44.3346" lon="0.78882">
        <ele>127</ele>
        <time>2025-10-12T12:43:52.518Z</time>
      </trkpt>
      <trkpt lat="44.3346" lon="0.78881">
        <ele>127</ele>
        <time>2025-10-12T12:43:53.518Z</time>
      </trkpt>
      <trkpt lat="44.3346" lon="0.78881">
        <ele>127</ele>
        <time>2025-10-12T12:43:54.518Z</time>
      </trkpt>
      <trkpt lat="44.3346" lon="0.78881">
        <ele>127</ele>
        <time>2025-10-12T12:43:55.518Z</time>
      </trkpt>
      <trkpt lat="44.3346" lon="0.78881">
        <ele>127</ele>
        <time>2025-10-12T12:43:56.518Z</time>
      </trkpt>
      <trkpt lat="44.3346" lon="0.7888">
        <ele>127</ele>
        <time>2025-10-12T12:43:57.518Z</time>
      </trkpt>
      <trkpt lat="44.3346" lon="0.7888">
        <ele>127</ele>
        <time>2025-10-12T12:43:58.518Z</time>
      </trkpt>
      <trkpt lat="44.3346" lon="0.7888">
        <ele>127</ele>
        <time>2025-10-12T12:43:59.518Z</time>
      </trkpt>
      <trkpt lat="44.3346" lon="0.7888">
        <ele>127</ele>
        <time>2025-10-12T12:44:00.518Z</time>
      </trkpt>
      <trkpt lat="44.3346" lon="0.78879">
        <ele>127</ele>
        <time>2025-10-12T12:44:01.518Z</time>
      </trkpt>
      <trkpt lat="44.3346" lon="0.78879">
        <ele>127</ele>
        <time>2025-10-12T12:44:02.518Z</time>
      </trkpt>
      <trkpt lat="44.3346" lon="0.78879">
        <ele>127</ele>
        <time>2025-10-12T12:44:03.518Z</time>
      </trkpt>
      <trkpt lat="44.3346" lon="0.78879">
        <ele>127</ele>
        <time>2025-10-12T12:44:04.518Z</time>
      </trkpt>
      <trkpt lat="44.3346" lon="0.78879">
        <ele>126</ele>
        <time>2025-10-12T12:44:05.518Z</time>
      </trkpt>
      <trkpt lat="44.3346" lon="0.78879">
        <ele>126</ele>
        <time>2025-10-12T12:44:06.518Z</time>
      </trkpt>
      <trkpt lat="44.3346" lon="0.78879">
        <ele>126</ele>
        <time>2025-10-12T12:44:07.518Z</time>
      </trkpt>
      <trkpt lat="44.3346" lon="0.78879">
        <ele>126</ele>
        <time>2025-10-12T12:44:08.518Z</time>
      </trkpt>
      <trkpt lat="44.33461" lon="0.78878">
        <ele>126</ele>
        <time>2025-10-12T12:44:09.518Z</time>
      </trkpt>
      <trkpt lat="44.33461" lon="0.78879">
        <ele>126</ele>
        <time>2025-10-12T12:44:10.518Z</time>
      </trkpt>
      <trkpt lat="44.33461" lon="0.78879">
        <ele>126</ele>
        <time>2025-10-12T12:44:11.518Z</time>
      </trkpt>
      <trkpt lat="44.33461" lon="0.78879">
        <ele>126</ele>
        <time>2025-10-12T12:44:12.518Z</time>
      </trkpt>
      <trkpt lat="44.33461" lon="0.78879">
        <ele>126</ele>
        <time>2025-10-12T12:44:13.518Z</time>
      </trkpt>
      <trkpt lat="44.33461" lon="0.78878">
        <ele>126</ele>
        <time>2025-10-12T12:44:14.518Z</time>
      </trkpt>
      <trkpt lat="44.33461" lon="0.78878">
        <ele>125</ele>
        <time>2025-10-12T12:44:15.518Z</time>
      </trkpt>
      <trkpt lat="44.33461" lon="0.78878">
        <ele>125</ele>
        <time>2025-10-12T12:44:16.518Z</time>
      </trkpt>
      <trkpt lat="44.33461" lon="0.78879">
        <ele>124</ele>
        <time>2025-10-12T12:44:17.518Z</time>
      </trkpt>
      <trkpt lat="44.33462" lon="0.7888">
        <ele>124</ele>
        <time>2025-10-12T12:44:18.518Z</time>
      </trkpt>
      <trkpt lat="44.33461" lon="0.7888">
        <ele>124</ele>
        <time>2025-10-12T12:44:19.518Z</time>
      </trkpt>
      <trkpt lat="44.33461" lon="0.7888">
        <ele>124</ele>
        <time>2025-10-12T12:44:20.518Z</time>
      </trkpt>
      <trkpt lat="44.33461" lon="0.7888">
        <ele>125</ele>
        <time>2025-10-12T12:44:21.518Z</time>
      </trkpt>
      <trkpt lat="44.33461" lon="0.7888">
        <ele>125</ele>
        <time>2025-10-12T12:44:22.518Z</time>
      </trkpt>
      <trkpt lat="44.33461" lon="0.7888">
        <ele>125</ele>
        <time>2025-10-12T12:44:23.518Z</time>
      </trkpt>
      <trkpt lat="44.33461" lon="0.7888">
        <ele>126</ele>
        <time>2025-10-12T12:44:24.518Z</time>
      </trkpt>
      <trkpt lat="44.33461" lon="0.7888">
        <ele>126</ele>
        <time>2025-10-12T12:44:25.518Z</time>
      </trkpt>
      <trkpt lat="44.33461" lon="0.7888">
        <ele>126</ele>
        <time>2025-10-12T12:44:26.518Z</time>
      </trkpt>
      <trkpt lat="44.33462" lon="0.7888">
        <ele>127</ele>
        <time>2025-10-12T12:44:27.518Z</time>
      </trkpt>
      <trkpt lat="44.33462" lon="0.7888">
        <ele>127</ele>
        <time>2025-10-12T12:44:28.518Z</time>
      </trkpt>
      <trkpt lat="44.33462" lon="0.7888">
        <ele>127</ele>
        <time>2025-10-12T12:44:29.518Z</time>
      </trkpt>
      <trkpt lat="44.33462" lon="0.7888">
        <ele>127</ele>
        <time>2025-10-12T12:44:30.518Z</time>
      </trkpt>
      <trkpt lat="44.33462" lon="0.7888">
        <ele>126</ele>
        <time>2025-10-12T12:44:31.518Z</time>
      </trkpt>
      <trkpt lat="44.33461" lon="0.7888">
        <ele>126</ele>
        <time>2025-10-12T12:44:32.518Z</time>
      </trkpt>
      <trkpt lat="44.33461" lon="0.7888">
        <ele>126</ele>
        <time>2025-10-12T12:44:33.518Z</time>
      </trkpt>
      <trkpt lat="44.33461" lon="0.7888">
        <ele>126</ele>
        <time>2025-10-12T12:44:34.518Z</time>
      </trkpt>
      <trkpt lat="44.33461" lon="0.78879">
        <ele>127</ele>
        <time>2025-10-12T12:44:35.518Z</time>
      </trkpt>
      <trkpt lat="44.33461" lon="0.78879">
        <ele>127</ele>
        <time>2025-10-12T12:44:36.518Z</time>
      </trkpt>
      <trkpt lat="44.33461" lon="0.78879">
        <ele>127</ele>
        <time>2025-10-12T12:44:37.518Z</time>
      </trkpt>
      <trkpt lat="44.33461" lon="0.78879">
        <ele>128</ele>
        <time>2025-10-12T12:44:38.518Z</time>
      </trkpt>
      <trkpt lat="44.33461" lon="0.78879">
        <ele>128</ele>
        <time>2025-10-12T12:44:39.518Z</time>
      </trkpt>
      <trkpt lat="44.33461" lon="0.78879">
        <ele>128</ele>
        <time>2025-10-12T12:44:40.518Z</time>
      </trkpt>
      <trkpt lat="44.33461" lon="0.78879">
        <ele>128</ele>
        <time>2025-10-12T12:44:41.518Z</time>
      </trkpt>
      <trkpt lat="44.33461" lon="0.78879">
        <ele>128</ele>
        <time>2025-10-12T12:44:42.518Z</time>
      </trkpt>
      <trkpt lat="44.33461" lon="0.7888">
        <ele>128</ele>
        <time>2025-10-12T12:44:43.518Z</time>
      </trkpt>
      <trkpt lat="44.33461" lon="0.7888">
        <ele>128</ele>
        <time>2025-10-12T12:44:44.518Z</time>
      </trkpt>
      <trkpt lat="44.33461" lon="0.7888">
        <ele>128</ele>
        <time>2025-10-12T12:44:45.518Z</time>
      </trkpt>
      <trkpt lat="44.33461" lon="0.7888">
        <ele>128</ele>
        <time>2025-10-12T12:44:46.518Z</time>
      </trkpt>
      <trkpt lat="44.33461" lon="0.7888">
        <ele>128</ele>
        <time>2025-10-12T12:44:47.518Z</time>
      </trkpt>
      <trkpt lat="44.33461" lon="0.7888">
        <ele>128</ele>
        <time>2025-10-12T12:44:48.518Z</time>
      </trkpt>
      <trkpt lat="44.33461" lon="0.7888">
        <ele>128</ele>
        <time>2025-10-12T12:44:49.518Z</time>
      </trkpt>
      <trkpt lat="44.33461" lon="0.7888">
        <ele>128</ele>
        <time>2025-10-12T12:44:50.518Z</time>
      </trkpt>
      <trkpt lat="44.33461" lon="0.7888">
        <ele>128</ele>
        <time>2025-10-12T12:44:51.518Z</time>
      </trkpt>
      <trkpt lat="44.33461" lon="0.7888">
        <ele>128</ele>
        <time>2025-10-12T12:44:52.518Z</time>
      </trkpt>
      <trkpt lat="44.33461" lon="0.7888">
        <ele>129</ele>
        <time>2025-10-12T12:44:53.518Z</time>
      </trkpt>
      <trkpt lat="44.33461" lon="0.7888">
        <ele>129</ele>
        <time>2025-10-12T12:44:54.518Z</time>
      </trkpt>
      <trkpt lat="44.33461" lon="0.7888">
        <ele>130</ele>
        <time>2025-10-12T12:44:55.518Z</time>
      </trkpt>
      <trkpt lat="44.33462" lon="0.7888">
        <ele>130</ele>
        <time>2025-10-12T12:44:56.518Z</time>
      </trkpt>
      <trkpt lat="44.33462" lon="0.7888">
        <ele>130</ele>
        <time>2025-10-12T12:44:57.518Z</time>
      </trkpt>
      <trkpt lat="44.33463" lon="0.7888">
        <ele>130</ele>
        <time>2025-10-12T12:44:58.518Z</time>
      </trkpt>
      <trkpt lat="44.33463" lon="0.7888">
        <ele>130</ele>
        <time>2025-10-12T12:44:59.518Z</time>
      </trkpt>
      <trkpt lat="44.33463" lon="0.7888">
        <ele>130</ele>
        <time>2025-10-12T12:45:00.518Z</time>
      </trkpt>
      <trkpt lat="44.33463" lon="0.7888">
        <ele>130</ele>
        <time>2025-10-12T12:45:01.518Z</time>
      </trkpt>
      <trkpt lat="44.33463" lon="0.7888">
        <ele>129</ele>
        <time>2025-10-12T12:45:02.518Z</time>
      </trkpt>
      <trkpt lat="44.33463" lon="0.7888">
        <ele>129</ele>
        <time>2025-10-12T12:45:03.518Z</time>
      </trkpt>
      <trkpt lat="44.33463" lon="0.7888">
        <ele>130</ele>
        <time>2025-10-12T12:45:04.518Z</time>
      </trkpt>
      <trkpt lat="44.33463" lon="0.7888">
        <ele>130</ele>
        <time>2025-10-12T12:45:05.518Z</time>
      </trkpt>
      <trkpt lat="44.33463" lon="0.7888">
        <ele>130</ele>
        <time>2025-10-12T12:45:06.518Z</time>
      </trkpt>
      <trkpt lat="44.33463" lon="0.7888">
        <ele>130</ele>
        <time>2025-10-12T12:45:07.518Z</time>
      </trkpt>
      <trkpt lat="44.33463" lon="0.7888">
        <ele>130</ele>
        <time>2025-10-12T12:45:08.518Z</time>
      </trkpt>
      <trkpt lat="44.33462" lon="0.7888">
        <ele>131</ele>
        <time>2025-10-12T12:45:09.518Z</time>
      </trkpt>
      <trkpt lat="44.33462" lon="0.7888">
        <ele>131</ele>
        <time>2025-10-12T12:45:10.518Z</time>
      </trkpt>
      <trkpt lat="44.33462" lon="0.7888">
        <ele>131</ele>
        <time>2025-10-12T12:45:11.518Z</time>
      </trkpt>
      <trkpt lat="44.33462" lon="0.7888">
        <ele>131</ele>
        <time>2025-10-12T12:45:12.518Z</time>
      </trkpt>
      <trkpt lat="44.33462" lon="0.7888">
        <ele>130</ele>
        <time>2025-10-12T12:45:13.518Z</time>
      </trkpt>
      <trkpt lat="44.33462" lon="0.7888">
        <ele>130</ele>
        <time>2025-10-12T12:45:14.518Z</time>
      </trkpt>
      <trkpt lat="44.33462" lon="0.7888">
        <ele>130</ele>
        <time>2025-10-12T12:45:15.518Z</time>
      </trkpt>
      <trkpt lat="44.33462" lon="0.78881">
        <ele>129</ele>
        <time>2025-10-12T12:45:16.518Z</time>
      </trkpt>
      <trkpt lat="44.33462" lon="0.78881">
        <ele>129</ele>
        <time>2025-10-12T12:45:17.518Z</time>
      </trkpt>
      <trkpt lat="44.33462" lon="0.78881">
        <ele>128</ele>
        <time>2025-10-12T12:45:18.518Z</time>
      </trkpt>
      <trkpt lat="44.33462" lon="0.7888">
        <ele>128</ele>
        <time>2025-10-12T12:45:19.518Z</time>
      </trkpt>
      <trkpt lat="44.33462" lon="0.7888">
        <ele>128</ele>
        <time>2025-10-12T12:45:20.518Z</time>
      </trkpt>
      <trkpt lat="44.33462" lon="0.7888">
        <ele>129</ele>
        <time>2025-10-12T12:45:21.518Z</time>
      </trkpt>
      <trkpt lat="44.33462" lon="0.7888">
        <ele>129</ele>
        <time>2025-10-12T12:45:22.518Z</time>
      </trkpt>
      <trkpt lat="44.33462" lon="0.7888">
        <ele>129</ele>
        <time>2025-10-12T12:45:23.518Z</time>
      </trkpt>
      <trkpt lat="44.33462" lon="0.7888">
        <ele>130</ele>
        <time>2025-10-12T12:45:24.518Z</time>
      </trkpt>
      <trkpt lat="44.33462" lon="0.7888">
        <ele>130</ele>
        <time>2025-10-12T12:45:25.518Z</time>
      </trkpt>
      <trkpt lat="44.33462" lon="0.7888">
        <ele>131</ele>
        <time>2025-10-12T12:45:26.518Z</time>
      </trkpt>
      <trkpt lat="44.33462" lon="0.7888">
        <ele>132</ele>
        <time>2025-10-12T12:45:27.518Z</time>
      </trkpt>
      <trkpt lat="44.33462" lon="0.7888">
        <ele>132</ele>
        <time>2025-10-12T12:45:28.518Z</time>
      </trkpt>
      <trkpt lat="44.33462" lon="0.7888">
        <ele>132</ele>
        <time>2025-10-12T12:45:29.518Z</time>
      </trkpt>
      <trkpt lat="44.33462" lon="0.7888">
        <ele>132</ele>
        <time>2025-10-12T12:45:30.518Z</time>
      </trkpt>
      <trkpt lat="44.33462" lon="0.78881">
        <ele>132</ele>
        <time>2025-10-12T12:45:31.518Z</time>
      </trkpt>
      <trkpt lat="44.33462" lon="0.78881">
        <ele>132</ele>
        <time>2025-10-12T12:45:32.518Z</time>
      </trkpt>
      <trkpt lat="44.33462" lon="0.78881">
        <ele>132</ele>
        <time>2025-10-12T12:45:33.518Z</time>
      </trkpt>
      <trkpt lat="44.33462" lon="0.78881">
        <ele>132</ele>
        <time>2025-10-12T12:45:34.518Z</time>
      </trkpt>
      <trkpt lat="44.33462" lon="0.78881">
        <ele>132</ele>
        <time>2025-10-12T12:45:35.518Z</time>
      </trkpt>
      <trkpt lat="44.33462" lon="0.78881">
        <ele>132</ele>
        <time>2025-10-12T12:45:36.518Z</time>
      </trkpt>
      <trkpt lat="44.33462" lon="0.7888">
        <ele>131</ele>
        <time>2025-10-12T12:45:37.518Z</time>
      </trkpt>
      <trkpt lat="44.33462" lon="0.7888">
        <ele>131</ele>
        <time>2025-10-12T12:45:38.518Z</time>
      </trkpt>
      <trkpt lat="44.33462" lon="0.7888">
        <ele>131</ele>
        <time>2025-10-12T12:45:39.518Z</time>
      </trkpt>
      <trkpt lat="44.33462" lon="0.7888">
        <ele>130</ele>
        <time>2025-10-12T12:45:40.518Z</time>
      </trkpt>
      <trkpt lat="44.33462" lon="0.7888">
        <ele>130</ele>
        <time>2025-10-12T12:45:41.518Z</time>
      </trkpt>
      <trkpt lat="44.33462" lon="0.7888">
        <ele>131</ele>
        <time>2025-10-12T12:45:42.518Z</time>
      </trkpt>
      <trkpt lat="44.33462" lon="0.7888">
        <ele>131</ele>
        <time>2025-10-12T12:45:43.518Z</time>
      </trkpt>
      <trkpt lat="44.33462" lon="0.7888">
        <ele>131</ele>
        <time>2025-10-12T12:45:44.518Z</time>
      </trkpt>
      <trkpt lat="44.33462" lon="0.7888">
        <ele>131</ele>
        <time>2025-10-12T12:45:45.518Z</time>
      </trkpt>
      <trkpt lat="44.33462" lon="0.7888">
        <ele>132</ele>
        <time>2025-10-12T12:45:46.518Z</time>
      </trkpt>
      <trkpt lat="44.33462" lon="0.7888">
        <ele>132</ele>
        <time>2025-10-12T12:45:47.518Z</time>
      </trkpt>
      <trkpt lat="44.33462" lon="0.7888">
        <ele>132</ele>
        <time>2025-10-12T12:45:48.518Z</time>
      </trkpt>
      <trkpt lat="44.33462" lon="0.78881">
        <ele>132</ele>
        <time>2025-10-12T12:45:49.518Z</time>
      </trkpt>
      <trkpt lat="44.33462" lon="0.78881">
        <ele>132</ele>
        <time>2025-10-12T12:45:50.518Z</time>
      </trkpt>
      <trkpt lat="44.33462" lon="0.78881">
        <ele>132</ele>
        <time>2025-10-12T12:45:51.518Z</time>
      </trkpt>
      <trkpt lat="44.33462" lon="0.78881">
        <ele>132</ele>
        <time>2025-10-12T12:45:52.518Z</time>
      </trkpt>
      <trkpt lat="44.33462" lon="0.78881">
        <ele>131</ele>
        <time>2025-10-12T12:45:53.518Z</time>
      </trkpt>
      <trkpt lat="44.33462" lon="0.78881">
        <ele>131</ele>
        <time>2025-10-12T12:45:54.518Z</time>
      </trkpt>
      <trkpt lat="44.33462" lon="0.78881">
        <ele>131</ele>
        <time>2025-10-12T12:45:55.518Z</time>
      </trkpt>
      <trkpt lat="44.33463" lon="0.78882">
        <ele>131</ele>
        <time>2025-10-12T12:45:56.518Z</time>
      </trkpt>
      <trkpt lat="44.33464" lon="0.78882">
        <ele>131</ele>
        <time>2025-10-12T12:45:57.518Z</time>
      </trkpt>
      <trkpt lat="44.33464" lon="0.78882">
        <ele>131</ele>
        <time>2025-10-12T12:45:58.518Z</time>
      </trkpt>
      <trkpt lat="44.33464" lon="0.78882">
        <ele>131</ele>
        <time>2025-10-12T12:45:59.518Z</time>
      </trkpt>
      <trkpt lat="44.33464" lon="0.78882">
        <ele>131</ele>
        <time>2025-10-12T12:46:00.518Z</time>
      </trkpt>
      <trkpt lat="44.33464" lon="0.78882">
        <ele>131</ele>
        <time>2025-10-12T12:46:01.518Z</time>
      </trkpt>
      <trkpt lat="44.33464" lon="0.78882">
        <ele>131</ele>
        <time>2025-10-12T12:46:02.518Z</time>
      </trkpt>
      <trkpt lat="44.33464" lon="0.78882">
        <ele>130</ele>
        <time>2025-10-12T12:46:03.518Z</time>
      </trkpt>
      <trkpt lat="44.33464" lon="0.78882">
        <ele>130</ele>
        <time>2025-10-12T12:46:04.518Z</time>
      </trkpt>
      <trkpt lat="44.33464" lon="0.78881">
        <ele>130</ele>
        <time>2025-10-12T12:46:05.518Z</time>
      </trkpt>
      <trkpt lat="44.33464" lon="0.78881">
        <ele>130</ele>
        <time>2025-10-12T12:46:06.518Z</time>
      </trkpt>
      <trkpt lat="44.33464" lon="0.78881">
        <ele>130</ele>
        <time>2025-10-12T12:46:07.518Z</time>
      </trkpt>
      <trkpt lat="44.33464" lon="0.78881">
        <ele>130</ele>
        <time>2025-10-12T12:46:08.518Z</time>
      </trkpt>
      <trkpt lat="44.33464" lon="0.78881">
        <ele>130</ele>
        <time>2025-10-12T12:46:09.518Z</time>
      </trkpt>
      <trkpt lat="44.33464" lon="0.78881">
        <ele>130</ele>
        <time>2025-10-12T12:46:10.518Z</time>
      </trkpt>
      <trkpt lat="44.33463" lon="0.78881">
        <ele>130</ele>
        <time>2025-10-12T12:46:11.518Z</time>
      </trkpt>
      <trkpt lat="44.33463" lon="0.78881">
        <ele>129</ele>
        <time>2025-10-12T12:46:12.518Z</time>
      </trkpt>
      <trkpt lat="44.33463" lon="0.78881">
        <ele>129</ele>
        <time>2025-10-12T12:46:13.518Z</time>
      </trkpt>
      <trkpt lat="44.33463" lon="0.78881">
        <ele>128</ele>
        <time>2025-10-12T12:46:14.518Z</time>
      </trkpt>
      <trkpt lat="44.33463" lon="0.78881">
        <ele>128</ele>
        <time>2025-10-12T12:46:15.518Z</time>
      </trkpt>
      <trkpt lat="44.33463" lon="0.78881">
        <ele>127</ele>
        <time>2025-10-12T12:46:16.518Z</time>
      </trkpt>
      <trkpt lat="44.33463" lon="0.78881">
        <ele>127</ele>
        <time>2025-10-12T12:46:17.518Z</time>
      </trkpt>
      <trkpt lat="44.33464" lon="0.78882">
        <ele>127</ele>
        <time>2025-10-12T12:46:18.518Z</time>
      </trkpt>
      <trkpt lat="44.33464" lon="0.78883">
        <ele>127</ele>
        <time>2025-10-12T12:46:19.518Z</time>
      </trkpt>
      <trkpt lat="44.33464" lon="0.78883">
        <ele>127</ele>
        <time>2025-10-12T12:46:20.518Z</time>
      </trkpt>
      <trkpt lat="44.33465" lon="0.78884">
        <ele>127</ele>
        <time>2025-10-12T12:46:21.518Z</time>
      </trkpt>
      <trkpt lat="44.33465" lon="0.78884">
        <ele>127</ele>
        <time>2025-10-12T12:46:22.518Z</time>
      </trkpt>
      <trkpt lat="44.33465" lon="0.78884">
        <ele>127</ele>
        <time>2025-10-12T12:46:23.518Z</time>
      </trkpt>
      <trkpt lat="44.33465" lon="0.78884">
        <ele>127</ele>
        <time>2025-10-12T12:46:24.518Z</time>
      </trkpt>
      <trkpt lat="44.33465" lon="0.78884">
        <ele>127</ele>
        <time>2025-10-12T12:46:25.518Z</time>
      </trkpt>
      <trkpt lat="44.33465" lon="0.78883">
        <ele>127</ele>
        <time>2025-10-12T12:46:26.518Z</time>
      </trkpt>
      <trkpt lat="44.33466" lon="0.78883">
        <ele>127</ele>
        <time>2025-10-12T12:46:27.518Z</time>
      </trkpt>
      <trkpt lat="44.33466" lon="0.78883">
        <ele>127</ele>
        <time>2025-10-12T12:46:28.518Z</time>
      </trkpt>
      <trkpt lat="44.33467" lon="0.78883">
        <ele>128</ele>
        <time>2025-10-12T12:46:29.518Z</time>
      </trkpt>
      <trkpt lat="44.33468" lon="0.78883">
        <ele>128</ele>
        <time>2025-10-12T12:46:30.518Z</time>
      </trkpt>
      <trkpt lat="44.33469" lon="0.78882">
        <ele>129</ele>
        <time>2025-10-12T12:46:31.518Z</time>
      </trkpt>
      <trkpt lat="44.3347" lon="0.78882">
        <ele>129</ele>
        <time>2025-10-12T12:46:32.518Z</time>
      </trkpt>
      <trkpt lat="44.33471" lon="0.78883">
        <ele>130</ele>
        <time>2025-10-12T12:46:33.518Z</time>
      </trkpt>
      <trkpt lat="44.33472" lon="0.78883">
        <ele>130</ele>
        <time>2025-10-12T12:46:34.518Z</time>
      </trkpt>
      <trkpt lat="44.33473" lon="0.78884">
        <ele>130</ele>
        <time>2025-10-12T12:46:35.518Z</time>
      </trkpt>
      <trkpt lat="44.33474" lon="0.78885">
        <ele>130</ele>
        <time>2025-10-12T12:46:36.518Z</time>
      </trkpt>
      <trkpt lat="44.33475" lon="0.78885">
        <ele>130</ele>
        <time>2025-10-12T12:46:37.518Z</time>
      </trkpt>
      <trkpt lat="44.33476" lon="0.78886">
        <ele>130</ele>
        <time>2025-10-12T12:46:38.518Z</time>
      </trkpt>
      <trkpt lat="44.33477" lon="0.78886">
        <ele>130</ele>
        <time>2025-10-12T12:46:39.518Z</time>
      </trkpt>
      <trkpt lat="44.33477" lon="0.78887">
        <ele>130</ele>
        <time>2025-10-12T12:46:40.518Z</time>
      </trkpt>
      <trkpt lat="44.33478" lon="0.78887">
        <ele>130</ele>
        <time>2025-10-12T12:46:41.518Z</time>
      </trkpt>
      <trkpt lat="44.33479" lon="0.78888">
        <ele>130</ele>
        <time>2025-10-12T12:46:42.518Z</time>
      </trkpt>
      <trkpt lat="44.33481" lon="0.78889">
        <ele>130</ele>
        <time>2025-10-12T12:46:43.518Z</time>
      </trkpt>
      <trkpt lat="44.33482" lon="0.78891">
        <ele>130</ele>
        <time>2025-10-12T12:46:44.518Z</time>
      </trkpt>
      <trkpt lat="44.33482" lon="0.78891">
        <ele>130</ele>
        <time>2025-10-12T12:46:45.518Z</time>
      </trkpt>
      <trkpt lat="44.33482" lon="0.78891">
        <ele>131</ele>
        <time>2025-10-12T12:46:46.518Z</time>
      </trkpt>
      <trkpt lat="44.33483" lon="0.78891">
        <ele>131</ele>
        <time>2025-10-12T12:46:47.518Z</time>
      </trkpt>
      <trkpt lat="44.33483" lon="0.78891">
        <ele>131</ele>
        <time>2025-10-12T12:46:48.518Z</time>
      </trkpt>
      <trkpt lat="44.33484" lon="0.78891">
        <ele>131</ele>
        <time>2025-10-12T12:46:49.518Z</time>
      </trkpt>
      <trkpt lat="44.33485" lon="0.78892">
        <ele>131</ele>
        <time>2025-10-12T12:46:50.518Z</time>
      </trkpt>
      <trkpt lat="44.33486" lon="0.78892">
        <ele>131</ele>
        <time>2025-10-12T12:46:51.518Z</time>
      </trkpt>
      <trkpt lat="44.33487" lon="0.78893">
        <ele>131</ele>
        <time>2025-10-12T12:46:52.518Z</time>
      </trkpt>
      <trkpt lat="44.33488" lon="0.78893">
        <ele>131</ele>
        <time>2025-10-12T12:46:53.518Z</time>
      </trkpt>
      <trkpt lat="44.33489" lon="0.78894">
        <ele>131</ele>
        <time>2025-10-12T12:46:54.518Z</time>
      </trkpt>
      <trkpt lat="44.3349" lon="0.78894">
        <ele>131</ele>
        <time>2025-10-12T12:46:55.518Z</time>
      </trkpt>
      <trkpt lat="44.33491" lon="0.78895">
        <ele>131</ele>
        <time>2025-10-12T12:46:56.518Z</time>
      </trkpt>
      <trkpt lat="44.33492" lon="0.78896">
        <ele>131</ele>
        <time>2025-10-12T12:46:57.518Z</time>
      </trkpt>
      <trkpt lat="44.33493" lon="0.78898">
        <ele>130</ele>
        <time>2025-10-12T12:46:58.518Z</time>
      </trkpt>
      <trkpt lat="44.33494" lon="0.78899">
        <ele>130</ele>
        <time>2025-10-12T12:46:59.518Z</time>
      </trkpt>
      <trkpt lat="44.33494" lon="0.789">
        <ele>130</ele>
        <time>2025-10-12T12:47:00.518Z</time>
      </trkpt>
      <trkpt lat="44.33495" lon="0.78901">
        <ele>130</ele>
        <time>2025-10-12T12:47:01.518Z</time>
      </trkpt>
      <trkpt lat="44.33496" lon="0.78902">
        <ele>130</ele>
        <time>2025-10-12T12:47:02.518Z</time>
      </trkpt>
      <trkpt lat="44.33497" lon="0.78902">
        <ele>130</ele>
        <time>2025-10-12T12:47:03.518Z</time>
      </trkpt>
      <trkpt lat="44.33498" lon="0.78903">
        <ele>130</ele>
        <time>2025-10-12T12:47:04.518Z</time>
      </trkpt>
      <trkpt lat="44.33499" lon="0.78904">
        <ele>130</ele>
        <time>2025-10-12T12:47:05.518Z</time>
      </trkpt>
      <trkpt lat="44.335" lon="0.78905">
        <ele>129</ele>
        <time>2025-10-12T12:47:06.518Z</time>
      </trkpt>
      <trkpt lat="44.33501" lon="0.78905">
        <ele>129</ele>
        <time>2025-10-12T12:47:07.518Z</time>
      </trkpt>
      <trkpt lat="44.33502" lon="0.78906">
        <ele>129</ele>
        <time>2025-10-12T12:47:08.518Z</time>
      </trkpt>
      <trkpt lat="44.33503" lon="0.78907">
        <ele>130</ele>
        <time>2025-10-12T12:47:09.518Z</time>
      </trkpt>
      <trkpt lat="44.33504" lon="0.78908">
        <ele>130</ele>
        <time>2025-10-12T12:47:10.518Z</time>
      </trkpt>
      <trkpt lat="44.33505" lon="0.78909">
        <ele>130</ele>
        <time>2025-10-12T12:47:11.518Z</time>
      </trkpt>
      <trkpt lat="44.33506" lon="0.7891">
        <ele>130</ele>
        <time>2025-10-12T12:47:12.518Z</time>
      </trkpt>
      <trkpt lat="44.33507" lon="0.78911">
        <ele>130</ele>
        <time>2025-10-12T12:47:13.518Z</time>
      </trkpt>
      <trkpt lat="44.33509" lon="0.78912">
        <ele>130</ele>
        <time>2025-10-12T12:47:14.518Z</time>
      </trkpt>
      <trkpt lat="44.3351" lon="0.78913">
        <ele>129</ele>
        <time>2025-10-12T12:47:15.518Z</time>
      </trkpt>
      <trkpt lat="44.33511" lon="0.78914">
        <ele>129</ele>
        <time>2025-10-12T12:47:16.518Z</time>
      </trkpt>
      <trkpt lat="44.33512" lon="0.78915">
        <ele>129</ele>
        <time>2025-10-12T12:47:17.518Z</time>
      </trkpt>
      <trkpt lat="44.33512" lon="0.78915">
        <ele>129</ele>
        <time>2025-10-12T12:47:18.518Z</time>
      </trkpt>
      <trkpt lat="44.33513" lon="0.78916">
        <ele>129</ele>
        <time>2025-10-12T12:47:19.518Z</time>
      </trkpt>
      <trkpt lat="44.33514" lon="0.78917">
        <ele>129</ele>
        <time>2025-10-12T12:47:20.518Z</time>
      </trkpt>
      <trkpt lat="44.33514" lon="0.78918">
        <ele>129</ele>
        <time>2025-10-12T12:47:21.518Z</time>
      </trkpt>
      <trkpt lat="44.33515" lon="0.78919">
        <ele>128</ele>
        <time>2025-10-12T12:47:22.518Z</time>
      </trkpt>
      <trkpt lat="44.33515" lon="0.78919">
        <ele>128</ele>
        <time>2025-10-12T12:47:23.518Z</time>
      </trkpt>
      <trkpt lat="44.33516" lon="0.7892">
        <ele>127</ele>
        <time>2025-10-12T12:47:24.518Z</time>
      </trkpt>
      <trkpt lat="44.33517" lon="0.7892">
        <ele>127</ele>
        <time>2025-10-12T12:47:25.518Z</time>
      </trkpt>
      <trkpt lat="44.33518" lon="0.78921">
        <ele>127</ele>
        <time>2025-10-12T12:47:26.518Z</time>
      </trkpt>
      <trkpt lat="44.33518" lon="0.78921">
        <ele>127</ele>
        <time>2025-10-12T12:47:27.518Z</time>
      </trkpt>
      <trkpt lat="44.33519" lon="0.78921">
        <ele>127</ele>
        <time>2025-10-12T12:47:28.518Z</time>
      </trkpt>
      <trkpt lat="44.3352" lon="0.78921">
        <ele>127</ele>
        <time>2025-10-12T12:47:29.518Z</time>
      </trkpt>
      <trkpt lat="44.33521" lon="0.78922">
        <ele>128</ele>
        <time>2025-10-12T12:47:30.518Z</time>
      </trkpt>
      <trkpt lat="44.33522" lon="0.78922">
        <ele>128</ele>
        <time>2025-10-12T12:47:31.518Z</time>
      </trkpt>
      <trkpt lat="44.33522" lon="0.78922">
        <ele>128</ele>
        <time>2025-10-12T12:47:32.518Z</time>
      </trkpt>
      <trkpt lat="44.33523" lon="0.78922">
        <ele>128</ele>
        <time>2025-10-12T12:47:33.518Z</time>
      </trkpt>
      <trkpt lat="44.33524" lon="0.78922">
        <ele>128</ele>
        <time>2025-10-12T12:47:34.518Z</time>
      </trkpt>
      <trkpt lat="44.33524" lon="0.78922">
        <ele>128</ele>
        <time>2025-10-12T12:47:35.518Z</time>
      </trkpt>
      <trkpt lat="44.33525" lon="0.78921">
        <ele>128</ele>
        <time>2025-10-12T12:47:36.518Z</time>
      </trkpt>
      <trkpt lat="44.33526" lon="0.78921">
        <ele>129</ele>
        <time>2025-10-12T12:47:37.518Z</time>
      </trkpt>
      <trkpt lat="44.33527" lon="0.78922">
        <ele>129</ele>
        <time>2025-10-12T12:47:38.518Z</time>
      </trkpt>
      <trkpt lat="44.33528" lon="0.78923">
        <ele>129</ele>
        <time>2025-10-12T12:47:39.518Z</time>
      </trkpt>
      <trkpt lat="44.33529" lon="0.78924">
        <ele>129</ele>
        <time>2025-10-12T12:47:40.518Z</time>
      </trkpt>
      <trkpt lat="44.3353" lon="0.78925">
        <ele>129</ele>
        <time>2025-10-12T12:47:41.518Z</time>
      </trkpt>
      <trkpt lat="44.33531" lon="0.78926">
        <ele>129</ele>
        <time>2025-10-12T12:47:42.518Z</time>
      </trkpt>
      <trkpt lat="44.33532" lon="0.78927">
        <ele>129</ele>
        <time>2025-10-12T12:47:43.518Z</time>
      </trkpt>
      <trkpt lat="44.33533" lon="0.78928">
        <ele>129</ele>
        <time>2025-10-12T12:47:44.518Z</time>
      </trkpt>
      <trkpt lat="44.33534" lon="0.78929">
        <ele>129</ele>
        <time>2025-10-12T12:47:45.518Z</time>
      </trkpt>
      <trkpt lat="44.33536" lon="0.7893">
        <ele>129</ele>
        <time>2025-10-12T12:47:46.518Z</time>
      </trkpt>
      <trkpt lat="44.33536" lon="0.7893">
        <ele>129</ele>
        <time>2025-10-12T12:47:47.518Z</time>
      </trkpt>
      <trkpt lat="44.33538" lon="0.78931">
        <ele>128</ele>
        <time>2025-10-12T12:47:48.518Z</time>
      </trkpt>
      <trkpt lat="44.33538" lon="0.78932">
        <ele>128</ele>
        <time>2025-10-12T12:47:49.518Z</time>
      </trkpt>
      <trkpt lat="44.33539" lon="0.78933">
        <ele>127</ele>
        <time>2025-10-12T12:47:50.518Z</time>
      </trkpt>
      <trkpt lat="44.3354" lon="0.78934">
        <ele>127</ele>
        <time>2025-10-12T12:47:51.518Z</time>
      </trkpt>
      <trkpt lat="44.33541" lon="0.78934">
        <ele>127</ele>
        <time>2025-10-12T12:47:52.518Z</time>
      </trkpt>
      <trkpt lat="44.33542" lon="0.78935">
        <ele>126</ele>
        <time>2025-10-12T12:47:53.518Z</time>
      </trkpt>
      <trkpt lat="44.33543" lon="0.78936">
        <ele>126</ele>
        <time>2025-10-12T12:47:54.518Z</time>
      </trkpt>
      <trkpt lat="44.33544" lon="0.78937">
        <ele>126</ele>
        <time>2025-10-12T12:47:55.518Z</time>
      </trkpt>
      <trkpt lat="44.33545" lon="0.78937">
        <ele>126</ele>
        <time>2025-10-12T12:47:56.518Z</time>
      </trkpt>
      <trkpt lat="44.33546" lon="0.78938">
        <ele>126</ele>
        <time>2025-10-12T12:47:57.518Z</time>
      </trkpt>
      <trkpt lat="44.33547" lon="0.78939">
        <ele>125</ele>
        <time>2025-10-12T12:47:58.518Z</time>
      </trkpt>
      <trkpt lat="44.33548" lon="0.78939">
        <ele>125</ele>
        <time>2025-10-12T12:47:59.518Z</time>
      </trkpt>
      <trkpt lat="44.3355" lon="0.7894">
        <ele>125</ele>
        <time>2025-10-12T12:48:00.518Z</time>
      </trkpt>
      <trkpt lat="44.33551" lon="0.78941">
        <ele>124</ele>
        <time>2025-10-12T12:48:01.518Z</time>
      </trkpt>
      <trkpt lat="44.33552" lon="0.78942">
        <ele>124</ele>
        <time>2025-10-12T12:48:02.518Z</time>
      </trkpt>
      <trkpt lat="44.33553" lon="0.78943">
        <ele>124</ele>
        <time>2025-10-12T12:48:03.518Z</time>
      </trkpt>
      <trkpt lat="44.33554" lon="0.78944">
        <ele>124</ele>
        <time>2025-10-12T12:48:04.518Z</time>
      </trkpt>
      <trkpt lat="44.33555" lon="0.78944">
        <ele>124</ele>
        <time>2025-10-12T12:48:05.518Z</time>
      </trkpt>
      <trkpt lat="44.33556" lon="0.78944">
        <ele>124</ele>
        <time>2025-10-12T12:48:06.518Z</time>
      </trkpt>
      <trkpt lat="44.33556" lon="0.78944">
        <ele>125</ele>
        <time>2025-10-12T12:48:07.518Z</time>
      </trkpt>
      <trkpt lat="44.33557" lon="0.78945">
        <ele>125</ele>
        <time>2025-10-12T12:48:08.518Z</time>
      </trkpt>
      <trkpt lat="44.33558" lon="0.78946">
        <ele>125</ele>
        <time>2025-10-12T12:48:09.518Z</time>
      </trkpt>
      <trkpt lat="44.33559" lon="0.78946">
        <ele>125</ele>
        <time>2025-10-12T12:48:10.518Z</time>
      </trkpt>
      <trkpt lat="44.3356" lon="0.78947">
        <ele>125</ele>
        <time>2025-10-12T12:48:11.518Z</time>
      </trkpt>
      <trkpt lat="44.33562" lon="0.78948">
        <ele>125</ele>
        <time>2025-10-12T12:48:12.518Z</time>
      </trkpt>
      <trkpt lat="44.33563" lon="0.78949">
        <ele>125</ele>
        <time>2025-10-12T12:48:13.518Z</time>
      </trkpt>
      <trkpt lat="44.33564" lon="0.78949">
        <ele>126</ele>
        <time>2025-10-12T12:48:14.518Z</time>
      </trkpt>
      <trkpt lat="44.33565" lon="0.7895">
        <ele>126</ele>
        <time>2025-10-12T12:48:15.518Z</time>
      </trkpt>
      <trkpt lat="44.33567" lon="0.78951">
        <ele>126</ele>
        <time>2025-10-12T12:48:16.518Z</time>
      </trkpt>
      <trkpt lat="44.33567" lon="0.78952">
        <ele>126</ele>
        <time>2025-10-12T12:48:17.518Z</time>
      </trkpt>
      <trkpt lat="44.33568" lon="0.78953">
        <ele>126</ele>
        <time>2025-10-12T12:48:18.518Z</time>
      </trkpt>
      <trkpt lat="44.33569" lon="0.78953">
        <ele>127</ele>
        <time>2025-10-12T12:48:19.518Z</time>
      </trkpt>
      <trkpt lat="44.3357" lon="0.78954">
        <ele>127</ele>
        <time>2025-10-12T12:48:20.518Z</time>
      </trkpt>
      <trkpt lat="44.33573" lon="0.78955">
        <ele>126</ele>
        <time>2025-10-12T12:48:21.518Z</time>
      </trkpt>
      <trkpt lat="44.33574" lon="0.78956">
        <ele>126</ele>
        <time>2025-10-12T12:48:22.518Z</time>
      </trkpt>
      <trkpt lat="44.33575" lon="0.78957">
        <ele>125</ele>
        <time>2025-10-12T12:48:23.518Z</time>
      </trkpt>
      <trkpt lat="44.33575" lon="0.78958">
        <ele>125</ele>
        <time>2025-10-12T12:48:24.518Z</time>
      </trkpt>
      <trkpt lat="44.33575" lon="0.78959">
        <ele>125</ele>
        <time>2025-10-12T12:48:25.518Z</time>
      </trkpt>
      <trkpt lat="44.33576" lon="0.7896">
        <ele>124</ele>
        <time>2025-10-12T12:48:26.518Z</time>
      </trkpt>
      <trkpt lat="44.33577" lon="0.78962">
        <ele>124</ele>
        <time>2025-10-12T12:48:27.518Z</time>
      </trkpt>
      <trkpt lat="44.33577" lon="0.78963">
        <ele>124</ele>
        <time>2025-10-12T12:48:28.518Z</time>
      </trkpt>
      <trkpt lat="44.33578" lon="0.78964">
        <ele>123</ele>
        <time>2025-10-12T12:48:29.518Z</time>
      </trkpt>
      <trkpt lat="44.33579" lon="0.78965">
        <ele>123</ele>
        <time>2025-10-12T12:48:30.518Z</time>
      </trkpt>
      <trkpt lat="44.33579" lon="0.78966">
        <ele>123</ele>
        <time>2025-10-12T12:48:31.518Z</time>
      </trkpt>
      <trkpt lat="44.33579" lon="0.78967">
        <ele>123</ele>
        <time>2025-10-12T12:48:32.518Z</time>
      </trkpt>
      <trkpt lat="44.3358" lon="0.78968">
        <ele>122</ele>
        <time>2025-10-12T12:48:33.518Z</time>
      </trkpt>
      <trkpt lat="44.3358" lon="0.78968">
        <ele>122</ele>
        <time>2025-10-12T12:48:34.518Z</time>
      </trkpt>
      <trkpt lat="44.3358" lon="0.78969">
        <ele>122</ele>
        <time>2025-10-12T12:48:35.518Z</time>
      </trkpt>
      <trkpt lat="44.33581" lon="0.7897">
        <ele>122</ele>
        <time>2025-10-12T12:48:36.518Z</time>
      </trkpt>
      <trkpt lat="44.33581" lon="0.7897">
        <ele>122</ele>
        <time>2025-10-12T12:48:37.518Z</time>
      </trkpt>
      <trkpt lat="44.33581" lon="0.7897">
        <ele>122</ele>
        <time>2025-10-12T12:48:38.518Z</time>
      </trkpt>
      <trkpt lat="44.33581" lon="0.7897">
        <ele>121</ele>
        <time>2025-10-12T12:48:39.518Z</time>
      </trkpt>
      <trkpt lat="44.33581" lon="0.7897">
        <ele>121</ele>
        <time>2025-10-12T12:48:40.518Z</time>
      </trkpt>
      <trkpt lat="44.33581" lon="0.7897">
        <ele>121</ele>
        <time>2025-10-12T12:48:41.518Z</time>
      </trkpt>
      <trkpt lat="44.33581" lon="0.78971">
        <ele>121</ele>
        <time>2025-10-12T12:48:42.518Z</time>
      </trkpt>
      <trkpt lat="44.33581" lon="0.78971">
        <ele>120</ele>
        <time>2025-10-12T12:48:43.518Z</time>
      </trkpt>
      <trkpt lat="44.33581" lon="0.78971">
        <ele>120</ele>
        <time>2025-10-12T12:48:44.518Z</time>
      </trkpt>
      <trkpt lat="44.33581" lon="0.78971">
        <ele>120</ele>
        <time>2025-10-12T12:48:45.518Z</time>
      </trkpt>
      <trkpt lat="44.33581" lon="0.78971">
        <ele>120</ele>
        <time>2025-10-12T12:48:46.518Z</time>
      </trkpt>
      <trkpt lat="44.33581" lon="0.78971">
        <ele>119</ele>
        <time>2025-10-12T12:48:47.518Z</time>
      </trkpt>
      <trkpt lat="44.33581" lon="0.78971">
        <ele>119</ele>
        <time>2025-10-12T12:48:48.518Z</time>
      </trkpt>
      <trkpt lat="44.3358" lon="0.78971">
        <ele>119</ele>
        <time>2025-10-12T12:48:49.518Z</time>
      </trkpt>
      <trkpt lat="44.3358" lon="0.78972">
        <ele>118</ele>
        <time>2025-10-12T12:48:50.518Z</time>
      </trkpt>
      <trkpt lat="44.3358" lon="0.78972">
        <ele>118</ele>
        <time>2025-10-12T12:48:51.518Z</time>
      </trkpt>
      <trkpt lat="44.3358" lon="0.78972">
        <ele>117</ele>
        <time>2025-10-12T12:48:52.518Z</time>
      </trkpt>
      <trkpt lat="44.33581" lon="0.78972">
        <ele>117</ele>
        <time>2025-10-12T12:48:53.518Z</time>
      </trkpt>
      <trkpt lat="44.33581" lon="0.78971">
        <ele>116</ele>
        <time>2025-10-12T12:48:54.518Z</time>
      </trkpt>
      <trkpt lat="44.33581" lon="0.78971">
        <ele>116</ele>
        <time>2025-10-12T12:48:55.518Z</time>
      </trkpt>
      <trkpt lat="44.33581" lon="0.78971">
        <ele>115</ele>
        <time>2025-10-12T12:48:56.518Z</time>
      </trkpt>
      <trkpt lat="44.33581" lon="0.78971">
        <ele>115</ele>
        <time>2025-10-12T12:48:57.518Z</time>
      </trkpt>
      <trkpt lat="44.33581" lon="0.78971">
        <ele>115</ele>
        <time>2025-10-12T12:48:58.518Z</time>
      </trkpt>
      <trkpt lat="44.33581" lon="0.78971">
        <ele>115</ele>
        <time>2025-10-12T12:48:59.518Z</time>
      </trkpt>
      <trkpt lat="44.33581" lon="0.78971">
        <ele>114</ele>
        <time>2025-10-12T12:49:00.518Z</time>
      </trkpt>
      <trkpt lat="44.33581" lon="0.78971">
        <ele>114</ele>
        <time>2025-10-12T12:49:01.518Z</time>
      </trkpt>
      <trkpt lat="44.33581" lon="0.78971">
        <ele>114</ele>
        <time>2025-10-12T12:49:02.518Z</time>
      </trkpt>
      <trkpt lat="44.33581" lon="0.78971">
        <ele>114</ele>
        <time>2025-10-12T12:49:03.518Z</time>
      </trkpt>
      <trkpt lat="44.33581" lon="0.78971">
        <ele>114</ele>
        <time>2025-10-12T12:49:04.518Z</time>
      </trkpt>
      <trkpt lat="44.3358" lon="0.78971">
        <ele>115</ele>
        <time>2025-10-12T12:49:05.518Z</time>
      </trkpt>
      <trkpt lat="44.3358" lon="0.78972">
        <ele>115</ele>
        <time>2025-10-12T12:49:06.518Z</time>
      </trkpt>
      <trkpt lat="44.3358" lon="0.78972">
        <ele>115</ele>
        <time>2025-10-12T12:49:07.518Z</time>
      </trkpt>
      <trkpt lat="44.3358" lon="0.78972">
        <ele>115</ele>
        <time>2025-10-12T12:49:08.518Z</time>
      </trkpt>
      <trkpt lat="44.3358" lon="0.78972">
        <ele>116</ele>
        <time>2025-10-12T12:49:09.518Z</time>
      </trkpt>
      <trkpt lat="44.33579" lon="0.78972">
        <ele>117</ele>
        <time>2025-10-12T12:49:10.518Z</time>
      </trkpt>
      <trkpt lat="44.33579" lon="0.78972">
        <ele>117</ele>
        <time>2025-10-12T12:49:11.518Z</time>
      </trkpt>
      <trkpt lat="44.33579" lon="0.78972">
        <ele>118</ele>
        <time>2025-10-12T12:49:12.518Z</time>
      </trkpt>
      <trkpt lat="44.33579" lon="0.78972">
        <ele>119</ele>
        <time>2025-10-12T12:49:13.518Z</time>
      </trkpt>
      <trkpt lat="44.33579" lon="0.78972">
        <ele>120</ele>
        <time>2025-10-12T12:49:14.518Z</time>
      </trkpt>
      <trkpt lat="44.33579" lon="0.78972">
        <ele>120</ele>
        <time>2025-10-12T12:49:15.518Z</time>
      </trkpt>
      <trkpt lat="44.33579" lon="0.78972">
        <ele>121</ele>
        <time>2025-10-12T12:49:16.518Z</time>
      </trkpt>
      <trkpt lat="44.33579" lon="0.78972">
        <ele>121</ele>
        <time>2025-10-12T12:49:17.518Z</time>
      </trkpt>
      <trkpt lat="44.33579" lon="0.78972">
        <ele>122</ele>
        <time>2025-10-12T12:49:18.518Z</time>
      </trkpt>
      <trkpt lat="44.33579" lon="0.78972">
        <ele>122</ele>
        <time>2025-10-12T12:49:19.518Z</time>
      </trkpt>
      <trkpt lat="44.33579" lon="0.78972">
        <ele>123</ele>
        <time>2025-10-12T12:49:20.518Z</time>
      </trkpt>
      <trkpt lat="44.33579" lon="0.78972">
        <ele>123</ele>
        <time>2025-10-12T12:49:21.518Z</time>
      </trkpt>
      <trkpt lat="44.33579" lon="0.78972">
        <ele>123</ele>
        <time>2025-10-12T12:49:22.518Z</time>
      </trkpt>
      <trkpt lat="44.33579" lon="0.78972">
        <ele>123</ele>
        <time>2025-10-12T12:49:23.518Z</time>
      </trkpt>
      <trkpt lat="44.33579" lon="0.78972">
        <ele>123</ele>
        <time>2025-10-12T12:49:24.518Z</time>
      </trkpt>
      <trkpt lat="44.33579" lon="0.78972">
        <ele>123</ele>
        <time>2025-10-12T12:49:25.518Z</time>
      </trkpt>
      <trkpt lat="44.3358" lon="0.78972">
        <ele>123</ele>
        <time>2025-10-12T12:49:26.518Z</time>
      </trkpt>
      <trkpt lat="44.3358" lon="0.78972">
        <ele>123</ele>
        <time>2025-10-12T12:49:27.518Z</time>
      </trkpt>
      <trkpt lat="44.3358" lon="0.78972">
        <ele>123</ele>
        <time>2025-10-12T12:49:28.518Z</time>
      </trkpt>
      <trkpt lat="44.3358" lon="0.78972">
        <ele>123</ele>
        <time>2025-10-12T12:49:29.518Z</time>
      </trkpt>
      <trkpt lat="44.3358" lon="0.78972">
        <ele>124</ele>
        <time>2025-10-12T12:49:30.518Z</time>
      </trkpt>
      <trkpt lat="44.3358" lon="0.78972">
        <ele>124</ele>
        <time>2025-10-12T12:49:31.518Z</time>
      </trkpt>
      <trkpt lat="44.3358" lon="0.78972">
        <ele>125</ele>
        <time>2025-10-12T12:49:32.518Z</time>
      </trkpt>
      <trkpt lat="44.3358" lon="0.78972">
        <ele>125</ele>
        <time>2025-10-12T12:49:33.518Z</time>
      </trkpt>
      <trkpt lat="44.3358" lon="0.78972">
        <ele>126</ele>
        <time>2025-10-12T12:49:34.518Z</time>
      </trkpt>
      <trkpt lat="44.3358" lon="0.78972">
        <ele>126</ele>
        <time>2025-10-12T12:49:35.518Z</time>
      </trkpt>
      <trkpt lat="44.3358" lon="0.78972">
        <ele>126</ele>
        <time>2025-10-12T12:49:36.518Z</time>
      </trkpt>
      <trkpt lat="44.3358" lon="0.78972">
        <ele>126</ele>
        <time>2025-10-12T12:49:37.518Z</time>
      </trkpt>
      <trkpt lat="44.3358" lon="0.78972">
        <ele>126</ele>
        <time>2025-10-12T12:49:38.518Z</time>
      </trkpt>
      <trkpt lat="44.3358" lon="0.78972">
        <ele>126</ele>
        <time>2025-10-12T12:49:39.518Z</time>
      </trkpt>
      <trkpt lat="44.3358" lon="0.78972">
        <ele>126</ele>
        <time>2025-10-12T12:49:40.518Z</time>
      </trkpt>
      <trkpt lat="44.3358" lon="0.78972">
        <ele>126</ele>
        <time>2025-10-12T12:49:41.518Z</time>
      </trkpt>
      <trkpt lat="44.3358" lon="0.78972">
        <ele>126</ele>
        <time>2025-10-12T12:49:42.518Z</time>
      </trkpt>
      <trkpt lat="44.3358" lon="0.78971">
        <ele>125</ele>
        <time>2025-10-12T12:49:43.518Z</time>
      </trkpt>
      <trkpt lat="44.3358" lon="0.78971">
        <ele>125</ele>
        <time>2025-10-12T12:49:44.518Z</time>
      </trkpt>
      <trkpt lat="44.3358" lon="0.78971">
        <ele>125</ele>
        <time>2025-10-12T12:49:45.518Z</time>
      </trkpt>
      <trkpt lat="44.3358" lon="0.78971">
        <ele>124</ele>
        <time>2025-10-12T12:49:46.518Z</time>
      </trkpt>
      <trkpt lat="44.33581" lon="0.78971">
        <ele>124</ele>
        <time>2025-10-12T12:49:47.518Z</time>
      </trkpt>
      <trkpt lat="44.33581" lon="0.78971">
        <ele>124</ele>
        <time>2025-10-12T12:49:48.518Z</time>
      </trkpt>
      <trkpt lat="44.33581" lon="0.78971">
        <ele>125</ele>
        <time>2025-10-12T12:49:49.518Z</time>
      </trkpt>
      <trkpt lat="44.33581" lon="0.78971">
        <ele>125</ele>
        <time>2025-10-12T12:49:50.518Z</time>
      </trkpt>
      <trkpt lat="44.3358" lon="0.78971">
        <ele>126</ele>
        <time>2025-10-12T12:49:51.518Z</time>
      </trkpt>
      <trkpt lat="44.3358" lon="0.78971">
        <ele>126</ele>
        <time>2025-10-12T12:49:52.518Z</time>
      </trkpt>
      <trkpt lat="44.3358" lon="0.78971">
        <ele>127</ele>
        <time>2025-10-12T12:49:53.518Z</time>
      </trkpt>
      <trkpt lat="44.3358" lon="0.78971">
        <ele>127</ele>
        <time>2025-10-12T12:49:54.518Z</time>
      </trkpt>
      <trkpt lat="44.33581" lon="0.78971">
        <ele>127</ele>
        <time>2025-10-12T12:49:55.518Z</time>
      </trkpt>
      <trkpt lat="44.33581" lon="0.78971">
        <ele>128</ele>
        <time>2025-10-12T12:49:56.518Z</time>
      </trkpt>
      <trkpt lat="44.33581" lon="0.78971">
        <ele>128</ele>
        <time>2025-10-12T12:49:57.518Z</time>
      </trkpt>
      <trkpt lat="44.33581" lon="0.78971">
        <ele>128</ele>
        <time>2025-10-12T12:49:58.518Z</time>
      </trkpt>
      <trkpt lat="44.33581" lon="0.78971">
        <ele>127</ele>
        <time>2025-10-12T12:49:59.518Z</time>
      </trkpt>
      <trkpt lat="44.33581" lon="0.78971">
        <ele>127</ele>
        <time>2025-10-12T12:50:00.518Z</time>
      </trkpt>
      <trkpt lat="44.33581" lon="0.78971">
        <ele>127</ele>
        <time>2025-10-12T12:50:01.518Z</time>
      </trkpt>
      <trkpt lat="44.33581" lon="0.78971">
        <ele>127</ele>
        <time>2025-10-12T12:50:02.518Z</time>
      </trkpt>
      <trkpt lat="44.33581" lon="0.78971">
        <ele>126</ele>
        <time>2025-10-12T12:50:03.518Z</time>
      </trkpt>
      <trkpt lat="44.33581" lon="0.78971">
        <ele>126</ele>
        <time>2025-10-12T12:50:04.518Z</time>
      </trkpt>
      <trkpt lat="44.33581" lon="0.78971">
        <ele>125</ele>
        <time>2025-10-12T12:50:05.518Z</time>
      </trkpt>
      <trkpt lat="44.33581" lon="0.78971">
        <ele>125</ele>
        <time>2025-10-12T12:50:06.518Z</time>
      </trkpt>
      <trkpt lat="44.33581" lon="0.78971">
        <ele>125</ele>
        <time>2025-10-12T12:50:07.518Z</time>
      </trkpt>
      <trkpt lat="44.33581" lon="0.78971">
        <ele>124</ele>
        <time>2025-10-12T12:50:08.518Z</time>
      </trkpt>
      <trkpt lat="44.33581" lon="0.78971">
        <ele>124</ele>
        <time>2025-10-12T12:50:09.518Z</time>
      </trkpt>
      <trkpt lat="44.33581" lon="0.78971">
        <ele>124</ele>
        <time>2025-10-12T12:50:10.518Z</time>
      </trkpt>
      <trkpt lat="44.33581" lon="0.78971">
        <ele>124</ele>
        <time>2025-10-12T12:50:11.518Z</time>
      </trkpt>
      <trkpt lat="44.33581" lon="0.78971">
        <ele>124</ele>
        <time>2025-10-12T12:50:12.518Z</time>
      </trkpt>
      <trkpt lat="44.33581" lon="0.78971">
        <ele>123</ele>
        <time>2025-10-12T12:50:13.518Z</time>
      </trkpt>
      <trkpt lat="44.33581" lon="0.78971">
        <ele>123</ele>
        <time>2025-10-12T12:50:14.518Z</time>
      </trkpt>
      <trkpt lat="44.33581" lon="0.78971">
        <ele>123</ele>
        <time>2025-10-12T12:50:15.518Z</time>
      </trkpt>
      <trkpt lat="44.33581" lon="0.78971">
        <ele>123</ele>
        <time>2025-10-12T12:50:16.518Z</time>
      </trkpt>
      <trkpt lat="44.33582" lon="0.7897">
        <ele>123</ele>
        <time>2025-10-12T12:50:17.518Z</time>
      </trkpt>
      <trkpt lat="44.33582" lon="0.7897">
        <ele>123</ele>
        <time>2025-10-12T12:50:18.518Z</time>
      </trkpt>
      <trkpt lat="44.33582" lon="0.7897">
        <ele>122</ele>
        <time>2025-10-12T12:50:19.518Z</time>
      </trkpt>
      <trkpt lat="44.33583" lon="0.78971">
        <ele>122</ele>
        <time>2025-10-12T12:50:20.518Z</time>
      </trkpt>
      <trkpt lat="44.33583" lon="0.78971">
        <ele>122</ele>
        <time>2025-10-12T12:50:21.518Z</time>
      </trkpt>
      <trkpt lat="44.33583" lon="0.78972">
        <ele>122</ele>
        <time>2025-10-12T12:50:22.518Z</time>
      </trkpt>
      <trkpt lat="44.33583" lon="0.78973">
        <ele>121</ele>
        <time>2025-10-12T12:50:23.518Z</time>
      </trkpt>
      <trkpt lat="44.33584" lon="0.78973">
        <ele>121</ele>
        <time>2025-10-12T12:50:24.518Z</time>
      </trkpt>
      <trkpt lat="44.33585" lon="0.78975">
        <ele>120</ele>
        <time>2025-10-12T12:50:25.518Z</time>
      </trkpt>
      <trkpt lat="44.33586" lon="0.78975">
        <ele>120</ele>
        <time>2025-10-12T12:50:26.518Z</time>
      </trkpt>
      <trkpt lat="44.33587" lon="0.78976">
        <ele>119</ele>
        <time>2025-10-12T12:50:27.518Z</time>
      </trkpt>
      <trkpt lat="44.33588" lon="0.78977">
        <ele>119</ele>
        <time>2025-10-12T12:50:28.518Z</time>
      </trkpt>
      <trkpt lat="44.33589" lon="0.78978">
        <ele>119</ele>
        <time>2025-10-12T12:50:29.518Z</time>
      </trkpt>
      <trkpt lat="44.3359" lon="0.78978">
        <ele>118</ele>
        <time>2025-10-12T12:50:30.518Z</time>
      </trkpt>
      <trkpt lat="44.33591" lon="0.78979">
        <ele>118</ele>
        <time>2025-10-12T12:50:31.518Z</time>
      </trkpt>
      <trkpt lat="44.33592" lon="0.7898">
        <ele>118</ele>
        <time>2025-10-12T12:50:32.518Z</time>
      </trkpt>
      <trkpt lat="44.33593" lon="0.7898">
        <ele>118</ele>
        <time>2025-10-12T12:50:33.518Z</time>
      </trkpt>
      <trkpt lat="44.33594" lon="0.7898">
        <ele>118</ele>
        <time>2025-10-12T12:50:34.518Z</time>
      </trkpt>
      <trkpt lat="44.33596" lon="0.7898">
        <ele>117</ele>
        <time>2025-10-12T12:50:35.518Z</time>
      </trkpt>
      <trkpt lat="44.33596" lon="0.78981">
        <ele>117</ele>
        <time>2025-10-12T12:50:36.518Z</time>
      </trkpt>
      <trkpt lat="44.33597" lon="0.78981">
        <ele>117</ele>
        <time>2025-10-12T12:50:37.518Z</time>
      </trkpt>
      <trkpt lat="44.33598" lon="0.78982">
        <ele>117</ele>
        <time>2025-10-12T12:50:38.518Z</time>
      </trkpt>
      <trkpt lat="44.33599" lon="0.78983">
        <ele>117</ele>
        <time>2025-10-12T12:50:39.518Z</time>
      </trkpt>
      <trkpt lat="44.336" lon="0.78983">
        <ele>117</ele>
        <time>2025-10-12T12:50:40.518Z</time>
      </trkpt>
      <trkpt lat="44.33601" lon="0.78984">
        <ele>117</ele>
        <time>2025-10-12T12:50:41.518Z</time>
      </trkpt>
      <trkpt lat="44.33602" lon="0.78985">
        <ele>118</ele>
        <time>2025-10-12T12:50:42.518Z</time>
      </trkpt>
      <trkpt lat="44.33603" lon="0.78985">
        <ele>118</ele>
        <time>2025-10-12T12:50:43.518Z</time>
      </trkpt>
      <trkpt lat="44.33604" lon="0.78985">
        <ele>118</ele>
        <time>2025-10-12T12:50:44.518Z</time>
      </trkpt>
      <trkpt lat="44.33605" lon="0.78986">
        <ele>119</ele>
        <time>2025-10-12T12:50:45.518Z</time>
      </trkpt>
      <trkpt lat="44.33606" lon="0.78986">
        <ele>119</ele>
        <time>2025-10-12T12:50:46.518Z</time>
      </trkpt>
      <trkpt lat="44.33608" lon="0.78988">
        <ele>119</ele>
        <time>2025-10-12T12:50:47.518Z</time>
      </trkpt>
      <trkpt lat="44.3361" lon="0.78988">
        <ele>119</ele>
        <time>2025-10-12T12:50:48.518Z</time>
      </trkpt>
      <trkpt lat="44.33611" lon="0.78989">
        <ele>119</ele>
        <time>2025-10-12T12:50:49.518Z</time>
      </trkpt>
      <trkpt lat="44.33613" lon="0.78989">
        <ele>119</ele>
        <time>2025-10-12T12:50:50.518Z</time>
      </trkpt>
      <trkpt lat="44.33614" lon="0.7899">
        <ele>119</ele>
        <time>2025-10-12T12:50:51.518Z</time>
      </trkpt>
      <trkpt lat="44.33616" lon="0.78991">
        <ele>119</ele>
        <time>2025-10-12T12:50:52.518Z</time>
      </trkpt>
      <trkpt lat="44.33616" lon="0.78991">
        <ele>119</ele>
        <time>2025-10-12T12:50:53.518Z</time>
      </trkpt>
      <trkpt lat="44.33616" lon="0.78992">
        <ele>119</ele>
        <time>2025-10-12T12:50:54.518Z</time>
      </trkpt>
      <trkpt lat="44.33618" lon="0.78992">
        <ele>119</ele>
        <time>2025-10-12T12:50:55.518Z</time>
      </trkpt>
      <trkpt lat="44.33618" lon="0.78992">
        <ele>119</ele>
        <time>2025-10-12T12:50:56.518Z</time>
      </trkpt>
      <trkpt lat="44.33619" lon="0.78992">
        <ele>119</ele>
        <time>2025-10-12T12:50:57.518Z</time>
      </trkpt>
      <trkpt lat="44.3362" lon="0.78993">
        <ele>119</ele>
        <time>2025-10-12T12:50:58.518Z</time>
      </trkpt>
      <trkpt lat="44.33622" lon="0.78994">
        <ele>119</ele>
        <time>2025-10-12T12:50:59.518Z</time>
      </trkpt>
      <trkpt lat="44.33624" lon="0.78996">
        <ele>119</ele>
        <time>2025-10-12T12:51:00.518Z</time>
      </trkpt>
      <trkpt lat="44.33625" lon="0.78997">
        <ele>118</ele>
        <time>2025-10-12T12:51:01.518Z</time>
      </trkpt>
      <trkpt lat="44.33627" lon="0.78998">
        <ele>118</ele>
        <time>2025-10-12T12:51:02.518Z</time>
      </trkpt>
      <trkpt lat="44.33628" lon="0.78998">
        <ele>118</ele>
        <time>2025-10-12T12:51:03.518Z</time>
      </trkpt>
      <trkpt lat="44.33629" lon="0.78999">
        <ele>119</ele>
        <time>2025-10-12T12:51:04.518Z</time>
      </trkpt>
      <trkpt lat="44.3363" lon="0.79">
        <ele>119</ele>
        <time>2025-10-12T12:51:05.518Z</time>
      </trkpt>
      <trkpt lat="44.33631" lon="0.79001">
        <ele>119</ele>
        <time>2025-10-12T12:51:06.518Z</time>
      </trkpt>
      <trkpt lat="44.33632" lon="0.79001">
        <ele>119</ele>
        <time>2025-10-12T12:51:07.518Z</time>
      </trkpt>
      <trkpt lat="44.33633" lon="0.79002">
        <ele>119</ele>
        <time>2025-10-12T12:51:08.518Z</time>
      </trkpt>
      <trkpt lat="44.33634" lon="0.79003">
        <ele>119</ele>
        <time>2025-10-12T12:51:09.518Z</time>
      </trkpt>
      <trkpt lat="44.33636" lon="0.79004">
        <ele>119</ele>
        <time>2025-10-12T12:51:10.518Z</time>
      </trkpt>
      <trkpt lat="44.33637" lon="0.79005">
        <ele>119</ele>
        <time>2025-10-12T12:51:11.518Z</time>
      </trkpt>
      <trkpt lat="44.33638" lon="0.79006">
        <ele>119</ele>
        <time>2025-10-12T12:51:12.518Z</time>
      </trkpt>
      <trkpt lat="44.33638" lon="0.79008">
        <ele>119</ele>
        <time>2025-10-12T12:51:13.518Z</time>
      </trkpt>
      <trkpt lat="44.33639" lon="0.79009">
        <ele>119</ele>
        <time>2025-10-12T12:51:14.518Z</time>
      </trkpt>
      <trkpt lat="44.3364" lon="0.79009">
        <ele>119</ele>
        <time>2025-10-12T12:51:15.518Z</time>
      </trkpt>
      <trkpt lat="44.3364" lon="0.79011">
        <ele>118</ele>
        <time>2025-10-12T12:51:16.518Z</time>
      </trkpt>
      <trkpt lat="44.33641" lon="0.79012">
        <ele>118</ele>
        <time>2025-10-12T12:51:17.518Z</time>
      </trkpt>
      <trkpt lat="44.33641" lon="0.79013">
        <ele>118</ele>
        <time>2025-10-12T12:51:18.518Z</time>
      </trkpt>
      <trkpt lat="44.33642" lon="0.79014">
        <ele>118</ele>
        <time>2025-10-12T12:51:19.518Z</time>
      </trkpt>
      <trkpt lat="44.33642" lon="0.79016">
        <ele>117</ele>
        <time>2025-10-12T12:51:20.518Z</time>
      </trkpt>
      <trkpt lat="44.33642" lon="0.79017">
        <ele>117</ele>
        <time>2025-10-12T12:51:21.518Z</time>
      </trkpt>
      <trkpt lat="44.33643" lon="0.79019">
        <ele>117</ele>
        <time>2025-10-12T12:51:22.518Z</time>
      </trkpt>
      <trkpt lat="44.33644" lon="0.7902">
        <ele>116</ele>
        <time>2025-10-12T12:51:23.518Z</time>
      </trkpt>
      <trkpt lat="44.33644" lon="0.79022">
        <ele>116</ele>
        <time>2025-10-12T12:51:24.518Z</time>
      </trkpt>
      <trkpt lat="44.33645" lon="0.79024">
        <ele>116</ele>
        <time>2025-10-12T12:51:25.518Z</time>
      </trkpt>
      <trkpt lat="44.33645" lon="0.79026">
        <ele>116</ele>
        <time>2025-10-12T12:51:26.518Z</time>
      </trkpt>
      <trkpt lat="44.33646" lon="0.79027">
        <ele>116</ele>
        <time>2025-10-12T12:51:27.518Z</time>
      </trkpt>
      <trkpt lat="44.33647" lon="0.79029">
        <ele>115</ele>
        <time>2025-10-12T12:51:28.518Z</time>
      </trkpt>
      <trkpt lat="44.33647" lon="0.7903">
        <ele>115</ele>
        <time>2025-10-12T12:51:29.518Z</time>
      </trkpt>
      <trkpt lat="44.33647" lon="0.79032">
        <ele>115</ele>
        <time>2025-10-12T12:51:30.518Z</time>
      </trkpt>
      <trkpt lat="44.33647" lon="0.79033">
        <ele>115</ele>
        <time>2025-10-12T12:51:31.518Z</time>
      </trkpt>
      <trkpt lat="44.33648" lon="0.79035">
        <ele>115</ele>
        <time>2025-10-12T12:51:32.518Z</time>
      </trkpt>
      <trkpt lat="44.33649" lon="0.79036">
        <ele>115</ele>
        <time>2025-10-12T12:51:33.518Z</time>
      </trkpt>
      <trkpt lat="44.33649" lon="0.79037">
        <ele>115</ele>
        <time>2025-10-12T12:51:34.518Z</time>
      </trkpt>
      <trkpt lat="44.33649" lon="0.79038">
        <ele>116</ele>
        <time>2025-10-12T12:51:35.518Z</time>
      </trkpt>
      <trkpt lat="44.3365" lon="0.79039">
        <ele>116</ele>
        <time>2025-10-12T12:51:36.518Z</time>
      </trkpt>
      <trkpt lat="44.3365" lon="0.79041">
        <ele>116</ele>
        <time>2025-10-12T12:51:37.518Z</time>
      </trkpt>
      <trkpt lat="44.33651" lon="0.79042">
        <ele>116</ele>
        <time>2025-10-12T12:51:38.518Z</time>
      </trkpt>
      <trkpt lat="44.33651" lon="0.79044">
        <ele>116</ele>
        <time>2025-10-12T12:51:39.518Z</time>
      </trkpt>
      <trkpt lat="44.33652" lon="0.79046">
        <ele>117</ele>
        <time>2025-10-12T12:51:40.518Z</time>
      </trkpt>
      <trkpt lat="44.33652" lon="0.79047">
        <ele>117</ele>
        <time>2025-10-12T12:51:41.518Z</time>
      </trkpt>
      <trkpt lat="44.33653" lon="0.79048">
        <ele>117</ele>
        <time>2025-10-12T12:51:42.518Z</time>
      </trkpt>
      <trkpt lat="44.33654" lon="0.7905">
        <ele>118</ele>
        <time>2025-10-12T12:51:43.518Z</time>
      </trkpt>
      <trkpt lat="44.33654" lon="0.79051">
        <ele>118</ele>
        <time>2025-10-12T12:51:44.518Z</time>
      </trkpt>
      <trkpt lat="44.33655" lon="0.79052">
        <ele>119</ele>
        <time>2025-10-12T12:51:45.518Z</time>
      </trkpt>
      <trkpt lat="44.33655" lon="0.79054">
        <ele>119</ele>
        <time>2025-10-12T12:51:46.518Z</time>
      </trkpt>
      <trkpt lat="44.33656" lon="0.79055">
        <ele>119</ele>
        <time>2025-10-12T12:51:47.518Z</time>
      </trkpt>
      <trkpt lat="44.33656" lon="0.79056">
        <ele>119</ele>
        <time>2025-10-12T12:51:48.518Z</time>
      </trkpt>
      <trkpt lat="44.33657" lon="0.79057">
        <ele>119</ele>
        <time>2025-10-12T12:51:49.518Z</time>
      </trkpt>
      <trkpt lat="44.33658" lon="0.79059">
        <ele>119</ele>
        <time>2025-10-12T12:51:50.518Z</time>
      </trkpt>
      <trkpt lat="44.33658" lon="0.79061">
        <ele>119</ele>
        <time>2025-10-12T12:51:51.518Z</time>
      </trkpt>
      <trkpt lat="44.33659" lon="0.79063">
        <ele>118</ele>
        <time>2025-10-12T12:51:52.518Z</time>
      </trkpt>
      <trkpt lat="44.3366" lon="0.79064">
        <ele>118</ele>
        <time>2025-10-12T12:51:53.518Z</time>
      </trkpt>
      <trkpt lat="44.3366" lon="0.79066">
        <ele>118</ele>
        <time>2025-10-12T12:51:54.518Z</time>
      </trkpt>
      <trkpt lat="44.33661" lon="0.79067">
        <ele>117</ele>
        <time>2025-10-12T12:51:55.518Z</time>
      </trkpt>
      <trkpt lat="44.33661" lon="0.79069">
        <ele>117</ele>
        <time>2025-10-12T12:51:56.518Z</time>
      </trkpt>
      <trkpt lat="44.33662" lon="0.79071">
        <ele>116</ele>
        <time>2025-10-12T12:51:57.518Z</time>
      </trkpt>
      <trkpt lat="44.33662" lon="0.79072">
        <ele>116</ele>
        <time>2025-10-12T12:51:58.518Z</time>
      </trkpt>
      <trkpt lat="44.33663" lon="0.79074">
        <ele>116</ele>
        <time>2025-10-12T12:51:59.518Z</time>
      </trkpt>
      <trkpt lat="44.33663" lon="0.79075">
        <ele>116</ele>
        <time>2025-10-12T12:52:00.518Z</time>
      </trkpt>
      <trkpt lat="44.33664" lon="0.79077">
        <ele>115</ele>
        <time>2025-10-12T12:52:01.518Z</time>
      </trkpt>
      <trkpt lat="44.33665" lon="0.79078">
        <ele>115</ele>
        <time>2025-10-12T12:52:02.518Z</time>
      </trkpt>
      <trkpt lat="44.33666" lon="0.79079">
        <ele>114</ele>
        <time>2025-10-12T12:52:03.518Z</time>
      </trkpt>
      <trkpt lat="44.33667" lon="0.7908">
        <ele>114</ele>
        <time>2025-10-12T12:52:04.518Z</time>
      </trkpt>
      <trkpt lat="44.33667" lon="0.79081">
        <ele>114</ele>
        <time>2025-10-12T12:52:05.518Z</time>
      </trkpt>
      <trkpt lat="44.33668" lon="0.79081">
        <ele>114</ele>
        <time>2025-10-12T12:52:06.518Z</time>
      </trkpt>
      <trkpt lat="44.33669" lon="0.79082">
        <ele>113</ele>
        <time>2025-10-12T12:52:07.518Z</time>
      </trkpt>
      <trkpt lat="44.33671" lon="0.79084">
        <ele>113</ele>
        <time>2025-10-12T12:52:08.518Z</time>
      </trkpt>
      <trkpt lat="44.33672" lon="0.79086">
        <ele>113</ele>
        <time>2025-10-12T12:52:09.518Z</time>
      </trkpt>
      <trkpt lat="44.33673" lon="0.79087">
        <ele>113</ele>
        <time>2025-10-12T12:52:10.518Z</time>
      </trkpt>
      <trkpt lat="44.33674" lon="0.79088">
        <ele>113</ele>
        <time>2025-10-12T12:52:11.518Z</time>
      </trkpt>
      <trkpt lat="44.33675" lon="0.79089">
        <ele>113</ele>
        <time>2025-10-12T12:52:12.518Z</time>
      </trkpt>
      <trkpt lat="44.33678" lon="0.7909">
        <ele>112</ele>
        <time>2025-10-12T12:52:13.518Z</time>
      </trkpt>
      <trkpt lat="44.33679" lon="0.79093">
        <ele>112</ele>
        <time>2025-10-12T12:52:14.518Z</time>
      </trkpt>
      <trkpt lat="44.33681" lon="0.79097">
        <ele>112</ele>
        <time>2025-10-12T12:52:15.518Z</time>
      </trkpt>
      <trkpt lat="44.33682" lon="0.791">
        <ele>112</ele>
        <time>2025-10-12T12:52:16.518Z</time>
      </trkpt>
      <trkpt lat="44.33682" lon="0.79102">
        <ele>112</ele>
        <time>2025-10-12T12:52:17.518Z</time>
      </trkpt>
      <trkpt lat="44.33684" lon="0.79105">
        <ele>111</ele>
        <time>2025-10-12T12:52:18.518Z</time>
      </trkpt>
      <trkpt lat="44.33684" lon="0.79109">
        <ele>111</ele>
        <time>2025-10-12T12:52:19.518Z</time>
      </trkpt>
      <trkpt lat="44.33685" lon="0.7911">
        <ele>111</ele>
        <time>2025-10-12T12:52:20.518Z</time>
      </trkpt>
      <trkpt lat="44.33686" lon="0.79111">
        <ele>111</ele>
        <time>2025-10-12T12:52:21.518Z</time>
      </trkpt>
      <trkpt lat="44.33687" lon="0.79112">
        <ele>111</ele>
        <time>2025-10-12T12:52:22.518Z</time>
      </trkpt>
      <trkpt lat="44.33688" lon="0.79113">
        <ele>110</ele>
        <time>2025-10-12T12:52:23.518Z</time>
      </trkpt>
      <trkpt lat="44.3369" lon="0.79114">
        <ele>110</ele>
        <time>2025-10-12T12:52:24.518Z</time>
      </trkpt>
      <trkpt lat="44.33691" lon="0.79116">
        <ele>110</ele>
        <time>2025-10-12T12:52:25.518Z</time>
      </trkpt>
      <trkpt lat="44.33692" lon="0.79117">
        <ele>110</ele>
        <time>2025-10-12T12:52:26.518Z</time>
      </trkpt>
      <trkpt lat="44.33695" lon="0.79119">
        <ele>111</ele>
        <time>2025-10-12T12:52:27.518Z</time>
      </trkpt>
      <trkpt lat="44.33696" lon="0.79119">
        <ele>111</ele>
        <time>2025-10-12T12:52:28.518Z</time>
      </trkpt>
      <trkpt lat="44.33697" lon="0.79119">
        <ele>111</ele>
        <time>2025-10-12T12:52:29.518Z</time>
      </trkpt>
      <trkpt lat="44.33699" lon="0.79119">
        <ele>111</ele>
        <time>2025-10-12T12:52:30.518Z</time>
      </trkpt>
      <trkpt lat="44.33701" lon="0.79118">
        <ele>112</ele>
        <time>2025-10-12T12:52:31.518Z</time>
      </trkpt>
      <trkpt lat="44.33702" lon="0.79118">
        <ele>112</ele>
        <time>2025-10-12T12:52:32.518Z</time>
      </trkpt>
      <trkpt lat="44.33702" lon="0.79119">
        <ele>112</ele>
        <time>2025-10-12T12:52:33.518Z</time>
      </trkpt>
      <trkpt lat="44.33703" lon="0.79119">
        <ele>111</ele>
        <time>2025-10-12T12:52:34.518Z</time>
      </trkpt>
      <trkpt lat="44.33703" lon="0.7912">
        <ele>111</ele>
        <time>2025-10-12T12:52:35.518Z</time>
      </trkpt>
      <trkpt lat="44.33704" lon="0.79121">
        <ele>111</ele>
        <time>2025-10-12T12:52:36.518Z</time>
      </trkpt>
      <trkpt lat="44.33705" lon="0.79122">
        <ele>111</ele>
        <time>2025-10-12T12:52:37.518Z</time>
      </trkpt>
      <trkpt lat="44.33706" lon="0.79122">
        <ele>111</ele>
        <time>2025-10-12T12:52:38.518Z</time>
      </trkpt>
      <trkpt lat="44.33707" lon="0.79124">
        <ele>110</ele>
        <time>2025-10-12T12:52:39.518Z</time>
      </trkpt>
      <trkpt lat="44.33707" lon="0.79124">
        <ele>110</ele>
        <time>2025-10-12T12:52:40.518Z</time>
      </trkpt>
      <trkpt lat="44.33708" lon="0.79126">
        <ele>110</ele>
        <time>2025-10-12T12:52:41.518Z</time>
      </trkpt>
      <trkpt lat="44.33708" lon="0.79126">
        <ele>110</ele>
        <time>2025-10-12T12:52:42.518Z</time>
      </trkpt>
      <trkpt lat="44.33709" lon="0.79127">
        <ele>109</ele>
        <time>2025-10-12T12:52:43.518Z</time>
      </trkpt>
      <trkpt lat="44.3371" lon="0.79127">
        <ele>109</ele>
        <time>2025-10-12T12:52:44.518Z</time>
      </trkpt>
      <trkpt lat="44.3371" lon="0.79127">
        <ele>109</ele>
        <time>2025-10-12T12:52:45.518Z</time>
      </trkpt>
      <trkpt lat="44.33711" lon="0.79127">
        <ele>108</ele>
        <time>2025-10-12T12:52:46.518Z</time>
      </trkpt>
      <trkpt lat="44.33711" lon="0.79128">
        <ele>108</ele>
        <time>2025-10-12T12:52:47.518Z</time>
      </trkpt>
      <trkpt lat="44.33712" lon="0.79128">
        <ele>108</ele>
        <time>2025-10-12T12:52:48.518Z</time>
      </trkpt>
      <trkpt lat="44.33713" lon="0.79129">
        <ele>108</ele>
        <time>2025-10-12T12:52:49.518Z</time>
      </trkpt>
      <trkpt lat="44.33714" lon="0.7913">
        <ele>108</ele>
        <time>2025-10-12T12:52:50.518Z</time>
      </trkpt>
      <trkpt lat="44.33715" lon="0.79131">
        <ele>108</ele>
        <time>2025-10-12T12:52:51.518Z</time>
      </trkpt>
      <trkpt lat="44.33716" lon="0.79131">
        <ele>108</ele>
        <time>2025-10-12T12:52:52.518Z</time>
      </trkpt>
      <trkpt lat="44.33716" lon="0.79132">
        <ele>108</ele>
        <time>2025-10-12T12:52:53.518Z</time>
      </trkpt>
      <trkpt lat="44.33718" lon="0.79133">
        <ele>108</ele>
        <time>2025-10-12T12:52:54.518Z</time>
      </trkpt>
      <trkpt lat="44.33719" lon="0.79134">
        <ele>108</ele>
        <time>2025-10-12T12:52:55.518Z</time>
      </trkpt>
      <trkpt lat="44.3372" lon="0.79135">
        <ele>108</ele>
        <time>2025-10-12T12:52:56.518Z</time>
      </trkpt>
      <trkpt lat="44.33721" lon="0.79135">
        <ele>107</ele>
        <time>2025-10-12T12:52:57.518Z</time>
      </trkpt>
      <trkpt lat="44.33722" lon="0.79135">
        <ele>107</ele>
        <time>2025-10-12T12:52:58.518Z</time>
      </trkpt>
      <trkpt lat="44.33723" lon="0.79135">
        <ele>107</ele>
        <time>2025-10-12T12:52:59.518Z</time>
      </trkpt>
      <trkpt lat="44.33724" lon="0.79136">
        <ele>108</ele>
        <time>2025-10-12T12:53:00.518Z</time>
      </trkpt>
      <trkpt lat="44.33725" lon="0.79136">
        <ele>108</ele>
        <time>2025-10-12T12:53:01.518Z</time>
      </trkpt>
      <trkpt lat="44.33726" lon="0.79136">
        <ele>108</ele>
        <time>2025-10-12T12:53:02.518Z</time>
      </trkpt>
      <trkpt lat="44.33727" lon="0.79137">
        <ele>108</ele>
        <time>2025-10-12T12:53:03.518Z</time>
      </trkpt>
      <trkpt lat="44.33728" lon="0.79137">
        <ele>108</ele>
        <time>2025-10-12T12:53:04.518Z</time>
      </trkpt>
      <trkpt lat="44.33729" lon="0.79137">
        <ele>108</ele>
        <time>2025-10-12T12:53:05.518Z</time>
      </trkpt>
      <trkpt lat="44.3373" lon="0.79137">
        <ele>108</ele>
        <time>2025-10-12T12:53:06.518Z</time>
      </trkpt>
      <trkpt lat="44.33731" lon="0.79138">
        <ele>108</ele>
        <time>2025-10-12T12:53:07.518Z</time>
      </trkpt>
      <trkpt lat="44.33732" lon="0.79138">
        <ele>109</ele>
        <time>2025-10-12T12:53:08.518Z</time>
      </trkpt>
      <trkpt lat="44.33733" lon="0.79139">
        <ele>109</ele>
        <time>2025-10-12T12:53:09.518Z</time>
      </trkpt>
      <trkpt lat="44.33734" lon="0.79139">
        <ele>109</ele>
        <time>2025-10-12T12:53:10.518Z</time>
      </trkpt>
      <trkpt lat="44.33735" lon="0.7914">
        <ele>109</ele>
        <time>2025-10-12T12:53:11.518Z</time>
      </trkpt>
      <trkpt lat="44.33736" lon="0.79141">
        <ele>109</ele>
        <time>2025-10-12T12:53:12.518Z</time>
      </trkpt>
      <trkpt lat="44.33737" lon="0.79141">
        <ele>109</ele>
        <time>2025-10-12T12:53:13.518Z</time>
      </trkpt>
      <trkpt lat="44.33738" lon="0.79141">
        <ele>109</ele>
        <time>2025-10-12T12:53:14.518Z</time>
      </trkpt>
      <trkpt lat="44.33739" lon="0.79141">
        <ele>110</ele>
        <time>2025-10-12T12:53:15.518Z</time>
      </trkpt>
      <trkpt lat="44.33739" lon="0.79142">
        <ele>110</ele>
        <time>2025-10-12T12:53:16.518Z</time>
      </trkpt>
      <trkpt lat="44.3374" lon="0.79141">
        <ele>110</ele>
        <time>2025-10-12T12:53:17.518Z</time>
      </trkpt>
      <trkpt lat="44.33742" lon="0.79142">
        <ele>110</ele>
        <time>2025-10-12T12:53:18.518Z</time>
      </trkpt>
      <trkpt lat="44.33743" lon="0.79142">
        <ele>110</ele>
        <time>2025-10-12T12:53:19.518Z</time>
      </trkpt>
      <trkpt lat="44.33744" lon="0.79143">
        <ele>110</ele>
        <time>2025-10-12T12:53:20.518Z</time>
      </trkpt>
      <trkpt lat="44.33745" lon="0.79144">
        <ele>109</ele>
        <time>2025-10-12T12:53:21.518Z</time>
      </trkpt>
      <trkpt lat="44.33746" lon="0.79145">
        <ele>109</ele>
        <time>2025-10-12T12:53:22.518Z</time>
      </trkpt>
      <trkpt lat="44.33746" lon="0.79145">
        <ele>109</ele>
        <time>2025-10-12T12:53:23.518Z</time>
      </trkpt>
      <trkpt lat="44.33747" lon="0.79145">
        <ele>109</ele>
        <time>2025-10-12T12:53:24.518Z</time>
      </trkpt>
      <trkpt lat="44.33748" lon="0.79146">
        <ele>109</ele>
        <time>2025-10-12T12:53:25.518Z</time>
      </trkpt>
      <trkpt lat="44.33749" lon="0.79146">
        <ele>109</ele>
        <time>2025-10-12T12:53:26.518Z</time>
      </trkpt>
      <trkpt lat="44.3375" lon="0.79147">
        <ele>109</ele>
        <time>2025-10-12T12:53:27.518Z</time>
      </trkpt>
      <trkpt lat="44.33751" lon="0.79147">
        <ele>109</ele>
        <time>2025-10-12T12:53:28.518Z</time>
      </trkpt>
      <trkpt lat="44.33752" lon="0.79148">
        <ele>108</ele>
        <time>2025-10-12T12:53:29.518Z</time>
      </trkpt>
      <trkpt lat="44.33753" lon="0.79148">
        <ele>109</ele>
        <time>2025-10-12T12:53:30.518Z</time>
      </trkpt>
      <trkpt lat="44.33754" lon="0.79149">
        <ele>109</ele>
        <time>2025-10-12T12:53:31.518Z</time>
      </trkpt>
      <trkpt lat="44.33755" lon="0.79149">
        <ele>109</ele>
        <time>2025-10-12T12:53:32.518Z</time>
      </trkpt>
      <trkpt lat="44.33756" lon="0.7915">
        <ele>110</ele>
        <time>2025-10-12T12:53:33.518Z</time>
      </trkpt>
      <trkpt lat="44.33757" lon="0.79151">
        <ele>110</ele>
        <time>2025-10-12T12:53:34.518Z</time>
      </trkpt>
      <trkpt lat="44.33758" lon="0.79151">
        <ele>111</ele>
        <time>2025-10-12T12:53:35.518Z</time>
      </trkpt>
      <trkpt lat="44.33759" lon="0.79152">
        <ele>111</ele>
        <time>2025-10-12T12:53:36.518Z</time>
      </trkpt>
      <trkpt lat="44.3376" lon="0.79152">
        <ele>111</ele>
        <time>2025-10-12T12:53:37.518Z</time>
      </trkpt>
      <trkpt lat="44.33761" lon="0.79153">
        <ele>112</ele>
        <time>2025-10-12T12:53:38.518Z</time>
      </trkpt>
      <trkpt lat="44.33762" lon="0.79154">
        <ele>112</ele>
        <time>2025-10-12T12:53:39.518Z</time>
      </trkpt>
      <trkpt lat="44.33763" lon="0.79154">
        <ele>112</ele>
        <time>2025-10-12T12:53:40.518Z</time>
      </trkpt>
      <trkpt lat="44.33763" lon="0.79154">
        <ele>112</ele>
        <time>2025-10-12T12:53:41.518Z</time>
      </trkpt>
      <trkpt lat="44.33764" lon="0.79155">
        <ele>112</ele>
        <time>2025-10-12T12:53:42.518Z</time>
      </trkpt>
      <trkpt lat="44.33765" lon="0.79155">
        <ele>112</ele>
        <time>2025-10-12T12:53:43.518Z</time>
      </trkpt>
      <trkpt lat="44.33767" lon="0.79155">
        <ele>111</ele>
        <time>2025-10-12T12:53:44.518Z</time>
      </trkpt>
      <trkpt lat="44.33767" lon="0.79156">
        <ele>111</ele>
        <time>2025-10-12T12:53:45.518Z</time>
      </trkpt>
      <trkpt lat="44.33768" lon="0.79156">
        <ele>111</ele>
        <time>2025-10-12T12:53:46.518Z</time>
      </trkpt>
      <trkpt lat="44.33769" lon="0.79157">
        <ele>111</ele>
        <time>2025-10-12T12:53:47.518Z</time>
      </trkpt>
      <trkpt lat="44.33771" lon="0.79158">
        <ele>110</ele>
        <time>2025-10-12T12:53:48.518Z</time>
      </trkpt>
      <trkpt lat="44.33772" lon="0.79159">
        <ele>110</ele>
        <time>2025-10-12T12:53:49.518Z</time>
      </trkpt>
      <trkpt lat="44.33773" lon="0.7916">
        <ele>109</ele>
        <time>2025-10-12T12:53:50.518Z</time>
      </trkpt>
      <trkpt lat="44.33774" lon="0.7916">
        <ele>109</ele>
        <time>2025-10-12T12:53:51.518Z</time>
      </trkpt>
      <trkpt lat="44.33775" lon="0.7916">
        <ele>109</ele>
        <time>2025-10-12T12:53:52.518Z</time>
      </trkpt>
      <trkpt lat="44.33776" lon="0.79161">
        <ele>109</ele>
        <time>2025-10-12T12:53:53.518Z</time>
      </trkpt>
      <trkpt lat="44.33777" lon="0.79161">
        <ele>110</ele>
        <time>2025-10-12T12:53:54.518Z</time>
      </trkpt>
      <trkpt lat="44.33778" lon="0.79162">
        <ele>110</ele>
        <time>2025-10-12T12:53:55.518Z</time>
      </trkpt>
      <trkpt lat="44.33779" lon="0.79163">
        <ele>110</ele>
        <time>2025-10-12T12:53:56.518Z</time>
      </trkpt>
      <trkpt lat="44.3378" lon="0.79164">
        <ele>110</ele>
        <time>2025-10-12T12:53:57.518Z</time>
      </trkpt>
      <trkpt lat="44.33781" lon="0.79165">
        <ele>110</ele>
        <time>2025-10-12T12:53:58.518Z</time>
      </trkpt>
      <trkpt lat="44.33782" lon="0.79165">
        <ele>110</ele>
        <time>2025-10-12T12:53:59.518Z</time>
      </trkpt>
      <trkpt lat="44.33784" lon="0.79166">
        <ele>110</ele>
        <time>2025-10-12T12:54:00.518Z</time>
      </trkpt>
      <trkpt lat="44.33784" lon="0.79167">
        <ele>110</ele>
        <time>2025-10-12T12:54:01.518Z</time>
      </trkpt>
      <trkpt lat="44.33786" lon="0.79168">
        <ele>110</ele>
        <time>2025-10-12T12:54:02.518Z</time>
      </trkpt>
      <trkpt lat="44.33786" lon="0.79168">
        <ele>110</ele>
        <time>2025-10-12T12:54:03.518Z</time>
      </trkpt>
      <trkpt lat="44.33787" lon="0.79169">
        <ele>110</ele>
        <time>2025-10-12T12:54:04.518Z</time>
      </trkpt>
      <trkpt lat="44.33788" lon="0.79169">
        <ele>110</ele>
        <time>2025-10-12T12:54:05.518Z</time>
      </trkpt>
      <trkpt lat="44.33789" lon="0.7917">
        <ele>110</ele>
        <time>2025-10-12T12:54:06.518Z</time>
      </trkpt>
      <trkpt lat="44.33789" lon="0.79172">
        <ele>110</ele>
        <time>2025-10-12T12:54:07.518Z</time>
      </trkpt>
      <trkpt lat="44.3379" lon="0.79172">
        <ele>110</ele>
        <time>2025-10-12T12:54:08.518Z</time>
      </trkpt>
      <trkpt lat="44.33791" lon="0.79173">
        <ele>110</ele>
        <time>2025-10-12T12:54:09.518Z</time>
      </trkpt>
      <trkpt lat="44.33792" lon="0.79174">
        <ele>110</ele>
        <time>2025-10-12T12:54:10.518Z</time>
      </trkpt>
      <trkpt lat="44.33793" lon="0.79174">
        <ele>110</ele>
        <time>2025-10-12T12:54:11.518Z</time>
      </trkpt>
      <trkpt lat="44.33794" lon="0.79175">
        <ele>110</ele>
        <time>2025-10-12T12:54:12.518Z</time>
      </trkpt>
      <trkpt lat="44.33795" lon="0.79175">
        <ele>110</ele>
        <time>2025-10-12T12:54:13.518Z</time>
      </trkpt>
      <trkpt lat="44.33796" lon="0.79175">
        <ele>110</ele>
        <time>2025-10-12T12:54:14.518Z</time>
      </trkpt>
      <trkpt lat="44.33797" lon="0.79175">
        <ele>111</ele>
        <time>2025-10-12T12:54:15.518Z</time>
      </trkpt>
      <trkpt lat="44.33798" lon="0.79176">
        <ele>111</ele>
        <time>2025-10-12T12:54:16.518Z</time>
      </trkpt>
      <trkpt lat="44.33799" lon="0.79177">
        <ele>111</ele>
        <time>2025-10-12T12:54:17.518Z</time>
      </trkpt>
      <trkpt lat="44.33801" lon="0.79177">
        <ele>111</ele>
        <time>2025-10-12T12:54:18.518Z</time>
      </trkpt>
      <trkpt lat="44.33801" lon="0.79178">
        <ele>111</ele>
        <time>2025-10-12T12:54:19.518Z</time>
      </trkpt>
      <trkpt lat="44.33803" lon="0.79178">
        <ele>112</ele>
        <time>2025-10-12T12:54:20.518Z</time>
      </trkpt>
      <trkpt lat="44.33804" lon="0.79179">
        <ele>113</ele>
        <time>2025-10-12T12:54:21.518Z</time>
      </trkpt>
      <trkpt lat="44.33806" lon="0.79179">
        <ele>113</ele>
        <time>2025-10-12T12:54:22.518Z</time>
      </trkpt>
      <trkpt lat="44.33807" lon="0.79179">
        <ele>113</ele>
        <time>2025-10-12T12:54:23.518Z</time>
      </trkpt>
      <trkpt lat="44.33807" lon="0.79179">
        <ele>114</ele>
        <time>2025-10-12T12:54:24.518Z</time>
      </trkpt>
      <trkpt lat="44.33808" lon="0.79179">
        <ele>114</ele>
        <time>2025-10-12T12:54:25.518Z</time>
      </trkpt>
      <trkpt lat="44.3381" lon="0.79179">
        <ele>114</ele>
        <time>2025-10-12T12:54:26.518Z</time>
      </trkpt>
      <trkpt lat="44.3381" lon="0.79179">
        <ele>114</ele>
        <time>2025-10-12T12:54:27.518Z</time>
      </trkpt>
      <trkpt lat="44.33812" lon="0.7918">
        <ele>115</ele>
        <time>2025-10-12T12:54:28.518Z</time>
      </trkpt>
      <trkpt lat="44.33813" lon="0.79181">
        <ele>115</ele>
        <time>2025-10-12T12:54:29.518Z</time>
      </trkpt>
      <trkpt lat="44.33814" lon="0.79182">
        <ele>115</ele>
        <time>2025-10-12T12:54:30.518Z</time>
      </trkpt>
      <trkpt lat="44.33815" lon="0.79183">
        <ele>115</ele>
        <time>2025-10-12T12:54:31.518Z</time>
      </trkpt>
      <trkpt lat="44.33817" lon="0.79183">
        <ele>114</ele>
        <time>2025-10-12T12:54:32.518Z</time>
      </trkpt>
      <trkpt lat="44.33818" lon="0.79183">
        <ele>114</ele>
        <time>2025-10-12T12:54:33.518Z</time>
      </trkpt>
      <trkpt lat="44.33819" lon="0.79184">
        <ele>114</ele>
        <time>2025-10-12T12:54:34.518Z</time>
      </trkpt>
      <trkpt lat="44.3382" lon="0.79185">
        <ele>114</ele>
        <time>2025-10-12T12:54:35.518Z</time>
      </trkpt>
      <trkpt lat="44.33821" lon="0.79185">
        <ele>114</ele>
        <time>2025-10-12T12:54:36.518Z</time>
      </trkpt>
      <trkpt lat="44.33822" lon="0.79186">
        <ele>113</ele>
        <time>2025-10-12T12:54:37.518Z</time>
      </trkpt>
      <trkpt lat="44.33823" lon="0.79187">
        <ele>113</ele>
        <time>2025-10-12T12:54:38.518Z</time>
      </trkpt>
      <trkpt lat="44.33824" lon="0.79187">
        <ele>113</ele>
        <time>2025-10-12T12:54:39.518Z</time>
      </trkpt>
      <trkpt lat="44.33825" lon="0.79188">
        <ele>113</ele>
        <time>2025-10-12T12:54:40.518Z</time>
      </trkpt>
      <trkpt lat="44.33826" lon="0.79189">
        <ele>113</ele>
        <time>2025-10-12T12:54:41.518Z</time>
      </trkpt>
      <trkpt lat="44.33827" lon="0.79189">
        <ele>112</ele>
        <time>2025-10-12T12:54:42.518Z</time>
      </trkpt>
      <trkpt lat="44.33828" lon="0.7919">
        <ele>112</ele>
        <time>2025-10-12T12:54:43.518Z</time>
      </trkpt>
      <trkpt lat="44.33829" lon="0.79191">
        <ele>113</ele>
        <time>2025-10-12T12:54:44.518Z</time>
      </trkpt>
      <trkpt lat="44.33831" lon="0.79192">
        <ele>113</ele>
        <time>2025-10-12T12:54:45.518Z</time>
      </trkpt>
      <trkpt lat="44.33831" lon="0.79192">
        <ele>114</ele>
        <time>2025-10-12T12:54:46.518Z</time>
      </trkpt>
      <trkpt lat="44.33832" lon="0.79192">
        <ele>114</ele>
        <time>2025-10-12T12:54:47.518Z</time>
      </trkpt>
      <trkpt lat="44.33834" lon="0.79193">
        <ele>114</ele>
        <time>2025-10-12T12:54:48.518Z</time>
      </trkpt>
      <trkpt lat="44.33835" lon="0.79193">
        <ele>115</ele>
        <time>2025-10-12T12:54:49.518Z</time>
      </trkpt>
      <trkpt lat="44.33836" lon="0.79194">
        <ele>115</ele>
        <time>2025-10-12T12:54:50.518Z</time>
      </trkpt>
      <trkpt lat="44.33838" lon="0.79195">
        <ele>116</ele>
        <time>2025-10-12T12:54:51.518Z</time>
      </trkpt>
      <trkpt lat="44.33838" lon="0.79195">
        <ele>116</ele>
        <time>2025-10-12T12:54:52.518Z</time>
      </trkpt>
      <trkpt lat="44.33839" lon="0.79196">
        <ele>116</ele>
        <time>2025-10-12T12:54:53.518Z</time>
      </trkpt>
      <trkpt lat="44.3384" lon="0.79196">
        <ele>116</ele>
        <time>2025-10-12T12:54:54.518Z</time>
      </trkpt>
      <trkpt lat="44.33842" lon="0.79197">
        <ele>116</ele>
        <time>2025-10-12T12:54:55.518Z</time>
      </trkpt>
      <trkpt lat="44.33843" lon="0.79197">
        <ele>117</ele>
        <time>2025-10-12T12:54:56.518Z</time>
      </trkpt>
      <trkpt lat="44.33844" lon="0.79198">
        <ele>117</ele>
        <time>2025-10-12T12:54:57.518Z</time>
      </trkpt>
      <trkpt lat="44.33845" lon="0.79197">
        <ele>117</ele>
        <time>2025-10-12T12:54:58.518Z</time>
      </trkpt>
      <trkpt lat="44.33846" lon="0.79197">
        <ele>117</ele>
        <time>2025-10-12T12:54:59.518Z</time>
      </trkpt>
      <trkpt lat="44.33847" lon="0.79198">
        <ele>117</ele>
        <time>2025-10-12T12:55:00.518Z</time>
      </trkpt>
      <trkpt lat="44.33848" lon="0.79198">
        <ele>117</ele>
        <time>2025-10-12T12:55:01.518Z</time>
      </trkpt>
      <trkpt lat="44.33849" lon="0.79199">
        <ele>117</ele>
        <time>2025-10-12T12:55:02.518Z</time>
      </trkpt>
      <trkpt lat="44.3385" lon="0.79199">
        <ele>117</ele>
        <time>2025-10-12T12:55:03.518Z</time>
      </trkpt>
      <trkpt lat="44.33851" lon="0.79201">
        <ele>117</ele>
        <time>2025-10-12T12:55:04.518Z</time>
      </trkpt>
      <trkpt lat="44.33852" lon="0.79201">
        <ele>117</ele>
        <time>2025-10-12T12:55:05.518Z</time>
      </trkpt>
      <trkpt lat="44.33853" lon="0.79202">
        <ele>117</ele>
        <time>2025-10-12T12:55:06.518Z</time>
      </trkpt>
      <trkpt lat="44.33854" lon="0.79202">
        <ele>118</ele>
        <time>2025-10-12T12:55:07.518Z</time>
      </trkpt>
      <trkpt lat="44.33856" lon="0.79203">
        <ele>117</ele>
        <time>2025-10-12T12:55:08.518Z</time>
      </trkpt>
      <trkpt lat="44.33856" lon="0.79204">
        <ele>117</ele>
        <time>2025-10-12T12:55:09.518Z</time>
      </trkpt>
      <trkpt lat="44.33857" lon="0.79205">
        <ele>117</ele>
        <time>2025-10-12T12:55:10.518Z</time>
      </trkpt>
      <trkpt lat="44.33858" lon="0.79206">
        <ele>117</ele>
        <time>2025-10-12T12:55:11.518Z</time>
      </trkpt>
      <trkpt lat="44.33859" lon="0.79206">
        <ele>116</ele>
        <time>2025-10-12T12:55:12.518Z</time>
      </trkpt>
      <trkpt lat="44.33859" lon="0.79207">
        <ele>116</ele>
        <time>2025-10-12T12:55:13.518Z</time>
      </trkpt>
      <trkpt lat="44.3386" lon="0.79207">
        <ele>116</ele>
        <time>2025-10-12T12:55:14.518Z</time>
      </trkpt>
      <trkpt lat="44.33861" lon="0.79207">
        <ele>116</ele>
        <time>2025-10-12T12:55:15.518Z</time>
      </trkpt>
      <trkpt lat="44.33861" lon="0.79207">
        <ele>116</ele>
        <time>2025-10-12T12:55:16.518Z</time>
      </trkpt>
      <trkpt lat="44.33862" lon="0.79208">
        <ele>116</ele>
        <time>2025-10-12T12:55:17.518Z</time>
      </trkpt>
      <trkpt lat="44.33863" lon="0.79208">
        <ele>116</ele>
        <time>2025-10-12T12:55:18.518Z</time>
      </trkpt>
      <trkpt lat="44.33864" lon="0.79208">
        <ele>115</ele>
        <time>2025-10-12T12:55:19.518Z</time>
      </trkpt>
      <trkpt lat="44.33865" lon="0.79208">
        <ele>115</ele>
        <time>2025-10-12T12:55:20.518Z</time>
      </trkpt>
      <trkpt lat="44.33865" lon="0.79209">
        <ele>115</ele>
        <time>2025-10-12T12:55:21.518Z</time>
      </trkpt>
      <trkpt lat="44.33866" lon="0.79209">
        <ele>115</ele>
        <time>2025-10-12T12:55:22.518Z</time>
      </trkpt>
      <trkpt lat="44.33867" lon="0.7921">
        <ele>114</ele>
        <time>2025-10-12T12:55:23.518Z</time>
      </trkpt>
      <trkpt lat="44.33868" lon="0.79211">
        <ele>114</ele>
        <time>2025-10-12T12:55:24.518Z</time>
      </trkpt>
      <trkpt lat="44.33869" lon="0.79212">
        <ele>114</ele>
        <time>2025-10-12T12:55:25.518Z</time>
      </trkpt>
      <trkpt lat="44.3387" lon="0.79213">
        <ele>114</ele>
        <time>2025-10-12T12:55:26.518Z</time>
      </trkpt>
      <trkpt lat="44.33871" lon="0.79213">
        <ele>113</ele>
        <time>2025-10-12T12:55:27.518Z</time>
      </trkpt>
      <trkpt lat="44.33871" lon="0.79214">
        <ele>113</ele>
        <time>2025-10-12T12:55:28.518Z</time>
      </trkpt>
      <trkpt lat="44.33872" lon="0.79214">
        <ele>113</ele>
        <time>2025-10-12T12:55:29.518Z</time>
      </trkpt>
      <trkpt lat="44.33873" lon="0.79215">
        <ele>113</ele>
        <time>2025-10-12T12:55:30.518Z</time>
      </trkpt>
      <trkpt lat="44.33874" lon="0.79215">
        <ele>113</ele>
        <time>2025-10-12T12:55:31.518Z</time>
      </trkpt>
      <trkpt lat="44.33875" lon="0.79215">
        <ele>114</ele>
        <time>2025-10-12T12:55:32.518Z</time>
      </trkpt>
      <trkpt lat="44.33876" lon="0.79215">
        <ele>114</ele>
        <time>2025-10-12T12:55:33.518Z</time>
      </trkpt>
      <trkpt lat="44.33877" lon="0.79216">
        <ele>115</ele>
        <time>2025-10-12T12:55:34.518Z</time>
      </trkpt>
      <trkpt lat="44.33878" lon="0.79216">
        <ele>115</ele>
        <time>2025-10-12T12:55:35.518Z</time>
      </trkpt>
      <trkpt lat="44.33879" lon="0.79217">
        <ele>116</ele>
        <time>2025-10-12T12:55:36.518Z</time>
      </trkpt>
      <trkpt lat="44.3388" lon="0.79217">
        <ele>116</ele>
        <time>2025-10-12T12:55:37.518Z</time>
      </trkpt>
      <trkpt lat="44.33881" lon="0.79218">
        <ele>117</ele>
        <time>2025-10-12T12:55:38.518Z</time>
      </trkpt>
      <trkpt lat="44.33882" lon="0.79219">
        <ele>117</ele>
        <time>2025-10-12T12:55:39.518Z</time>
      </trkpt>
      <trkpt lat="44.33883" lon="0.79219">
        <ele>118</ele>
        <time>2025-10-12T12:55:40.518Z</time>
      </trkpt>
      <trkpt lat="44.33884" lon="0.7922">
        <ele>118</ele>
        <time>2025-10-12T12:55:41.518Z</time>
      </trkpt>
      <trkpt lat="44.33886" lon="0.79221">
        <ele>118</ele>
        <time>2025-10-12T12:55:42.518Z</time>
      </trkpt>
      <trkpt lat="44.33887" lon="0.79222">
        <ele>117</ele>
        <time>2025-10-12T12:55:43.518Z</time>
      </trkpt>
      <trkpt lat="44.33888" lon="0.79223">
        <ele>117</ele>
        <time>2025-10-12T12:55:44.518Z</time>
      </trkpt>
      <trkpt lat="44.33888" lon="0.79223">
        <ele>116</ele>
        <time>2025-10-12T12:55:45.518Z</time>
      </trkpt>
      <trkpt lat="44.33889" lon="0.79223">
        <ele>116</ele>
        <time>2025-10-12T12:55:46.518Z</time>
      </trkpt>
      <trkpt lat="44.3389" lon="0.79224">
        <ele>115</ele>
        <time>2025-10-12T12:55:47.518Z</time>
      </trkpt>
      <trkpt lat="44.33891" lon="0.79225">
        <ele>114</ele>
        <time>2025-10-12T12:55:48.518Z</time>
      </trkpt>
      <trkpt lat="44.33892" lon="0.79226">
        <ele>114</ele>
        <time>2025-10-12T12:55:49.518Z</time>
      </trkpt>
      <trkpt lat="44.33893" lon="0.79227">
        <ele>114</ele>
        <time>2025-10-12T12:55:50.518Z</time>
      </trkpt>
      <trkpt lat="44.33894" lon="0.79228">
        <ele>113</ele>
        <time>2025-10-12T12:55:51.518Z</time>
      </trkpt>
      <trkpt lat="44.33896" lon="0.79229">
        <ele>113</ele>
        <time>2025-10-12T12:55:52.518Z</time>
      </trkpt>
      <trkpt lat="44.33897" lon="0.79229">
        <ele>113</ele>
        <time>2025-10-12T12:55:53.518Z</time>
      </trkpt>
      <trkpt lat="44.33898" lon="0.7923">
        <ele>113</ele>
        <time>2025-10-12T12:55:54.518Z</time>
      </trkpt>
      <trkpt lat="44.33898" lon="0.7923">
        <ele>113</ele>
        <time>2025-10-12T12:55:55.518Z</time>
      </trkpt>
      <trkpt lat="44.33899" lon="0.79231">
        <ele>113</ele>
        <time>2025-10-12T12:55:56.518Z</time>
      </trkpt>
      <trkpt lat="44.339" lon="0.79231">
        <ele>113</ele>
        <time>2025-10-12T12:55:57.518Z</time>
      </trkpt>
      <trkpt lat="44.33901" lon="0.79232">
        <ele>113</ele>
        <time>2025-10-12T12:55:58.518Z</time>
      </trkpt>
      <trkpt lat="44.33902" lon="0.79232">
        <ele>113</ele>
        <time>2025-10-12T12:55:59.518Z</time>
      </trkpt>
      <trkpt lat="44.33903" lon="0.79232">
        <ele>113</ele>
        <time>2025-10-12T12:56:00.518Z</time>
      </trkpt>
      <trkpt lat="44.33903" lon="0.79232">
        <ele>113</ele>
        <time>2025-10-12T12:56:01.518Z</time>
      </trkpt>
      <trkpt lat="44.33904" lon="0.79232">
        <ele>113</ele>
        <time>2025-10-12T12:56:02.518Z</time>
      </trkpt>
      <trkpt lat="44.33905" lon="0.79232">
        <ele>113</ele>
        <time>2025-10-12T12:56:03.518Z</time>
      </trkpt>
      <trkpt lat="44.33906" lon="0.79232">
        <ele>113</ele>
        <time>2025-10-12T12:56:04.518Z</time>
      </trkpt>
      <trkpt lat="44.33908" lon="0.79232">
        <ele>112</ele>
        <time>2025-10-12T12:56:05.518Z</time>
      </trkpt>
      <trkpt lat="44.33909" lon="0.79233">
        <ele>112</ele>
        <time>2025-10-12T12:56:06.518Z</time>
      </trkpt>
      <trkpt lat="44.3391" lon="0.79234">
        <ele>112</ele>
        <time>2025-10-12T12:56:07.518Z</time>
      </trkpt>
      <trkpt lat="44.33911" lon="0.79234">
        <ele>112</ele>
        <time>2025-10-12T12:56:08.518Z</time>
      </trkpt>
      <trkpt lat="44.33912" lon="0.79234">
        <ele>111</ele>
        <time>2025-10-12T12:56:09.518Z</time>
      </trkpt>
      <trkpt lat="44.33913" lon="0.79235">
        <ele>111</ele>
        <time>2025-10-12T12:56:10.518Z</time>
      </trkpt>
      <trkpt lat="44.33914" lon="0.79235">
        <ele>111</ele>
        <time>2025-10-12T12:56:11.518Z</time>
      </trkpt>
      <trkpt lat="44.33915" lon="0.79236">
        <ele>111</ele>
        <time>2025-10-12T12:56:12.518Z</time>
      </trkpt>
      <trkpt lat="44.33917" lon="0.79236">
        <ele>111</ele>
        <time>2025-10-12T12:56:13.518Z</time>
      </trkpt>
      <trkpt lat="44.33918" lon="0.79236">
        <ele>110</ele>
        <time>2025-10-12T12:56:14.518Z</time>
      </trkpt>
      <trkpt lat="44.33919" lon="0.79237">
        <ele>110</ele>
        <time>2025-10-12T12:56:15.518Z</time>
      </trkpt>
      <trkpt lat="44.3392" lon="0.79238">
        <ele>110</ele>
        <time>2025-10-12T12:56:16.518Z</time>
      </trkpt>
      <trkpt lat="44.3392" lon="0.79238">
        <ele>110</ele>
        <time>2025-10-12T12:56:17.518Z</time>
      </trkpt>
      <trkpt lat="44.33921" lon="0.79239">
        <ele>110</ele>
        <time>2025-10-12T12:56:18.518Z</time>
      </trkpt>
      <trkpt lat="44.33922" lon="0.79241">
        <ele>110</ele>
        <time>2025-10-12T12:56:19.518Z</time>
      </trkpt>
      <trkpt lat="44.33922" lon="0.79241">
        <ele>110</ele>
        <time>2025-10-12T12:56:20.518Z</time>
      </trkpt>
      <trkpt lat="44.33923" lon="0.79241">
        <ele>110</ele>
        <time>2025-10-12T12:56:21.518Z</time>
      </trkpt>
      <trkpt lat="44.33924" lon="0.79242">
        <ele>110</ele>
        <time>2025-10-12T12:56:22.518Z</time>
      </trkpt>
      <trkpt lat="44.33925" lon="0.79243">
        <ele>110</ele>
        <time>2025-10-12T12:56:23.518Z</time>
      </trkpt>
      <trkpt lat="44.33926" lon="0.79243">
        <ele>110</ele>
        <time>2025-10-12T12:56:24.518Z</time>
      </trkpt>
      <trkpt lat="44.33927" lon="0.79244">
        <ele>110</ele>
        <time>2025-10-12T12:56:25.518Z</time>
      </trkpt>
      <trkpt lat="44.33928" lon="0.79245">
        <ele>110</ele>
        <time>2025-10-12T12:56:26.518Z</time>
      </trkpt>
      <trkpt lat="44.3393" lon="0.79246">
        <ele>109</ele>
        <time>2025-10-12T12:56:27.518Z</time>
      </trkpt>
      <trkpt lat="44.33931" lon="0.79246">
        <ele>109</ele>
        <time>2025-10-12T12:56:28.518Z</time>
      </trkpt>
      <trkpt lat="44.33932" lon="0.79246">
        <ele>109</ele>
        <time>2025-10-12T12:56:29.518Z</time>
      </trkpt>
      <trkpt lat="44.33933" lon="0.79246">
        <ele>109</ele>
        <time>2025-10-12T12:56:30.518Z</time>
      </trkpt>
      <trkpt lat="44.33934" lon="0.79247">
        <ele>109</ele>
        <time>2025-10-12T12:56:31.518Z</time>
      </trkpt>
      <trkpt lat="44.33934" lon="0.79247">
        <ele>109</ele>
        <time>2025-10-12T12:56:32.518Z</time>
      </trkpt>
      <trkpt lat="44.33935" lon="0.79248">
        <ele>109</ele>
        <time>2025-10-12T12:56:33.518Z</time>
      </trkpt>
      <trkpt lat="44.33936" lon="0.79248">
        <ele>109</ele>
        <time>2025-10-12T12:56:34.518Z</time>
      </trkpt>
      <trkpt lat="44.33937" lon="0.79248">
        <ele>109</ele>
        <time>2025-10-12T12:56:35.518Z</time>
      </trkpt>
      <trkpt lat="44.33938" lon="0.79249">
        <ele>109</ele>
        <time>2025-10-12T12:56:36.518Z</time>
      </trkpt>
      <trkpt lat="44.33939" lon="0.7925">
        <ele>109</ele>
        <time>2025-10-12T12:56:37.518Z</time>
      </trkpt>
      <trkpt lat="44.3394" lon="0.7925">
        <ele>109</ele>
        <time>2025-10-12T12:56:38.518Z</time>
      </trkpt>
      <trkpt lat="44.33941" lon="0.7925">
        <ele>109</ele>
        <time>2025-10-12T12:56:39.518Z</time>
      </trkpt>
      <trkpt lat="44.33942" lon="0.7925">
        <ele>109</ele>
        <time>2025-10-12T12:56:40.518Z</time>
      </trkpt>
      <trkpt lat="44.33943" lon="0.7925">
        <ele>108</ele>
        <time>2025-10-12T12:56:41.518Z</time>
      </trkpt>
      <trkpt lat="44.33945" lon="0.7925">
        <ele>108</ele>
        <time>2025-10-12T12:56:42.518Z</time>
      </trkpt>
      <trkpt lat="44.33947" lon="0.7925">
        <ele>108</ele>
        <time>2025-10-12T12:56:43.518Z</time>
      </trkpt>
      <trkpt lat="44.33947" lon="0.7925">
        <ele>108</ele>
        <time>2025-10-12T12:56:44.518Z</time>
      </trkpt>
      <trkpt lat="44.33948" lon="0.7925">
        <ele>108</ele>
        <time>2025-10-12T12:56:45.518Z</time>
      </trkpt>
      <trkpt lat="44.33948" lon="0.7925">
        <ele>108</ele>
        <time>2025-10-12T12:56:46.518Z</time>
      </trkpt>
      <trkpt lat="44.33948" lon="0.7925">
        <ele>108</ele>
        <time>2025-10-12T12:56:47.518Z</time>
      </trkpt>
      <trkpt lat="44.33949" lon="0.79251">
        <ele>107</ele>
        <time>2025-10-12T12:56:48.518Z</time>
      </trkpt>
      <trkpt lat="44.33949" lon="0.79251">
        <ele>107</ele>
        <time>2025-10-12T12:56:49.518Z</time>
      </trkpt>
      <trkpt lat="44.33949" lon="0.7925">
        <ele>107</ele>
        <time>2025-10-12T12:56:50.518Z</time>
      </trkpt>
      <trkpt lat="44.3395" lon="0.79251">
        <ele>106</ele>
        <time>2025-10-12T12:56:51.518Z</time>
      </trkpt>
      <trkpt lat="44.33951" lon="0.79251">
        <ele>105</ele>
        <time>2025-10-12T12:56:52.518Z</time>
      </trkpt>
      <trkpt lat="44.33951" lon="0.79251">
        <ele>105</ele>
        <time>2025-10-12T12:56:53.518Z</time>
      </trkpt>
      <trkpt lat="44.33952" lon="0.79252">
        <ele>105</ele>
        <time>2025-10-12T12:56:54.518Z</time>
      </trkpt>
      <trkpt lat="44.33953" lon="0.79252">
        <ele>105</ele>
        <time>2025-10-12T12:56:55.518Z</time>
      </trkpt>
      <trkpt lat="44.33953" lon="0.79253">
        <ele>104</ele>
        <time>2025-10-12T12:56:56.518Z</time>
      </trkpt>
      <trkpt lat="44.33954" lon="0.79254">
        <ele>104</ele>
        <time>2025-10-12T12:56:57.518Z</time>
      </trkpt>
      <trkpt lat="44.33955" lon="0.79254">
        <ele>103</ele>
        <time>2025-10-12T12:56:58.518Z</time>
      </trkpt>
      <trkpt lat="44.33956" lon="0.79255">
        <ele>103</ele>
        <time>2025-10-12T12:56:59.518Z</time>
      </trkpt>
      <trkpt lat="44.33956" lon="0.79255">
        <ele>103</ele>
        <time>2025-10-12T12:57:00.518Z</time>
      </trkpt>
      <trkpt lat="44.33957" lon="0.79255">
        <ele>104</ele>
        <time>2025-10-12T12:57:01.518Z</time>
      </trkpt>
      <trkpt lat="44.33958" lon="0.79255">
        <ele>104</ele>
        <time>2025-10-12T12:57:02.518Z</time>
      </trkpt>
      <trkpt lat="44.33959" lon="0.79255">
        <ele>103</ele>
        <time>2025-10-12T12:57:03.518Z</time>
      </trkpt>
      <trkpt lat="44.3396" lon="0.79256">
        <ele>103</ele>
        <time>2025-10-12T12:57:04.518Z</time>
      </trkpt>
      <trkpt lat="44.33961" lon="0.79256">
        <ele>103</ele>
        <time>2025-10-12T12:57:05.518Z</time>
      </trkpt>
      <trkpt lat="44.33962" lon="0.79256">
        <ele>103</ele>
        <time>2025-10-12T12:57:06.518Z</time>
      </trkpt>
      <trkpt lat="44.33963" lon="0.79256">
        <ele>103</ele>
        <time>2025-10-12T12:57:07.518Z</time>
      </trkpt>
      <trkpt lat="44.33964" lon="0.79257">
        <ele>103</ele>
        <time>2025-10-12T12:57:08.518Z</time>
      </trkpt>
      <trkpt lat="44.33965" lon="0.79258">
        <ele>103</ele>
        <time>2025-10-12T12:57:09.518Z</time>
      </trkpt>
      <trkpt lat="44.33966" lon="0.79259">
        <ele>103</ele>
        <time>2025-10-12T12:57:10.518Z</time>
      </trkpt>
      <trkpt lat="44.33967" lon="0.7926">
        <ele>103</ele>
        <time>2025-10-12T12:57:11.518Z</time>
      </trkpt>
      <trkpt lat="44.33968" lon="0.7926">
        <ele>104</ele>
        <time>2025-10-12T12:57:12.518Z</time>
      </trkpt>
      <trkpt lat="44.3397" lon="0.7926">
        <ele>103</ele>
        <time>2025-10-12T12:57:13.518Z</time>
      </trkpt>
      <trkpt lat="44.33971" lon="0.79261">
        <ele>103</ele>
        <time>2025-10-12T12:57:14.518Z</time>
      </trkpt>
      <trkpt lat="44.33971" lon="0.79261">
        <ele>103</ele>
        <time>2025-10-12T12:57:15.518Z</time>
      </trkpt>
      <trkpt lat="44.33972" lon="0.79262">
        <ele>103</ele>
        <time>2025-10-12T12:57:16.518Z</time>
      </trkpt>
      <trkpt lat="44.33972" lon="0.79263">
        <ele>103</ele>
        <time>2025-10-12T12:57:17.518Z</time>
      </trkpt>
      <trkpt lat="44.33973" lon="0.79263">
        <ele>102</ele>
        <time>2025-10-12T12:57:18.518Z</time>
      </trkpt>
      <trkpt lat="44.33974" lon="0.79264">
        <ele>102</ele>
        <time>2025-10-12T12:57:19.518Z</time>
      </trkpt>
      <trkpt lat="44.33974" lon="0.79264">
        <ele>102</ele>
        <time>2025-10-12T12:57:20.518Z</time>
      </trkpt>
      <trkpt lat="44.33975" lon="0.79264">
        <ele>102</ele>
        <time>2025-10-12T12:57:21.518Z</time>
      </trkpt>
      <trkpt lat="44.33976" lon="0.79264">
        <ele>102</ele>
        <time>2025-10-12T12:57:22.518Z</time>
      </trkpt>
      <trkpt lat="44.33977" lon="0.79264">
        <ele>102</ele>
        <time>2025-10-12T12:57:23.518Z</time>
      </trkpt>
      <trkpt lat="44.33978" lon="0.79265">
        <ele>102</ele>
        <time>2025-10-12T12:57:24.518Z</time>
      </trkpt>
      <trkpt lat="44.33979" lon="0.79265">
        <ele>102</ele>
        <time>2025-10-12T12:57:25.518Z</time>
      </trkpt>
      <trkpt lat="44.33981" lon="0.79266">
        <ele>101</ele>
        <time>2025-10-12T12:57:26.518Z</time>
      </trkpt>
      <trkpt lat="44.33982" lon="0.79266">
        <ele>101</ele>
        <time>2025-10-12T12:57:27.518Z</time>
      </trkpt>
      <trkpt lat="44.33984" lon="0.79267">
        <ele>101</ele>
        <time>2025-10-12T12:57:28.518Z</time>
      </trkpt>
      <trkpt lat="44.33986" lon="0.79268">
        <ele>101</ele>
        <time>2025-10-12T12:57:29.518Z</time>
      </trkpt>
      <trkpt lat="44.33987" lon="0.79269">
        <ele>101</ele>
        <time>2025-10-12T12:57:30.518Z</time>
      </trkpt>
      <trkpt lat="44.33988" lon="0.7927">
        <ele>101</ele>
        <time>2025-10-12T12:57:31.518Z</time>
      </trkpt>
      <trkpt lat="44.3399" lon="0.79271">
        <ele>101</ele>
        <time>2025-10-12T12:57:32.518Z</time>
      </trkpt>
      <trkpt lat="44.3399" lon="0.79271">
        <ele>100</ele>
        <time>2025-10-12T12:57:33.518Z</time>
      </trkpt>
      <trkpt lat="44.33991" lon="0.79272">
        <ele>100</ele>
        <time>2025-10-12T12:57:34.518Z</time>
      </trkpt>
      <trkpt lat="44.33992" lon="0.79272">
        <ele>100</ele>
        <time>2025-10-12T12:57:35.518Z</time>
      </trkpt>
      <trkpt lat="44.33992" lon="0.79272">
        <ele>100</ele>
        <time>2025-10-12T12:57:36.518Z</time>
      </trkpt>
      <trkpt lat="44.33994" lon="0.79273">
        <ele>99</ele>
        <time>2025-10-12T12:57:37.518Z</time>
      </trkpt>
      <trkpt lat="44.33995" lon="0.79273">
        <ele>99</ele>
        <time>2025-10-12T12:57:38.518Z</time>
      </trkpt>
      <trkpt lat="44.33996" lon="0.79274">
        <ele>100</ele>
        <time>2025-10-12T12:57:39.518Z</time>
      </trkpt>
      <trkpt lat="44.33996" lon="0.79274">
        <ele>100</ele>
        <time>2025-10-12T12:57:40.518Z</time>
      </trkpt>
      <trkpt lat="44.33997" lon="0.79274">
        <ele>99</ele>
        <time>2025-10-12T12:57:41.518Z</time>
      </trkpt>
      <trkpt lat="44.33998" lon="0.79275">
        <ele>99</ele>
        <time>2025-10-12T12:57:42.518Z</time>
      </trkpt>
      <trkpt lat="44.33999" lon="0.79276">
        <ele>99</ele>
        <time>2025-10-12T12:57:43.518Z</time>
      </trkpt>
      <trkpt lat="44.34" lon="0.79276">
        <ele>99</ele>
        <time>2025-10-12T12:57:44.518Z</time>
      </trkpt>
      <trkpt lat="44.34001" lon="0.79277">
        <ele>99</ele>
        <time>2025-10-12T12:57:45.518Z</time>
      </trkpt>
      <trkpt lat="44.34002" lon="0.79277">
        <ele>99</ele>
        <time>2025-10-12T12:57:46.518Z</time>
      </trkpt>
      <trkpt lat="44.34003" lon="0.79278">
        <ele>99</ele>
        <time>2025-10-12T12:57:47.518Z</time>
      </trkpt>
      <trkpt lat="44.34005" lon="0.79279">
        <ele>99</ele>
        <time>2025-10-12T12:57:48.518Z</time>
      </trkpt>
      <trkpt lat="44.34005" lon="0.7928">
        <ele>99</ele>
        <time>2025-10-12T12:57:49.518Z</time>
      </trkpt>
      <trkpt lat="44.34006" lon="0.7928">
        <ele>99</ele>
        <time>2025-10-12T12:57:50.518Z</time>
      </trkpt>
      <trkpt lat="44.34007" lon="0.7928">
        <ele>98</ele>
        <time>2025-10-12T12:57:51.518Z</time>
      </trkpt>
      <trkpt lat="44.34008" lon="0.79281">
        <ele>98</ele>
        <time>2025-10-12T12:57:52.518Z</time>
      </trkpt>
      <trkpt lat="44.34009" lon="0.79281">
        <ele>97</ele>
        <time>2025-10-12T12:57:53.518Z</time>
      </trkpt>
      <trkpt lat="44.3401" lon="0.79281">
        <ele>97</ele>
        <time>2025-10-12T12:57:54.518Z</time>
      </trkpt>
      <trkpt lat="44.34011" lon="0.79282">
        <ele>97</ele>
        <time>2025-10-12T12:57:55.518Z</time>
      </trkpt>
      <trkpt lat="44.34012" lon="0.79283">
        <ele>96</ele>
        <time>2025-10-12T12:57:56.518Z</time>
      </trkpt>
      <trkpt lat="44.34013" lon="0.79283">
        <ele>96</ele>
        <time>2025-10-12T12:57:57.518Z</time>
      </trkpt>
      <trkpt lat="44.34014" lon="0.79283">
        <ele>96</ele>
        <time>2025-10-12T12:57:58.518Z</time>
      </trkpt>
      <trkpt lat="44.34015" lon="0.79283">
        <ele>96</ele>
        <time>2025-10-12T12:57:59.518Z</time>
      </trkpt>
      <trkpt lat="44.34016" lon="0.79283">
        <ele>96</ele>
        <time>2025-10-12T12:58:00.518Z</time>
      </trkpt>
      <trkpt lat="44.34017" lon="0.79283">
        <ele>96</ele>
        <time>2025-10-12T12:58:01.518Z</time>
      </trkpt>
      <trkpt lat="44.34018" lon="0.79283">
        <ele>96</ele>
        <time>2025-10-12T12:58:02.518Z</time>
      </trkpt>
      <trkpt lat="44.34019" lon="0.79284">
        <ele>96</ele>
        <time>2025-10-12T12:58:03.518Z</time>
      </trkpt>
      <trkpt lat="44.3402" lon="0.79284">
        <ele>96</ele>
        <time>2025-10-12T12:58:04.518Z</time>
      </trkpt>
      <trkpt lat="44.3402" lon="0.79284">
        <ele>95</ele>
        <time>2025-10-12T12:58:05.518Z</time>
      </trkpt>
      <trkpt lat="44.34021" lon="0.79285">
        <ele>95</ele>
        <time>2025-10-12T12:58:06.518Z</time>
      </trkpt>
      <trkpt lat="44.34023" lon="0.79285">
        <ele>95</ele>
        <time>2025-10-12T12:58:07.518Z</time>
      </trkpt>
      <trkpt lat="44.34024" lon="0.79286">
        <ele>95</ele>
        <time>2025-10-12T12:58:08.518Z</time>
      </trkpt>
      <trkpt lat="44.34026" lon="0.79286">
        <ele>95</ele>
        <time>2025-10-12T12:58:09.518Z</time>
      </trkpt>
      <trkpt lat="44.34027" lon="0.79287">
        <ele>95</ele>
        <time>2025-10-12T12:58:10.518Z</time>
      </trkpt>
      <trkpt lat="44.34027" lon="0.79287">
        <ele>95</ele>
        <time>2025-10-12T12:58:11.518Z</time>
      </trkpt>
      <trkpt lat="44.34028" lon="0.79288">
        <ele>95</ele>
        <time>2025-10-12T12:58:12.518Z</time>
      </trkpt>
      <trkpt lat="44.34029" lon="0.79288">
        <ele>94</ele>
        <time>2025-10-12T12:58:13.518Z</time>
      </trkpt>
      <trkpt lat="44.34029" lon="0.79289">
        <ele>94</ele>
        <time>2025-10-12T12:58:14.518Z</time>
      </trkpt>
      <trkpt lat="44.3403" lon="0.79289">
        <ele>94</ele>
        <time>2025-10-12T12:58:15.518Z</time>
      </trkpt>
      <trkpt lat="44.34031" lon="0.79289">
        <ele>94</ele>
        <time>2025-10-12T12:58:16.518Z</time>
      </trkpt>
      <trkpt lat="44.34032" lon="0.7929">
        <ele>94</ele>
        <time>2025-10-12T12:58:17.518Z</time>
      </trkpt>
      <trkpt lat="44.34033" lon="0.7929">
        <ele>93</ele>
        <time>2025-10-12T12:58:18.518Z</time>
      </trkpt>
      <trkpt lat="44.34034" lon="0.79291">
        <ele>93</ele>
        <time>2025-10-12T12:58:19.518Z</time>
      </trkpt>
      <trkpt lat="44.34034" lon="0.79292">
        <ele>92</ele>
        <time>2025-10-12T12:58:20.518Z</time>
      </trkpt>
      <trkpt lat="44.34035" lon="0.79292">
        <ele>92</ele>
        <time>2025-10-12T12:58:21.518Z</time>
      </trkpt>
      <trkpt lat="44.34036" lon="0.79292">
        <ele>91</ele>
        <time>2025-10-12T12:58:22.518Z</time>
      </trkpt>
      <trkpt lat="44.34036" lon="0.79293">
        <ele>91</ele>
        <time>2025-10-12T12:58:23.518Z</time>
      </trkpt>
      <trkpt lat="44.34037" lon="0.79293">
        <ele>91</ele>
        <time>2025-10-12T12:58:24.518Z</time>
      </trkpt>
      <trkpt lat="44.34038" lon="0.79293">
        <ele>90</ele>
        <time>2025-10-12T12:58:25.518Z</time>
      </trkpt>
      <trkpt lat="44.34038" lon="0.79294">
        <ele>90</ele>
        <time>2025-10-12T12:58:26.518Z</time>
      </trkpt>
      <trkpt lat="44.34038" lon="0.79294">
        <ele>90</ele>
        <time>2025-10-12T12:58:27.518Z</time>
      </trkpt>
      <trkpt lat="44.34039" lon="0.79295">
        <ele>90</ele>
        <time>2025-10-12T12:58:28.518Z</time>
      </trkpt>
      <trkpt lat="44.3404" lon="0.79296">
        <ele>90</ele>
        <time>2025-10-12T12:58:29.518Z</time>
      </trkpt>
      <trkpt lat="44.3404" lon="0.79296">
        <ele>90</ele>
        <time>2025-10-12T12:58:30.518Z</time>
      </trkpt>
      <trkpt lat="44.34042" lon="0.79296">
        <ele>90</ele>
        <time>2025-10-12T12:58:31.518Z</time>
      </trkpt>
      <trkpt lat="44.34042" lon="0.79296">
        <ele>90</ele>
        <time>2025-10-12T12:58:32.518Z</time>
      </trkpt>
      <trkpt lat="44.34044" lon="0.79297">
        <ele>89</ele>
        <time>2025-10-12T12:58:33.518Z</time>
      </trkpt>
      <trkpt lat="44.34044" lon="0.79297">
        <ele>89</ele>
        <time>2025-10-12T12:58:34.518Z</time>
      </trkpt>
      <trkpt lat="44.34045" lon="0.79297">
        <ele>89</ele>
        <time>2025-10-12T12:58:35.518Z</time>
      </trkpt>
      <trkpt lat="44.34046" lon="0.79298">
        <ele>89</ele>
        <time>2025-10-12T12:58:36.518Z</time>
      </trkpt>
      <trkpt lat="44.34048" lon="0.79299">
        <ele>89</ele>
        <time>2025-10-12T12:58:37.518Z</time>
      </trkpt>
      <trkpt lat="44.34048" lon="0.79299">
        <ele>89</ele>
        <time>2025-10-12T12:58:38.518Z</time>
      </trkpt>
      <trkpt lat="44.34049" lon="0.793">
        <ele>89</ele>
        <time>2025-10-12T12:58:39.518Z</time>
      </trkpt>
      <trkpt lat="44.34051" lon="0.793">
        <ele>88</ele>
        <time>2025-10-12T12:58:40.518Z</time>
      </trkpt>
      <trkpt lat="44.34051" lon="0.793">
        <ele>88</ele>
        <time>2025-10-12T12:58:41.518Z</time>
      </trkpt>
      <trkpt lat="44.34052" lon="0.793">
        <ele>88</ele>
        <time>2025-10-12T12:58:42.518Z</time>
      </trkpt>
      <trkpt lat="44.34053" lon="0.79301">
        <ele>88</ele>
        <time>2025-10-12T12:58:43.518Z</time>
      </trkpt>
      <trkpt lat="44.34054" lon="0.79301">
        <ele>88</ele>
        <time>2025-10-12T12:58:44.518Z</time>
      </trkpt>
      <trkpt lat="44.34055" lon="0.79301">
        <ele>88</ele>
        <time>2025-10-12T12:58:45.518Z</time>
      </trkpt>
      <trkpt lat="44.34056" lon="0.79302">
        <ele>88</ele>
        <time>2025-10-12T12:58:46.518Z</time>
      </trkpt>
      <trkpt lat="44.34057" lon="0.79302">
        <ele>88</ele>
        <time>2025-10-12T12:58:47.518Z</time>
      </trkpt>
      <trkpt lat="44.34058" lon="0.79303">
        <ele>88</ele>
        <time>2025-10-12T12:58:48.518Z</time>
      </trkpt>
      <trkpt lat="44.34059" lon="0.79303">
        <ele>88</ele>
        <time>2025-10-12T12:58:49.518Z</time>
      </trkpt>
      <trkpt lat="44.3406" lon="0.79303">
        <ele>88</ele>
        <time>2025-10-12T12:58:50.518Z</time>
      </trkpt>
      <trkpt lat="44.34061" lon="0.79303">
        <ele>88</ele>
        <time>2025-10-12T12:58:51.518Z</time>
      </trkpt>
      <trkpt lat="44.34062" lon="0.79303">
        <ele>88</ele>
        <time>2025-10-12T12:58:52.518Z</time>
      </trkpt>
      <trkpt lat="44.34063" lon="0.79303">
        <ele>88</ele>
        <time>2025-10-12T12:58:53.518Z</time>
      </trkpt>
      <trkpt lat="44.34064" lon="0.79303">
        <ele>88</ele>
        <time>2025-10-12T12:58:54.518Z</time>
      </trkpt>
      <trkpt lat="44.34065" lon="0.79303">
        <ele>88</ele>
        <time>2025-10-12T12:58:55.518Z</time>
      </trkpt>
      <trkpt lat="44.34067" lon="0.79303">
        <ele>88</ele>
        <time>2025-10-12T12:58:56.518Z</time>
      </trkpt>
      <trkpt lat="44.34068" lon="0.79303">
        <ele>88</ele>
        <time>2025-10-12T12:58:57.518Z</time>
      </trkpt>
      <trkpt lat="44.34069" lon="0.79303">
        <ele>89</ele>
        <time>2025-10-12T12:58:58.518Z</time>
      </trkpt>
      <trkpt lat="44.3407" lon="0.79304">
        <ele>89</ele>
        <time>2025-10-12T12:58:59.518Z</time>
      </trkpt>
      <trkpt lat="44.34071" lon="0.79304">
        <ele>90</ele>
        <time>2025-10-12T12:59:00.518Z</time>
      </trkpt>
      <trkpt lat="44.34071" lon="0.79304">
        <ele>90</ele>
        <time>2025-10-12T12:59:01.518Z</time>
      </trkpt>
      <trkpt lat="44.34072" lon="0.79304">
        <ele>91</ele>
        <time>2025-10-12T12:59:02.518Z</time>
      </trkpt>
      <trkpt lat="44.34073" lon="0.79304">
        <ele>91</ele>
        <time>2025-10-12T12:59:03.518Z</time>
      </trkpt>
      <trkpt lat="44.34074" lon="0.79304">
        <ele>92</ele>
        <time>2025-10-12T12:59:04.518Z</time>
      </trkpt>
      <trkpt lat="44.34075" lon="0.79304">
        <ele>92</ele>
        <time>2025-10-12T12:59:05.518Z</time>
      </trkpt>
      <trkpt lat="44.34076" lon="0.79304">
        <ele>92</ele>
        <time>2025-10-12T12:59:06.518Z</time>
      </trkpt>
      <trkpt lat="44.34077" lon="0.79304">
        <ele>93</ele>
        <time>2025-10-12T12:59:07.518Z</time>
      </trkpt>
      <trkpt lat="44.34078" lon="0.79304">
        <ele>93</ele>
        <time>2025-10-12T12:59:08.518Z</time>
      </trkpt>
      <trkpt lat="44.34079" lon="0.79305">
        <ele>93</ele>
        <time>2025-10-12T12:59:09.518Z</time>
      </trkpt>
      <trkpt lat="44.3408" lon="0.79305">
        <ele>93</ele>
        <time>2025-10-12T12:59:10.518Z</time>
      </trkpt>
      <trkpt lat="44.34081" lon="0.79305">
        <ele>93</ele>
        <time>2025-10-12T12:59:11.518Z</time>
      </trkpt>
      <trkpt lat="44.34082" lon="0.79305">
        <ele>94</ele>
        <time>2025-10-12T12:59:12.518Z</time>
      </trkpt>
      <trkpt lat="44.34083" lon="0.79305">
        <ele>93</ele>
        <time>2025-10-12T12:59:13.518Z</time>
      </trkpt>
      <trkpt lat="44.34084" lon="0.79306">
        <ele>93</ele>
        <time>2025-10-12T12:59:14.518Z</time>
      </trkpt>
      <trkpt lat="44.34085" lon="0.79306">
        <ele>93</ele>
        <time>2025-10-12T12:59:15.518Z</time>
      </trkpt>
      <trkpt lat="44.34086" lon="0.79306">
        <ele>93</ele>
        <time>2025-10-12T12:59:16.518Z</time>
      </trkpt>
      <trkpt lat="44.34087" lon="0.79307">
        <ele>93</ele>
        <time>2025-10-12T12:59:17.518Z</time>
      </trkpt>
      <trkpt lat="44.34088" lon="0.79307">
        <ele>92</ele>
        <time>2025-10-12T12:59:18.518Z</time>
      </trkpt>
      <trkpt lat="44.34089" lon="0.79308">
        <ele>92</ele>
        <time>2025-10-12T12:59:19.518Z</time>
      </trkpt>
      <trkpt lat="44.3409" lon="0.79308">
        <ele>92</ele>
        <time>2025-10-12T12:59:20.518Z</time>
      </trkpt>
      <trkpt lat="44.34091" lon="0.79309">
        <ele>91</ele>
        <time>2025-10-12T12:59:21.518Z</time>
      </trkpt>
      <trkpt lat="44.34092" lon="0.79309">
        <ele>91</ele>
        <time>2025-10-12T12:59:22.518Z</time>
      </trkpt>
      <trkpt lat="44.34093" lon="0.7931">
        <ele>90</ele>
        <time>2025-10-12T12:59:23.518Z</time>
      </trkpt>
      <trkpt lat="44.34093" lon="0.79311">
        <ele>90</ele>
        <time>2025-10-12T12:59:24.518Z</time>
      </trkpt>
      <trkpt lat="44.34095" lon="0.79311">
        <ele>90</ele>
        <time>2025-10-12T12:59:25.518Z</time>
      </trkpt>
      <trkpt lat="44.34096" lon="0.79312">
        <ele>90</ele>
        <time>2025-10-12T12:59:26.518Z</time>
      </trkpt>
      <trkpt lat="44.34097" lon="0.79313">
        <ele>90</ele>
        <time>2025-10-12T12:59:27.518Z</time>
      </trkpt>
      <trkpt lat="44.34098" lon="0.79314">
        <ele>90</ele>
        <time>2025-10-12T12:59:28.518Z</time>
      </trkpt>
      <trkpt lat="44.34099" lon="0.79314">
        <ele>89</ele>
        <time>2025-10-12T12:59:29.518Z</time>
      </trkpt>
      <trkpt lat="44.341" lon="0.79314">
        <ele>89</ele>
        <time>2025-10-12T12:59:30.518Z</time>
      </trkpt>
      <trkpt lat="44.34101" lon="0.79314">
        <ele>89</ele>
        <time>2025-10-12T12:59:31.518Z</time>
      </trkpt>
      <trkpt lat="44.34102" lon="0.79314">
        <ele>89</ele>
        <time>2025-10-12T12:59:32.518Z</time>
      </trkpt>
      <trkpt lat="44.34102" lon="0.79314">
        <ele>89</ele>
        <time>2025-10-12T12:59:33.518Z</time>
      </trkpt>
      <trkpt lat="44.34103" lon="0.79314">
        <ele>89</ele>
        <time>2025-10-12T12:59:34.518Z</time>
      </trkpt>
      <trkpt lat="44.34104" lon="0.79314">
        <ele>89</ele>
        <time>2025-10-12T12:59:35.518Z</time>
      </trkpt>
      <trkpt lat="44.34105" lon="0.79314">
        <ele>88</ele>
        <time>2025-10-12T12:59:36.518Z</time>
      </trkpt>
      <trkpt lat="44.34106" lon="0.79315">
        <ele>88</ele>
        <time>2025-10-12T12:59:37.518Z</time>
      </trkpt>
      <trkpt lat="44.34107" lon="0.79316">
        <ele>88</ele>
        <time>2025-10-12T12:59:38.518Z</time>
      </trkpt>
      <trkpt lat="44.34108" lon="0.79316">
        <ele>88</ele>
        <time>2025-10-12T12:59:39.518Z</time>
      </trkpt>
      <trkpt lat="44.34109" lon="0.79316">
        <ele>88</ele>
        <time>2025-10-12T12:59:40.518Z</time>
      </trkpt>
      <trkpt lat="44.3411" lon="0.79317">
        <ele>88</ele>
        <time>2025-10-12T12:59:41.518Z</time>
      </trkpt>
      <trkpt lat="44.34111" lon="0.79317">
        <ele>88</ele>
        <time>2025-10-12T12:59:42.518Z</time>
      </trkpt>
      <trkpt lat="44.34112" lon="0.79318">
        <ele>88</ele>
        <time>2025-10-12T12:59:43.518Z</time>
      </trkpt>
      <trkpt lat="44.34114" lon="0.79319">
        <ele>88</ele>
        <time>2025-10-12T12:59:44.518Z</time>
      </trkpt>
      <trkpt lat="44.34115" lon="0.7932">
        <ele>88</ele>
        <time>2025-10-12T12:59:45.518Z</time>
      </trkpt>
      <trkpt lat="44.34115" lon="0.7932">
        <ele>88</ele>
        <time>2025-10-12T12:59:46.518Z</time>
      </trkpt>
      <trkpt lat="44.34116" lon="0.7932">
        <ele>87</ele>
        <time>2025-10-12T12:59:47.518Z</time>
      </trkpt>
      <trkpt lat="44.34117" lon="0.79321">
        <ele>87</ele>
        <time>2025-10-12T12:59:48.518Z</time>
      </trkpt>
      <trkpt lat="44.34118" lon="0.79321">
        <ele>87</ele>
        <time>2025-10-12T12:59:49.518Z</time>
      </trkpt>
      <trkpt lat="44.3412" lon="0.79322">
        <ele>87</ele>
        <time>2025-10-12T12:59:50.518Z</time>
      </trkpt>
      <trkpt lat="44.34121" lon="0.79322">
        <ele>86</ele>
        <time>2025-10-12T12:59:51.518Z</time>
      </trkpt>
      <trkpt lat="44.34122" lon="0.79323">
        <ele>86</ele>
        <time>2025-10-12T12:59:52.518Z</time>
      </trkpt>
      <trkpt lat="44.34123" lon="0.79324">
        <ele>86</ele>
        <time>2025-10-12T12:59:53.518Z</time>
      </trkpt>
      <trkpt lat="44.34123" lon="0.79325">
        <ele>86</ele>
        <time>2025-10-12T12:59:54.518Z</time>
      </trkpt>
      <trkpt lat="44.34124" lon="0.79325">
        <ele>85</ele>
        <time>2025-10-12T12:59:55.518Z</time>
      </trkpt>
      <trkpt lat="44.34125" lon="0.79325">
        <ele>85</ele>
        <time>2025-10-12T12:59:56.518Z</time>
      </trkpt>
      <trkpt lat="44.34127" lon="0.79325">
        <ele>86</ele>
        <time>2025-10-12T12:59:57.518Z</time>
      </trkpt>
      <trkpt lat="44.34128" lon="0.79326">
        <ele>86</ele>
        <time>2025-10-12T12:59:58.518Z</time>
      </trkpt>
      <trkpt lat="44.34129" lon="0.79326">
        <ele>86</ele>
        <time>2025-10-12T12:59:59.518Z</time>
      </trkpt>
      <trkpt lat="44.3413" lon="0.79327">
        <ele>86</ele>
        <time>2025-10-12T13:00:00.518Z</time>
      </trkpt>
      <trkpt lat="44.34131" lon="0.79327">
        <ele>86</ele>
        <time>2025-10-12T13:00:01.519Z</time>
      </trkpt>
      <trkpt lat="44.34132" lon="0.79328">
        <ele>86</ele>
        <time>2025-10-12T13:00:02.518Z</time>
      </trkpt>
      <trkpt lat="44.34133" lon="0.79329">
        <ele>86</ele>
        <time>2025-10-12T13:00:03.518Z</time>
      </trkpt>
      <trkpt lat="44.34133" lon="0.79329">
        <ele>86</ele>
        <time>2025-10-12T13:00:04.518Z</time>
      </trkpt>
      <trkpt lat="44.34134" lon="0.79329">
        <ele>86</ele>
        <time>2025-10-12T13:00:05.518Z</time>
      </trkpt>
      <trkpt lat="44.34135" lon="0.79329">
        <ele>86</ele>
        <time>2025-10-12T13:00:06.518Z</time>
      </trkpt>
      <trkpt lat="44.34135" lon="0.7933">
        <ele>86</ele>
        <time>2025-10-12T13:00:07.518Z</time>
      </trkpt>
      <trkpt lat="44.34136" lon="0.7933">
        <ele>86</ele>
        <time>2025-10-12T13:00:08.518Z</time>
      </trkpt>
      <trkpt lat="44.34137" lon="0.7933">
        <ele>86</ele>
        <time>2025-10-12T13:00:09.518Z</time>
      </trkpt>
      <trkpt lat="44.34138" lon="0.7933">
        <ele>86</ele>
        <time>2025-10-12T13:00:10.518Z</time>
      </trkpt>
      <trkpt lat="44.34138" lon="0.7933">
        <ele>86</ele>
        <time>2025-10-12T13:00:11.518Z</time>
      </trkpt>
      <trkpt lat="44.3414" lon="0.79331">
        <ele>86</ele>
        <time>2025-10-12T13:00:12.518Z</time>
      </trkpt>
      <trkpt lat="44.34141" lon="0.7933">
        <ele>86</ele>
        <time>2025-10-12T13:00:13.518Z</time>
      </trkpt>
      <trkpt lat="44.34142" lon="0.7933">
        <ele>86</ele>
        <time>2025-10-12T13:00:14.518Z</time>
      </trkpt>
      <trkpt lat="44.34143" lon="0.79331">
        <ele>86</ele>
        <time>2025-10-12T13:00:15.518Z</time>
      </trkpt>
      <trkpt lat="44.34144" lon="0.79331">
        <ele>86</ele>
        <time>2025-10-12T13:00:16.518Z</time>
      </trkpt>
      <trkpt lat="44.34145" lon="0.79332">
        <ele>87</ele>
        <time>2025-10-12T13:00:17.518Z</time>
      </trkpt>
      <trkpt lat="44.34147" lon="0.79333">
        <ele>87</ele>
        <time>2025-10-12T13:00:18.518Z</time>
      </trkpt>
      <trkpt lat="44.34148" lon="0.79333">
        <ele>87</ele>
        <time>2025-10-12T13:00:19.518Z</time>
      </trkpt>
      <trkpt lat="44.34148" lon="0.79333">
        <ele>87</ele>
        <time>2025-10-12T13:00:20.518Z</time>
      </trkpt>
      <trkpt lat="44.3415" lon="0.79334">
        <ele>87</ele>
        <time>2025-10-12T13:00:21.518Z</time>
      </trkpt>
      <trkpt lat="44.34151" lon="0.79334">
        <ele>86</ele>
        <time>2025-10-12T13:00:22.518Z</time>
      </trkpt>
      <trkpt lat="44.34152" lon="0.79335">
        <ele>86</ele>
        <time>2025-10-12T13:00:23.518Z</time>
      </trkpt>
      <trkpt lat="44.34153" lon="0.79335">
        <ele>86</ele>
        <time>2025-10-12T13:00:24.518Z</time>
      </trkpt>
      <trkpt lat="44.34154" lon="0.79336">
        <ele>86</ele>
        <time>2025-10-12T13:00:25.518Z</time>
      </trkpt>
      <trkpt lat="44.34155" lon="0.79337">
        <ele>86</ele>
        <time>2025-10-12T13:00:26.518Z</time>
      </trkpt>
      <trkpt lat="44.34156" lon="0.79337">
        <ele>86</ele>
        <time>2025-10-12T13:00:27.518Z</time>
      </trkpt>
      <trkpt lat="44.34158" lon="0.79338">
        <ele>86</ele>
        <time>2025-10-12T13:00:28.518Z</time>
      </trkpt>
      <trkpt lat="44.34158" lon="0.79338">
        <ele>87</ele>
        <time>2025-10-12T13:00:29.518Z</time>
      </trkpt>
      <trkpt lat="44.3416" lon="0.79338">
        <ele>87</ele>
        <time>2025-10-12T13:00:30.518Z</time>
      </trkpt>
      <trkpt lat="44.3416" lon="0.79338">
        <ele>87</ele>
        <time>2025-10-12T13:00:31.518Z</time>
      </trkpt>
      <trkpt lat="44.34161" lon="0.79338">
        <ele>88</ele>
        <time>2025-10-12T13:00:32.518Z</time>
      </trkpt>
      <trkpt lat="44.34162" lon="0.79338">
        <ele>88</ele>
        <time>2025-10-12T13:00:33.518Z</time>
      </trkpt>
      <trkpt lat="44.34163" lon="0.79338">
        <ele>88</ele>
        <time>2025-10-12T13:00:34.518Z</time>
      </trkpt>
      <trkpt lat="44.34164" lon="0.79339">
        <ele>88</ele>
        <time>2025-10-12T13:00:35.518Z</time>
      </trkpt>
      <trkpt lat="44.34165" lon="0.79339">
        <ele>88</ele>
        <time>2025-10-12T13:00:36.518Z</time>
      </trkpt>
      <trkpt lat="44.34166" lon="0.79339">
        <ele>88</ele>
        <time>2025-10-12T13:00:37.518Z</time>
      </trkpt>
      <trkpt lat="44.34167" lon="0.79339">
        <ele>88</ele>
        <time>2025-10-12T13:00:38.518Z</time>
      </trkpt>
      <trkpt lat="44.34168" lon="0.7934">
        <ele>87</ele>
        <time>2025-10-12T13:00:39.518Z</time>
      </trkpt>
      <trkpt lat="44.3417" lon="0.7934">
        <ele>87</ele>
        <time>2025-10-12T13:00:40.518Z</time>
      </trkpt>
      <trkpt lat="44.34171" lon="0.7934">
        <ele>87</ele>
        <time>2025-10-12T13:00:41.518Z</time>
      </trkpt>
      <trkpt lat="44.34173" lon="0.79341">
        <ele>86</ele>
        <time>2025-10-12T13:00:42.518Z</time>
      </trkpt>
      <trkpt lat="44.34174" lon="0.79341">
        <ele>86</ele>
        <time>2025-10-12T13:00:43.518Z</time>
      </trkpt>
      <trkpt lat="44.34175" lon="0.79341">
        <ele>86</ele>
        <time>2025-10-12T13:00:44.518Z</time>
      </trkpt>
      <trkpt lat="44.34176" lon="0.79342">
        <ele>86</ele>
        <time>2025-10-12T13:00:45.518Z</time>
      </trkpt>
      <trkpt lat="44.34177" lon="0.79342">
        <ele>86</ele>
        <time>2025-10-12T13:00:46.518Z</time>
      </trkpt>
      <trkpt lat="44.34178" lon="0.79342">
        <ele>86</ele>
        <time>2025-10-12T13:00:47.518Z</time>
      </trkpt>
      <trkpt lat="44.34179" lon="0.79343">
        <ele>86</ele>
        <time>2025-10-12T13:00:48.518Z</time>
      </trkpt>
      <trkpt lat="44.3418" lon="0.79343">
        <ele>86</ele>
        <time>2025-10-12T13:00:49.518Z</time>
      </trkpt>
      <trkpt lat="44.34181" lon="0.79344">
        <ele>86</ele>
        <time>2025-10-12T13:00:50.518Z</time>
      </trkpt>
      <trkpt lat="44.34181" lon="0.79344">
        <ele>87</ele>
        <time>2025-10-12T13:00:51.518Z</time>
      </trkpt>
      <trkpt lat="44.34182" lon="0.79344">
        <ele>87</ele>
        <time>2025-10-12T13:00:52.518Z</time>
      </trkpt>
      <trkpt lat="44.34183" lon="0.79345">
        <ele>87</ele>
        <time>2025-10-12T13:00:53.518Z</time>
      </trkpt>
      <trkpt lat="44.34185" lon="0.79345">
        <ele>87</ele>
        <time>2025-10-12T13:00:54.518Z</time>
      </trkpt>
      <trkpt lat="44.34186" lon="0.79345">
        <ele>86</ele>
        <time>2025-10-12T13:00:55.518Z</time>
      </trkpt>
      <trkpt lat="44.34186" lon="0.79346">
        <ele>86</ele>
        <time>2025-10-12T13:00:56.518Z</time>
      </trkpt>
      <trkpt lat="44.34188" lon="0.79347">
        <ele>86</ele>
        <time>2025-10-12T13:00:57.518Z</time>
      </trkpt>
      <trkpt lat="44.34189" lon="0.79348">
        <ele>86</ele>
        <time>2025-10-12T13:00:58.518Z</time>
      </trkpt>
      <trkpt lat="44.3419" lon="0.79349">
        <ele>85</ele>
        <time>2025-10-12T13:00:59.518Z</time>
      </trkpt>
      <trkpt lat="44.3419" lon="0.79349">
        <ele>85</ele>
        <time>2025-10-12T13:01:00.518Z</time>
      </trkpt>
      <trkpt lat="44.34191" lon="0.7935">
        <ele>85</ele>
        <time>2025-10-12T13:01:01.518Z</time>
      </trkpt>
      <trkpt lat="44.34192" lon="0.79351">
        <ele>85</ele>
        <time>2025-10-12T13:01:02.518Z</time>
      </trkpt>
      <trkpt lat="44.34193" lon="0.79352">
        <ele>85</ele>
        <time>2025-10-12T13:01:03.518Z</time>
      </trkpt>
      <trkpt lat="44.34194" lon="0.79352">
        <ele>85</ele>
        <time>2025-10-12T13:01:04.518Z</time>
      </trkpt>
      <trkpt lat="44.34195" lon="0.79352">
        <ele>85</ele>
        <time>2025-10-12T13:01:05.518Z</time>
      </trkpt>
      <trkpt lat="44.34196" lon="0.79353">
        <ele>85</ele>
        <time>2025-10-12T13:01:06.518Z</time>
      </trkpt>
      <trkpt lat="44.34197" lon="0.79354">
        <ele>85</ele>
        <time>2025-10-12T13:01:07.518Z</time>
      </trkpt>
      <trkpt lat="44.34198" lon="0.79354">
        <ele>85</ele>
        <time>2025-10-12T13:01:08.518Z</time>
      </trkpt>
      <trkpt lat="44.34198" lon="0.79355">
        <ele>85</ele>
        <time>2025-10-12T13:01:09.518Z</time>
      </trkpt>
      <trkpt lat="44.34199" lon="0.79356">
        <ele>84</ele>
        <time>2025-10-12T13:01:10.518Z</time>
      </trkpt>
      <trkpt lat="44.342" lon="0.79356">
        <ele>84</ele>
        <time>2025-10-12T13:01:11.518Z</time>
      </trkpt>
      <trkpt lat="44.34201" lon="0.79357">
        <ele>84</ele>
        <time>2025-10-12T13:01:12.518Z</time>
      </trkpt>
      <trkpt lat="44.34202" lon="0.79357">
        <ele>84</ele>
        <time>2025-10-12T13:01:13.518Z</time>
      </trkpt>
      <trkpt lat="44.34203" lon="0.79357">
        <ele>83</ele>
        <time>2025-10-12T13:01:14.518Z</time>
      </trkpt>
      <trkpt lat="44.34204" lon="0.79358">
        <ele>83</ele>
        <time>2025-10-12T13:01:15.518Z</time>
      </trkpt>
      <trkpt lat="44.34205" lon="0.79359">
        <ele>83</ele>
        <time>2025-10-12T13:01:16.518Z</time>
      </trkpt>
      <trkpt lat="44.34205" lon="0.79359">
        <ele>83</ele>
        <time>2025-10-12T13:01:17.518Z</time>
      </trkpt>
      <trkpt lat="44.34207" lon="0.79359">
        <ele>82</ele>
        <time>2025-10-12T13:01:18.518Z</time>
      </trkpt>
      <trkpt lat="44.34208" lon="0.79359">
        <ele>82</ele>
        <time>2025-10-12T13:01:19.518Z</time>
      </trkpt>
      <trkpt lat="44.34208" lon="0.79359">
        <ele>83</ele>
        <time>2025-10-12T13:01:20.518Z</time>
      </trkpt>
      <trkpt lat="44.34209" lon="0.79359">
        <ele>83</ele>
        <time>2025-10-12T13:01:21.518Z</time>
      </trkpt>
      <trkpt lat="44.3421" lon="0.7936">
        <ele>83</ele>
        <time>2025-10-12T13:01:22.518Z</time>
      </trkpt>
      <trkpt lat="44.34211" lon="0.7936">
        <ele>83</ele>
        <time>2025-10-12T13:01:23.518Z</time>
      </trkpt>
      <trkpt lat="44.34212" lon="0.7936">
        <ele>84</ele>
        <time>2025-10-12T13:01:24.518Z</time>
      </trkpt>
      <trkpt lat="44.34213" lon="0.79361">
        <ele>84</ele>
        <time>2025-10-12T13:01:25.518Z</time>
      </trkpt>
      <trkpt lat="44.34214" lon="0.79361">
        <ele>84</ele>
        <time>2025-10-12T13:01:26.518Z</time>
      </trkpt>
      <trkpt lat="44.34215" lon="0.79362">
        <ele>84</ele>
        <time>2025-10-12T13:01:27.518Z</time>
      </trkpt>
      <trkpt lat="44.34216" lon="0.79362">
        <ele>84</ele>
        <time>2025-10-12T13:01:28.518Z</time>
      </trkpt>
      <trkpt lat="44.34217" lon="0.79362">
        <ele>84</ele>
        <time>2025-10-12T13:01:29.518Z</time>
      </trkpt>
      <trkpt lat="44.34218" lon="0.79363">
        <ele>84</ele>
        <time>2025-10-12T13:01:30.518Z</time>
      </trkpt>
      <trkpt lat="44.34219" lon="0.79364">
        <ele>84</ele>
        <time>2025-10-12T13:01:31.518Z</time>
      </trkpt>
      <trkpt lat="44.34219" lon="0.79364">
        <ele>84</ele>
        <time>2025-10-12T13:01:32.518Z</time>
      </trkpt>
      <trkpt lat="44.3422" lon="0.79364">
        <ele>84</ele>
        <time>2025-10-12T13:01:33.518Z</time>
      </trkpt>
      <trkpt lat="44.34221" lon="0.79365">
        <ele>84</ele>
        <time>2025-10-12T13:01:34.518Z</time>
      </trkpt>
      <trkpt lat="44.34222" lon="0.79365">
        <ele>84</ele>
        <time>2025-10-12T13:01:35.518Z</time>
      </trkpt>
      <trkpt lat="44.34223" lon="0.79365">
        <ele>84</ele>
        <time>2025-10-12T13:01:36.518Z</time>
      </trkpt>
      <trkpt lat="44.34224" lon="0.79365">
        <ele>84</ele>
        <time>2025-10-12T13:01:37.518Z</time>
      </trkpt>
      <trkpt lat="44.34224" lon="0.79365">
        <ele>85</ele>
        <time>2025-10-12T13:01:38.518Z</time>
      </trkpt>
      <trkpt lat="44.34224" lon="0.79366">
        <ele>85</ele>
        <time>2025-10-12T13:01:39.518Z</time>
      </trkpt>
      <trkpt lat="44.34225" lon="0.79366">
        <ele>85</ele>
        <time>2025-10-12T13:01:40.518Z</time>
      </trkpt>
      <trkpt lat="44.34225" lon="0.79366">
        <ele>85</ele>
        <time>2025-10-12T13:01:41.518Z</time>
      </trkpt>
      <trkpt lat="44.34225" lon="0.79366">
        <ele>85</ele>
        <time>2025-10-12T13:01:42.518Z</time>
      </trkpt>
      <trkpt lat="44.34225" lon="0.79366">
        <ele>85</ele>
        <time>2025-10-12T13:01:43.518Z</time>
      </trkpt>
      <trkpt lat="44.34225" lon="0.79366">
        <ele>85</ele>
        <time>2025-10-12T13:01:44.518Z</time>
      </trkpt>
      <trkpt lat="44.34225" lon="0.79366">
        <ele>85</ele>
        <time>2025-10-12T13:01:45.518Z</time>
      </trkpt>
      <trkpt lat="44.34225" lon="0.79366">
        <ele>85</ele>
        <time>2025-10-12T13:01:46.518Z</time>
      </trkpt>
      <trkpt lat="44.34225" lon="0.79366">
        <ele>85</ele>
        <time>2025-10-12T13:01:47.518Z</time>
      </trkpt>
      <trkpt lat="44.34225" lon="0.79366">
        <ele>85</ele>
        <time>2025-10-12T13:01:48.518Z</time>
      </trkpt>
      <trkpt lat="44.34225" lon="0.79366">
        <ele>84</ele>
        <time>2025-10-12T13:01:49.518Z</time>
      </trkpt>
      <trkpt lat="44.34225" lon="0.79366">
        <ele>84</ele>
        <time>2025-10-12T13:01:50.518Z</time>
      </trkpt>
      <trkpt lat="44.34226" lon="0.79366">
        <ele>84</ele>
        <time>2025-10-12T13:01:51.518Z</time>
      </trkpt>
      <trkpt lat="44.34227" lon="0.79367">
        <ele>84</ele>
        <time>2025-10-12T13:01:52.518Z</time>
      </trkpt>
      <trkpt lat="44.34228" lon="0.79367">
        <ele>84</ele>
        <time>2025-10-12T13:01:53.518Z</time>
      </trkpt>
      <trkpt lat="44.34228" lon="0.79367">
        <ele>83</ele>
        <time>2025-10-12T13:01:54.518Z</time>
      </trkpt>
      <trkpt lat="44.34229" lon="0.79367">
        <ele>83</ele>
        <time>2025-10-12T13:01:55.518Z</time>
      </trkpt>
      <trkpt lat="44.34229" lon="0.79367">
        <ele>83</ele>
        <time>2025-10-12T13:01:56.518Z</time>
      </trkpt>
      <trkpt lat="44.34229" lon="0.79367">
        <ele>83</ele>
        <time>2025-10-12T13:01:57.518Z</time>
      </trkpt>
      <trkpt lat="44.34229" lon="0.79367">
        <ele>83</ele>
        <time>2025-10-12T13:01:58.518Z</time>
      </trkpt>
      <trkpt lat="44.3423" lon="0.79367">
        <ele>83</ele>
        <time>2025-10-12T13:01:59.518Z</time>
      </trkpt>
      <trkpt lat="44.3423" lon="0.79367">
        <ele>84</ele>
        <time>2025-10-12T13:02:00.518Z</time>
      </trkpt>
      <trkpt lat="44.3423" lon="0.79367">
        <ele>84</ele>
        <time>2025-10-12T13:02:01.518Z</time>
      </trkpt>
      <trkpt lat="44.34229" lon="0.79367">
        <ele>84</ele>
        <time>2025-10-12T13:02:02.518Z</time>
      </trkpt>
      <trkpt lat="44.34229" lon="0.79367">
        <ele>84</ele>
        <time>2025-10-12T13:02:03.518Z</time>
      </trkpt>
      <trkpt lat="44.34229" lon="0.79367">
        <ele>84</ele>
        <time>2025-10-12T13:02:04.518Z</time>
      </trkpt>
      <trkpt lat="44.34229" lon="0.79367">
        <ele>84</ele>
        <time>2025-10-12T13:02:05.518Z</time>
      </trkpt>
      <trkpt lat="44.3423" lon="0.79368">
        <ele>84</ele>
        <time>2025-10-12T13:02:06.518Z</time>
      </trkpt>
      <trkpt lat="44.3423" lon="0.79368">
        <ele>84</ele>
        <time>2025-10-12T13:02:07.518Z</time>
      </trkpt>
      <trkpt lat="44.3423" lon="0.79368">
        <ele>84</ele>
        <time>2025-10-12T13:02:08.518Z</time>
      </trkpt>
      <trkpt lat="44.3423" lon="0.79368">
        <ele>84</ele>
        <time>2025-10-12T13:02:09.518Z</time>
      </trkpt>
      <trkpt lat="44.34231" lon="0.79367">
        <ele>84</ele>
        <time>2025-10-12T13:02:10.518Z</time>
      </trkpt>
      <trkpt lat="44.34231" lon="0.79368">
        <ele>84</ele>
        <time>2025-10-12T13:02:11.518Z</time>
      </trkpt>
      <trkpt lat="44.34231" lon="0.79367">
        <ele>84</ele>
        <time>2025-10-12T13:02:12.518Z</time>
      </trkpt>
      <trkpt lat="44.34231" lon="0.79367">
        <ele>84</ele>
        <time>2025-10-12T13:02:13.518Z</time>
      </trkpt>
      <trkpt lat="44.34231" lon="0.79367">
        <ele>84</ele>
        <time>2025-10-12T13:02:14.518Z</time>
      </trkpt>
      <trkpt lat="44.34231" lon="0.79368">
        <ele>84</ele>
        <time>2025-10-12T13:02:15.518Z</time>
      </trkpt>
      <trkpt lat="44.34232" lon="0.79368">
        <ele>84</ele>
        <time>2025-10-12T13:02:16.518Z</time>
      </trkpt>
      <trkpt lat="44.34232" lon="0.79368">
        <ele>84</ele>
        <time>2025-10-12T13:02:17.518Z</time>
      </trkpt>
      <trkpt lat="44.34232" lon="0.79368">
        <ele>84</ele>
        <time>2025-10-12T13:02:18.518Z</time>
      </trkpt>
      <trkpt lat="44.34232" lon="0.79368">
        <ele>84</ele>
        <time>2025-10-12T13:02:19.518Z</time>
      </trkpt>
      <trkpt lat="44.34233" lon="0.79368">
        <ele>84</ele>
        <time>2025-10-12T13:02:20.518Z</time>
      </trkpt>
      <trkpt lat="44.34233" lon="0.79368">
        <ele>84</ele>
        <time>2025-10-12T13:02:21.518Z</time>
      </trkpt>
      <trkpt lat="44.34233" lon="0.79368">
        <ele>84</ele>
        <time>2025-10-12T13:02:22.518Z</time>
      </trkpt>
      <trkpt lat="44.34234" lon="0.79369">
        <ele>84</ele>
        <time>2025-10-12T13:02:23.518Z</time>
      </trkpt>
      <trkpt lat="44.34234" lon="0.7937">
        <ele>84</ele>
        <time>2025-10-12T13:02:24.518Z</time>
      </trkpt>
      <trkpt lat="44.34235" lon="0.79371">
        <ele>84</ele>
        <time>2025-10-12T13:02:25.518Z</time>
      </trkpt>
      <trkpt lat="44.34235" lon="0.79372">
        <ele>83</ele>
        <time>2025-10-12T13:02:26.518Z</time>
      </trkpt>
      <trkpt lat="44.34235" lon="0.79373">
        <ele>83</ele>
        <time>2025-10-12T13:02:27.518Z</time>
      </trkpt>
      <trkpt lat="44.34235" lon="0.79374">
        <ele>83</ele>
        <time>2025-10-12T13:02:28.518Z</time>
      </trkpt>
      <trkpt lat="44.34235" lon="0.79374">
        <ele>83</ele>
        <time>2025-10-12T13:02:29.518Z</time>
      </trkpt>
      <trkpt lat="44.34235" lon="0.79374">
        <ele>83</ele>
        <time>2025-10-12T13:02:30.518Z</time>
      </trkpt>
      <trkpt lat="44.34235" lon="0.79374">
        <ele>84</ele>
        <time>2025-10-12T13:02:31.518Z</time>
      </trkpt>
      <trkpt lat="44.34235" lon="0.79374">
        <ele>84</ele>
        <time>2025-10-12T13:02:32.518Z</time>
      </trkpt>
      <trkpt lat="44.34235" lon="0.79374">
        <ele>85</ele>
        <time>2025-10-12T13:02:33.518Z</time>
      </trkpt>
      <trkpt lat="44.34234" lon="0.79373">
        <ele>85</ele>
        <time>2025-10-12T13:02:34.518Z</time>
      </trkpt>
      <trkpt lat="44.34235" lon="0.79373">
        <ele>86</ele>
        <time>2025-10-12T13:02:35.518Z</time>
      </trkpt>
      <trkpt lat="44.34234" lon="0.79373">
        <ele>86</ele>
        <time>2025-10-12T13:02:36.518Z</time>
      </trkpt>
      <trkpt lat="44.34235" lon="0.79373">
        <ele>86</ele>
        <time>2025-10-12T13:02:37.518Z</time>
      </trkpt>
      <trkpt lat="44.34235" lon="0.79373">
        <ele>86</ele>
        <time>2025-10-12T13:02:38.518Z</time>
      </trkpt>
      <trkpt lat="44.34235" lon="0.79373">
        <ele>86</ele>
        <time>2025-10-12T13:02:39.518Z</time>
      </trkpt>
      <trkpt lat="44.34234" lon="0.79373">
        <ele>87</ele>
        <time>2025-10-12T13:02:40.518Z</time>
      </trkpt>
      <trkpt lat="44.34234" lon="0.79373">
        <ele>87</ele>
        <time>2025-10-12T13:02:41.518Z</time>
      </trkpt>
      <trkpt lat="44.34234" lon="0.79373">
        <ele>86</ele>
        <time>2025-10-12T13:02:42.518Z</time>
      </trkpt>
      <trkpt lat="44.34235" lon="0.79373">
        <ele>86</ele>
        <time>2025-10-12T13:02:43.518Z</time>
      </trkpt>
      <trkpt lat="44.34234" lon="0.79373">
        <ele>86</ele>
        <time>2025-10-12T13:02:44.518Z</time>
      </trkpt>
      <trkpt lat="44.34234" lon="0.79373">
        <ele>86</ele>
        <time>2025-10-12T13:02:45.518Z</time>
      </trkpt>
      <trkpt lat="44.34235" lon="0.79374">
        <ele>86</ele>
        <time>2025-10-12T13:02:46.518Z</time>
      </trkpt>
      <trkpt lat="44.34235" lon="0.79374">
        <ele>86</ele>
        <time>2025-10-12T13:02:47.518Z</time>
      </trkpt>
      <trkpt lat="44.34234" lon="0.79374">
        <ele>86</ele>
        <time>2025-10-12T13:02:48.518Z</time>
      </trkpt>
      <trkpt lat="44.34234" lon="0.79374">
        <ele>86</ele>
        <time>2025-10-12T13:02:49.518Z</time>
      </trkpt>
      <trkpt lat="44.34234" lon="0.79373">
        <ele>85</ele>
        <time>2025-10-12T13:02:50.518Z</time>
      </trkpt>
      <trkpt lat="44.34234" lon="0.79373">
        <ele>85</ele>
        <time>2025-10-12T13:02:51.518Z</time>
      </trkpt>
      <trkpt lat="44.34233" lon="0.79372">
        <ele>85</ele>
        <time>2025-10-12T13:02:52.518Z</time>
      </trkpt>
      <trkpt lat="44.34233" lon="0.79371">
        <ele>85</ele>
        <time>2025-10-12T13:02:53.518Z</time>
      </trkpt>
      <trkpt lat="44.34232" lon="0.7937">
        <ele>86</ele>
        <time>2025-10-12T13:02:54.518Z</time>
      </trkpt>
      <trkpt lat="44.34232" lon="0.7937">
        <ele>86</ele>
        <time>2025-10-12T13:02:55.518Z</time>
      </trkpt>
      <trkpt lat="44.34231" lon="0.79369">
        <ele>87</ele>
        <time>2025-10-12T13:02:56.518Z</time>
      </trkpt>
      <trkpt lat="44.34231" lon="0.79369">
        <ele>87</ele>
        <time>2025-10-12T13:02:57.518Z</time>
      </trkpt>
      <trkpt lat="44.34231" lon="0.79369">
        <ele>87</ele>
        <time>2025-10-12T13:02:58.518Z</time>
      </trkpt>
      <trkpt lat="44.34231" lon="0.79369">
        <ele>87</ele>
        <time>2025-10-12T13:02:59.518Z</time>
      </trkpt>
      <trkpt lat="44.34231" lon="0.79369">
        <ele>87</ele>
        <time>2025-10-12T13:03:00.518Z</time>
      </trkpt>
      <trkpt lat="44.34231" lon="0.79369">
        <ele>87</ele>
        <time>2025-10-12T13:03:01.518Z</time>
      </trkpt>
      <trkpt lat="44.34232" lon="0.79369">
        <ele>87</ele>
        <time>2025-10-12T13:03:02.518Z</time>
      </trkpt>
      <trkpt lat="44.34232" lon="0.79369">
        <ele>87</ele>
        <time>2025-10-12T13:03:03.518Z</time>
      </trkpt>
      <trkpt lat="44.34232" lon="0.79369">
        <ele>87</ele>
        <time>2025-10-12T13:03:04.518Z</time>
      </trkpt>
      <trkpt lat="44.34232" lon="0.79369">
        <ele>87</ele>
        <time>2025-10-12T13:03:05.518Z</time>
      </trkpt>
      <trkpt lat="44.34232" lon="0.79369">
        <ele>86</ele>
        <time>2025-10-12T13:03:06.518Z</time>
      </trkpt>
      <trkpt lat="44.34232" lon="0.79369">
        <ele>86</ele>
        <time>2025-10-12T13:03:07.518Z</time>
      </trkpt>
      <trkpt lat="44.34232" lon="0.79368">
        <ele>86</ele>
        <time>2025-10-12T13:03:08.518Z</time>
      </trkpt>
      <trkpt lat="44.34232" lon="0.79368">
        <ele>87</ele>
        <time>2025-10-12T13:03:09.518Z</time>
      </trkpt>
      <trkpt lat="44.34232" lon="0.79368">
        <ele>87</ele>
        <time>2025-10-12T13:03:10.518Z</time>
      </trkpt>
      <trkpt lat="44.34232" lon="0.79368">
        <ele>87</ele>
        <time>2025-10-12T13:03:11.518Z</time>
      </trkpt>
      <trkpt lat="44.34232" lon="0.79367">
        <ele>87</ele>
        <time>2025-10-12T13:03:12.518Z</time>
      </trkpt>
      <trkpt lat="44.34232" lon="0.79367">
        <ele>87</ele>
        <time>2025-10-12T13:03:13.518Z</time>
      </trkpt>
      <trkpt lat="44.34232" lon="0.79367">
        <ele>88</ele>
        <time>2025-10-12T13:03:14.518Z</time>
      </trkpt>
      <trkpt lat="44.34233" lon="0.79367">
        <ele>88</ele>
        <time>2025-10-12T13:03:15.518Z</time>
      </trkpt>
      <trkpt lat="44.34233" lon="0.79367">
        <ele>88</ele>
        <time>2025-10-12T13:03:16.518Z</time>
      </trkpt>
      <trkpt lat="44.34233" lon="0.79367">
        <ele>88</ele>
        <time>2025-10-12T13:03:17.518Z</time>
      </trkpt>
      <trkpt lat="44.34232" lon="0.79367">
        <ele>88</ele>
        <time>2025-10-12T13:03:18.518Z</time>
      </trkpt>
      <trkpt lat="44.34232" lon="0.79366">
        <ele>88</ele>
        <time>2025-10-12T13:03:19.518Z</time>
      </trkpt>
      <trkpt lat="44.34232" lon="0.79367">
        <ele>88</ele>
        <time>2025-10-12T13:03:20.518Z</time>
      </trkpt>
      <trkpt lat="44.34232" lon="0.79367">
        <ele>87</ele>
        <time>2025-10-12T13:03:21.518Z</time>
      </trkpt>
      <trkpt lat="44.34233" lon="0.79367">
        <ele>87</ele>
        <time>2025-10-12T13:03:22.518Z</time>
      </trkpt>
      <trkpt lat="44.34233" lon="0.79367">
        <ele>87</ele>
        <time>2025-10-12T13:03:23.518Z</time>
      </trkpt>
      <trkpt lat="44.34233" lon="0.79368">
        <ele>87</ele>
        <time>2025-10-12T13:03:24.518Z</time>
      </trkpt>
      <trkpt lat="44.34233" lon="0.79369">
        <ele>87</ele>
        <time>2025-10-12T13:03:25.518Z</time>
      </trkpt>
      <trkpt lat="44.34234" lon="0.79369">
        <ele>87</ele>
        <time>2025-10-12T13:03:26.518Z</time>
      </trkpt>
      <trkpt lat="44.34233" lon="0.7937">
        <ele>87</ele>
        <time>2025-10-12T13:03:27.518Z</time>
      </trkpt>
      <trkpt lat="44.34233" lon="0.7937">
        <ele>86</ele>
        <time>2025-10-12T13:03:28.518Z</time>
      </trkpt>
      <trkpt lat="44.34233" lon="0.79371">
        <ele>86</ele>
        <time>2025-10-12T13:03:29.518Z</time>
      </trkpt>
      <trkpt lat="44.34233" lon="0.79371">
        <ele>87</ele>
        <time>2025-10-12T13:03:30.518Z</time>
      </trkpt>
      <trkpt lat="44.34232" lon="0.79371">
        <ele>87</ele>
        <time>2025-10-12T13:03:31.518Z</time>
      </trkpt>
      <trkpt lat="44.34232" lon="0.79371">
        <ele>87</ele>
        <time>2025-10-12T13:03:32.518Z</time>
      </trkpt>
      <trkpt lat="44.34232" lon="0.79371">
        <ele>87</ele>
        <time>2025-10-12T13:03:33.518Z</time>
      </trkpt>
      <trkpt lat="44.34232" lon="0.7937">
        <ele>87</ele>
        <time>2025-10-12T13:03:34.518Z</time>
      </trkpt>
      <trkpt lat="44.34232" lon="0.7937">
        <ele>86</ele>
        <time>2025-10-12T13:03:35.518Z</time>
      </trkpt>
      <trkpt lat="44.34232" lon="0.7937">
        <ele>86</ele>
        <time>2025-10-12T13:03:36.518Z</time>
      </trkpt>
      <trkpt lat="44.34233" lon="0.7937">
        <ele>86</ele>
        <time>2025-10-12T13:03:37.518Z</time>
      </trkpt>
      <trkpt lat="44.34233" lon="0.7937">
        <ele>86</ele>
        <time>2025-10-12T13:03:38.518Z</time>
      </trkpt>
      <trkpt lat="44.34233" lon="0.7937">
        <ele>86</ele>
        <time>2025-10-12T13:03:39.518Z</time>
      </trkpt>
      <trkpt lat="44.34233" lon="0.7937">
        <ele>86</ele>
        <time>2025-10-12T13:03:40.518Z</time>
      </trkpt>
      <trkpt lat="44.34233" lon="0.7937">
        <ele>87</ele>
        <time>2025-10-12T13:03:41.518Z</time>
      </trkpt>
      <trkpt lat="44.34233" lon="0.7937">
        <ele>87</ele>
        <time>2025-10-12T13:03:42.518Z</time>
      </trkpt>
      <trkpt lat="44.34233" lon="0.7937">
        <ele>87</ele>
        <time>2025-10-12T13:03:43.518Z</time>
      </trkpt>
      <trkpt lat="44.34233" lon="0.7937">
        <ele>87</ele>
        <time>2025-10-12T13:03:44.518Z</time>
      </trkpt>
      <trkpt lat="44.34233" lon="0.79371">
        <ele>87</ele>
        <time>2025-10-12T13:03:45.518Z</time>
      </trkpt>
      <trkpt lat="44.34233" lon="0.79371">
        <ele>87</ele>
        <time>2025-10-12T13:03:46.518Z</time>
      </trkpt>
      <trkpt lat="44.34233" lon="0.79371">
        <ele>87</ele>
        <time>2025-10-12T13:03:47.518Z</time>
      </trkpt>
      <trkpt lat="44.34233" lon="0.7937">
        <ele>86</ele>
        <time>2025-10-12T13:03:48.518Z</time>
      </trkpt>
      <trkpt lat="44.34233" lon="0.7937">
        <ele>86</ele>
        <time>2025-10-12T13:03:49.518Z</time>
      </trkpt>
      <trkpt lat="44.34233" lon="0.7937">
        <ele>86</ele>
        <time>2025-10-12T13:03:50.518Z</time>
      </trkpt>
      <trkpt lat="44.34233" lon="0.7937">
        <ele>86</ele>
        <time>2025-10-12T13:03:51.518Z</time>
      </trkpt>
      <trkpt lat="44.34233" lon="0.7937">
        <ele>87</ele>
        <time>2025-10-12T13:03:52.518Z</time>
      </trkpt>
      <trkpt lat="44.34233" lon="0.7937">
        <ele>87</ele>
        <time>2025-10-12T13:03:53.518Z</time>
      </trkpt>
      <trkpt lat="44.34233" lon="0.7937">
        <ele>87</ele>
        <time>2025-10-12T13:03:54.518Z</time>
      </trkpt>
      <trkpt lat="44.34233" lon="0.7937">
        <ele>87</ele>
        <time>2025-10-12T13:03:55.518Z</time>
      </trkpt>
      <trkpt lat="44.34233" lon="0.79369">
        <ele>87</ele>
        <time>2025-10-12T13:03:56.518Z</time>
      </trkpt>
      <trkpt lat="44.34233" lon="0.79369">
        <ele>87</ele>
        <time>2025-10-12T13:03:57.518Z</time>
      </trkpt>
      <trkpt lat="44.34233" lon="0.79369">
        <ele>87</ele>
        <time>2025-10-12T13:03:58.518Z</time>
      </trkpt>
      <trkpt lat="44.34233" lon="0.79369">
        <ele>87</ele>
        <time>2025-10-12T13:03:59.518Z</time>
      </trkpt>
      <trkpt lat="44.34233" lon="0.79369">
        <ele>87</ele>
        <time>2025-10-12T13:04:00.518Z</time>
      </trkpt>
      <trkpt lat="44.34233" lon="0.79369">
        <ele>87</ele>
        <time>2025-10-12T13:04:01.518Z</time>
      </trkpt>
      <trkpt lat="44.34233" lon="0.79369">
        <ele>87</ele>
        <time>2025-10-12T13:04:02.518Z</time>
      </trkpt>
      <trkpt lat="44.34233" lon="0.79369">
        <ele>87</ele>
        <time>2025-10-12T13:04:03.518Z</time>
      </trkpt>
      <trkpt lat="44.34233" lon="0.79369">
        <ele>87</ele>
        <time>2025-10-12T13:04:04.518Z</time>
      </trkpt>
      <trkpt lat="44.34233" lon="0.79369">
        <ele>87</ele>
        <time>2025-10-12T13:04:05.518Z</time>
      </trkpt>
      <trkpt lat="44.34233" lon="0.79369">
        <ele>87</ele>
        <time>2025-10-12T13:04:06.518Z</time>
      </trkpt>
      <trkpt lat="44.34233" lon="0.79369">
        <ele>87</ele>
        <time>2025-10-12T13:04:07.518Z</time>
      </trkpt>
      <trkpt lat="44.34233" lon="0.79369">
        <ele>87</ele>
        <time>2025-10-12T13:04:08.518Z</time>
      </trkpt>
      <trkpt lat="44.34233" lon="0.79369">
        <ele>87</ele>
        <time>2025-10-12T13:04:09.518Z</time>
      </trkpt>
      <trkpt lat="44.34233" lon="0.79369">
        <ele>87</ele>
        <time>2025-10-12T13:04:10.518Z</time>
      </trkpt>
      <trkpt lat="44.34233" lon="0.79369">
        <ele>87</ele>
        <time>2025-10-12T13:04:11.518Z</time>
      </trkpt>
      <trkpt lat="44.34233" lon="0.79369">
        <ele>87</ele>
        <time>2025-10-12T13:04:12.518Z</time>
      </trkpt>
      <trkpt lat="44.34233" lon="0.7937">
        <ele>88</ele>
        <time>2025-10-12T13:04:13.518Z</time>
      </trkpt>
      <trkpt lat="44.34233" lon="0.7937">
        <ele>88</ele>
        <time>2025-10-12T13:04:14.518Z</time>
      </trkpt>
      <trkpt lat="44.34233" lon="0.7937">
        <ele>88</ele>
        <time>2025-10-12T13:04:15.518Z</time>
      </trkpt>
      <trkpt lat="44.34233" lon="0.7937">
        <ele>88</ele>
        <time>2025-10-12T13:04:16.518Z</time>
      </trkpt>
      <trkpt lat="44.34233" lon="0.7937">
        <ele>88</ele>
        <time>2025-10-12T13:04:17.518Z</time>
      </trkpt>
      <trkpt lat="44.34233" lon="0.7937">
        <ele>88</ele>
        <time>2025-10-12T13:04:18.518Z</time>
      </trkpt>
      <trkpt lat="44.34233" lon="0.7937">
        <ele>88</ele>
        <time>2025-10-12T13:04:19.518Z</time>
      </trkpt>
      <trkpt lat="44.34233" lon="0.7937">
        <ele>88</ele>
        <time>2025-10-12T13:04:20.518Z</time>
      </trkpt>
      <trkpt lat="44.34233" lon="0.79369">
        <ele>88</ele>
        <time>2025-10-12T13:04:21.518Z</time>
      </trkpt>
      <trkpt lat="44.34233" lon="0.79369">
        <ele>88</ele>
        <time>2025-10-12T13:04:22.518Z</time>
      </trkpt>
      <trkpt lat="44.34233" lon="0.79369">
        <ele>88</ele>
        <time>2025-10-12T13:04:23.518Z</time>
      </trkpt>
      <trkpt lat="44.34233" lon="0.79369">
        <ele>88</ele>
        <time>2025-10-12T13:04:24.518Z</time>
      </trkpt>
      <trkpt lat="44.34233" lon="0.79369">
        <ele>88</ele>
        <time>2025-10-12T13:04:25.518Z</time>
      </trkpt>
      <trkpt lat="44.34234" lon="0.7937">
        <ele>89</ele>
        <time>2025-10-12T13:04:26.518Z</time>
      </trkpt>
      <trkpt lat="44.34234" lon="0.7937">
        <ele>89</ele>
        <time>2025-10-12T13:04:27.518Z</time>
      </trkpt>
      <trkpt lat="44.34234" lon="0.79371">
        <ele>89</ele>
        <time>2025-10-12T13:04:28.518Z</time>
      </trkpt>
      <trkpt lat="44.34234" lon="0.79371">
        <ele>89</ele>
        <time>2025-10-12T13:04:29.518Z</time>
      </trkpt>
      <trkpt lat="44.34234" lon="0.79371">
        <ele>89</ele>
        <time>2025-10-12T13:04:30.518Z</time>
      </trkpt>
      <trkpt lat="44.34234" lon="0.79372">
        <ele>88</ele>
        <time>2025-10-12T13:04:31.518Z</time>
      </trkpt>
      <trkpt lat="44.34234" lon="0.79372">
        <ele>88</ele>
        <time>2025-10-12T13:04:32.518Z</time>
      </trkpt>
      <trkpt lat="44.34234" lon="0.79372">
        <ele>88</ele>
        <time>2025-10-12T13:04:33.518Z</time>
      </trkpt>
      <trkpt lat="44.34234" lon="0.79372">
        <ele>88</ele>
        <time>2025-10-12T13:04:34.518Z</time>
      </trkpt>
      <trkpt lat="44.34234" lon="0.79371">
        <ele>89</ele>
        <time>2025-10-12T13:04:35.518Z</time>
      </trkpt>
      <trkpt lat="44.34234" lon="0.79371">
        <ele>89</ele>
        <time>2025-10-12T13:04:36.518Z</time>
      </trkpt>
      <trkpt lat="44.34234" lon="0.79371">
        <ele>89</ele>
        <time>2025-10-12T13:04:37.518Z</time>
      </trkpt>
      <trkpt lat="44.34234" lon="0.79372">
        <ele>89</ele>
        <time>2025-10-12T13:04:38.518Z</time>
      </trkpt>
      <trkpt lat="44.34234" lon="0.79372">
        <ele>90</ele>
        <time>2025-10-12T13:04:39.518Z</time>
      </trkpt>
      <trkpt lat="44.34234" lon="0.79372">
        <ele>90</ele>
        <time>2025-10-12T13:04:40.518Z</time>
      </trkpt>
      <trkpt lat="44.34234" lon="0.79372">
        <ele>90</ele>
        <time>2025-10-12T13:04:41.518Z</time>
      </trkpt>
      <trkpt lat="44.34234" lon="0.79372">
        <ele>89</ele>
        <time>2025-10-12T13:04:42.518Z</time>
      </trkpt>
      <trkpt lat="44.34234" lon="0.79372">
        <ele>89</ele>
        <time>2025-10-12T13:04:43.518Z</time>
      </trkpt>
      <trkpt lat="44.34234" lon="0.79372">
        <ele>89</ele>
        <time>2025-10-12T13:04:44.518Z</time>
      </trkpt>
      <trkpt lat="44.34234" lon="0.79372">
        <ele>88</ele>
        <time>2025-10-12T13:04:45.518Z</time>
      </trkpt>
      <trkpt lat="44.34234" lon="0.79372">
        <ele>88</ele>
        <time>2025-10-12T13:04:46.518Z</time>
      </trkpt>
      <trkpt lat="44.34234" lon="0.79371">
        <ele>88</ele>
        <time>2025-10-12T13:04:47.518Z</time>
      </trkpt>
      <trkpt lat="44.34234" lon="0.79371">
        <ele>88</ele>
        <time>2025-10-12T13:04:48.518Z</time>
      </trkpt>
      <trkpt lat="44.34234" lon="0.79371">
        <ele>88</ele>
        <time>2025-10-12T13:04:49.518Z</time>
      </trkpt>
      <trkpt lat="44.34234" lon="0.79371">
        <ele>89</ele>
        <time>2025-10-12T13:04:50.518Z</time>
      </trkpt>
      <trkpt lat="44.34234" lon="0.79371">
        <ele>89</ele>
        <time>2025-10-12T13:04:51.518Z</time>
      </trkpt>
      <trkpt lat="44.34235" lon="0.79371">
        <ele>89</ele>
        <time>2025-10-12T13:04:52.518Z</time>
      </trkpt>
      <trkpt lat="44.34235" lon="0.79371">
        <ele>88</ele>
        <time>2025-10-12T13:04:53.518Z</time>
      </trkpt>
      <trkpt lat="44.34235" lon="0.79371">
        <ele>88</ele>
        <time>2025-10-12T13:04:54.518Z</time>
      </trkpt>
      <trkpt lat="44.34235" lon="0.79371">
        <ele>88</ele>
        <time>2025-10-12T13:04:55.518Z</time>
      </trkpt>
      <trkpt lat="44.34235" lon="0.79371">
        <ele>88</ele>
        <time>2025-10-12T13:04:56.518Z</time>
      </trkpt>
      <trkpt lat="44.34235" lon="0.79371">
        <ele>88</ele>
        <time>2025-10-12T13:04:57.518Z</time>
      </trkpt>
      <trkpt lat="44.34235" lon="0.79371">
        <ele>89</ele>
        <time>2025-10-12T13:04:58.518Z</time>
      </trkpt>
      <trkpt lat="44.34235" lon="0.79371">
        <ele>89</ele>
        <time>2025-10-12T13:04:59.518Z</time>
      </trkpt>
      <trkpt lat="44.34235" lon="0.79371">
        <ele>89</ele>
        <time>2025-10-12T13:05:00.518Z</time>
      </trkpt>
      <trkpt lat="44.34235" lon="0.79372">
        <ele>89</ele>
        <time>2025-10-12T13:05:01.518Z</time>
      </trkpt>
      <trkpt lat="44.34235" lon="0.79372">
        <ele>89</ele>
        <time>2025-10-12T13:05:02.518Z</time>
      </trkpt>
      <trkpt lat="44.34235" lon="0.79372">
        <ele>89</ele>
        <time>2025-10-12T13:05:03.518Z</time>
      </trkpt>
      <trkpt lat="44.34235" lon="0.79372">
        <ele>89</ele>
        <time>2025-10-12T13:05:04.518Z</time>
      </trkpt>
      <trkpt lat="44.34235" lon="0.79372">
        <ele>89</ele>
        <time>2025-10-12T13:05:05.518Z</time>
      </trkpt>
      <trkpt lat="44.34235" lon="0.79372">
        <ele>89</ele>
        <time>2025-10-12T13:05:06.518Z</time>
      </trkpt>
      <trkpt lat="44.34235" lon="0.79372">
        <ele>89</ele>
        <time>2025-10-12T13:05:07.518Z</time>
      </trkpt>
      <trkpt lat="44.34235" lon="0.79372">
        <ele>90</ele>
        <time>2025-10-12T13:05:08.518Z</time>
      </trkpt>
      <trkpt lat="44.34235" lon="0.79372">
        <ele>91</ele>
        <time>2025-10-12T13:05:09.518Z</time>
      </trkpt>
      <trkpt lat="44.34235" lon="0.79372">
        <ele>91</ele>
        <time>2025-10-12T13:05:10.518Z</time>
      </trkpt>
      <trkpt lat="44.34235" lon="0.79372">
        <ele>92</ele>
        <time>2025-10-12T13:05:11.518Z</time>
      </trkpt>
      <trkpt lat="44.34235" lon="0.79372">
        <ele>92</ele>
        <time>2025-10-12T13:05:12.518Z</time>
      </trkpt>
      <trkpt lat="44.34235" lon="0.79372">
        <ele>92</ele>
        <time>2025-10-12T13:05:13.518Z</time>
      </trkpt>
      <trkpt lat="44.34235" lon="0.79372">
        <ele>92</ele>
        <time>2025-10-12T13:05:14.518Z</time>
      </trkpt>
      <trkpt lat="44.34235" lon="0.79372">
        <ele>92</ele>
        <time>2025-10-12T13:05:15.518Z</time>
      </trkpt>
      <trkpt lat="44.34235" lon="0.79372">
        <ele>92</ele>
        <time>2025-10-12T13:05:16.518Z</time>
      </trkpt>
      <trkpt lat="44.34235" lon="0.79372">
        <ele>92</ele>
        <time>2025-10-12T13:05:17.518Z</time>
      </trkpt>
      <trkpt lat="44.34235" lon="0.79372">
        <ele>93</ele>
        <time>2025-10-12T13:05:18.518Z</time>
      </trkpt>
      <trkpt lat="44.34235" lon="0.79372">
        <ele>93</ele>
        <time>2025-10-12T13:05:19.518Z</time>
      </trkpt>
      <trkpt lat="44.34235" lon="0.79372">
        <ele>93</ele>
        <time>2025-10-12T13:05:20.518Z</time>
      </trkpt>
      <trkpt lat="44.34235" lon="0.79372">
        <ele>93</ele>
        <time>2025-10-12T13:05:21.518Z</time>
      </trkpt>
      <trkpt lat="44.34234" lon="0.79372">
        <ele>93</ele>
        <time>2025-10-12T13:05:22.518Z</time>
      </trkpt>
      <trkpt lat="44.34234" lon="0.79372">
        <ele>92</ele>
        <time>2025-10-12T13:05:23.518Z</time>
      </trkpt>
      <trkpt lat="44.34234" lon="0.79372">
        <ele>92</ele>
        <time>2025-10-12T13:05:24.518Z</time>
      </trkpt>
      <trkpt lat="44.34234" lon="0.79372">
        <ele>92</ele>
        <time>2025-10-12T13:05:25.518Z</time>
      </trkpt>
      <trkpt lat="44.34234" lon="0.79373">
        <ele>91</ele>
        <time>2025-10-12T13:05:26.518Z</time>
      </trkpt>
      <trkpt lat="44.34234" lon="0.79373">
        <ele>91</ele>
        <time>2025-10-12T13:05:27.518Z</time>
      </trkpt>
      <trkpt lat="44.34234" lon="0.79373">
        <ele>90</ele>
        <time>2025-10-12T13:05:28.518Z</time>
      </trkpt>
      <trkpt lat="44.34234" lon="0.79372">
        <ele>90</ele>
        <time>2025-10-12T13:05:29.518Z</time>
      </trkpt>
      <trkpt lat="44.34234" lon="0.79372">
        <ele>90</ele>
        <time>2025-10-12T13:05:30.518Z</time>
      </trkpt>
      <trkpt lat="44.34234" lon="0.79372">
        <ele>90</ele>
        <time>2025-10-12T13:05:31.518Z</time>
      </trkpt>
      <trkpt lat="44.34234" lon="0.79372">
        <ele>89</ele>
        <time>2025-10-12T13:05:32.518Z</time>
      </trkpt>
      <trkpt lat="44.34234" lon="0.79372">
        <ele>89</ele>
        <time>2025-10-12T13:05:33.518Z</time>
      </trkpt>
      <trkpt lat="44.34234" lon="0.79372">
        <ele>89</ele>
        <time>2025-10-12T13:05:34.518Z</time>
      </trkpt>
      <trkpt lat="44.34234" lon="0.79372">
        <ele>89</ele>
        <time>2025-10-12T13:05:35.518Z</time>
      </trkpt>
      <trkpt lat="44.34234" lon="0.79372">
        <ele>89</ele>
        <time>2025-10-12T13:05:36.518Z</time>
      </trkpt>
      <trkpt lat="44.34234" lon="0.79373">
        <ele>89</ele>
        <time>2025-10-12T13:05:37.518Z</time>
      </trkpt>
      <trkpt lat="44.34234" lon="0.79373">
        <ele>89</ele>
        <time>2025-10-12T13:05:38.518Z</time>
      </trkpt>
      <trkpt lat="44.34233" lon="0.79373">
        <ele>89</ele>
        <time>2025-10-12T13:05:39.518Z</time>
      </trkpt>
      <trkpt lat="44.34233" lon="0.79373">
        <ele>88</ele>
        <time>2025-10-12T13:05:40.518Z</time>
      </trkpt>
      <trkpt lat="44.34233" lon="0.79373">
        <ele>88</ele>
        <time>2025-10-12T13:05:41.518Z</time>
      </trkpt>
      <trkpt lat="44.34233" lon="0.79373">
        <ele>88</ele>
        <time>2025-10-12T13:05:42.518Z</time>
      </trkpt>
      <trkpt lat="44.34233" lon="0.79373">
        <ele>88</ele>
        <time>2025-10-12T13:05:43.518Z</time>
      </trkpt>
      <trkpt lat="44.34233" lon="0.79373">
        <ele>88</ele>
        <time>2025-10-12T13:05:44.518Z</time>
      </trkpt>
      <trkpt lat="44.34233" lon="0.79373">
        <ele>87</ele>
        <time>2025-10-12T13:05:45.518Z</time>
      </trkpt>
      <trkpt lat="44.34233" lon="0.79373">
        <ele>87</ele>
        <time>2025-10-12T13:05:46.518Z</time>
      </trkpt>
      <trkpt lat="44.34234" lon="0.79373">
        <ele>87</ele>
        <time>2025-10-12T13:05:47.518Z</time>
      </trkpt>
      <trkpt lat="44.34234" lon="0.79373">
        <ele>86</ele>
        <time>2025-10-12T13:05:48.518Z</time>
      </trkpt>
      <trkpt lat="44.34234" lon="0.79373">
        <ele>86</ele>
        <time>2025-10-12T13:05:49.518Z</time>
      </trkpt>
      <trkpt lat="44.34234" lon="0.79373">
        <ele>86</ele>
        <time>2025-10-12T13:05:50.518Z</time>
      </trkpt>
      <trkpt lat="44.34234" lon="0.79373">
        <ele>87</ele>
        <time>2025-10-12T13:05:51.518Z</time>
      </trkpt>
      <trkpt lat="44.34234" lon="0.79373">
        <ele>87</ele>
        <time>2025-10-12T13:05:52.518Z</time>
      </trkpt>
      <trkpt lat="44.34234" lon="0.79372">
        <ele>87</ele>
        <time>2025-10-12T13:05:53.518Z</time>
      </trkpt>
      <trkpt lat="44.34234" lon="0.79372">
        <ele>87</ele>
        <time>2025-10-12T13:05:54.518Z</time>
      </trkpt>
      <trkpt lat="44.34234" lon="0.79372">
        <ele>87</ele>
        <time>2025-10-12T13:05:55.518Z</time>
      </trkpt>
      <trkpt lat="44.34234" lon="0.79372">
        <ele>87</ele>
        <time>2025-10-12T13:05:56.518Z</time>
      </trkpt>
      <trkpt lat="44.34234" lon="0.79372">
        <ele>87</ele>
        <time>2025-10-12T13:05:57.518Z</time>
      </trkpt>
      <trkpt lat="44.34234" lon="0.79372">
        <ele>87</ele>
        <time>2025-10-12T13:05:58.518Z</time>
      </trkpt>
      <trkpt lat="44.34234" lon="0.79372">
        <ele>87</ele>
        <time>2025-10-12T13:05:59.518Z</time>
      </trkpt>
      <trkpt lat="44.34234" lon="0.79372">
        <ele>88</ele>
        <time>2025-10-12T13:06:00.518Z</time>
      </trkpt>
      <trkpt lat="44.34234" lon="0.79372">
        <ele>88</ele>
        <time>2025-10-12T13:06:01.518Z</time>
      </trkpt>
      <trkpt lat="44.34234" lon="0.79372">
        <ele>87</ele>
        <time>2025-10-12T13:06:02.518Z</time>
      </trkpt>
      <trkpt lat="44.34234" lon="0.79372">
        <ele>87</ele>
        <time>2025-10-12T13:06:03.518Z</time>
      </trkpt>
      <trkpt lat="44.34234" lon="0.79372">
        <ele>87</ele>
        <time>2025-10-12T13:06:04.518Z</time>
      </trkpt>
      <trkpt lat="44.34234" lon="0.79372">
        <ele>88</ele>
        <time>2025-10-12T13:06:05.518Z</time>
      </trkpt>
      <trkpt lat="44.34234" lon="0.79372">
        <ele>88</ele>
        <time>2025-10-12T13:06:06.518Z</time>
      </trkpt>
      <trkpt lat="44.34234" lon="0.79372">
        <ele>89</ele>
        <time>2025-10-12T13:06:07.518Z</time>
      </trkpt>
      <trkpt lat="44.34234" lon="0.79372">
        <ele>89</ele>
        <time>2025-10-12T13:06:08.518Z</time>
      </trkpt>
      <trkpt lat="44.34233" lon="0.79372">
        <ele>90</ele>
        <time>2025-10-12T13:06:09.518Z</time>
      </trkpt>
      <trkpt lat="44.34233" lon="0.79372">
        <ele>90</ele>
        <time>2025-10-12T13:06:10.518Z</time>
      </trkpt>
      <trkpt lat="44.34233" lon="0.79372">
        <ele>90</ele>
        <time>2025-10-12T13:06:11.518Z</time>
      </trkpt>
      <trkpt lat="44.34233" lon="0.79371">
        <ele>90</ele>
        <time>2025-10-12T13:06:12.518Z</time>
      </trkpt>
      <trkpt lat="44.34233" lon="0.7937">
        <ele>90</ele>
        <time>2025-10-12T13:06:13.518Z</time>
      </trkpt>
      <trkpt lat="44.34233" lon="0.7937">
        <ele>90</ele>
        <time>2025-10-12T13:06:14.518Z</time>
      </trkpt>
      <trkpt lat="44.34234" lon="0.79369">
        <ele>90</ele>
        <time>2025-10-12T13:06:15.518Z</time>
      </trkpt>
      <trkpt lat="44.34234" lon="0.79369">
        <ele>90</ele>
        <time>2025-10-12T13:06:16.518Z</time>
      </trkpt>
      <trkpt lat="44.34234" lon="0.79368">
        <ele>90</ele>
        <time>2025-10-12T13:06:17.518Z</time>
      </trkpt>
      <trkpt lat="44.34234" lon="0.79367">
        <ele>90</ele>
        <time>2025-10-12T13:06:18.518Z</time>
      </trkpt>
      <trkpt lat="44.34235" lon="0.79367">
        <ele>90</ele>
        <time>2025-10-12T13:06:19.518Z</time>
      </trkpt>
      <trkpt lat="44.34235" lon="0.79367">
        <ele>90</ele>
        <time>2025-10-12T13:06:20.518Z</time>
      </trkpt>
      <trkpt lat="44.34235" lon="0.79367">
        <ele>90</ele>
        <time>2025-10-12T13:06:21.518Z</time>
      </trkpt>
      <trkpt lat="44.34235" lon="0.79366">
        <ele>90</ele>
        <time>2025-10-12T13:06:22.518Z</time>
      </trkpt>
      <trkpt lat="44.34235" lon="0.79366">
        <ele>89</ele>
        <time>2025-10-12T13:06:23.518Z</time>
      </trkpt>
      <trkpt lat="44.34235" lon="0.79366">
        <ele>89</ele>
        <time>2025-10-12T13:06:24.518Z</time>
      </trkpt>
      <trkpt lat="44.34235" lon="0.79366">
        <ele>89</ele>
        <time>2025-10-12T13:06:25.518Z</time>
      </trkpt>
      <trkpt lat="44.34236" lon="0.79367">
        <ele>89</ele>
        <time>2025-10-12T13:06:26.518Z</time>
      </trkpt>
      <trkpt lat="44.34235" lon="0.79367">
        <ele>89</ele>
        <time>2025-10-12T13:06:27.518Z</time>
      </trkpt>
      <trkpt lat="44.34235" lon="0.79367">
        <ele>89</ele>
        <time>2025-10-12T13:06:28.518Z</time>
      </trkpt>
      <trkpt lat="44.34234" lon="0.79367">
        <ele>89</ele>
        <time>2025-10-12T13:06:29.518Z</time>
      </trkpt>
      <trkpt lat="44.34234" lon="0.79368">
        <ele>89</ele>
        <time>2025-10-12T13:06:30.518Z</time>
      </trkpt>
      <trkpt lat="44.34233" lon="0.79368">
        <ele>89</ele>
        <time>2025-10-12T13:06:31.518Z</time>
      </trkpt>
      <trkpt lat="44.34233" lon="0.79368">
        <ele>89</ele>
        <time>2025-10-12T13:06:32.518Z</time>
      </trkpt>
      <trkpt lat="44.34234" lon="0.79368">
        <ele>89</ele>
        <time>2025-10-12T13:06:33.518Z</time>
      </trkpt>
      <trkpt lat="44.34234" lon="0.79368">
        <ele>89</ele>
        <time>2025-10-12T13:06:34.518Z</time>
      </trkpt>
      <trkpt lat="44.34234" lon="0.79368">
        <ele>89</ele>
        <time>2025-10-12T13:06:35.518Z</time>
      </trkpt>
      <trkpt lat="44.34234" lon="0.79368">
        <ele>89</ele>
        <time>2025-10-12T13:06:36.518Z</time>
      </trkpt>
      <trkpt lat="44.34234" lon="0.79368">
        <ele>89</ele>
        <time>2025-10-12T13:06:37.518Z</time>
      </trkpt>
      <trkpt lat="44.34234" lon="0.79368">
        <ele>89</ele>
        <time>2025-10-12T13:06:38.518Z</time>
      </trkpt>
      <trkpt lat="44.34234" lon="0.79368">
        <ele>89</ele>
        <time>2025-10-12T13:06:39.518Z</time>
      </trkpt>
      <trkpt lat="44.34234" lon="0.79368">
        <ele>89</ele>
        <time>2025-10-12T13:06:40.518Z</time>
      </trkpt>
      <trkpt lat="44.34234" lon="0.79369">
        <ele>89</ele>
        <time>2025-10-12T13:06:41.518Z</time>
      </trkpt>
      <trkpt lat="44.34234" lon="0.79369">
        <ele>89</ele>
        <time>2025-10-12T13:06:42.518Z</time>
      </trkpt>
      <trkpt lat="44.34234" lon="0.79369">
        <ele>89</ele>
        <time>2025-10-12T13:06:43.518Z</time>
      </trkpt>
      <trkpt lat="44.34234" lon="0.79369">
        <ele>90</ele>
        <time>2025-10-12T13:06:44.518Z</time>
      </trkpt>
      <trkpt lat="44.34234" lon="0.79369">
        <ele>90</ele>
        <time>2025-10-12T13:06:45.518Z</time>
      </trkpt>
      <trkpt lat="44.34234" lon="0.79369">
        <ele>91</ele>
        <time>2025-10-12T13:06:46.518Z</time>
      </trkpt>
      <trkpt lat="44.34234" lon="0.79369">
        <ele>91</ele>
        <time>2025-10-12T13:06:47.518Z</time>
      </trkpt>
      <trkpt lat="44.34234" lon="0.79369">
        <ele>91</ele>
        <time>2025-10-12T13:06:48.518Z</time>
      </trkpt>
      <trkpt lat="44.34234" lon="0.79369">
        <ele>91</ele>
        <time>2025-10-12T13:06:49.518Z</time>
      </trkpt>
      <trkpt lat="44.34234" lon="0.79369">
        <ele>91</ele>
        <time>2025-10-12T13:06:50.518Z</time>
      </trkpt>
      <trkpt lat="44.34234" lon="0.79369">
        <ele>91</ele>
        <time>2025-10-12T13:06:51.518Z</time>
      </trkpt>
      <trkpt lat="44.34234" lon="0.79369">
        <ele>90</ele>
        <time>2025-10-12T13:06:52.518Z</time>
      </trkpt>
      <trkpt lat="44.34234" lon="0.79369">
        <ele>90</ele>
        <time>2025-10-12T13:06:53.518Z</time>
      </trkpt>
      <trkpt lat="44.34234" lon="0.79369">
        <ele>90</ele>
        <time>2025-10-12T13:06:54.518Z</time>
      </trkpt>
      <trkpt lat="44.34234" lon="0.79369">
        <ele>90</ele>
        <time>2025-10-12T13:06:55.518Z</time>
      </trkpt>
      <trkpt lat="44.34234" lon="0.79369">
        <ele>90</ele>
        <time>2025-10-12T13:06:56.518Z</time>
      </trkpt>
      <trkpt lat="44.34234" lon="0.79369">
        <ele>90</ele>
        <time>2025-10-12T13:06:57.518Z</time>
      </trkpt>
      <trkpt lat="44.34234" lon="0.79369">
        <ele>90</ele>
        <time>2025-10-12T13:06:58.518Z</time>
      </trkpt>
      <trkpt lat="44.34234" lon="0.79369">
        <ele>90</ele>
        <time>2025-10-12T13:06:59.518Z</time>
      </trkpt>
      <trkpt lat="44.34234" lon="0.7937">
        <ele>90</ele>
        <time>2025-10-12T13:07:00.518Z</time>
      </trkpt>
      <trkpt lat="44.34234" lon="0.7937">
        <ele>90</ele>
        <time>2025-10-12T13:07:01.518Z</time>
      </trkpt>
      <trkpt lat="44.34234" lon="0.7937">
        <ele>90</ele>
        <time>2025-10-12T13:07:02.518Z</time>
      </trkpt>
      <trkpt lat="44.34234" lon="0.7937">
        <ele>91</ele>
        <time>2025-10-12T13:07:03.518Z</time>
      </trkpt>
      <trkpt lat="44.34234" lon="0.7937">
        <ele>91</ele>
        <time>2025-10-12T13:07:04.518Z</time>
      </trkpt>
      <trkpt lat="44.34234" lon="0.79369">
        <ele>90</ele>
        <time>2025-10-12T13:07:05.518Z</time>
      </trkpt>
      <trkpt lat="44.34234" lon="0.79369">
        <ele>90</ele>
        <time>2025-10-12T13:07:06.518Z</time>
      </trkpt>
      <trkpt lat="44.34234" lon="0.79369">
        <ele>90</ele>
        <time>2025-10-12T13:07:07.518Z</time>
      </trkpt>
      <trkpt lat="44.34234" lon="0.79369">
        <ele>90</ele>
        <time>2025-10-12T13:07:08.518Z</time>
      </trkpt>
      <trkpt lat="44.34234" lon="0.79369">
        <ele>91</ele>
        <time>2025-10-12T13:07:09.518Z</time>
      </trkpt>
      <trkpt lat="44.34234" lon="0.79368">
        <ele>91</ele>
        <time>2025-10-12T13:07:10.518Z</time>
      </trkpt>
      <trkpt lat="44.34234" lon="0.79368">
        <ele>91</ele>
        <time>2025-10-12T13:07:11.518Z</time>
      </trkpt>
      <trkpt lat="44.34235" lon="0.79367">
        <ele>91</ele>
        <time>2025-10-12T13:07:12.518Z</time>
      </trkpt>
      <trkpt lat="44.34235" lon="0.79367">
        <ele>90</ele>
        <time>2025-10-12T13:07:13.518Z</time>
      </trkpt>
      <trkpt lat="44.34236" lon="0.79366">
        <ele>90</ele>
        <time>2025-10-12T13:07:14.518Z</time>
      </trkpt>
      <trkpt lat="44.34237" lon="0.79366">
        <ele>90</ele>
        <time>2025-10-12T13:07:15.518Z</time>
      </trkpt>
      <trkpt lat="44.34238" lon="0.79365">
        <ele>89</ele>
        <time>2025-10-12T13:07:16.518Z</time>
      </trkpt>
      <trkpt lat="44.34239" lon="0.79365">
        <ele>89</ele>
        <time>2025-10-12T13:07:17.518Z</time>
      </trkpt>
      <trkpt lat="44.3424" lon="0.79364">
        <ele>89</ele>
        <time>2025-10-12T13:07:18.518Z</time>
      </trkpt>
      <trkpt lat="44.34241" lon="0.79364">
        <ele>88</ele>
        <time>2025-10-12T13:07:19.518Z</time>
      </trkpt>
      <trkpt lat="44.34242" lon="0.79364">
        <ele>88</ele>
        <time>2025-10-12T13:07:20.518Z</time>
      </trkpt>
      <trkpt lat="44.34243" lon="0.79363">
        <ele>88</ele>
        <time>2025-10-12T13:07:21.518Z</time>
      </trkpt>
      <trkpt lat="44.34244" lon="0.79363">
        <ele>88</ele>
        <time>2025-10-12T13:07:22.518Z</time>
      </trkpt>
      <trkpt lat="44.34245" lon="0.79363">
        <ele>88</ele>
        <time>2025-10-12T13:07:23.518Z</time>
      </trkpt>
      <trkpt lat="44.34247" lon="0.79363">
        <ele>88</ele>
        <time>2025-10-12T13:07:24.518Z</time>
      </trkpt>
      <trkpt lat="44.34248" lon="0.79363">
        <ele>88</ele>
        <time>2025-10-12T13:07:25.518Z</time>
      </trkpt>
      <trkpt lat="44.34249" lon="0.79363">
        <ele>87</ele>
        <time>2025-10-12T13:07:26.518Z</time>
      </trkpt>
      <trkpt lat="44.3425" lon="0.79362">
        <ele>87</ele>
        <time>2025-10-12T13:07:27.518Z</time>
      </trkpt>
      <trkpt lat="44.34251" lon="0.79362">
        <ele>87</ele>
        <time>2025-10-12T13:07:28.518Z</time>
      </trkpt>
      <trkpt lat="44.34253" lon="0.79362">
        <ele>87</ele>
        <time>2025-10-12T13:07:29.518Z</time>
      </trkpt>
      <trkpt lat="44.34254" lon="0.79362">
        <ele>87</ele>
        <time>2025-10-12T13:07:30.518Z</time>
      </trkpt>
      <trkpt lat="44.34255" lon="0.79361">
        <ele>86</ele>
        <time>2025-10-12T13:07:31.518Z</time>
      </trkpt>
      <trkpt lat="44.34256" lon="0.79361">
        <ele>86</ele>
        <time>2025-10-12T13:07:32.518Z</time>
      </trkpt>
      <trkpt lat="44.34257" lon="0.79361">
        <ele>86</ele>
        <time>2025-10-12T13:07:33.518Z</time>
      </trkpt>
      <trkpt lat="44.34259" lon="0.79361">
        <ele>86</ele>
        <time>2025-10-12T13:07:34.518Z</time>
      </trkpt>
      <trkpt lat="44.3426" lon="0.79361">
        <ele>85</ele>
        <time>2025-10-12T13:07:35.518Z</time>
      </trkpt>
      <trkpt lat="44.34261" lon="0.79361">
        <ele>85</ele>
        <time>2025-10-12T13:07:36.518Z</time>
      </trkpt>
      <trkpt lat="44.34263" lon="0.7936">
        <ele>85</ele>
        <time>2025-10-12T13:07:37.518Z</time>
      </trkpt>
      <trkpt lat="44.34264" lon="0.7936">
        <ele>85</ele>
        <time>2025-10-12T13:07:38.518Z</time>
      </trkpt>
      <trkpt lat="44.34265" lon="0.7936">
        <ele>85</ele>
        <time>2025-10-12T13:07:39.518Z</time>
      </trkpt>
      <trkpt lat="44.34266" lon="0.7936">
        <ele>85</ele>
        <time>2025-10-12T13:07:40.518Z</time>
      </trkpt>
      <trkpt lat="44.34267" lon="0.79359">
        <ele>85</ele>
        <time>2025-10-12T13:07:41.518Z</time>
      </trkpt>
      <trkpt lat="44.34268" lon="0.79359">
        <ele>86</ele>
        <time>2025-10-12T13:07:42.518Z</time>
      </trkpt>
      <trkpt lat="44.34269" lon="0.79358">
        <ele>86</ele>
        <time>2025-10-12T13:07:43.518Z</time>
      </trkpt>
      <trkpt lat="44.34271" lon="0.79358">
        <ele>86</ele>
        <time>2025-10-12T13:07:44.518Z</time>
      </trkpt>
      <trkpt lat="44.34272" lon="0.79357">
        <ele>86</ele>
        <time>2025-10-12T13:07:45.518Z</time>
      </trkpt>
      <trkpt lat="44.34273" lon="0.79357">
        <ele>86</ele>
        <time>2025-10-12T13:07:46.518Z</time>
      </trkpt>
      <trkpt lat="44.34275" lon="0.79356">
        <ele>86</ele>
        <time>2025-10-12T13:07:47.518Z</time>
      </trkpt>
      <trkpt lat="44.34276" lon="0.79356">
        <ele>86</ele>
        <time>2025-10-12T13:07:48.518Z</time>
      </trkpt>
      <trkpt lat="44.34277" lon="0.79356">
        <ele>86</ele>
        <time>2025-10-12T13:07:49.518Z</time>
      </trkpt>
      <trkpt lat="44.34278" lon="0.79356">
        <ele>86</ele>
        <time>2025-10-12T13:07:50.518Z</time>
      </trkpt>
      <trkpt lat="44.34279" lon="0.79356">
        <ele>86</ele>
        <time>2025-10-12T13:07:51.518Z</time>
      </trkpt>
      <trkpt lat="44.3428" lon="0.79356">
        <ele>86</ele>
        <time>2025-10-12T13:07:52.518Z</time>
      </trkpt>
      <trkpt lat="44.34282" lon="0.79355">
        <ele>86</ele>
        <time>2025-10-12T13:07:53.518Z</time>
      </trkpt>
      <trkpt lat="44.34283" lon="0.79355">
        <ele>86</ele>
        <time>2025-10-12T13:07:54.518Z</time>
      </trkpt>
      <trkpt lat="44.34284" lon="0.79355">
        <ele>86</ele>
        <time>2025-10-12T13:07:55.518Z</time>
      </trkpt>
      <trkpt lat="44.34285" lon="0.79355">
        <ele>86</ele>
        <time>2025-10-12T13:07:56.518Z</time>
      </trkpt>
      <trkpt lat="44.34286" lon="0.79354">
        <ele>86</ele>
        <time>2025-10-12T13:07:57.518Z</time>
      </trkpt>
      <trkpt lat="44.34287" lon="0.79354">
        <ele>86</ele>
        <time>2025-10-12T13:07:58.518Z</time>
      </trkpt>
      <trkpt lat="44.34288" lon="0.79354">
        <ele>86</ele>
        <time>2025-10-12T13:07:59.518Z</time>
      </trkpt>
      <trkpt lat="44.3429" lon="0.79354">
        <ele>86</ele>
        <time>2025-10-12T13:08:00.518Z</time>
      </trkpt>
      <trkpt lat="44.34291" lon="0.79354">
        <ele>86</ele>
        <time>2025-10-12T13:08:01.518Z</time>
      </trkpt>
      <trkpt lat="44.34292" lon="0.79353">
        <ele>87</ele>
        <time>2025-10-12T13:08:02.518Z</time>
      </trkpt>
      <trkpt lat="44.34293" lon="0.79353">
        <ele>87</ele>
        <time>2025-10-12T13:08:03.518Z</time>
      </trkpt>
      <trkpt lat="44.34294" lon="0.79353">
        <ele>87</ele>
        <time>2025-10-12T13:08:04.518Z</time>
      </trkpt>
      <trkpt lat="44.34295" lon="0.79353">
        <ele>87</ele>
        <time>2025-10-12T13:08:05.518Z</time>
      </trkpt>
      <trkpt lat="44.34297" lon="0.79352">
        <ele>87</ele>
        <time>2025-10-12T13:08:06.518Z</time>
      </trkpt>
      <trkpt lat="44.34298" lon="0.79352">
        <ele>87</ele>
        <time>2025-10-12T13:08:07.518Z</time>
      </trkpt>
      <trkpt lat="44.34299" lon="0.79352">
        <ele>87</ele>
        <time>2025-10-12T13:08:08.518Z</time>
      </trkpt>
      <trkpt lat="44.343" lon="0.79351">
        <ele>87</ele>
        <time>2025-10-12T13:08:09.518Z</time>
      </trkpt>
      <trkpt lat="44.34301" lon="0.79351">
        <ele>87</ele>
        <time>2025-10-12T13:08:10.518Z</time>
      </trkpt>
      <trkpt lat="44.34303" lon="0.79351">
        <ele>88</ele>
        <time>2025-10-12T13:08:11.518Z</time>
      </trkpt>
      <trkpt lat="44.34304" lon="0.7935">
        <ele>88</ele>
        <time>2025-10-12T13:08:12.518Z</time>
      </trkpt>
      <trkpt lat="44.34305" lon="0.7935">
        <ele>88</ele>
        <time>2025-10-12T13:08:13.518Z</time>
      </trkpt>
      <trkpt lat="44.34306" lon="0.7935">
        <ele>88</ele>
        <time>2025-10-12T13:08:14.518Z</time>
      </trkpt>
      <trkpt lat="44.34307" lon="0.79349">
        <ele>88</ele>
        <time>2025-10-12T13:08:15.518Z</time>
      </trkpt>
      <trkpt lat="44.34308" lon="0.79349">
        <ele>88</ele>
        <time>2025-10-12T13:08:16.518Z</time>
      </trkpt>
      <trkpt lat="44.3431" lon="0.79348">
        <ele>88</ele>
        <time>2025-10-12T13:08:17.518Z</time>
      </trkpt>
      <trkpt lat="44.34311" lon="0.79348">
        <ele>88</ele>
        <time>2025-10-12T13:08:18.518Z</time>
      </trkpt>
      <trkpt lat="44.34312" lon="0.79348">
        <ele>88</ele>
        <time>2025-10-12T13:08:19.518Z</time>
      </trkpt>
      <trkpt lat="44.34313" lon="0.79348">
        <ele>87</ele>
        <time>2025-10-12T13:08:20.518Z</time>
      </trkpt>
      <trkpt lat="44.34314" lon="0.79347">
        <ele>87</ele>
        <time>2025-10-12T13:08:21.518Z</time>
      </trkpt>
      <trkpt lat="44.34315" lon="0.79347">
        <ele>87</ele>
        <time>2025-10-12T13:08:22.518Z</time>
      </trkpt>
      <trkpt lat="44.34316" lon="0.79347">
        <ele>86</ele>
        <time>2025-10-12T13:08:23.518Z</time>
      </trkpt>
      <trkpt lat="44.34318" lon="0.79347">
        <ele>86</ele>
        <time>2025-10-12T13:08:24.518Z</time>
      </trkpt>
      <trkpt lat="44.34319" lon="0.79347">
        <ele>86</ele>
        <time>2025-10-12T13:08:25.518Z</time>
      </trkpt>
      <trkpt lat="44.3432" lon="0.79347">
        <ele>86</ele>
        <time>2025-10-12T13:08:26.518Z</time>
      </trkpt>
      <trkpt lat="44.34321" lon="0.79346">
        <ele>86</ele>
        <time>2025-10-12T13:08:27.518Z</time>
      </trkpt>
      <trkpt lat="44.34322" lon="0.79346">
        <ele>86</ele>
        <time>2025-10-12T13:08:28.518Z</time>
      </trkpt>
      <trkpt lat="44.34323" lon="0.79346">
        <ele>86</ele>
        <time>2025-10-12T13:08:29.518Z</time>
      </trkpt>
      <trkpt lat="44.34324" lon="0.79346">
        <ele>86</ele>
        <time>2025-10-12T13:08:30.518Z</time>
      </trkpt>
      <trkpt lat="44.34325" lon="0.79345">
        <ele>86</ele>
        <time>2025-10-12T13:08:31.518Z</time>
      </trkpt>
      <trkpt lat="44.34327" lon="0.79345">
        <ele>86</ele>
        <time>2025-10-12T13:08:32.518Z</time>
      </trkpt>
      <trkpt lat="44.34328" lon="0.79345">
        <ele>86</ele>
        <time>2025-10-12T13:08:33.518Z</time>
      </trkpt>
      <trkpt lat="44.34329" lon="0.79344">
        <ele>86</ele>
        <time>2025-10-12T13:08:34.518Z</time>
      </trkpt>
      <trkpt lat="44.3433" lon="0.79344">
        <ele>86</ele>
        <time>2025-10-12T13:08:35.518Z</time>
      </trkpt>
      <trkpt lat="44.34331" lon="0.79343">
        <ele>87</ele>
        <time>2025-10-12T13:08:36.518Z</time>
      </trkpt>
      <trkpt lat="44.34332" lon="0.79343">
        <ele>87</ele>
        <time>2025-10-12T13:08:37.518Z</time>
      </trkpt>
      <trkpt lat="44.34333" lon="0.79342">
        <ele>87</ele>
        <time>2025-10-12T13:08:38.518Z</time>
      </trkpt>
      <trkpt lat="44.34334" lon="0.79342">
        <ele>87</ele>
        <time>2025-10-12T13:08:39.518Z</time>
      </trkpt>
      <trkpt lat="44.34336" lon="0.79341">
        <ele>87</ele>
        <time>2025-10-12T13:08:40.518Z</time>
      </trkpt>
      <trkpt lat="44.34337" lon="0.79341">
        <ele>87</ele>
        <time>2025-10-12T13:08:41.518Z</time>
      </trkpt>
      <trkpt lat="44.34338" lon="0.79341">
        <ele>87</ele>
        <time>2025-10-12T13:08:42.518Z</time>
      </trkpt>
      <trkpt lat="44.34339" lon="0.7934">
        <ele>87</ele>
        <time>2025-10-12T13:08:43.518Z</time>
      </trkpt>
      <trkpt lat="44.3434" lon="0.7934">
        <ele>87</ele>
        <time>2025-10-12T13:08:44.518Z</time>
      </trkpt>
      <trkpt lat="44.34341" lon="0.79339">
        <ele>87</ele>
        <time>2025-10-12T13:08:45.518Z</time>
      </trkpt>
      <trkpt lat="44.34342" lon="0.79338">
        <ele>87</ele>
        <time>2025-10-12T13:08:46.518Z</time>
      </trkpt>
      <trkpt lat="44.34343" lon="0.79338">
        <ele>87</ele>
        <time>2025-10-12T13:08:47.518Z</time>
      </trkpt>
      <trkpt lat="44.34344" lon="0.79337">
        <ele>87</ele>
        <time>2025-10-12T13:08:48.518Z</time>
      </trkpt>
      <trkpt lat="44.34345" lon="0.79336">
        <ele>87</ele>
        <time>2025-10-12T13:08:49.518Z</time>
      </trkpt>
      <trkpt lat="44.34346" lon="0.79336">
        <ele>87</ele>
        <time>2025-10-12T13:08:50.518Z</time>
      </trkpt>
      <trkpt lat="44.34347" lon="0.79335">
        <ele>87</ele>
        <time>2025-10-12T13:08:51.518Z</time>
      </trkpt>
      <trkpt lat="44.34348" lon="0.79334">
        <ele>87</ele>
        <time>2025-10-12T13:08:52.518Z</time>
      </trkpt>
      <trkpt lat="44.34349" lon="0.79334">
        <ele>87</ele>
        <time>2025-10-12T13:08:53.518Z</time>
      </trkpt>
      <trkpt lat="44.3435" lon="0.79333">
        <ele>87</ele>
        <time>2025-10-12T13:08:54.518Z</time>
      </trkpt>
      <trkpt lat="44.34351" lon="0.79332">
        <ele>87</ele>
        <time>2025-10-12T13:08:55.518Z</time>
      </trkpt>
      <trkpt lat="44.34352" lon="0.79331">
        <ele>87</ele>
        <time>2025-10-12T13:08:56.518Z</time>
      </trkpt>
      <trkpt lat="44.34353" lon="0.7933">
        <ele>87</ele>
        <time>2025-10-12T13:08:57.518Z</time>
      </trkpt>
      <trkpt lat="44.34354" lon="0.7933">
        <ele>87</ele>
        <time>2025-10-12T13:08:58.518Z</time>
      </trkpt>
      <trkpt lat="44.34355" lon="0.79329">
        <ele>87</ele>
        <time>2025-10-12T13:08:59.518Z</time>
      </trkpt>
      <trkpt lat="44.34355" lon="0.79329">
        <ele>87</ele>
        <time>2025-10-12T13:09:00.518Z</time>
      </trkpt>
      <trkpt lat="44.34356" lon="0.79328">
        <ele>87</ele>
        <time>2025-10-12T13:09:01.518Z</time>
      </trkpt>
      <trkpt lat="44.34356" lon="0.79327">
        <ele>87</ele>
        <time>2025-10-12T13:09:02.518Z</time>
      </trkpt>
      <trkpt lat="44.34357" lon="0.79326">
        <ele>87</ele>
        <time>2025-10-12T13:09:03.518Z</time>
      </trkpt>
      <trkpt lat="44.34357" lon="0.79325">
        <ele>87</ele>
        <time>2025-10-12T13:09:04.518Z</time>
      </trkpt>
      <trkpt lat="44.34357" lon="0.79324">
        <ele>87</ele>
        <time>2025-10-12T13:09:05.518Z</time>
      </trkpt>
      <trkpt lat="44.34356" lon="0.79323">
        <ele>86</ele>
        <time>2025-10-12T13:09:06.518Z</time>
      </trkpt>
      <trkpt lat="44.34356" lon="0.79321">
        <ele>86</ele>
        <time>2025-10-12T13:09:07.518Z</time>
      </trkpt>
      <trkpt lat="44.34355" lon="0.7932">
        <ele>86</ele>
        <time>2025-10-12T13:09:08.518Z</time>
      </trkpt>
      <trkpt lat="44.34354" lon="0.79319">
        <ele>86</ele>
        <time>2025-10-12T13:09:09.518Z</time>
      </trkpt>
      <trkpt lat="44.34353" lon="0.79318">
        <ele>86</ele>
        <time>2025-10-12T13:09:10.518Z</time>
      </trkpt>
      <trkpt lat="44.34353" lon="0.79317">
        <ele>86</ele>
        <time>2025-10-12T13:09:11.518Z</time>
      </trkpt>
      <trkpt lat="44.34352" lon="0.79316">
        <ele>86</ele>
        <time>2025-10-12T13:09:12.518Z</time>
      </trkpt>
      <trkpt lat="44.34351" lon="0.79315">
        <ele>86</ele>
        <time>2025-10-12T13:09:13.518Z</time>
      </trkpt>
      <trkpt lat="44.3435" lon="0.79314">
        <ele>86</ele>
        <time>2025-10-12T13:09:14.518Z</time>
      </trkpt>
      <trkpt lat="44.3435" lon="0.79313">
        <ele>86</ele>
        <time>2025-10-12T13:09:15.518Z</time>
      </trkpt>
      <trkpt lat="44.34349" lon="0.79312">
        <ele>86</ele>
        <time>2025-10-12T13:09:16.518Z</time>
      </trkpt>
      <trkpt lat="44.34348" lon="0.79311">
        <ele>86</ele>
        <time>2025-10-12T13:09:17.518Z</time>
      </trkpt>
      <trkpt lat="44.34347" lon="0.79311">
        <ele>87</ele>
        <time>2025-10-12T13:09:18.518Z</time>
      </trkpt>
      <trkpt lat="44.34346" lon="0.7931">
        <ele>87</ele>
        <time>2025-10-12T13:09:19.518Z</time>
      </trkpt>
      <trkpt lat="44.34346" lon="0.79309">
        <ele>87</ele>
        <time>2025-10-12T13:09:20.518Z</time>
      </trkpt>
      <trkpt lat="44.34346" lon="0.79309">
        <ele>87</ele>
        <time>2025-10-12T13:09:21.518Z</time>
      </trkpt>
      <trkpt lat="44.34346" lon="0.79308">
        <ele>87</ele>
        <time>2025-10-12T13:09:22.518Z</time>
      </trkpt>
      <trkpt lat="44.34346" lon="0.79307">
        <ele>86</ele>
        <time>2025-10-12T13:09:23.518Z</time>
      </trkpt>
      <trkpt lat="44.34347" lon="0.79306">
        <ele>86</ele>
        <time>2025-10-12T13:09:24.518Z</time>
      </trkpt>
      <trkpt lat="44.34347" lon="0.79305">
        <ele>86</ele>
        <time>2025-10-12T13:09:25.518Z</time>
      </trkpt>
      <trkpt lat="44.34347" lon="0.79303">
        <ele>86</ele>
        <time>2025-10-12T13:09:26.518Z</time>
      </trkpt>
      <trkpt lat="44.34347" lon="0.79301">
        <ele>85</ele>
        <time>2025-10-12T13:09:27.518Z</time>
      </trkpt>
      <trkpt lat="44.34347" lon="0.793">
        <ele>85</ele>
        <time>2025-10-12T13:09:28.518Z</time>
      </trkpt>
      <trkpt lat="44.34346" lon="0.79298">
        <ele>85</ele>
        <time>2025-10-12T13:09:29.518Z</time>
      </trkpt>
      <trkpt lat="44.34346" lon="0.79297">
        <ele>85</ele>
        <time>2025-10-12T13:09:30.518Z</time>
      </trkpt>
      <trkpt lat="44.34345" lon="0.79296">
        <ele>85</ele>
        <time>2025-10-12T13:09:31.518Z</time>
      </trkpt>
      <trkpt lat="44.34344" lon="0.79295">
        <ele>84</ele>
        <time>2025-10-12T13:09:32.518Z</time>
      </trkpt>
      <trkpt lat="44.34343" lon="0.79294">
        <ele>84</ele>
        <time>2025-10-12T13:09:33.518Z</time>
      </trkpt>
      <trkpt lat="44.34341" lon="0.79293">
        <ele>84</ele>
        <time>2025-10-12T13:09:34.518Z</time>
      </trkpt>
      <trkpt lat="44.3434" lon="0.79292">
        <ele>84</ele>
        <time>2025-10-12T13:09:35.518Z</time>
      </trkpt>
      <trkpt lat="44.34339" lon="0.79291">
        <ele>84</ele>
        <time>2025-10-12T13:09:36.518Z</time>
      </trkpt>
      <trkpt lat="44.34338" lon="0.79289">
        <ele>84</ele>
        <time>2025-10-12T13:09:37.518Z</time>
      </trkpt>
      <trkpt lat="44.34338" lon="0.79288">
        <ele>84</ele>
        <time>2025-10-12T13:09:38.518Z</time>
      </trkpt>
      <trkpt lat="44.34337" lon="0.79287">
        <ele>84</ele>
        <time>2025-10-12T13:09:39.518Z</time>
      </trkpt>
      <trkpt lat="44.34336" lon="0.79286">
        <ele>84</ele>
        <time>2025-10-12T13:09:40.518Z</time>
      </trkpt>
      <trkpt lat="44.34335" lon="0.79285">
        <ele>84</ele>
        <time>2025-10-12T13:09:41.518Z</time>
      </trkpt>
      <trkpt lat="44.34334" lon="0.79284">
        <ele>84</ele>
        <time>2025-10-12T13:09:42.518Z</time>
      </trkpt>
      <trkpt lat="44.34333" lon="0.79283">
        <ele>84</ele>
        <time>2025-10-12T13:09:43.518Z</time>
      </trkpt>
      <trkpt lat="44.34332" lon="0.79282">
        <ele>85</ele>
        <time>2025-10-12T13:09:44.518Z</time>
      </trkpt>
      <trkpt lat="44.34331" lon="0.7928">
        <ele>85</ele>
        <time>2025-10-12T13:09:45.518Z</time>
      </trkpt>
      <trkpt lat="44.3433" lon="0.79279">
        <ele>85</ele>
        <time>2025-10-12T13:09:46.518Z</time>
      </trkpt>
      <trkpt lat="44.34329" lon="0.79278">
        <ele>85</ele>
        <time>2025-10-12T13:09:47.518Z</time>
      </trkpt>
      <trkpt lat="44.34328" lon="0.79276">
        <ele>85</ele>
        <time>2025-10-12T13:09:48.518Z</time>
      </trkpt>
      <trkpt lat="44.34328" lon="0.79275">
        <ele>85</ele>
        <time>2025-10-12T13:09:49.518Z</time>
      </trkpt>
      <trkpt lat="44.34327" lon="0.79274">
        <ele>84</ele>
        <time>2025-10-12T13:09:50.518Z</time>
      </trkpt>
      <trkpt lat="44.34326" lon="0.79273">
        <ele>84</ele>
        <time>2025-10-12T13:09:51.518Z</time>
      </trkpt>
      <trkpt lat="44.34325" lon="0.79272">
        <ele>84</ele>
        <time>2025-10-12T13:09:52.518Z</time>
      </trkpt>
      <trkpt lat="44.34324" lon="0.79271">
        <ele>84</ele>
        <time>2025-10-12T13:09:53.518Z</time>
      </trkpt>
      <trkpt lat="44.34323" lon="0.79269">
        <ele>84</ele>
        <time>2025-10-12T13:09:54.518Z</time>
      </trkpt>
      <trkpt lat="44.34322" lon="0.79268">
        <ele>83</ele>
        <time>2025-10-12T13:09:55.518Z</time>
      </trkpt>
      <trkpt lat="44.34321" lon="0.79267">
        <ele>83</ele>
        <time>2025-10-12T13:09:56.518Z</time>
      </trkpt>
      <trkpt lat="44.34321" lon="0.79266">
        <ele>83</ele>
        <time>2025-10-12T13:09:57.518Z</time>
      </trkpt>
      <trkpt lat="44.3432" lon="0.79265">
        <ele>83</ele>
        <time>2025-10-12T13:09:58.518Z</time>
      </trkpt>
      <trkpt lat="44.34319" lon="0.79264">
        <ele>83</ele>
        <time>2025-10-12T13:09:59.518Z</time>
      </trkpt>
      <trkpt lat="44.34318" lon="0.79263">
        <ele>83</ele>
        <time>2025-10-12T13:10:00.518Z</time>
      </trkpt>
      <trkpt lat="44.34317" lon="0.79262">
        <ele>83</ele>
        <time>2025-10-12T13:10:01.518Z</time>
      </trkpt>
      <trkpt lat="44.34316" lon="0.79261">
        <ele>83</ele>
        <time>2025-10-12T13:10:02.518Z</time>
      </trkpt>
      <trkpt lat="44.34315" lon="0.79259">
        <ele>83</ele>
        <time>2025-10-12T13:10:03.518Z</time>
      </trkpt>
      <trkpt lat="44.34314" lon="0.79258">
        <ele>83</ele>
        <time>2025-10-12T13:10:04.518Z</time>
      </trkpt>
      <trkpt lat="44.34313" lon="0.79256">
        <ele>83</ele>
        <time>2025-10-12T13:10:05.518Z</time>
      </trkpt>
      <trkpt lat="44.34312" lon="0.79255">
        <ele>83</ele>
        <time>2025-10-12T13:10:06.518Z</time>
      </trkpt>
      <trkpt lat="44.34311" lon="0.79254">
        <ele>83</ele>
        <time>2025-10-12T13:10:07.518Z</time>
      </trkpt>
      <trkpt lat="44.3431" lon="0.79252">
        <ele>82</ele>
        <time>2025-10-12T13:10:08.518Z</time>
      </trkpt>
      <trkpt lat="44.3431" lon="0.79251">
        <ele>82</ele>
        <time>2025-10-12T13:10:09.518Z</time>
      </trkpt>
      <trkpt lat="44.34309" lon="0.7925">
        <ele>82</ele>
        <time>2025-10-12T13:10:10.518Z</time>
      </trkpt>
      <trkpt lat="44.34308" lon="0.79249">
        <ele>82</ele>
        <time>2025-10-12T13:10:11.518Z</time>
      </trkpt>
      <trkpt lat="44.34307" lon="0.79248">
        <ele>82</ele>
        <time>2025-10-12T13:10:12.518Z</time>
      </trkpt>
      <trkpt lat="44.34306" lon="0.79246">
        <ele>81</ele>
        <time>2025-10-12T13:10:13.518Z</time>
      </trkpt>
      <trkpt lat="44.34305" lon="0.79245">
        <ele>81</ele>
        <time>2025-10-12T13:10:14.518Z</time>
      </trkpt>
      <trkpt lat="44.34304" lon="0.79244">
        <ele>82</ele>
        <time>2025-10-12T13:10:15.518Z</time>
      </trkpt>
      <trkpt lat="44.34303" lon="0.79243">
        <ele>82</ele>
        <time>2025-10-12T13:10:16.518Z</time>
      </trkpt>
      <trkpt lat="44.34302" lon="0.79243">
        <ele>82</ele>
        <time>2025-10-12T13:10:17.518Z</time>
      </trkpt>
      <trkpt lat="44.343" lon="0.79242">
        <ele>82</ele>
        <time>2025-10-12T13:10:18.518Z</time>
      </trkpt>
      <trkpt lat="44.343" lon="0.7924">
        <ele>82</ele>
        <time>2025-10-12T13:10:19.518Z</time>
      </trkpt>
      <trkpt lat="44.34299" lon="0.79239">
        <ele>82</ele>
        <time>2025-10-12T13:10:20.518Z</time>
      </trkpt>
      <trkpt lat="44.34298" lon="0.79238">
        <ele>83</ele>
        <time>2025-10-12T13:10:21.518Z</time>
      </trkpt>
      <trkpt lat="44.34297" lon="0.79236">
        <ele>83</ele>
        <time>2025-10-12T13:10:22.518Z</time>
      </trkpt>
      <trkpt lat="44.34296" lon="0.79235">
        <ele>83</ele>
        <time>2025-10-12T13:10:23.518Z</time>
      </trkpt>
      <trkpt lat="44.34295" lon="0.79234">
        <ele>83</ele>
        <time>2025-10-12T13:10:24.518Z</time>
      </trkpt>
      <trkpt lat="44.34294" lon="0.79233">
        <ele>83</ele>
        <time>2025-10-12T13:10:25.518Z</time>
      </trkpt>
      <trkpt lat="44.34293" lon="0.79232">
        <ele>83</ele>
        <time>2025-10-12T13:10:26.518Z</time>
      </trkpt>
      <trkpt lat="44.34292" lon="0.79231">
        <ele>83</ele>
        <time>2025-10-12T13:10:27.518Z</time>
      </trkpt>
      <trkpt lat="44.34291" lon="0.79229">
        <ele>83</ele>
        <time>2025-10-12T13:10:28.518Z</time>
      </trkpt>
      <trkpt lat="44.34291" lon="0.79228">
        <ele>83</ele>
        <time>2025-10-12T13:10:29.518Z</time>
      </trkpt>
      <trkpt lat="44.3429" lon="0.79227">
        <ele>83</ele>
        <time>2025-10-12T13:10:30.518Z</time>
      </trkpt>
      <trkpt lat="44.34289" lon="0.79225">
        <ele>82</ele>
        <time>2025-10-12T13:10:31.518Z</time>
      </trkpt>
      <trkpt lat="44.34288" lon="0.79224">
        <ele>82</ele>
        <time>2025-10-12T13:10:32.518Z</time>
      </trkpt>
      <trkpt lat="44.34287" lon="0.79223">
        <ele>82</ele>
        <time>2025-10-12T13:10:33.518Z</time>
      </trkpt>
      <trkpt lat="44.34286" lon="0.79222">
        <ele>82</ele>
        <time>2025-10-12T13:10:34.518Z</time>
      </trkpt>
      <trkpt lat="44.34285" lon="0.79221">
        <ele>82</ele>
        <time>2025-10-12T13:10:35.518Z</time>
      </trkpt>
      <trkpt lat="44.34284" lon="0.79219">
        <ele>82</ele>
        <time>2025-10-12T13:10:36.518Z</time>
      </trkpt>
      <trkpt lat="44.34284" lon="0.79218">
        <ele>82</ele>
        <time>2025-10-12T13:10:37.518Z</time>
      </trkpt>
      <trkpt lat="44.34283" lon="0.79216">
        <ele>82</ele>
        <time>2025-10-12T13:10:38.518Z</time>
      </trkpt>
      <trkpt lat="44.34282" lon="0.79215">
        <ele>82</ele>
        <time>2025-10-12T13:10:39.518Z</time>
      </trkpt>
      <trkpt lat="44.34281" lon="0.79214">
        <ele>82</ele>
        <time>2025-10-12T13:10:40.518Z</time>
      </trkpt>
      <trkpt lat="44.3428" lon="0.79213">
        <ele>82</ele>
        <time>2025-10-12T13:10:41.518Z</time>
      </trkpt>
      <trkpt lat="44.34279" lon="0.79212">
        <ele>82</ele>
        <time>2025-10-12T13:10:42.518Z</time>
      </trkpt>
      <trkpt lat="44.34278" lon="0.79211">
        <ele>82</ele>
        <time>2025-10-12T13:10:43.518Z</time>
      </trkpt>
      <trkpt lat="44.34277" lon="0.7921">
        <ele>82</ele>
        <time>2025-10-12T13:10:44.518Z</time>
      </trkpt>
      <trkpt lat="44.34276" lon="0.79209">
        <ele>82</ele>
        <time>2025-10-12T13:10:45.518Z</time>
      </trkpt>
      <trkpt lat="44.34275" lon="0.79208">
        <ele>82</ele>
        <time>2025-10-12T13:10:46.518Z</time>
      </trkpt>
      <trkpt lat="44.34274" lon="0.79207">
        <ele>81</ele>
        <time>2025-10-12T13:10:47.518Z</time>
      </trkpt>
      <trkpt lat="44.34273" lon="0.79205">
        <ele>81</ele>
        <time>2025-10-12T13:10:48.518Z</time>
      </trkpt>
      <trkpt lat="44.34272" lon="0.79204">
        <ele>81</ele>
        <time>2025-10-12T13:10:49.518Z</time>
      </trkpt>
      <trkpt lat="44.34271" lon="0.79203">
        <ele>81</ele>
        <time>2025-10-12T13:10:50.518Z</time>
      </trkpt>
      <trkpt lat="44.3427" lon="0.79202">
        <ele>81</ele>
        <time>2025-10-12T13:10:51.518Z</time>
      </trkpt>
      <trkpt lat="44.34269" lon="0.79201">
        <ele>82</ele>
        <time>2025-10-12T13:10:52.518Z</time>
      </trkpt>
      <trkpt lat="44.34268" lon="0.792">
        <ele>82</ele>
        <time>2025-10-12T13:10:53.518Z</time>
      </trkpt>
      <trkpt lat="44.34267" lon="0.79199">
        <ele>82</ele>
        <time>2025-10-12T13:10:54.518Z</time>
      </trkpt>
      <trkpt lat="44.34267" lon="0.79197">
        <ele>82</ele>
        <time>2025-10-12T13:10:55.518Z</time>
      </trkpt>
      <trkpt lat="44.34266" lon="0.79196">
        <ele>82</ele>
        <time>2025-10-12T13:10:56.518Z</time>
      </trkpt>
      <trkpt lat="44.34265" lon="0.79195">
        <ele>82</ele>
        <time>2025-10-12T13:10:57.518Z</time>
      </trkpt>
      <trkpt lat="44.34264" lon="0.79194">
        <ele>82</ele>
        <time>2025-10-12T13:10:58.518Z</time>
      </trkpt>
      <trkpt lat="44.34263" lon="0.79192">
        <ele>82</ele>
        <time>2025-10-12T13:10:59.518Z</time>
      </trkpt>
      <trkpt lat="44.34262" lon="0.79191">
        <ele>81</ele>
        <time>2025-10-12T13:11:00.518Z</time>
      </trkpt>
      <trkpt lat="44.34261" lon="0.7919">
        <ele>81</ele>
        <time>2025-10-12T13:11:01.518Z</time>
      </trkpt>
      <trkpt lat="44.3426" lon="0.79189">
        <ele>81</ele>
        <time>2025-10-12T13:11:02.518Z</time>
      </trkpt>
      <trkpt lat="44.34259" lon="0.79189">
        <ele>81</ele>
        <time>2025-10-12T13:11:03.518Z</time>
      </trkpt>
      <trkpt lat="44.34258" lon="0.79188">
        <ele>82</ele>
        <time>2025-10-12T13:11:04.518Z</time>
      </trkpt>
      <trkpt lat="44.34257" lon="0.79186">
        <ele>82</ele>
        <time>2025-10-12T13:11:05.518Z</time>
      </trkpt>
      <trkpt lat="44.34256" lon="0.79185">
        <ele>82</ele>
        <time>2025-10-12T13:11:06.518Z</time>
      </trkpt>
      <trkpt lat="44.34255" lon="0.79183">
        <ele>82</ele>
        <time>2025-10-12T13:11:07.518Z</time>
      </trkpt>
      <trkpt lat="44.34254" lon="0.79182">
        <ele>82</ele>
        <time>2025-10-12T13:11:08.518Z</time>
      </trkpt>
      <trkpt lat="44.34253" lon="0.7918">
        <ele>82</ele>
        <time>2025-10-12T13:11:09.518Z</time>
      </trkpt>
      <trkpt lat="44.34252" lon="0.79179">
        <ele>82</ele>
        <time>2025-10-12T13:11:10.518Z</time>
      </trkpt>
      <trkpt lat="44.34251" lon="0.79178">
        <ele>83</ele>
        <time>2025-10-12T13:11:11.518Z</time>
      </trkpt>
      <trkpt lat="44.3425" lon="0.79177">
        <ele>83</ele>
        <time>2025-10-12T13:11:12.518Z</time>
      </trkpt>
      <trkpt lat="44.34249" lon="0.79176">
        <ele>83</ele>
        <time>2025-10-12T13:11:13.518Z</time>
      </trkpt>
      <trkpt lat="44.34248" lon="0.79175">
        <ele>82</ele>
        <time>2025-10-12T13:11:14.518Z</time>
      </trkpt>
      <trkpt lat="44.34248" lon="0.79173">
        <ele>82</ele>
        <time>2025-10-12T13:11:15.518Z</time>
      </trkpt>
      <trkpt lat="44.34247" lon="0.79172">
        <ele>82</ele>
        <time>2025-10-12T13:11:16.518Z</time>
      </trkpt>
      <trkpt lat="44.34246" lon="0.79171">
        <ele>81</ele>
        <time>2025-10-12T13:11:17.518Z</time>
      </trkpt>
      <trkpt lat="44.34245" lon="0.7917">
        <ele>81</ele>
        <time>2025-10-12T13:11:18.518Z</time>
      </trkpt>
      <trkpt lat="44.34244" lon="0.79169">
        <ele>81</ele>
        <time>2025-10-12T13:11:19.518Z</time>
      </trkpt>
      <trkpt lat="44.34243" lon="0.79168">
        <ele>81</ele>
        <time>2025-10-12T13:11:20.518Z</time>
      </trkpt>
      <trkpt lat="44.34242" lon="0.79167">
        <ele>81</ele>
        <time>2025-10-12T13:11:21.518Z</time>
      </trkpt>
      <trkpt lat="44.34241" lon="0.79166">
        <ele>81</ele>
        <time>2025-10-12T13:11:22.518Z</time>
      </trkpt>
      <trkpt lat="44.34241" lon="0.79164">
        <ele>81</ele>
        <time>2025-10-12T13:11:23.518Z</time>
      </trkpt>
      <trkpt lat="44.3424" lon="0.79163">
        <ele>81</ele>
        <time>2025-10-12T13:11:24.518Z</time>
      </trkpt>
      <trkpt lat="44.34239" lon="0.79161">
        <ele>81</ele>
        <time>2025-10-12T13:11:25.518Z</time>
      </trkpt>
      <trkpt lat="44.34239" lon="0.7916">
        <ele>82</ele>
        <time>2025-10-12T13:11:26.518Z</time>
      </trkpt>
      <trkpt lat="44.34238" lon="0.79159">
        <ele>82</ele>
        <time>2025-10-12T13:11:27.518Z</time>
      </trkpt>
      <trkpt lat="44.34238" lon="0.79157">
        <ele>82</ele>
        <time>2025-10-12T13:11:28.518Z</time>
      </trkpt>
      <trkpt lat="44.34239" lon="0.79156">
        <ele>83</ele>
        <time>2025-10-12T13:11:29.518Z</time>
      </trkpt>
      <trkpt lat="44.34239" lon="0.79154">
        <ele>83</ele>
        <time>2025-10-12T13:11:30.518Z</time>
      </trkpt>
      <trkpt lat="44.3424" lon="0.79153">
        <ele>83</ele>
        <time>2025-10-12T13:11:31.518Z</time>
      </trkpt>
      <trkpt lat="44.3424" lon="0.79152">
        <ele>83</ele>
        <time>2025-10-12T13:11:32.518Z</time>
      </trkpt>
      <trkpt lat="44.3424" lon="0.79151">
        <ele>83</ele>
        <time>2025-10-12T13:11:33.518Z</time>
      </trkpt>
      <trkpt lat="44.34241" lon="0.79149">
        <ele>83</ele>
        <time>2025-10-12T13:11:34.518Z</time>
      </trkpt>
      <trkpt lat="44.34241" lon="0.79148">
        <ele>84</ele>
        <time>2025-10-12T13:11:35.518Z</time>
      </trkpt>
      <trkpt lat="44.34241" lon="0.79147">
        <ele>84</ele>
        <time>2025-10-12T13:11:36.518Z</time>
      </trkpt>
      <trkpt lat="44.34241" lon="0.79147">
        <ele>84</ele>
        <time>2025-10-12T13:11:37.518Z</time>
      </trkpt>
      <trkpt lat="44.34241" lon="0.79146">
        <ele>83</ele>
        <time>2025-10-12T13:11:38.518Z</time>
      </trkpt>
      <trkpt lat="44.34241" lon="0.79146">
        <ele>83</ele>
        <time>2025-10-12T13:11:39.518Z</time>
      </trkpt>
      <trkpt lat="44.34241" lon="0.79146">
        <ele>83</ele>
        <time>2025-10-12T13:11:40.518Z</time>
      </trkpt>
      <trkpt lat="44.34241" lon="0.79146">
        <ele>82</ele>
        <time>2025-10-12T13:11:41.518Z</time>
      </trkpt>
      <trkpt lat="44.34241" lon="0.79146">
        <ele>82</ele>
        <time>2025-10-12T13:11:42.518Z</time>
      </trkpt>
      <trkpt lat="44.34241" lon="0.79146">
        <ele>81</ele>
        <time>2025-10-12T13:11:43.518Z</time>
      </trkpt>
      <trkpt lat="44.34241" lon="0.79146">
        <ele>81</ele>
        <time>2025-10-12T13:11:44.518Z</time>
      </trkpt>
      <trkpt lat="44.34241" lon="0.79146">
        <ele>81</ele>
        <time>2025-10-12T13:11:45.518Z</time>
      </trkpt>
      <trkpt lat="44.34241" lon="0.79146">
        <ele>81</ele>
        <time>2025-10-12T13:11:46.518Z</time>
      </trkpt>
      <trkpt lat="44.34241" lon="0.79146">
        <ele>81</ele>
        <time>2025-10-12T13:11:47.518Z</time>
      </trkpt>
      <trkpt lat="44.34241" lon="0.79146">
        <ele>81</ele>
        <time>2025-10-12T13:11:48.518Z</time>
      </trkpt>
      <trkpt lat="44.34241" lon="0.79146">
        <ele>81</ele>
        <time>2025-10-12T13:11:49.518Z</time>
      </trkpt>
      <trkpt lat="44.34241" lon="0.79146">
        <ele>81</ele>
        <time>2025-10-12T13:11:50.518Z</time>
      </trkpt>
      <trkpt lat="44.34241" lon="0.79146">
        <ele>81</ele>
        <time>2025-10-12T13:11:51.518Z</time>
      </trkpt>
      <trkpt lat="44.34241" lon="0.79146">
        <ele>81</ele>
        <time>2025-10-12T13:11:52.518Z</time>
      </trkpt>
      <trkpt lat="44.34241" lon="0.79146">
        <ele>81</ele>
        <time>2025-10-12T13:11:53.518Z</time>
      </trkpt>
      <trkpt lat="44.34241" lon="0.79146">
        <ele>80</ele>
        <time>2025-10-12T13:11:54.518Z</time>
      </trkpt>
      <trkpt lat="44.34241" lon="0.79146">
        <ele>81</ele>
        <time>2025-10-12T13:11:55.518Z</time>
      </trkpt>
      <trkpt lat="44.34241" lon="0.79146">
        <ele>81</ele>
        <time>2025-10-12T13:11:56.518Z</time>
      </trkpt>
      <trkpt lat="44.34241" lon="0.79146">
        <ele>81</ele>
        <time>2025-10-12T13:11:57.518Z</time>
      </trkpt>
      <trkpt lat="44.34241" lon="0.79146">
        <ele>81</ele>
        <time>2025-10-12T13:11:58.518Z</time>
      </trkpt>
      <trkpt lat="44.34241" lon="0.79146">
        <ele>82</ele>
        <time>2025-10-12T13:11:59.518Z</time>
      </trkpt>
      <trkpt lat="44.34241" lon="0.79146">
        <ele>82</ele>
        <time>2025-10-12T13:12:00.518Z</time>
      </trkpt>
      <trkpt lat="44.34241" lon="0.79146">
        <ele>82</ele>
        <time>2025-10-12T13:12:01.518Z</time>
      </trkpt>
      <trkpt lat="44.34241" lon="0.79146">
        <ele>83</ele>
        <time>2025-10-12T13:12:02.518Z</time>
      </trkpt>
      <trkpt lat="44.34241" lon="0.79146">
        <ele>83</ele>
        <time>2025-10-12T13:12:03.518Z</time>
      </trkpt>
      <trkpt lat="44.34241" lon="0.79146">
        <ele>83</ele>
        <time>2025-10-12T13:12:04.518Z</time>
      </trkpt>
      <trkpt lat="44.34241" lon="0.79146">
        <ele>83</ele>
        <time>2025-10-12T13:12:05.518Z</time>
      </trkpt>
      <trkpt lat="44.34241" lon="0.79145">
        <ele>83</ele>
        <time>2025-10-12T13:12:06.518Z</time>
      </trkpt>
      <trkpt lat="44.34242" lon="0.79145">
        <ele>83</ele>
        <time>2025-10-12T13:12:07.518Z</time>
      </trkpt>
      <trkpt lat="44.34242" lon="0.79145">
        <ele>83</ele>
        <time>2025-10-12T13:12:08.518Z</time>
      </trkpt>
      <trkpt lat="44.34243" lon="0.79145">
        <ele>83</ele>
        <time>2025-10-12T13:12:09.518Z</time>
      </trkpt>
      <trkpt lat="44.34244" lon="0.79144">
        <ele>83</ele>
        <time>2025-10-12T13:12:10.518Z</time>
      </trkpt>
      <trkpt lat="44.34246" lon="0.79144">
        <ele>83</ele>
        <time>2025-10-12T13:12:11.518Z</time>
      </trkpt>
      <trkpt lat="44.34247" lon="0.79143">
        <ele>84</ele>
        <time>2025-10-12T13:12:12.518Z</time>
      </trkpt>
      <trkpt lat="44.34248" lon="0.79143">
        <ele>84</ele>
        <time>2025-10-12T13:12:13.518Z</time>
      </trkpt>
      <trkpt lat="44.34249" lon="0.79143">
        <ele>84</ele>
        <time>2025-10-12T13:12:14.518Z</time>
      </trkpt>
      <trkpt lat="44.3425" lon="0.79142">
        <ele>85</ele>
        <time>2025-10-12T13:12:15.518Z</time>
      </trkpt>
      <trkpt lat="44.34252" lon="0.79141">
        <ele>85</ele>
        <time>2025-10-12T13:12:16.518Z</time>
      </trkpt>
      <trkpt lat="44.34253" lon="0.79141">
        <ele>85</ele>
        <time>2025-10-12T13:12:17.518Z</time>
      </trkpt>
      <trkpt lat="44.34254" lon="0.79141">
        <ele>85</ele>
        <time>2025-10-12T13:12:18.518Z</time>
      </trkpt>
      <trkpt lat="44.34255" lon="0.7914">
        <ele>85</ele>
        <time>2025-10-12T13:12:19.518Z</time>
      </trkpt>
      <trkpt lat="44.34257" lon="0.79139">
        <ele>85</ele>
        <time>2025-10-12T13:12:20.518Z</time>
      </trkpt>
      <trkpt lat="44.34258" lon="0.79139">
        <ele>85</ele>
        <time>2025-10-12T13:12:21.518Z</time>
      </trkpt>
      <trkpt lat="44.34259" lon="0.79138">
        <ele>85</ele>
        <time>2025-10-12T13:12:22.518Z</time>
      </trkpt>
      <trkpt lat="44.3426" lon="0.79138">
        <ele>86</ele>
        <time>2025-10-12T13:12:23.518Z</time>
      </trkpt>
      <trkpt lat="44.34262" lon="0.79137">
        <ele>86</ele>
        <time>2025-10-12T13:12:24.518Z</time>
      </trkpt>
      <trkpt lat="44.34263" lon="0.79137">
        <ele>86</ele>
        <time>2025-10-12T13:12:25.518Z</time>
      </trkpt>
      <trkpt lat="44.34264" lon="0.79136">
        <ele>86</ele>
        <time>2025-10-12T13:12:26.518Z</time>
      </trkpt>
      <trkpt lat="44.34265" lon="0.79136">
        <ele>86</ele>
        <time>2025-10-12T13:12:27.518Z</time>
      </trkpt>
      <trkpt lat="44.34266" lon="0.79135">
        <ele>87</ele>
        <time>2025-10-12T13:12:28.518Z</time>
      </trkpt>
      <trkpt lat="44.34268" lon="0.79135">
        <ele>87</ele>
        <time>2025-10-12T13:12:29.518Z</time>
      </trkpt>
      <trkpt lat="44.34269" lon="0.79134">
        <ele>87</ele>
        <time>2025-10-12T13:12:30.518Z</time>
      </trkpt>
      <trkpt lat="44.3427" lon="0.79134">
        <ele>87</ele>
        <time>2025-10-12T13:12:31.518Z</time>
      </trkpt>
      <trkpt lat="44.34272" lon="0.79133">
        <ele>87</ele>
        <time>2025-10-12T13:12:32.518Z</time>
      </trkpt>
      <trkpt lat="44.34273" lon="0.79133">
        <ele>87</ele>
        <time>2025-10-12T13:12:33.518Z</time>
      </trkpt>
      <trkpt lat="44.34274" lon="0.79133">
        <ele>87</ele>
        <time>2025-10-12T13:12:34.518Z</time>
      </trkpt>
      <trkpt lat="44.34275" lon="0.79132">
        <ele>88</ele>
        <time>2025-10-12T13:12:35.518Z</time>
      </trkpt>
      <trkpt lat="44.34276" lon="0.79132">
        <ele>88</ele>
        <time>2025-10-12T13:12:36.518Z</time>
      </trkpt>
      <trkpt lat="44.34277" lon="0.79131">
        <ele>88</ele>
        <time>2025-10-12T13:12:37.518Z</time>
      </trkpt>
      <trkpt lat="44.34278" lon="0.7913">
        <ele>88</ele>
        <time>2025-10-12T13:12:38.518Z</time>
      </trkpt>
      <trkpt lat="44.34279" lon="0.79129">
        <ele>88</ele>
        <time>2025-10-12T13:12:39.518Z</time>
      </trkpt>
      <trkpt lat="44.34281" lon="0.79129">
        <ele>88</ele>
        <time>2025-10-12T13:12:40.518Z</time>
      </trkpt>
      <trkpt lat="44.34282" lon="0.79128">
        <ele>88</ele>
        <time>2025-10-12T13:12:41.518Z</time>
      </trkpt>
      <trkpt lat="44.34283" lon="0.79127">
        <ele>88</ele>
        <time>2025-10-12T13:12:42.518Z</time>
      </trkpt>
      <trkpt lat="44.34284" lon="0.79126">
        <ele>88</ele>
        <time>2025-10-12T13:12:43.518Z</time>
      </trkpt>
      <trkpt lat="44.34285" lon="0.79125">
        <ele>88</ele>
        <time>2025-10-12T13:12:44.518Z</time>
      </trkpt>
      <trkpt lat="44.34286" lon="0.79124">
        <ele>88</ele>
        <time>2025-10-12T13:12:45.518Z</time>
      </trkpt>
      <trkpt lat="44.34287" lon="0.79124">
        <ele>88</ele>
        <time>2025-10-12T13:12:46.518Z</time>
      </trkpt>
      <trkpt lat="44.34288" lon="0.79123">
        <ele>88</ele>
        <time>2025-10-12T13:12:47.518Z</time>
      </trkpt>
      <trkpt lat="44.34289" lon="0.79122">
        <ele>88</ele>
        <time>2025-10-12T13:12:48.518Z</time>
      </trkpt>
      <trkpt lat="44.34291" lon="0.79121">
        <ele>88</ele>
        <time>2025-10-12T13:12:49.518Z</time>
      </trkpt>
      <trkpt lat="44.34292" lon="0.7912">
        <ele>88</ele>
        <time>2025-10-12T13:12:50.518Z</time>
      </trkpt>
      <trkpt lat="44.34293" lon="0.79119">
        <ele>88</ele>
        <time>2025-10-12T13:12:51.518Z</time>
      </trkpt>
      <trkpt lat="44.34294" lon="0.79117">
        <ele>88</ele>
        <time>2025-10-12T13:12:52.518Z</time>
      </trkpt>
      <trkpt lat="44.34295" lon="0.79116">
        <ele>88</ele>
        <time>2025-10-12T13:12:53.518Z</time>
      </trkpt>
      <trkpt lat="44.34296" lon="0.79115">
        <ele>88</ele>
        <time>2025-10-12T13:12:54.518Z</time>
      </trkpt>
      <trkpt lat="44.34296" lon="0.79114">
        <ele>88</ele>
        <time>2025-10-12T13:12:55.518Z</time>
      </trkpt>
      <trkpt lat="44.34297" lon="0.79113">
        <ele>89</ele>
        <time>2025-10-12T13:12:56.518Z</time>
      </trkpt>
      <trkpt lat="44.34298" lon="0.79112">
        <ele>89</ele>
        <time>2025-10-12T13:12:57.518Z</time>
      </trkpt>
      <trkpt lat="44.34298" lon="0.79111">
        <ele>89</ele>
        <time>2025-10-12T13:12:58.518Z</time>
      </trkpt>
      <trkpt lat="44.34299" lon="0.7911">
        <ele>90</ele>
        <time>2025-10-12T13:12:59.518Z</time>
      </trkpt>
      <trkpt lat="44.34299" lon="0.79109">
        <ele>90</ele>
        <time>2025-10-12T13:13:00.518Z</time>
      </trkpt>
      <trkpt lat="44.34299" lon="0.79108">
        <ele>91</ele>
        <time>2025-10-12T13:13:01.518Z</time>
      </trkpt>
      <trkpt lat="44.34299" lon="0.79108">
        <ele>91</ele>
        <time>2025-10-12T13:13:02.518Z</time>
      </trkpt>
      <trkpt lat="44.343" lon="0.79108">
        <ele>91</ele>
        <time>2025-10-12T13:13:03.518Z</time>
      </trkpt>
      <trkpt lat="44.343" lon="0.79108">
        <ele>91</ele>
        <time>2025-10-12T13:13:04.518Z</time>
      </trkpt>
      <trkpt lat="44.343" lon="0.79108">
        <ele>91</ele>
        <time>2025-10-12T13:13:05.518Z</time>
      </trkpt>
      <trkpt lat="44.343" lon="0.79108">
        <ele>90</ele>
        <time>2025-10-12T13:13:06.518Z</time>
      </trkpt>
      <trkpt lat="44.34299" lon="0.79107">
        <ele>90</ele>
        <time>2025-10-12T13:13:07.518Z</time>
      </trkpt>
      <trkpt lat="44.34299" lon="0.79107">
        <ele>90</ele>
        <time>2025-10-12T13:13:08.518Z</time>
      </trkpt>
      <trkpt lat="44.34299" lon="0.79106">
        <ele>89</ele>
        <time>2025-10-12T13:13:09.518Z</time>
      </trkpt>
      <trkpt lat="44.343" lon="0.79106">
        <ele>90</ele>
        <time>2025-10-12T13:13:10.518Z</time>
      </trkpt>
      <trkpt lat="44.343" lon="0.79106">
        <ele>90</ele>
        <time>2025-10-12T13:13:11.518Z</time>
      </trkpt>
      <trkpt lat="44.34299" lon="0.79105">
        <ele>91</ele>
        <time>2025-10-12T13:13:12.518Z</time>
      </trkpt>
      <trkpt lat="44.34299" lon="0.79105">
        <ele>91</ele>
        <time>2025-10-12T13:13:13.518Z</time>
      </trkpt>
      <trkpt lat="44.34299" lon="0.79105">
        <ele>91</ele>
        <time>2025-10-12T13:13:14.518Z</time>
      </trkpt>
      <trkpt lat="44.34299" lon="0.79105">
        <ele>91</ele>
        <time>2025-10-12T13:13:15.518Z</time>
      </trkpt>
      <trkpt lat="44.34299" lon="0.79105">
        <ele>91</ele>
        <time>2025-10-12T13:13:16.518Z</time>
      </trkpt>
      <trkpt lat="44.34299" lon="0.79105">
        <ele>90</ele>
        <time>2025-10-12T13:13:17.518Z</time>
      </trkpt>
      <trkpt lat="44.34299" lon="0.79105">
        <ele>90</ele>
        <time>2025-10-12T13:13:18.518Z</time>
      </trkpt>
      <trkpt lat="44.343" lon="0.79105">
        <ele>90</ele>
        <time>2025-10-12T13:13:19.518Z</time>
      </trkpt>
      <trkpt lat="44.343" lon="0.79106">
        <ele>90</ele>
        <time>2025-10-12T13:13:20.518Z</time>
      </trkpt>
      <trkpt lat="44.34301" lon="0.79106">
        <ele>90</ele>
        <time>2025-10-12T13:13:21.518Z</time>
      </trkpt>
      <trkpt lat="44.34301" lon="0.79106">
        <ele>90</ele>
        <time>2025-10-12T13:13:22.518Z</time>
      </trkpt>
      <trkpt lat="44.34301" lon="0.79106">
        <ele>89</ele>
        <time>2025-10-12T13:13:23.518Z</time>
      </trkpt>
      <trkpt lat="44.34301" lon="0.79106">
        <ele>89</ele>
        <time>2025-10-12T13:13:24.518Z</time>
      </trkpt>
      <trkpt lat="44.34301" lon="0.79106">
        <ele>89</ele>
        <time>2025-10-12T13:13:25.518Z</time>
      </trkpt>
      <trkpt lat="44.34301" lon="0.79106">
        <ele>89</ele>
        <time>2025-10-12T13:13:26.518Z</time>
      </trkpt>
      <trkpt lat="44.34301" lon="0.79106">
        <ele>88</ele>
        <time>2025-10-12T13:13:27.518Z</time>
      </trkpt>
      <trkpt lat="44.34302" lon="0.79106">
        <ele>89</ele>
        <time>2025-10-12T13:13:28.518Z</time>
      </trkpt>
      <trkpt lat="44.34302" lon="0.79106">
        <ele>89</ele>
        <time>2025-10-12T13:13:29.518Z</time>
      </trkpt>
      <trkpt lat="44.34302" lon="0.79106">
        <ele>89</ele>
        <time>2025-10-12T13:13:30.518Z</time>
      </trkpt>
      <trkpt lat="44.34302" lon="0.79106">
        <ele>90</ele>
        <time>2025-10-12T13:13:31.518Z</time>
      </trkpt>
      <trkpt lat="44.34302" lon="0.79106">
        <ele>90</ele>
        <time>2025-10-12T13:13:32.518Z</time>
      </trkpt>
      <trkpt lat="44.34302" lon="0.79106">
        <ele>91</ele>
        <time>2025-10-12T13:13:33.518Z</time>
      </trkpt>
      <trkpt lat="44.34302" lon="0.79106">
        <ele>91</ele>
        <time>2025-10-12T13:13:34.518Z</time>
      </trkpt>
      <trkpt lat="44.34302" lon="0.79106">
        <ele>92</ele>
        <time>2025-10-12T13:13:35.518Z</time>
      </trkpt>
      <trkpt lat="44.34302" lon="0.79106">
        <ele>92</ele>
        <time>2025-10-12T13:13:36.518Z</time>
      </trkpt>
      <trkpt lat="44.34302" lon="0.79106">
        <ele>92</ele>
        <time>2025-10-12T13:13:37.518Z</time>
      </trkpt>
      <trkpt lat="44.34302" lon="0.79106">
        <ele>92</ele>
        <time>2025-10-12T13:13:38.518Z</time>
      </trkpt>
      <trkpt lat="44.34301" lon="0.79106">
        <ele>91</ele>
        <time>2025-10-12T13:13:39.518Z</time>
      </trkpt>
      <trkpt lat="44.34301" lon="0.79106">
        <ele>91</ele>
        <time>2025-10-12T13:13:40.518Z</time>
      </trkpt>
      <trkpt lat="44.34301" lon="0.79106">
        <ele>91</ele>
        <time>2025-10-12T13:13:41.518Z</time>
      </trkpt>
      <trkpt lat="44.34301" lon="0.79106">
        <ele>90</ele>
        <time>2025-10-12T13:13:42.518Z</time>
      </trkpt>
      <trkpt lat="44.34301" lon="0.79106">
        <ele>90</ele>
        <time>2025-10-12T13:13:43.518Z</time>
      </trkpt>
      <trkpt lat="44.34301" lon="0.79106">
        <ele>90</ele>
        <time>2025-10-12T13:13:44.518Z</time>
      </trkpt>
      <trkpt lat="44.34301" lon="0.79106">
        <ele>89</ele>
        <time>2025-10-12T13:13:45.518Z</time>
      </trkpt>
      <trkpt lat="44.34301" lon="0.79106">
        <ele>89</ele>
        <time>2025-10-12T13:13:46.518Z</time>
      </trkpt>
      <trkpt lat="44.34301" lon="0.79106">
        <ele>88</ele>
        <time>2025-10-12T13:13:47.518Z</time>
      </trkpt>
      <trkpt lat="44.34301" lon="0.79106">
        <ele>88</ele>
        <time>2025-10-12T13:13:48.518Z</time>
      </trkpt>
      <trkpt lat="44.34301" lon="0.79106">
        <ele>87</ele>
        <time>2025-10-12T13:13:49.518Z</time>
      </trkpt>
      <trkpt lat="44.34301" lon="0.79106">
        <ele>87</ele>
        <time>2025-10-12T13:13:50.518Z</time>
      </trkpt>
      <trkpt lat="44.34301" lon="0.79106">
        <ele>87</ele>
        <time>2025-10-12T13:13:51.518Z</time>
      </trkpt>
      <trkpt lat="44.34301" lon="0.79106">
        <ele>87</ele>
        <time>2025-10-12T13:13:52.518Z</time>
      </trkpt>
      <trkpt lat="44.34301" lon="0.79106">
        <ele>86</ele>
        <time>2025-10-12T13:13:53.518Z</time>
      </trkpt>
      <trkpt lat="44.34301" lon="0.79106">
        <ele>85</ele>
        <time>2025-10-12T13:13:54.518Z</time>
      </trkpt>
      <trkpt lat="44.34301" lon="0.79106">
        <ele>84</ele>
        <time>2025-10-12T13:13:55.518Z</time>
      </trkpt>
      <trkpt lat="44.34301" lon="0.79106">
        <ele>84</ele>
        <time>2025-10-12T13:13:56.518Z</time>
      </trkpt>
      <trkpt lat="44.34301" lon="0.79106">
        <ele>84</ele>
        <time>2025-10-12T13:13:57.518Z</time>
      </trkpt>
      <trkpt lat="44.34301" lon="0.79106">
        <ele>83</ele>
        <time>2025-10-12T13:13:58.518Z</time>
      </trkpt>
      <trkpt lat="44.34301" lon="0.79106">
        <ele>83</ele>
        <time>2025-10-12T13:13:59.518Z</time>
      </trkpt>
      <trkpt lat="44.34301" lon="0.79106">
        <ele>83</ele>
        <time>2025-10-12T13:14:00.518Z</time>
      </trkpt>
      <trkpt lat="44.34301" lon="0.79106">
        <ele>82</ele>
        <time>2025-10-12T13:14:01.518Z</time>
      </trkpt>
      <trkpt lat="44.34301" lon="0.79106">
        <ele>82</ele>
        <time>2025-10-12T13:14:02.518Z</time>
      </trkpt>
      <trkpt lat="44.34301" lon="0.79107">
        <ele>82</ele>
        <time>2025-10-12T13:14:03.518Z</time>
      </trkpt>
      <trkpt lat="44.34301" lon="0.79106">
        <ele>81</ele>
        <time>2025-10-12T13:14:04.518Z</time>
      </trkpt>
      <trkpt lat="44.34301" lon="0.79106">
        <ele>81</ele>
        <time>2025-10-12T13:14:05.518Z</time>
      </trkpt>
      <trkpt lat="44.34301" lon="0.79106">
        <ele>81</ele>
        <time>2025-10-12T13:14:06.518Z</time>
      </trkpt>
      <trkpt lat="44.34301" lon="0.79106">
        <ele>82</ele>
        <time>2025-10-12T13:14:07.518Z</time>
      </trkpt>
      <trkpt lat="44.34301" lon="0.79106">
        <ele>82</ele>
        <time>2025-10-12T13:14:08.518Z</time>
      </trkpt>
      <trkpt lat="44.34301" lon="0.79106">
        <ele>82</ele>
        <time>2025-10-12T13:14:09.518Z</time>
      </trkpt>
      <trkpt lat="44.34301" lon="0.79106">
        <ele>82</ele>
        <time>2025-10-12T13:14:10.518Z</time>
      </trkpt>
      <trkpt lat="44.34301" lon="0.79106">
        <ele>83</ele>
        <time>2025-10-12T13:14:11.518Z</time>
      </trkpt>
      <trkpt lat="44.34301" lon="0.79106">
        <ele>83</ele>
        <time>2025-10-12T13:14:12.518Z</time>
      </trkpt>
      <trkpt lat="44.34301" lon="0.79106">
        <ele>83</ele>
        <time>2025-10-12T13:14:13.518Z</time>
      </trkpt>
      <trkpt lat="44.34301" lon="0.79106">
        <ele>84</ele>
        <time>2025-10-12T13:14:14.518Z</time>
      </trkpt>
      <trkpt lat="44.34301" lon="0.79106">
        <ele>84</ele>
        <time>2025-10-12T13:14:15.518Z</time>
      </trkpt>
      <trkpt lat="44.34301" lon="0.79106">
        <ele>85</ele>
        <time>2025-10-12T13:14:16.518Z</time>
      </trkpt>
      <trkpt lat="44.34301" lon="0.79106">
        <ele>85</ele>
        <time>2025-10-12T13:14:17.518Z</time>
      </trkpt>
      <trkpt lat="44.34301" lon="0.79106">
        <ele>85</ele>
        <time>2025-10-12T13:14:18.518Z</time>
      </trkpt>
      <trkpt lat="44.34301" lon="0.79106">
        <ele>85</ele>
        <time>2025-10-12T13:14:19.518Z</time>
      </trkpt>
      <trkpt lat="44.34301" lon="0.79106">
        <ele>86</ele>
        <time>2025-10-12T13:14:20.518Z</time>
      </trkpt>
      <trkpt lat="44.34301" lon="0.79106">
        <ele>86</ele>
        <time>2025-10-12T13:14:21.518Z</time>
      </trkpt>
      <trkpt lat="44.34301" lon="0.79106">
        <ele>86</ele>
        <time>2025-10-12T13:14:22.518Z</time>
      </trkpt>
      <trkpt lat="44.34301" lon="0.79106">
        <ele>86</ele>
        <time>2025-10-12T13:14:23.518Z</time>
      </trkpt>
      <trkpt lat="44.34301" lon="0.79106">
        <ele>86</ele>
        <time>2025-10-12T13:14:24.518Z</time>
      </trkpt>
      <trkpt lat="44.34301" lon="0.79105">
        <ele>86</ele>
        <time>2025-10-12T13:14:25.518Z</time>
      </trkpt>
      <trkpt lat="44.34301" lon="0.79104">
        <ele>86</ele>
        <time>2025-10-12T13:14:26.518Z</time>
      </trkpt>
      <trkpt lat="44.34301" lon="0.79102">
        <ele>86</ele>
        <time>2025-10-12T13:14:27.518Z</time>
      </trkpt>
      <trkpt lat="44.34301" lon="0.791">
        <ele>87</ele>
        <time>2025-10-12T13:14:28.518Z</time>
      </trkpt>
      <trkpt lat="44.34301" lon="0.79099">
        <ele>87</ele>
        <time>2025-10-12T13:14:29.518Z</time>
      </trkpt>
      <trkpt lat="44.34301" lon="0.79097">
        <ele>87</ele>
        <time>2025-10-12T13:14:30.518Z</time>
      </trkpt>
      <trkpt lat="44.34301" lon="0.79095">
        <ele>87</ele>
        <time>2025-10-12T13:14:31.518Z</time>
      </trkpt>
      <trkpt lat="44.34301" lon="0.79094">
        <ele>87</ele>
        <time>2025-10-12T13:14:32.518Z</time>
      </trkpt>
      <trkpt lat="44.34302" lon="0.79092">
        <ele>87</ele>
        <time>2025-10-12T13:14:33.518Z</time>
      </trkpt>
      <trkpt lat="44.34302" lon="0.79091">
        <ele>87</ele>
        <time>2025-10-12T13:14:34.518Z</time>
      </trkpt>
      <trkpt lat="44.34302" lon="0.79089">
        <ele>87</ele>
        <time>2025-10-12T13:14:35.518Z</time>
      </trkpt>
      <trkpt lat="44.34302" lon="0.79087">
        <ele>88</ele>
        <time>2025-10-12T13:14:36.518Z</time>
      </trkpt>
      <trkpt lat="44.34303" lon="0.79085">
        <ele>88</ele>
        <time>2025-10-12T13:14:37.518Z</time>
      </trkpt>
      <trkpt lat="44.34303" lon="0.79083">
        <ele>88</ele>
        <time>2025-10-12T13:14:38.518Z</time>
      </trkpt>
      <trkpt lat="44.34303" lon="0.79082">
        <ele>89</ele>
        <time>2025-10-12T13:14:39.518Z</time>
      </trkpt>
      <trkpt lat="44.34303" lon="0.7908">
        <ele>89</ele>
        <time>2025-10-12T13:14:40.518Z</time>
      </trkpt>
      <trkpt lat="44.34304" lon="0.79079">
        <ele>89</ele>
        <time>2025-10-12T13:14:41.518Z</time>
      </trkpt>
      <trkpt lat="44.34304" lon="0.79077">
        <ele>89</ele>
        <time>2025-10-12T13:14:42.518Z</time>
      </trkpt>
      <trkpt lat="44.34304" lon="0.79075">
        <ele>89</ele>
        <time>2025-10-12T13:14:43.518Z</time>
      </trkpt>
      <trkpt lat="44.34304" lon="0.79074">
        <ele>89</ele>
        <time>2025-10-12T13:14:44.518Z</time>
      </trkpt>
      <trkpt lat="44.34305" lon="0.79072">
        <ele>89</ele>
        <time>2025-10-12T13:14:45.518Z</time>
      </trkpt>
      <trkpt lat="44.34306" lon="0.79071">
        <ele>89</ele>
        <time>2025-10-12T13:14:46.518Z</time>
      </trkpt>
      <trkpt lat="44.34306" lon="0.79069">
        <ele>89</ele>
        <time>2025-10-12T13:14:47.518Z</time>
      </trkpt>
      <trkpt lat="44.34306" lon="0.79068">
        <ele>89</ele>
        <time>2025-10-12T13:14:48.518Z</time>
      </trkpt>
      <trkpt lat="44.34307" lon="0.79066">
        <ele>89</ele>
        <time>2025-10-12T13:14:49.518Z</time>
      </trkpt>
      <trkpt lat="44.34307" lon="0.79065">
        <ele>89</ele>
        <time>2025-10-12T13:14:50.518Z</time>
      </trkpt>
      <trkpt lat="44.34308" lon="0.79064">
        <ele>90</ele>
        <time>2025-10-12T13:14:51.518Z</time>
      </trkpt>
      <trkpt lat="44.34308" lon="0.79062">
        <ele>90</ele>
        <time>2025-10-12T13:14:52.518Z</time>
      </trkpt>
      <trkpt lat="44.34309" lon="0.79061">
        <ele>90</ele>
        <time>2025-10-12T13:14:53.518Z</time>
      </trkpt>
      <trkpt lat="44.3431" lon="0.7906">
        <ele>90</ele>
        <time>2025-10-12T13:14:54.518Z</time>
      </trkpt>
      <trkpt lat="44.3431" lon="0.79059">
        <ele>90</ele>
        <time>2025-10-12T13:14:55.518Z</time>
      </trkpt>
      <trkpt lat="44.34311" lon="0.79058">
        <ele>90</ele>
        <time>2025-10-12T13:14:56.518Z</time>
      </trkpt>
      <trkpt lat="44.34312" lon="0.79057">
        <ele>90</ele>
        <time>2025-10-12T13:14:57.518Z</time>
      </trkpt>
      <trkpt lat="44.34313" lon="0.79056">
        <ele>90</ele>
        <time>2025-10-12T13:14:58.518Z</time>
      </trkpt>
      <trkpt lat="44.34314" lon="0.79055">
        <ele>90</ele>
        <time>2025-10-12T13:14:59.518Z</time>
      </trkpt>
      <trkpt lat="44.34315" lon="0.79053">
        <ele>90</ele>
        <time>2025-10-12T13:15:00.518Z</time>
      </trkpt>
      <trkpt lat="44.34315" lon="0.79052">
        <ele>91</ele>
        <time>2025-10-12T13:15:01.518Z</time>
      </trkpt>
      <trkpt lat="44.34316" lon="0.7905">
        <ele>91</ele>
        <time>2025-10-12T13:15:02.518Z</time>
      </trkpt>
      <trkpt lat="44.34317" lon="0.79049">
        <ele>91</ele>
        <time>2025-10-12T13:15:03.518Z</time>
      </trkpt>
      <trkpt lat="44.34318" lon="0.79048">
        <ele>91</ele>
        <time>2025-10-12T13:15:04.518Z</time>
      </trkpt>
      <trkpt lat="44.34318" lon="0.79047">
        <ele>91</ele>
        <time>2025-10-12T13:15:05.518Z</time>
      </trkpt>
      <trkpt lat="44.34319" lon="0.79046">
        <ele>91</ele>
        <time>2025-10-12T13:15:06.518Z</time>
      </trkpt>
      <trkpt lat="44.3432" lon="0.79044">
        <ele>92</ele>
        <time>2025-10-12T13:15:07.518Z</time>
      </trkpt>
      <trkpt lat="44.34322" lon="0.79043">
        <ele>91</ele>
        <time>2025-10-12T13:15:08.518Z</time>
      </trkpt>
      <trkpt lat="44.34323" lon="0.79042">
        <ele>91</ele>
        <time>2025-10-12T13:15:09.518Z</time>
      </trkpt>
      <trkpt lat="44.34323" lon="0.79041">
        <ele>91</ele>
        <time>2025-10-12T13:15:10.518Z</time>
      </trkpt>
      <trkpt lat="44.34324" lon="0.7904">
        <ele>90</ele>
        <time>2025-10-12T13:15:11.518Z</time>
      </trkpt>
      <trkpt lat="44.34325" lon="0.79039">
        <ele>90</ele>
        <time>2025-10-12T13:15:12.518Z</time>
      </trkpt>
      <trkpt lat="44.34326" lon="0.79037">
        <ele>90</ele>
        <time>2025-10-12T13:15:13.518Z</time>
      </trkpt>
      <trkpt lat="44.34326" lon="0.79036">
        <ele>90</ele>
        <time>2025-10-12T13:15:14.518Z</time>
      </trkpt>
      <trkpt lat="44.34327" lon="0.79035">
        <ele>90</ele>
        <time>2025-10-12T13:15:15.518Z</time>
      </trkpt>
      <trkpt lat="44.34328" lon="0.79033">
        <ele>90</ele>
        <time>2025-10-12T13:15:16.518Z</time>
      </trkpt>
      <trkpt lat="44.34329" lon="0.79031">
        <ele>90</ele>
        <time>2025-10-12T13:15:17.518Z</time>
      </trkpt>
      <trkpt lat="44.34329" lon="0.7903">
        <ele>90</ele>
        <time>2025-10-12T13:15:18.518Z</time>
      </trkpt>
      <trkpt lat="44.3433" lon="0.79028">
        <ele>90</ele>
        <time>2025-10-12T13:15:19.518Z</time>
      </trkpt>
      <trkpt lat="44.34331" lon="0.79027">
        <ele>90</ele>
        <time>2025-10-12T13:15:20.518Z</time>
      </trkpt>
      <trkpt lat="44.34332" lon="0.79026">
        <ele>90</ele>
        <time>2025-10-12T13:15:21.518Z</time>
      </trkpt>
      <trkpt lat="44.34332" lon="0.79025">
        <ele>90</ele>
        <time>2025-10-12T13:15:22.518Z</time>
      </trkpt>
      <trkpt lat="44.34333" lon="0.79023">
        <ele>90</ele>
        <time>2025-10-12T13:15:23.518Z</time>
      </trkpt>
      <trkpt lat="44.34333" lon="0.79022">
        <ele>90</ele>
        <time>2025-10-12T13:15:24.518Z</time>
      </trkpt>
      <trkpt lat="44.34334" lon="0.79021">
        <ele>89</ele>
        <time>2025-10-12T13:15:25.518Z</time>
      </trkpt>
      <trkpt lat="44.34335" lon="0.79019">
        <ele>89</ele>
        <time>2025-10-12T13:15:26.518Z</time>
      </trkpt>
      <trkpt lat="44.34335" lon="0.79017">
        <ele>89</ele>
        <time>2025-10-12T13:15:27.518Z</time>
      </trkpt>
      <trkpt lat="44.34336" lon="0.79016">
        <ele>89</ele>
        <time>2025-10-12T13:15:28.518Z</time>
      </trkpt>
      <trkpt lat="44.34336" lon="0.79014">
        <ele>89</ele>
        <time>2025-10-12T13:15:29.518Z</time>
      </trkpt>
      <trkpt lat="44.34337" lon="0.79012">
        <ele>89</ele>
        <time>2025-10-12T13:15:30.518Z</time>
      </trkpt>
      <trkpt lat="44.34337" lon="0.79011">
        <ele>90</ele>
        <time>2025-10-12T13:15:31.518Z</time>
      </trkpt>
      <trkpt lat="44.34337" lon="0.79009">
        <ele>90</ele>
        <time>2025-10-12T13:15:32.518Z</time>
      </trkpt>
      <trkpt lat="44.34338" lon="0.79008">
        <ele>90</ele>
        <time>2025-10-12T13:15:33.518Z</time>
      </trkpt>
      <trkpt lat="44.34338" lon="0.79006">
        <ele>90</ele>
        <time>2025-10-12T13:15:34.518Z</time>
      </trkpt>
      <trkpt lat="44.34339" lon="0.79004">
        <ele>90</ele>
        <time>2025-10-12T13:15:35.518Z</time>
      </trkpt>
      <trkpt lat="44.34339" lon="0.79003">
        <ele>90</ele>
        <time>2025-10-12T13:15:36.518Z</time>
      </trkpt>
      <trkpt lat="44.34339" lon="0.79001">
        <ele>90</ele>
        <time>2025-10-12T13:15:37.518Z</time>
      </trkpt>
      <trkpt lat="44.34339" lon="0.79">
        <ele>91</ele>
        <time>2025-10-12T13:15:38.518Z</time>
      </trkpt>
      <trkpt lat="44.34339" lon="0.78998">
        <ele>91</ele>
        <time>2025-10-12T13:15:39.518Z</time>
      </trkpt>
      <trkpt lat="44.34339" lon="0.78997">
        <ele>91</ele>
        <time>2025-10-12T13:15:40.518Z</time>
      </trkpt>
      <trkpt lat="44.3434" lon="0.78995">
        <ele>91</ele>
        <time>2025-10-12T13:15:41.518Z</time>
      </trkpt>
      <trkpt lat="44.3434" lon="0.78993">
        <ele>91</ele>
        <time>2025-10-12T13:15:42.518Z</time>
      </trkpt>
      <trkpt lat="44.3434" lon="0.78992">
        <ele>91</ele>
        <time>2025-10-12T13:15:43.518Z</time>
      </trkpt>
      <trkpt lat="44.3434" lon="0.7899">
        <ele>91</ele>
        <time>2025-10-12T13:15:44.518Z</time>
      </trkpt>
      <trkpt lat="44.34341" lon="0.78988">
        <ele>91</ele>
        <time>2025-10-12T13:15:45.518Z</time>
      </trkpt>
      <trkpt lat="44.34341" lon="0.78987">
        <ele>91</ele>
        <time>2025-10-12T13:15:46.518Z</time>
      </trkpt>
      <trkpt lat="44.34341" lon="0.78986">
        <ele>91</ele>
        <time>2025-10-12T13:15:47.518Z</time>
      </trkpt>
      <trkpt lat="44.34341" lon="0.78984">
        <ele>91</ele>
        <time>2025-10-12T13:15:48.518Z</time>
      </trkpt>
      <trkpt lat="44.34341" lon="0.78982">
        <ele>92</ele>
        <time>2025-10-12T13:15:49.518Z</time>
      </trkpt>
      <trkpt lat="44.34341" lon="0.7898">
        <ele>92</ele>
        <time>2025-10-12T13:15:50.518Z</time>
      </trkpt>
      <trkpt lat="44.34342" lon="0.78979">
        <ele>92</ele>
        <time>2025-10-12T13:15:51.518Z</time>
      </trkpt>
      <trkpt lat="44.34342" lon="0.78977">
        <ele>92</ele>
        <time>2025-10-12T13:15:52.518Z</time>
      </trkpt>
      <trkpt lat="44.34342" lon="0.78976">
        <ele>92</ele>
        <time>2025-10-12T13:15:53.518Z</time>
      </trkpt>
      <trkpt lat="44.34342" lon="0.78974">
        <ele>92</ele>
        <time>2025-10-12T13:15:54.518Z</time>
      </trkpt>
      <trkpt lat="44.34342" lon="0.78972">
        <ele>93</ele>
        <time>2025-10-12T13:15:55.518Z</time>
      </trkpt>
      <trkpt lat="44.34342" lon="0.78971">
        <ele>93</ele>
        <time>2025-10-12T13:15:56.518Z</time>
      </trkpt>
      <trkpt lat="44.34342" lon="0.78969">
        <ele>93</ele>
        <time>2025-10-12T13:15:57.518Z</time>
      </trkpt>
      <trkpt lat="44.34342" lon="0.78967">
        <ele>93</ele>
        <time>2025-10-12T13:15:58.518Z</time>
      </trkpt>
      <trkpt lat="44.34342" lon="0.78965">
        <ele>93</ele>
        <time>2025-10-12T13:15:59.518Z</time>
      </trkpt>
      <trkpt lat="44.34342" lon="0.78964">
        <ele>93</ele>
        <time>2025-10-12T13:16:00.518Z</time>
      </trkpt>
      <trkpt lat="44.34342" lon="0.78963">
        <ele>93</ele>
        <time>2025-10-12T13:16:01.518Z</time>
      </trkpt>
      <trkpt lat="44.34342" lon="0.78961">
        <ele>92</ele>
        <time>2025-10-12T13:16:02.518Z</time>
      </trkpt>
      <trkpt lat="44.34342" lon="0.78959">
        <ele>93</ele>
        <time>2025-10-12T13:16:03.518Z</time>
      </trkpt>
      <trkpt lat="44.34342" lon="0.78958">
        <ele>93</ele>
        <time>2025-10-12T13:16:04.518Z</time>
      </trkpt>
      <trkpt lat="44.34341" lon="0.78956">
        <ele>93</ele>
        <time>2025-10-12T13:16:05.518Z</time>
      </trkpt>
      <trkpt lat="44.34341" lon="0.78954">
        <ele>93</ele>
        <time>2025-10-12T13:16:06.518Z</time>
      </trkpt>
      <trkpt lat="44.34341" lon="0.78952">
        <ele>93</ele>
        <time>2025-10-12T13:16:07.518Z</time>
      </trkpt>
      <trkpt lat="44.34341" lon="0.78951">
        <ele>93</ele>
        <time>2025-10-12T13:16:08.518Z</time>
      </trkpt>
      <trkpt lat="44.3434" lon="0.7895">
        <ele>93</ele>
        <time>2025-10-12T13:16:09.518Z</time>
      </trkpt>
      <trkpt lat="44.3434" lon="0.78948">
        <ele>93</ele>
        <time>2025-10-12T13:16:10.518Z</time>
      </trkpt>
      <trkpt lat="44.3434" lon="0.78947">
        <ele>93</ele>
        <time>2025-10-12T13:16:11.518Z</time>
      </trkpt>
      <trkpt lat="44.34339" lon="0.78945">
        <ele>93</ele>
        <time>2025-10-12T13:16:12.518Z</time>
      </trkpt>
      <trkpt lat="44.34339" lon="0.78943">
        <ele>93</ele>
        <time>2025-10-12T13:16:13.518Z</time>
      </trkpt>
      <trkpt lat="44.34339" lon="0.78941">
        <ele>93</ele>
        <time>2025-10-12T13:16:14.518Z</time>
      </trkpt>
      <trkpt lat="44.34339" lon="0.78939">
        <ele>93</ele>
        <time>2025-10-12T13:16:15.518Z</time>
      </trkpt>
      <trkpt lat="44.34339" lon="0.78938">
        <ele>93</ele>
        <time>2025-10-12T13:16:16.518Z</time>
      </trkpt>
      <trkpt lat="44.34338" lon="0.78937">
        <ele>93</ele>
        <time>2025-10-12T13:16:17.518Z</time>
      </trkpt>
      <trkpt lat="44.34338" lon="0.78935">
        <ele>93</ele>
        <time>2025-10-12T13:16:18.518Z</time>
      </trkpt>
      <trkpt lat="44.34338" lon="0.78933">
        <ele>94</ele>
        <time>2025-10-12T13:16:19.518Z</time>
      </trkpt>
      <trkpt lat="44.34337" lon="0.78932">
        <ele>94</ele>
        <time>2025-10-12T13:16:20.518Z</time>
      </trkpt>
      <trkpt lat="44.34337" lon="0.7893">
        <ele>95</ele>
        <time>2025-10-12T13:16:21.518Z</time>
      </trkpt>
      <trkpt lat="44.34337" lon="0.78928">
        <ele>95</ele>
        <time>2025-10-12T13:16:22.518Z</time>
      </trkpt>
      <trkpt lat="44.34337" lon="0.78926">
        <ele>96</ele>
        <time>2025-10-12T13:16:23.518Z</time>
      </trkpt>
      <trkpt lat="44.34337" lon="0.78925">
        <ele>96</ele>
        <time>2025-10-12T13:16:24.518Z</time>
      </trkpt>
      <trkpt lat="44.34337" lon="0.78923">
        <ele>96</ele>
        <time>2025-10-12T13:16:25.518Z</time>
      </trkpt>
      <trkpt lat="44.34337" lon="0.78922">
        <ele>96</ele>
        <time>2025-10-12T13:16:26.518Z</time>
      </trkpt>
      <trkpt lat="44.34337" lon="0.7892">
        <ele>97</ele>
        <time>2025-10-12T13:16:27.518Z</time>
      </trkpt>
      <trkpt lat="44.34338" lon="0.78918">
        <ele>97</ele>
        <time>2025-10-12T13:16:28.518Z</time>
      </trkpt>
      <trkpt lat="44.34338" lon="0.78916">
        <ele>97</ele>
        <time>2025-10-12T13:16:29.518Z</time>
      </trkpt>
      <trkpt lat="44.34338" lon="0.78915">
        <ele>97</ele>
        <time>2025-10-12T13:16:30.518Z</time>
      </trkpt>
      <trkpt lat="44.34338" lon="0.78914">
        <ele>97</ele>
        <time>2025-10-12T13:16:31.518Z</time>
      </trkpt>
      <trkpt lat="44.34338" lon="0.78912">
        <ele>97</ele>
        <time>2025-10-12T13:16:32.518Z</time>
      </trkpt>
      <trkpt lat="44.34339" lon="0.7891">
        <ele>98</ele>
        <time>2025-10-12T13:16:33.518Z</time>
      </trkpt>
      <trkpt lat="44.34339" lon="0.78908">
        <ele>98</ele>
        <time>2025-10-12T13:16:34.518Z</time>
      </trkpt>
      <trkpt lat="44.34339" lon="0.78907">
        <ele>99</ele>
        <time>2025-10-12T13:16:35.518Z</time>
      </trkpt>
      <trkpt lat="44.34339" lon="0.78905">
        <ele>99</ele>
        <time>2025-10-12T13:16:36.518Z</time>
      </trkpt>
      <trkpt lat="44.3434" lon="0.78904">
        <ele>99</ele>
        <time>2025-10-12T13:16:37.518Z</time>
      </trkpt>
      <trkpt lat="44.3434" lon="0.78903">
        <ele>99</ele>
        <time>2025-10-12T13:16:38.518Z</time>
      </trkpt>
      <trkpt lat="44.34341" lon="0.78901">
        <ele>99</ele>
        <time>2025-10-12T13:16:39.518Z</time>
      </trkpt>
      <trkpt lat="44.34341" lon="0.789">
        <ele>100</ele>
        <time>2025-10-12T13:16:40.518Z</time>
      </trkpt>
      <trkpt lat="44.34342" lon="0.78899">
        <ele>100</ele>
        <time>2025-10-12T13:16:41.518Z</time>
      </trkpt>
      <trkpt lat="44.34343" lon="0.78898">
        <ele>100</ele>
        <time>2025-10-12T13:16:42.518Z</time>
      </trkpt>
      <trkpt lat="44.34343" lon="0.78897">
        <ele>101</ele>
        <time>2025-10-12T13:16:43.518Z</time>
      </trkpt>
      <trkpt lat="44.34344" lon="0.78896">
        <ele>101</ele>
        <time>2025-10-12T13:16:44.518Z</time>
      </trkpt>
      <trkpt lat="44.34344" lon="0.78895">
        <ele>101</ele>
        <time>2025-10-12T13:16:45.518Z</time>
      </trkpt>
      <trkpt lat="44.34345" lon="0.78895">
        <ele>101</ele>
        <time>2025-10-12T13:16:46.518Z</time>
      </trkpt>
      <trkpt lat="44.34345" lon="0.78894">
        <ele>101</ele>
        <time>2025-10-12T13:16:47.518Z</time>
      </trkpt>
      <trkpt lat="44.34345" lon="0.78894">
        <ele>101</ele>
        <time>2025-10-12T13:16:48.518Z</time>
      </trkpt>
      <trkpt lat="44.34345" lon="0.78894">
        <ele>101</ele>
        <time>2025-10-12T13:16:49.518Z</time>
      </trkpt>
      <trkpt lat="44.34345" lon="0.78894">
        <ele>100</ele>
        <time>2025-10-12T13:16:50.518Z</time>
      </trkpt>
      <trkpt lat="44.34345" lon="0.78894">
        <ele>99</ele>
        <time>2025-10-12T13:16:51.518Z</time>
      </trkpt>
      <trkpt lat="44.34345" lon="0.78894">
        <ele>99</ele>
        <time>2025-10-12T13:16:52.518Z</time>
      </trkpt>
      <trkpt lat="44.34345" lon="0.78894">
        <ele>99</ele>
        <time>2025-10-12T13:16:53.518Z</time>
      </trkpt>
      <trkpt lat="44.34345" lon="0.78893">
        <ele>99</ele>
        <time>2025-10-12T13:16:54.518Z</time>
      </trkpt>
      <trkpt lat="44.34345" lon="0.78893">
        <ele>99</ele>
        <time>2025-10-12T13:16:55.518Z</time>
      </trkpt>
      <trkpt lat="44.34345" lon="0.78892">
        <ele>99</ele>
        <time>2025-10-12T13:16:56.518Z</time>
      </trkpt>
      <trkpt lat="44.34345" lon="0.7889">
        <ele>100</ele>
        <time>2025-10-12T13:16:57.518Z</time>
      </trkpt>
      <trkpt lat="44.34346" lon="0.78889">
        <ele>100</ele>
        <time>2025-10-12T13:16:58.518Z</time>
      </trkpt>
      <trkpt lat="44.34346" lon="0.78888">
        <ele>100</ele>
        <time>2025-10-12T13:16:59.518Z</time>
      </trkpt>
      <trkpt lat="44.34346" lon="0.78886">
        <ele>100</ele>
        <time>2025-10-12T13:17:00.518Z</time>
      </trkpt>
      <trkpt lat="44.34347" lon="0.78885">
        <ele>100</ele>
        <time>2025-10-12T13:17:01.518Z</time>
      </trkpt>
      <trkpt lat="44.34347" lon="0.78883">
        <ele>100</ele>
        <time>2025-10-12T13:17:02.518Z</time>
      </trkpt>
      <trkpt lat="44.34348" lon="0.78882">
        <ele>100</ele>
        <time>2025-10-12T13:17:03.518Z</time>
      </trkpt>
      <trkpt lat="44.34348" lon="0.7888">
        <ele>101</ele>
        <time>2025-10-12T13:17:04.518Z</time>
      </trkpt>
      <trkpt lat="44.34349" lon="0.78879">
        <ele>101</ele>
        <time>2025-10-12T13:17:05.518Z</time>
      </trkpt>
      <trkpt lat="44.34349" lon="0.78877">
        <ele>101</ele>
        <time>2025-10-12T13:17:06.518Z</time>
      </trkpt>
      <trkpt lat="44.34349" lon="0.78876">
        <ele>101</ele>
        <time>2025-10-12T13:17:07.518Z</time>
      </trkpt>
      <trkpt lat="44.3435" lon="0.78874">
        <ele>102</ele>
        <time>2025-10-12T13:17:08.518Z</time>
      </trkpt>
      <trkpt lat="44.34351" lon="0.78873">
        <ele>102</ele>
        <time>2025-10-12T13:17:09.518Z</time>
      </trkpt>
      <trkpt lat="44.34351" lon="0.78872">
        <ele>102</ele>
        <time>2025-10-12T13:17:10.518Z</time>
      </trkpt>
      <trkpt lat="44.34352" lon="0.7887">
        <ele>102</ele>
        <time>2025-10-12T13:17:11.518Z</time>
      </trkpt>
      <trkpt lat="44.34352" lon="0.78869">
        <ele>102</ele>
        <time>2025-10-12T13:17:12.518Z</time>
      </trkpt>
      <trkpt lat="44.34353" lon="0.78868">
        <ele>102</ele>
        <time>2025-10-12T13:17:13.518Z</time>
      </trkpt>
      <trkpt lat="44.34354" lon="0.78866">
        <ele>102</ele>
        <time>2025-10-12T13:17:14.518Z</time>
      </trkpt>
      <trkpt lat="44.34354" lon="0.78865">
        <ele>102</ele>
        <time>2025-10-12T13:17:15.518Z</time>
      </trkpt>
      <trkpt lat="44.34355" lon="0.78863">
        <ele>102</ele>
        <time>2025-10-12T13:17:16.518Z</time>
      </trkpt>
      <trkpt lat="44.34356" lon="0.78862">
        <ele>102</ele>
        <time>2025-10-12T13:17:17.518Z</time>
      </trkpt>
      <trkpt lat="44.34356" lon="0.78861">
        <ele>102</ele>
        <time>2025-10-12T13:17:18.518Z</time>
      </trkpt>
      <trkpt lat="44.34357" lon="0.7886">
        <ele>102</ele>
        <time>2025-10-12T13:17:19.518Z</time>
      </trkpt>
      <trkpt lat="44.34358" lon="0.78858">
        <ele>102</ele>
        <time>2025-10-12T13:17:20.518Z</time>
      </trkpt>
      <trkpt lat="44.34358" lon="0.78857">
        <ele>102</ele>
        <time>2025-10-12T13:17:21.518Z</time>
      </trkpt>
      <trkpt lat="44.34359" lon="0.78856">
        <ele>102</ele>
        <time>2025-10-12T13:17:22.518Z</time>
      </trkpt>
      <trkpt lat="44.3436" lon="0.78854">
        <ele>102</ele>
        <time>2025-10-12T13:17:23.518Z</time>
      </trkpt>
      <trkpt lat="44.3436" lon="0.78853">
        <ele>102</ele>
        <time>2025-10-12T13:17:24.518Z</time>
      </trkpt>
      <trkpt lat="44.34361" lon="0.78851">
        <ele>102</ele>
        <time>2025-10-12T13:17:25.518Z</time>
      </trkpt>
      <trkpt lat="44.34361" lon="0.7885">
        <ele>102</ele>
        <time>2025-10-12T13:17:26.518Z</time>
      </trkpt>
      <trkpt lat="44.34362" lon="0.78848">
        <ele>102</ele>
        <time>2025-10-12T13:17:27.518Z</time>
      </trkpt>
      <trkpt lat="44.34362" lon="0.78847">
        <ele>102</ele>
        <time>2025-10-12T13:17:28.518Z</time>
      </trkpt>
      <trkpt lat="44.34363" lon="0.78845">
        <ele>103</ele>
        <time>2025-10-12T13:17:29.518Z</time>
      </trkpt>
      <trkpt lat="44.34363" lon="0.78844">
        <ele>103</ele>
        <time>2025-10-12T13:17:30.518Z</time>
      </trkpt>
      <trkpt lat="44.34364" lon="0.78843">
        <ele>103</ele>
        <time>2025-10-12T13:17:31.518Z</time>
      </trkpt>
      <trkpt lat="44.34364" lon="0.78841">
        <ele>104</ele>
        <time>2025-10-12T13:17:32.518Z</time>
      </trkpt>
      <trkpt lat="44.34364" lon="0.7884">
        <ele>104</ele>
        <time>2025-10-12T13:17:33.518Z</time>
      </trkpt>
      <trkpt lat="44.34365" lon="0.78838">
        <ele>104</ele>
        <time>2025-10-12T13:17:34.518Z</time>
      </trkpt>
      <trkpt lat="44.34365" lon="0.78837">
        <ele>104</ele>
        <time>2025-10-12T13:17:35.518Z</time>
      </trkpt>
      <trkpt lat="44.34366" lon="0.78836">
        <ele>103</ele>
        <time>2025-10-12T13:17:36.518Z</time>
      </trkpt>
      <trkpt lat="44.34367" lon="0.78835">
        <ele>103</ele>
        <time>2025-10-12T13:17:37.518Z</time>
      </trkpt>
      <trkpt lat="44.34367" lon="0.78835">
        <ele>102</ele>
        <time>2025-10-12T13:17:38.518Z</time>
      </trkpt>
      <trkpt lat="44.34367" lon="0.78834">
        <ele>102</ele>
        <time>2025-10-12T13:17:39.518Z</time>
      </trkpt>
      <trkpt lat="44.34368" lon="0.78833">
        <ele>101</ele>
        <time>2025-10-12T13:17:40.518Z</time>
      </trkpt>
      <trkpt lat="44.34369" lon="0.78833">
        <ele>101</ele>
        <time>2025-10-12T13:17:41.518Z</time>
      </trkpt>
      <trkpt lat="44.34369" lon="0.78832">
        <ele>101</ele>
        <time>2025-10-12T13:17:42.518Z</time>
      </trkpt>
      <trkpt lat="44.34369" lon="0.78831">
        <ele>101</ele>
        <time>2025-10-12T13:17:43.518Z</time>
      </trkpt>
      <trkpt lat="44.3437" lon="0.78829">
        <ele>100</ele>
        <time>2025-10-12T13:17:44.518Z</time>
      </trkpt>
      <trkpt lat="44.3437" lon="0.78829">
        <ele>100</ele>
        <time>2025-10-12T13:17:45.518Z</time>
      </trkpt>
      <trkpt lat="44.3437" lon="0.78828">
        <ele>99</ele>
        <time>2025-10-12T13:17:46.518Z</time>
      </trkpt>
      <trkpt lat="44.3437" lon="0.78827">
        <ele>99</ele>
        <time>2025-10-12T13:17:47.518Z</time>
      </trkpt>
      <trkpt lat="44.3437" lon="0.78826">
        <ele>99</ele>
        <time>2025-10-12T13:17:48.518Z</time>
      </trkpt>
      <trkpt lat="44.3437" lon="0.78824">
        <ele>99</ele>
        <time>2025-10-12T13:17:49.518Z</time>
      </trkpt>
      <trkpt lat="44.3437" lon="0.78823">
        <ele>99</ele>
        <time>2025-10-12T13:17:50.518Z</time>
      </trkpt>
      <trkpt lat="44.3437" lon="0.78821">
        <ele>99</ele>
        <time>2025-10-12T13:17:51.518Z</time>
      </trkpt>
      <trkpt lat="44.3437" lon="0.78819">
        <ele>99</ele>
        <time>2025-10-12T13:17:52.518Z</time>
      </trkpt>
      <trkpt lat="44.34371" lon="0.78817">
        <ele>100</ele>
        <time>2025-10-12T13:17:53.518Z</time>
      </trkpt>
      <trkpt lat="44.34371" lon="0.78816">
        <ele>100</ele>
        <time>2025-10-12T13:17:54.518Z</time>
      </trkpt>
      <trkpt lat="44.34371" lon="0.78814">
        <ele>101</ele>
        <time>2025-10-12T13:17:55.518Z</time>
      </trkpt>
      <trkpt lat="44.34371" lon="0.78812">
        <ele>101</ele>
        <time>2025-10-12T13:17:56.518Z</time>
      </trkpt>
      <trkpt lat="44.34371" lon="0.78811">
        <ele>101</ele>
        <time>2025-10-12T13:17:57.518Z</time>
      </trkpt>
      <trkpt lat="44.34371" lon="0.78809">
        <ele>102</ele>
        <time>2025-10-12T13:17:58.518Z</time>
      </trkpt>
      <trkpt lat="44.34371" lon="0.78807">
        <ele>102</ele>
        <time>2025-10-12T13:17:59.518Z</time>
      </trkpt>
      <trkpt lat="44.34371" lon="0.78806">
        <ele>102</ele>
        <time>2025-10-12T13:18:00.518Z</time>
      </trkpt>
      <trkpt lat="44.34372" lon="0.78804">
        <ele>102</ele>
        <time>2025-10-12T13:18:01.518Z</time>
      </trkpt>
      <trkpt lat="44.34372" lon="0.78803">
        <ele>102</ele>
        <time>2025-10-12T13:18:02.518Z</time>
      </trkpt>
      <trkpt lat="44.34372" lon="0.78801">
        <ele>102</ele>
        <time>2025-10-12T13:18:03.518Z</time>
      </trkpt>
      <trkpt lat="44.34372" lon="0.78799">
        <ele>102</ele>
        <time>2025-10-12T13:18:04.518Z</time>
      </trkpt>
      <trkpt lat="44.34372" lon="0.78797">
        <ele>102</ele>
        <time>2025-10-12T13:18:05.518Z</time>
      </trkpt>
      <trkpt lat="44.34372" lon="0.78796">
        <ele>103</ele>
        <time>2025-10-12T13:18:06.518Z</time>
      </trkpt>
      <trkpt lat="44.34372" lon="0.78794">
        <ele>103</ele>
        <time>2025-10-12T13:18:07.518Z</time>
      </trkpt>
      <trkpt lat="44.34373" lon="0.78793">
        <ele>103</ele>
        <time>2025-10-12T13:18:08.518Z</time>
      </trkpt>
      <trkpt lat="44.34373" lon="0.78791">
        <ele>103</ele>
        <time>2025-10-12T13:18:09.518Z</time>
      </trkpt>
      <trkpt lat="44.34373" lon="0.7879">
        <ele>103</ele>
        <time>2025-10-12T13:18:10.518Z</time>
      </trkpt>
      <trkpt lat="44.34374" lon="0.78788">
        <ele>103</ele>
        <time>2025-10-12T13:18:11.518Z</time>
      </trkpt>
      <trkpt lat="44.34374" lon="0.78786">
        <ele>103</ele>
        <time>2025-10-12T13:18:12.518Z</time>
      </trkpt>
      <trkpt lat="44.34374" lon="0.78785">
        <ele>103</ele>
        <time>2025-10-12T13:18:13.518Z</time>
      </trkpt>
      <trkpt lat="44.34374" lon="0.78783">
        <ele>103</ele>
        <time>2025-10-12T13:18:14.518Z</time>
      </trkpt>
      <trkpt lat="44.34375" lon="0.78782">
        <ele>103</ele>
        <time>2025-10-12T13:18:15.518Z</time>
      </trkpt>
      <trkpt lat="44.34375" lon="0.7878">
        <ele>103</ele>
        <time>2025-10-12T13:18:16.518Z</time>
      </trkpt>
      <trkpt lat="44.34375" lon="0.78779">
        <ele>103</ele>
        <time>2025-10-12T13:18:17.518Z</time>
      </trkpt>
      <trkpt lat="44.34375" lon="0.78777">
        <ele>103</ele>
        <time>2025-10-12T13:18:18.518Z</time>
      </trkpt>
      <trkpt lat="44.34376" lon="0.78775">
        <ele>103</ele>
        <time>2025-10-12T13:18:19.518Z</time>
      </trkpt>
      <trkpt lat="44.34376" lon="0.78774">
        <ele>104</ele>
        <time>2025-10-12T13:18:20.518Z</time>
      </trkpt>
      <trkpt lat="44.34376" lon="0.78772">
        <ele>104</ele>
        <time>2025-10-12T13:18:21.518Z</time>
      </trkpt>
      <trkpt lat="44.34376" lon="0.7877">
        <ele>104</ele>
        <time>2025-10-12T13:18:22.518Z</time>
      </trkpt>
      <trkpt lat="44.34377" lon="0.78768">
        <ele>104</ele>
        <time>2025-10-12T13:18:23.518Z</time>
      </trkpt>
      <trkpt lat="44.34377" lon="0.78767">
        <ele>104</ele>
        <time>2025-10-12T13:18:24.518Z</time>
      </trkpt>
      <trkpt lat="44.34377" lon="0.78766">
        <ele>104</ele>
        <time>2025-10-12T13:18:25.518Z</time>
      </trkpt>
      <trkpt lat="44.34377" lon="0.78764">
        <ele>104</ele>
        <time>2025-10-12T13:18:26.518Z</time>
      </trkpt>
      <trkpt lat="44.34377" lon="0.78762">
        <ele>104</ele>
        <time>2025-10-12T13:18:27.518Z</time>
      </trkpt>
      <trkpt lat="44.34377" lon="0.7876">
        <ele>104</ele>
        <time>2025-10-12T13:18:28.518Z</time>
      </trkpt>
      <trkpt lat="44.34378" lon="0.78758">
        <ele>104</ele>
        <time>2025-10-12T13:18:29.518Z</time>
      </trkpt>
      <trkpt lat="44.34378" lon="0.78757">
        <ele>104</ele>
        <time>2025-10-12T13:18:30.518Z</time>
      </trkpt>
      <trkpt lat="44.34378" lon="0.78755">
        <ele>104</ele>
        <time>2025-10-12T13:18:31.518Z</time>
      </trkpt>
      <trkpt lat="44.34379" lon="0.78754">
        <ele>104</ele>
        <time>2025-10-12T13:18:32.518Z</time>
      </trkpt>
      <trkpt lat="44.34379" lon="0.78752">
        <ele>104</ele>
        <time>2025-10-12T13:18:33.518Z</time>
      </trkpt>
      <trkpt lat="44.34379" lon="0.7875">
        <ele>105</ele>
        <time>2025-10-12T13:18:34.518Z</time>
      </trkpt>
      <trkpt lat="44.34379" lon="0.78748">
        <ele>105</ele>
        <time>2025-10-12T13:18:35.518Z</time>
      </trkpt>
      <trkpt lat="44.3438" lon="0.78746">
        <ele>105</ele>
        <time>2025-10-12T13:18:36.518Z</time>
      </trkpt>
      <trkpt lat="44.3438" lon="0.78745">
        <ele>106</ele>
        <time>2025-10-12T13:18:37.518Z</time>
      </trkpt>
      <trkpt lat="44.3438" lon="0.78743">
        <ele>106</ele>
        <time>2025-10-12T13:18:38.518Z</time>
      </trkpt>
      <trkpt lat="44.3438" lon="0.78742">
        <ele>106</ele>
        <time>2025-10-12T13:18:39.518Z</time>
      </trkpt>
      <trkpt lat="44.3438" lon="0.7874">
        <ele>106</ele>
        <time>2025-10-12T13:18:40.518Z</time>
      </trkpt>
      <trkpt lat="44.3438" lon="0.78738">
        <ele>107</ele>
        <time>2025-10-12T13:18:41.518Z</time>
      </trkpt>
      <trkpt lat="44.34381" lon="0.78736">
        <ele>107</ele>
        <time>2025-10-12T13:18:42.518Z</time>
      </trkpt>
      <trkpt lat="44.34381" lon="0.78735">
        <ele>107</ele>
        <time>2025-10-12T13:18:43.518Z</time>
      </trkpt>
      <trkpt lat="44.34381" lon="0.78733">
        <ele>107</ele>
        <time>2025-10-12T13:18:44.518Z</time>
      </trkpt>
      <trkpt lat="44.34381" lon="0.78731">
        <ele>107</ele>
        <time>2025-10-12T13:18:45.518Z</time>
      </trkpt>
      <trkpt lat="44.34381" lon="0.78729">
        <ele>106</ele>
        <time>2025-10-12T13:18:46.518Z</time>
      </trkpt>
      <trkpt lat="44.34382" lon="0.78728">
        <ele>107</ele>
        <time>2025-10-12T13:18:47.518Z</time>
      </trkpt>
      <trkpt lat="44.34382" lon="0.78726">
        <ele>107</ele>
        <time>2025-10-12T13:18:48.518Z</time>
      </trkpt>
      <trkpt lat="44.34382" lon="0.78725">
        <ele>107</ele>
        <time>2025-10-12T13:18:49.518Z</time>
      </trkpt>
      <trkpt lat="44.34382" lon="0.78723">
        <ele>107</ele>
        <time>2025-10-12T13:18:50.518Z</time>
      </trkpt>
      <trkpt lat="44.34382" lon="0.78721">
        <ele>107</ele>
        <time>2025-10-12T13:18:51.518Z</time>
      </trkpt>
      <trkpt lat="44.34382" lon="0.78719">
        <ele>108</ele>
        <time>2025-10-12T13:18:52.518Z</time>
      </trkpt>
      <trkpt lat="44.34382" lon="0.78717">
        <ele>108</ele>
        <time>2025-10-12T13:18:53.518Z</time>
      </trkpt>
      <trkpt lat="44.34383" lon="0.78716">
        <ele>108</ele>
        <time>2025-10-12T13:18:54.518Z</time>
      </trkpt>
      <trkpt lat="44.34383" lon="0.78714">
        <ele>109</ele>
        <time>2025-10-12T13:18:55.518Z</time>
      </trkpt>
      <trkpt lat="44.34383" lon="0.78713">
        <ele>109</ele>
        <time>2025-10-12T13:18:56.518Z</time>
      </trkpt>
      <trkpt lat="44.34383" lon="0.78711">
        <ele>109</ele>
        <time>2025-10-12T13:18:57.518Z</time>
      </trkpt>
      <trkpt lat="44.34384" lon="0.78709">
        <ele>109</ele>
        <time>2025-10-12T13:18:58.518Z</time>
      </trkpt>
      <trkpt lat="44.34384" lon="0.78707">
        <ele>109</ele>
        <time>2025-10-12T13:18:59.518Z</time>
      </trkpt>
      <trkpt lat="44.34384" lon="0.78706">
        <ele>109</ele>
        <time>2025-10-12T13:19:00.518Z</time>
      </trkpt>
      <trkpt lat="44.34384" lon="0.78704">
        <ele>109</ele>
        <time>2025-10-12T13:19:01.518Z</time>
      </trkpt>
      <trkpt lat="44.34385" lon="0.78703">
        <ele>109</ele>
        <time>2025-10-12T13:19:02.518Z</time>
      </trkpt>
      <trkpt lat="44.34385" lon="0.78702">
        <ele>109</ele>
        <time>2025-10-12T13:19:03.518Z</time>
      </trkpt>
      <trkpt lat="44.34385" lon="0.78701">
        <ele>109</ele>
        <time>2025-10-12T13:19:04.518Z</time>
      </trkpt>
      <trkpt lat="44.34386" lon="0.78699">
        <ele>109</ele>
        <time>2025-10-12T13:19:05.518Z</time>
      </trkpt>
      <trkpt lat="44.34386" lon="0.78698">
        <ele>109</ele>
        <time>2025-10-12T13:19:06.518Z</time>
      </trkpt>
      <trkpt lat="44.34386" lon="0.78696">
        <ele>109</ele>
        <time>2025-10-12T13:19:07.518Z</time>
      </trkpt>
      <trkpt lat="44.34386" lon="0.78694">
        <ele>109</ele>
        <time>2025-10-12T13:19:08.518Z</time>
      </trkpt>
      <trkpt lat="44.34387" lon="0.78693">
        <ele>109</ele>
        <time>2025-10-12T13:19:09.518Z</time>
      </trkpt>
      <trkpt lat="44.34387" lon="0.78692">
        <ele>109</ele>
        <time>2025-10-12T13:19:10.518Z</time>
      </trkpt>
      <trkpt lat="44.34387" lon="0.7869">
        <ele>109</ele>
        <time>2025-10-12T13:19:11.518Z</time>
      </trkpt>
      <trkpt lat="44.34387" lon="0.78689">
        <ele>109</ele>
        <time>2025-10-12T13:19:12.518Z</time>
      </trkpt>
      <trkpt lat="44.34387" lon="0.78687">
        <ele>109</ele>
        <time>2025-10-12T13:19:13.518Z</time>
      </trkpt>
      <trkpt lat="44.34387" lon="0.78686">
        <ele>109</ele>
        <time>2025-10-12T13:19:14.518Z</time>
      </trkpt>
      <trkpt lat="44.34387" lon="0.78684">
        <ele>109</ele>
        <time>2025-10-12T13:19:15.518Z</time>
      </trkpt>
      <trkpt lat="44.34387" lon="0.78683">
        <ele>109</ele>
        <time>2025-10-12T13:19:16.518Z</time>
      </trkpt>
      <trkpt lat="44.34387" lon="0.78681">
        <ele>109</ele>
        <time>2025-10-12T13:19:17.518Z</time>
      </trkpt>
      <trkpt lat="44.34387" lon="0.78679">
        <ele>109</ele>
        <time>2025-10-12T13:19:18.518Z</time>
      </trkpt>
      <trkpt lat="44.34387" lon="0.78678">
        <ele>109</ele>
        <time>2025-10-12T13:19:19.518Z</time>
      </trkpt>
      <trkpt lat="44.34387" lon="0.78677">
        <ele>110</ele>
        <time>2025-10-12T13:19:20.518Z</time>
      </trkpt>
      <trkpt lat="44.34387" lon="0.78676">
        <ele>110</ele>
        <time>2025-10-12T13:19:21.518Z</time>
      </trkpt>
      <trkpt lat="44.34387" lon="0.78675">
        <ele>111</ele>
        <time>2025-10-12T13:19:22.518Z</time>
      </trkpt>
      <trkpt lat="44.34387" lon="0.78674">
        <ele>111</ele>
        <time>2025-10-12T13:19:23.518Z</time>
      </trkpt>
      <trkpt lat="44.34387" lon="0.78673">
        <ele>111</ele>
        <time>2025-10-12T13:19:24.518Z</time>
      </trkpt>
      <trkpt lat="44.34387" lon="0.78672">
        <ele>111</ele>
        <time>2025-10-12T13:19:25.518Z</time>
      </trkpt>
      <trkpt lat="44.34387" lon="0.78672">
        <ele>111</ele>
        <time>2025-10-12T13:19:26.518Z</time>
      </trkpt>
      <trkpt lat="44.34388" lon="0.78671">
        <ele>110</ele>
        <time>2025-10-12T13:19:27.518Z</time>
      </trkpt>
      <trkpt lat="44.34388" lon="0.7867">
        <ele>110</ele>
        <time>2025-10-12T13:19:28.518Z</time>
      </trkpt>
      <trkpt lat="44.34388" lon="0.78669">
        <ele>110</ele>
        <time>2025-10-12T13:19:29.518Z</time>
      </trkpt>
      <trkpt lat="44.34388" lon="0.78668">
        <ele>110</ele>
        <time>2025-10-12T13:19:30.518Z</time>
      </trkpt>
      <trkpt lat="44.34388" lon="0.78668">
        <ele>110</ele>
        <time>2025-10-12T13:19:31.518Z</time>
      </trkpt>
      <trkpt lat="44.34389" lon="0.78667">
        <ele>110</ele>
        <time>2025-10-12T13:19:32.518Z</time>
      </trkpt>
      <trkpt lat="44.34389" lon="0.78666">
        <ele>110</ele>
        <time>2025-10-12T13:19:33.518Z</time>
      </trkpt>
      <trkpt lat="44.34388" lon="0.78664">
        <ele>110</ele>
        <time>2025-10-12T13:19:34.518Z</time>
      </trkpt>
      <trkpt lat="44.34388" lon="0.78662">
        <ele>111</ele>
        <time>2025-10-12T13:19:35.518Z</time>
      </trkpt>
      <trkpt lat="44.34388" lon="0.78661">
        <ele>111</ele>
        <time>2025-10-12T13:19:36.518Z</time>
      </trkpt>
      <trkpt lat="44.34388" lon="0.78658">
        <ele>111</ele>
        <time>2025-10-12T13:19:37.518Z</time>
      </trkpt>
      <trkpt lat="44.34388" lon="0.78657">
        <ele>111</ele>
        <time>2025-10-12T13:19:38.518Z</time>
      </trkpt>
      <trkpt lat="44.34388" lon="0.78655">
        <ele>112</ele>
        <time>2025-10-12T13:19:39.518Z</time>
      </trkpt>
      <trkpt lat="44.34388" lon="0.78654">
        <ele>112</ele>
        <time>2025-10-12T13:19:40.518Z</time>
      </trkpt>
      <trkpt lat="44.34388" lon="0.78652">
        <ele>112</ele>
        <time>2025-10-12T13:19:41.518Z</time>
      </trkpt>
      <trkpt lat="44.34388" lon="0.78651">
        <ele>112</ele>
        <time>2025-10-12T13:19:42.518Z</time>
      </trkpt>
      <trkpt lat="44.34388" lon="0.78649">
        <ele>113</ele>
        <time>2025-10-12T13:19:43.518Z</time>
      </trkpt>
      <trkpt lat="44.34388" lon="0.78647">
        <ele>113</ele>
        <time>2025-10-12T13:19:44.518Z</time>
      </trkpt>
      <trkpt lat="44.34388" lon="0.78646">
        <ele>113</ele>
        <time>2025-10-12T13:19:45.518Z</time>
      </trkpt>
      <trkpt lat="44.34389" lon="0.78644">
        <ele>113</ele>
        <time>2025-10-12T13:19:46.518Z</time>
      </trkpt>
      <trkpt lat="44.34389" lon="0.78642">
        <ele>112</ele>
        <time>2025-10-12T13:19:47.518Z</time>
      </trkpt>
      <trkpt lat="44.34389" lon="0.7864">
        <ele>112</ele>
        <time>2025-10-12T13:19:48.518Z</time>
      </trkpt>
      <trkpt lat="44.34389" lon="0.78639">
        <ele>112</ele>
        <time>2025-10-12T13:19:49.518Z</time>
      </trkpt>
      <trkpt lat="44.3439" lon="0.78638">
        <ele>112</ele>
        <time>2025-10-12T13:19:50.518Z</time>
      </trkpt>
      <trkpt lat="44.3439" lon="0.78637">
        <ele>111</ele>
        <time>2025-10-12T13:19:51.518Z</time>
      </trkpt>
      <trkpt lat="44.3439" lon="0.78635">
        <ele>111</ele>
        <time>2025-10-12T13:19:52.518Z</time>
      </trkpt>
      <trkpt lat="44.3439" lon="0.78633">
        <ele>112</ele>
        <time>2025-10-12T13:19:53.518Z</time>
      </trkpt>
      <trkpt lat="44.34391" lon="0.78632">
        <ele>112</ele>
        <time>2025-10-12T13:19:54.518Z</time>
      </trkpt>
      <trkpt lat="44.34391" lon="0.7863">
        <ele>112</ele>
        <time>2025-10-12T13:19:55.518Z</time>
      </trkpt>
      <trkpt lat="44.34391" lon="0.78628">
        <ele>112</ele>
        <time>2025-10-12T13:19:56.518Z</time>
      </trkpt>
      <trkpt lat="44.34391" lon="0.78627">
        <ele>113</ele>
        <time>2025-10-12T13:19:57.518Z</time>
      </trkpt>
      <trkpt lat="44.34392" lon="0.78626">
        <ele>113</ele>
        <time>2025-10-12T13:19:58.518Z</time>
      </trkpt>
      <trkpt lat="44.34392" lon="0.78624">
        <ele>113</ele>
        <time>2025-10-12T13:19:59.518Z</time>
      </trkpt>
      <trkpt lat="44.34392" lon="0.78622">
        <ele>114</ele>
        <time>2025-10-12T13:20:00.518Z</time>
      </trkpt>
      <trkpt lat="44.34393" lon="0.78621">
        <ele>114</ele>
        <time>2025-10-12T13:20:01.518Z</time>
      </trkpt>
      <trkpt lat="44.34393" lon="0.78619">
        <ele>114</ele>
        <time>2025-10-12T13:20:02.518Z</time>
      </trkpt>
      <trkpt lat="44.34394" lon="0.78618">
        <ele>114</ele>
        <time>2025-10-12T13:20:03.518Z</time>
      </trkpt>
      <trkpt lat="44.34394" lon="0.78617">
        <ele>114</ele>
        <time>2025-10-12T13:20:04.518Z</time>
      </trkpt>
      <trkpt lat="44.34394" lon="0.78615">
        <ele>115</ele>
        <time>2025-10-12T13:20:05.518Z</time>
      </trkpt>
      <trkpt lat="44.34395" lon="0.78614">
        <ele>115</ele>
        <time>2025-10-12T13:20:06.518Z</time>
      </trkpt>
      <trkpt lat="44.34395" lon="0.78612">
        <ele>116</ele>
        <time>2025-10-12T13:20:07.518Z</time>
      </trkpt>
      <trkpt lat="44.34396" lon="0.78611">
        <ele>116</ele>
        <time>2025-10-12T13:20:08.518Z</time>
      </trkpt>
      <trkpt lat="44.34396" lon="0.78609">
        <ele>116</ele>
        <time>2025-10-12T13:20:09.518Z</time>
      </trkpt>
      <trkpt lat="44.34397" lon="0.78608">
        <ele>116</ele>
        <time>2025-10-12T13:20:10.518Z</time>
      </trkpt>
      <trkpt lat="44.34397" lon="0.78607">
        <ele>116</ele>
        <time>2025-10-12T13:20:11.518Z</time>
      </trkpt>
      <trkpt lat="44.34398" lon="0.78606">
        <ele>116</ele>
        <time>2025-10-12T13:20:12.518Z</time>
      </trkpt>
      <trkpt lat="44.34398" lon="0.78604">
        <ele>117</ele>
        <time>2025-10-12T13:20:13.518Z</time>
      </trkpt>
      <trkpt lat="44.34399" lon="0.78603">
        <ele>117</ele>
        <time>2025-10-12T13:20:14.518Z</time>
      </trkpt>
      <trkpt lat="44.344" lon="0.78602">
        <ele>117</ele>
        <time>2025-10-12T13:20:15.518Z</time>
      </trkpt>
      <trkpt lat="44.344" lon="0.78601">
        <ele>118</ele>
        <time>2025-10-12T13:20:16.518Z</time>
      </trkpt>
      <trkpt lat="44.344" lon="0.78599">
        <ele>118</ele>
        <time>2025-10-12T13:20:17.518Z</time>
      </trkpt>
      <trkpt lat="44.34401" lon="0.78598">
        <ele>119</ele>
        <time>2025-10-12T13:20:18.518Z</time>
      </trkpt>
      <trkpt lat="44.34402" lon="0.78597">
        <ele>119</ele>
        <time>2025-10-12T13:20:19.518Z</time>
      </trkpt>
      <trkpt lat="44.34402" lon="0.78596">
        <ele>119</ele>
        <time>2025-10-12T13:20:20.518Z</time>
      </trkpt>
      <trkpt lat="44.34403" lon="0.78594">
        <ele>119</ele>
        <time>2025-10-12T13:20:21.518Z</time>
      </trkpt>
      <trkpt lat="44.34403" lon="0.78593">
        <ele>120</ele>
        <time>2025-10-12T13:20:22.518Z</time>
      </trkpt>
      <trkpt lat="44.34404" lon="0.78592">
        <ele>120</ele>
        <time>2025-10-12T13:20:23.518Z</time>
      </trkpt>
      <trkpt lat="44.34405" lon="0.78591">
        <ele>120</ele>
        <time>2025-10-12T13:20:24.518Z</time>
      </trkpt>
      <trkpt lat="44.34406" lon="0.7859">
        <ele>120</ele>
        <time>2025-10-12T13:20:25.518Z</time>
      </trkpt>
      <trkpt lat="44.34406" lon="0.78588">
        <ele>120</ele>
        <time>2025-10-12T13:20:26.518Z</time>
      </trkpt>
      <trkpt lat="44.34407" lon="0.78587">
        <ele>120</ele>
        <time>2025-10-12T13:20:27.518Z</time>
      </trkpt>
      <trkpt lat="44.34407" lon="0.78586">
        <ele>120</ele>
        <time>2025-10-12T13:20:28.519Z</time>
      </trkpt>
      <trkpt lat="44.34408" lon="0.78585">
        <ele>120</ele>
        <time>2025-10-12T13:20:29.518Z</time>
      </trkpt>
      <trkpt lat="44.34408" lon="0.78583">
        <ele>120</ele>
        <time>2025-10-12T13:20:30.518Z</time>
      </trkpt>
      <trkpt lat="44.34409" lon="0.78582">
        <ele>120</ele>
        <time>2025-10-12T13:20:31.518Z</time>
      </trkpt>
      <trkpt lat="44.34409" lon="0.78581">
        <ele>120</ele>
        <time>2025-10-12T13:20:32.518Z</time>
      </trkpt>
      <trkpt lat="44.3441" lon="0.78579">
        <ele>120</ele>
        <time>2025-10-12T13:20:33.518Z</time>
      </trkpt>
      <trkpt lat="44.34411" lon="0.78578">
        <ele>119</ele>
        <time>2025-10-12T13:20:34.518Z</time>
      </trkpt>
      <trkpt lat="44.34411" lon="0.78577">
        <ele>119</ele>
        <time>2025-10-12T13:20:35.518Z</time>
      </trkpt>
      <trkpt lat="44.34412" lon="0.78576">
        <ele>119</ele>
        <time>2025-10-12T13:20:36.518Z</time>
      </trkpt>
      <trkpt lat="44.34413" lon="0.78575">
        <ele>119</ele>
        <time>2025-10-12T13:20:37.518Z</time>
      </trkpt>
      <trkpt lat="44.34413" lon="0.78574">
        <ele>118</ele>
        <time>2025-10-12T13:20:38.518Z</time>
      </trkpt>
      <trkpt lat="44.34414" lon="0.78572">
        <ele>118</ele>
        <time>2025-10-12T13:20:39.518Z</time>
      </trkpt>
      <trkpt lat="44.34415" lon="0.78571">
        <ele>118</ele>
        <time>2025-10-12T13:20:40.518Z</time>
      </trkpt>
      <trkpt lat="44.34415" lon="0.7857">
        <ele>119</ele>
        <time>2025-10-12T13:20:41.518Z</time>
      </trkpt>
      <trkpt lat="44.34416" lon="0.78569">
        <ele>119</ele>
        <time>2025-10-12T13:20:42.518Z</time>
      </trkpt>
      <trkpt lat="44.34417" lon="0.78567">
        <ele>119</ele>
        <time>2025-10-12T13:20:43.518Z</time>
      </trkpt>
      <trkpt lat="44.34418" lon="0.78566">
        <ele>119</ele>
        <time>2025-10-12T13:20:44.518Z</time>
      </trkpt>
      <trkpt lat="44.34418" lon="0.78564">
        <ele>120</ele>
        <time>2025-10-12T13:20:45.518Z</time>
      </trkpt>
      <trkpt lat="44.34419" lon="0.78563">
        <ele>120</ele>
        <time>2025-10-12T13:20:46.518Z</time>
      </trkpt>
      <trkpt lat="44.34419" lon="0.78562">
        <ele>120</ele>
        <time>2025-10-12T13:20:47.518Z</time>
      </trkpt>
      <trkpt lat="44.3442" lon="0.7856">
        <ele>120</ele>
        <time>2025-10-12T13:20:48.518Z</time>
      </trkpt>
      <trkpt lat="44.34421" lon="0.78559">
        <ele>120</ele>
        <time>2025-10-12T13:20:49.518Z</time>
      </trkpt>
      <trkpt lat="44.34421" lon="0.78558">
        <ele>120</ele>
        <time>2025-10-12T13:20:50.518Z</time>
      </trkpt>
      <trkpt lat="44.34422" lon="0.78556">
        <ele>120</ele>
        <time>2025-10-12T13:20:51.518Z</time>
      </trkpt>
      <trkpt lat="44.34422" lon="0.78555">
        <ele>120</ele>
        <time>2025-10-12T13:20:52.518Z</time>
      </trkpt>
      <trkpt lat="44.34423" lon="0.78554">
        <ele>120</ele>
        <time>2025-10-12T13:20:53.518Z</time>
      </trkpt>
      <trkpt lat="44.34423" lon="0.78553">
        <ele>119</ele>
        <time>2025-10-12T13:20:54.518Z</time>
      </trkpt>
      <trkpt lat="44.34424" lon="0.78552">
        <ele>120</ele>
        <time>2025-10-12T13:20:55.518Z</time>
      </trkpt>
      <trkpt lat="44.34425" lon="0.7855">
        <ele>120</ele>
        <time>2025-10-12T13:20:56.518Z</time>
      </trkpt>
      <trkpt lat="44.34426" lon="0.78549">
        <ele>120</ele>
        <time>2025-10-12T13:20:57.518Z</time>
      </trkpt>
      <trkpt lat="44.34426" lon="0.78548">
        <ele>120</ele>
        <time>2025-10-12T13:20:58.518Z</time>
      </trkpt>
      <trkpt lat="44.34427" lon="0.78547">
        <ele>120</ele>
        <time>2025-10-12T13:20:59.518Z</time>
      </trkpt>
      <trkpt lat="44.34427" lon="0.78546">
        <ele>120</ele>
        <time>2025-10-12T13:21:00.518Z</time>
      </trkpt>
      <trkpt lat="44.34428" lon="0.78544">
        <ele>120</ele>
        <time>2025-10-12T13:21:01.518Z</time>
      </trkpt>
      <trkpt lat="44.34428" lon="0.78543">
        <ele>120</ele>
        <time>2025-10-12T13:21:02.518Z</time>
      </trkpt>
      <trkpt lat="44.34429" lon="0.78542">
        <ele>120</ele>
        <time>2025-10-12T13:21:03.518Z</time>
      </trkpt>
      <trkpt lat="44.3443" lon="0.78541">
        <ele>120</ele>
        <time>2025-10-12T13:21:04.518Z</time>
      </trkpt>
      <trkpt lat="44.3443" lon="0.78539">
        <ele>120</ele>
        <time>2025-10-12T13:21:05.518Z</time>
      </trkpt>
      <trkpt lat="44.34431" lon="0.78538">
        <ele>120</ele>
        <time>2025-10-12T13:21:06.518Z</time>
      </trkpt>
      <trkpt lat="44.34432" lon="0.78537">
        <ele>121</ele>
        <time>2025-10-12T13:21:07.518Z</time>
      </trkpt>
      <trkpt lat="44.34432" lon="0.78536">
        <ele>121</ele>
        <time>2025-10-12T13:21:08.518Z</time>
      </trkpt>
      <trkpt lat="44.34433" lon="0.78535">
        <ele>121</ele>
        <time>2025-10-12T13:21:09.518Z</time>
      </trkpt>
      <trkpt lat="44.34434" lon="0.78534">
        <ele>121</ele>
        <time>2025-10-12T13:21:10.518Z</time>
      </trkpt>
      <trkpt lat="44.34434" lon="0.78532">
        <ele>122</ele>
        <time>2025-10-12T13:21:11.518Z</time>
      </trkpt>
      <trkpt lat="44.34435" lon="0.78531">
        <ele>122</ele>
        <time>2025-10-12T13:21:12.518Z</time>
      </trkpt>
      <trkpt lat="44.34435" lon="0.7853">
        <ele>122</ele>
        <time>2025-10-12T13:21:13.518Z</time>
      </trkpt>
      <trkpt lat="44.34436" lon="0.78529">
        <ele>122</ele>
        <time>2025-10-12T13:21:14.518Z</time>
      </trkpt>
      <trkpt lat="44.34437" lon="0.78528">
        <ele>122</ele>
        <time>2025-10-12T13:21:15.518Z</time>
      </trkpt>
      <trkpt lat="44.34437" lon="0.78527">
        <ele>122</ele>
        <time>2025-10-12T13:21:16.518Z</time>
      </trkpt>
      <trkpt lat="44.34438" lon="0.78526">
        <ele>122</ele>
        <time>2025-10-12T13:21:17.518Z</time>
      </trkpt>
      <trkpt lat="44.34438" lon="0.78525">
        <ele>122</ele>
        <time>2025-10-12T13:21:18.518Z</time>
      </trkpt>
      <trkpt lat="44.34439" lon="0.78523">
        <ele>122</ele>
        <time>2025-10-12T13:21:19.518Z</time>
      </trkpt>
      <trkpt lat="44.34439" lon="0.78522">
        <ele>122</ele>
        <time>2025-10-12T13:21:20.518Z</time>
      </trkpt>
      <trkpt lat="44.3444" lon="0.78521">
        <ele>122</ele>
        <time>2025-10-12T13:21:21.518Z</time>
      </trkpt>
      <trkpt lat="44.34441" lon="0.7852">
        <ele>123</ele>
        <time>2025-10-12T13:21:22.518Z</time>
      </trkpt>
      <trkpt lat="44.34441" lon="0.78519">
        <ele>123</ele>
        <time>2025-10-12T13:21:23.518Z</time>
      </trkpt>
      <trkpt lat="44.34442" lon="0.78517">
        <ele>123</ele>
        <time>2025-10-12T13:21:24.518Z</time>
      </trkpt>
      <trkpt lat="44.34443" lon="0.78516">
        <ele>123</ele>
        <time>2025-10-12T13:21:25.518Z</time>
      </trkpt>
      <trkpt lat="44.34443" lon="0.78515">
        <ele>123</ele>
        <time>2025-10-12T13:21:26.518Z</time>
      </trkpt>
      <trkpt lat="44.34444" lon="0.78513">
        <ele>123</ele>
        <time>2025-10-12T13:21:27.518Z</time>
      </trkpt>
      <trkpt lat="44.34444" lon="0.78512">
        <ele>123</ele>
        <time>2025-10-12T13:21:28.518Z</time>
      </trkpt>
      <trkpt lat="44.34445" lon="0.78511">
        <ele>123</ele>
        <time>2025-10-12T13:21:29.518Z</time>
      </trkpt>
      <trkpt lat="44.34446" lon="0.7851">
        <ele>123</ele>
        <time>2025-10-12T13:21:30.518Z</time>
      </trkpt>
      <trkpt lat="44.34446" lon="0.7851">
        <ele>123</ele>
        <time>2025-10-12T13:21:31.518Z</time>
      </trkpt>
      <trkpt lat="44.34447" lon="0.78508">
        <ele>123</ele>
        <time>2025-10-12T13:21:32.518Z</time>
      </trkpt>
      <trkpt lat="44.34448" lon="0.78507">
        <ele>123</ele>
        <time>2025-10-12T13:21:33.518Z</time>
      </trkpt>
      <trkpt lat="44.34448" lon="0.78506">
        <ele>122</ele>
        <time>2025-10-12T13:21:34.518Z</time>
      </trkpt>
      <trkpt lat="44.34448" lon="0.78504">
        <ele>122</ele>
        <time>2025-10-12T13:21:35.518Z</time>
      </trkpt>
      <trkpt lat="44.34449" lon="0.78503">
        <ele>122</ele>
        <time>2025-10-12T13:21:36.518Z</time>
      </trkpt>
      <trkpt lat="44.3445" lon="0.78503">
        <ele>122</ele>
        <time>2025-10-12T13:21:37.518Z</time>
      </trkpt>
      <trkpt lat="44.34451" lon="0.78502">
        <ele>122</ele>
        <time>2025-10-12T13:21:38.518Z</time>
      </trkpt>
      <trkpt lat="44.34452" lon="0.78501">
        <ele>122</ele>
        <time>2025-10-12T13:21:39.518Z</time>
      </trkpt>
      <trkpt lat="44.34453" lon="0.78501">
        <ele>122</ele>
        <time>2025-10-12T13:21:40.518Z</time>
      </trkpt>
      <trkpt lat="44.34453" lon="0.785">
        <ele>123</ele>
        <time>2025-10-12T13:21:41.518Z</time>
      </trkpt>
      <trkpt lat="44.34454" lon="0.78499">
        <ele>123</ele>
        <time>2025-10-12T13:21:42.518Z</time>
      </trkpt>
      <trkpt lat="44.34454" lon="0.78497">
        <ele>123</ele>
        <time>2025-10-12T13:21:43.518Z</time>
      </trkpt>
      <trkpt lat="44.34455" lon="0.78496">
        <ele>124</ele>
        <time>2025-10-12T13:21:44.518Z</time>
      </trkpt>
      <trkpt lat="44.34456" lon="0.78494">
        <ele>125</ele>
        <time>2025-10-12T13:21:45.518Z</time>
      </trkpt>
      <trkpt lat="44.34456" lon="0.78493">
        <ele>125</ele>
        <time>2025-10-12T13:21:46.518Z</time>
      </trkpt>
      <trkpt lat="44.34456" lon="0.78491">
        <ele>125</ele>
        <time>2025-10-12T13:21:47.518Z</time>
      </trkpt>
      <trkpt lat="44.34457" lon="0.7849">
        <ele>126</ele>
        <time>2025-10-12T13:21:48.518Z</time>
      </trkpt>
      <trkpt lat="44.34457" lon="0.78489">
        <ele>126</ele>
        <time>2025-10-12T13:21:49.518Z</time>
      </trkpt>
      <trkpt lat="44.34457" lon="0.78487">
        <ele>126</ele>
        <time>2025-10-12T13:21:50.518Z</time>
      </trkpt>
      <trkpt lat="44.34457" lon="0.78486">
        <ele>126</ele>
        <time>2025-10-12T13:21:51.518Z</time>
      </trkpt>
      <trkpt lat="44.34456" lon="0.78485">
        <ele>126</ele>
        <time>2025-10-12T13:21:52.518Z</time>
      </trkpt>
      <trkpt lat="44.34456" lon="0.78485">
        <ele>127</ele>
        <time>2025-10-12T13:21:53.518Z</time>
      </trkpt>
      <trkpt lat="44.34455" lon="0.78484">
        <ele>127</ele>
        <time>2025-10-12T13:21:54.518Z</time>
      </trkpt>
      <trkpt lat="44.34454" lon="0.78484">
        <ele>127</ele>
        <time>2025-10-12T13:21:55.518Z</time>
      </trkpt>
      <trkpt lat="44.34453" lon="0.78484">
        <ele>127</ele>
        <time>2025-10-12T13:21:56.518Z</time>
      </trkpt>
      <trkpt lat="44.34452" lon="0.78483">
        <ele>127</ele>
        <time>2025-10-12T13:21:57.518Z</time>
      </trkpt>
      <trkpt lat="44.34452" lon="0.78483">
        <ele>127</ele>
        <time>2025-10-12T13:21:58.518Z</time>
      </trkpt>
      <trkpt lat="44.34451" lon="0.78482">
        <ele>127</ele>
        <time>2025-10-12T13:21:59.518Z</time>
      </trkpt>
      <trkpt lat="44.3445" lon="0.78482">
        <ele>126</ele>
        <time>2025-10-12T13:22:00.518Z</time>
      </trkpt>
      <trkpt lat="44.34449" lon="0.78482">
        <ele>126</ele>
        <time>2025-10-12T13:22:01.518Z</time>
      </trkpt>
      <trkpt lat="44.34448" lon="0.78482">
        <ele>126</ele>
        <time>2025-10-12T13:22:02.518Z</time>
      </trkpt>
      <trkpt lat="44.34447" lon="0.78483">
        <ele>126</ele>
        <time>2025-10-12T13:22:03.518Z</time>
      </trkpt>
      <trkpt lat="44.34447" lon="0.78483">
        <ele>126</ele>
        <time>2025-10-12T13:22:04.518Z</time>
      </trkpt>
      <trkpt lat="44.34447" lon="0.78483">
        <ele>126</ele>
        <time>2025-10-12T13:22:05.518Z</time>
      </trkpt>
      <trkpt lat="44.34446" lon="0.78483">
        <ele>126</ele>
        <time>2025-10-12T13:22:06.518Z</time>
      </trkpt>
      <trkpt lat="44.34446" lon="0.78483">
        <ele>125</ele>
        <time>2025-10-12T13:22:07.518Z</time>
      </trkpt>
      <trkpt lat="44.34446" lon="0.78484">
        <ele>125</ele>
        <time>2025-10-12T13:22:08.518Z</time>
      </trkpt>
      <trkpt lat="44.34446" lon="0.78484">
        <ele>125</ele>
        <time>2025-10-12T13:22:09.518Z</time>
      </trkpt>
      <trkpt lat="44.34446" lon="0.78484">
        <ele>125</ele>
        <time>2025-10-12T13:22:10.518Z</time>
      </trkpt>
      <trkpt lat="44.34446" lon="0.78483">
        <ele>124</ele>
        <time>2025-10-12T13:22:11.518Z</time>
      </trkpt>
      <trkpt lat="44.34446" lon="0.78483">
        <ele>124</ele>
        <time>2025-10-12T13:22:12.518Z</time>
      </trkpt>
      <trkpt lat="44.34446" lon="0.78483">
        <ele>124</ele>
        <time>2025-10-12T13:22:13.518Z</time>
      </trkpt>
      <trkpt lat="44.34446" lon="0.78483">
        <ele>124</ele>
        <time>2025-10-12T13:22:14.518Z</time>
      </trkpt>
      <trkpt lat="44.34446" lon="0.78484">
        <ele>124</ele>
        <time>2025-10-12T13:22:15.518Z</time>
      </trkpt>
      <trkpt lat="44.34446" lon="0.78484">
        <ele>125</ele>
        <time>2025-10-12T13:22:16.518Z</time>
      </trkpt>
      <trkpt lat="44.34446" lon="0.78485">
        <ele>125</ele>
        <time>2025-10-12T13:22:17.518Z</time>
      </trkpt>
      <trkpt lat="44.34447" lon="0.78485">
        <ele>125</ele>
        <time>2025-10-12T13:22:18.518Z</time>
      </trkpt>
      <trkpt lat="44.34447" lon="0.78485">
        <ele>125</ele>
        <time>2025-10-12T13:22:19.518Z</time>
      </trkpt>
      <trkpt lat="44.34447" lon="0.78485">
        <ele>125</ele>
        <time>2025-10-12T13:22:20.518Z</time>
      </trkpt>
      <trkpt lat="44.34447" lon="0.78484">
        <ele>125</ele>
        <time>2025-10-12T13:22:21.518Z</time>
      </trkpt>
      <trkpt lat="44.34447" lon="0.78484">
        <ele>125</ele>
        <time>2025-10-12T13:22:22.518Z</time>
      </trkpt>
      <trkpt lat="44.34447" lon="0.78484">
        <ele>125</ele>
        <time>2025-10-12T13:22:23.518Z</time>
      </trkpt>
      <trkpt lat="44.34447" lon="0.78484">
        <ele>126</ele>
        <time>2025-10-12T13:22:24.518Z</time>
      </trkpt>
      <trkpt lat="44.34446" lon="0.78483">
        <ele>126</ele>
        <time>2025-10-12T13:22:25.518Z</time>
      </trkpt>
      <trkpt lat="44.34446" lon="0.78483">
        <ele>126</ele>
        <time>2025-10-12T13:22:26.518Z</time>
      </trkpt>
      <trkpt lat="44.34446" lon="0.78483">
        <ele>126</ele>
        <time>2025-10-12T13:22:27.518Z</time>
      </trkpt>
      <trkpt lat="44.34445" lon="0.78483">
        <ele>127</ele>
        <time>2025-10-12T13:22:28.518Z</time>
      </trkpt>
      <trkpt lat="44.34445" lon="0.78482">
        <ele>127</ele>
        <time>2025-10-12T13:22:29.518Z</time>
      </trkpt>
      <trkpt lat="44.34445" lon="0.78482">
        <ele>127</ele>
        <time>2025-10-12T13:22:30.518Z</time>
      </trkpt>
      <trkpt lat="44.34445" lon="0.78481">
        <ele>127</ele>
        <time>2025-10-12T13:22:31.518Z</time>
      </trkpt>
      <trkpt lat="44.34446" lon="0.78481">
        <ele>127</ele>
        <time>2025-10-12T13:22:32.518Z</time>
      </trkpt>
      <trkpt lat="44.34446" lon="0.78481">
        <ele>127</ele>
        <time>2025-10-12T13:22:33.518Z</time>
      </trkpt>
      <trkpt lat="44.34446" lon="0.78481">
        <ele>127</ele>
        <time>2025-10-12T13:22:34.518Z</time>
      </trkpt>
      <trkpt lat="44.34446" lon="0.7848">
        <ele>127</ele>
        <time>2025-10-12T13:22:35.518Z</time>
      </trkpt>
      <trkpt lat="44.34446" lon="0.7848">
        <ele>128</ele>
        <time>2025-10-12T13:22:36.518Z</time>
      </trkpt>
      <trkpt lat="44.34446" lon="0.78481">
        <ele>128</ele>
        <time>2025-10-12T13:22:37.518Z</time>
      </trkpt>
      <trkpt lat="44.34446" lon="0.78481">
        <ele>128</ele>
        <time>2025-10-12T13:22:38.518Z</time>
      </trkpt>
      <trkpt lat="44.34446" lon="0.78481">
        <ele>128</ele>
        <time>2025-10-12T13:22:39.518Z</time>
      </trkpt>
      <trkpt lat="44.34446" lon="0.7848">
        <ele>128</ele>
        <time>2025-10-12T13:22:40.518Z</time>
      </trkpt>
      <trkpt lat="44.34446" lon="0.7848">
        <ele>128</ele>
        <time>2025-10-12T13:22:41.518Z</time>
      </trkpt>
      <trkpt lat="44.34446" lon="0.78481">
        <ele>128</ele>
        <time>2025-10-12T13:22:42.518Z</time>
      </trkpt>
      <trkpt lat="44.34446" lon="0.7848">
        <ele>127</ele>
        <time>2025-10-12T13:22:43.518Z</time>
      </trkpt>
      <trkpt lat="44.34446" lon="0.7848">
        <ele>127</ele>
        <time>2025-10-12T13:22:44.518Z</time>
      </trkpt>
      <trkpt lat="44.34446" lon="0.7848">
        <ele>126</ele>
        <time>2025-10-12T13:22:45.518Z</time>
      </trkpt>
      <trkpt lat="44.34446" lon="0.7848">
        <ele>126</ele>
        <time>2025-10-12T13:22:46.518Z</time>
      </trkpt>
      <trkpt lat="44.34446" lon="0.7848">
        <ele>125</ele>
        <time>2025-10-12T13:22:47.518Z</time>
      </trkpt>
      <trkpt lat="44.34446" lon="0.7848">
        <ele>125</ele>
        <time>2025-10-12T13:22:48.518Z</time>
      </trkpt>
      <trkpt lat="44.34446" lon="0.7848">
        <ele>124</ele>
        <time>2025-10-12T13:22:49.518Z</time>
      </trkpt>
      <trkpt lat="44.34446" lon="0.7848">
        <ele>124</ele>
        <time>2025-10-12T13:22:50.518Z</time>
      </trkpt>
      <trkpt lat="44.34446" lon="0.7848">
        <ele>123</ele>
        <time>2025-10-12T13:22:51.518Z</time>
      </trkpt>
      <trkpt lat="44.34446" lon="0.7848">
        <ele>123</ele>
        <time>2025-10-12T13:22:52.518Z</time>
      </trkpt>
      <trkpt lat="44.34446" lon="0.7848">
        <ele>123</ele>
        <time>2025-10-12T13:22:53.518Z</time>
      </trkpt>
      <trkpt lat="44.34446" lon="0.7848">
        <ele>122</ele>
        <time>2025-10-12T13:22:54.518Z</time>
      </trkpt>
      <trkpt lat="44.34446" lon="0.78481">
        <ele>122</ele>
        <time>2025-10-12T13:22:55.518Z</time>
      </trkpt>
      <trkpt lat="44.34446" lon="0.78481">
        <ele>122</ele>
        <time>2025-10-12T13:22:56.518Z</time>
      </trkpt>
      <trkpt lat="44.34446" lon="0.78481">
        <ele>121</ele>
        <time>2025-10-12T13:22:57.518Z</time>
      </trkpt>
      <trkpt lat="44.34446" lon="0.78481">
        <ele>121</ele>
        <time>2025-10-12T13:22:58.518Z</time>
      </trkpt>
      <trkpt lat="44.34446" lon="0.78481">
        <ele>121</ele>
        <time>2025-10-12T13:22:59.518Z</time>
      </trkpt>
      <trkpt lat="44.34446" lon="0.78481">
        <ele>122</ele>
        <time>2025-10-12T13:23:00.518Z</time>
      </trkpt>
      <trkpt lat="44.34446" lon="0.78481">
        <ele>122</ele>
        <time>2025-10-12T13:23:01.518Z</time>
      </trkpt>
      <trkpt lat="44.34446" lon="0.78481">
        <ele>121</ele>
        <time>2025-10-12T13:23:02.518Z</time>
      </trkpt>
      <trkpt lat="44.34445" lon="0.78481">
        <ele>121</ele>
        <time>2025-10-12T13:23:03.518Z</time>
      </trkpt>
      <trkpt lat="44.34445" lon="0.78481">
        <ele>121</ele>
        <time>2025-10-12T13:23:04.518Z</time>
      </trkpt>
      <trkpt lat="44.34445" lon="0.78481">
        <ele>121</ele>
        <time>2025-10-12T13:23:05.518Z</time>
      </trkpt>
      <trkpt lat="44.34445" lon="0.78481">
        <ele>121</ele>
        <time>2025-10-12T13:23:06.518Z</time>
      </trkpt>
      <trkpt lat="44.34445" lon="0.78481">
        <ele>121</ele>
        <time>2025-10-12T13:23:07.518Z</time>
      </trkpt>
      <trkpt lat="44.34445" lon="0.78481">
        <ele>121</ele>
        <time>2025-10-12T13:23:08.518Z</time>
      </trkpt>
      <trkpt lat="44.34445" lon="0.78481">
        <ele>122</ele>
        <time>2025-10-12T13:23:09.518Z</time>
      </trkpt>
      <trkpt lat="44.34445" lon="0.78481">
        <ele>122</ele>
        <time>2025-10-12T13:23:10.518Z</time>
      </trkpt>
      <trkpt lat="44.34445" lon="0.78481">
        <ele>122</ele>
        <time>2025-10-12T13:23:11.518Z</time>
      </trkpt>
      <trkpt lat="44.34445" lon="0.78481">
        <ele>122</ele>
        <time>2025-10-12T13:23:12.518Z</time>
      </trkpt>
      <trkpt lat="44.34445" lon="0.78481">
        <ele>122</ele>
        <time>2025-10-12T13:23:13.518Z</time>
      </trkpt>
      <trkpt lat="44.34444" lon="0.78481">
        <ele>122</ele>
        <time>2025-10-12T13:23:14.518Z</time>
      </trkpt>
      <trkpt lat="44.34444" lon="0.78481">
        <ele>123</ele>
        <time>2025-10-12T13:23:15.518Z</time>
      </trkpt>
      <trkpt lat="44.34444" lon="0.78481">
        <ele>123</ele>
        <time>2025-10-12T13:23:16.518Z</time>
      </trkpt>
      <trkpt lat="44.34444" lon="0.78481">
        <ele>125</ele>
        <time>2025-10-12T13:23:17.518Z</time>
      </trkpt>
      <trkpt lat="44.34444" lon="0.78481">
        <ele>126</ele>
        <time>2025-10-12T13:23:18.518Z</time>
      </trkpt>
      <trkpt lat="44.34444" lon="0.78481">
        <ele>126</ele>
        <time>2025-10-12T13:23:19.518Z</time>
      </trkpt>
      <trkpt lat="44.34444" lon="0.78481">
        <ele>127</ele>
        <time>2025-10-12T13:23:20.518Z</time>
      </trkpt>
      <trkpt lat="44.34444" lon="0.78481">
        <ele>127</ele>
        <time>2025-10-12T13:23:21.518Z</time>
      </trkpt>
      <trkpt lat="44.34444" lon="0.78481">
        <ele>128</ele>
        <time>2025-10-12T13:23:22.518Z</time>
      </trkpt>
      <trkpt lat="44.34444" lon="0.78481">
        <ele>128</ele>
        <time>2025-10-12T13:23:23.518Z</time>
      </trkpt>
      <trkpt lat="44.34444" lon="0.78481">
        <ele>128</ele>
        <time>2025-10-12T13:23:24.518Z</time>
      </trkpt>
      <trkpt lat="44.34444" lon="0.78481">
        <ele>128</ele>
        <time>2025-10-12T13:23:25.518Z</time>
      </trkpt>
      <trkpt lat="44.34444" lon="0.78481">
        <ele>128</ele>
        <time>2025-10-12T13:23:26.518Z</time>
      </trkpt>
      <trkpt lat="44.34444" lon="0.78481">
        <ele>128</ele>
        <time>2025-10-12T13:23:27.518Z</time>
      </trkpt>
      <trkpt lat="44.34444" lon="0.78481">
        <ele>128</ele>
        <time>2025-10-12T13:23:28.518Z</time>
      </trkpt>
      <trkpt lat="44.34444" lon="0.78481">
        <ele>128</ele>
        <time>2025-10-12T13:23:29.518Z</time>
      </trkpt>
      <trkpt lat="44.34443" lon="0.78481">
        <ele>128</ele>
        <time>2025-10-12T13:23:30.518Z</time>
      </trkpt>
      <trkpt lat="44.34443" lon="0.78481">
        <ele>128</ele>
        <time>2025-10-12T13:23:31.518Z</time>
      </trkpt>
      <trkpt lat="44.34442" lon="0.7848">
        <ele>127</ele>
        <time>2025-10-12T13:23:32.518Z</time>
      </trkpt>
      <trkpt lat="44.34442" lon="0.7848">
        <ele>127</ele>
        <time>2025-10-12T13:23:33.518Z</time>
      </trkpt>
      <trkpt lat="44.34442" lon="0.78481">
        <ele>126</ele>
        <time>2025-10-12T13:23:34.518Z</time>
      </trkpt>
      <trkpt lat="44.34442" lon="0.78481">
        <ele>126</ele>
        <time>2025-10-12T13:23:35.518Z</time>
      </trkpt>
      <trkpt lat="44.34443" lon="0.78481">
        <ele>125</ele>
        <time>2025-10-12T13:23:36.518Z</time>
      </trkpt>
      <trkpt lat="44.34443" lon="0.78481">
        <ele>125</ele>
        <time>2025-10-12T13:23:37.518Z</time>
      </trkpt>
      <trkpt lat="44.34443" lon="0.78481">
        <ele>124</ele>
        <time>2025-10-12T13:23:38.518Z</time>
      </trkpt>
      <trkpt lat="44.34443" lon="0.78481">
        <ele>124</ele>
        <time>2025-10-12T13:23:39.518Z</time>
      </trkpt>
      <trkpt lat="44.34443" lon="0.78481">
        <ele>124</ele>
        <time>2025-10-12T13:23:40.518Z</time>
      </trkpt>
      <trkpt lat="44.34443" lon="0.78481">
        <ele>124</ele>
        <time>2025-10-12T13:23:41.518Z</time>
      </trkpt>
      <trkpt lat="44.34443" lon="0.78481">
        <ele>124</ele>
        <time>2025-10-12T13:23:42.518Z</time>
      </trkpt>
      <trkpt lat="44.34443" lon="0.78481">
        <ele>123</ele>
        <time>2025-10-12T13:23:43.518Z</time>
      </trkpt>
      <trkpt lat="44.34443" lon="0.78481">
        <ele>123</ele>
        <time>2025-10-12T13:23:44.518Z</time>
      </trkpt>
      <trkpt lat="44.34443" lon="0.78481">
        <ele>124</ele>
        <time>2025-10-12T13:23:45.518Z</time>
      </trkpt>
      <trkpt lat="44.34443" lon="0.78481">
        <ele>124</ele>
        <time>2025-10-12T13:23:46.518Z</time>
      </trkpt>
      <trkpt lat="44.34443" lon="0.78481">
        <ele>124</ele>
        <time>2025-10-12T13:23:47.518Z</time>
      </trkpt>
      <trkpt lat="44.34443" lon="0.78481">
        <ele>125</ele>
        <time>2025-10-12T13:23:48.518Z</time>
      </trkpt>
      <trkpt lat="44.34443" lon="0.78481">
        <ele>125</ele>
        <time>2025-10-12T13:23:49.518Z</time>
      </trkpt>
      <trkpt lat="44.34443" lon="0.78481">
        <ele>125</ele>
        <time>2025-10-12T13:23:50.518Z</time>
      </trkpt>
      <trkpt lat="44.34443" lon="0.78481">
        <ele>124</ele>
        <time>2025-10-12T13:23:51.518Z</time>
      </trkpt>
      <trkpt lat="44.34443" lon="0.78481">
        <ele>124</ele>
        <time>2025-10-12T13:23:52.518Z</time>
      </trkpt>
      <trkpt lat="44.34443" lon="0.78481">
        <ele>124</ele>
        <time>2025-10-12T13:23:53.518Z</time>
      </trkpt>
      <trkpt lat="44.34443" lon="0.78481">
        <ele>124</ele>
        <time>2025-10-12T13:23:54.518Z</time>
      </trkpt>
      <trkpt lat="44.34443" lon="0.78481">
        <ele>125</ele>
        <time>2025-10-12T13:23:55.518Z</time>
      </trkpt>
      <trkpt lat="44.34444" lon="0.78481">
        <ele>125</ele>
        <time>2025-10-12T13:23:56.518Z</time>
      </trkpt>
      <trkpt lat="44.34444" lon="0.78481">
        <ele>125</ele>
        <time>2025-10-12T13:23:57.518Z</time>
      </trkpt>
      <trkpt lat="44.34444" lon="0.78481">
        <ele>125</ele>
        <time>2025-10-12T13:23:58.518Z</time>
      </trkpt>
      <trkpt lat="44.34444" lon="0.78481">
        <ele>125</ele>
        <time>2025-10-12T13:23:59.518Z</time>
      </trkpt>
      <trkpt lat="44.34444" lon="0.78481">
        <ele>125</ele>
        <time>2025-10-12T13:24:00.518Z</time>
      </trkpt>
      <trkpt lat="44.34444" lon="0.78481">
        <ele>125</ele>
        <time>2025-10-12T13:24:01.518Z</time>
      </trkpt>
      <trkpt lat="44.34444" lon="0.78481">
        <ele>125</ele>
        <time>2025-10-12T13:24:02.518Z</time>
      </trkpt>
      <trkpt lat="44.34444" lon="0.78481">
        <ele>125</ele>
        <time>2025-10-12T13:24:03.518Z</time>
      </trkpt>
      <trkpt lat="44.34444" lon="0.78481">
        <ele>125</ele>
        <time>2025-10-12T13:24:04.518Z</time>
      </trkpt>
      <trkpt lat="44.34444" lon="0.78481">
        <ele>125</ele>
        <time>2025-10-12T13:24:05.518Z</time>
      </trkpt>
      <trkpt lat="44.34444" lon="0.78481">
        <ele>125</ele>
        <time>2025-10-12T13:24:06.518Z</time>
      </trkpt>
      <trkpt lat="44.34443" lon="0.78481">
        <ele>125</ele>
        <time>2025-10-12T13:24:07.518Z</time>
      </trkpt>
      <trkpt lat="44.34443" lon="0.7848">
        <ele>125</ele>
        <time>2025-10-12T13:24:08.518Z</time>
      </trkpt>
      <trkpt lat="44.34442" lon="0.7848">
        <ele>124</ele>
        <time>2025-10-12T13:24:09.518Z</time>
      </trkpt>
      <trkpt lat="44.34441" lon="0.7848">
        <ele>124</ele>
        <time>2025-10-12T13:24:10.518Z</time>
      </trkpt>
      <trkpt lat="44.34441" lon="0.78479">
        <ele>123</ele>
        <time>2025-10-12T13:24:11.518Z</time>
      </trkpt>
      <trkpt lat="44.3444" lon="0.78478">
        <ele>123</ele>
        <time>2025-10-12T13:24:12.518Z</time>
      </trkpt>
      <trkpt lat="44.34439" lon="0.78477">
        <ele>123</ele>
        <time>2025-10-12T13:24:13.518Z</time>
      </trkpt>
      <trkpt lat="44.34438" lon="0.78476">
        <ele>122</ele>
        <time>2025-10-12T13:24:14.518Z</time>
      </trkpt>
      <trkpt lat="44.34437" lon="0.78475">
        <ele>122</ele>
        <time>2025-10-12T13:24:15.518Z</time>
      </trkpt>
      <trkpt lat="44.34436" lon="0.78473">
        <ele>122</ele>
        <time>2025-10-12T13:24:16.518Z</time>
      </trkpt>
      <trkpt lat="44.34436" lon="0.78472">
        <ele>122</ele>
        <time>2025-10-12T13:24:17.518Z</time>
      </trkpt>
      <trkpt lat="44.34435" lon="0.78471">
        <ele>122</ele>
        <time>2025-10-12T13:24:18.518Z</time>
      </trkpt>
      <trkpt lat="44.34434" lon="0.78469">
        <ele>122</ele>
        <time>2025-10-12T13:24:19.518Z</time>
      </trkpt>
      <trkpt lat="44.34433" lon="0.78467">
        <ele>121</ele>
        <time>2025-10-12T13:24:20.518Z</time>
      </trkpt>
      <trkpt lat="44.34433" lon="0.78466">
        <ele>121</ele>
        <time>2025-10-12T13:24:21.518Z</time>
      </trkpt>
      <trkpt lat="44.34433" lon="0.78464">
        <ele>121</ele>
        <time>2025-10-12T13:24:22.518Z</time>
      </trkpt>
      <trkpt lat="44.34432" lon="0.78463">
        <ele>121</ele>
        <time>2025-10-12T13:24:23.518Z</time>
      </trkpt>
      <trkpt lat="44.34431" lon="0.78461">
        <ele>121</ele>
        <time>2025-10-12T13:24:24.518Z</time>
      </trkpt>
      <trkpt lat="44.34431" lon="0.7846">
        <ele>121</ele>
        <time>2025-10-12T13:24:25.518Z</time>
      </trkpt>
      <trkpt lat="44.3443" lon="0.78458">
        <ele>121</ele>
        <time>2025-10-12T13:24:26.518Z</time>
      </trkpt>
      <trkpt lat="44.3443" lon="0.78457">
        <ele>120</ele>
        <time>2025-10-12T13:24:27.518Z</time>
      </trkpt>
      <trkpt lat="44.3443" lon="0.78455">
        <ele>120</ele>
        <time>2025-10-12T13:24:28.518Z</time>
      </trkpt>
      <trkpt lat="44.34429" lon="0.78454">
        <ele>120</ele>
        <time>2025-10-12T13:24:29.518Z</time>
      </trkpt>
      <trkpt lat="44.34429" lon="0.78452">
        <ele>120</ele>
        <time>2025-10-12T13:24:30.518Z</time>
      </trkpt>
      <trkpt lat="44.34428" lon="0.7845">
        <ele>120</ele>
        <time>2025-10-12T13:24:31.518Z</time>
      </trkpt>
      <trkpt lat="44.34427" lon="0.78449">
        <ele>120</ele>
        <time>2025-10-12T13:24:32.518Z</time>
      </trkpt>
      <trkpt lat="44.34427" lon="0.78448">
        <ele>120</ele>
        <time>2025-10-12T13:24:33.518Z</time>
      </trkpt>
      <trkpt lat="44.34426" lon="0.78447">
        <ele>120</ele>
        <time>2025-10-12T13:24:34.518Z</time>
      </trkpt>
      <trkpt lat="44.34425" lon="0.78446">
        <ele>120</ele>
        <time>2025-10-12T13:24:35.518Z</time>
      </trkpt>
      <trkpt lat="44.34424" lon="0.78445">
        <ele>120</ele>
        <time>2025-10-12T13:24:36.518Z</time>
      </trkpt>
      <trkpt lat="44.34424" lon="0.78443">
        <ele>120</ele>
        <time>2025-10-12T13:24:37.518Z</time>
      </trkpt>
      <trkpt lat="44.34423" lon="0.78442">
        <ele>120</ele>
        <time>2025-10-12T13:24:38.518Z</time>
      </trkpt>
      <trkpt lat="44.34422" lon="0.78441">
        <ele>120</ele>
        <time>2025-10-12T13:24:39.518Z</time>
      </trkpt>
      <trkpt lat="44.34422" lon="0.78439">
        <ele>120</ele>
        <time>2025-10-12T13:24:40.518Z</time>
      </trkpt>
      <trkpt lat="44.34421" lon="0.78438">
        <ele>120</ele>
        <time>2025-10-12T13:24:41.518Z</time>
      </trkpt>
      <trkpt lat="44.3442" lon="0.78436">
        <ele>120</ele>
        <time>2025-10-12T13:24:42.518Z</time>
      </trkpt>
      <trkpt lat="44.3442" lon="0.78435">
        <ele>120</ele>
        <time>2025-10-12T13:24:43.518Z</time>
      </trkpt>
      <trkpt lat="44.34419" lon="0.78433">
        <ele>121</ele>
        <time>2025-10-12T13:24:44.518Z</time>
      </trkpt>
      <trkpt lat="44.34418" lon="0.78432">
        <ele>121</ele>
        <time>2025-10-12T13:24:45.518Z</time>
      </trkpt>
      <trkpt lat="44.34417" lon="0.78431">
        <ele>121</ele>
        <time>2025-10-12T13:24:46.518Z</time>
      </trkpt>
      <trkpt lat="44.34417" lon="0.78429">
        <ele>121</ele>
        <time>2025-10-12T13:24:47.518Z</time>
      </trkpt>
      <trkpt lat="44.34416" lon="0.78428">
        <ele>121</ele>
        <time>2025-10-12T13:24:48.518Z</time>
      </trkpt>
      <trkpt lat="44.34415" lon="0.78427">
        <ele>121</ele>
        <time>2025-10-12T13:24:49.518Z</time>
      </trkpt>
      <trkpt lat="44.34414" lon="0.78426">
        <ele>121</ele>
        <time>2025-10-12T13:24:50.518Z</time>
      </trkpt>
      <trkpt lat="44.34413" lon="0.78424">
        <ele>121</ele>
        <time>2025-10-12T13:24:51.518Z</time>
      </trkpt>
      <trkpt lat="44.34413" lon="0.78423">
        <ele>121</ele>
        <time>2025-10-12T13:24:52.518Z</time>
      </trkpt>
      <trkpt lat="44.34412" lon="0.78422">
        <ele>121</ele>
        <time>2025-10-12T13:24:53.518Z</time>
      </trkpt>
      <trkpt lat="44.34411" lon="0.78421">
        <ele>121</ele>
        <time>2025-10-12T13:24:54.518Z</time>
      </trkpt>
      <trkpt lat="44.3441" lon="0.7842">
        <ele>121</ele>
        <time>2025-10-12T13:24:55.518Z</time>
      </trkpt>
      <trkpt lat="44.34409" lon="0.78418">
        <ele>121</ele>
        <time>2025-10-12T13:24:56.518Z</time>
      </trkpt>
      <trkpt lat="44.34408" lon="0.78417">
        <ele>121</ele>
        <time>2025-10-12T13:24:57.518Z</time>
      </trkpt>
      <trkpt lat="44.34407" lon="0.78416">
        <ele>121</ele>
        <time>2025-10-12T13:24:58.518Z</time>
      </trkpt>
      <trkpt lat="44.34406" lon="0.78415">
        <ele>121</ele>
        <time>2025-10-12T13:24:59.518Z</time>
      </trkpt>
      <trkpt lat="44.34406" lon="0.78414">
        <ele>122</ele>
        <time>2025-10-12T13:25:00.518Z</time>
      </trkpt>
      <trkpt lat="44.34405" lon="0.78413">
        <ele>121</ele>
        <time>2025-10-12T13:25:01.518Z</time>
      </trkpt>
      <trkpt lat="44.34404" lon="0.78412">
        <ele>121</ele>
        <time>2025-10-12T13:25:02.518Z</time>
      </trkpt>
      <trkpt lat="44.34403" lon="0.78411">
        <ele>121</ele>
        <time>2025-10-12T13:25:03.518Z</time>
      </trkpt>
      <trkpt lat="44.34402" lon="0.7841">
        <ele>121</ele>
        <time>2025-10-12T13:25:04.518Z</time>
      </trkpt>
      <trkpt lat="44.34401" lon="0.78409">
        <ele>121</ele>
        <time>2025-10-12T13:25:05.518Z</time>
      </trkpt>
      <trkpt lat="44.344" lon="0.78408">
        <ele>121</ele>
        <time>2025-10-12T13:25:06.518Z</time>
      </trkpt>
      <trkpt lat="44.34399" lon="0.78407">
        <ele>121</ele>
        <time>2025-10-12T13:25:07.518Z</time>
      </trkpt>
      <trkpt lat="44.34398" lon="0.78406">
        <ele>121</ele>
        <time>2025-10-12T13:25:08.518Z</time>
      </trkpt>
      <trkpt lat="44.34397" lon="0.78405">
        <ele>121</ele>
        <time>2025-10-12T13:25:09.518Z</time>
      </trkpt>
      <trkpt lat="44.34396" lon="0.78404">
        <ele>121</ele>
        <time>2025-10-12T13:25:10.518Z</time>
      </trkpt>
      <trkpt lat="44.34395" lon="0.78403">
        <ele>121</ele>
        <time>2025-10-12T13:25:11.518Z</time>
      </trkpt>
      <trkpt lat="44.34394" lon="0.78403">
        <ele>121</ele>
        <time>2025-10-12T13:25:12.518Z</time>
      </trkpt>
      <trkpt lat="44.34393" lon="0.78402">
        <ele>121</ele>
        <time>2025-10-12T13:25:13.518Z</time>
      </trkpt>
      <trkpt lat="44.34392" lon="0.78402">
        <ele>120</ele>
        <time>2025-10-12T13:25:14.518Z</time>
      </trkpt>
      <trkpt lat="44.34391" lon="0.78401">
        <ele>120</ele>
        <time>2025-10-12T13:25:15.518Z</time>
      </trkpt>
      <trkpt lat="44.3439" lon="0.78399">
        <ele>120</ele>
        <time>2025-10-12T13:25:16.518Z</time>
      </trkpt>
      <trkpt lat="44.34389" lon="0.78398">
        <ele>120</ele>
        <time>2025-10-12T13:25:17.518Z</time>
      </trkpt>
      <trkpt lat="44.34388" lon="0.78398">
        <ele>120</ele>
        <time>2025-10-12T13:25:18.518Z</time>
      </trkpt>
      <trkpt lat="44.34387" lon="0.78397">
        <ele>120</ele>
        <time>2025-10-12T13:25:19.518Z</time>
      </trkpt>
      <trkpt lat="44.34386" lon="0.78397">
        <ele>120</ele>
        <time>2025-10-12T13:25:20.518Z</time>
      </trkpt>
      <trkpt lat="44.34385" lon="0.78396">
        <ele>120</ele>
        <time>2025-10-12T13:25:21.518Z</time>
      </trkpt>
      <trkpt lat="44.34383" lon="0.78395">
        <ele>120</ele>
        <time>2025-10-12T13:25:22.518Z</time>
      </trkpt>
      <trkpt lat="44.34382" lon="0.78395">
        <ele>120</ele>
        <time>2025-10-12T13:25:23.518Z</time>
      </trkpt>
      <trkpt lat="44.34381" lon="0.78395">
        <ele>121</ele>
        <time>2025-10-12T13:25:24.518Z</time>
      </trkpt>
      <trkpt lat="44.3438" lon="0.78394">
        <ele>121</ele>
        <time>2025-10-12T13:25:25.518Z</time>
      </trkpt>
      <trkpt lat="44.34379" lon="0.78394">
        <ele>122</ele>
        <time>2025-10-12T13:25:26.518Z</time>
      </trkpt>
      <trkpt lat="44.34378" lon="0.78393">
        <ele>122</ele>
        <time>2025-10-12T13:25:27.518Z</time>
      </trkpt>
      <trkpt lat="44.34377" lon="0.78393">
        <ele>122</ele>
        <time>2025-10-12T13:25:28.518Z</time>
      </trkpt>
      <trkpt lat="44.34376" lon="0.78392">
        <ele>121</ele>
        <time>2025-10-12T13:25:29.518Z</time>
      </trkpt>
      <trkpt lat="44.34375" lon="0.78391">
        <ele>121</ele>
        <time>2025-10-12T13:25:30.518Z</time>
      </trkpt>
      <trkpt lat="44.34374" lon="0.78391">
        <ele>121</ele>
        <time>2025-10-12T13:25:31.518Z</time>
      </trkpt>
      <trkpt lat="44.34373" lon="0.78391">
        <ele>120</ele>
        <time>2025-10-12T13:25:32.518Z</time>
      </trkpt>
      <trkpt lat="44.34372" lon="0.7839">
        <ele>120</ele>
        <time>2025-10-12T13:25:33.518Z</time>
      </trkpt>
      <trkpt lat="44.34371" lon="0.7839">
        <ele>120</ele>
        <time>2025-10-12T13:25:34.518Z</time>
      </trkpt>
      <trkpt lat="44.3437" lon="0.78389">
        <ele>120</ele>
        <time>2025-10-12T13:25:35.518Z</time>
      </trkpt>
      <trkpt lat="44.34369" lon="0.78389">
        <ele>120</ele>
        <time>2025-10-12T13:25:36.518Z</time>
      </trkpt>
      <trkpt lat="44.34368" lon="0.78389">
        <ele>120</ele>
        <time>2025-10-12T13:25:37.518Z</time>
      </trkpt>
      <trkpt lat="44.34367" lon="0.78389">
        <ele>119</ele>
        <time>2025-10-12T13:25:38.518Z</time>
      </trkpt>
      <trkpt lat="44.34366" lon="0.78389">
        <ele>119</ele>
        <time>2025-10-12T13:25:39.518Z</time>
      </trkpt>
      <trkpt lat="44.34366" lon="0.78389">
        <ele>119</ele>
        <time>2025-10-12T13:25:40.518Z</time>
      </trkpt>
      <trkpt lat="44.34365" lon="0.78389">
        <ele>119</ele>
        <time>2025-10-12T13:25:41.518Z</time>
      </trkpt>
      <trkpt lat="44.34364" lon="0.7839">
        <ele>119</ele>
        <time>2025-10-12T13:25:42.518Z</time>
      </trkpt>
      <trkpt lat="44.34364" lon="0.7839">
        <ele>119</ele>
        <time>2025-10-12T13:25:43.518Z</time>
      </trkpt>
      <trkpt lat="44.34364" lon="0.7839">
        <ele>119</ele>
        <time>2025-10-12T13:25:44.518Z</time>
      </trkpt>
      <trkpt lat="44.34363" lon="0.7839">
        <ele>119</ele>
        <time>2025-10-12T13:25:45.518Z</time>
      </trkpt>
      <trkpt lat="44.34363" lon="0.78389">
        <ele>120</ele>
        <time>2025-10-12T13:25:46.518Z</time>
      </trkpt>
      <trkpt lat="44.34362" lon="0.78389">
        <ele>120</ele>
        <time>2025-10-12T13:25:47.518Z</time>
      </trkpt>
      <trkpt lat="44.34361" lon="0.78389">
        <ele>119</ele>
        <time>2025-10-12T13:25:48.518Z</time>
      </trkpt>
      <trkpt lat="44.3436" lon="0.78388">
        <ele>119</ele>
        <time>2025-10-12T13:25:49.518Z</time>
      </trkpt>
      <trkpt lat="44.34358" lon="0.78388">
        <ele>119</ele>
        <time>2025-10-12T13:25:50.518Z</time>
      </trkpt>
      <trkpt lat="44.34358" lon="0.78388">
        <ele>119</ele>
        <time>2025-10-12T13:25:51.518Z</time>
      </trkpt>
      <trkpt lat="44.34357" lon="0.78388">
        <ele>118</ele>
        <time>2025-10-12T13:25:52.518Z</time>
      </trkpt>
      <trkpt lat="44.34356" lon="0.78387">
        <ele>118</ele>
        <time>2025-10-12T13:25:53.518Z</time>
      </trkpt>
      <trkpt lat="44.34355" lon="0.78387">
        <ele>118</ele>
        <time>2025-10-12T13:25:54.518Z</time>
      </trkpt>
      <trkpt lat="44.34354" lon="0.78387">
        <ele>118</ele>
        <time>2025-10-12T13:25:55.518Z</time>
      </trkpt>
      <trkpt lat="44.34354" lon="0.78386">
        <ele>118</ele>
        <time>2025-10-12T13:25:56.518Z</time>
      </trkpt>
      <trkpt lat="44.34353" lon="0.78385">
        <ele>118</ele>
        <time>2025-10-12T13:25:57.518Z</time>
      </trkpt>
      <trkpt lat="44.34353" lon="0.78384">
        <ele>118</ele>
        <time>2025-10-12T13:25:58.518Z</time>
      </trkpt>
      <trkpt lat="44.34352" lon="0.78383">
        <ele>118</ele>
        <time>2025-10-12T13:25:59.518Z</time>
      </trkpt>
      <trkpt lat="44.34352" lon="0.78382">
        <ele>118</ele>
        <time>2025-10-12T13:26:00.518Z</time>
      </trkpt>
      <trkpt lat="44.34351" lon="0.78381">
        <ele>118</ele>
        <time>2025-10-12T13:26:01.518Z</time>
      </trkpt>
      <trkpt lat="44.3435" lon="0.78381">
        <ele>117</ele>
        <time>2025-10-12T13:26:02.518Z</time>
      </trkpt>
      <trkpt lat="44.34349" lon="0.7838">
        <ele>117</ele>
        <time>2025-10-12T13:26:03.518Z</time>
      </trkpt>
      <trkpt lat="44.34349" lon="0.78379">
        <ele>117</ele>
        <time>2025-10-12T13:26:04.518Z</time>
      </trkpt>
      <trkpt lat="44.34348" lon="0.78379">
        <ele>117</ele>
        <time>2025-10-12T13:26:05.518Z</time>
      </trkpt>
      <trkpt lat="44.34347" lon="0.78378">
        <ele>117</ele>
        <time>2025-10-12T13:26:06.518Z</time>
      </trkpt>
      <trkpt lat="44.34345" lon="0.78378">
        <ele>118</ele>
        <time>2025-10-12T13:26:07.518Z</time>
      </trkpt>
      <trkpt lat="44.34344" lon="0.78377">
        <ele>119</ele>
        <time>2025-10-12T13:26:08.518Z</time>
      </trkpt>
      <trkpt lat="44.34343" lon="0.78376">
        <ele>120</ele>
        <time>2025-10-12T13:26:09.518Z</time>
      </trkpt>
      <trkpt lat="44.34342" lon="0.78376">
        <ele>120</ele>
        <time>2025-10-12T13:26:10.518Z</time>
      </trkpt>
      <trkpt lat="44.34341" lon="0.78376">
        <ele>120</ele>
        <time>2025-10-12T13:26:11.518Z</time>
      </trkpt>
      <trkpt lat="44.34341" lon="0.78375">
        <ele>120</ele>
        <time>2025-10-12T13:26:12.518Z</time>
      </trkpt>
      <trkpt lat="44.3434" lon="0.78374">
        <ele>121</ele>
        <time>2025-10-12T13:26:13.518Z</time>
      </trkpt>
      <trkpt lat="44.34339" lon="0.78373">
        <ele>121</ele>
        <time>2025-10-12T13:26:14.518Z</time>
      </trkpt>
      <trkpt lat="44.34338" lon="0.78373">
        <ele>121</ele>
        <time>2025-10-12T13:26:15.518Z</time>
      </trkpt>
      <trkpt lat="44.34336" lon="0.78372">
        <ele>121</ele>
        <time>2025-10-12T13:26:16.518Z</time>
      </trkpt>
      <trkpt lat="44.34335" lon="0.78372">
        <ele>121</ele>
        <time>2025-10-12T13:26:17.518Z</time>
      </trkpt>
      <trkpt lat="44.34334" lon="0.78371">
        <ele>121</ele>
        <time>2025-10-12T13:26:18.518Z</time>
      </trkpt>
      <trkpt lat="44.34333" lon="0.7837">
        <ele>121</ele>
        <time>2025-10-12T13:26:19.518Z</time>
      </trkpt>
      <trkpt lat="44.34332" lon="0.7837">
        <ele>120</ele>
        <time>2025-10-12T13:26:20.518Z</time>
      </trkpt>
      <trkpt lat="44.34331" lon="0.78369">
        <ele>120</ele>
        <time>2025-10-12T13:26:21.518Z</time>
      </trkpt>
      <trkpt lat="44.3433" lon="0.78369">
        <ele>119</ele>
        <time>2025-10-12T13:26:22.518Z</time>
      </trkpt>
      <trkpt lat="44.34329" lon="0.78368">
        <ele>119</ele>
        <time>2025-10-12T13:26:23.518Z</time>
      </trkpt>
      <trkpt lat="44.34327" lon="0.78367">
        <ele>119</ele>
        <time>2025-10-12T13:26:24.518Z</time>
      </trkpt>
      <trkpt lat="44.34326" lon="0.78367">
        <ele>119</ele>
        <time>2025-10-12T13:26:25.518Z</time>
      </trkpt>
      <trkpt lat="44.34325" lon="0.78366">
        <ele>119</ele>
        <time>2025-10-12T13:26:26.518Z</time>
      </trkpt>
      <trkpt lat="44.34324" lon="0.78365">
        <ele>118</ele>
        <time>2025-10-12T13:26:27.518Z</time>
      </trkpt>
      <trkpt lat="44.34323" lon="0.78365">
        <ele>118</ele>
        <time>2025-10-12T13:26:28.518Z</time>
      </trkpt>
      <trkpt lat="44.34322" lon="0.78364">
        <ele>118</ele>
        <time>2025-10-12T13:26:29.518Z</time>
      </trkpt>
      <trkpt lat="44.34322" lon="0.78363">
        <ele>118</ele>
        <time>2025-10-12T13:26:30.518Z</time>
      </trkpt>
      <trkpt lat="44.34321" lon="0.78362">
        <ele>118</ele>
        <time>2025-10-12T13:26:31.518Z</time>
      </trkpt>
      <trkpt lat="44.3432" lon="0.78362">
        <ele>117</ele>
        <time>2025-10-12T13:26:32.518Z</time>
      </trkpt>
      <trkpt lat="44.34318" lon="0.78361">
        <ele>117</ele>
        <time>2025-10-12T13:26:33.518Z</time>
      </trkpt>
      <trkpt lat="44.34317" lon="0.7836">
        <ele>117</ele>
        <time>2025-10-12T13:26:34.518Z</time>
      </trkpt>
      <trkpt lat="44.34316" lon="0.78359">
        <ele>118</ele>
        <time>2025-10-12T13:26:35.518Z</time>
      </trkpt>
      <trkpt lat="44.34315" lon="0.78359">
        <ele>118</ele>
        <time>2025-10-12T13:26:36.518Z</time>
      </trkpt>
      <trkpt lat="44.34314" lon="0.78358">
        <ele>118</ele>
        <time>2025-10-12T13:26:37.518Z</time>
      </trkpt>
      <trkpt lat="44.34313" lon="0.78357">
        <ele>118</ele>
        <time>2025-10-12T13:26:38.518Z</time>
      </trkpt>
      <trkpt lat="44.34312" lon="0.78356">
        <ele>118</ele>
        <time>2025-10-12T13:26:39.518Z</time>
      </trkpt>
      <trkpt lat="44.34311" lon="0.78356">
        <ele>118</ele>
        <time>2025-10-12T13:26:40.518Z</time>
      </trkpt>
      <trkpt lat="44.34309" lon="0.78355">
        <ele>118</ele>
        <time>2025-10-12T13:26:41.518Z</time>
      </trkpt>
      <trkpt lat="44.34308" lon="0.78354">
        <ele>118</ele>
        <time>2025-10-12T13:26:42.518Z</time>
      </trkpt>
      <trkpt lat="44.34307" lon="0.78353">
        <ele>118</ele>
        <time>2025-10-12T13:26:43.518Z</time>
      </trkpt>
      <trkpt lat="44.34306" lon="0.78352">
        <ele>118</ele>
        <time>2025-10-12T13:26:44.518Z</time>
      </trkpt>
      <trkpt lat="44.34305" lon="0.78351">
        <ele>118</ele>
        <time>2025-10-12T13:26:45.518Z</time>
      </trkpt>
      <trkpt lat="44.34304" lon="0.78351">
        <ele>119</ele>
        <time>2025-10-12T13:26:46.518Z</time>
      </trkpt>
      <trkpt lat="44.34303" lon="0.7835">
        <ele>119</ele>
        <time>2025-10-12T13:26:47.518Z</time>
      </trkpt>
      <trkpt lat="44.34302" lon="0.78349">
        <ele>119</ele>
        <time>2025-10-12T13:26:48.518Z</time>
      </trkpt>
      <trkpt lat="44.34301" lon="0.78349">
        <ele>119</ele>
        <time>2025-10-12T13:26:49.518Z</time>
      </trkpt>
      <trkpt lat="44.34299" lon="0.78348">
        <ele>119</ele>
        <time>2025-10-12T13:26:50.518Z</time>
      </trkpt>
      <trkpt lat="44.34298" lon="0.78347">
        <ele>119</ele>
        <time>2025-10-12T13:26:51.518Z</time>
      </trkpt>
      <trkpt lat="44.34297" lon="0.78346">
        <ele>119</ele>
        <time>2025-10-12T13:26:52.518Z</time>
      </trkpt>
      <trkpt lat="44.34295" lon="0.78345">
        <ele>120</ele>
        <time>2025-10-12T13:26:53.518Z</time>
      </trkpt>
      <trkpt lat="44.34294" lon="0.78344">
        <ele>120</ele>
        <time>2025-10-12T13:26:54.518Z</time>
      </trkpt>
      <trkpt lat="44.34293" lon="0.78343">
        <ele>121</ele>
        <time>2025-10-12T13:26:55.518Z</time>
      </trkpt>
      <trkpt lat="44.34293" lon="0.78342">
        <ele>121</ele>
        <time>2025-10-12T13:26:56.518Z</time>
      </trkpt>
      <trkpt lat="44.34292" lon="0.78341">
        <ele>120</ele>
        <time>2025-10-12T13:26:57.518Z</time>
      </trkpt>
      <trkpt lat="44.34291" lon="0.78339">
        <ele>120</ele>
        <time>2025-10-12T13:26:58.518Z</time>
      </trkpt>
      <trkpt lat="44.34291" lon="0.78338">
        <ele>120</ele>
        <time>2025-10-12T13:26:59.518Z</time>
      </trkpt>
      <trkpt lat="44.3429" lon="0.78336">
        <ele>119</ele>
        <time>2025-10-12T13:27:00.518Z</time>
      </trkpt>
      <trkpt lat="44.34289" lon="0.78335">
        <ele>119</ele>
        <time>2025-10-12T13:27:01.518Z</time>
      </trkpt>
      <trkpt lat="44.34288" lon="0.78334">
        <ele>119</ele>
        <time>2025-10-12T13:27:02.518Z</time>
      </trkpt>
      <trkpt lat="44.34287" lon="0.78333">
        <ele>119</ele>
        <time>2025-10-12T13:27:03.518Z</time>
      </trkpt>
      <trkpt lat="44.34286" lon="0.78332">
        <ele>119</ele>
        <time>2025-10-12T13:27:04.518Z</time>
      </trkpt>
      <trkpt lat="44.34285" lon="0.78332">
        <ele>119</ele>
        <time>2025-10-12T13:27:05.518Z</time>
      </trkpt>
      <trkpt lat="44.34284" lon="0.78331">
        <ele>120</ele>
        <time>2025-10-12T13:27:06.518Z</time>
      </trkpt>
      <trkpt lat="44.34282" lon="0.7833">
        <ele>120</ele>
        <time>2025-10-12T13:27:07.518Z</time>
      </trkpt>
      <trkpt lat="44.34281" lon="0.78329">
        <ele>121</ele>
        <time>2025-10-12T13:27:08.518Z</time>
      </trkpt>
      <trkpt lat="44.3428" lon="0.78328">
        <ele>121</ele>
        <time>2025-10-12T13:27:09.518Z</time>
      </trkpt>
      <trkpt lat="44.34279" lon="0.78327">
        <ele>121</ele>
        <time>2025-10-12T13:27:10.518Z</time>
      </trkpt>
      <trkpt lat="44.34278" lon="0.78326">
        <ele>121</ele>
        <time>2025-10-12T13:27:11.518Z</time>
      </trkpt>
      <trkpt lat="44.34277" lon="0.78325">
        <ele>121</ele>
        <time>2025-10-12T13:27:12.518Z</time>
      </trkpt>
      <trkpt lat="44.34276" lon="0.78324">
        <ele>121</ele>
        <time>2025-10-12T13:27:13.518Z</time>
      </trkpt>
      <trkpt lat="44.34275" lon="0.78323">
        <ele>122</ele>
        <time>2025-10-12T13:27:14.518Z</time>
      </trkpt>
      <trkpt lat="44.34274" lon="0.78322">
        <ele>122</ele>
        <time>2025-10-12T13:27:15.518Z</time>
      </trkpt>
      <trkpt lat="44.34273" lon="0.78322">
        <ele>122</ele>
        <time>2025-10-12T13:27:16.518Z</time>
      </trkpt>
      <trkpt lat="44.34272" lon="0.78321">
        <ele>122</ele>
        <time>2025-10-12T13:27:17.518Z</time>
      </trkpt>
      <trkpt lat="44.34271" lon="0.78319">
        <ele>122</ele>
        <time>2025-10-12T13:27:18.518Z</time>
      </trkpt>
      <trkpt lat="44.3427" lon="0.78318">
        <ele>122</ele>
        <time>2025-10-12T13:27:19.518Z</time>
      </trkpt>
      <trkpt lat="44.34269" lon="0.78316">
        <ele>121</ele>
        <time>2025-10-12T13:27:20.518Z</time>
      </trkpt>
      <trkpt lat="44.34268" lon="0.78315">
        <ele>121</ele>
        <time>2025-10-12T13:27:21.518Z</time>
      </trkpt>
      <trkpt lat="44.34268" lon="0.78314">
        <ele>121</ele>
        <time>2025-10-12T13:27:22.518Z</time>
      </trkpt>
      <trkpt lat="44.34267" lon="0.78314">
        <ele>121</ele>
        <time>2025-10-12T13:27:23.518Z</time>
      </trkpt>
      <trkpt lat="44.34266" lon="0.78313">
        <ele>121</ele>
        <time>2025-10-12T13:27:24.518Z</time>
      </trkpt>
      <trkpt lat="44.34265" lon="0.78312">
        <ele>120</ele>
        <time>2025-10-12T13:27:25.518Z</time>
      </trkpt>
      <trkpt lat="44.34264" lon="0.78311">
        <ele>120</ele>
        <time>2025-10-12T13:27:26.518Z</time>
      </trkpt>
      <trkpt lat="44.34263" lon="0.7831">
        <ele>120</ele>
        <time>2025-10-12T13:27:27.518Z</time>
      </trkpt>
      <trkpt lat="44.34262" lon="0.78308">
        <ele>120</ele>
        <time>2025-10-12T13:27:28.518Z</time>
      </trkpt>
      <trkpt lat="44.34261" lon="0.78307">
        <ele>120</ele>
        <time>2025-10-12T13:27:29.518Z</time>
      </trkpt>
      <trkpt lat="44.3426" lon="0.78306">
        <ele>120</ele>
        <time>2025-10-12T13:27:30.518Z</time>
      </trkpt>
      <trkpt lat="44.34259" lon="0.78305">
        <ele>119</ele>
        <time>2025-10-12T13:27:31.518Z</time>
      </trkpt>
      <trkpt lat="44.34259" lon="0.78304">
        <ele>119</ele>
        <time>2025-10-12T13:27:32.518Z</time>
      </trkpt>
      <trkpt lat="44.34258" lon="0.78303">
        <ele>119</ele>
        <time>2025-10-12T13:27:33.518Z</time>
      </trkpt>
      <trkpt lat="44.34257" lon="0.78302">
        <ele>119</ele>
        <time>2025-10-12T13:27:34.518Z</time>
      </trkpt>
      <trkpt lat="44.34256" lon="0.783">
        <ele>119</ele>
        <time>2025-10-12T13:27:35.518Z</time>
      </trkpt>
      <trkpt lat="44.34255" lon="0.78299">
        <ele>119</ele>
        <time>2025-10-12T13:27:36.518Z</time>
      </trkpt>
      <trkpt lat="44.34254" lon="0.78298">
        <ele>119</ele>
        <time>2025-10-12T13:27:37.518Z</time>
      </trkpt>
      <trkpt lat="44.34253" lon="0.78297">
        <ele>119</ele>
        <time>2025-10-12T13:27:38.518Z</time>
      </trkpt>
      <trkpt lat="44.34252" lon="0.78296">
        <ele>120</ele>
        <time>2025-10-12T13:27:39.518Z</time>
      </trkpt>
      <trkpt lat="44.34251" lon="0.78295">
        <ele>120</ele>
        <time>2025-10-12T13:27:40.518Z</time>
      </trkpt>
      <trkpt lat="44.3425" lon="0.78294">
        <ele>120</ele>
        <time>2025-10-12T13:27:41.518Z</time>
      </trkpt>
      <trkpt lat="44.34249" lon="0.78293">
        <ele>121</ele>
        <time>2025-10-12T13:27:42.518Z</time>
      </trkpt>
      <trkpt lat="44.34248" lon="0.78292">
        <ele>120</ele>
        <time>2025-10-12T13:27:43.518Z</time>
      </trkpt>
      <trkpt lat="44.34247" lon="0.7829">
        <ele>120</ele>
        <time>2025-10-12T13:27:44.518Z</time>
      </trkpt>
      <trkpt lat="44.34246" lon="0.78289">
        <ele>120</ele>
        <time>2025-10-12T13:27:45.518Z</time>
      </trkpt>
      <trkpt lat="44.34245" lon="0.78288">
        <ele>120</ele>
        <time>2025-10-12T13:27:46.518Z</time>
      </trkpt>
      <trkpt lat="44.34244" lon="0.78287">
        <ele>120</ele>
        <time>2025-10-12T13:27:47.518Z</time>
      </trkpt>
      <trkpt lat="44.34243" lon="0.78286">
        <ele>120</ele>
        <time>2025-10-12T13:27:48.518Z</time>
      </trkpt>
      <trkpt lat="44.34243" lon="0.78285">
        <ele>119</ele>
        <time>2025-10-12T13:27:49.518Z</time>
      </trkpt>
      <trkpt lat="44.34242" lon="0.78283">
        <ele>119</ele>
        <time>2025-10-12T13:27:50.518Z</time>
      </trkpt>
      <trkpt lat="44.34241" lon="0.78282">
        <ele>119</ele>
        <time>2025-10-12T13:27:51.518Z</time>
      </trkpt>
      <trkpt lat="44.3424" lon="0.7828">
        <ele>120</ele>
        <time>2025-10-12T13:27:52.518Z</time>
      </trkpt>
      <trkpt lat="44.34239" lon="0.78279">
        <ele>120</ele>
        <time>2025-10-12T13:27:53.518Z</time>
      </trkpt>
      <trkpt lat="44.34238" lon="0.78278">
        <ele>120</ele>
        <time>2025-10-12T13:27:54.518Z</time>
      </trkpt>
      <trkpt lat="44.34238" lon="0.78277">
        <ele>120</ele>
        <time>2025-10-12T13:27:55.518Z</time>
      </trkpt>
      <trkpt lat="44.34237" lon="0.78276">
        <ele>120</ele>
        <time>2025-10-12T13:27:56.518Z</time>
      </trkpt>
      <trkpt lat="44.34236" lon="0.78275">
        <ele>120</ele>
        <time>2025-10-12T13:27:57.518Z</time>
      </trkpt>
      <trkpt lat="44.34234" lon="0.78274">
        <ele>120</ele>
        <time>2025-10-12T13:27:58.518Z</time>
      </trkpt>
      <trkpt lat="44.34233" lon="0.78273">
        <ele>120</ele>
        <time>2025-10-12T13:27:59.518Z</time>
      </trkpt>
      <trkpt lat="44.34233" lon="0.78272">
        <ele>120</ele>
        <time>2025-10-12T13:28:00.518Z</time>
      </trkpt>
      <trkpt lat="44.34232" lon="0.78271">
        <ele>120</ele>
        <time>2025-10-12T13:28:01.518Z</time>
      </trkpt>
      <trkpt lat="44.34231" lon="0.7827">
        <ele>119</ele>
        <time>2025-10-12T13:28:02.518Z</time>
      </trkpt>
      <trkpt lat="44.34231" lon="0.78269">
        <ele>119</ele>
        <time>2025-10-12T13:28:03.518Z</time>
      </trkpt>
      <trkpt lat="44.3423" lon="0.78269">
        <ele>119</ele>
        <time>2025-10-12T13:28:04.518Z</time>
      </trkpt>
      <trkpt lat="44.34228" lon="0.78268">
        <ele>119</ele>
        <time>2025-10-12T13:28:05.518Z</time>
      </trkpt>
      <trkpt lat="44.34228" lon="0.78267">
        <ele>119</ele>
        <time>2025-10-12T13:28:06.518Z</time>
      </trkpt>
      <trkpt lat="44.34227" lon="0.78266">
        <ele>118</ele>
        <time>2025-10-12T13:28:07.518Z</time>
      </trkpt>
      <trkpt lat="44.34226" lon="0.78265">
        <ele>119</ele>
        <time>2025-10-12T13:28:08.518Z</time>
      </trkpt>
      <trkpt lat="44.34225" lon="0.78263">
        <ele>119</ele>
        <time>2025-10-12T13:28:09.518Z</time>
      </trkpt>
      <trkpt lat="44.34224" lon="0.78262">
        <ele>119</ele>
        <time>2025-10-12T13:28:10.518Z</time>
      </trkpt>
      <trkpt lat="44.34223" lon="0.78262">
        <ele>119</ele>
        <time>2025-10-12T13:28:11.518Z</time>
      </trkpt>
      <trkpt lat="44.34223" lon="0.78261">
        <ele>119</ele>
        <time>2025-10-12T13:28:12.518Z</time>
      </trkpt>
      <trkpt lat="44.34221" lon="0.78261">
        <ele>119</ele>
        <time>2025-10-12T13:28:13.518Z</time>
      </trkpt>
      <trkpt lat="44.34219" lon="0.7826">
        <ele>119</ele>
        <time>2025-10-12T13:28:14.518Z</time>
      </trkpt>
      <trkpt lat="44.34218" lon="0.78259">
        <ele>119</ele>
        <time>2025-10-12T13:28:15.518Z</time>
      </trkpt>
      <trkpt lat="44.34217" lon="0.78258">
        <ele>119</ele>
        <time>2025-10-12T13:28:16.518Z</time>
      </trkpt>
      <trkpt lat="44.34215" lon="0.78257">
        <ele>119</ele>
        <time>2025-10-12T13:28:17.518Z</time>
      </trkpt>
      <trkpt lat="44.34215" lon="0.78256">
        <ele>119</ele>
        <time>2025-10-12T13:28:18.518Z</time>
      </trkpt>
      <trkpt lat="44.34214" lon="0.78255">
        <ele>119</ele>
        <time>2025-10-12T13:28:19.518Z</time>
      </trkpt>
      <trkpt lat="44.34213" lon="0.78254">
        <ele>119</ele>
        <time>2025-10-12T13:28:20.518Z</time>
      </trkpt>
      <trkpt lat="44.34213" lon="0.78252">
        <ele>119</ele>
        <time>2025-10-12T13:28:21.518Z</time>
      </trkpt>
      <trkpt lat="44.34212" lon="0.78251">
        <ele>119</ele>
        <time>2025-10-12T13:28:22.518Z</time>
      </trkpt>
      <trkpt lat="44.34211" lon="0.7825">
        <ele>118</ele>
        <time>2025-10-12T13:28:23.518Z</time>
      </trkpt>
      <trkpt lat="44.3421" lon="0.78249">
        <ele>118</ele>
        <time>2025-10-12T13:28:24.518Z</time>
      </trkpt>
      <trkpt lat="44.34209" lon="0.78248">
        <ele>118</ele>
        <time>2025-10-12T13:28:25.518Z</time>
      </trkpt>
      <trkpt lat="44.34208" lon="0.78247">
        <ele>118</ele>
        <time>2025-10-12T13:28:26.518Z</time>
      </trkpt>
      <trkpt lat="44.34207" lon="0.78246">
        <ele>119</ele>
        <time>2025-10-12T13:28:27.518Z</time>
      </trkpt>
      <trkpt lat="44.34206" lon="0.78244">
        <ele>119</ele>
        <time>2025-10-12T13:28:28.518Z</time>
      </trkpt>
      <trkpt lat="44.34205" lon="0.78243">
        <ele>119</ele>
        <time>2025-10-12T13:28:29.518Z</time>
      </trkpt>
      <trkpt lat="44.34204" lon="0.78242">
        <ele>119</ele>
        <time>2025-10-12T13:28:30.518Z</time>
      </trkpt>
      <trkpt lat="44.34203" lon="0.78241">
        <ele>119</ele>
        <time>2025-10-12T13:28:31.518Z</time>
      </trkpt>
      <trkpt lat="44.34202" lon="0.7824">
        <ele>119</ele>
        <time>2025-10-12T13:28:32.518Z</time>
      </trkpt>
      <trkpt lat="44.34201" lon="0.78239">
        <ele>119</ele>
        <time>2025-10-12T13:28:33.518Z</time>
      </trkpt>
      <trkpt lat="44.342" lon="0.78238">
        <ele>120</ele>
        <time>2025-10-12T13:28:34.518Z</time>
      </trkpt>
      <trkpt lat="44.34198" lon="0.78237">
        <ele>120</ele>
        <time>2025-10-12T13:28:35.518Z</time>
      </trkpt>
      <trkpt lat="44.34198" lon="0.78235">
        <ele>120</ele>
        <time>2025-10-12T13:28:36.518Z</time>
      </trkpt>
      <trkpt lat="44.34197" lon="0.78233">
        <ele>121</ele>
        <time>2025-10-12T13:28:37.518Z</time>
      </trkpt>
      <trkpt lat="44.34197" lon="0.78232">
        <ele>121</ele>
        <time>2025-10-12T13:28:38.518Z</time>
      </trkpt>
      <trkpt lat="44.34196" lon="0.78231">
        <ele>121</ele>
        <time>2025-10-12T13:28:39.518Z</time>
      </trkpt>
      <trkpt lat="44.34195" lon="0.7823">
        <ele>121</ele>
        <time>2025-10-12T13:28:40.518Z</time>
      </trkpt>
      <trkpt lat="44.34194" lon="0.78228">
        <ele>121</ele>
        <time>2025-10-12T13:28:41.518Z</time>
      </trkpt>
      <trkpt lat="44.34194" lon="0.78227">
        <ele>121</ele>
        <time>2025-10-12T13:28:42.518Z</time>
      </trkpt>
      <trkpt lat="44.34193" lon="0.78227">
        <ele>122</ele>
        <time>2025-10-12T13:28:43.518Z</time>
      </trkpt>
      <trkpt lat="44.34192" lon="0.78226">
        <ele>122</ele>
        <time>2025-10-12T13:28:44.518Z</time>
      </trkpt>
      <trkpt lat="44.34191" lon="0.78224">
        <ele>122</ele>
        <time>2025-10-12T13:28:45.518Z</time>
      </trkpt>
      <trkpt lat="44.34191" lon="0.78223">
        <ele>122</ele>
        <time>2025-10-12T13:28:46.518Z</time>
      </trkpt>
      <trkpt lat="44.3419" lon="0.78222">
        <ele>121</ele>
        <time>2025-10-12T13:28:47.518Z</time>
      </trkpt>
      <trkpt lat="44.34189" lon="0.78221">
        <ele>121</ele>
        <time>2025-10-12T13:28:48.518Z</time>
      </trkpt>
      <trkpt lat="44.34188" lon="0.7822">
        <ele>122</ele>
        <time>2025-10-12T13:28:49.518Z</time>
      </trkpt>
      <trkpt lat="44.34187" lon="0.78219">
        <ele>122</ele>
        <time>2025-10-12T13:28:50.518Z</time>
      </trkpt>
      <trkpt lat="44.34187" lon="0.78218">
        <ele>122</ele>
        <time>2025-10-12T13:28:51.518Z</time>
      </trkpt>
      <trkpt lat="44.34186" lon="0.78217">
        <ele>122</ele>
        <time>2025-10-12T13:28:52.518Z</time>
      </trkpt>
      <trkpt lat="44.34186" lon="0.78215">
        <ele>121</ele>
        <time>2025-10-12T13:28:53.518Z</time>
      </trkpt>
      <trkpt lat="44.34185" lon="0.78213">
        <ele>121</ele>
        <time>2025-10-12T13:28:54.518Z</time>
      </trkpt>
      <trkpt lat="44.34184" lon="0.78212">
        <ele>121</ele>
        <time>2025-10-12T13:28:55.518Z</time>
      </trkpt>
      <trkpt lat="44.34184" lon="0.78212">
        <ele>121</ele>
        <time>2025-10-12T13:28:56.518Z</time>
      </trkpt>
      <trkpt lat="44.34183" lon="0.78211">
        <ele>121</ele>
        <time>2025-10-12T13:28:57.518Z</time>
      </trkpt>
      <trkpt lat="44.34182" lon="0.78209">
        <ele>121</ele>
        <time>2025-10-12T13:28:58.518Z</time>
      </trkpt>
      <trkpt lat="44.34181" lon="0.78208">
        <ele>121</ele>
        <time>2025-10-12T13:28:59.518Z</time>
      </trkpt>
      <trkpt lat="44.34181" lon="0.78206">
        <ele>121</ele>
        <time>2025-10-12T13:29:00.518Z</time>
      </trkpt>
      <trkpt lat="44.3418" lon="0.78204">
        <ele>121</ele>
        <time>2025-10-12T13:29:01.518Z</time>
      </trkpt>
      <trkpt lat="44.34179" lon="0.78202">
        <ele>121</ele>
        <time>2025-10-12T13:29:02.518Z</time>
      </trkpt>
      <trkpt lat="44.34179" lon="0.78201">
        <ele>121</ele>
        <time>2025-10-12T13:29:03.518Z</time>
      </trkpt>
      <trkpt lat="44.34178" lon="0.782">
        <ele>121</ele>
        <time>2025-10-12T13:29:04.518Z</time>
      </trkpt>
      <trkpt lat="44.34177" lon="0.78198">
        <ele>122</ele>
        <time>2025-10-12T13:29:05.518Z</time>
      </trkpt>
      <trkpt lat="44.34176" lon="0.78197">
        <ele>122</ele>
        <time>2025-10-12T13:29:06.518Z</time>
      </trkpt>
      <trkpt lat="44.34176" lon="0.78196">
        <ele>122</ele>
        <time>2025-10-12T13:29:07.518Z</time>
      </trkpt>
      <trkpt lat="44.34175" lon="0.78194">
        <ele>121</ele>
        <time>2025-10-12T13:29:08.518Z</time>
      </trkpt>
      <trkpt lat="44.34174" lon="0.78193">
        <ele>121</ele>
        <time>2025-10-12T13:29:09.518Z</time>
      </trkpt>
      <trkpt lat="44.34173" lon="0.78192">
        <ele>120</ele>
        <time>2025-10-12T13:29:10.518Z</time>
      </trkpt>
      <trkpt lat="44.34172" lon="0.78191">
        <ele>120</ele>
        <time>2025-10-12T13:29:11.518Z</time>
      </trkpt>
      <trkpt lat="44.34171" lon="0.78189">
        <ele>120</ele>
        <time>2025-10-12T13:29:12.518Z</time>
      </trkpt>
      <trkpt lat="44.3417" lon="0.78188">
        <ele>120</ele>
        <time>2025-10-12T13:29:13.518Z</time>
      </trkpt>
      <trkpt lat="44.3417" lon="0.78187">
        <ele>120</ele>
        <time>2025-10-12T13:29:14.518Z</time>
      </trkpt>
      <trkpt lat="44.34169" lon="0.78186">
        <ele>120</ele>
        <time>2025-10-12T13:29:15.518Z</time>
      </trkpt>
      <trkpt lat="44.34168" lon="0.78185">
        <ele>120</ele>
        <time>2025-10-12T13:29:16.518Z</time>
      </trkpt>
      <trkpt lat="44.34167" lon="0.78184">
        <ele>120</ele>
        <time>2025-10-12T13:29:17.518Z</time>
      </trkpt>
      <trkpt lat="44.34167" lon="0.78182">
        <ele>120</ele>
        <time>2025-10-12T13:29:18.518Z</time>
      </trkpt>
      <trkpt lat="44.34166" lon="0.78181">
        <ele>120</ele>
        <time>2025-10-12T13:29:19.518Z</time>
      </trkpt>
      <trkpt lat="44.34165" lon="0.7818">
        <ele>120</ele>
        <time>2025-10-12T13:29:20.518Z</time>
      </trkpt>
      <trkpt lat="44.34164" lon="0.78179">
        <ele>121</ele>
        <time>2025-10-12T13:29:21.518Z</time>
      </trkpt>
      <trkpt lat="44.34164" lon="0.78177">
        <ele>121</ele>
        <time>2025-10-12T13:29:22.518Z</time>
      </trkpt>
      <trkpt lat="44.34163" lon="0.78176">
        <ele>121</ele>
        <time>2025-10-12T13:29:23.518Z</time>
      </trkpt>
      <trkpt lat="44.34162" lon="0.78175">
        <ele>121</ele>
        <time>2025-10-12T13:29:24.518Z</time>
      </trkpt>
      <trkpt lat="44.34161" lon="0.78174">
        <ele>121</ele>
        <time>2025-10-12T13:29:25.518Z</time>
      </trkpt>
      <trkpt lat="44.3416" lon="0.78173">
        <ele>122</ele>
        <time>2025-10-12T13:29:26.518Z</time>
      </trkpt>
      <trkpt lat="44.3416" lon="0.78171">
        <ele>122</ele>
        <time>2025-10-12T13:29:27.518Z</time>
      </trkpt>
      <trkpt lat="44.34159" lon="0.7817">
        <ele>123</ele>
        <time>2025-10-12T13:29:28.518Z</time>
      </trkpt>
      <trkpt lat="44.34159" lon="0.78168">
        <ele>123</ele>
        <time>2025-10-12T13:29:29.518Z</time>
      </trkpt>
      <trkpt lat="44.34158" lon="0.78166">
        <ele>123</ele>
        <time>2025-10-12T13:29:30.518Z</time>
      </trkpt>
      <trkpt lat="44.34158" lon="0.78165">
        <ele>124</ele>
        <time>2025-10-12T13:29:31.518Z</time>
      </trkpt>
      <trkpt lat="44.34157" lon="0.78163">
        <ele>124</ele>
        <time>2025-10-12T13:29:32.518Z</time>
      </trkpt>
      <trkpt lat="44.34157" lon="0.78162">
        <ele>124</ele>
        <time>2025-10-12T13:29:33.518Z</time>
      </trkpt>
      <trkpt lat="44.34156" lon="0.7816">
        <ele>124</ele>
        <time>2025-10-12T13:29:34.518Z</time>
      </trkpt>
      <trkpt lat="44.34155" lon="0.78158">
        <ele>125</ele>
        <time>2025-10-12T13:29:35.518Z</time>
      </trkpt>
      <trkpt lat="44.34155" lon="0.78157">
        <ele>125</ele>
        <time>2025-10-12T13:29:36.519Z</time>
      </trkpt>
      <trkpt lat="44.34154" lon="0.78155">
        <ele>125</ele>
        <time>2025-10-12T13:29:37.518Z</time>
      </trkpt>
      <trkpt lat="44.34153" lon="0.78153">
        <ele>125</ele>
        <time>2025-10-12T13:29:38.518Z</time>
      </trkpt>
      <trkpt lat="44.34153" lon="0.78151">
        <ele>125</ele>
        <time>2025-10-12T13:29:39.518Z</time>
      </trkpt>
      <trkpt lat="44.34152" lon="0.7815">
        <ele>125</ele>
        <time>2025-10-12T13:29:40.518Z</time>
      </trkpt>
      <trkpt lat="44.34152" lon="0.78149">
        <ele>125</ele>
        <time>2025-10-12T13:29:41.518Z</time>
      </trkpt>
      <trkpt lat="44.34151" lon="0.78148">
        <ele>125</ele>
        <time>2025-10-12T13:29:42.518Z</time>
      </trkpt>
      <trkpt lat="44.34151" lon="0.78145">
        <ele>125</ele>
        <time>2025-10-12T13:29:43.518Z</time>
      </trkpt>
      <trkpt lat="44.34151" lon="0.78143">
        <ele>125</ele>
        <time>2025-10-12T13:29:44.518Z</time>
      </trkpt>
      <trkpt lat="44.3415" lon="0.78142">
        <ele>125</ele>
        <time>2025-10-12T13:29:45.518Z</time>
      </trkpt>
      <trkpt lat="44.3415" lon="0.7814">
        <ele>125</ele>
        <time>2025-10-12T13:29:46.518Z</time>
      </trkpt>
      <trkpt lat="44.34149" lon="0.78139">
        <ele>125</ele>
        <time>2025-10-12T13:29:47.518Z</time>
      </trkpt>
      <trkpt lat="44.34149" lon="0.78138">
        <ele>125</ele>
        <time>2025-10-12T13:29:48.518Z</time>
      </trkpt>
      <trkpt lat="44.34149" lon="0.78136">
        <ele>125</ele>
        <time>2025-10-12T13:29:49.518Z</time>
      </trkpt>
      <trkpt lat="44.34148" lon="0.78135">
        <ele>125</ele>
        <time>2025-10-12T13:29:50.518Z</time>
      </trkpt>
      <trkpt lat="44.34148" lon="0.78133">
        <ele>125</ele>
        <time>2025-10-12T13:29:51.518Z</time>
      </trkpt>
      <trkpt lat="44.34147" lon="0.78132">
        <ele>125</ele>
        <time>2025-10-12T13:29:52.518Z</time>
      </trkpt>
      <trkpt lat="44.34147" lon="0.7813">
        <ele>126</ele>
        <time>2025-10-12T13:29:53.518Z</time>
      </trkpt>
      <trkpt lat="44.34146" lon="0.78129">
        <ele>126</ele>
        <time>2025-10-12T13:29:54.518Z</time>
      </trkpt>
      <trkpt lat="44.34146" lon="0.78128">
        <ele>126</ele>
        <time>2025-10-12T13:29:55.518Z</time>
      </trkpt>
      <trkpt lat="44.34146" lon="0.78127">
        <ele>126</ele>
        <time>2025-10-12T13:29:56.518Z</time>
      </trkpt>
      <trkpt lat="44.34145" lon="0.78125">
        <ele>126</ele>
        <time>2025-10-12T13:29:57.518Z</time>
      </trkpt>
      <trkpt lat="44.34144" lon="0.78123">
        <ele>126</ele>
        <time>2025-10-12T13:29:58.518Z</time>
      </trkpt>
      <trkpt lat="44.34144" lon="0.78122">
        <ele>126</ele>
        <time>2025-10-12T13:29:59.518Z</time>
      </trkpt>
      <trkpt lat="44.34143" lon="0.78121">
        <ele>126</ele>
        <time>2025-10-12T13:30:00.518Z</time>
      </trkpt>
      <trkpt lat="44.34143" lon="0.7812">
        <ele>126</ele>
        <time>2025-10-12T13:30:01.518Z</time>
      </trkpt>
      <trkpt lat="44.34143" lon="0.78118">
        <ele>126</ele>
        <time>2025-10-12T13:30:02.518Z</time>
      </trkpt>
      <trkpt lat="44.34142" lon="0.78117">
        <ele>126</ele>
        <time>2025-10-12T13:30:03.518Z</time>
      </trkpt>
      <trkpt lat="44.34142" lon="0.78116">
        <ele>126</ele>
        <time>2025-10-12T13:30:04.518Z</time>
      </trkpt>
      <trkpt lat="44.34141" lon="0.78115">
        <ele>126</ele>
        <time>2025-10-12T13:30:05.518Z</time>
      </trkpt>
      <trkpt lat="44.3414" lon="0.78114">
        <ele>126</ele>
        <time>2025-10-12T13:30:06.518Z</time>
      </trkpt>
      <trkpt lat="44.3414" lon="0.78112">
        <ele>126</ele>
        <time>2025-10-12T13:30:07.518Z</time>
      </trkpt>
      <trkpt lat="44.34139" lon="0.78111">
        <ele>126</ele>
        <time>2025-10-12T13:30:08.518Z</time>
      </trkpt>
      <trkpt lat="44.34138" lon="0.78109">
        <ele>126</ele>
        <time>2025-10-12T13:30:09.518Z</time>
      </trkpt>
      <trkpt lat="44.34138" lon="0.78107">
        <ele>126</ele>
        <time>2025-10-12T13:30:10.518Z</time>
      </trkpt>
      <trkpt lat="44.34137" lon="0.78105">
        <ele>126</ele>
        <time>2025-10-12T13:30:11.518Z</time>
      </trkpt>
      <trkpt lat="44.34137" lon="0.78104">
        <ele>126</ele>
        <time>2025-10-12T13:30:12.518Z</time>
      </trkpt>
      <trkpt lat="44.34136" lon="0.78103">
        <ele>126</ele>
        <time>2025-10-12T13:30:13.518Z</time>
      </trkpt>
      <trkpt lat="44.34135" lon="0.78101">
        <ele>127</ele>
        <time>2025-10-12T13:30:14.518Z</time>
      </trkpt>
      <trkpt lat="44.34135" lon="0.781">
        <ele>127</ele>
        <time>2025-10-12T13:30:15.518Z</time>
      </trkpt>
      <trkpt lat="44.34134" lon="0.78099">
        <ele>127</ele>
        <time>2025-10-12T13:30:16.518Z</time>
      </trkpt>
      <trkpt lat="44.34133" lon="0.78098">
        <ele>127</ele>
        <time>2025-10-12T13:30:17.518Z</time>
      </trkpt>
      <trkpt lat="44.34133" lon="0.78096">
        <ele>127</ele>
        <time>2025-10-12T13:30:18.518Z</time>
      </trkpt>
      <trkpt lat="44.34132" lon="0.78095">
        <ele>127</ele>
        <time>2025-10-12T13:30:19.518Z</time>
      </trkpt>
      <trkpt lat="44.34132" lon="0.78094">
        <ele>126</ele>
        <time>2025-10-12T13:30:20.518Z</time>
      </trkpt>
      <trkpt lat="44.34132" lon="0.78092">
        <ele>126</ele>
        <time>2025-10-12T13:30:21.518Z</time>
      </trkpt>
      <trkpt lat="44.34131" lon="0.78091">
        <ele>126</ele>
        <time>2025-10-12T13:30:22.518Z</time>
      </trkpt>
      <trkpt lat="44.34131" lon="0.78089">
        <ele>126</ele>
        <time>2025-10-12T13:30:23.518Z</time>
      </trkpt>
      <trkpt lat="44.3413" lon="0.78088">
        <ele>126</ele>
        <time>2025-10-12T13:30:24.518Z</time>
      </trkpt>
      <trkpt lat="44.34129" lon="0.78087">
        <ele>126</ele>
        <time>2025-10-12T13:30:25.518Z</time>
      </trkpt>
      <trkpt lat="44.34129" lon="0.78086">
        <ele>127</ele>
        <time>2025-10-12T13:30:26.518Z</time>
      </trkpt>
      <trkpt lat="44.34129" lon="0.78084">
        <ele>127</ele>
        <time>2025-10-12T13:30:27.518Z</time>
      </trkpt>
      <trkpt lat="44.34128" lon="0.78083">
        <ele>127</ele>
        <time>2025-10-12T13:30:28.518Z</time>
      </trkpt>
      <trkpt lat="44.34128" lon="0.78081">
        <ele>127</ele>
        <time>2025-10-12T13:30:29.518Z</time>
      </trkpt>
      <trkpt lat="44.34127" lon="0.7808">
        <ele>127</ele>
        <time>2025-10-12T13:30:30.518Z</time>
      </trkpt>
      <trkpt lat="44.34126" lon="0.78079">
        <ele>128</ele>
        <time>2025-10-12T13:30:31.518Z</time>
      </trkpt>
      <trkpt lat="44.34126" lon="0.78078">
        <ele>128</ele>
        <time>2025-10-12T13:30:32.518Z</time>
      </trkpt>
      <trkpt lat="44.34125" lon="0.78076">
        <ele>128</ele>
        <time>2025-10-12T13:30:33.518Z</time>
      </trkpt>
      <trkpt lat="44.34124" lon="0.78075">
        <ele>127</ele>
        <time>2025-10-12T13:30:34.518Z</time>
      </trkpt>
      <trkpt lat="44.34124" lon="0.78074">
        <ele>127</ele>
        <time>2025-10-12T13:30:35.518Z</time>
      </trkpt>
      <trkpt lat="44.34123" lon="0.78072">
        <ele>126</ele>
        <time>2025-10-12T13:30:36.518Z</time>
      </trkpt>
      <trkpt lat="44.34122" lon="0.78071">
        <ele>126</ele>
        <time>2025-10-12T13:30:37.518Z</time>
      </trkpt>
      <trkpt lat="44.34121" lon="0.7807">
        <ele>126</ele>
        <time>2025-10-12T13:30:38.518Z</time>
      </trkpt>
      <trkpt lat="44.34121" lon="0.78069">
        <ele>126</ele>
        <time>2025-10-12T13:30:39.518Z</time>
      </trkpt>
      <trkpt lat="44.3412" lon="0.78068">
        <ele>125</ele>
        <time>2025-10-12T13:30:40.518Z</time>
      </trkpt>
      <trkpt lat="44.34119" lon="0.78066">
        <ele>125</ele>
        <time>2025-10-12T13:30:41.518Z</time>
      </trkpt>
      <trkpt lat="44.34118" lon="0.78065">
        <ele>125</ele>
        <time>2025-10-12T13:30:42.518Z</time>
      </trkpt>
      <trkpt lat="44.34117" lon="0.78064">
        <ele>125</ele>
        <time>2025-10-12T13:30:43.518Z</time>
      </trkpt>
      <trkpt lat="44.34117" lon="0.78063">
        <ele>125</ele>
        <time>2025-10-12T13:30:44.518Z</time>
      </trkpt>
      <trkpt lat="44.34116" lon="0.78062">
        <ele>125</ele>
        <time>2025-10-12T13:30:45.518Z</time>
      </trkpt>
      <trkpt lat="44.34115" lon="0.78061">
        <ele>125</ele>
        <time>2025-10-12T13:30:46.518Z</time>
      </trkpt>
      <trkpt lat="44.34114" lon="0.7806">
        <ele>124</ele>
        <time>2025-10-12T13:30:47.518Z</time>
      </trkpt>
      <trkpt lat="44.34114" lon="0.78059">
        <ele>124</ele>
        <time>2025-10-12T13:30:48.518Z</time>
      </trkpt>
      <trkpt lat="44.34113" lon="0.78058">
        <ele>124</ele>
        <time>2025-10-12T13:30:49.518Z</time>
      </trkpt>
      <trkpt lat="44.34112" lon="0.78056">
        <ele>124</ele>
        <time>2025-10-12T13:30:50.518Z</time>
      </trkpt>
      <trkpt lat="44.34111" lon="0.78055">
        <ele>124</ele>
        <time>2025-10-12T13:30:51.518Z</time>
      </trkpt>
      <trkpt lat="44.3411" lon="0.78054">
        <ele>124</ele>
        <time>2025-10-12T13:30:52.518Z</time>
      </trkpt>
      <trkpt lat="44.34109" lon="0.78053">
        <ele>124</ele>
        <time>2025-10-12T13:30:53.518Z</time>
      </trkpt>
      <trkpt lat="44.34109" lon="0.78052">
        <ele>124</ele>
        <time>2025-10-12T13:30:54.518Z</time>
      </trkpt>
      <trkpt lat="44.34109" lon="0.7805">
        <ele>124</ele>
        <time>2025-10-12T13:30:55.518Z</time>
      </trkpt>
      <trkpt lat="44.34108" lon="0.78049">
        <ele>123</ele>
        <time>2025-10-12T13:30:56.518Z</time>
      </trkpt>
      <trkpt lat="44.34108" lon="0.78048">
        <ele>123</ele>
        <time>2025-10-12T13:30:57.518Z</time>
      </trkpt>
      <trkpt lat="44.34108" lon="0.78046">
        <ele>123</ele>
        <time>2025-10-12T13:30:58.518Z</time>
      </trkpt>
      <trkpt lat="44.34107" lon="0.78045">
        <ele>122</ele>
        <time>2025-10-12T13:30:59.518Z</time>
      </trkpt>
      <trkpt lat="44.34106" lon="0.78044">
        <ele>122</ele>
        <time>2025-10-12T13:31:00.518Z</time>
      </trkpt>
      <trkpt lat="44.34106" lon="0.78044">
        <ele>122</ele>
        <time>2025-10-12T13:31:01.518Z</time>
      </trkpt>
      <trkpt lat="44.34105" lon="0.78043">
        <ele>122</ele>
        <time>2025-10-12T13:31:02.518Z</time>
      </trkpt>
      <trkpt lat="44.34104" lon="0.78041">
        <ele>121</ele>
        <time>2025-10-12T13:31:03.518Z</time>
      </trkpt>
      <trkpt lat="44.34104" lon="0.7804">
        <ele>121</ele>
        <time>2025-10-12T13:31:04.518Z</time>
      </trkpt>
      <trkpt lat="44.34103" lon="0.78039">
        <ele>121</ele>
        <time>2025-10-12T13:31:05.518Z</time>
      </trkpt>
      <trkpt lat="44.34102" lon="0.78038">
        <ele>121</ele>
        <time>2025-10-12T13:31:06.518Z</time>
      </trkpt>
      <trkpt lat="44.34101" lon="0.78037">
        <ele>121</ele>
        <time>2025-10-12T13:31:07.518Z</time>
      </trkpt>
      <trkpt lat="44.341" lon="0.78036">
        <ele>121</ele>
        <time>2025-10-12T13:31:08.518Z</time>
      </trkpt>
      <trkpt lat="44.341" lon="0.78035">
        <ele>121</ele>
        <time>2025-10-12T13:31:09.518Z</time>
      </trkpt>
      <trkpt lat="44.34099" lon="0.78034">
        <ele>121</ele>
        <time>2025-10-12T13:31:10.518Z</time>
      </trkpt>
      <trkpt lat="44.34098" lon="0.78033">
        <ele>121</ele>
        <time>2025-10-12T13:31:11.518Z</time>
      </trkpt>
      <trkpt lat="44.34097" lon="0.78032">
        <ele>120</ele>
        <time>2025-10-12T13:31:12.518Z</time>
      </trkpt>
      <trkpt lat="44.34096" lon="0.78031">
        <ele>120</ele>
        <time>2025-10-12T13:31:13.518Z</time>
      </trkpt>
      <trkpt lat="44.34096" lon="0.78029">
        <ele>120</ele>
        <time>2025-10-12T13:31:14.518Z</time>
      </trkpt>
      <trkpt lat="44.34095" lon="0.78029">
        <ele>120</ele>
        <time>2025-10-12T13:31:15.518Z</time>
      </trkpt>
      <trkpt lat="44.34094" lon="0.78028">
        <ele>120</ele>
        <time>2025-10-12T13:31:16.518Z</time>
      </trkpt>
      <trkpt lat="44.34094" lon="0.78026">
        <ele>120</ele>
        <time>2025-10-12T13:31:17.518Z</time>
      </trkpt>
      <trkpt lat="44.34093" lon="0.78026">
        <ele>120</ele>
        <time>2025-10-12T13:31:18.518Z</time>
      </trkpt>
      <trkpt lat="44.34093" lon="0.78024">
        <ele>120</ele>
        <time>2025-10-12T13:31:19.518Z</time>
      </trkpt>
      <trkpt lat="44.34092" lon="0.78023">
        <ele>120</ele>
        <time>2025-10-12T13:31:20.518Z</time>
      </trkpt>
      <trkpt lat="44.34092" lon="0.78022">
        <ele>120</ele>
        <time>2025-10-12T13:31:21.518Z</time>
      </trkpt>
      <trkpt lat="44.34091" lon="0.7802">
        <ele>120</ele>
        <time>2025-10-12T13:31:22.518Z</time>
      </trkpt>
      <trkpt lat="44.34091" lon="0.78019">
        <ele>120</ele>
        <time>2025-10-12T13:31:23.518Z</time>
      </trkpt>
      <trkpt lat="44.3409" lon="0.78018">
        <ele>120</ele>
        <time>2025-10-12T13:31:24.518Z</time>
      </trkpt>
      <trkpt lat="44.34089" lon="0.78017">
        <ele>120</ele>
        <time>2025-10-12T13:31:25.518Z</time>
      </trkpt>
      <trkpt lat="44.34089" lon="0.78016">
        <ele>120</ele>
        <time>2025-10-12T13:31:26.518Z</time>
      </trkpt>
      <trkpt lat="44.34088" lon="0.78015">
        <ele>120</ele>
        <time>2025-10-12T13:31:27.518Z</time>
      </trkpt>
      <trkpt lat="44.34088" lon="0.78014">
        <ele>119</ele>
        <time>2025-10-12T13:31:28.518Z</time>
      </trkpt>
      <trkpt lat="44.34087" lon="0.78012">
        <ele>119</ele>
        <time>2025-10-12T13:31:29.518Z</time>
      </trkpt>
      <trkpt lat="44.34086" lon="0.78011">
        <ele>118</ele>
        <time>2025-10-12T13:31:30.518Z</time>
      </trkpt>
      <trkpt lat="44.34086" lon="0.7801">
        <ele>118</ele>
        <time>2025-10-12T13:31:31.518Z</time>
      </trkpt>
      <trkpt lat="44.34085" lon="0.78009">
        <ele>118</ele>
        <time>2025-10-12T13:31:32.518Z</time>
      </trkpt>
      <trkpt lat="44.34085" lon="0.78008">
        <ele>117</ele>
        <time>2025-10-12T13:31:33.518Z</time>
      </trkpt>
      <trkpt lat="44.34084" lon="0.78007">
        <ele>117</ele>
        <time>2025-10-12T13:31:34.518Z</time>
      </trkpt>
      <trkpt lat="44.34084" lon="0.78006">
        <ele>117</ele>
        <time>2025-10-12T13:31:35.518Z</time>
      </trkpt>
      <trkpt lat="44.34083" lon="0.78005">
        <ele>117</ele>
        <time>2025-10-12T13:31:36.518Z</time>
      </trkpt>
      <trkpt lat="44.34083" lon="0.78004">
        <ele>117</ele>
        <time>2025-10-12T13:31:37.518Z</time>
      </trkpt>
      <trkpt lat="44.34082" lon="0.78003">
        <ele>117</ele>
        <time>2025-10-12T13:31:38.518Z</time>
      </trkpt>
      <trkpt lat="44.34081" lon="0.78002">
        <ele>117</ele>
        <time>2025-10-12T13:31:39.518Z</time>
      </trkpt>
      <trkpt lat="44.34081" lon="0.78001">
        <ele>117</ele>
        <time>2025-10-12T13:31:40.518Z</time>
      </trkpt>
      <trkpt lat="44.3408" lon="0.78">
        <ele>117</ele>
        <time>2025-10-12T13:31:41.518Z</time>
      </trkpt>
      <trkpt lat="44.34079" lon="0.77999">
        <ele>117</ele>
        <time>2025-10-12T13:31:42.518Z</time>
      </trkpt>
      <trkpt lat="44.34079" lon="0.77998">
        <ele>117</ele>
        <time>2025-10-12T13:31:43.518Z</time>
      </trkpt>
      <trkpt lat="44.34079" lon="0.77997">
        <ele>117</ele>
        <time>2025-10-12T13:31:44.518Z</time>
      </trkpt>
      <trkpt lat="44.34078" lon="0.77995">
        <ele>117</ele>
        <time>2025-10-12T13:31:45.518Z</time>
      </trkpt>
      <trkpt lat="44.34078" lon="0.77994">
        <ele>117</ele>
        <time>2025-10-12T13:31:46.518Z</time>
      </trkpt>
      <trkpt lat="44.34077" lon="0.77993">
        <ele>116</ele>
        <time>2025-10-12T13:31:47.518Z</time>
      </trkpt>
      <trkpt lat="44.34077" lon="0.77992">
        <ele>116</ele>
        <time>2025-10-12T13:31:48.518Z</time>
      </trkpt>
      <trkpt lat="44.34076" lon="0.77991">
        <ele>116</ele>
        <time>2025-10-12T13:31:49.518Z</time>
      </trkpt>
      <trkpt lat="44.34076" lon="0.7799">
        <ele>115</ele>
        <time>2025-10-12T13:31:50.518Z</time>
      </trkpt>
      <trkpt lat="44.34075" lon="0.77989">
        <ele>115</ele>
        <time>2025-10-12T13:31:51.518Z</time>
      </trkpt>
      <trkpt lat="44.34075" lon="0.77988">
        <ele>115</ele>
        <time>2025-10-12T13:31:52.518Z</time>
      </trkpt>
      <trkpt lat="44.34075" lon="0.77987">
        <ele>114</ele>
        <time>2025-10-12T13:31:53.518Z</time>
      </trkpt>
      <trkpt lat="44.34074" lon="0.77985">
        <ele>114</ele>
        <time>2025-10-12T13:31:54.518Z</time>
      </trkpt>
      <trkpt lat="44.34074" lon="0.77984">
        <ele>114</ele>
        <time>2025-10-12T13:31:55.518Z</time>
      </trkpt>
      <trkpt lat="44.34074" lon="0.77983">
        <ele>113</ele>
        <time>2025-10-12T13:31:56.518Z</time>
      </trkpt>
      <trkpt lat="44.34073" lon="0.77982">
        <ele>113</ele>
        <time>2025-10-12T13:31:57.518Z</time>
      </trkpt>
      <trkpt lat="44.34072" lon="0.77981">
        <ele>113</ele>
        <time>2025-10-12T13:31:58.518Z</time>
      </trkpt>
      <trkpt lat="44.34072" lon="0.7798">
        <ele>112</ele>
        <time>2025-10-12T13:31:59.518Z</time>
      </trkpt>
      <trkpt lat="44.34071" lon="0.77979">
        <ele>112</ele>
        <time>2025-10-12T13:32:00.518Z</time>
      </trkpt>
      <trkpt lat="44.34071" lon="0.77978">
        <ele>112</ele>
        <time>2025-10-12T13:32:01.518Z</time>
      </trkpt>
      <trkpt lat="44.3407" lon="0.77977">
        <ele>113</ele>
        <time>2025-10-12T13:32:02.518Z</time>
      </trkpt>
      <trkpt lat="44.3407" lon="0.77976">
        <ele>113</ele>
        <time>2025-10-12T13:32:03.518Z</time>
      </trkpt>
      <trkpt lat="44.34069" lon="0.77974">
        <ele>113</ele>
        <time>2025-10-12T13:32:04.518Z</time>
      </trkpt>
      <trkpt lat="44.34069" lon="0.77973">
        <ele>113</ele>
        <time>2025-10-12T13:32:05.518Z</time>
      </trkpt>
      <trkpt lat="44.34068" lon="0.77973">
        <ele>113</ele>
        <time>2025-10-12T13:32:06.518Z</time>
      </trkpt>
      <trkpt lat="44.34067" lon="0.77972">
        <ele>112</ele>
        <time>2025-10-12T13:32:07.518Z</time>
      </trkpt>
      <trkpt lat="44.34067" lon="0.77971">
        <ele>112</ele>
        <time>2025-10-12T13:32:08.518Z</time>
      </trkpt>
      <trkpt lat="44.34066" lon="0.7797">
        <ele>111</ele>
        <time>2025-10-12T13:32:09.518Z</time>
      </trkpt>
      <trkpt lat="44.34065" lon="0.77969">
        <ele>111</ele>
        <time>2025-10-12T13:32:10.518Z</time>
      </trkpt>
      <trkpt lat="44.34065" lon="0.77968">
        <ele>111</ele>
        <time>2025-10-12T13:32:11.518Z</time>
      </trkpt>
      <trkpt lat="44.34064" lon="0.77967">
        <ele>111</ele>
        <time>2025-10-12T13:32:12.518Z</time>
      </trkpt>
      <trkpt lat="44.34064" lon="0.77966">
        <ele>111</ele>
        <time>2025-10-12T13:32:13.518Z</time>
      </trkpt>
      <trkpt lat="44.34063" lon="0.77965">
        <ele>110</ele>
        <time>2025-10-12T13:32:14.518Z</time>
      </trkpt>
      <trkpt lat="44.34062" lon="0.77964">
        <ele>110</ele>
        <time>2025-10-12T13:32:15.518Z</time>
      </trkpt>
      <trkpt lat="44.34061" lon="0.77963">
        <ele>110</ele>
        <time>2025-10-12T13:32:16.518Z</time>
      </trkpt>
      <trkpt lat="44.3406" lon="0.77962">
        <ele>110</ele>
        <time>2025-10-12T13:32:17.518Z</time>
      </trkpt>
      <trkpt lat="44.3406" lon="0.77961">
        <ele>110</ele>
        <time>2025-10-12T13:32:18.518Z</time>
      </trkpt>
      <trkpt lat="44.34059" lon="0.7796">
        <ele>109</ele>
        <time>2025-10-12T13:32:19.518Z</time>
      </trkpt>
      <trkpt lat="44.34058" lon="0.77959">
        <ele>109</ele>
        <time>2025-10-12T13:32:20.518Z</time>
      </trkpt>
      <trkpt lat="44.34057" lon="0.77958">
        <ele>109</ele>
        <time>2025-10-12T13:32:21.518Z</time>
      </trkpt>
      <trkpt lat="44.34057" lon="0.77956">
        <ele>108</ele>
        <time>2025-10-12T13:32:22.518Z</time>
      </trkpt>
      <trkpt lat="44.34056" lon="0.77955">
        <ele>108</ele>
        <time>2025-10-12T13:32:23.518Z</time>
      </trkpt>
      <trkpt lat="44.34055" lon="0.77955">
        <ele>108</ele>
        <time>2025-10-12T13:32:24.518Z</time>
      </trkpt>
      <trkpt lat="44.34053" lon="0.77954">
        <ele>107</ele>
        <time>2025-10-12T13:32:25.518Z</time>
      </trkpt>
      <trkpt lat="44.34053" lon="0.77953">
        <ele>107</ele>
        <time>2025-10-12T13:32:26.518Z</time>
      </trkpt>
      <trkpt lat="44.34052" lon="0.77953">
        <ele>107</ele>
        <time>2025-10-12T13:32:27.518Z</time>
      </trkpt>
      <trkpt lat="44.34051" lon="0.77952">
        <ele>107</ele>
        <time>2025-10-12T13:32:28.518Z</time>
      </trkpt>
      <trkpt lat="44.34051" lon="0.77951">
        <ele>108</ele>
        <time>2025-10-12T13:32:29.518Z</time>
      </trkpt>
      <trkpt lat="44.3405" lon="0.77951">
        <ele>108</ele>
        <time>2025-10-12T13:32:30.518Z</time>
      </trkpt>
      <trkpt lat="44.3405" lon="0.77951">
        <ele>108</ele>
        <time>2025-10-12T13:32:31.518Z</time>
      </trkpt>
      <trkpt lat="44.34049" lon="0.77952">
        <ele>108</ele>
        <time>2025-10-12T13:32:32.518Z</time>
      </trkpt>
      <trkpt lat="44.34049" lon="0.77952">
        <ele>108</ele>
        <time>2025-10-12T13:32:33.518Z</time>
      </trkpt>
      <trkpt lat="44.34048" lon="0.77953">
        <ele>107</ele>
        <time>2025-10-12T13:32:34.518Z</time>
      </trkpt>
      <trkpt lat="44.34048" lon="0.77955">
        <ele>107</ele>
        <time>2025-10-12T13:32:35.518Z</time>
      </trkpt>
      <trkpt lat="44.34047" lon="0.77956">
        <ele>107</ele>
        <time>2025-10-12T13:32:36.518Z</time>
      </trkpt>
      <trkpt lat="44.34046" lon="0.77957">
        <ele>106</ele>
        <time>2025-10-12T13:32:37.518Z</time>
      </trkpt>
      <trkpt lat="44.34046" lon="0.77957">
        <ele>106</ele>
        <time>2025-10-12T13:32:38.518Z</time>
      </trkpt>
      <trkpt lat="44.34045" lon="0.77958">
        <ele>106</ele>
        <time>2025-10-12T13:32:39.518Z</time>
      </trkpt>
      <trkpt lat="44.34044" lon="0.77958">
        <ele>105</ele>
        <time>2025-10-12T13:32:40.518Z</time>
      </trkpt>
      <trkpt lat="44.34043" lon="0.77959">
        <ele>105</ele>
        <time>2025-10-12T13:32:41.518Z</time>
      </trkpt>
      <trkpt lat="44.34042" lon="0.7796">
        <ele>105</ele>
        <time>2025-10-12T13:32:42.518Z</time>
      </trkpt>
      <trkpt lat="44.34042" lon="0.77961">
        <ele>105</ele>
        <time>2025-10-12T13:32:43.518Z</time>
      </trkpt>
      <trkpt lat="44.34041" lon="0.77962">
        <ele>105</ele>
        <time>2025-10-12T13:32:44.518Z</time>
      </trkpt>
      <trkpt lat="44.3404" lon="0.77963">
        <ele>104</ele>
        <time>2025-10-12T13:32:45.518Z</time>
      </trkpt>
      <trkpt lat="44.34039" lon="0.77964">
        <ele>104</ele>
        <time>2025-10-12T13:32:46.518Z</time>
      </trkpt>
      <trkpt lat="44.34038" lon="0.77964">
        <ele>103</ele>
        <time>2025-10-12T13:32:47.518Z</time>
      </trkpt>
      <trkpt lat="44.34037" lon="0.77966">
        <ele>103</ele>
        <time>2025-10-12T13:32:48.518Z</time>
      </trkpt>
      <trkpt lat="44.34036" lon="0.77967">
        <ele>103</ele>
        <time>2025-10-12T13:32:49.518Z</time>
      </trkpt>
      <trkpt lat="44.34035" lon="0.77969">
        <ele>103</ele>
        <time>2025-10-12T13:32:50.518Z</time>
      </trkpt>
      <trkpt lat="44.34034" lon="0.7797">
        <ele>103</ele>
        <time>2025-10-12T13:32:51.518Z</time>
      </trkpt>
      <trkpt lat="44.34033" lon="0.77971">
        <ele>103</ele>
        <time>2025-10-12T13:32:52.518Z</time>
      </trkpt>
      <trkpt lat="44.34033" lon="0.77972">
        <ele>103</ele>
        <time>2025-10-12T13:32:53.518Z</time>
      </trkpt>
      <trkpt lat="44.34032" lon="0.77973">
        <ele>103</ele>
        <time>2025-10-12T13:32:54.518Z</time>
      </trkpt>
      <trkpt lat="44.34032" lon="0.77974">
        <ele>103</ele>
        <time>2025-10-12T13:32:55.518Z</time>
      </trkpt>
      <trkpt lat="44.34031" lon="0.77975">
        <ele>103</ele>
        <time>2025-10-12T13:32:56.518Z</time>
      </trkpt>
      <trkpt lat="44.3403" lon="0.77976">
        <ele>103</ele>
        <time>2025-10-12T13:32:57.518Z</time>
      </trkpt>
      <trkpt lat="44.3403" lon="0.77977">
        <ele>103</ele>
        <time>2025-10-12T13:32:58.518Z</time>
      </trkpt>
      <trkpt lat="44.34029" lon="0.77978">
        <ele>103</ele>
        <time>2025-10-12T13:32:59.518Z</time>
      </trkpt>
      <trkpt lat="44.34028" lon="0.77979">
        <ele>104</ele>
        <time>2025-10-12T13:33:00.518Z</time>
      </trkpt>
      <trkpt lat="44.34028" lon="0.77979">
        <ele>104</ele>
        <time>2025-10-12T13:33:01.518Z</time>
      </trkpt>
      <trkpt lat="44.34028" lon="0.77979">
        <ele>105</ele>
        <time>2025-10-12T13:33:02.518Z</time>
      </trkpt>
      <trkpt lat="44.34028" lon="0.7798">
        <ele>106</ele>
        <time>2025-10-12T13:33:03.518Z</time>
      </trkpt>
      <trkpt lat="44.34028" lon="0.7798">
        <ele>106</ele>
        <time>2025-10-12T13:33:04.518Z</time>
      </trkpt>
      <trkpt lat="44.34028" lon="0.77979">
        <ele>107</ele>
        <time>2025-10-12T13:33:05.518Z</time>
      </trkpt>
      <trkpt lat="44.34027" lon="0.77979">
        <ele>107</ele>
        <time>2025-10-12T13:33:06.518Z</time>
      </trkpt>
      <trkpt lat="44.34027" lon="0.77979">
        <ele>107</ele>
        <time>2025-10-12T13:33:07.518Z</time>
      </trkpt>
      <trkpt lat="44.34027" lon="0.77979">
        <ele>108</ele>
        <time>2025-10-12T13:33:08.518Z</time>
      </trkpt>
      <trkpt lat="44.34027" lon="0.77979">
        <ele>108</ele>
        <time>2025-10-12T13:33:09.518Z</time>
      </trkpt>
      <trkpt lat="44.34027" lon="0.77979">
        <ele>109</ele>
        <time>2025-10-12T13:33:10.518Z</time>
      </trkpt>
      <trkpt lat="44.34027" lon="0.77979">
        <ele>109</ele>
        <time>2025-10-12T13:33:11.518Z</time>
      </trkpt>
      <trkpt lat="44.34026" lon="0.7798">
        <ele>109</ele>
        <time>2025-10-12T13:33:12.518Z</time>
      </trkpt>
      <trkpt lat="44.34026" lon="0.7798">
        <ele>109</ele>
        <time>2025-10-12T13:33:13.518Z</time>
      </trkpt>
      <trkpt lat="44.34026" lon="0.77979">
        <ele>109</ele>
        <time>2025-10-12T13:33:14.518Z</time>
      </trkpt>
      <trkpt lat="44.34026" lon="0.77979">
        <ele>110</ele>
        <time>2025-10-12T13:33:15.518Z</time>
      </trkpt>
      <trkpt lat="44.34025" lon="0.77979">
        <ele>110</ele>
        <time>2025-10-12T13:33:16.518Z</time>
      </trkpt>
      <trkpt lat="44.34025" lon="0.77979">
        <ele>109</ele>
        <time>2025-10-12T13:33:17.518Z</time>
      </trkpt>
      <trkpt lat="44.34025" lon="0.77979">
        <ele>109</ele>
        <time>2025-10-12T13:33:18.518Z</time>
      </trkpt>
      <trkpt lat="44.34025" lon="0.77979">
        <ele>109</ele>
        <time>2025-10-12T13:33:19.518Z</time>
      </trkpt>
      <trkpt lat="44.34025" lon="0.77979">
        <ele>108</ele>
        <time>2025-10-12T13:33:20.518Z</time>
      </trkpt>
      <trkpt lat="44.34025" lon="0.77979">
        <ele>108</ele>
        <time>2025-10-12T13:33:21.518Z</time>
      </trkpt>
      <trkpt lat="44.34025" lon="0.77979">
        <ele>107</ele>
        <time>2025-10-12T13:33:22.518Z</time>
      </trkpt>
      <trkpt lat="44.34025" lon="0.77978">
        <ele>107</ele>
        <time>2025-10-12T13:33:23.518Z</time>
      </trkpt>
      <trkpt lat="44.34025" lon="0.77978">
        <ele>107</ele>
        <time>2025-10-12T13:33:24.518Z</time>
      </trkpt>
      <trkpt lat="44.34024" lon="0.77978">
        <ele>107</ele>
        <time>2025-10-12T13:33:25.518Z</time>
      </trkpt>
      <trkpt lat="44.34024" lon="0.77977">
        <ele>106</ele>
        <time>2025-10-12T13:33:26.518Z</time>
      </trkpt>
      <trkpt lat="44.34024" lon="0.77977">
        <ele>106</ele>
        <time>2025-10-12T13:33:27.518Z</time>
      </trkpt>
      <trkpt lat="44.34023" lon="0.77976">
        <ele>105</ele>
        <time>2025-10-12T13:33:28.518Z</time>
      </trkpt>
      <trkpt lat="44.34023" lon="0.77976">
        <ele>105</ele>
        <time>2025-10-12T13:33:29.518Z</time>
      </trkpt>
      <trkpt lat="44.34023" lon="0.77976">
        <ele>105</ele>
        <time>2025-10-12T13:33:30.518Z</time>
      </trkpt>
      <trkpt lat="44.34022" lon="0.77977">
        <ele>104</ele>
        <time>2025-10-12T13:33:31.518Z</time>
      </trkpt>
      <trkpt lat="44.34022" lon="0.77977">
        <ele>104</ele>
        <time>2025-10-12T13:33:32.518Z</time>
      </trkpt>
      <trkpt lat="44.34022" lon="0.77977">
        <ele>104</ele>
        <time>2025-10-12T13:33:33.518Z</time>
      </trkpt>
      <trkpt lat="44.34021" lon="0.77978">
        <ele>104</ele>
        <time>2025-10-12T13:33:34.518Z</time>
      </trkpt>
      <trkpt lat="44.34021" lon="0.77978">
        <ele>104</ele>
        <time>2025-10-12T13:33:35.518Z</time>
      </trkpt>
      <trkpt lat="44.34021" lon="0.77978">
        <ele>103</ele>
        <time>2025-10-12T13:33:36.518Z</time>
      </trkpt>
      <trkpt lat="44.34021" lon="0.77978">
        <ele>103</ele>
        <time>2025-10-12T13:33:37.518Z</time>
      </trkpt>
      <trkpt lat="44.34021" lon="0.77978">
        <ele>103</ele>
        <time>2025-10-12T13:33:38.518Z</time>
      </trkpt>
      <trkpt lat="44.34021" lon="0.77978">
        <ele>104</ele>
        <time>2025-10-12T13:33:39.518Z</time>
      </trkpt>
      <trkpt lat="44.34021" lon="0.77978">
        <ele>104</ele>
        <time>2025-10-12T13:33:40.518Z</time>
      </trkpt>
      <trkpt lat="44.34022" lon="0.77978">
        <ele>104</ele>
        <time>2025-10-12T13:33:41.518Z</time>
      </trkpt>
      <trkpt lat="44.34021" lon="0.77978">
        <ele>104</ele>
        <time>2025-10-12T13:33:42.518Z</time>
      </trkpt>
      <trkpt lat="44.34022" lon="0.77978">
        <ele>105</ele>
        <time>2025-10-12T13:33:43.518Z</time>
      </trkpt>
      <trkpt lat="44.34021" lon="0.77978">
        <ele>105</ele>
        <time>2025-10-12T13:33:44.518Z</time>
      </trkpt>
      <trkpt lat="44.34021" lon="0.77979">
        <ele>106</ele>
        <time>2025-10-12T13:33:45.518Z</time>
      </trkpt>
      <trkpt lat="44.34022" lon="0.77979">
        <ele>106</ele>
        <time>2025-10-12T13:33:46.518Z</time>
      </trkpt>
      <trkpt lat="44.34022" lon="0.77979">
        <ele>106</ele>
        <time>2025-10-12T13:33:47.518Z</time>
      </trkpt>
      <trkpt lat="44.34022" lon="0.77979">
        <ele>106</ele>
        <time>2025-10-12T13:33:48.518Z</time>
      </trkpt>
      <trkpt lat="44.34022" lon="0.77979">
        <ele>107</ele>
        <time>2025-10-12T13:33:49.518Z</time>
      </trkpt>
      <trkpt lat="44.34022" lon="0.7798">
        <ele>107</ele>
        <time>2025-10-12T13:33:50.518Z</time>
      </trkpt>
      <trkpt lat="44.34022" lon="0.7798">
        <ele>107</ele>
        <time>2025-10-12T13:33:51.518Z</time>
      </trkpt>
      <trkpt lat="44.34022" lon="0.77979">
        <ele>107</ele>
        <time>2025-10-12T13:33:52.518Z</time>
      </trkpt>
      <trkpt lat="44.34022" lon="0.77978">
        <ele>107</ele>
        <time>2025-10-12T13:33:53.518Z</time>
      </trkpt>
      <trkpt lat="44.34022" lon="0.77979">
        <ele>107</ele>
        <time>2025-10-12T13:33:54.518Z</time>
      </trkpt>
      <trkpt lat="44.34022" lon="0.77979">
        <ele>107</ele>
        <time>2025-10-12T13:33:55.518Z</time>
      </trkpt>
      <trkpt lat="44.34022" lon="0.77978">
        <ele>107</ele>
        <time>2025-10-12T13:33:56.518Z</time>
      </trkpt>
      <trkpt lat="44.34022" lon="0.77978">
        <ele>107</ele>
        <time>2025-10-12T13:33:57.518Z</time>
      </trkpt>
      <trkpt lat="44.34023" lon="0.77978">
        <ele>107</ele>
        <time>2025-10-12T13:33:58.518Z</time>
      </trkpt>
      <trkpt lat="44.34023" lon="0.77978">
        <ele>108</ele>
        <time>2025-10-12T13:33:59.518Z</time>
      </trkpt>
      <trkpt lat="44.34023" lon="0.77978">
        <ele>108</ele>
        <time>2025-10-12T13:34:00.518Z</time>
      </trkpt>
      <trkpt lat="44.34023" lon="0.77979">
        <ele>108</ele>
        <time>2025-10-12T13:34:01.518Z</time>
      </trkpt>
      <trkpt lat="44.34023" lon="0.77978">
        <ele>108</ele>
        <time>2025-10-12T13:34:02.518Z</time>
      </trkpt>
      <trkpt lat="44.34023" lon="0.77978">
        <ele>108</ele>
        <time>2025-10-12T13:34:03.518Z</time>
      </trkpt>
      <trkpt lat="44.34023" lon="0.77978">
        <ele>108</ele>
        <time>2025-10-12T13:34:04.518Z</time>
      </trkpt>
      <trkpt lat="44.34024" lon="0.77978">
        <ele>108</ele>
        <time>2025-10-12T13:34:05.518Z</time>
      </trkpt>
      <trkpt lat="44.34023" lon="0.77978">
        <ele>108</ele>
        <time>2025-10-12T13:34:06.518Z</time>
      </trkpt>
      <trkpt lat="44.34023" lon="0.77978">
        <ele>107</ele>
        <time>2025-10-12T13:34:07.518Z</time>
      </trkpt>
      <trkpt lat="44.34023" lon="0.77978">
        <ele>107</ele>
        <time>2025-10-12T13:34:08.518Z</time>
      </trkpt>
      <trkpt lat="44.34023" lon="0.77978">
        <ele>107</ele>
        <time>2025-10-12T13:34:09.518Z</time>
      </trkpt>
      <trkpt lat="44.34023" lon="0.77978">
        <ele>107</ele>
        <time>2025-10-12T13:34:10.518Z</time>
      </trkpt>
      <trkpt lat="44.34023" lon="0.77978">
        <ele>107</ele>
        <time>2025-10-12T13:34:11.518Z</time>
      </trkpt>
      <trkpt lat="44.34023" lon="0.77977">
        <ele>107</ele>
        <time>2025-10-12T13:34:12.518Z</time>
      </trkpt>
      <trkpt lat="44.34023" lon="0.77975">
        <ele>108</ele>
        <time>2025-10-12T13:34:13.518Z</time>
      </trkpt>
      <trkpt lat="44.34022" lon="0.77975">
        <ele>108</ele>
        <time>2025-10-12T13:34:14.518Z</time>
      </trkpt>
      <trkpt lat="44.34022" lon="0.77974">
        <ele>109</ele>
        <time>2025-10-12T13:34:15.518Z</time>
      </trkpt>
      <trkpt lat="44.34021" lon="0.77973">
        <ele>109</ele>
        <time>2025-10-12T13:34:16.518Z</time>
      </trkpt>
      <trkpt lat="44.34021" lon="0.77973">
        <ele>110</ele>
        <time>2025-10-12T13:34:17.518Z</time>
      </trkpt>
      <trkpt lat="44.34021" lon="0.77973">
        <ele>111</ele>
        <time>2025-10-12T13:34:18.518Z</time>
      </trkpt>
      <trkpt lat="44.34021" lon="0.77972">
        <ele>111</ele>
        <time>2025-10-12T13:34:19.518Z</time>
      </trkpt>
      <trkpt lat="44.34021" lon="0.77972">
        <ele>111</ele>
        <time>2025-10-12T13:34:20.518Z</time>
      </trkpt>
      <trkpt lat="44.34021" lon="0.77972">
        <ele>111</ele>
        <time>2025-10-12T13:34:21.518Z</time>
      </trkpt>
      <trkpt lat="44.34021" lon="0.77972">
        <ele>111</ele>
        <time>2025-10-12T13:34:22.518Z</time>
      </trkpt>
      <trkpt lat="44.34022" lon="0.77972">
        <ele>111</ele>
        <time>2025-10-12T13:34:23.518Z</time>
      </trkpt>
      <trkpt lat="44.34022" lon="0.77972">
        <ele>111</ele>
        <time>2025-10-12T13:34:24.518Z</time>
      </trkpt>
      <trkpt lat="44.34022" lon="0.77973">
        <ele>111</ele>
        <time>2025-10-12T13:34:25.518Z</time>
      </trkpt>
      <trkpt lat="44.34022" lon="0.77973">
        <ele>111</ele>
        <time>2025-10-12T13:34:26.518Z</time>
      </trkpt>
      <trkpt lat="44.34022" lon="0.77973">
        <ele>111</ele>
        <time>2025-10-12T13:34:27.518Z</time>
      </trkpt>
      <trkpt lat="44.34023" lon="0.77973">
        <ele>111</ele>
        <time>2025-10-12T13:34:28.518Z</time>
      </trkpt>
      <trkpt lat="44.34023" lon="0.77973">
        <ele>111</ele>
        <time>2025-10-12T13:34:29.518Z</time>
      </trkpt>
      <trkpt lat="44.34023" lon="0.77973">
        <ele>111</ele>
        <time>2025-10-12T13:34:30.518Z</time>
      </trkpt>
      <trkpt lat="44.34022" lon="0.77974">
        <ele>110</ele>
        <time>2025-10-12T13:34:31.518Z</time>
      </trkpt>
      <trkpt lat="44.34022" lon="0.77974">
        <ele>110</ele>
        <time>2025-10-12T13:34:32.518Z</time>
      </trkpt>
      <trkpt lat="44.34023" lon="0.77974">
        <ele>110</ele>
        <time>2025-10-12T13:34:33.518Z</time>
      </trkpt>
      <trkpt lat="44.34022" lon="0.77974">
        <ele>110</ele>
        <time>2025-10-12T13:34:34.518Z</time>
      </trkpt>
      <trkpt lat="44.34022" lon="0.77974">
        <ele>109</ele>
        <time>2025-10-12T13:34:35.518Z</time>
      </trkpt>
      <trkpt lat="44.34022" lon="0.77974">
        <ele>109</ele>
        <time>2025-10-12T13:34:36.518Z</time>
      </trkpt>
      <trkpt lat="44.34022" lon="0.77975">
        <ele>109</ele>
        <time>2025-10-12T13:34:37.518Z</time>
      </trkpt>
      <trkpt lat="44.34022" lon="0.77974">
        <ele>109</ele>
        <time>2025-10-12T13:34:38.518Z</time>
      </trkpt>
      <trkpt lat="44.34022" lon="0.77974">
        <ele>109</ele>
        <time>2025-10-12T13:34:39.518Z</time>
      </trkpt>
      <trkpt lat="44.34022" lon="0.77974">
        <ele>109</ele>
        <time>2025-10-12T13:34:40.518Z</time>
      </trkpt>
      <trkpt lat="44.34022" lon="0.77974">
        <ele>109</ele>
        <time>2025-10-12T13:34:41.518Z</time>
      </trkpt>
      <trkpt lat="44.34023" lon="0.77974">
        <ele>109</ele>
        <time>2025-10-12T13:34:42.518Z</time>
      </trkpt>
      <trkpt lat="44.34023" lon="0.77974">
        <ele>109</ele>
        <time>2025-10-12T13:34:43.518Z</time>
      </trkpt>
      <trkpt lat="44.34023" lon="0.77974">
        <ele>109</ele>
        <time>2025-10-12T13:34:44.518Z</time>
      </trkpt>
      <trkpt lat="44.34023" lon="0.77974">
        <ele>109</ele>
        <time>2025-10-12T13:34:45.518Z</time>
      </trkpt>
      <trkpt lat="44.34022" lon="0.77974">
        <ele>109</ele>
        <time>2025-10-12T13:34:46.518Z</time>
      </trkpt>
      <trkpt lat="44.34022" lon="0.77974">
        <ele>110</ele>
        <time>2025-10-12T13:34:47.518Z</time>
      </trkpt>
      <trkpt lat="44.34022" lon="0.77975">
        <ele>110</ele>
        <time>2025-10-12T13:34:48.518Z</time>
      </trkpt>
      <trkpt lat="44.34021" lon="0.77974">
        <ele>110</ele>
        <time>2025-10-12T13:34:49.518Z</time>
      </trkpt>
      <trkpt lat="44.34021" lon="0.77975">
        <ele>110</ele>
        <time>2025-10-12T13:34:50.518Z</time>
      </trkpt>
      <trkpt lat="44.34021" lon="0.77975">
        <ele>110</ele>
        <time>2025-10-12T13:34:51.518Z</time>
      </trkpt>
      <trkpt lat="44.34021" lon="0.77975">
        <ele>110</ele>
        <time>2025-10-12T13:34:52.518Z</time>
      </trkpt>
      <trkpt lat="44.34021" lon="0.77975">
        <ele>109</ele>
        <time>2025-10-12T13:34:53.518Z</time>
      </trkpt>
      <trkpt lat="44.34021" lon="0.77975">
        <ele>109</ele>
        <time>2025-10-12T13:34:54.518Z</time>
      </trkpt>
      <trkpt lat="44.34021" lon="0.77975">
        <ele>109</ele>
        <time>2025-10-12T13:34:55.518Z</time>
      </trkpt>
      <trkpt lat="44.34021" lon="0.77975">
        <ele>109</ele>
        <time>2025-10-12T13:34:56.518Z</time>
      </trkpt>
      <trkpt lat="44.34021" lon="0.77975">
        <ele>109</ele>
        <time>2025-10-12T13:34:57.518Z</time>
      </trkpt>
      <trkpt lat="44.34021" lon="0.77975">
        <ele>109</ele>
        <time>2025-10-12T13:34:58.518Z</time>
      </trkpt>
      <trkpt lat="44.34021" lon="0.77975">
        <ele>109</ele>
        <time>2025-10-12T13:34:59.518Z</time>
      </trkpt>
      <trkpt lat="44.34021" lon="0.77975">
        <ele>109</ele>
        <time>2025-10-12T13:35:00.518Z</time>
      </trkpt>
      <trkpt lat="44.34021" lon="0.77975">
        <ele>109</ele>
        <time>2025-10-12T13:35:01.518Z</time>
      </trkpt>
      <trkpt lat="44.34021" lon="0.77974">
        <ele>109</ele>
        <time>2025-10-12T13:35:02.518Z</time>
      </trkpt>
      <trkpt lat="44.34021" lon="0.77974">
        <ele>108</ele>
        <time>2025-10-12T13:35:03.518Z</time>
      </trkpt>
      <trkpt lat="44.34021" lon="0.77974">
        <ele>108</ele>
        <time>2025-10-12T13:35:04.518Z</time>
      </trkpt>
      <trkpt lat="44.34021" lon="0.77974">
        <ele>108</ele>
        <time>2025-10-12T13:35:05.518Z</time>
      </trkpt>
      <trkpt lat="44.34021" lon="0.77974">
        <ele>107</ele>
        <time>2025-10-12T13:35:06.518Z</time>
      </trkpt>
      <trkpt lat="44.34021" lon="0.77974">
        <ele>106</ele>
        <time>2025-10-12T13:35:07.518Z</time>
      </trkpt>
      <trkpt lat="44.34021" lon="0.77974">
        <ele>106</ele>
        <time>2025-10-12T13:35:08.518Z</time>
      </trkpt>
      <trkpt lat="44.34021" lon="0.77974">
        <ele>105</ele>
        <time>2025-10-12T13:35:09.518Z</time>
      </trkpt>
      <trkpt lat="44.3402" lon="0.77974">
        <ele>104</ele>
        <time>2025-10-12T13:35:10.518Z</time>
      </trkpt>
      <trkpt lat="44.3402" lon="0.77974">
        <ele>104</ele>
        <time>2025-10-12T13:35:11.518Z</time>
      </trkpt>
      <trkpt lat="44.3402" lon="0.77974">
        <ele>103</ele>
        <time>2025-10-12T13:35:12.518Z</time>
      </trkpt>
      <trkpt lat="44.3402" lon="0.77974">
        <ele>103</ele>
        <time>2025-10-12T13:35:13.518Z</time>
      </trkpt>
      <trkpt lat="44.3402" lon="0.77974">
        <ele>103</ele>
        <time>2025-10-12T13:35:14.518Z</time>
      </trkpt>
      <trkpt lat="44.3402" lon="0.77973">
        <ele>102</ele>
        <time>2025-10-12T13:35:15.518Z</time>
      </trkpt>
      <trkpt lat="44.34019" lon="0.77972">
        <ele>102</ele>
        <time>2025-10-12T13:35:16.518Z</time>
      </trkpt>
      <trkpt lat="44.34019" lon="0.77972">
        <ele>102</ele>
        <time>2025-10-12T13:35:17.518Z</time>
      </trkpt>
      <trkpt lat="44.34019" lon="0.77972">
        <ele>102</ele>
        <time>2025-10-12T13:35:18.518Z</time>
      </trkpt>
      <trkpt lat="44.34019" lon="0.77972">
        <ele>102</ele>
        <time>2025-10-12T13:35:19.518Z</time>
      </trkpt>
      <trkpt lat="44.34019" lon="0.77972">
        <ele>102</ele>
        <time>2025-10-12T13:35:20.518Z</time>
      </trkpt>
      <trkpt lat="44.34019" lon="0.77971">
        <ele>103</ele>
        <time>2025-10-12T13:35:21.518Z</time>
      </trkpt>
      <trkpt lat="44.34019" lon="0.77971">
        <ele>103</ele>
        <time>2025-10-12T13:35:22.518Z</time>
      </trkpt>
      <trkpt lat="44.34019" lon="0.77972">
        <ele>103</ele>
        <time>2025-10-12T13:35:23.518Z</time>
      </trkpt>
      <trkpt lat="44.34019" lon="0.77971">
        <ele>103</ele>
        <time>2025-10-12T13:35:24.518Z</time>
      </trkpt>
      <trkpt lat="44.34019" lon="0.77971">
        <ele>103</ele>
        <time>2025-10-12T13:35:25.518Z</time>
      </trkpt>
      <trkpt lat="44.34019" lon="0.77971">
        <ele>103</ele>
        <time>2025-10-12T13:35:26.518Z</time>
      </trkpt>
      <trkpt lat="44.34019" lon="0.77971">
        <ele>103</ele>
        <time>2025-10-12T13:35:27.518Z</time>
      </trkpt>
      <trkpt lat="44.34019" lon="0.77971">
        <ele>104</ele>
        <time>2025-10-12T13:35:28.518Z</time>
      </trkpt>
      <trkpt lat="44.34019" lon="0.77971">
        <ele>103</ele>
        <time>2025-10-12T13:35:29.518Z</time>
      </trkpt>
      <trkpt lat="44.34018" lon="0.7797">
        <ele>104</ele>
        <time>2025-10-12T13:35:30.518Z</time>
      </trkpt>
      <trkpt lat="44.34018" lon="0.7797">
        <ele>104</ele>
        <time>2025-10-12T13:35:31.518Z</time>
      </trkpt>
      <trkpt lat="44.34018" lon="0.7797">
        <ele>104</ele>
        <time>2025-10-12T13:35:32.518Z</time>
      </trkpt>
      <trkpt lat="44.34018" lon="0.7797">
        <ele>104</ele>
        <time>2025-10-12T13:35:33.518Z</time>
      </trkpt>
      <trkpt lat="44.34017" lon="0.7797">
        <ele>104</ele>
        <time>2025-10-12T13:35:34.518Z</time>
      </trkpt>
      <trkpt lat="44.34017" lon="0.7797">
        <ele>104</ele>
        <time>2025-10-12T13:35:35.518Z</time>
      </trkpt>
      <trkpt lat="44.34018" lon="0.77969">
        <ele>104</ele>
        <time>2025-10-12T13:35:36.518Z</time>
      </trkpt>
      <trkpt lat="44.34018" lon="0.77969">
        <ele>104</ele>
        <time>2025-10-12T13:35:37.518Z</time>
      </trkpt>
      <trkpt lat="44.34018" lon="0.77969">
        <ele>104</ele>
        <time>2025-10-12T13:35:38.519Z</time>
      </trkpt>
      <trkpt lat="44.34018" lon="0.7797">
        <ele>104</ele>
        <time>2025-10-12T13:35:39.518Z</time>
      </trkpt>
      <trkpt lat="44.34018" lon="0.7797">
        <ele>105</ele>
        <time>2025-10-12T13:35:40.518Z</time>
      </trkpt>
      <trkpt lat="44.34018" lon="0.7797">
        <ele>105</ele>
        <time>2025-10-12T13:35:41.518Z</time>
      </trkpt>
      <trkpt lat="44.34018" lon="0.7797">
        <ele>105</ele>
        <time>2025-10-12T13:35:42.518Z</time>
      </trkpt>
      <trkpt lat="44.34018" lon="0.7797">
        <ele>105</ele>
        <time>2025-10-12T13:35:43.518Z</time>
      </trkpt>
      <trkpt lat="44.34018" lon="0.7797">
        <ele>105</ele>
        <time>2025-10-12T13:35:44.518Z</time>
      </trkpt>
      <trkpt lat="44.34017" lon="0.7797">
        <ele>105</ele>
        <time>2025-10-12T13:35:45.518Z</time>
      </trkpt>
      <trkpt lat="44.34017" lon="0.7797">
        <ele>105</ele>
        <time>2025-10-12T13:35:46.518Z</time>
      </trkpt>
      <trkpt lat="44.34017" lon="0.7797">
        <ele>105</ele>
        <time>2025-10-12T13:35:47.518Z</time>
      </trkpt>
      <trkpt lat="44.34017" lon="0.7797">
        <ele>105</ele>
        <time>2025-10-12T13:35:48.518Z</time>
      </trkpt>
      <trkpt lat="44.34017" lon="0.7797">
        <ele>105</ele>
        <time>2025-10-12T13:35:49.518Z</time>
      </trkpt>
      <trkpt lat="44.34017" lon="0.7797">
        <ele>106</ele>
        <time>2025-10-12T13:35:50.518Z</time>
      </trkpt>
      <trkpt lat="44.34017" lon="0.77969">
        <ele>106</ele>
        <time>2025-10-12T13:35:51.518Z</time>
      </trkpt>
      <trkpt lat="44.34016" lon="0.77969">
        <ele>107</ele>
        <time>2025-10-12T13:35:52.518Z</time>
      </trkpt>
      <trkpt lat="44.34017" lon="0.77969">
        <ele>107</ele>
        <time>2025-10-12T13:35:53.518Z</time>
      </trkpt>
      <trkpt lat="44.34017" lon="0.77969">
        <ele>108</ele>
        <time>2025-10-12T13:35:54.518Z</time>
      </trkpt>
      <trkpt lat="44.34017" lon="0.77969">
        <ele>108</ele>
        <time>2025-10-12T13:35:55.518Z</time>
      </trkpt>
      <trkpt lat="44.34017" lon="0.77969">
        <ele>108</ele>
        <time>2025-10-12T13:35:56.518Z</time>
      </trkpt>
      <trkpt lat="44.34017" lon="0.77969">
        <ele>108</ele>
        <time>2025-10-12T13:35:57.518Z</time>
      </trkpt>
      <trkpt lat="44.34017" lon="0.77969">
        <ele>108</ele>
        <time>2025-10-12T13:35:58.518Z</time>
      </trkpt>
      <trkpt lat="44.34017" lon="0.77969">
        <ele>109</ele>
        <time>2025-10-12T13:35:59.518Z</time>
      </trkpt>
      <trkpt lat="44.34017" lon="0.77969">
        <ele>109</ele>
        <time>2025-10-12T13:36:00.518Z</time>
      </trkpt>
      <trkpt lat="44.34017" lon="0.77969">
        <ele>109</ele>
        <time>2025-10-12T13:36:01.518Z</time>
      </trkpt>
      <trkpt lat="44.34016" lon="0.77969">
        <ele>109</ele>
        <time>2025-10-12T13:36:02.518Z</time>
      </trkpt>
      <trkpt lat="44.34016" lon="0.77969">
        <ele>110</ele>
        <time>2025-10-12T13:36:03.518Z</time>
      </trkpt>
      <trkpt lat="44.34016" lon="0.77969">
        <ele>110</ele>
        <time>2025-10-12T13:36:04.518Z</time>
      </trkpt>
      <trkpt lat="44.34016" lon="0.77969">
        <ele>110</ele>
        <time>2025-10-12T13:36:05.518Z</time>
      </trkpt>
      <trkpt lat="44.34016" lon="0.77969">
        <ele>110</ele>
        <time>2025-10-12T13:36:06.518Z</time>
      </trkpt>
      <trkpt lat="44.34016" lon="0.77968">
        <ele>110</ele>
        <time>2025-10-12T13:36:07.518Z</time>
      </trkpt>
      <trkpt lat="44.34016" lon="0.77969">
        <ele>110</ele>
        <time>2025-10-12T13:36:08.518Z</time>
      </trkpt>
      <trkpt lat="44.34016" lon="0.77969">
        <ele>110</ele>
        <time>2025-10-12T13:36:09.518Z</time>
      </trkpt>
      <trkpt lat="44.34015" lon="0.7797">
        <ele>110</ele>
        <time>2025-10-12T13:36:10.518Z</time>
      </trkpt>
      <trkpt lat="44.34014" lon="0.77969">
        <ele>110</ele>
        <time>2025-10-12T13:36:11.518Z</time>
      </trkpt>
      <trkpt lat="44.34014" lon="0.77969">
        <ele>110</ele>
        <time>2025-10-12T13:36:12.518Z</time>
      </trkpt>
      <trkpt lat="44.34013" lon="0.77969">
        <ele>110</ele>
        <time>2025-10-12T13:36:13.518Z</time>
      </trkpt>
      <trkpt lat="44.34012" lon="0.77969">
        <ele>110</ele>
        <time>2025-10-12T13:36:14.518Z</time>
      </trkpt>
      <trkpt lat="44.34012" lon="0.77969">
        <ele>109</ele>
        <time>2025-10-12T13:36:15.518Z</time>
      </trkpt>
      <trkpt lat="44.34011" lon="0.77969">
        <ele>109</ele>
        <time>2025-10-12T13:36:16.518Z</time>
      </trkpt>
      <trkpt lat="44.3401" lon="0.77969">
        <ele>108</ele>
        <time>2025-10-12T13:36:17.518Z</time>
      </trkpt>
      <trkpt lat="44.34009" lon="0.77969">
        <ele>108</ele>
        <time>2025-10-12T13:36:18.518Z</time>
      </trkpt>
      <trkpt lat="44.34007" lon="0.77969">
        <ele>108</ele>
        <time>2025-10-12T13:36:19.518Z</time>
      </trkpt>
      <trkpt lat="44.34006" lon="0.77969">
        <ele>108</ele>
        <time>2025-10-12T13:36:20.518Z</time>
      </trkpt>
      <trkpt lat="44.34005" lon="0.77968">
        <ele>107</ele>
        <time>2025-10-12T13:36:21.518Z</time>
      </trkpt>
      <trkpt lat="44.34004" lon="0.77967">
        <ele>107</ele>
        <time>2025-10-12T13:36:22.518Z</time>
      </trkpt>
      <trkpt lat="44.34003" lon="0.77967">
        <ele>107</ele>
        <time>2025-10-12T13:36:23.518Z</time>
      </trkpt>
      <trkpt lat="44.34001" lon="0.77966">
        <ele>107</ele>
        <time>2025-10-12T13:36:24.518Z</time>
      </trkpt>
      <trkpt lat="44.34" lon="0.77966">
        <ele>108</ele>
        <time>2025-10-12T13:36:25.518Z</time>
      </trkpt>
      <trkpt lat="44.33998" lon="0.77966">
        <ele>108</ele>
        <time>2025-10-12T13:36:26.518Z</time>
      </trkpt>
      <trkpt lat="44.33997" lon="0.77966">
        <ele>108</ele>
        <time>2025-10-12T13:36:27.518Z</time>
      </trkpt>
      <trkpt lat="44.33996" lon="0.77966">
        <ele>107</ele>
        <time>2025-10-12T13:36:28.518Z</time>
      </trkpt>
      <trkpt lat="44.33995" lon="0.77965">
        <ele>107</ele>
        <time>2025-10-12T13:36:29.518Z</time>
      </trkpt>
      <trkpt lat="44.33994" lon="0.77965">
        <ele>107</ele>
        <time>2025-10-12T13:36:30.518Z</time>
      </trkpt>
      <trkpt lat="44.33992" lon="0.77965">
        <ele>107</ele>
        <time>2025-10-12T13:36:31.518Z</time>
      </trkpt>
      <trkpt lat="44.33992" lon="0.77965">
        <ele>106</ele>
        <time>2025-10-12T13:36:32.518Z</time>
      </trkpt>
      <trkpt lat="44.3399" lon="0.77964">
        <ele>106</ele>
        <time>2025-10-12T13:36:33.518Z</time>
      </trkpt>
      <trkpt lat="44.33989" lon="0.77964">
        <ele>105</ele>
        <time>2025-10-12T13:36:34.518Z</time>
      </trkpt>
      <trkpt lat="44.33988" lon="0.77963">
        <ele>105</ele>
        <time>2025-10-12T13:36:35.518Z</time>
      </trkpt>
      <trkpt lat="44.33987" lon="0.77963">
        <ele>105</ele>
        <time>2025-10-12T13:36:36.518Z</time>
      </trkpt>
      <trkpt lat="44.33986" lon="0.77963">
        <ele>104</ele>
        <time>2025-10-12T13:36:37.518Z</time>
      </trkpt>
      <trkpt lat="44.33985" lon="0.77962">
        <ele>104</ele>
        <time>2025-10-12T13:36:38.518Z</time>
      </trkpt>
      <trkpt lat="44.33984" lon="0.77962">
        <ele>104</ele>
        <time>2025-10-12T13:36:39.518Z</time>
      </trkpt>
      <trkpt lat="44.33983" lon="0.77962">
        <ele>103</ele>
        <time>2025-10-12T13:36:40.518Z</time>
      </trkpt>
      <trkpt lat="44.33981" lon="0.77962">
        <ele>103</ele>
        <time>2025-10-12T13:36:41.518Z</time>
      </trkpt>
      <trkpt lat="44.3398" lon="0.77962">
        <ele>102</ele>
        <time>2025-10-12T13:36:42.518Z</time>
      </trkpt>
      <trkpt lat="44.3398" lon="0.77961">
        <ele>102</ele>
        <time>2025-10-12T13:36:43.518Z</time>
      </trkpt>
      <trkpt lat="44.33979" lon="0.77961">
        <ele>102</ele>
        <time>2025-10-12T13:36:44.518Z</time>
      </trkpt>
      <trkpt lat="44.33978" lon="0.77961">
        <ele>102</ele>
        <time>2025-10-12T13:36:45.518Z</time>
      </trkpt>
      <trkpt lat="44.33977" lon="0.7796">
        <ele>102</ele>
        <time>2025-10-12T13:36:46.518Z</time>
      </trkpt>
      <trkpt lat="44.33977" lon="0.7796">
        <ele>102</ele>
        <time>2025-10-12T13:36:47.518Z</time>
      </trkpt>
      <trkpt lat="44.33977" lon="0.7796">
        <ele>102</ele>
        <time>2025-10-12T13:36:48.518Z</time>
      </trkpt>
      <trkpt lat="44.33977" lon="0.7796">
        <ele>102</ele>
        <time>2025-10-12T13:36:49.518Z</time>
      </trkpt>
      <trkpt lat="44.33977" lon="0.7796">
        <ele>102</ele>
        <time>2025-10-12T13:36:50.518Z</time>
      </trkpt>
      <trkpt lat="44.33977" lon="0.7796">
        <ele>101</ele>
        <time>2025-10-12T13:36:51.518Z</time>
      </trkpt>
      <trkpt lat="44.33977" lon="0.7796">
        <ele>101</ele>
        <time>2025-10-12T13:36:52.518Z</time>
      </trkpt>
      <trkpt lat="44.33976" lon="0.7796">
        <ele>101</ele>
        <time>2025-10-12T13:36:53.518Z</time>
      </trkpt>
      <trkpt lat="44.33976" lon="0.77961">
        <ele>100</ele>
        <time>2025-10-12T13:36:54.519Z</time>
      </trkpt>
      <trkpt lat="44.33976" lon="0.77961">
        <ele>100</ele>
        <time>2025-10-12T13:36:55.518Z</time>
      </trkpt>
      <trkpt lat="44.33976" lon="0.77961">
        <ele>99</ele>
        <time>2025-10-12T13:36:56.518Z</time>
      </trkpt>
      <trkpt lat="44.33976" lon="0.77961">
        <ele>99</ele>
        <time>2025-10-12T13:36:57.518Z</time>
      </trkpt>
      <trkpt lat="44.33975" lon="0.77961">
        <ele>100</ele>
        <time>2025-10-12T13:36:58.518Z</time>
      </trkpt>
      <trkpt lat="44.33975" lon="0.77961">
        <ele>100</ele>
        <time>2025-10-12T13:36:59.518Z</time>
      </trkpt>
      <trkpt lat="44.33975" lon="0.77961">
        <ele>100</ele>
        <time>2025-10-12T13:37:00.518Z</time>
      </trkpt>
      <trkpt lat="44.33975" lon="0.77961">
        <ele>100</ele>
        <time>2025-10-12T13:37:01.518Z</time>
      </trkpt>
      <trkpt lat="44.33975" lon="0.77961">
        <ele>100</ele>
        <time>2025-10-12T13:37:02.518Z</time>
      </trkpt>
      <trkpt lat="44.33975" lon="0.77961">
        <ele>100</ele>
        <time>2025-10-12T13:37:03.518Z</time>
      </trkpt>
      <trkpt lat="44.33975" lon="0.7796">
        <ele>100</ele>
        <time>2025-10-12T13:37:04.518Z</time>
      </trkpt>
      <trkpt lat="44.33975" lon="0.7796">
        <ele>101</ele>
        <time>2025-10-12T13:37:05.518Z</time>
      </trkpt>
      <trkpt lat="44.33975" lon="0.7796">
        <ele>101</ele>
        <time>2025-10-12T13:37:06.518Z</time>
      </trkpt>
      <trkpt lat="44.33975" lon="0.7796">
        <ele>101</ele>
        <time>2025-10-12T13:37:07.518Z</time>
      </trkpt>
      <trkpt lat="44.33975" lon="0.7796">
        <ele>101</ele>
        <time>2025-10-12T13:37:08.518Z</time>
      </trkpt>
      <trkpt lat="44.33975" lon="0.7796">
        <ele>102</ele>
        <time>2025-10-12T13:37:09.518Z</time>
      </trkpt>
      <trkpt lat="44.33975" lon="0.7796">
        <ele>102</ele>
        <time>2025-10-12T13:37:10.518Z</time>
      </trkpt>
      <trkpt lat="44.33975" lon="0.7796">
        <ele>102</ele>
        <time>2025-10-12T13:37:11.518Z</time>
      </trkpt>
      <trkpt lat="44.33974" lon="0.77961">
        <ele>103</ele>
        <time>2025-10-12T13:37:12.518Z</time>
      </trkpt>
      <trkpt lat="44.33974" lon="0.77962">
        <ele>103</ele>
        <time>2025-10-12T13:37:13.518Z</time>
      </trkpt>
      <trkpt lat="44.33973" lon="0.77962">
        <ele>103</ele>
        <time>2025-10-12T13:37:14.518Z</time>
      </trkpt>
      <trkpt lat="44.33972" lon="0.77963">
        <ele>103</ele>
        <time>2025-10-12T13:37:15.518Z</time>
      </trkpt>
      <trkpt lat="44.33971" lon="0.77964">
        <ele>103</ele>
        <time>2025-10-12T13:37:16.518Z</time>
      </trkpt>
      <trkpt lat="44.33971" lon="0.77965">
        <ele>103</ele>
        <time>2025-10-12T13:37:17.518Z</time>
      </trkpt>
      <trkpt lat="44.3397" lon="0.77966">
        <ele>103</ele>
        <time>2025-10-12T13:37:18.518Z</time>
      </trkpt>
      <trkpt lat="44.33969" lon="0.77967">
        <ele>103</ele>
        <time>2025-10-12T13:37:19.518Z</time>
      </trkpt>
      <trkpt lat="44.33968" lon="0.77968">
        <ele>103</ele>
        <time>2025-10-12T13:37:20.518Z</time>
      </trkpt>
      <trkpt lat="44.33967" lon="0.77968">
        <ele>103</ele>
        <time>2025-10-12T13:37:21.518Z</time>
      </trkpt>
      <trkpt lat="44.33966" lon="0.77969">
        <ele>103</ele>
        <time>2025-10-12T13:37:22.518Z</time>
      </trkpt>
      <trkpt lat="44.33965" lon="0.7797">
        <ele>103</ele>
        <time>2025-10-12T13:37:23.518Z</time>
      </trkpt>
      <trkpt lat="44.33964" lon="0.7797">
        <ele>103</ele>
        <time>2025-10-12T13:37:24.518Z</time>
      </trkpt>
      <trkpt lat="44.33963" lon="0.7797">
        <ele>102</ele>
        <time>2025-10-12T13:37:25.518Z</time>
      </trkpt>
      <trkpt lat="44.33962" lon="0.7797">
        <ele>102</ele>
        <time>2025-10-12T13:37:26.518Z</time>
      </trkpt>
      <trkpt lat="44.33961" lon="0.7797">
        <ele>101</ele>
        <time>2025-10-12T13:37:27.518Z</time>
      </trkpt>
      <trkpt lat="44.3396" lon="0.77971">
        <ele>101</ele>
        <time>2025-10-12T13:37:28.518Z</time>
      </trkpt>
      <trkpt lat="44.33959" lon="0.77971">
        <ele>100</ele>
        <time>2025-10-12T13:37:29.518Z</time>
      </trkpt>
      <trkpt lat="44.33957" lon="0.77971">
        <ele>100</ele>
        <time>2025-10-12T13:37:30.518Z</time>
      </trkpt>
      <trkpt lat="44.33956" lon="0.77971">
        <ele>100</ele>
        <time>2025-10-12T13:37:31.518Z</time>
      </trkpt>
      <trkpt lat="44.33955" lon="0.77971">
        <ele>99</ele>
        <time>2025-10-12T13:37:32.518Z</time>
      </trkpt>
      <trkpt lat="44.33954" lon="0.77971">
        <ele>99</ele>
        <time>2025-10-12T13:37:33.518Z</time>
      </trkpt>
      <trkpt lat="44.33953" lon="0.77971">
        <ele>98</ele>
        <time>2025-10-12T13:37:34.518Z</time>
      </trkpt>
      <trkpt lat="44.33952" lon="0.77971">
        <ele>98</ele>
        <time>2025-10-12T13:37:35.518Z</time>
      </trkpt>
      <trkpt lat="44.3395" lon="0.7797">
        <ele>98</ele>
        <time>2025-10-12T13:37:36.518Z</time>
      </trkpt>
      <trkpt lat="44.33949" lon="0.7797">
        <ele>98</ele>
        <time>2025-10-12T13:37:37.518Z</time>
      </trkpt>
      <trkpt lat="44.33948" lon="0.7797">
        <ele>97</ele>
        <time>2025-10-12T13:37:38.518Z</time>
      </trkpt>
      <trkpt lat="44.33947" lon="0.7797">
        <ele>97</ele>
        <time>2025-10-12T13:37:39.518Z</time>
      </trkpt>
      <trkpt lat="44.33946" lon="0.77969">
        <ele>97</ele>
        <time>2025-10-12T13:37:40.518Z</time>
      </trkpt>
      <trkpt lat="44.33945" lon="0.77969">
        <ele>97</ele>
        <time>2025-10-12T13:37:41.518Z</time>
      </trkpt>
      <trkpt lat="44.33944" lon="0.77968">
        <ele>97</ele>
        <time>2025-10-12T13:37:42.518Z</time>
      </trkpt>
      <trkpt lat="44.33943" lon="0.77967">
        <ele>97</ele>
        <time>2025-10-12T13:37:43.518Z</time>
      </trkpt>
      <trkpt lat="44.33941" lon="0.77966">
        <ele>96</ele>
        <time>2025-10-12T13:37:44.518Z</time>
      </trkpt>
      <trkpt lat="44.3394" lon="0.77966">
        <ele>96</ele>
        <time>2025-10-12T13:37:45.518Z</time>
      </trkpt>
      <trkpt lat="44.33939" lon="0.77966">
        <ele>96</ele>
        <time>2025-10-12T13:37:46.518Z</time>
      </trkpt>
      <trkpt lat="44.33938" lon="0.77965">
        <ele>96</ele>
        <time>2025-10-12T13:37:47.518Z</time>
      </trkpt>
      <trkpt lat="44.33937" lon="0.77965">
        <ele>96</ele>
        <time>2025-10-12T13:37:48.518Z</time>
      </trkpt>
      <trkpt lat="44.33936" lon="0.77964">
        <ele>96</ele>
        <time>2025-10-12T13:37:49.518Z</time>
      </trkpt>
      <trkpt lat="44.33935" lon="0.77964">
        <ele>96</ele>
        <time>2025-10-12T13:37:50.518Z</time>
      </trkpt>
      <trkpt lat="44.33934" lon="0.77964">
        <ele>96</ele>
        <time>2025-10-12T13:37:51.518Z</time>
      </trkpt>
      <trkpt lat="44.33933" lon="0.77963">
        <ele>95</ele>
        <time>2025-10-12T13:37:52.518Z</time>
      </trkpt>
      <trkpt lat="44.33932" lon="0.77963">
        <ele>95</ele>
        <time>2025-10-12T13:37:53.518Z</time>
      </trkpt>
      <trkpt lat="44.33931" lon="0.77963">
        <ele>95</ele>
        <time>2025-10-12T13:37:54.518Z</time>
      </trkpt>
      <trkpt lat="44.3393" lon="0.77963">
        <ele>95</ele>
        <time>2025-10-12T13:37:55.518Z</time>
      </trkpt>
      <trkpt lat="44.33929" lon="0.77963">
        <ele>95</ele>
        <time>2025-10-12T13:37:56.518Z</time>
      </trkpt>
      <trkpt lat="44.33928" lon="0.77963">
        <ele>95</ele>
        <time>2025-10-12T13:37:57.518Z</time>
      </trkpt>
      <trkpt lat="44.33927" lon="0.77963">
        <ele>96</ele>
        <time>2025-10-12T13:37:58.518Z</time>
      </trkpt>
      <trkpt lat="44.33925" lon="0.77963">
        <ele>96</ele>
        <time>2025-10-12T13:37:59.518Z</time>
      </trkpt>
      <trkpt lat="44.33924" lon="0.77962">
        <ele>96</ele>
        <time>2025-10-12T13:38:00.518Z</time>
      </trkpt>
      <trkpt lat="44.33923" lon="0.77962">
        <ele>96</ele>
        <time>2025-10-12T13:38:01.518Z</time>
      </trkpt>
      <trkpt lat="44.33922" lon="0.77962">
        <ele>96</ele>
        <time>2025-10-12T13:38:02.518Z</time>
      </trkpt>
      <trkpt lat="44.3392" lon="0.77962">
        <ele>96</ele>
        <time>2025-10-12T13:38:03.518Z</time>
      </trkpt>
      <trkpt lat="44.33919" lon="0.77962">
        <ele>96</ele>
        <time>2025-10-12T13:38:04.518Z</time>
      </trkpt>
      <trkpt lat="44.33918" lon="0.77962">
        <ele>96</ele>
        <time>2025-10-12T13:38:05.518Z</time>
      </trkpt>
      <trkpt lat="44.33917" lon="0.77962">
        <ele>96</ele>
        <time>2025-10-12T13:38:06.518Z</time>
      </trkpt>
      <trkpt lat="44.33915" lon="0.77963">
        <ele>96</ele>
        <time>2025-10-12T13:38:07.518Z</time>
      </trkpt>
      <trkpt lat="44.33914" lon="0.77963">
        <ele>96</ele>
        <time>2025-10-12T13:38:08.518Z</time>
      </trkpt>
      <trkpt lat="44.33914" lon="0.77963">
        <ele>96</ele>
        <time>2025-10-12T13:38:09.518Z</time>
      </trkpt>
      <trkpt lat="44.33912" lon="0.77963">
        <ele>96</ele>
        <time>2025-10-12T13:38:10.518Z</time>
      </trkpt>
      <trkpt lat="44.33911" lon="0.77963">
        <ele>96</ele>
        <time>2025-10-12T13:38:11.518Z</time>
      </trkpt>
      <trkpt lat="44.3391" lon="0.77963">
        <ele>97</ele>
        <time>2025-10-12T13:38:12.518Z</time>
      </trkpt>
      <trkpt lat="44.33908" lon="0.77963">
        <ele>97</ele>
        <time>2025-10-12T13:38:13.518Z</time>
      </trkpt>
      <trkpt lat="44.33907" lon="0.77963">
        <ele>97</ele>
        <time>2025-10-12T13:38:14.518Z</time>
      </trkpt>
      <trkpt lat="44.33905" lon="0.77963">
        <ele>97</ele>
        <time>2025-10-12T13:38:15.518Z</time>
      </trkpt>
      <trkpt lat="44.33904" lon="0.77964">
        <ele>97</ele>
        <time>2025-10-12T13:38:16.518Z</time>
      </trkpt>
      <trkpt lat="44.33903" lon="0.77964">
        <ele>97</ele>
        <time>2025-10-12T13:38:17.518Z</time>
      </trkpt>
      <trkpt lat="44.33902" lon="0.77964">
        <ele>97</ele>
        <time>2025-10-12T13:38:18.518Z</time>
      </trkpt>
      <trkpt lat="44.33901" lon="0.77963">
        <ele>97</ele>
        <time>2025-10-12T13:38:19.518Z</time>
      </trkpt>
      <trkpt lat="44.339" lon="0.77963">
        <ele>97</ele>
        <time>2025-10-12T13:38:20.518Z</time>
      </trkpt>
      <trkpt lat="44.33899" lon="0.77963">
        <ele>97</ele>
        <time>2025-10-12T13:38:21.518Z</time>
      </trkpt>
      <trkpt lat="44.33898" lon="0.77963">
        <ele>97</ele>
        <time>2025-10-12T13:38:22.518Z</time>
      </trkpt>
      <trkpt lat="44.33897" lon="0.77963">
        <ele>97</ele>
        <time>2025-10-12T13:38:23.518Z</time>
      </trkpt>
      <trkpt lat="44.33896" lon="0.77963">
        <ele>97</ele>
        <time>2025-10-12T13:38:24.518Z</time>
      </trkpt>
      <trkpt lat="44.33894" lon="0.77963">
        <ele>97</ele>
        <time>2025-10-12T13:38:25.518Z</time>
      </trkpt>
      <trkpt lat="44.33893" lon="0.77962">
        <ele>97</ele>
        <time>2025-10-12T13:38:26.518Z</time>
      </trkpt>
      <trkpt lat="44.33892" lon="0.77962">
        <ele>96</ele>
        <time>2025-10-12T13:38:27.518Z</time>
      </trkpt>
      <trkpt lat="44.3389" lon="0.77962">
        <ele>96</ele>
        <time>2025-10-12T13:38:28.518Z</time>
      </trkpt>
      <trkpt lat="44.33889" lon="0.77961">
        <ele>96</ele>
        <time>2025-10-12T13:38:29.518Z</time>
      </trkpt>
      <trkpt lat="44.33888" lon="0.77961">
        <ele>96</ele>
        <time>2025-10-12T13:38:30.518Z</time>
      </trkpt>
      <trkpt lat="44.33887" lon="0.7796">
        <ele>96</ele>
        <time>2025-10-12T13:38:31.518Z</time>
      </trkpt>
      <trkpt lat="44.33886" lon="0.7796">
        <ele>96</ele>
        <time>2025-10-12T13:38:32.518Z</time>
      </trkpt>
      <trkpt lat="44.33885" lon="0.77959">
        <ele>96</ele>
        <time>2025-10-12T13:38:33.518Z</time>
      </trkpt>
      <trkpt lat="44.33884" lon="0.77958">
        <ele>96</ele>
        <time>2025-10-12T13:38:34.518Z</time>
      </trkpt>
      <trkpt lat="44.33882" lon="0.77958">
        <ele>96</ele>
        <time>2025-10-12T13:38:35.518Z</time>
      </trkpt>
      <trkpt lat="44.33881" lon="0.77957">
        <ele>96</ele>
        <time>2025-10-12T13:38:36.518Z</time>
      </trkpt>
      <trkpt lat="44.3388" lon="0.77955">
        <ele>96</ele>
        <time>2025-10-12T13:38:37.519Z</time>
      </trkpt>
      <trkpt lat="44.33878" lon="0.77954">
        <ele>96</ele>
        <time>2025-10-12T13:38:38.518Z</time>
      </trkpt>
      <trkpt lat="44.33877" lon="0.77953">
        <ele>96</ele>
        <time>2025-10-12T13:38:39.518Z</time>
      </trkpt>
      <trkpt lat="44.33876" lon="0.77952">
        <ele>96</ele>
        <time>2025-10-12T13:38:40.518Z</time>
      </trkpt>
      <trkpt lat="44.33875" lon="0.77952">
        <ele>97</ele>
        <time>2025-10-12T13:38:41.518Z</time>
      </trkpt>
      <trkpt lat="44.33874" lon="0.77951">
        <ele>97</ele>
        <time>2025-10-12T13:38:42.518Z</time>
      </trkpt>
      <trkpt lat="44.33873" lon="0.77949">
        <ele>97</ele>
        <time>2025-10-12T13:38:43.518Z</time>
      </trkpt>
      <trkpt lat="44.33872" lon="0.77948">
        <ele>97</ele>
        <time>2025-10-12T13:38:44.518Z</time>
      </trkpt>
      <trkpt lat="44.33871" lon="0.77947">
        <ele>97</ele>
        <time>2025-10-12T13:38:45.518Z</time>
      </trkpt>
      <trkpt lat="44.3387" lon="0.77945">
        <ele>97</ele>
        <time>2025-10-12T13:38:46.518Z</time>
      </trkpt>
      <trkpt lat="44.33869" lon="0.77944">
        <ele>98</ele>
        <time>2025-10-12T13:38:47.518Z</time>
      </trkpt>
      <trkpt lat="44.33868" lon="0.77942">
        <ele>98</ele>
        <time>2025-10-12T13:38:48.518Z</time>
      </trkpt>
      <trkpt lat="44.33867" lon="0.7794">
        <ele>97</ele>
        <time>2025-10-12T13:38:49.518Z</time>
      </trkpt>
      <trkpt lat="44.33867" lon="0.77938">
        <ele>97</ele>
        <time>2025-10-12T13:38:50.518Z</time>
      </trkpt>
      <trkpt lat="44.33866" lon="0.77937">
        <ele>97</ele>
        <time>2025-10-12T13:38:51.518Z</time>
      </trkpt>
      <trkpt lat="44.33865" lon="0.77936">
        <ele>97</ele>
        <time>2025-10-12T13:38:52.518Z</time>
      </trkpt>
      <trkpt lat="44.33864" lon="0.77934">
        <ele>97</ele>
        <time>2025-10-12T13:38:53.518Z</time>
      </trkpt>
      <trkpt lat="44.33863" lon="0.77933">
        <ele>97</ele>
        <time>2025-10-12T13:38:54.518Z</time>
      </trkpt>
      <trkpt lat="44.33862" lon="0.77932">
        <ele>97</ele>
        <time>2025-10-12T13:38:55.518Z</time>
      </trkpt>
      <trkpt lat="44.33861" lon="0.7793">
        <ele>97</ele>
        <time>2025-10-12T13:38:56.518Z</time>
      </trkpt>
      <trkpt lat="44.33861" lon="0.77928">
        <ele>97</ele>
        <time>2025-10-12T13:38:57.518Z</time>
      </trkpt>
      <trkpt lat="44.3386" lon="0.77926">
        <ele>97</ele>
        <time>2025-10-12T13:38:58.518Z</time>
      </trkpt>
      <trkpt lat="44.33859" lon="0.77925">
        <ele>97</ele>
        <time>2025-10-12T13:38:59.518Z</time>
      </trkpt>
      <trkpt lat="44.33858" lon="0.77924">
        <ele>97</ele>
        <time>2025-10-12T13:39:00.518Z</time>
      </trkpt>
      <trkpt lat="44.33857" lon="0.77923">
        <ele>97</ele>
        <time>2025-10-12T13:39:01.518Z</time>
      </trkpt>
      <trkpt lat="44.33856" lon="0.77922">
        <ele>97</ele>
        <time>2025-10-12T13:39:02.518Z</time>
      </trkpt>
      <trkpt lat="44.33855" lon="0.7792">
        <ele>97</ele>
        <time>2025-10-12T13:39:03.518Z</time>
      </trkpt>
      <trkpt lat="44.33854" lon="0.77919">
        <ele>98</ele>
        <time>2025-10-12T13:39:04.518Z</time>
      </trkpt>
      <trkpt lat="44.33854" lon="0.77917">
        <ele>98</ele>
        <time>2025-10-12T13:39:05.518Z</time>
      </trkpt>
      <trkpt lat="44.33853" lon="0.77915">
        <ele>98</ele>
        <time>2025-10-12T13:39:06.518Z</time>
      </trkpt>
      <trkpt lat="44.33853" lon="0.77914">
        <ele>97</ele>
        <time>2025-10-12T13:39:07.518Z</time>
      </trkpt>
      <trkpt lat="44.33852" lon="0.77912">
        <ele>97</ele>
        <time>2025-10-12T13:39:08.518Z</time>
      </trkpt>
      <trkpt lat="44.33851" lon="0.77911">
        <ele>97</ele>
        <time>2025-10-12T13:39:09.518Z</time>
      </trkpt>
      <trkpt lat="44.33851" lon="0.7791">
        <ele>97</ele>
        <time>2025-10-12T13:39:10.518Z</time>
      </trkpt>
      <trkpt lat="44.33849" lon="0.77908">
        <ele>97</ele>
        <time>2025-10-12T13:39:11.518Z</time>
      </trkpt>
      <trkpt lat="44.33849" lon="0.77907">
        <ele>97</ele>
        <time>2025-10-12T13:39:12.518Z</time>
      </trkpt>
      <trkpt lat="44.33848" lon="0.77906">
        <ele>97</ele>
        <time>2025-10-12T13:39:13.518Z</time>
      </trkpt>
      <trkpt lat="44.33847" lon="0.77904">
        <ele>97</ele>
        <time>2025-10-12T13:39:14.518Z</time>
      </trkpt>
      <trkpt lat="44.33846" lon="0.77902">
        <ele>97</ele>
        <time>2025-10-12T13:39:15.518Z</time>
      </trkpt>
      <trkpt lat="44.33846" lon="0.77901">
        <ele>97</ele>
        <time>2025-10-12T13:39:16.518Z</time>
      </trkpt>
      <trkpt lat="44.33845" lon="0.77899">
        <ele>97</ele>
        <time>2025-10-12T13:39:17.518Z</time>
      </trkpt>
      <trkpt lat="44.33844" lon="0.77898">
        <ele>97</ele>
        <time>2025-10-12T13:39:18.518Z</time>
      </trkpt>
      <trkpt lat="44.33843" lon="0.77896">
        <ele>97</ele>
        <time>2025-10-12T13:39:19.518Z</time>
      </trkpt>
      <trkpt lat="44.33843" lon="0.77895">
        <ele>97</ele>
        <time>2025-10-12T13:39:20.518Z</time>
      </trkpt>
      <trkpt lat="44.33842" lon="0.77894">
        <ele>97</ele>
        <time>2025-10-12T13:39:21.518Z</time>
      </trkpt>
      <trkpt lat="44.33841" lon="0.77892">
        <ele>97</ele>
        <time>2025-10-12T13:39:22.518Z</time>
      </trkpt>
      <trkpt lat="44.3384" lon="0.77891">
        <ele>96</ele>
        <time>2025-10-12T13:39:23.518Z</time>
      </trkpt>
      <trkpt lat="44.33839" lon="0.7789">
        <ele>96</ele>
        <time>2025-10-12T13:39:24.518Z</time>
      </trkpt>
      <trkpt lat="44.33838" lon="0.77888">
        <ele>96</ele>
        <time>2025-10-12T13:39:25.518Z</time>
      </trkpt>
      <trkpt lat="44.33838" lon="0.77886">
        <ele>96</ele>
        <time>2025-10-12T13:39:26.518Z</time>
      </trkpt>
      <trkpt lat="44.33837" lon="0.77885">
        <ele>96</ele>
        <time>2025-10-12T13:39:27.518Z</time>
      </trkpt>
      <trkpt lat="44.33836" lon="0.77883">
        <ele>97</ele>
        <time>2025-10-12T13:39:28.518Z</time>
      </trkpt>
      <trkpt lat="44.33836" lon="0.77882">
        <ele>97</ele>
        <time>2025-10-12T13:39:29.518Z</time>
      </trkpt>
      <trkpt lat="44.33836" lon="0.77881">
        <ele>97</ele>
        <time>2025-10-12T13:39:30.518Z</time>
      </trkpt>
      <trkpt lat="44.33835" lon="0.7788">
        <ele>97</ele>
        <time>2025-10-12T13:39:31.518Z</time>
      </trkpt>
      <trkpt lat="44.33835" lon="0.77879">
        <ele>97</ele>
        <time>2025-10-12T13:39:32.518Z</time>
      </trkpt>
      <trkpt lat="44.33835" lon="0.77878">
        <ele>97</ele>
        <time>2025-10-12T13:39:33.518Z</time>
      </trkpt>
      <trkpt lat="44.33835" lon="0.77877">
        <ele>97</ele>
        <time>2025-10-12T13:39:34.518Z</time>
      </trkpt>
      <trkpt lat="44.33835" lon="0.77876">
        <ele>98</ele>
        <time>2025-10-12T13:39:35.518Z</time>
      </trkpt>
      <trkpt lat="44.33835" lon="0.77874">
        <ele>98</ele>
        <time>2025-10-12T13:39:36.518Z</time>
      </trkpt>
      <trkpt lat="44.33834" lon="0.77873">
        <ele>98</ele>
        <time>2025-10-12T13:39:37.518Z</time>
      </trkpt>
      <trkpt lat="44.33833" lon="0.77872">
        <ele>98</ele>
        <time>2025-10-12T13:39:38.518Z</time>
      </trkpt>
      <trkpt lat="44.33833" lon="0.77871">
        <ele>98</ele>
        <time>2025-10-12T13:39:39.518Z</time>
      </trkpt>
      <trkpt lat="44.33833" lon="0.7787">
        <ele>97</ele>
        <time>2025-10-12T13:39:40.518Z</time>
      </trkpt>
      <trkpt lat="44.33832" lon="0.77869">
        <ele>97</ele>
        <time>2025-10-12T13:39:41.518Z</time>
      </trkpt>
      <trkpt lat="44.3383" lon="0.77868">
        <ele>98</ele>
        <time>2025-10-12T13:39:42.518Z</time>
      </trkpt>
      <trkpt lat="44.33829" lon="0.77867">
        <ele>98</ele>
        <time>2025-10-12T13:39:43.518Z</time>
      </trkpt>
      <trkpt lat="44.33829" lon="0.77865">
        <ele>98</ele>
        <time>2025-10-12T13:39:44.518Z</time>
      </trkpt>
      <trkpt lat="44.33828" lon="0.77864">
        <ele>98</ele>
        <time>2025-10-12T13:39:45.518Z</time>
      </trkpt>
      <trkpt lat="44.33827" lon="0.77863">
        <ele>98</ele>
        <time>2025-10-12T13:39:46.518Z</time>
      </trkpt>
      <trkpt lat="44.33826" lon="0.77862">
        <ele>98</ele>
        <time>2025-10-12T13:39:47.518Z</time>
      </trkpt>
      <trkpt lat="44.33825" lon="0.77861">
        <ele>98</ele>
        <time>2025-10-12T13:39:48.518Z</time>
      </trkpt>
      <trkpt lat="44.33824" lon="0.77859">
        <ele>98</ele>
        <time>2025-10-12T13:39:49.518Z</time>
      </trkpt>
      <trkpt lat="44.33823" lon="0.77858">
        <ele>98</ele>
        <time>2025-10-12T13:39:50.518Z</time>
      </trkpt>
      <trkpt lat="44.33822" lon="0.77856">
        <ele>98</ele>
        <time>2025-10-12T13:39:51.518Z</time>
      </trkpt>
      <trkpt lat="44.33821" lon="0.77855">
        <ele>98</ele>
        <time>2025-10-12T13:39:52.518Z</time>
      </trkpt>
      <trkpt lat="44.33821" lon="0.77853">
        <ele>98</ele>
        <time>2025-10-12T13:39:53.518Z</time>
      </trkpt>
      <trkpt lat="44.3382" lon="0.77852">
        <ele>99</ele>
        <time>2025-10-12T13:39:54.518Z</time>
      </trkpt>
      <trkpt lat="44.33819" lon="0.7785">
        <ele>99</ele>
        <time>2025-10-12T13:39:55.518Z</time>
      </trkpt>
      <trkpt lat="44.33818" lon="0.77849">
        <ele>99</ele>
        <time>2025-10-12T13:39:56.518Z</time>
      </trkpt>
      <trkpt lat="44.33818" lon="0.77847">
        <ele>98</ele>
        <time>2025-10-12T13:39:57.518Z</time>
      </trkpt>
      <trkpt lat="44.33817" lon="0.77846">
        <ele>98</ele>
        <time>2025-10-12T13:39:58.518Z</time>
      </trkpt>
      <trkpt lat="44.33817" lon="0.77844">
        <ele>98</ele>
        <time>2025-10-12T13:39:59.518Z</time>
      </trkpt>
      <trkpt lat="44.33817" lon="0.77842">
        <ele>97</ele>
        <time>2025-10-12T13:40:00.518Z</time>
      </trkpt>
      <trkpt lat="44.33816" lon="0.7784">
        <ele>97</ele>
        <time>2025-10-12T13:40:01.518Z</time>
      </trkpt>
      <trkpt lat="44.33816" lon="0.77839">
        <ele>97</ele>
        <time>2025-10-12T13:40:02.518Z</time>
      </trkpt>
      <trkpt lat="44.33815" lon="0.77838">
        <ele>97</ele>
        <time>2025-10-12T13:40:03.518Z</time>
      </trkpt>
      <trkpt lat="44.33815" lon="0.77836">
        <ele>97</ele>
        <time>2025-10-12T13:40:04.518Z</time>
      </trkpt>
      <trkpt lat="44.33814" lon="0.77835">
        <ele>97</ele>
        <time>2025-10-12T13:40:05.518Z</time>
      </trkpt>
      <trkpt lat="44.33813" lon="0.77834">
        <ele>97</ele>
        <time>2025-10-12T13:40:06.518Z</time>
      </trkpt>
      <trkpt lat="44.33812" lon="0.77832">
        <ele>97</ele>
        <time>2025-10-12T13:40:07.518Z</time>
      </trkpt>
      <trkpt lat="44.33812" lon="0.77831">
        <ele>97</ele>
        <time>2025-10-12T13:40:08.518Z</time>
      </trkpt>
      <trkpt lat="44.33811" lon="0.7783">
        <ele>97</ele>
        <time>2025-10-12T13:40:09.518Z</time>
      </trkpt>
      <trkpt lat="44.33811" lon="0.77829">
        <ele>97</ele>
        <time>2025-10-12T13:40:10.518Z</time>
      </trkpt>
      <trkpt lat="44.3381" lon="0.77827">
        <ele>97</ele>
        <time>2025-10-12T13:40:11.518Z</time>
      </trkpt>
      <trkpt lat="44.3381" lon="0.77825">
        <ele>97</ele>
        <time>2025-10-12T13:40:12.518Z</time>
      </trkpt>
      <trkpt lat="44.3381" lon="0.77823">
        <ele>97</ele>
        <time>2025-10-12T13:40:13.518Z</time>
      </trkpt>
      <trkpt lat="44.33809" lon="0.77821">
        <ele>97</ele>
        <time>2025-10-12T13:40:14.518Z</time>
      </trkpt>
      <trkpt lat="44.33809" lon="0.7782">
        <ele>97</ele>
        <time>2025-10-12T13:40:15.518Z</time>
      </trkpt>
      <trkpt lat="44.33808" lon="0.77819">
        <ele>97</ele>
        <time>2025-10-12T13:40:16.518Z</time>
      </trkpt>
      <trkpt lat="44.33808" lon="0.77817">
        <ele>96</ele>
        <time>2025-10-12T13:40:17.518Z</time>
      </trkpt>
      <trkpt lat="44.33808" lon="0.77816">
        <ele>96</ele>
        <time>2025-10-12T13:40:18.518Z</time>
      </trkpt>
      <trkpt lat="44.33807" lon="0.77814">
        <ele>97</ele>
        <time>2025-10-12T13:40:19.518Z</time>
      </trkpt>
      <trkpt lat="44.33807" lon="0.77813">
        <ele>96</ele>
        <time>2025-10-12T13:40:20.518Z</time>
      </trkpt>
      <trkpt lat="44.33806" lon="0.77812">
        <ele>96</ele>
        <time>2025-10-12T13:40:21.518Z</time>
      </trkpt>
      <trkpt lat="44.33805" lon="0.77811">
        <ele>96</ele>
        <time>2025-10-12T13:40:22.518Z</time>
      </trkpt>
      <trkpt lat="44.33804" lon="0.7781">
        <ele>96</ele>
        <time>2025-10-12T13:40:23.518Z</time>
      </trkpt>
      <trkpt lat="44.33803" lon="0.77809">
        <ele>95</ele>
        <time>2025-10-12T13:40:24.518Z</time>
      </trkpt>
      <trkpt lat="44.33802" lon="0.77808">
        <ele>95</ele>
        <time>2025-10-12T13:40:25.518Z</time>
      </trkpt>
      <trkpt lat="44.33801" lon="0.77808">
        <ele>95</ele>
        <time>2025-10-12T13:40:26.518Z</time>
      </trkpt>
      <trkpt lat="44.33801" lon="0.77807">
        <ele>95</ele>
        <time>2025-10-12T13:40:27.518Z</time>
      </trkpt>
      <trkpt lat="44.338" lon="0.77807">
        <ele>95</ele>
        <time>2025-10-12T13:40:28.518Z</time>
      </trkpt>
      <trkpt lat="44.33799" lon="0.77808">
        <ele>95</ele>
        <time>2025-10-12T13:40:29.518Z</time>
      </trkpt>
      <trkpt lat="44.33799" lon="0.77809">
        <ele>95</ele>
        <time>2025-10-12T13:40:30.518Z</time>
      </trkpt>
      <trkpt lat="44.33798" lon="0.7781">
        <ele>95</ele>
        <time>2025-10-12T13:40:31.518Z</time>
      </trkpt>
      <trkpt lat="44.33798" lon="0.77811">
        <ele>95</ele>
        <time>2025-10-12T13:40:32.518Z</time>
      </trkpt>
      <trkpt lat="44.33797" lon="0.77812">
        <ele>95</ele>
        <time>2025-10-12T13:40:33.518Z</time>
      </trkpt>
      <trkpt lat="44.33796" lon="0.77813">
        <ele>95</ele>
        <time>2025-10-12T13:40:34.518Z</time>
      </trkpt>
      <trkpt lat="44.33796" lon="0.77814">
        <ele>95</ele>
        <time>2025-10-12T13:40:35.518Z</time>
      </trkpt>
      <trkpt lat="44.33795" lon="0.77815">
        <ele>95</ele>
        <time>2025-10-12T13:40:36.518Z</time>
      </trkpt>
      <trkpt lat="44.33795" lon="0.77815">
        <ele>96</ele>
        <time>2025-10-12T13:40:37.518Z</time>
      </trkpt>
      <trkpt lat="44.33794" lon="0.77816">
        <ele>96</ele>
        <time>2025-10-12T13:40:38.518Z</time>
      </trkpt>
      <trkpt lat="44.33794" lon="0.77817">
        <ele>95</ele>
        <time>2025-10-12T13:40:39.518Z</time>
      </trkpt>
      <trkpt lat="44.33793" lon="0.77818">
        <ele>95</ele>
        <time>2025-10-12T13:40:40.518Z</time>
      </trkpt>
      <trkpt lat="44.33792" lon="0.77819">
        <ele>95</ele>
        <time>2025-10-12T13:40:41.518Z</time>
      </trkpt>
      <trkpt lat="44.33791" lon="0.77821">
        <ele>94</ele>
        <time>2025-10-12T13:40:42.518Z</time>
      </trkpt>
      <trkpt lat="44.3379" lon="0.77821">
        <ele>94</ele>
        <time>2025-10-12T13:40:43.518Z</time>
      </trkpt>
      <trkpt lat="44.33789" lon="0.77823">
        <ele>93</ele>
        <time>2025-10-12T13:40:44.518Z</time>
      </trkpt>
      <trkpt lat="44.33788" lon="0.77825">
        <ele>93</ele>
        <time>2025-10-12T13:40:45.518Z</time>
      </trkpt>
      <trkpt lat="44.33787" lon="0.77826">
        <ele>93</ele>
        <time>2025-10-12T13:40:46.518Z</time>
      </trkpt>
      <trkpt lat="44.33786" lon="0.77826">
        <ele>93</ele>
        <time>2025-10-12T13:40:47.518Z</time>
      </trkpt>
      <trkpt lat="44.33785" lon="0.77827">
        <ele>93</ele>
        <time>2025-10-12T13:40:48.518Z</time>
      </trkpt>
      <trkpt lat="44.33784" lon="0.77828">
        <ele>93</ele>
        <time>2025-10-12T13:40:49.518Z</time>
      </trkpt>
      <trkpt lat="44.33783" lon="0.77829">
        <ele>93</ele>
        <time>2025-10-12T13:40:50.518Z</time>
      </trkpt>
      <trkpt lat="44.33783" lon="0.7783">
        <ele>92</ele>
        <time>2025-10-12T13:40:51.518Z</time>
      </trkpt>
      <trkpt lat="44.33782" lon="0.77831">
        <ele>92</ele>
        <time>2025-10-12T13:40:52.518Z</time>
      </trkpt>
      <trkpt lat="44.33781" lon="0.77832">
        <ele>92</ele>
        <time>2025-10-12T13:40:53.518Z</time>
      </trkpt>
      <trkpt lat="44.3378" lon="0.77833">
        <ele>92</ele>
        <time>2025-10-12T13:40:54.518Z</time>
      </trkpt>
      <trkpt lat="44.33779" lon="0.77833">
        <ele>91</ele>
        <time>2025-10-12T13:40:55.518Z</time>
      </trkpt>
      <trkpt lat="44.33778" lon="0.77834">
        <ele>91</ele>
        <time>2025-10-12T13:40:56.518Z</time>
      </trkpt>
      <trkpt lat="44.33778" lon="0.77835">
        <ele>91</ele>
        <time>2025-10-12T13:40:57.518Z</time>
      </trkpt>
      <trkpt lat="44.33777" lon="0.77836">
        <ele>91</ele>
        <time>2025-10-12T13:40:58.518Z</time>
      </trkpt>
      <trkpt lat="44.33777" lon="0.77837">
        <ele>91</ele>
        <time>2025-10-12T13:40:59.518Z</time>
      </trkpt>
      <trkpt lat="44.33776" lon="0.77838">
        <ele>91</ele>
        <time>2025-10-12T13:41:00.518Z</time>
      </trkpt>
      <trkpt lat="44.33775" lon="0.77839">
        <ele>91</ele>
        <time>2025-10-12T13:41:01.518Z</time>
      </trkpt>
      <trkpt lat="44.33774" lon="0.77841">
        <ele>90</ele>
        <time>2025-10-12T13:41:02.518Z</time>
      </trkpt>
      <trkpt lat="44.33773" lon="0.77842">
        <ele>90</ele>
        <time>2025-10-12T13:41:03.518Z</time>
      </trkpt>
      <trkpt lat="44.33772" lon="0.77844">
        <ele>90</ele>
        <time>2025-10-12T13:41:04.518Z</time>
      </trkpt>
      <trkpt lat="44.33771" lon="0.77845">
        <ele>90</ele>
        <time>2025-10-12T13:41:05.518Z</time>
      </trkpt>
      <trkpt lat="44.3377" lon="0.77846">
        <ele>90</ele>
        <time>2025-10-12T13:41:06.518Z</time>
      </trkpt>
      <trkpt lat="44.33769" lon="0.77847">
        <ele>90</ele>
        <time>2025-10-12T13:41:07.518Z</time>
      </trkpt>
      <trkpt lat="44.33768" lon="0.77847">
        <ele>89</ele>
        <time>2025-10-12T13:41:08.518Z</time>
      </trkpt>
      <trkpt lat="44.33767" lon="0.77848">
        <ele>89</ele>
        <time>2025-10-12T13:41:09.518Z</time>
      </trkpt>
      <trkpt lat="44.33766" lon="0.77849">
        <ele>89</ele>
        <time>2025-10-12T13:41:10.518Z</time>
      </trkpt>
      <trkpt lat="44.33765" lon="0.7785">
        <ele>89</ele>
        <time>2025-10-12T13:41:11.518Z</time>
      </trkpt>
      <trkpt lat="44.33764" lon="0.77851">
        <ele>89</ele>
        <time>2025-10-12T13:41:12.518Z</time>
      </trkpt>
      <trkpt lat="44.33763" lon="0.77853">
        <ele>89</ele>
        <time>2025-10-12T13:41:13.518Z</time>
      </trkpt>
      <trkpt lat="44.33762" lon="0.77854">
        <ele>89</ele>
        <time>2025-10-12T13:41:14.518Z</time>
      </trkpt>
      <trkpt lat="44.3376" lon="0.77855">
        <ele>89</ele>
        <time>2025-10-12T13:41:15.518Z</time>
      </trkpt>
      <trkpt lat="44.33759" lon="0.77856">
        <ele>88</ele>
        <time>2025-10-12T13:41:16.518Z</time>
      </trkpt>
      <trkpt lat="44.33758" lon="0.77858">
        <ele>88</ele>
        <time>2025-10-12T13:41:17.518Z</time>
      </trkpt>
      <trkpt lat="44.33758" lon="0.77859">
        <ele>88</ele>
        <time>2025-10-12T13:41:18.518Z</time>
      </trkpt>
      <trkpt lat="44.33757" lon="0.7786">
        <ele>88</ele>
        <time>2025-10-12T13:41:19.518Z</time>
      </trkpt>
      <trkpt lat="44.33756" lon="0.77861">
        <ele>89</ele>
        <time>2025-10-12T13:41:20.518Z</time>
      </trkpt>
      <trkpt lat="44.33755" lon="0.77862">
        <ele>89</ele>
        <time>2025-10-12T13:41:21.518Z</time>
      </trkpt>
      <trkpt lat="44.33754" lon="0.77864">
        <ele>89</ele>
        <time>2025-10-12T13:41:22.518Z</time>
      </trkpt>
      <trkpt lat="44.33753" lon="0.77865">
        <ele>89</ele>
        <time>2025-10-12T13:41:23.518Z</time>
      </trkpt>
      <trkpt lat="44.33752" lon="0.77866">
        <ele>89</ele>
        <time>2025-10-12T13:41:24.518Z</time>
      </trkpt>
      <trkpt lat="44.33751" lon="0.77867">
        <ele>89</ele>
        <time>2025-10-12T13:41:25.518Z</time>
      </trkpt>
      <trkpt lat="44.3375" lon="0.77868">
        <ele>89</ele>
        <time>2025-10-12T13:41:26.518Z</time>
      </trkpt>
      <trkpt lat="44.3375" lon="0.77868">
        <ele>89</ele>
        <time>2025-10-12T13:41:27.518Z</time>
      </trkpt>
      <trkpt lat="44.33749" lon="0.7787">
        <ele>89</ele>
        <time>2025-10-12T13:41:28.518Z</time>
      </trkpt>
      <trkpt lat="44.33748" lon="0.77871">
        <ele>89</ele>
        <time>2025-10-12T13:41:29.518Z</time>
      </trkpt>
      <trkpt lat="44.33748" lon="0.77873">
        <ele>89</ele>
        <time>2025-10-12T13:41:30.518Z</time>
      </trkpt>
      <trkpt lat="44.33747" lon="0.77874">
        <ele>89</ele>
        <time>2025-10-12T13:41:31.518Z</time>
      </trkpt>
      <trkpt lat="44.33746" lon="0.77875">
        <ele>89</ele>
        <time>2025-10-12T13:41:32.518Z</time>
      </trkpt>
      <trkpt lat="44.33745" lon="0.77876">
        <ele>90</ele>
        <time>2025-10-12T13:41:33.518Z</time>
      </trkpt>
      <trkpt lat="44.33744" lon="0.77877">
        <ele>90</ele>
        <time>2025-10-12T13:41:34.518Z</time>
      </trkpt>
      <trkpt lat="44.33743" lon="0.77878">
        <ele>91</ele>
        <time>2025-10-12T13:41:35.518Z</time>
      </trkpt>
      <trkpt lat="44.33742" lon="0.77879">
        <ele>91</ele>
        <time>2025-10-12T13:41:36.518Z</time>
      </trkpt>
      <trkpt lat="44.3374" lon="0.7788">
        <ele>91</ele>
        <time>2025-10-12T13:41:37.518Z</time>
      </trkpt>
      <trkpt lat="44.33739" lon="0.77881">
        <ele>91</ele>
        <time>2025-10-12T13:41:38.518Z</time>
      </trkpt>
      <trkpt lat="44.33738" lon="0.77882">
        <ele>91</ele>
        <time>2025-10-12T13:41:39.518Z</time>
      </trkpt>
      <trkpt lat="44.33736" lon="0.77882">
        <ele>92</ele>
        <time>2025-10-12T13:41:40.518Z</time>
      </trkpt>
      <trkpt lat="44.33735" lon="0.77883">
        <ele>92</ele>
        <time>2025-10-12T13:41:41.518Z</time>
      </trkpt>
      <trkpt lat="44.33734" lon="0.77883">
        <ele>92</ele>
        <time>2025-10-12T13:41:42.518Z</time>
      </trkpt>
      <trkpt lat="44.33733" lon="0.77884">
        <ele>93</ele>
        <time>2025-10-12T13:41:43.518Z</time>
      </trkpt>
      <trkpt lat="44.33732" lon="0.77884">
        <ele>93</ele>
        <time>2025-10-12T13:41:44.518Z</time>
      </trkpt>
      <trkpt lat="44.3373" lon="0.77885">
        <ele>93</ele>
        <time>2025-10-12T13:41:45.518Z</time>
      </trkpt>
      <trkpt lat="44.33729" lon="0.77885">
        <ele>93</ele>
        <time>2025-10-12T13:41:46.518Z</time>
      </trkpt>
      <trkpt lat="44.33728" lon="0.77886">
        <ele>92</ele>
        <time>2025-10-12T13:41:47.518Z</time>
      </trkpt>
      <trkpt lat="44.33727" lon="0.77886">
        <ele>92</ele>
        <time>2025-10-12T13:41:48.518Z</time>
      </trkpt>
      <trkpt lat="44.33726" lon="0.77886">
        <ele>93</ele>
        <time>2025-10-12T13:41:49.518Z</time>
      </trkpt>
      <trkpt lat="44.33725" lon="0.77886">
        <ele>93</ele>
        <time>2025-10-12T13:41:50.518Z</time>
      </trkpt>
      <trkpt lat="44.33724" lon="0.77887">
        <ele>92</ele>
        <time>2025-10-12T13:41:51.518Z</time>
      </trkpt>
      <trkpt lat="44.33723" lon="0.77887">
        <ele>92</ele>
        <time>2025-10-12T13:41:52.518Z</time>
      </trkpt>
      <trkpt lat="44.33721" lon="0.77887">
        <ele>91</ele>
        <time>2025-10-12T13:41:53.518Z</time>
      </trkpt>
      <trkpt lat="44.3372" lon="0.77887">
        <ele>91</ele>
        <time>2025-10-12T13:41:54.518Z</time>
      </trkpt>
      <trkpt lat="44.33719" lon="0.77887">
        <ele>91</ele>
        <time>2025-10-12T13:41:55.518Z</time>
      </trkpt>
      <trkpt lat="44.33717" lon="0.77888">
        <ele>90</ele>
        <time>2025-10-12T13:41:56.518Z</time>
      </trkpt>
      <trkpt lat="44.33716" lon="0.77889">
        <ele>90</ele>
        <time>2025-10-12T13:41:57.518Z</time>
      </trkpt>
      <trkpt lat="44.33714" lon="0.7789">
        <ele>90</ele>
        <time>2025-10-12T13:41:58.518Z</time>
      </trkpt>
      <trkpt lat="44.33713" lon="0.7789">
        <ele>90</ele>
        <time>2025-10-12T13:41:59.518Z</time>
      </trkpt>
      <trkpt lat="44.33712" lon="0.77891">
        <ele>90</ele>
        <time>2025-10-12T13:42:00.518Z</time>
      </trkpt>
      <trkpt lat="44.33711" lon="0.77891">
        <ele>90</ele>
        <time>2025-10-12T13:42:01.518Z</time>
      </trkpt>
      <trkpt lat="44.3371" lon="0.77892">
        <ele>90</ele>
        <time>2025-10-12T13:42:02.518Z</time>
      </trkpt>
      <trkpt lat="44.33709" lon="0.77892">
        <ele>90</ele>
        <time>2025-10-12T13:42:03.518Z</time>
      </trkpt>
      <trkpt lat="44.33708" lon="0.77893">
        <ele>90</ele>
        <time>2025-10-12T13:42:04.518Z</time>
      </trkpt>
      <trkpt lat="44.33706" lon="0.77893">
        <ele>90</ele>
        <time>2025-10-12T13:42:05.518Z</time>
      </trkpt>
      <trkpt lat="44.33704" lon="0.77893">
        <ele>90</ele>
        <time>2025-10-12T13:42:06.518Z</time>
      </trkpt>
      <trkpt lat="44.33702" lon="0.77893">
        <ele>89</ele>
        <time>2025-10-12T13:42:07.518Z</time>
      </trkpt>
      <trkpt lat="44.33701" lon="0.77893">
        <ele>89</ele>
        <time>2025-10-12T13:42:08.518Z</time>
      </trkpt>
      <trkpt lat="44.33699" lon="0.77894">
        <ele>89</ele>
        <time>2025-10-12T13:42:09.518Z</time>
      </trkpt>
      <trkpt lat="44.33698" lon="0.77894">
        <ele>89</ele>
        <time>2025-10-12T13:42:10.518Z</time>
      </trkpt>
      <trkpt lat="44.33697" lon="0.77895">
        <ele>89</ele>
        <time>2025-10-12T13:42:11.518Z</time>
      </trkpt>
      <trkpt lat="44.33695" lon="0.77895">
        <ele>89</ele>
        <time>2025-10-12T13:42:12.518Z</time>
      </trkpt>
      <trkpt lat="44.33694" lon="0.77895">
        <ele>89</ele>
        <time>2025-10-12T13:42:13.518Z</time>
      </trkpt>
      <trkpt lat="44.33693" lon="0.77895">
        <ele>88</ele>
        <time>2025-10-12T13:42:14.518Z</time>
      </trkpt>
      <trkpt lat="44.33691" lon="0.77896">
        <ele>88</ele>
        <time>2025-10-12T13:42:15.518Z</time>
      </trkpt>
      <trkpt lat="44.3369" lon="0.77896">
        <ele>88</ele>
        <time>2025-10-12T13:42:16.518Z</time>
      </trkpt>
      <trkpt lat="44.33689" lon="0.77897">
        <ele>88</ele>
        <time>2025-10-12T13:42:17.518Z</time>
      </trkpt>
      <trkpt lat="44.33688" lon="0.77897">
        <ele>88</ele>
        <time>2025-10-12T13:42:18.518Z</time>
      </trkpt>
      <trkpt lat="44.33686" lon="0.77897">
        <ele>88</ele>
        <time>2025-10-12T13:42:19.518Z</time>
      </trkpt>
      <trkpt lat="44.33685" lon="0.77898">
        <ele>88</ele>
        <time>2025-10-12T13:42:20.518Z</time>
      </trkpt>
      <trkpt lat="44.33684" lon="0.77898">
        <ele>88</ele>
        <time>2025-10-12T13:42:21.518Z</time>
      </trkpt>
      <trkpt lat="44.33683" lon="0.77899">
        <ele>88</ele>
        <time>2025-10-12T13:42:22.518Z</time>
      </trkpt>
      <trkpt lat="44.33681" lon="0.77899">
        <ele>88</ele>
        <time>2025-10-12T13:42:23.518Z</time>
      </trkpt>
      <trkpt lat="44.3368" lon="0.77899">
        <ele>88</ele>
        <time>2025-10-12T13:42:24.518Z</time>
      </trkpt>
      <trkpt lat="44.33679" lon="0.779">
        <ele>89</ele>
        <time>2025-10-12T13:42:25.518Z</time>
      </trkpt>
      <trkpt lat="44.33677" lon="0.779">
        <ele>89</ele>
        <time>2025-10-12T13:42:26.518Z</time>
      </trkpt>
      <trkpt lat="44.33676" lon="0.77901">
        <ele>89</ele>
        <time>2025-10-12T13:42:27.518Z</time>
      </trkpt>
      <trkpt lat="44.33675" lon="0.77901">
        <ele>90</ele>
        <time>2025-10-12T13:42:28.518Z</time>
      </trkpt>
      <trkpt lat="44.33674" lon="0.77901">
        <ele>90</ele>
        <time>2025-10-12T13:42:29.518Z</time>
      </trkpt>
      <trkpt lat="44.33673" lon="0.77902">
        <ele>91</ele>
        <time>2025-10-12T13:42:30.518Z</time>
      </trkpt>
      <trkpt lat="44.33672" lon="0.77902">
        <ele>92</ele>
        <time>2025-10-12T13:42:31.518Z</time>
      </trkpt>
      <trkpt lat="44.33671" lon="0.77903">
        <ele>92</ele>
        <time>2025-10-12T13:42:32.518Z</time>
      </trkpt>
      <trkpt lat="44.3367" lon="0.77903">
        <ele>93</ele>
        <time>2025-10-12T13:42:33.518Z</time>
      </trkpt>
      <trkpt lat="44.33669" lon="0.77903">
        <ele>94</ele>
        <time>2025-10-12T13:42:34.518Z</time>
      </trkpt>
      <trkpt lat="44.33668" lon="0.77904">
        <ele>95</ele>
        <time>2025-10-12T13:42:35.518Z</time>
      </trkpt>
      <trkpt lat="44.33667" lon="0.77905">
        <ele>95</ele>
        <time>2025-10-12T13:42:36.518Z</time>
      </trkpt>
      <trkpt lat="44.33666" lon="0.77905">
        <ele>95</ele>
        <time>2025-10-12T13:42:37.518Z</time>
      </trkpt>
      <trkpt lat="44.33665" lon="0.77905">
        <ele>95</ele>
        <time>2025-10-12T13:42:38.518Z</time>
      </trkpt>
      <trkpt lat="44.33664" lon="0.77906">
        <ele>95</ele>
        <time>2025-10-12T13:42:39.518Z</time>
      </trkpt>
      <trkpt lat="44.33663" lon="0.77906">
        <ele>95</ele>
        <time>2025-10-12T13:42:40.518Z</time>
      </trkpt>
      <trkpt lat="44.33661" lon="0.77906">
        <ele>96</ele>
        <time>2025-10-12T13:42:41.518Z</time>
      </trkpt>
      <trkpt lat="44.3366" lon="0.77906">
        <ele>96</ele>
        <time>2025-10-12T13:42:42.518Z</time>
      </trkpt>
      <trkpt lat="44.33659" lon="0.77906">
        <ele>96</ele>
        <time>2025-10-12T13:42:43.518Z</time>
      </trkpt>
      <trkpt lat="44.33658" lon="0.77906">
        <ele>96</ele>
        <time>2025-10-12T13:42:44.518Z</time>
      </trkpt>
      <trkpt lat="44.33656" lon="0.77906">
        <ele>96</ele>
        <time>2025-10-12T13:42:45.518Z</time>
      </trkpt>
      <trkpt lat="44.33656" lon="0.77906">
        <ele>96</ele>
        <time>2025-10-12T13:42:46.518Z</time>
      </trkpt>
      <trkpt lat="44.33655" lon="0.77906">
        <ele>96</ele>
        <time>2025-10-12T13:42:47.518Z</time>
      </trkpt>
      <trkpt lat="44.33653" lon="0.77906">
        <ele>96</ele>
        <time>2025-10-12T13:42:48.518Z</time>
      </trkpt>
      <trkpt lat="44.33652" lon="0.77907">
        <ele>95</ele>
        <time>2025-10-12T13:42:49.518Z</time>
      </trkpt>
      <trkpt lat="44.33651" lon="0.77907">
        <ele>95</ele>
        <time>2025-10-12T13:42:50.518Z</time>
      </trkpt>
      <trkpt lat="44.3365" lon="0.77908">
        <ele>95</ele>
        <time>2025-10-12T13:42:51.518Z</time>
      </trkpt>
      <trkpt lat="44.33649" lon="0.77908">
        <ele>95</ele>
        <time>2025-10-12T13:42:52.518Z</time>
      </trkpt>
      <trkpt lat="44.33648" lon="0.77909">
        <ele>95</ele>
        <time>2025-10-12T13:42:53.518Z</time>
      </trkpt>
      <trkpt lat="44.33647" lon="0.77909">
        <ele>95</ele>
        <time>2025-10-12T13:42:54.518Z</time>
      </trkpt>
      <trkpt lat="44.33646" lon="0.7791">
        <ele>95</ele>
        <time>2025-10-12T13:42:55.518Z</time>
      </trkpt>
      <trkpt lat="44.33644" lon="0.7791">
        <ele>95</ele>
        <time>2025-10-12T13:42:56.518Z</time>
      </trkpt>
      <trkpt lat="44.33643" lon="0.77911">
        <ele>95</ele>
        <time>2025-10-12T13:42:57.518Z</time>
      </trkpt>
      <trkpt lat="44.33642" lon="0.77912">
        <ele>95</ele>
        <time>2025-10-12T13:42:58.518Z</time>
      </trkpt>
      <trkpt lat="44.3364" lon="0.77913">
        <ele>95</ele>
        <time>2025-10-12T13:42:59.518Z</time>
      </trkpt>
      <trkpt lat="44.33639" lon="0.77913">
        <ele>95</ele>
        <time>2025-10-12T13:43:00.518Z</time>
      </trkpt>
      <trkpt lat="44.33638" lon="0.77914">
        <ele>95</ele>
        <time>2025-10-12T13:43:01.518Z</time>
      </trkpt>
      <trkpt lat="44.33637" lon="0.77915">
        <ele>95</ele>
        <time>2025-10-12T13:43:02.518Z</time>
      </trkpt>
      <trkpt lat="44.33636" lon="0.77915">
        <ele>95</ele>
        <time>2025-10-12T13:43:03.518Z</time>
      </trkpt>
      <trkpt lat="44.33635" lon="0.77915">
        <ele>95</ele>
        <time>2025-10-12T13:43:04.518Z</time>
      </trkpt>
      <trkpt lat="44.33633" lon="0.77916">
        <ele>95</ele>
        <time>2025-10-12T13:43:05.518Z</time>
      </trkpt>
      <trkpt lat="44.33632" lon="0.77917">
        <ele>96</ele>
        <time>2025-10-12T13:43:06.518Z</time>
      </trkpt>
      <trkpt lat="44.33631" lon="0.77917">
        <ele>96</ele>
        <time>2025-10-12T13:43:07.518Z</time>
      </trkpt>
      <trkpt lat="44.3363" lon="0.77918">
        <ele>96</ele>
        <time>2025-10-12T13:43:08.518Z</time>
      </trkpt>
      <trkpt lat="44.33629" lon="0.77918">
        <ele>96</ele>
        <time>2025-10-12T13:43:09.518Z</time>
      </trkpt>
      <trkpt lat="44.33628" lon="0.77919">
        <ele>96</ele>
        <time>2025-10-12T13:43:10.518Z</time>
      </trkpt>
      <trkpt lat="44.33627" lon="0.77919">
        <ele>96</ele>
        <time>2025-10-12T13:43:11.518Z</time>
      </trkpt>
      <trkpt lat="44.33625" lon="0.7792">
        <ele>96</ele>
        <time>2025-10-12T13:43:12.518Z</time>
      </trkpt>
      <trkpt lat="44.33624" lon="0.7792">
        <ele>96</ele>
        <time>2025-10-12T13:43:13.518Z</time>
      </trkpt>
      <trkpt lat="44.33623" lon="0.77921">
        <ele>96</ele>
        <time>2025-10-12T13:43:14.518Z</time>
      </trkpt>
      <trkpt lat="44.33621" lon="0.77922">
        <ele>96</ele>
        <time>2025-10-12T13:43:15.518Z</time>
      </trkpt>
      <trkpt lat="44.3362" lon="0.77923">
        <ele>96</ele>
        <time>2025-10-12T13:43:16.518Z</time>
      </trkpt>
      <trkpt lat="44.33619" lon="0.77923">
        <ele>96</ele>
        <time>2025-10-12T13:43:17.518Z</time>
      </trkpt>
      <trkpt lat="44.33617" lon="0.77924">
        <ele>96</ele>
        <time>2025-10-12T13:43:18.518Z</time>
      </trkpt>
      <trkpt lat="44.33616" lon="0.77924">
        <ele>96</ele>
        <time>2025-10-12T13:43:19.518Z</time>
      </trkpt>
      <trkpt lat="44.33615" lon="0.77925">
        <ele>96</ele>
        <time>2025-10-12T13:43:20.518Z</time>
      </trkpt>
      <trkpt lat="44.33613" lon="0.77925">
        <ele>95</ele>
        <time>2025-10-12T13:43:21.518Z</time>
      </trkpt>
      <trkpt lat="44.33612" lon="0.77926">
        <ele>96</ele>
        <time>2025-10-12T13:43:22.519Z</time>
      </trkpt>
      <trkpt lat="44.33611" lon="0.77926">
        <ele>96</ele>
        <time>2025-10-12T13:43:23.518Z</time>
      </trkpt>
      <trkpt lat="44.3361" lon="0.77927">
        <ele>96</ele>
        <time>2025-10-12T13:43:24.518Z</time>
      </trkpt>
      <trkpt lat="44.33608" lon="0.77928">
        <ele>96</ele>
        <time>2025-10-12T13:43:25.518Z</time>
      </trkpt>
      <trkpt lat="44.33607" lon="0.77929">
        <ele>96</ele>
        <time>2025-10-12T13:43:26.518Z</time>
      </trkpt>
      <trkpt lat="44.33606" lon="0.77929">
        <ele>96</ele>
        <time>2025-10-12T13:43:27.518Z</time>
      </trkpt>
      <trkpt lat="44.33605" lon="0.7793">
        <ele>96</ele>
        <time>2025-10-12T13:43:28.518Z</time>
      </trkpt>
      <trkpt lat="44.33603" lon="0.7793">
        <ele>96</ele>
        <time>2025-10-12T13:43:29.518Z</time>
      </trkpt>
      <trkpt lat="44.33602" lon="0.77931">
        <ele>96</ele>
        <time>2025-10-12T13:43:30.518Z</time>
      </trkpt>
      <trkpt lat="44.33601" lon="0.77931">
        <ele>95</ele>
        <time>2025-10-12T13:43:31.518Z</time>
      </trkpt>
      <trkpt lat="44.336" lon="0.77932">
        <ele>95</ele>
        <time>2025-10-12T13:43:32.518Z</time>
      </trkpt>
      <trkpt lat="44.33599" lon="0.77932">
        <ele>95</ele>
        <time>2025-10-12T13:43:33.518Z</time>
      </trkpt>
      <trkpt lat="44.33597" lon="0.77933">
        <ele>94</ele>
        <time>2025-10-12T13:43:34.518Z</time>
      </trkpt>
      <trkpt lat="44.33596" lon="0.77934">
        <ele>94</ele>
        <time>2025-10-12T13:43:35.518Z</time>
      </trkpt>
      <trkpt lat="44.33595" lon="0.77934">
        <ele>94</ele>
        <time>2025-10-12T13:43:36.518Z</time>
      </trkpt>
      <trkpt lat="44.33594" lon="0.77935">
        <ele>93</ele>
        <time>2025-10-12T13:43:37.518Z</time>
      </trkpt>
      <trkpt lat="44.33593" lon="0.77936">
        <ele>93</ele>
        <time>2025-10-12T13:43:38.518Z</time>
      </trkpt>
      <trkpt lat="44.33591" lon="0.77936">
        <ele>92</ele>
        <time>2025-10-12T13:43:39.518Z</time>
      </trkpt>
      <trkpt lat="44.3359" lon="0.77937">
        <ele>91</ele>
        <time>2025-10-12T13:43:40.518Z</time>
      </trkpt>
      <trkpt lat="44.33589" lon="0.77937">
        <ele>91</ele>
        <time>2025-10-12T13:43:41.518Z</time>
      </trkpt>
      <trkpt lat="44.33588" lon="0.77938">
        <ele>90</ele>
        <time>2025-10-12T13:43:42.518Z</time>
      </trkpt>
      <trkpt lat="44.33586" lon="0.77939">
        <ele>90</ele>
        <time>2025-10-12T13:43:43.518Z</time>
      </trkpt>
      <trkpt lat="44.33585" lon="0.77939">
        <ele>89</ele>
        <time>2025-10-12T13:43:44.518Z</time>
      </trkpt>
      <trkpt lat="44.33584" lon="0.7794">
        <ele>89</ele>
        <time>2025-10-12T13:43:45.518Z</time>
      </trkpt>
      <trkpt lat="44.33583" lon="0.7794">
        <ele>89</ele>
        <time>2025-10-12T13:43:46.518Z</time>
      </trkpt>
      <trkpt lat="44.33582" lon="0.77941">
        <ele>89</ele>
        <time>2025-10-12T13:43:47.518Z</time>
      </trkpt>
      <trkpt lat="44.33581" lon="0.77941">
        <ele>88</ele>
        <time>2025-10-12T13:43:48.518Z</time>
      </trkpt>
      <trkpt lat="44.3358" lon="0.77942">
        <ele>88</ele>
        <time>2025-10-12T13:43:49.518Z</time>
      </trkpt>
      <trkpt lat="44.33578" lon="0.77942">
        <ele>88</ele>
        <time>2025-10-12T13:43:50.518Z</time>
      </trkpt>
      <trkpt lat="44.33577" lon="0.77943">
        <ele>88</ele>
        <time>2025-10-12T13:43:51.518Z</time>
      </trkpt>
      <trkpt lat="44.33576" lon="0.77943">
        <ele>88</ele>
        <time>2025-10-12T13:43:52.518Z</time>
      </trkpt>
      <trkpt lat="44.33575" lon="0.77944">
        <ele>88</ele>
        <time>2025-10-12T13:43:53.518Z</time>
      </trkpt>
      <trkpt lat="44.33574" lon="0.77945">
        <ele>88</ele>
        <time>2025-10-12T13:43:54.518Z</time>
      </trkpt>
      <trkpt lat="44.33573" lon="0.77945">
        <ele>88</ele>
        <time>2025-10-12T13:43:55.518Z</time>
      </trkpt>
      <trkpt lat="44.33571" lon="0.77946">
        <ele>88</ele>
        <time>2025-10-12T13:43:56.518Z</time>
      </trkpt>
      <trkpt lat="44.3357" lon="0.77946">
        <ele>88</ele>
        <time>2025-10-12T13:43:57.518Z</time>
      </trkpt>
      <trkpt lat="44.33569" lon="0.77947">
        <ele>88</ele>
        <time>2025-10-12T13:43:58.518Z</time>
      </trkpt>
      <trkpt lat="44.33568" lon="0.77947">
        <ele>88</ele>
        <time>2025-10-12T13:43:59.518Z</time>
      </trkpt>
      <trkpt lat="44.33567" lon="0.77947">
        <ele>88</ele>
        <time>2025-10-12T13:44:00.518Z</time>
      </trkpt>
      <trkpt lat="44.33566" lon="0.77948">
        <ele>88</ele>
        <time>2025-10-12T13:44:01.518Z</time>
      </trkpt>
      <trkpt lat="44.33565" lon="0.77949">
        <ele>87</ele>
        <time>2025-10-12T13:44:02.518Z</time>
      </trkpt>
      <trkpt lat="44.33564" lon="0.77949">
        <ele>87</ele>
        <time>2025-10-12T13:44:03.518Z</time>
      </trkpt>
      <trkpt lat="44.33563" lon="0.7795">
        <ele>87</ele>
        <time>2025-10-12T13:44:04.518Z</time>
      </trkpt>
      <trkpt lat="44.33562" lon="0.7795">
        <ele>87</ele>
        <time>2025-10-12T13:44:05.518Z</time>
      </trkpt>
      <trkpt lat="44.33561" lon="0.77951">
        <ele>88</ele>
        <time>2025-10-12T13:44:06.518Z</time>
      </trkpt>
      <trkpt lat="44.3356" lon="0.77952">
        <ele>88</ele>
        <time>2025-10-12T13:44:07.518Z</time>
      </trkpt>
      <trkpt lat="44.33559" lon="0.77953">
        <ele>88</ele>
        <time>2025-10-12T13:44:08.518Z</time>
      </trkpt>
      <trkpt lat="44.33558" lon="0.77953">
        <ele>88</ele>
        <time>2025-10-12T13:44:09.518Z</time>
      </trkpt>
      <trkpt lat="44.33557" lon="0.77953">
        <ele>88</ele>
        <time>2025-10-12T13:44:10.518Z</time>
      </trkpt>
      <trkpt lat="44.33556" lon="0.77954">
        <ele>88</ele>
        <time>2025-10-12T13:44:11.518Z</time>
      </trkpt>
      <trkpt lat="44.33555" lon="0.77955">
        <ele>88</ele>
        <time>2025-10-12T13:44:12.518Z</time>
      </trkpt>
      <trkpt lat="44.33554" lon="0.77955">
        <ele>88</ele>
        <time>2025-10-12T13:44:13.518Z</time>
      </trkpt>
      <trkpt lat="44.33553" lon="0.77956">
        <ele>87</ele>
        <time>2025-10-12T13:44:14.518Z</time>
      </trkpt>
      <trkpt lat="44.33552" lon="0.77956">
        <ele>88</ele>
        <time>2025-10-12T13:44:15.518Z</time>
      </trkpt>
      <trkpt lat="44.33551" lon="0.77957">
        <ele>88</ele>
        <time>2025-10-12T13:44:16.518Z</time>
      </trkpt>
      <trkpt lat="44.3355" lon="0.77957">
        <ele>87</ele>
        <time>2025-10-12T13:44:17.518Z</time>
      </trkpt>
      <trkpt lat="44.33549" lon="0.77958">
        <ele>87</ele>
        <time>2025-10-12T13:44:18.518Z</time>
      </trkpt>
      <trkpt lat="44.33547" lon="0.77958">
        <ele>87</ele>
        <time>2025-10-12T13:44:19.518Z</time>
      </trkpt>
      <trkpt lat="44.33546" lon="0.77959">
        <ele>87</ele>
        <time>2025-10-12T13:44:20.518Z</time>
      </trkpt>
      <trkpt lat="44.33545" lon="0.7796">
        <ele>87</ele>
        <time>2025-10-12T13:44:21.518Z</time>
      </trkpt>
      <trkpt lat="44.33544" lon="0.7796">
        <ele>87</ele>
        <time>2025-10-12T13:44:22.518Z</time>
      </trkpt>
      <trkpt lat="44.33543" lon="0.77961">
        <ele>87</ele>
        <time>2025-10-12T13:44:23.518Z</time>
      </trkpt>
      <trkpt lat="44.33542" lon="0.77961">
        <ele>87</ele>
        <time>2025-10-12T13:44:24.518Z</time>
      </trkpt>
      <trkpt lat="44.33541" lon="0.77962">
        <ele>87</ele>
        <time>2025-10-12T13:44:25.518Z</time>
      </trkpt>
      <trkpt lat="44.3354" lon="0.77962">
        <ele>87</ele>
        <time>2025-10-12T13:44:26.518Z</time>
      </trkpt>
      <trkpt lat="44.33539" lon="0.77963">
        <ele>87</ele>
        <time>2025-10-12T13:44:27.518Z</time>
      </trkpt>
      <trkpt lat="44.33538" lon="0.77963">
        <ele>87</ele>
        <time>2025-10-12T13:44:28.518Z</time>
      </trkpt>
      <trkpt lat="44.33537" lon="0.77964">
        <ele>88</ele>
        <time>2025-10-12T13:44:29.518Z</time>
      </trkpt>
      <trkpt lat="44.33536" lon="0.77964">
        <ele>88</ele>
        <time>2025-10-12T13:44:30.518Z</time>
      </trkpt>
      <trkpt lat="44.33534" lon="0.77964">
        <ele>88</ele>
        <time>2025-10-12T13:44:31.518Z</time>
      </trkpt>
      <trkpt lat="44.33533" lon="0.77964">
        <ele>88</ele>
        <time>2025-10-12T13:44:32.518Z</time>
      </trkpt>
      <trkpt lat="44.33532" lon="0.77965">
        <ele>88</ele>
        <time>2025-10-12T13:44:33.518Z</time>
      </trkpt>
      <trkpt lat="44.3353" lon="0.77966">
        <ele>88</ele>
        <time>2025-10-12T13:44:34.518Z</time>
      </trkpt>
      <trkpt lat="44.33529" lon="0.77966">
        <ele>88</ele>
        <time>2025-10-12T13:44:35.518Z</time>
      </trkpt>
      <trkpt lat="44.33528" lon="0.77967">
        <ele>88</ele>
        <time>2025-10-12T13:44:36.518Z</time>
      </trkpt>
      <trkpt lat="44.33527" lon="0.77968">
        <ele>89</ele>
        <time>2025-10-12T13:44:37.518Z</time>
      </trkpt>
      <trkpt lat="44.33526" lon="0.77968">
        <ele>89</ele>
        <time>2025-10-12T13:44:38.518Z</time>
      </trkpt>
      <trkpt lat="44.33525" lon="0.77969">
        <ele>89</ele>
        <time>2025-10-12T13:44:39.518Z</time>
      </trkpt>
      <trkpt lat="44.33524" lon="0.77969">
        <ele>89</ele>
        <time>2025-10-12T13:44:40.518Z</time>
      </trkpt>
      <trkpt lat="44.33523" lon="0.7797">
        <ele>89</ele>
        <time>2025-10-12T13:44:41.518Z</time>
      </trkpt>
      <trkpt lat="44.33521" lon="0.77971">
        <ele>89</ele>
        <time>2025-10-12T13:44:42.518Z</time>
      </trkpt>
      <trkpt lat="44.3352" lon="0.77972">
        <ele>89</ele>
        <time>2025-10-12T13:44:43.518Z</time>
      </trkpt>
      <trkpt lat="44.33519" lon="0.77972">
        <ele>89</ele>
        <time>2025-10-12T13:44:44.518Z</time>
      </trkpt>
      <trkpt lat="44.33518" lon="0.77973">
        <ele>89</ele>
        <time>2025-10-12T13:44:45.518Z</time>
      </trkpt>
      <trkpt lat="44.33517" lon="0.77973">
        <ele>89</ele>
        <time>2025-10-12T13:44:46.518Z</time>
      </trkpt>
      <trkpt lat="44.33515" lon="0.77973">
        <ele>89</ele>
        <time>2025-10-12T13:44:47.518Z</time>
      </trkpt>
      <trkpt lat="44.33515" lon="0.77973">
        <ele>89</ele>
        <time>2025-10-12T13:44:48.518Z</time>
      </trkpt>
      <trkpt lat="44.33514" lon="0.77973">
        <ele>89</ele>
        <time>2025-10-12T13:44:49.518Z</time>
      </trkpt>
      <trkpt lat="44.33512" lon="0.77973">
        <ele>89</ele>
        <time>2025-10-12T13:44:50.518Z</time>
      </trkpt>
      <trkpt lat="44.33511" lon="0.77973">
        <ele>89</ele>
        <time>2025-10-12T13:44:51.518Z</time>
      </trkpt>
      <trkpt lat="44.3351" lon="0.77973">
        <ele>89</ele>
        <time>2025-10-12T13:44:52.518Z</time>
      </trkpt>
      <trkpt lat="44.33509" lon="0.77972">
        <ele>89</ele>
        <time>2025-10-12T13:44:53.518Z</time>
      </trkpt>
      <trkpt lat="44.33508" lon="0.77972">
        <ele>89</ele>
        <time>2025-10-12T13:44:54.518Z</time>
      </trkpt>
      <trkpt lat="44.33507" lon="0.77971">
        <ele>90</ele>
        <time>2025-10-12T13:44:55.518Z</time>
      </trkpt>
      <trkpt lat="44.33506" lon="0.7797">
        <ele>90</ele>
        <time>2025-10-12T13:44:56.518Z</time>
      </trkpt>
      <trkpt lat="44.33505" lon="0.7797">
        <ele>90</ele>
        <time>2025-10-12T13:44:57.518Z</time>
      </trkpt>
      <trkpt lat="44.33504" lon="0.77968">
        <ele>90</ele>
        <time>2025-10-12T13:44:58.518Z</time>
      </trkpt>
      <trkpt lat="44.33504" lon="0.77967">
        <ele>90</ele>
        <time>2025-10-12T13:44:59.518Z</time>
      </trkpt>
      <trkpt lat="44.33503" lon="0.77965">
        <ele>90</ele>
        <time>2025-10-12T13:45:00.518Z</time>
      </trkpt>
      <trkpt lat="44.33503" lon="0.77964">
        <ele>91</ele>
        <time>2025-10-12T13:45:01.518Z</time>
      </trkpt>
      <trkpt lat="44.33502" lon="0.77962">
        <ele>92</ele>
        <time>2025-10-12T13:45:02.518Z</time>
      </trkpt>
      <trkpt lat="44.33502" lon="0.77961">
        <ele>93</ele>
        <time>2025-10-12T13:45:03.518Z</time>
      </trkpt>
      <trkpt lat="44.33501" lon="0.77959">
        <ele>94</ele>
        <time>2025-10-12T13:45:04.518Z</time>
      </trkpt>
      <trkpt lat="44.33501" lon="0.77957">
        <ele>95</ele>
        <time>2025-10-12T13:45:05.518Z</time>
      </trkpt>
      <trkpt lat="44.33501" lon="0.77955">
        <ele>95</ele>
        <time>2025-10-12T13:45:06.518Z</time>
      </trkpt>
      <trkpt lat="44.33501" lon="0.77953">
        <ele>95</ele>
        <time>2025-10-12T13:45:07.518Z</time>
      </trkpt>
      <trkpt lat="44.335" lon="0.77951">
        <ele>96</ele>
        <time>2025-10-12T13:45:08.518Z</time>
      </trkpt>
      <trkpt lat="44.335" lon="0.77949">
        <ele>96</ele>
        <time>2025-10-12T13:45:09.518Z</time>
      </trkpt>
      <trkpt lat="44.335" lon="0.77947">
        <ele>96</ele>
        <time>2025-10-12T13:45:10.518Z</time>
      </trkpt>
      <trkpt lat="44.335" lon="0.77945">
        <ele>96</ele>
        <time>2025-10-12T13:45:11.518Z</time>
      </trkpt>
      <trkpt lat="44.335" lon="0.77944">
        <ele>96</ele>
        <time>2025-10-12T13:45:12.518Z</time>
      </trkpt>
      <trkpt lat="44.335" lon="0.77942">
        <ele>96</ele>
        <time>2025-10-12T13:45:13.518Z</time>
      </trkpt>
      <trkpt lat="44.335" lon="0.7794">
        <ele>97</ele>
        <time>2025-10-12T13:45:14.518Z</time>
      </trkpt>
      <trkpt lat="44.33499" lon="0.77938">
        <ele>97</ele>
        <time>2025-10-12T13:45:15.518Z</time>
      </trkpt>
      <trkpt lat="44.33499" lon="0.77936">
        <ele>96</ele>
        <time>2025-10-12T13:45:16.518Z</time>
      </trkpt>
      <trkpt lat="44.33499" lon="0.77934">
        <ele>96</ele>
        <time>2025-10-12T13:45:17.518Z</time>
      </trkpt>
      <trkpt lat="44.33499" lon="0.77933">
        <ele>96</ele>
        <time>2025-10-12T13:45:18.518Z</time>
      </trkpt>
      <trkpt lat="44.33499" lon="0.77931">
        <ele>96</ele>
        <time>2025-10-12T13:45:19.518Z</time>
      </trkpt>
      <trkpt lat="44.33499" lon="0.77929">
        <ele>96</ele>
        <time>2025-10-12T13:45:20.518Z</time>
      </trkpt>
      <trkpt lat="44.33499" lon="0.77928">
        <ele>96</ele>
        <time>2025-10-12T13:45:21.518Z</time>
      </trkpt>
      <trkpt lat="44.33499" lon="0.77926">
        <ele>96</ele>
        <time>2025-10-12T13:45:22.518Z</time>
      </trkpt>
      <trkpt lat="44.33499" lon="0.77924">
        <ele>95</ele>
        <time>2025-10-12T13:45:23.518Z</time>
      </trkpt>
      <trkpt lat="44.33498" lon="0.77923">
        <ele>95</ele>
        <time>2025-10-12T13:45:24.518Z</time>
      </trkpt>
      <trkpt lat="44.33498" lon="0.77921">
        <ele>95</ele>
        <time>2025-10-12T13:45:25.518Z</time>
      </trkpt>
      <trkpt lat="44.33498" lon="0.77919">
        <ele>95</ele>
        <time>2025-10-12T13:45:26.518Z</time>
      </trkpt>
      <trkpt lat="44.33498" lon="0.77917">
        <ele>95</ele>
        <time>2025-10-12T13:45:27.518Z</time>
      </trkpt>
      <trkpt lat="44.33497" lon="0.77915">
        <ele>95</ele>
        <time>2025-10-12T13:45:28.518Z</time>
      </trkpt>
      <trkpt lat="44.33497" lon="0.77913">
        <ele>95</ele>
        <time>2025-10-12T13:45:29.518Z</time>
      </trkpt>
      <trkpt lat="44.33497" lon="0.77912">
        <ele>95</ele>
        <time>2025-10-12T13:45:30.518Z</time>
      </trkpt>
      <trkpt lat="44.33497" lon="0.7791">
        <ele>95</ele>
        <time>2025-10-12T13:45:31.518Z</time>
      </trkpt>
      <trkpt lat="44.33497" lon="0.77908">
        <ele>95</ele>
        <time>2025-10-12T13:45:32.518Z</time>
      </trkpt>
      <trkpt lat="44.33497" lon="0.77905">
        <ele>94</ele>
        <time>2025-10-12T13:45:33.518Z</time>
      </trkpt>
      <trkpt lat="44.33497" lon="0.77904">
        <ele>94</ele>
        <time>2025-10-12T13:45:34.518Z</time>
      </trkpt>
      <trkpt lat="44.33497" lon="0.77902">
        <ele>94</ele>
        <time>2025-10-12T13:45:35.518Z</time>
      </trkpt>
      <trkpt lat="44.33497" lon="0.77901">
        <ele>94</ele>
        <time>2025-10-12T13:45:36.518Z</time>
      </trkpt>
      <trkpt lat="44.33497" lon="0.77899">
        <ele>93</ele>
        <time>2025-10-12T13:45:37.518Z</time>
      </trkpt>
      <trkpt lat="44.33497" lon="0.77898">
        <ele>93</ele>
        <time>2025-10-12T13:45:38.518Z</time>
      </trkpt>
      <trkpt lat="44.33498" lon="0.77897">
        <ele>93</ele>
        <time>2025-10-12T13:45:39.518Z</time>
      </trkpt>
      <trkpt lat="44.33498" lon="0.77895">
        <ele>93</ele>
        <time>2025-10-12T13:45:40.518Z</time>
      </trkpt>
      <trkpt lat="44.33497" lon="0.77894">
        <ele>92</ele>
        <time>2025-10-12T13:45:41.518Z</time>
      </trkpt>
      <trkpt lat="44.33497" lon="0.77892">
        <ele>92</ele>
        <time>2025-10-12T13:45:42.518Z</time>
      </trkpt>
      <trkpt lat="44.33497" lon="0.77891">
        <ele>92</ele>
        <time>2025-10-12T13:45:43.518Z</time>
      </trkpt>
      <trkpt lat="44.33497" lon="0.77889">
        <ele>92</ele>
        <time>2025-10-12T13:45:44.518Z</time>
      </trkpt>
      <trkpt lat="44.33496" lon="0.77888">
        <ele>91</ele>
        <time>2025-10-12T13:45:45.518Z</time>
      </trkpt>
      <trkpt lat="44.33496" lon="0.77886">
        <ele>91</ele>
        <time>2025-10-12T13:45:46.518Z</time>
      </trkpt>
      <trkpt lat="44.33496" lon="0.77884">
        <ele>91</ele>
        <time>2025-10-12T13:45:47.518Z</time>
      </trkpt>
      <trkpt lat="44.33495" lon="0.77883">
        <ele>91</ele>
        <time>2025-10-12T13:45:48.518Z</time>
      </trkpt>
      <trkpt lat="44.33495" lon="0.77881">
        <ele>91</ele>
        <time>2025-10-12T13:45:49.518Z</time>
      </trkpt>
      <trkpt lat="44.33495" lon="0.7788">
        <ele>91</ele>
        <time>2025-10-12T13:45:50.518Z</time>
      </trkpt>
      <trkpt lat="44.33495" lon="0.77878">
        <ele>91</ele>
        <time>2025-10-12T13:45:51.518Z</time>
      </trkpt>
      <trkpt lat="44.33495" lon="0.77877">
        <ele>91</ele>
        <time>2025-10-12T13:45:52.518Z</time>
      </trkpt>
      <trkpt lat="44.33495" lon="0.77875">
        <ele>91</ele>
        <time>2025-10-12T13:45:53.518Z</time>
      </trkpt>
      <trkpt lat="44.33495" lon="0.77873">
        <ele>91</ele>
        <time>2025-10-12T13:45:54.518Z</time>
      </trkpt>
      <trkpt lat="44.33495" lon="0.77872">
        <ele>91</ele>
        <time>2025-10-12T13:45:55.518Z</time>
      </trkpt>
      <trkpt lat="44.33495" lon="0.7787">
        <ele>91</ele>
        <time>2025-10-12T13:45:56.518Z</time>
      </trkpt>
      <trkpt lat="44.33495" lon="0.77869">
        <ele>91</ele>
        <time>2025-10-12T13:45:57.518Z</time>
      </trkpt>
      <trkpt lat="44.33495" lon="0.77867">
        <ele>91</ele>
        <time>2025-10-12T13:45:58.518Z</time>
      </trkpt>
      <trkpt lat="44.33495" lon="0.77866">
        <ele>92</ele>
        <time>2025-10-12T13:45:59.518Z</time>
      </trkpt>
      <trkpt lat="44.33495" lon="0.77865">
        <ele>92</ele>
        <time>2025-10-12T13:46:00.518Z</time>
      </trkpt>
      <trkpt lat="44.33495" lon="0.77863">
        <ele>92</ele>
        <time>2025-10-12T13:46:01.518Z</time>
      </trkpt>
      <trkpt lat="44.33495" lon="0.77862">
        <ele>92</ele>
        <time>2025-10-12T13:46:02.518Z</time>
      </trkpt>
      <trkpt lat="44.33495" lon="0.7786">
        <ele>92</ele>
        <time>2025-10-12T13:46:03.518Z</time>
      </trkpt>
      <trkpt lat="44.33495" lon="0.77859">
        <ele>92</ele>
        <time>2025-10-12T13:46:04.518Z</time>
      </trkpt>
      <trkpt lat="44.33494" lon="0.77858">
        <ele>92</ele>
        <time>2025-10-12T13:46:05.518Z</time>
      </trkpt>
      <trkpt lat="44.33494" lon="0.77856">
        <ele>92</ele>
        <time>2025-10-12T13:46:06.518Z</time>
      </trkpt>
      <trkpt lat="44.33493" lon="0.77855">
        <ele>92</ele>
        <time>2025-10-12T13:46:07.518Z</time>
      </trkpt>
      <trkpt lat="44.33493" lon="0.77853">
        <ele>92</ele>
        <time>2025-10-12T13:46:08.518Z</time>
      </trkpt>
      <trkpt lat="44.33492" lon="0.77852">
        <ele>92</ele>
        <time>2025-10-12T13:46:09.518Z</time>
      </trkpt>
      <trkpt lat="44.33492" lon="0.7785">
        <ele>92</ele>
        <time>2025-10-12T13:46:10.518Z</time>
      </trkpt>
      <trkpt lat="44.33491" lon="0.77848">
        <ele>92</ele>
        <time>2025-10-12T13:46:11.518Z</time>
      </trkpt>
      <trkpt lat="44.33491" lon="0.77847">
        <ele>92</ele>
        <time>2025-10-12T13:46:12.518Z</time>
      </trkpt>
      <trkpt lat="44.33491" lon="0.77845">
        <ele>92</ele>
        <time>2025-10-12T13:46:13.518Z</time>
      </trkpt>
      <trkpt lat="44.33491" lon="0.77844">
        <ele>92</ele>
        <time>2025-10-12T13:46:14.518Z</time>
      </trkpt>
      <trkpt lat="44.3349" lon="0.77842">
        <ele>92</ele>
        <time>2025-10-12T13:46:15.518Z</time>
      </trkpt>
      <trkpt lat="44.3349" lon="0.77841">
        <ele>92</ele>
        <time>2025-10-12T13:46:16.518Z</time>
      </trkpt>
      <trkpt lat="44.3349" lon="0.77839">
        <ele>93</ele>
        <time>2025-10-12T13:46:17.518Z</time>
      </trkpt>
      <trkpt lat="44.3349" lon="0.77837">
        <ele>93</ele>
        <time>2025-10-12T13:46:18.518Z</time>
      </trkpt>
      <trkpt lat="44.33489" lon="0.77835">
        <ele>94</ele>
        <time>2025-10-12T13:46:19.518Z</time>
      </trkpt>
      <trkpt lat="44.33489" lon="0.77834">
        <ele>94</ele>
        <time>2025-10-12T13:46:20.518Z</time>
      </trkpt>
      <trkpt lat="44.33489" lon="0.77832">
        <ele>94</ele>
        <time>2025-10-12T13:46:21.518Z</time>
      </trkpt>
      <trkpt lat="44.33489" lon="0.7783">
        <ele>95</ele>
        <time>2025-10-12T13:46:22.518Z</time>
      </trkpt>
      <trkpt lat="44.33489" lon="0.77829">
        <ele>95</ele>
        <time>2025-10-12T13:46:23.518Z</time>
      </trkpt>
      <trkpt lat="44.33488" lon="0.77828">
        <ele>96</ele>
        <time>2025-10-12T13:46:24.518Z</time>
      </trkpt>
      <trkpt lat="44.33488" lon="0.77826">
        <ele>96</ele>
        <time>2025-10-12T13:46:25.518Z</time>
      </trkpt>
      <trkpt lat="44.33488" lon="0.77825">
        <ele>97</ele>
        <time>2025-10-12T13:46:26.518Z</time>
      </trkpt>
      <trkpt lat="44.33488" lon="0.77823">
        <ele>97</ele>
        <time>2025-10-12T13:46:27.518Z</time>
      </trkpt>
      <trkpt lat="44.33488" lon="0.77821">
        <ele>97</ele>
        <time>2025-10-12T13:46:28.518Z</time>
      </trkpt>
      <trkpt lat="44.33488" lon="0.77819">
        <ele>97</ele>
        <time>2025-10-12T13:46:29.518Z</time>
      </trkpt>
      <trkpt lat="44.33488" lon="0.77817">
        <ele>97</ele>
        <time>2025-10-12T13:46:30.518Z</time>
      </trkpt>
      <trkpt lat="44.33489" lon="0.77815">
        <ele>97</ele>
        <time>2025-10-12T13:46:31.518Z</time>
      </trkpt>
      <trkpt lat="44.33489" lon="0.77814">
        <ele>97</ele>
        <time>2025-10-12T13:46:32.518Z</time>
      </trkpt>
      <trkpt lat="44.33489" lon="0.77813">
        <ele>96</ele>
        <time>2025-10-12T13:46:33.518Z</time>
      </trkpt>
      <trkpt lat="44.33489" lon="0.77812">
        <ele>96</ele>
        <time>2025-10-12T13:46:34.518Z</time>
      </trkpt>
      <trkpt lat="44.33488" lon="0.77811">
        <ele>96</ele>
        <time>2025-10-12T13:46:35.518Z</time>
      </trkpt>
      <trkpt lat="44.33488" lon="0.77809">
        <ele>95</ele>
        <time>2025-10-12T13:46:36.518Z</time>
      </trkpt>
      <trkpt lat="44.33488" lon="0.77808">
        <ele>95</ele>
        <time>2025-10-12T13:46:37.518Z</time>
      </trkpt>
      <trkpt lat="44.33488" lon="0.77807">
        <ele>95</ele>
        <time>2025-10-12T13:46:38.518Z</time>
      </trkpt>
      <trkpt lat="44.33488" lon="0.77805">
        <ele>95</ele>
        <time>2025-10-12T13:46:39.518Z</time>
      </trkpt>
      <trkpt lat="44.33488" lon="0.77804">
        <ele>95</ele>
        <time>2025-10-12T13:46:40.518Z</time>
      </trkpt>
      <trkpt lat="44.33487" lon="0.77802">
        <ele>96</ele>
        <time>2025-10-12T13:46:41.518Z</time>
      </trkpt>
      <trkpt lat="44.33487" lon="0.778">
        <ele>96</ele>
        <time>2025-10-12T13:46:42.518Z</time>
      </trkpt>
      <trkpt lat="44.33487" lon="0.77799">
        <ele>96</ele>
        <time>2025-10-12T13:46:43.518Z</time>
      </trkpt>
      <trkpt lat="44.33487" lon="0.77797">
        <ele>96</ele>
        <time>2025-10-12T13:46:44.518Z</time>
      </trkpt>
      <trkpt lat="44.33487" lon="0.77795">
        <ele>96</ele>
        <time>2025-10-12T13:46:45.518Z</time>
      </trkpt>
      <trkpt lat="44.33487" lon="0.77793">
        <ele>96</ele>
        <time>2025-10-12T13:46:46.518Z</time>
      </trkpt>
      <trkpt lat="44.33487" lon="0.77791">
        <ele>96</ele>
        <time>2025-10-12T13:46:47.518Z</time>
      </trkpt>
      <trkpt lat="44.33487" lon="0.7779">
        <ele>96</ele>
        <time>2025-10-12T13:46:48.518Z</time>
      </trkpt>
      <trkpt lat="44.33487" lon="0.77788">
        <ele>96</ele>
        <time>2025-10-12T13:46:49.518Z</time>
      </trkpt>
      <trkpt lat="44.33487" lon="0.77786">
        <ele>96</ele>
        <time>2025-10-12T13:46:50.518Z</time>
      </trkpt>
      <trkpt lat="44.33486" lon="0.77785">
        <ele>96</ele>
        <time>2025-10-12T13:46:51.518Z</time>
      </trkpt>
      <trkpt lat="44.33486" lon="0.77783">
        <ele>97</ele>
        <time>2025-10-12T13:46:52.518Z</time>
      </trkpt>
      <trkpt lat="44.33486" lon="0.77781">
        <ele>97</ele>
        <time>2025-10-12T13:46:53.518Z</time>
      </trkpt>
      <trkpt lat="44.33486" lon="0.77779">
        <ele>98</ele>
        <time>2025-10-12T13:46:54.518Z</time>
      </trkpt>
      <trkpt lat="44.33486" lon="0.77777">
        <ele>98</ele>
        <time>2025-10-12T13:46:55.518Z</time>
      </trkpt>
      <trkpt lat="44.33485" lon="0.77776">
        <ele>99</ele>
        <time>2025-10-12T13:46:56.518Z</time>
      </trkpt>
      <trkpt lat="44.33485" lon="0.77774">
        <ele>99</ele>
        <time>2025-10-12T13:46:57.518Z</time>
      </trkpt>
      <trkpt lat="44.33485" lon="0.77772">
        <ele>100</ele>
        <time>2025-10-12T13:46:58.518Z</time>
      </trkpt>
      <trkpt lat="44.33485" lon="0.7777">
        <ele>100</ele>
        <time>2025-10-12T13:46:59.518Z</time>
      </trkpt>
      <trkpt lat="44.33485" lon="0.77768">
        <ele>101</ele>
        <time>2025-10-12T13:47:00.518Z</time>
      </trkpt>
      <trkpt lat="44.33485" lon="0.77767">
        <ele>100</ele>
        <time>2025-10-12T13:47:01.518Z</time>
      </trkpt>
      <trkpt lat="44.33485" lon="0.77765">
        <ele>101</ele>
        <time>2025-10-12T13:47:02.518Z</time>
      </trkpt>
      <trkpt lat="44.33485" lon="0.77762">
        <ele>101</ele>
        <time>2025-10-12T13:47:03.518Z</time>
      </trkpt>
      <trkpt lat="44.33485" lon="0.7776">
        <ele>101</ele>
        <time>2025-10-12T13:47:04.518Z</time>
      </trkpt>
      <trkpt lat="44.33485" lon="0.77758">
        <ele>101</ele>
        <time>2025-10-12T13:47:05.518Z</time>
      </trkpt>
      <trkpt lat="44.33484" lon="0.77756">
        <ele>101</ele>
        <time>2025-10-12T13:47:06.518Z</time>
      </trkpt>
      <trkpt lat="44.33484" lon="0.77754">
        <ele>102</ele>
        <time>2025-10-12T13:47:07.518Z</time>
      </trkpt>
      <trkpt lat="44.33484" lon="0.77752">
        <ele>102</ele>
        <time>2025-10-12T13:47:08.518Z</time>
      </trkpt>
      <trkpt lat="44.33484" lon="0.77751">
        <ele>102</ele>
        <time>2025-10-12T13:47:09.518Z</time>
      </trkpt>
      <trkpt lat="44.33484" lon="0.77749">
        <ele>102</ele>
        <time>2025-10-12T13:47:10.518Z</time>
      </trkpt>
      <trkpt lat="44.33484" lon="0.77747">
        <ele>101</ele>
        <time>2025-10-12T13:47:11.518Z</time>
      </trkpt>
      <trkpt lat="44.33484" lon="0.77746">
        <ele>101</ele>
        <time>2025-10-12T13:47:12.518Z</time>
      </trkpt>
      <trkpt lat="44.33484" lon="0.77744">
        <ele>101</ele>
        <time>2025-10-12T13:47:13.518Z</time>
      </trkpt>
      <trkpt lat="44.33484" lon="0.77742">
        <ele>100</ele>
        <time>2025-10-12T13:47:14.518Z</time>
      </trkpt>
      <trkpt lat="44.33484" lon="0.77741">
        <ele>100</ele>
        <time>2025-10-12T13:47:15.518Z</time>
      </trkpt>
      <trkpt lat="44.33484" lon="0.77738">
        <ele>100</ele>
        <time>2025-10-12T13:47:16.518Z</time>
      </trkpt>
      <trkpt lat="44.33484" lon="0.77737">
        <ele>100</ele>
        <time>2025-10-12T13:47:17.518Z</time>
      </trkpt>
      <trkpt lat="44.33483" lon="0.77735">
        <ele>100</ele>
        <time>2025-10-12T13:47:18.518Z</time>
      </trkpt>
      <trkpt lat="44.33483" lon="0.77733">
        <ele>101</ele>
        <time>2025-10-12T13:47:19.518Z</time>
      </trkpt>
      <trkpt lat="44.33483" lon="0.77732">
        <ele>101</ele>
        <time>2025-10-12T13:47:20.518Z</time>
      </trkpt>
      <trkpt lat="44.33483" lon="0.7773">
        <ele>100</ele>
        <time>2025-10-12T13:47:21.518Z</time>
      </trkpt>
      <trkpt lat="44.33483" lon="0.77728">
        <ele>100</ele>
        <time>2025-10-12T13:47:22.518Z</time>
      </trkpt>
      <trkpt lat="44.33483" lon="0.77726">
        <ele>100</ele>
        <time>2025-10-12T13:47:23.518Z</time>
      </trkpt>
      <trkpt lat="44.33483" lon="0.77724">
        <ele>100</ele>
        <time>2025-10-12T13:47:24.518Z</time>
      </trkpt>
      <trkpt lat="44.33483" lon="0.77723">
        <ele>100</ele>
        <time>2025-10-12T13:47:25.518Z</time>
      </trkpt>
      <trkpt lat="44.33483" lon="0.77722">
        <ele>100</ele>
        <time>2025-10-12T13:47:26.518Z</time>
      </trkpt>
      <trkpt lat="44.33483" lon="0.7772">
        <ele>100</ele>
        <time>2025-10-12T13:47:27.518Z</time>
      </trkpt>
      <trkpt lat="44.33483" lon="0.77719">
        <ele>100</ele>
        <time>2025-10-12T13:47:28.518Z</time>
      </trkpt>
      <trkpt lat="44.33483" lon="0.77717">
        <ele>100</ele>
        <time>2025-10-12T13:47:29.518Z</time>
      </trkpt>
      <trkpt lat="44.33483" lon="0.77716">
        <ele>99</ele>
        <time>2025-10-12T13:47:30.518Z</time>
      </trkpt>
      <trkpt lat="44.33482" lon="0.77714">
        <ele>99</ele>
        <time>2025-10-12T13:47:31.518Z</time>
      </trkpt>
      <trkpt lat="44.33482" lon="0.77712">
        <ele>98</ele>
        <time>2025-10-12T13:47:32.518Z</time>
      </trkpt>
      <trkpt lat="44.33482" lon="0.77711">
        <ele>98</ele>
        <time>2025-10-12T13:47:33.518Z</time>
      </trkpt>
      <trkpt lat="44.33482" lon="0.77709">
        <ele>98</ele>
        <time>2025-10-12T13:47:34.518Z</time>
      </trkpt>
      <trkpt lat="44.33482" lon="0.77708">
        <ele>97</ele>
        <time>2025-10-12T13:47:35.518Z</time>
      </trkpt>
      <trkpt lat="44.33482" lon="0.77706">
        <ele>97</ele>
        <time>2025-10-12T13:47:36.518Z</time>
      </trkpt>
      <trkpt lat="44.33482" lon="0.77704">
        <ele>97</ele>
        <time>2025-10-12T13:47:37.518Z</time>
      </trkpt>
      <trkpt lat="44.33481" lon="0.77702">
        <ele>97</ele>
        <time>2025-10-12T13:47:38.518Z</time>
      </trkpt>
      <trkpt lat="44.33481" lon="0.77699">
        <ele>97</ele>
        <time>2025-10-12T13:47:39.518Z</time>
      </trkpt>
      <trkpt lat="44.33481" lon="0.77698">
        <ele>98</ele>
        <time>2025-10-12T13:47:40.518Z</time>
      </trkpt>
      <trkpt lat="44.3348" lon="0.77696">
        <ele>98</ele>
        <time>2025-10-12T13:47:41.518Z</time>
      </trkpt>
      <trkpt lat="44.3348" lon="0.77694">
        <ele>98</ele>
        <time>2025-10-12T13:47:42.518Z</time>
      </trkpt>
      <trkpt lat="44.3348" lon="0.77693">
        <ele>98</ele>
        <time>2025-10-12T13:47:43.518Z</time>
      </trkpt>
      <trkpt lat="44.33479" lon="0.77691">
        <ele>98</ele>
        <time>2025-10-12T13:47:44.518Z</time>
      </trkpt>
      <trkpt lat="44.33479" lon="0.77689">
        <ele>97</ele>
        <time>2025-10-12T13:47:45.518Z</time>
      </trkpt>
      <trkpt lat="44.33479" lon="0.77688">
        <ele>97</ele>
        <time>2025-10-12T13:47:46.518Z</time>
      </trkpt>
      <trkpt lat="44.33478" lon="0.77685">
        <ele>97</ele>
        <time>2025-10-12T13:47:47.518Z</time>
      </trkpt>
      <trkpt lat="44.33478" lon="0.77684">
        <ele>97</ele>
        <time>2025-10-12T13:47:48.518Z</time>
      </trkpt>
      <trkpt lat="44.33478" lon="0.77682">
        <ele>97</ele>
        <time>2025-10-12T13:47:49.518Z</time>
      </trkpt>
      <trkpt lat="44.33477" lon="0.77681">
        <ele>97</ele>
        <time>2025-10-12T13:47:50.518Z</time>
      </trkpt>
      <trkpt lat="44.33477" lon="0.7768">
        <ele>97</ele>
        <time>2025-10-12T13:47:51.518Z</time>
      </trkpt>
      <trkpt lat="44.33477" lon="0.77678">
        <ele>97</ele>
        <time>2025-10-12T13:47:52.518Z</time>
      </trkpt>
      <trkpt lat="44.33476" lon="0.77677">
        <ele>98</ele>
        <time>2025-10-12T13:47:53.518Z</time>
      </trkpt>
      <trkpt lat="44.33476" lon="0.77675">
        <ele>99</ele>
        <time>2025-10-12T13:47:54.518Z</time>
      </trkpt>
      <trkpt lat="44.33475" lon="0.77673">
        <ele>99</ele>
        <time>2025-10-12T13:47:55.518Z</time>
      </trkpt>
      <trkpt lat="44.33475" lon="0.77672">
        <ele>99</ele>
        <time>2025-10-12T13:47:56.518Z</time>
      </trkpt>
      <trkpt lat="44.33475" lon="0.7767">
        <ele>99</ele>
        <time>2025-10-12T13:47:57.518Z</time>
      </trkpt>
      <trkpt lat="44.33474" lon="0.77669">
        <ele>99</ele>
        <time>2025-10-12T13:47:58.518Z</time>
      </trkpt>
      <trkpt lat="44.33474" lon="0.77666">
        <ele>100</ele>
        <time>2025-10-12T13:47:59.518Z</time>
      </trkpt>
      <trkpt lat="44.33474" lon="0.77665">
        <ele>100</ele>
        <time>2025-10-12T13:48:00.518Z</time>
      </trkpt>
      <trkpt lat="44.33473" lon="0.77663">
        <ele>100</ele>
        <time>2025-10-12T13:48:01.518Z</time>
      </trkpt>
      <trkpt lat="44.33473" lon="0.77661">
        <ele>101</ele>
        <time>2025-10-12T13:48:02.518Z</time>
      </trkpt>
      <trkpt lat="44.33473" lon="0.77659">
        <ele>101</ele>
        <time>2025-10-12T13:48:03.518Z</time>
      </trkpt>
      <trkpt lat="44.33472" lon="0.77657">
        <ele>102</ele>
        <time>2025-10-12T13:48:04.518Z</time>
      </trkpt>
      <trkpt lat="44.33472" lon="0.77656">
        <ele>103</ele>
        <time>2025-10-12T13:48:05.518Z</time>
      </trkpt>
      <trkpt lat="44.33472" lon="0.77654">
        <ele>103</ele>
        <time>2025-10-12T13:48:06.518Z</time>
      </trkpt>
      <trkpt lat="44.33471" lon="0.77653">
        <ele>104</ele>
        <time>2025-10-12T13:48:07.518Z</time>
      </trkpt>
      <trkpt lat="44.33471" lon="0.77651">
        <ele>104</ele>
        <time>2025-10-12T13:48:08.518Z</time>
      </trkpt>
      <trkpt lat="44.33471" lon="0.77649">
        <ele>104</ele>
        <time>2025-10-12T13:48:09.518Z</time>
      </trkpt>
      <trkpt lat="44.33471" lon="0.77648">
        <ele>105</ele>
        <time>2025-10-12T13:48:10.518Z</time>
      </trkpt>
      <trkpt lat="44.33471" lon="0.77647">
        <ele>105</ele>
        <time>2025-10-12T13:48:11.518Z</time>
      </trkpt>
      <trkpt lat="44.33471" lon="0.77645">
        <ele>105</ele>
        <time>2025-10-12T13:48:12.518Z</time>
      </trkpt>
      <trkpt lat="44.3347" lon="0.77643">
        <ele>105</ele>
        <time>2025-10-12T13:48:13.518Z</time>
      </trkpt>
      <trkpt lat="44.3347" lon="0.77642">
        <ele>105</ele>
        <time>2025-10-12T13:48:14.518Z</time>
      </trkpt>
      <trkpt lat="44.33469" lon="0.77641">
        <ele>105</ele>
        <time>2025-10-12T13:48:15.518Z</time>
      </trkpt>
      <trkpt lat="44.33468" lon="0.7764">
        <ele>105</ele>
        <time>2025-10-12T13:48:16.518Z</time>
      </trkpt>
      <trkpt lat="44.33467" lon="0.77638">
        <ele>105</ele>
        <time>2025-10-12T13:48:17.518Z</time>
      </trkpt>
      <trkpt lat="44.33467" lon="0.77636">
        <ele>105</ele>
        <time>2025-10-12T13:48:18.518Z</time>
      </trkpt>
      <trkpt lat="44.33467" lon="0.77635">
        <ele>105</ele>
        <time>2025-10-12T13:48:19.518Z</time>
      </trkpt>
      <trkpt lat="44.33466" lon="0.77634">
        <ele>104</ele>
        <time>2025-10-12T13:48:20.518Z</time>
      </trkpt>
      <trkpt lat="44.33465" lon="0.77633">
        <ele>104</ele>
        <time>2025-10-12T13:48:21.518Z</time>
      </trkpt>
      <trkpt lat="44.33464" lon="0.77631">
        <ele>103</ele>
        <time>2025-10-12T13:48:22.518Z</time>
      </trkpt>
      <trkpt lat="44.33464" lon="0.77628">
        <ele>103</ele>
        <time>2025-10-12T13:48:23.518Z</time>
      </trkpt>
      <trkpt lat="44.33463" lon="0.77626">
        <ele>103</ele>
        <time>2025-10-12T13:48:24.518Z</time>
      </trkpt>
      <trkpt lat="44.33462" lon="0.77624">
        <ele>102</ele>
        <time>2025-10-12T13:48:25.518Z</time>
      </trkpt>
      <trkpt lat="44.33462" lon="0.77622">
        <ele>102</ele>
        <time>2025-10-12T13:48:26.518Z</time>
      </trkpt>
      <trkpt lat="44.33461" lon="0.77621">
        <ele>102</ele>
        <time>2025-10-12T13:48:27.518Z</time>
      </trkpt>
      <trkpt lat="44.33461" lon="0.77619">
        <ele>102</ele>
        <time>2025-10-12T13:48:28.518Z</time>
      </trkpt>
      <trkpt lat="44.33461" lon="0.77618">
        <ele>101</ele>
        <time>2025-10-12T13:48:29.518Z</time>
      </trkpt>
      <trkpt lat="44.3346" lon="0.77616">
        <ele>101</ele>
        <time>2025-10-12T13:48:30.518Z</time>
      </trkpt>
      <trkpt lat="44.3346" lon="0.77615">
        <ele>101</ele>
        <time>2025-10-12T13:48:31.518Z</time>
      </trkpt>
      <trkpt lat="44.33459" lon="0.77613">
        <ele>101</ele>
        <time>2025-10-12T13:48:32.518Z</time>
      </trkpt>
      <trkpt lat="44.33458" lon="0.77612">
        <ele>101</ele>
        <time>2025-10-12T13:48:33.518Z</time>
      </trkpt>
      <trkpt lat="44.33458" lon="0.7761">
        <ele>102</ele>
        <time>2025-10-12T13:48:34.518Z</time>
      </trkpt>
      <trkpt lat="44.33457" lon="0.77609">
        <ele>102</ele>
        <time>2025-10-12T13:48:35.518Z</time>
      </trkpt>
      <trkpt lat="44.33457" lon="0.77608">
        <ele>102</ele>
        <time>2025-10-12T13:48:36.518Z</time>
      </trkpt>
      <trkpt lat="44.33457" lon="0.77606">
        <ele>103</ele>
        <time>2025-10-12T13:48:37.518Z</time>
      </trkpt>
      <trkpt lat="44.33456" lon="0.77604">
        <ele>103</ele>
        <time>2025-10-12T13:48:38.518Z</time>
      </trkpt>
      <trkpt lat="44.33455" lon="0.77603">
        <ele>103</ele>
        <time>2025-10-12T13:48:39.518Z</time>
      </trkpt>
      <trkpt lat="44.33455" lon="0.77602">
        <ele>104</ele>
        <time>2025-10-12T13:48:40.518Z</time>
      </trkpt>
      <trkpt lat="44.33454" lon="0.77601">
        <ele>104</ele>
        <time>2025-10-12T13:48:41.518Z</time>
      </trkpt>
      <trkpt lat="44.33453" lon="0.776">
        <ele>104</ele>
        <time>2025-10-12T13:48:42.518Z</time>
      </trkpt>
      <trkpt lat="44.33452" lon="0.77599">
        <ele>104</ele>
        <time>2025-10-12T13:48:43.518Z</time>
      </trkpt>
      <trkpt lat="44.33452" lon="0.77598">
        <ele>104</ele>
        <time>2025-10-12T13:48:44.518Z</time>
      </trkpt>
      <trkpt lat="44.3345" lon="0.77598">
        <ele>105</ele>
        <time>2025-10-12T13:48:45.518Z</time>
      </trkpt>
      <trkpt lat="44.3345" lon="0.77597">
        <ele>105</ele>
        <time>2025-10-12T13:48:46.518Z</time>
      </trkpt>
      <trkpt lat="44.33449" lon="0.77595">
        <ele>105</ele>
        <time>2025-10-12T13:48:47.518Z</time>
      </trkpt>
      <trkpt lat="44.33448" lon="0.77596">
        <ele>105</ele>
        <time>2025-10-12T13:48:48.518Z</time>
      </trkpt>
      <trkpt lat="44.33447" lon="0.77596">
        <ele>105</ele>
        <time>2025-10-12T13:48:49.518Z</time>
      </trkpt>
      <trkpt lat="44.33449" lon="0.77595">
        <ele>105</ele>
        <time>2025-10-12T13:48:50.518Z</time>
      </trkpt>
      <trkpt lat="44.33449" lon="0.77595">
        <ele>105</ele>
        <time>2025-10-12T13:48:51.518Z</time>
      </trkpt>
      <trkpt lat="44.33449" lon="0.77594">
        <ele>105</ele>
        <time>2025-10-12T13:48:52.518Z</time>
      </trkpt>
      <trkpt lat="44.33449" lon="0.77594">
        <ele>104</ele>
        <time>2025-10-12T13:48:53.518Z</time>
      </trkpt>
      <trkpt lat="44.33449" lon="0.77594">
        <ele>104</ele>
        <time>2025-10-12T13:48:54.518Z</time>
      </trkpt>
      <trkpt lat="44.33449" lon="0.77593">
        <ele>104</ele>
        <time>2025-10-12T13:48:55.518Z</time>
      </trkpt>
      <trkpt lat="44.33449" lon="0.77592">
        <ele>104</ele>
        <time>2025-10-12T13:48:56.518Z</time>
      </trkpt>
      <trkpt lat="44.33449" lon="0.77591">
        <ele>104</ele>
        <time>2025-10-12T13:48:57.518Z</time>
      </trkpt>
      <trkpt lat="44.33448" lon="0.77589">
        <ele>104</ele>
        <time>2025-10-12T13:48:58.518Z</time>
      </trkpt>
      <trkpt lat="44.33447" lon="0.77588">
        <ele>105</ele>
        <time>2025-10-12T13:48:59.518Z</time>
      </trkpt>
      <trkpt lat="44.33447" lon="0.77587">
        <ele>105</ele>
        <time>2025-10-12T13:49:00.518Z</time>
      </trkpt>
      <trkpt lat="44.33447" lon="0.77585">
        <ele>105</ele>
        <time>2025-10-12T13:49:01.518Z</time>
      </trkpt>
      <trkpt lat="44.33446" lon="0.77584">
        <ele>104</ele>
        <time>2025-10-12T13:49:02.518Z</time>
      </trkpt>
      <trkpt lat="44.33446" lon="0.77582">
        <ele>104</ele>
        <time>2025-10-12T13:49:03.518Z</time>
      </trkpt>
      <trkpt lat="44.33445" lon="0.77581">
        <ele>104</ele>
        <time>2025-10-12T13:49:04.518Z</time>
      </trkpt>
      <trkpt lat="44.33444" lon="0.7758">
        <ele>104</ele>
        <time>2025-10-12T13:49:05.518Z</time>
      </trkpt>
      <trkpt lat="44.33444" lon="0.77579">
        <ele>104</ele>
        <time>2025-10-12T13:49:06.518Z</time>
      </trkpt>
      <trkpt lat="44.33443" lon="0.77577">
        <ele>104</ele>
        <time>2025-10-12T13:49:07.518Z</time>
      </trkpt>
      <trkpt lat="44.33443" lon="0.77576">
        <ele>104</ele>
        <time>2025-10-12T13:49:08.518Z</time>
      </trkpt>
      <trkpt lat="44.33442" lon="0.77574">
        <ele>103</ele>
        <time>2025-10-12T13:49:09.518Z</time>
      </trkpt>
      <trkpt lat="44.33441" lon="0.77573">
        <ele>103</ele>
        <time>2025-10-12T13:49:10.518Z</time>
      </trkpt>
      <trkpt lat="44.3344" lon="0.77571">
        <ele>103</ele>
        <time>2025-10-12T13:49:11.518Z</time>
      </trkpt>
      <trkpt lat="44.3344" lon="0.7757">
        <ele>103</ele>
        <time>2025-10-12T13:49:12.518Z</time>
      </trkpt>
      <trkpt lat="44.33439" lon="0.77569">
        <ele>103</ele>
        <time>2025-10-12T13:49:13.518Z</time>
      </trkpt>
      <trkpt lat="44.33439" lon="0.77568">
        <ele>104</ele>
        <time>2025-10-12T13:49:14.518Z</time>
      </trkpt>
      <trkpt lat="44.33438" lon="0.77566">
        <ele>104</ele>
        <time>2025-10-12T13:49:15.518Z</time>
      </trkpt>
      <trkpt lat="44.33437" lon="0.77565">
        <ele>105</ele>
        <time>2025-10-12T13:49:16.518Z</time>
      </trkpt>
      <trkpt lat="44.33437" lon="0.77564">
        <ele>105</ele>
        <time>2025-10-12T13:49:17.518Z</time>
      </trkpt>
      <trkpt lat="44.33435" lon="0.77563">
        <ele>106</ele>
        <time>2025-10-12T13:49:18.518Z</time>
      </trkpt>
      <trkpt lat="44.33435" lon="0.77562">
        <ele>106</ele>
        <time>2025-10-12T13:49:19.518Z</time>
      </trkpt>
      <trkpt lat="44.33434" lon="0.77561">
        <ele>107</ele>
        <time>2025-10-12T13:49:20.518Z</time>
      </trkpt>
      <trkpt lat="44.33433" lon="0.7756">
        <ele>107</ele>
        <time>2025-10-12T13:49:21.518Z</time>
      </trkpt>
      <trkpt lat="44.33432" lon="0.77559">
        <ele>107</ele>
        <time>2025-10-12T13:49:22.518Z</time>
      </trkpt>
      <trkpt lat="44.33431" lon="0.77557">
        <ele>108</ele>
        <time>2025-10-12T13:49:23.518Z</time>
      </trkpt>
      <trkpt lat="44.3343" lon="0.77555">
        <ele>108</ele>
        <time>2025-10-12T13:49:24.518Z</time>
      </trkpt>
      <trkpt lat="44.33429" lon="0.77554">
        <ele>108</ele>
        <time>2025-10-12T13:49:25.518Z</time>
      </trkpt>
      <trkpt lat="44.33429" lon="0.77552">
        <ele>108</ele>
        <time>2025-10-12T13:49:26.518Z</time>
      </trkpt>
      <trkpt lat="44.33428" lon="0.77551">
        <ele>107</ele>
        <time>2025-10-12T13:49:27.518Z</time>
      </trkpt>
      <trkpt lat="44.33427" lon="0.77549">
        <ele>107</ele>
        <time>2025-10-12T13:49:28.518Z</time>
      </trkpt>
      <trkpt lat="44.33427" lon="0.77548">
        <ele>106</ele>
        <time>2025-10-12T13:49:29.518Z</time>
      </trkpt>
      <trkpt lat="44.33427" lon="0.77547">
        <ele>105</ele>
        <time>2025-10-12T13:49:30.518Z</time>
      </trkpt>
      <trkpt lat="44.33426" lon="0.77546">
        <ele>105</ele>
        <time>2025-10-12T13:49:31.518Z</time>
      </trkpt>
      <trkpt lat="44.33425" lon="0.77546">
        <ele>104</ele>
        <time>2025-10-12T13:49:32.518Z</time>
      </trkpt>
      <trkpt lat="44.33424" lon="0.77545">
        <ele>104</ele>
        <time>2025-10-12T13:49:33.519Z</time>
      </trkpt>
      <trkpt lat="44.33423" lon="0.77544">
        <ele>104</ele>
        <time>2025-10-12T13:49:34.518Z</time>
      </trkpt>
      <trkpt lat="44.33422" lon="0.77543">
        <ele>104</ele>
        <time>2025-10-12T13:49:35.518Z</time>
      </trkpt>
      <trkpt lat="44.33422" lon="0.77543">
        <ele>103</ele>
        <time>2025-10-12T13:49:36.518Z</time>
      </trkpt>
      <trkpt lat="44.33421" lon="0.77542">
        <ele>103</ele>
        <time>2025-10-12T13:49:37.518Z</time>
      </trkpt>
      <trkpt lat="44.3342" lon="0.77541">
        <ele>103</ele>
        <time>2025-10-12T13:49:38.518Z</time>
      </trkpt>
      <trkpt lat="44.33419" lon="0.7754">
        <ele>103</ele>
        <time>2025-10-12T13:49:39.518Z</time>
      </trkpt>
      <trkpt lat="44.33418" lon="0.77539">
        <ele>102</ele>
        <time>2025-10-12T13:49:40.518Z</time>
      </trkpt>
      <trkpt lat="44.33417" lon="0.77538">
        <ele>102</ele>
        <time>2025-10-12T13:49:41.518Z</time>
      </trkpt>
      <trkpt lat="44.33417" lon="0.77537">
        <ele>102</ele>
        <time>2025-10-12T13:49:42.518Z</time>
      </trkpt>
      <trkpt lat="44.33416" lon="0.77535">
        <ele>102</ele>
        <time>2025-10-12T13:49:43.518Z</time>
      </trkpt>
      <trkpt lat="44.33415" lon="0.77534">
        <ele>102</ele>
        <time>2025-10-12T13:49:44.518Z</time>
      </trkpt>
      <trkpt lat="44.33415" lon="0.77533">
        <ele>102</ele>
        <time>2025-10-12T13:49:45.518Z</time>
      </trkpt>
      <trkpt lat="44.33414" lon="0.77532">
        <ele>102</ele>
        <time>2025-10-12T13:49:46.518Z</time>
      </trkpt>
      <trkpt lat="44.33413" lon="0.77531">
        <ele>102</ele>
        <time>2025-10-12T13:49:47.518Z</time>
      </trkpt>
      <trkpt lat="44.33413" lon="0.7753">
        <ele>102</ele>
        <time>2025-10-12T13:49:48.518Z</time>
      </trkpt>
      <trkpt lat="44.33412" lon="0.77529">
        <ele>102</ele>
        <time>2025-10-12T13:49:49.518Z</time>
      </trkpt>
      <trkpt lat="44.33411" lon="0.77528">
        <ele>103</ele>
        <time>2025-10-12T13:49:50.518Z</time>
      </trkpt>
      <trkpt lat="44.3341" lon="0.77527">
        <ele>103</ele>
        <time>2025-10-12T13:49:51.518Z</time>
      </trkpt>
      <trkpt lat="44.3341" lon="0.77525">
        <ele>103</ele>
        <time>2025-10-12T13:49:52.518Z</time>
      </trkpt>
      <trkpt lat="44.33409" lon="0.77524">
        <ele>104</ele>
        <time>2025-10-12T13:49:53.518Z</time>
      </trkpt>
      <trkpt lat="44.33409" lon="0.77524">
        <ele>104</ele>
        <time>2025-10-12T13:49:54.518Z</time>
      </trkpt>
      <trkpt lat="44.33408" lon="0.77523">
        <ele>104</ele>
        <time>2025-10-12T13:49:55.518Z</time>
      </trkpt>
      <trkpt lat="44.33407" lon="0.77522">
        <ele>105</ele>
        <time>2025-10-12T13:49:56.518Z</time>
      </trkpt>
      <trkpt lat="44.33406" lon="0.77521">
        <ele>105</ele>
        <time>2025-10-12T13:49:57.518Z</time>
      </trkpt>
      <trkpt lat="44.33405" lon="0.7752">
        <ele>105</ele>
        <time>2025-10-12T13:49:58.518Z</time>
      </trkpt>
      <trkpt lat="44.33405" lon="0.77519">
        <ele>105</ele>
        <time>2025-10-12T13:49:59.518Z</time>
      </trkpt>
      <trkpt lat="44.33404" lon="0.77518">
        <ele>105</ele>
        <time>2025-10-12T13:50:00.518Z</time>
      </trkpt>
      <trkpt lat="44.33403" lon="0.77516">
        <ele>105</ele>
        <time>2025-10-12T13:50:01.518Z</time>
      </trkpt>
      <trkpt lat="44.33402" lon="0.77515">
        <ele>105</ele>
        <time>2025-10-12T13:50:02.518Z</time>
      </trkpt>
      <trkpt lat="44.33401" lon="0.77514">
        <ele>105</ele>
        <time>2025-10-12T13:50:03.518Z</time>
      </trkpt>
      <trkpt lat="44.33401" lon="0.77513">
        <ele>105</ele>
        <time>2025-10-12T13:50:04.518Z</time>
      </trkpt>
      <trkpt lat="44.33399" lon="0.77512">
        <ele>105</ele>
        <time>2025-10-12T13:50:05.518Z</time>
      </trkpt>
      <trkpt lat="44.33399" lon="0.77511">
        <ele>105</ele>
        <time>2025-10-12T13:50:06.518Z</time>
      </trkpt>
      <trkpt lat="44.33398" lon="0.7751">
        <ele>105</ele>
        <time>2025-10-12T13:50:07.518Z</time>
      </trkpt>
      <trkpt lat="44.33397" lon="0.77509">
        <ele>105</ele>
        <time>2025-10-12T13:50:08.518Z</time>
      </trkpt>
      <trkpt lat="44.33396" lon="0.77508">
        <ele>105</ele>
        <time>2025-10-12T13:50:09.518Z</time>
      </trkpt>
      <trkpt lat="44.33395" lon="0.77507">
        <ele>106</ele>
        <time>2025-10-12T13:50:10.518Z</time>
      </trkpt>
      <trkpt lat="44.33394" lon="0.77505">
        <ele>106</ele>
        <time>2025-10-12T13:50:11.518Z</time>
      </trkpt>
      <trkpt lat="44.33394" lon="0.77504">
        <ele>106</ele>
        <time>2025-10-12T13:50:12.518Z</time>
      </trkpt>
      <trkpt lat="44.33393" lon="0.77503">
        <ele>106</ele>
        <time>2025-10-12T13:50:13.518Z</time>
      </trkpt>
      <trkpt lat="44.33393" lon="0.77502">
        <ele>106</ele>
        <time>2025-10-12T13:50:14.518Z</time>
      </trkpt>
      <trkpt lat="44.33392" lon="0.775">
        <ele>105</ele>
        <time>2025-10-12T13:50:15.518Z</time>
      </trkpt>
      <trkpt lat="44.3339" lon="0.77498">
        <ele>105</ele>
        <time>2025-10-12T13:50:16.518Z</time>
      </trkpt>
      <trkpt lat="44.33389" lon="0.77496">
        <ele>105</ele>
        <time>2025-10-12T13:50:17.518Z</time>
      </trkpt>
      <trkpt lat="44.33387" lon="0.77494">
        <ele>105</ele>
        <time>2025-10-12T13:50:18.518Z</time>
      </trkpt>
      <trkpt lat="44.33386" lon="0.77492">
        <ele>106</ele>
        <time>2025-10-12T13:50:19.518Z</time>
      </trkpt>
      <trkpt lat="44.33386" lon="0.77491">
        <ele>106</ele>
        <time>2025-10-12T13:50:20.518Z</time>
      </trkpt>
      <trkpt lat="44.33385" lon="0.7749">
        <ele>106</ele>
        <time>2025-10-12T13:50:21.518Z</time>
      </trkpt>
      <trkpt lat="44.33384" lon="0.77489">
        <ele>106</ele>
        <time>2025-10-12T13:50:22.518Z</time>
      </trkpt>
      <trkpt lat="44.33384" lon="0.77488">
        <ele>105</ele>
        <time>2025-10-12T13:50:23.518Z</time>
      </trkpt>
      <trkpt lat="44.33383" lon="0.77486">
        <ele>104</ele>
        <time>2025-10-12T13:50:24.518Z</time>
      </trkpt>
      <trkpt lat="44.33382" lon="0.77485">
        <ele>104</ele>
        <time>2025-10-12T13:50:25.518Z</time>
      </trkpt>
      <trkpt lat="44.33382" lon="0.77484">
        <ele>103</ele>
        <time>2025-10-12T13:50:26.518Z</time>
      </trkpt>
      <trkpt lat="44.33382" lon="0.77482">
        <ele>103</ele>
        <time>2025-10-12T13:50:27.518Z</time>
      </trkpt>
      <trkpt lat="44.33381" lon="0.77481">
        <ele>103</ele>
        <time>2025-10-12T13:50:28.518Z</time>
      </trkpt>
      <trkpt lat="44.3338" lon="0.7748">
        <ele>102</ele>
        <time>2025-10-12T13:50:29.518Z</time>
      </trkpt>
      <trkpt lat="44.33379" lon="0.77479">
        <ele>102</ele>
        <time>2025-10-12T13:50:30.518Z</time>
      </trkpt>
      <trkpt lat="44.33379" lon="0.77478">
        <ele>102</ele>
        <time>2025-10-12T13:50:31.518Z</time>
      </trkpt>
      <trkpt lat="44.33379" lon="0.77477">
        <ele>103</ele>
        <time>2025-10-12T13:50:32.518Z</time>
      </trkpt>
      <trkpt lat="44.33379" lon="0.77475">
        <ele>103</ele>
        <time>2025-10-12T13:50:33.518Z</time>
      </trkpt>
      <trkpt lat="44.33378" lon="0.77473">
        <ele>103</ele>
        <time>2025-10-12T13:50:34.518Z</time>
      </trkpt>
      <trkpt lat="44.33378" lon="0.77471">
        <ele>103</ele>
        <time>2025-10-12T13:50:35.518Z</time>
      </trkpt>
      <trkpt lat="44.33377" lon="0.77469">
        <ele>104</ele>
        <time>2025-10-12T13:50:36.518Z</time>
      </trkpt>
      <trkpt lat="44.33377" lon="0.77468">
        <ele>104</ele>
        <time>2025-10-12T13:50:37.518Z</time>
      </trkpt>
      <trkpt lat="44.33377" lon="0.77466">
        <ele>104</ele>
        <time>2025-10-12T13:50:38.518Z</time>
      </trkpt>
      <trkpt lat="44.33376" lon="0.77465">
        <ele>105</ele>
        <time>2025-10-12T13:50:39.518Z</time>
      </trkpt>
      <trkpt lat="44.33375" lon="0.77463">
        <ele>105</ele>
        <time>2025-10-12T13:50:40.518Z</time>
      </trkpt>
      <trkpt lat="44.33374" lon="0.77462">
        <ele>105</ele>
        <time>2025-10-12T13:50:41.518Z</time>
      </trkpt>
      <trkpt lat="44.33373" lon="0.7746">
        <ele>106</ele>
        <time>2025-10-12T13:50:42.518Z</time>
      </trkpt>
      <trkpt lat="44.33372" lon="0.77457">
        <ele>106</ele>
        <time>2025-10-12T13:50:43.518Z</time>
      </trkpt>
      <trkpt lat="44.33371" lon="0.77455">
        <ele>107</ele>
        <time>2025-10-12T13:50:44.518Z</time>
      </trkpt>
      <trkpt lat="44.3337" lon="0.77454">
        <ele>107</ele>
        <time>2025-10-12T13:50:45.518Z</time>
      </trkpt>
      <trkpt lat="44.33369" lon="0.77452">
        <ele>108</ele>
        <time>2025-10-12T13:50:46.518Z</time>
      </trkpt>
      <trkpt lat="44.33369" lon="0.77451">
        <ele>108</ele>
        <time>2025-10-12T13:50:47.518Z</time>
      </trkpt>
      <trkpt lat="44.33368" lon="0.77449">
        <ele>108</ele>
        <time>2025-10-12T13:50:48.518Z</time>
      </trkpt>
      <trkpt lat="44.33368" lon="0.77448">
        <ele>108</ele>
        <time>2025-10-12T13:50:49.518Z</time>
      </trkpt>
      <trkpt lat="44.33367" lon="0.77447">
        <ele>107</ele>
        <time>2025-10-12T13:50:50.518Z</time>
      </trkpt>
      <trkpt lat="44.33366" lon="0.77446">
        <ele>107</ele>
        <time>2025-10-12T13:50:51.518Z</time>
      </trkpt>
      <trkpt lat="44.33366" lon="0.77445">
        <ele>107</ele>
        <time>2025-10-12T13:50:52.518Z</time>
      </trkpt>
      <trkpt lat="44.33365" lon="0.77444">
        <ele>106</ele>
        <time>2025-10-12T13:50:53.518Z</time>
      </trkpt>
      <trkpt lat="44.33365" lon="0.77442">
        <ele>106</ele>
        <time>2025-10-12T13:50:54.518Z</time>
      </trkpt>
      <trkpt lat="44.33364" lon="0.7744">
        <ele>106</ele>
        <time>2025-10-12T13:50:55.518Z</time>
      </trkpt>
      <trkpt lat="44.33363" lon="0.77439">
        <ele>106</ele>
        <time>2025-10-12T13:50:56.518Z</time>
      </trkpt>
      <trkpt lat="44.33362" lon="0.77438">
        <ele>106</ele>
        <time>2025-10-12T13:50:57.518Z</time>
      </trkpt>
      <trkpt lat="44.33362" lon="0.77436">
        <ele>106</ele>
        <time>2025-10-12T13:50:58.518Z</time>
      </trkpt>
      <trkpt lat="44.33361" lon="0.77435">
        <ele>106</ele>
        <time>2025-10-12T13:50:59.518Z</time>
      </trkpt>
      <trkpt lat="44.33361" lon="0.77433">
        <ele>106</ele>
        <time>2025-10-12T13:51:00.518Z</time>
      </trkpt>
      <trkpt lat="44.3336" lon="0.77432">
        <ele>106</ele>
        <time>2025-10-12T13:51:01.518Z</time>
      </trkpt>
      <trkpt lat="44.3336" lon="0.7743">
        <ele>106</ele>
        <time>2025-10-12T13:51:02.518Z</time>
      </trkpt>
      <trkpt lat="44.33359" lon="0.77428">
        <ele>106</ele>
        <time>2025-10-12T13:51:03.518Z</time>
      </trkpt>
      <trkpt lat="44.33358" lon="0.77427">
        <ele>106</ele>
        <time>2025-10-12T13:51:04.518Z</time>
      </trkpt>
      <trkpt lat="44.33357" lon="0.77426">
        <ele>106</ele>
        <time>2025-10-12T13:51:05.518Z</time>
      </trkpt>
      <trkpt lat="44.33356" lon="0.77424">
        <ele>106</ele>
        <time>2025-10-12T13:51:06.518Z</time>
      </trkpt>
      <trkpt lat="44.33355" lon="0.77423">
        <ele>107</ele>
        <time>2025-10-12T13:51:07.518Z</time>
      </trkpt>
      <trkpt lat="44.33355" lon="0.77422">
        <ele>108</ele>
        <time>2025-10-12T13:51:08.518Z</time>
      </trkpt>
      <trkpt lat="44.33354" lon="0.7742">
        <ele>108</ele>
        <time>2025-10-12T13:51:09.518Z</time>
      </trkpt>
      <trkpt lat="44.33353" lon="0.77419">
        <ele>109</ele>
        <time>2025-10-12T13:51:10.518Z</time>
      </trkpt>
      <trkpt lat="44.33353" lon="0.77417">
        <ele>109</ele>
        <time>2025-10-12T13:51:11.518Z</time>
      </trkpt>
      <trkpt lat="44.33352" lon="0.77416">
        <ele>110</ele>
        <time>2025-10-12T13:51:12.518Z</time>
      </trkpt>
      <trkpt lat="44.33351" lon="0.77414">
        <ele>110</ele>
        <time>2025-10-12T13:51:13.518Z</time>
      </trkpt>
      <trkpt lat="44.33351" lon="0.77413">
        <ele>110</ele>
        <time>2025-10-12T13:51:14.518Z</time>
      </trkpt>
      <trkpt lat="44.3335" lon="0.77411">
        <ele>111</ele>
        <time>2025-10-12T13:51:15.518Z</time>
      </trkpt>
      <trkpt lat="44.33349" lon="0.7741">
        <ele>111</ele>
        <time>2025-10-12T13:51:16.518Z</time>
      </trkpt>
      <trkpt lat="44.33349" lon="0.77408">
        <ele>111</ele>
        <time>2025-10-12T13:51:17.518Z</time>
      </trkpt>
      <trkpt lat="44.33348" lon="0.77407">
        <ele>111</ele>
        <time>2025-10-12T13:51:18.518Z</time>
      </trkpt>
      <trkpt lat="44.33347" lon="0.77405">
        <ele>111</ele>
        <time>2025-10-12T13:51:19.518Z</time>
      </trkpt>
      <trkpt lat="44.33347" lon="0.77404">
        <ele>111</ele>
        <time>2025-10-12T13:51:20.518Z</time>
      </trkpt>
      <trkpt lat="44.33346" lon="0.77403">
        <ele>111</ele>
        <time>2025-10-12T13:51:21.518Z</time>
      </trkpt>
      <trkpt lat="44.33344" lon="0.77402">
        <ele>111</ele>
        <time>2025-10-12T13:51:22.518Z</time>
      </trkpt>
      <trkpt lat="44.33343" lon="0.77401">
        <ele>111</ele>
        <time>2025-10-12T13:51:23.518Z</time>
      </trkpt>
      <trkpt lat="44.33342" lon="0.774">
        <ele>112</ele>
        <time>2025-10-12T13:51:24.518Z</time>
      </trkpt>
      <trkpt lat="44.33341" lon="0.77399">
        <ele>112</ele>
        <time>2025-10-12T13:51:25.518Z</time>
      </trkpt>
      <trkpt lat="44.3334" lon="0.77398">
        <ele>112</ele>
        <time>2025-10-12T13:51:26.518Z</time>
      </trkpt>
      <trkpt lat="44.33339" lon="0.77397">
        <ele>113</ele>
        <time>2025-10-12T13:51:27.518Z</time>
      </trkpt>
      <trkpt lat="44.33338" lon="0.77395">
        <ele>113</ele>
        <time>2025-10-12T13:51:28.518Z</time>
      </trkpt>
      <trkpt lat="44.33337" lon="0.77394">
        <ele>114</ele>
        <time>2025-10-12T13:51:29.518Z</time>
      </trkpt>
      <trkpt lat="44.33336" lon="0.77393">
        <ele>114</ele>
        <time>2025-10-12T13:51:30.518Z</time>
      </trkpt>
      <trkpt lat="44.33336" lon="0.77392">
        <ele>114</ele>
        <time>2025-10-12T13:51:31.518Z</time>
      </trkpt>
      <trkpt lat="44.33335" lon="0.77391">
        <ele>114</ele>
        <time>2025-10-12T13:51:32.518Z</time>
      </trkpt>
      <trkpt lat="44.33334" lon="0.7739">
        <ele>114</ele>
        <time>2025-10-12T13:51:33.518Z</time>
      </trkpt>
      <trkpt lat="44.33333" lon="0.77389">
        <ele>113</ele>
        <time>2025-10-12T13:51:34.518Z</time>
      </trkpt>
      <trkpt lat="44.33333" lon="0.77388">
        <ele>113</ele>
        <time>2025-10-12T13:51:35.518Z</time>
      </trkpt>
      <trkpt lat="44.33332" lon="0.77387">
        <ele>113</ele>
        <time>2025-10-12T13:51:36.518Z</time>
      </trkpt>
      <trkpt lat="44.33331" lon="0.77386">
        <ele>113</ele>
        <time>2025-10-12T13:51:37.518Z</time>
      </trkpt>
      <trkpt lat="44.3333" lon="0.77384">
        <ele>112</ele>
        <time>2025-10-12T13:51:38.518Z</time>
      </trkpt>
      <trkpt lat="44.33328" lon="0.77383">
        <ele>112</ele>
        <time>2025-10-12T13:51:39.518Z</time>
      </trkpt>
      <trkpt lat="44.33327" lon="0.77382">
        <ele>112</ele>
        <time>2025-10-12T13:51:40.518Z</time>
      </trkpt>
      <trkpt lat="44.33326" lon="0.7738">
        <ele>111</ele>
        <time>2025-10-12T13:51:41.518Z</time>
      </trkpt>
      <trkpt lat="44.33325" lon="0.77379">
        <ele>111</ele>
        <time>2025-10-12T13:51:42.518Z</time>
      </trkpt>
      <trkpt lat="44.33324" lon="0.77378">
        <ele>111</ele>
        <time>2025-10-12T13:51:43.518Z</time>
      </trkpt>
      <trkpt lat="44.33323" lon="0.77378">
        <ele>110</ele>
        <time>2025-10-12T13:51:44.518Z</time>
      </trkpt>
      <trkpt lat="44.33322" lon="0.77377">
        <ele>110</ele>
        <time>2025-10-12T13:51:45.518Z</time>
      </trkpt>
      <trkpt lat="44.33321" lon="0.77377">
        <ele>110</ele>
        <time>2025-10-12T13:51:46.518Z</time>
      </trkpt>
      <trkpt lat="44.3332" lon="0.77375">
        <ele>110</ele>
        <time>2025-10-12T13:51:47.518Z</time>
      </trkpt>
      <trkpt lat="44.33319" lon="0.77374">
        <ele>110</ele>
        <time>2025-10-12T13:51:48.518Z</time>
      </trkpt>
      <trkpt lat="44.33318" lon="0.77373">
        <ele>110</ele>
        <time>2025-10-12T13:51:49.518Z</time>
      </trkpt>
      <trkpt lat="44.33316" lon="0.77373">
        <ele>110</ele>
        <time>2025-10-12T13:51:50.518Z</time>
      </trkpt>
      <trkpt lat="44.33314" lon="0.77372">
        <ele>110</ele>
        <time>2025-10-12T13:51:51.518Z</time>
      </trkpt>
      <trkpt lat="44.33313" lon="0.77372">
        <ele>110</ele>
        <time>2025-10-12T13:51:52.518Z</time>
      </trkpt>
      <trkpt lat="44.33312" lon="0.77371">
        <ele>110</ele>
        <time>2025-10-12T13:51:53.518Z</time>
      </trkpt>
      <trkpt lat="44.33311" lon="0.77371">
        <ele>111</ele>
        <time>2025-10-12T13:51:54.518Z</time>
      </trkpt>
      <trkpt lat="44.3331" lon="0.7737">
        <ele>111</ele>
        <time>2025-10-12T13:51:55.518Z</time>
      </trkpt>
      <trkpt lat="44.33309" lon="0.77368">
        <ele>111</ele>
        <time>2025-10-12T13:51:56.518Z</time>
      </trkpt>
      <trkpt lat="44.33307" lon="0.77367">
        <ele>111</ele>
        <time>2025-10-12T13:51:57.518Z</time>
      </trkpt>
      <trkpt lat="44.33306" lon="0.77366">
        <ele>111</ele>
        <time>2025-10-12T13:51:58.518Z</time>
      </trkpt>
      <trkpt lat="44.33305" lon="0.77365">
        <ele>111</ele>
        <time>2025-10-12T13:51:59.518Z</time>
      </trkpt>
      <trkpt lat="44.33304" lon="0.77364">
        <ele>111</ele>
        <time>2025-10-12T13:52:00.518Z</time>
      </trkpt>
      <trkpt lat="44.33303" lon="0.77364">
        <ele>111</ele>
        <time>2025-10-12T13:52:01.518Z</time>
      </trkpt>
      <trkpt lat="44.33301" lon="0.77363">
        <ele>111</ele>
        <time>2025-10-12T13:52:02.518Z</time>
      </trkpt>
      <trkpt lat="44.33301" lon="0.77363">
        <ele>110</ele>
        <time>2025-10-12T13:52:03.518Z</time>
      </trkpt>
      <trkpt lat="44.33299" lon="0.77362">
        <ele>110</ele>
        <time>2025-10-12T13:52:04.518Z</time>
      </trkpt>
      <trkpt lat="44.33298" lon="0.77362">
        <ele>110</ele>
        <time>2025-10-12T13:52:05.518Z</time>
      </trkpt>
      <trkpt lat="44.33297" lon="0.77362">
        <ele>110</ele>
        <time>2025-10-12T13:52:06.518Z</time>
      </trkpt>
      <trkpt lat="44.33295" lon="0.77362">
        <ele>110</ele>
        <time>2025-10-12T13:52:07.518Z</time>
      </trkpt>
      <trkpt lat="44.33294" lon="0.77361">
        <ele>110</ele>
        <time>2025-10-12T13:52:08.518Z</time>
      </trkpt>
      <trkpt lat="44.33292" lon="0.77361">
        <ele>110</ele>
        <time>2025-10-12T13:52:09.518Z</time>
      </trkpt>
      <trkpt lat="44.33291" lon="0.7736">
        <ele>110</ele>
        <time>2025-10-12T13:52:10.518Z</time>
      </trkpt>
      <trkpt lat="44.3329" lon="0.77359">
        <ele>110</ele>
        <time>2025-10-12T13:52:11.518Z</time>
      </trkpt>
      <trkpt lat="44.33289" lon="0.7736">
        <ele>110</ele>
        <time>2025-10-12T13:52:12.518Z</time>
      </trkpt>
      <trkpt lat="44.33287" lon="0.77359">
        <ele>109</ele>
        <time>2025-10-12T13:52:13.518Z</time>
      </trkpt>
      <trkpt lat="44.33286" lon="0.77359">
        <ele>109</ele>
        <time>2025-10-12T13:52:14.518Z</time>
      </trkpt>
      <trkpt lat="44.33284" lon="0.77358">
        <ele>110</ele>
        <time>2025-10-12T13:52:15.518Z</time>
      </trkpt>
      <trkpt lat="44.33283" lon="0.77358">
        <ele>110</ele>
        <time>2025-10-12T13:52:16.518Z</time>
      </trkpt>
      <trkpt lat="44.33282" lon="0.77357">
        <ele>110</ele>
        <time>2025-10-12T13:52:17.518Z</time>
      </trkpt>
      <trkpt lat="44.33281" lon="0.77357">
        <ele>110</ele>
        <time>2025-10-12T13:52:18.518Z</time>
      </trkpt>
      <trkpt lat="44.3328" lon="0.77356">
        <ele>109</ele>
        <time>2025-10-12T13:52:19.518Z</time>
      </trkpt>
      <trkpt lat="44.33279" lon="0.77355">
        <ele>109</ele>
        <time>2025-10-12T13:52:20.518Z</time>
      </trkpt>
      <trkpt lat="44.33278" lon="0.77355">
        <ele>109</ele>
        <time>2025-10-12T13:52:21.518Z</time>
      </trkpt>
      <trkpt lat="44.33277" lon="0.77354">
        <ele>108</ele>
        <time>2025-10-12T13:52:22.518Z</time>
      </trkpt>
      <trkpt lat="44.33276" lon="0.77353">
        <ele>109</ele>
        <time>2025-10-12T13:52:23.518Z</time>
      </trkpt>
      <trkpt lat="44.33275" lon="0.77353">
        <ele>108</ele>
        <time>2025-10-12T13:52:24.518Z</time>
      </trkpt>
      <trkpt lat="44.33274" lon="0.77353">
        <ele>108</ele>
        <time>2025-10-12T13:52:25.518Z</time>
      </trkpt>
      <trkpt lat="44.33273" lon="0.77352">
        <ele>108</ele>
        <time>2025-10-12T13:52:26.518Z</time>
      </trkpt>
      <trkpt lat="44.33272" lon="0.77352">
        <ele>107</ele>
        <time>2025-10-12T13:52:27.518Z</time>
      </trkpt>
      <trkpt lat="44.33271" lon="0.77351">
        <ele>107</ele>
        <time>2025-10-12T13:52:28.518Z</time>
      </trkpt>
      <trkpt lat="44.3327" lon="0.7735">
        <ele>107</ele>
        <time>2025-10-12T13:52:29.518Z</time>
      </trkpt>
      <trkpt lat="44.33269" lon="0.77349">
        <ele>107</ele>
        <time>2025-10-12T13:52:30.518Z</time>
      </trkpt>
      <trkpt lat="44.33268" lon="0.77349">
        <ele>107</ele>
        <time>2025-10-12T13:52:31.518Z</time>
      </trkpt>
      <trkpt lat="44.33267" lon="0.77348">
        <ele>106</ele>
        <time>2025-10-12T13:52:32.518Z</time>
      </trkpt>
      <trkpt lat="44.33265" lon="0.77347">
        <ele>106</ele>
        <time>2025-10-12T13:52:33.518Z</time>
      </trkpt>
      <trkpt lat="44.33264" lon="0.77347">
        <ele>106</ele>
        <time>2025-10-12T13:52:34.518Z</time>
      </trkpt>
      <trkpt lat="44.33263" lon="0.77346">
        <ele>106</ele>
        <time>2025-10-12T13:52:35.518Z</time>
      </trkpt>
      <trkpt lat="44.33262" lon="0.77345">
        <ele>106</ele>
        <time>2025-10-12T13:52:36.518Z</time>
      </trkpt>
      <trkpt lat="44.33261" lon="0.77344">
        <ele>106</ele>
        <time>2025-10-12T13:52:37.518Z</time>
      </trkpt>
      <trkpt lat="44.3326" lon="0.77343">
        <ele>106</ele>
        <time>2025-10-12T13:52:38.518Z</time>
      </trkpt>
      <trkpt lat="44.33259" lon="0.77343">
        <ele>106</ele>
        <time>2025-10-12T13:52:39.518Z</time>
      </trkpt>
      <trkpt lat="44.33258" lon="0.77342">
        <ele>106</ele>
        <time>2025-10-12T13:52:40.518Z</time>
      </trkpt>
      <trkpt lat="44.33257" lon="0.77341">
        <ele>106</ele>
        <time>2025-10-12T13:52:41.518Z</time>
      </trkpt>
      <trkpt lat="44.33257" lon="0.77341">
        <ele>105</ele>
        <time>2025-10-12T13:52:42.518Z</time>
      </trkpt>
      <trkpt lat="44.33256" lon="0.7734">
        <ele>105</ele>
        <time>2025-10-12T13:52:43.518Z</time>
      </trkpt>
      <trkpt lat="44.33255" lon="0.77339">
        <ele>105</ele>
        <time>2025-10-12T13:52:44.518Z</time>
      </trkpt>
      <trkpt lat="44.33254" lon="0.77339">
        <ele>105</ele>
        <time>2025-10-12T13:52:45.518Z</time>
      </trkpt>
      <trkpt lat="44.33253" lon="0.77338">
        <ele>104</ele>
        <time>2025-10-12T13:52:46.518Z</time>
      </trkpt>
      <trkpt lat="44.33252" lon="0.77337">
        <ele>104</ele>
        <time>2025-10-12T13:52:47.518Z</time>
      </trkpt>
      <trkpt lat="44.33251" lon="0.77337">
        <ele>104</ele>
        <time>2025-10-12T13:52:48.518Z</time>
      </trkpt>
      <trkpt lat="44.3325" lon="0.77336">
        <ele>104</ele>
        <time>2025-10-12T13:52:49.518Z</time>
      </trkpt>
      <trkpt lat="44.33249" lon="0.77336">
        <ele>104</ele>
        <time>2025-10-12T13:52:50.518Z</time>
      </trkpt>
      <trkpt lat="44.33248" lon="0.77334">
        <ele>104</ele>
        <time>2025-10-12T13:52:51.518Z</time>
      </trkpt>
      <trkpt lat="44.33247" lon="0.77333">
        <ele>104</ele>
        <time>2025-10-12T13:52:52.518Z</time>
      </trkpt>
      <trkpt lat="44.33245" lon="0.77332">
        <ele>104</ele>
        <time>2025-10-12T13:52:53.518Z</time>
      </trkpt>
      <trkpt lat="44.33244" lon="0.77332">
        <ele>105</ele>
        <time>2025-10-12T13:52:54.518Z</time>
      </trkpt>
      <trkpt lat="44.33243" lon="0.77331">
        <ele>105</ele>
        <time>2025-10-12T13:52:55.518Z</time>
      </trkpt>
      <trkpt lat="44.33242" lon="0.77331">
        <ele>105</ele>
        <time>2025-10-12T13:52:56.518Z</time>
      </trkpt>
      <trkpt lat="44.33241" lon="0.7733">
        <ele>105</ele>
        <time>2025-10-12T13:52:57.518Z</time>
      </trkpt>
      <trkpt lat="44.3324" lon="0.77329">
        <ele>105</ele>
        <time>2025-10-12T13:52:58.518Z</time>
      </trkpt>
      <trkpt lat="44.33239" lon="0.77328">
        <ele>105</ele>
        <time>2025-10-12T13:52:59.518Z</time>
      </trkpt>
      <trkpt lat="44.33238" lon="0.77327">
        <ele>105</ele>
        <time>2025-10-12T13:53:00.518Z</time>
      </trkpt>
      <trkpt lat="44.33237" lon="0.77325">
        <ele>105</ele>
        <time>2025-10-12T13:53:01.518Z</time>
      </trkpt>
      <trkpt lat="44.33236" lon="0.77324">
        <ele>104</ele>
        <time>2025-10-12T13:53:02.518Z</time>
      </trkpt>
      <trkpt lat="44.33234" lon="0.77323">
        <ele>104</ele>
        <time>2025-10-12T13:53:03.518Z</time>
      </trkpt>
      <trkpt lat="44.33234" lon="0.77321">
        <ele>104</ele>
        <time>2025-10-12T13:53:04.518Z</time>
      </trkpt>
      <trkpt lat="44.33234" lon="0.7732">
        <ele>104</ele>
        <time>2025-10-12T13:53:05.518Z</time>
      </trkpt>
      <trkpt lat="44.33233" lon="0.77319">
        <ele>104</ele>
        <time>2025-10-12T13:53:06.518Z</time>
      </trkpt>
      <trkpt lat="44.33231" lon="0.77318">
        <ele>105</ele>
        <time>2025-10-12T13:53:07.518Z</time>
      </trkpt>
      <trkpt lat="44.3323" lon="0.77317">
        <ele>105</ele>
        <time>2025-10-12T13:53:08.518Z</time>
      </trkpt>
      <trkpt lat="44.33229" lon="0.77315">
        <ele>105</ele>
        <time>2025-10-12T13:53:09.518Z</time>
      </trkpt>
      <trkpt lat="44.33229" lon="0.77315">
        <ele>105</ele>
        <time>2025-10-12T13:53:10.518Z</time>
      </trkpt>
      <trkpt lat="44.33228" lon="0.77314">
        <ele>105</ele>
        <time>2025-10-12T13:53:11.518Z</time>
      </trkpt>
      <trkpt lat="44.33227" lon="0.77312">
        <ele>105</ele>
        <time>2025-10-12T13:53:12.518Z</time>
      </trkpt>
      <trkpt lat="44.33227" lon="0.77311">
        <ele>105</ele>
        <time>2025-10-12T13:53:13.518Z</time>
      </trkpt>
      <trkpt lat="44.33226" lon="0.77309">
        <ele>105</ele>
        <time>2025-10-12T13:53:14.518Z</time>
      </trkpt>
      <trkpt lat="44.33226" lon="0.77308">
        <ele>105</ele>
        <time>2025-10-12T13:53:15.518Z</time>
      </trkpt>
      <trkpt lat="44.33225" lon="0.77307">
        <ele>105</ele>
        <time>2025-10-12T13:53:16.519Z</time>
      </trkpt>
      <trkpt lat="44.33224" lon="0.77306">
        <ele>105</ele>
        <time>2025-10-12T13:53:17.518Z</time>
      </trkpt>
      <trkpt lat="44.33223" lon="0.77304">
        <ele>105</ele>
        <time>2025-10-12T13:53:18.518Z</time>
      </trkpt>
      <trkpt lat="44.33223" lon="0.77304">
        <ele>105</ele>
        <time>2025-10-12T13:53:19.518Z</time>
      </trkpt>
      <trkpt lat="44.33222" lon="0.77303">
        <ele>105</ele>
        <time>2025-10-12T13:53:20.518Z</time>
      </trkpt>
      <trkpt lat="44.33221" lon="0.77303">
        <ele>104</ele>
        <time>2025-10-12T13:53:21.518Z</time>
      </trkpt>
      <trkpt lat="44.3322" lon="0.77302">
        <ele>104</ele>
        <time>2025-10-12T13:53:22.518Z</time>
      </trkpt>
      <trkpt lat="44.33219" lon="0.77301">
        <ele>103</ele>
        <time>2025-10-12T13:53:23.518Z</time>
      </trkpt>
      <trkpt lat="44.33219" lon="0.77301">
        <ele>102</ele>
        <time>2025-10-12T13:53:24.518Z</time>
      </trkpt>
      <trkpt lat="44.33219" lon="0.773">
        <ele>102</ele>
        <time>2025-10-12T13:53:25.518Z</time>
      </trkpt>
      <trkpt lat="44.33218" lon="0.773">
        <ele>101</ele>
        <time>2025-10-12T13:53:26.518Z</time>
      </trkpt>
      <trkpt lat="44.33218" lon="0.773">
        <ele>101</ele>
        <time>2025-10-12T13:53:27.518Z</time>
      </trkpt>
      <trkpt lat="44.33218" lon="0.77299">
        <ele>100</ele>
        <time>2025-10-12T13:53:28.518Z</time>
      </trkpt>
      <trkpt lat="44.33218" lon="0.77299">
        <ele>99</ele>
        <time>2025-10-12T13:53:29.518Z</time>
      </trkpt>
      <trkpt lat="44.33219" lon="0.77299">
        <ele>99</ele>
        <time>2025-10-12T13:53:30.518Z</time>
      </trkpt>
      <trkpt lat="44.33219" lon="0.77299">
        <ele>99</ele>
        <time>2025-10-12T13:53:31.518Z</time>
      </trkpt>
      <trkpt lat="44.33218" lon="0.77299">
        <ele>100</ele>
        <time>2025-10-12T13:53:32.518Z</time>
      </trkpt>
      <trkpt lat="44.33218" lon="0.77298">
        <ele>100</ele>
        <time>2025-10-12T13:53:33.518Z</time>
      </trkpt>
      <trkpt lat="44.33218" lon="0.77297">
        <ele>100</ele>
        <time>2025-10-12T13:53:34.518Z</time>
      </trkpt>
      <trkpt lat="44.33218" lon="0.77296">
        <ele>100</ele>
        <time>2025-10-12T13:53:35.518Z</time>
      </trkpt>
      <trkpt lat="44.33218" lon="0.77296">
        <ele>101</ele>
        <time>2025-10-12T13:53:36.518Z</time>
      </trkpt>
      <trkpt lat="44.33217" lon="0.77296">
        <ele>101</ele>
        <time>2025-10-12T13:53:37.518Z</time>
      </trkpt>
      <trkpt lat="44.33217" lon="0.77296">
        <ele>101</ele>
        <time>2025-10-12T13:53:38.518Z</time>
      </trkpt>
      <trkpt lat="44.33217" lon="0.77296">
        <ele>101</ele>
        <time>2025-10-12T13:53:39.518Z</time>
      </trkpt>
      <trkpt lat="44.33217" lon="0.77296">
        <ele>102</ele>
        <time>2025-10-12T13:53:40.518Z</time>
      </trkpt>
      <trkpt lat="44.33217" lon="0.77296">
        <ele>102</ele>
        <time>2025-10-12T13:53:41.518Z</time>
      </trkpt>
      <trkpt lat="44.33217" lon="0.77297">
        <ele>102</ele>
        <time>2025-10-12T13:53:42.518Z</time>
      </trkpt>
      <trkpt lat="44.33217" lon="0.77297">
        <ele>103</ele>
        <time>2025-10-12T13:53:43.518Z</time>
      </trkpt>
      <trkpt lat="44.33217" lon="0.77297">
        <ele>103</ele>
        <time>2025-10-12T13:53:44.518Z</time>
      </trkpt>
      <trkpt lat="44.33216" lon="0.77297">
        <ele>103</ele>
        <time>2025-10-12T13:53:45.518Z</time>
      </trkpt>
      <trkpt lat="44.33215" lon="0.77299">
        <ele>104</ele>
        <time>2025-10-12T13:53:46.518Z</time>
      </trkpt>
      <trkpt lat="44.33215" lon="0.773">
        <ele>104</ele>
        <time>2025-10-12T13:53:47.518Z</time>
      </trkpt>
      <trkpt lat="44.33214" lon="0.773">
        <ele>104</ele>
        <time>2025-10-12T13:53:48.518Z</time>
      </trkpt>
      <trkpt lat="44.33214" lon="0.773">
        <ele>104</ele>
        <time>2025-10-12T13:53:49.518Z</time>
      </trkpt>
      <trkpt lat="44.33214" lon="0.773">
        <ele>105</ele>
        <time>2025-10-12T13:53:50.518Z</time>
      </trkpt>
      <trkpt lat="44.33214" lon="0.773">
        <ele>105</ele>
        <time>2025-10-12T13:53:51.518Z</time>
      </trkpt>
      <trkpt lat="44.33214" lon="0.773">
        <ele>105</ele>
        <time>2025-10-12T13:53:52.518Z</time>
      </trkpt>
      <trkpt lat="44.33214" lon="0.773">
        <ele>106</ele>
        <time>2025-10-12T13:53:53.518Z</time>
      </trkpt>
      <trkpt lat="44.33214" lon="0.773">
        <ele>106</ele>
        <time>2025-10-12T13:53:54.518Z</time>
      </trkpt>
      <trkpt lat="44.33214" lon="0.773">
        <ele>106</ele>
        <time>2025-10-12T13:53:55.518Z</time>
      </trkpt>
      <trkpt lat="44.33214" lon="0.773">
        <ele>107</ele>
        <time>2025-10-12T13:53:56.518Z</time>
      </trkpt>
      <trkpt lat="44.33214" lon="0.773">
        <ele>107</ele>
        <time>2025-10-12T13:53:57.518Z</time>
      </trkpt>
      <trkpt lat="44.33213" lon="0.773">
        <ele>108</ele>
        <time>2025-10-12T13:53:58.518Z</time>
      </trkpt>
      <trkpt lat="44.33213" lon="0.773">
        <ele>108</ele>
        <time>2025-10-12T13:53:59.518Z</time>
      </trkpt>
      <trkpt lat="44.33213" lon="0.773">
        <ele>108</ele>
        <time>2025-10-12T13:54:00.518Z</time>
      </trkpt>
      <trkpt lat="44.33213" lon="0.773">
        <ele>108</ele>
        <time>2025-10-12T13:54:01.518Z</time>
      </trkpt>
      <trkpt lat="44.33213" lon="0.773">
        <ele>108</ele>
        <time>2025-10-12T13:54:02.518Z</time>
      </trkpt>
      <trkpt lat="44.33213" lon="0.773">
        <ele>108</ele>
        <time>2025-10-12T13:54:03.518Z</time>
      </trkpt>
      <trkpt lat="44.33213" lon="0.773">
        <ele>108</ele>
        <time>2025-10-12T13:54:04.518Z</time>
      </trkpt>
      <trkpt lat="44.33213" lon="0.773">
        <ele>108</ele>
        <time>2025-10-12T13:54:05.518Z</time>
      </trkpt>
      <trkpt lat="44.33213" lon="0.773">
        <ele>108</ele>
        <time>2025-10-12T13:54:06.518Z</time>
      </trkpt>
      <trkpt lat="44.33213" lon="0.773">
        <ele>108</ele>
        <time>2025-10-12T13:54:07.518Z</time>
      </trkpt>
      <trkpt lat="44.33213" lon="0.77301">
        <ele>108</ele>
        <time>2025-10-12T13:54:08.518Z</time>
      </trkpt>
      <trkpt lat="44.33213" lon="0.77301">
        <ele>108</ele>
        <time>2025-10-12T13:54:09.518Z</time>
      </trkpt>
      <trkpt lat="44.33213" lon="0.77302">
        <ele>108</ele>
        <time>2025-10-12T13:54:10.518Z</time>
      </trkpt>
      <trkpt lat="44.33214" lon="0.77301">
        <ele>108</ele>
        <time>2025-10-12T13:54:11.518Z</time>
      </trkpt>
      <trkpt lat="44.33214" lon="0.77302">
        <ele>108</ele>
        <time>2025-10-12T13:54:12.518Z</time>
      </trkpt>
      <trkpt lat="44.33214" lon="0.77302">
        <ele>108</ele>
        <time>2025-10-12T13:54:13.518Z</time>
      </trkpt>
      <trkpt lat="44.33214" lon="0.77302">
        <ele>108</ele>
        <time>2025-10-12T13:54:14.518Z</time>
      </trkpt>
      <trkpt lat="44.33214" lon="0.77302">
        <ele>108</ele>
        <time>2025-10-12T13:54:15.518Z</time>
      </trkpt>
      <trkpt lat="44.33215" lon="0.77302">
        <ele>108</ele>
        <time>2025-10-12T13:54:16.518Z</time>
      </trkpt>
      <trkpt lat="44.33215" lon="0.77302">
        <ele>109</ele>
        <time>2025-10-12T13:54:17.518Z</time>
      </trkpt>
      <trkpt lat="44.33216" lon="0.77302">
        <ele>109</ele>
        <time>2025-10-12T13:54:18.518Z</time>
      </trkpt>
      <trkpt lat="44.33216" lon="0.77301">
        <ele>109</ele>
        <time>2025-10-12T13:54:19.518Z</time>
      </trkpt>
      <trkpt lat="44.33216" lon="0.77302">
        <ele>109</ele>
        <time>2025-10-12T13:54:20.518Z</time>
      </trkpt>
      <trkpt lat="44.33216" lon="0.77302">
        <ele>108</ele>
        <time>2025-10-12T13:54:21.518Z</time>
      </trkpt>
      <trkpt lat="44.33216" lon="0.77302">
        <ele>108</ele>
        <time>2025-10-12T13:54:22.518Z</time>
      </trkpt>
      <trkpt lat="44.33216" lon="0.77302">
        <ele>108</ele>
        <time>2025-10-12T13:54:23.518Z</time>
      </trkpt>
      <trkpt lat="44.33216" lon="0.77302">
        <ele>107</ele>
        <time>2025-10-12T13:54:24.518Z</time>
      </trkpt>
      <trkpt lat="44.33215" lon="0.77302">
        <ele>107</ele>
        <time>2025-10-12T13:54:25.518Z</time>
      </trkpt>
      <trkpt lat="44.33215" lon="0.77301">
        <ele>107</ele>
        <time>2025-10-12T13:54:26.518Z</time>
      </trkpt>
      <trkpt lat="44.33215" lon="0.77301">
        <ele>107</ele>
        <time>2025-10-12T13:54:27.518Z</time>
      </trkpt>
      <trkpt lat="44.33215" lon="0.77301">
        <ele>107</ele>
        <time>2025-10-12T13:54:28.518Z</time>
      </trkpt>
      <trkpt lat="44.33215" lon="0.77301">
        <ele>107</ele>
        <time>2025-10-12T13:54:29.518Z</time>
      </trkpt>
      <trkpt lat="44.33215" lon="0.77301">
        <ele>107</ele>
        <time>2025-10-12T13:54:30.518Z</time>
      </trkpt>
      <trkpt lat="44.33215" lon="0.773">
        <ele>107</ele>
        <time>2025-10-12T13:54:31.518Z</time>
      </trkpt>
      <trkpt lat="44.33215" lon="0.773">
        <ele>106</ele>
        <time>2025-10-12T13:54:32.518Z</time>
      </trkpt>
      <trkpt lat="44.33216" lon="0.77299">
        <ele>106</ele>
        <time>2025-10-12T13:54:33.518Z</time>
      </trkpt>
      <trkpt lat="44.33216" lon="0.77298">
        <ele>105</ele>
        <time>2025-10-12T13:54:34.518Z</time>
      </trkpt>
      <trkpt lat="44.33215" lon="0.77298">
        <ele>104</ele>
        <time>2025-10-12T13:54:35.518Z</time>
      </trkpt>
      <trkpt lat="44.33215" lon="0.77298">
        <ele>104</ele>
        <time>2025-10-12T13:54:36.518Z</time>
      </trkpt>
      <trkpt lat="44.33215" lon="0.77298">
        <ele>103</ele>
        <time>2025-10-12T13:54:37.518Z</time>
      </trkpt>
      <trkpt lat="44.33215" lon="0.77298">
        <ele>103</ele>
        <time>2025-10-12T13:54:38.518Z</time>
      </trkpt>
      <trkpt lat="44.33215" lon="0.77298">
        <ele>102</ele>
        <time>2025-10-12T13:54:39.518Z</time>
      </trkpt>
      <trkpt lat="44.33215" lon="0.77298">
        <ele>102</ele>
        <time>2025-10-12T13:54:40.518Z</time>
      </trkpt>
      <trkpt lat="44.33215" lon="0.77298">
        <ele>102</ele>
        <time>2025-10-12T13:54:41.518Z</time>
      </trkpt>
      <trkpt lat="44.33215" lon="0.77298">
        <ele>102</ele>
        <time>2025-10-12T13:54:42.518Z</time>
      </trkpt>
      <trkpt lat="44.33215" lon="0.77297">
        <ele>102</ele>
        <time>2025-10-12T13:54:43.518Z</time>
      </trkpt>
      <trkpt lat="44.33215" lon="0.77297">
        <ele>102</ele>
        <time>2025-10-12T13:54:44.518Z</time>
      </trkpt>
      <trkpt lat="44.33215" lon="0.77297">
        <ele>102</ele>
        <time>2025-10-12T13:54:45.518Z</time>
      </trkpt>
      <trkpt lat="44.33215" lon="0.77297">
        <ele>102</ele>
        <time>2025-10-12T13:54:46.518Z</time>
      </trkpt>
      <trkpt lat="44.33215" lon="0.77297">
        <ele>102</ele>
        <time>2025-10-12T13:54:47.518Z</time>
      </trkpt>
      <trkpt lat="44.33215" lon="0.77297">
        <ele>102</ele>
        <time>2025-10-12T13:54:48.518Z</time>
      </trkpt>
      <trkpt lat="44.33215" lon="0.77297">
        <ele>102</ele>
        <time>2025-10-12T13:54:49.518Z</time>
      </trkpt>
      <trkpt lat="44.33216" lon="0.77297">
        <ele>102</ele>
        <time>2025-10-12T13:54:50.518Z</time>
      </trkpt>
      <trkpt lat="44.33216" lon="0.77296">
        <ele>101</ele>
        <time>2025-10-12T13:54:51.518Z</time>
      </trkpt>
      <trkpt lat="44.33216" lon="0.77296">
        <ele>101</ele>
        <time>2025-10-12T13:54:52.518Z</time>
      </trkpt>
      <trkpt lat="44.33216" lon="0.77296">
        <ele>101</ele>
        <time>2025-10-12T13:54:53.519Z</time>
      </trkpt>
      <trkpt lat="44.33216" lon="0.77296">
        <ele>100</ele>
        <time>2025-10-12T13:54:54.518Z</time>
      </trkpt>
      <trkpt lat="44.33216" lon="0.77296">
        <ele>100</ele>
        <time>2025-10-12T13:54:55.518Z</time>
      </trkpt>
      <trkpt lat="44.33216" lon="0.77296">
        <ele>100</ele>
        <time>2025-10-12T13:54:56.518Z</time>
      </trkpt>
      <trkpt lat="44.33216" lon="0.77296">
        <ele>100</ele>
        <time>2025-10-12T13:54:57.518Z</time>
      </trkpt>
      <trkpt lat="44.33216" lon="0.77296">
        <ele>100</ele>
        <time>2025-10-12T13:54:58.518Z</time>
      </trkpt>
      <trkpt lat="44.33216" lon="0.77296">
        <ele>100</ele>
        <time>2025-10-12T13:54:59.518Z</time>
      </trkpt>
      <trkpt lat="44.33216" lon="0.77296">
        <ele>100</ele>
        <time>2025-10-12T13:55:00.518Z</time>
      </trkpt>
      <trkpt lat="44.33217" lon="0.77295">
        <ele>100</ele>
        <time>2025-10-12T13:55:01.518Z</time>
      </trkpt>
      <trkpt lat="44.33217" lon="0.77294">
        <ele>100</ele>
        <time>2025-10-12T13:55:02.518Z</time>
      </trkpt>
      <trkpt lat="44.33218" lon="0.77293">
        <ele>101</ele>
        <time>2025-10-12T13:55:03.518Z</time>
      </trkpt>
      <trkpt lat="44.33217" lon="0.77293">
        <ele>102</ele>
        <time>2025-10-12T13:55:04.518Z</time>
      </trkpt>
      <trkpt lat="44.33217" lon="0.77293">
        <ele>102</ele>
        <time>2025-10-12T13:55:05.518Z</time>
      </trkpt>
      <trkpt lat="44.33217" lon="0.77293">
        <ele>103</ele>
        <time>2025-10-12T13:55:06.518Z</time>
      </trkpt>
      <trkpt lat="44.33217" lon="0.77293">
        <ele>103</ele>
        <time>2025-10-12T13:55:07.518Z</time>
      </trkpt>
      <trkpt lat="44.33217" lon="0.77293">
        <ele>103</ele>
        <time>2025-10-12T13:55:08.518Z</time>
      </trkpt>
      <trkpt lat="44.33217" lon="0.77293">
        <ele>103</ele>
        <time>2025-10-12T13:55:09.518Z</time>
      </trkpt>
      <trkpt lat="44.33217" lon="0.77293">
        <ele>103</ele>
        <time>2025-10-12T13:55:10.518Z</time>
      </trkpt>
      <trkpt lat="44.33217" lon="0.77293">
        <ele>103</ele>
        <time>2025-10-12T13:55:11.518Z</time>
      </trkpt>
      <trkpt lat="44.33217" lon="0.77294">
        <ele>102</ele>
        <time>2025-10-12T13:55:12.518Z</time>
      </trkpt>
      <trkpt lat="44.33216" lon="0.77294">
        <ele>102</ele>
        <time>2025-10-12T13:55:13.518Z</time>
      </trkpt>
      <trkpt lat="44.33216" lon="0.77294">
        <ele>102</ele>
        <time>2025-10-12T13:55:14.518Z</time>
      </trkpt>
      <trkpt lat="44.33217" lon="0.77294">
        <ele>101</ele>
        <time>2025-10-12T13:55:15.518Z</time>
      </trkpt>
      <trkpt lat="44.33217" lon="0.77293">
        <ele>101</ele>
        <time>2025-10-12T13:55:16.518Z</time>
      </trkpt>
      <trkpt lat="44.33217" lon="0.77292">
        <ele>101</ele>
        <time>2025-10-12T13:55:17.518Z</time>
      </trkpt>
      <trkpt lat="44.33217" lon="0.77291">
        <ele>101</ele>
        <time>2025-10-12T13:55:18.518Z</time>
      </trkpt>
      <trkpt lat="44.33218" lon="0.77291">
        <ele>102</ele>
        <time>2025-10-12T13:55:19.518Z</time>
      </trkpt>
      <trkpt lat="44.33218" lon="0.77291">
        <ele>102</ele>
        <time>2025-10-12T13:55:20.518Z</time>
      </trkpt>
      <trkpt lat="44.33218" lon="0.77291">
        <ele>103</ele>
        <time>2025-10-12T13:55:21.518Z</time>
      </trkpt>
      <trkpt lat="44.33218" lon="0.77291">
        <ele>103</ele>
        <time>2025-10-12T13:55:22.518Z</time>
      </trkpt>
      <trkpt lat="44.33217" lon="0.77291">
        <ele>103</ele>
        <time>2025-10-12T13:55:23.518Z</time>
      </trkpt>
      <trkpt lat="44.33217" lon="0.7729">
        <ele>103</ele>
        <time>2025-10-12T13:55:24.518Z</time>
      </trkpt>
      <trkpt lat="44.33217" lon="0.7729">
        <ele>103</ele>
        <time>2025-10-12T13:55:25.518Z</time>
      </trkpt>
      <trkpt lat="44.33217" lon="0.7729">
        <ele>103</ele>
        <time>2025-10-12T13:55:26.518Z</time>
      </trkpt>
      <trkpt lat="44.33217" lon="0.7729">
        <ele>103</ele>
        <time>2025-10-12T13:55:27.518Z</time>
      </trkpt>
      <trkpt lat="44.33217" lon="0.7729">
        <ele>103</ele>
        <time>2025-10-12T13:55:28.518Z</time>
      </trkpt>
      <trkpt lat="44.33217" lon="0.7729">
        <ele>103</ele>
        <time>2025-10-12T13:55:29.518Z</time>
      </trkpt>
      <trkpt lat="44.33216" lon="0.7729">
        <ele>103</ele>
        <time>2025-10-12T13:55:30.518Z</time>
      </trkpt>
      <trkpt lat="44.33216" lon="0.7729">
        <ele>103</ele>
        <time>2025-10-12T13:55:31.518Z</time>
      </trkpt>
      <trkpt lat="44.33216" lon="0.77289">
        <ele>104</ele>
        <time>2025-10-12T13:55:32.518Z</time>
      </trkpt>
      <trkpt lat="44.33216" lon="0.7729">
        <ele>104</ele>
        <time>2025-10-12T13:55:33.518Z</time>
      </trkpt>
      <trkpt lat="44.33216" lon="0.7729">
        <ele>104</ele>
        <time>2025-10-12T13:55:34.518Z</time>
      </trkpt>
      <trkpt lat="44.33216" lon="0.7729">
        <ele>104</ele>
        <time>2025-10-12T13:55:35.518Z</time>
      </trkpt>
      <trkpt lat="44.33216" lon="0.7729">
        <ele>105</ele>
        <time>2025-10-12T13:55:36.518Z</time>
      </trkpt>
      <trkpt lat="44.33215" lon="0.7729">
        <ele>105</ele>
        <time>2025-10-12T13:55:37.518Z</time>
      </trkpt>
      <trkpt lat="44.33215" lon="0.7729">
        <ele>105</ele>
        <time>2025-10-12T13:55:38.518Z</time>
      </trkpt>
      <trkpt lat="44.33215" lon="0.7729">
        <ele>105</ele>
        <time>2025-10-12T13:55:39.518Z</time>
      </trkpt>
      <trkpt lat="44.33215" lon="0.7729">
        <ele>105</ele>
        <time>2025-10-12T13:55:40.518Z</time>
      </trkpt>
      <trkpt lat="44.33215" lon="0.7729">
        <ele>105</ele>
        <time>2025-10-12T13:55:41.518Z</time>
      </trkpt>
      <trkpt lat="44.33215" lon="0.77291">
        <ele>105</ele>
        <time>2025-10-12T13:55:42.518Z</time>
      </trkpt>
      <trkpt lat="44.33215" lon="0.77291">
        <ele>105</ele>
        <time>2025-10-12T13:55:43.518Z</time>
      </trkpt>
      <trkpt lat="44.33215" lon="0.77291">
        <ele>105</ele>
        <time>2025-10-12T13:55:44.518Z</time>
      </trkpt>
      <trkpt lat="44.33215" lon="0.77291">
        <ele>105</ele>
        <time>2025-10-12T13:55:45.518Z</time>
      </trkpt>
      <trkpt lat="44.33215" lon="0.77291">
        <ele>105</ele>
        <time>2025-10-12T13:55:46.518Z</time>
      </trkpt>
      <trkpt lat="44.33215" lon="0.77291">
        <ele>104</ele>
        <time>2025-10-12T13:55:47.518Z</time>
      </trkpt>
      <trkpt lat="44.33215" lon="0.7729">
        <ele>105</ele>
        <time>2025-10-12T13:55:48.518Z</time>
      </trkpt>
      <trkpt lat="44.33215" lon="0.7729">
        <ele>105</ele>
        <time>2025-10-12T13:55:49.518Z</time>
      </trkpt>
      <trkpt lat="44.33215" lon="0.7729">
        <ele>104</ele>
        <time>2025-10-12T13:55:50.518Z</time>
      </trkpt>
      <trkpt lat="44.33215" lon="0.77291">
        <ele>104</ele>
        <time>2025-10-12T13:55:51.518Z</time>
      </trkpt>
      <trkpt lat="44.33215" lon="0.77291">
        <ele>103</ele>
        <time>2025-10-12T13:55:52.518Z</time>
      </trkpt>
      <trkpt lat="44.33215" lon="0.77291">
        <ele>103</ele>
        <time>2025-10-12T13:55:53.518Z</time>
      </trkpt>
      <trkpt lat="44.33215" lon="0.77291">
        <ele>102</ele>
        <time>2025-10-12T13:55:54.518Z</time>
      </trkpt>
      <trkpt lat="44.33215" lon="0.77291">
        <ele>102</ele>
        <time>2025-10-12T13:55:55.518Z</time>
      </trkpt>
      <trkpt lat="44.33215" lon="0.77291">
        <ele>101</ele>
        <time>2025-10-12T13:55:56.518Z</time>
      </trkpt>
      <trkpt lat="44.33215" lon="0.77291">
        <ele>101</ele>
        <time>2025-10-12T13:55:57.518Z</time>
      </trkpt>
      <trkpt lat="44.33215" lon="0.77291">
        <ele>100</ele>
        <time>2025-10-12T13:55:58.518Z</time>
      </trkpt>
      <trkpt lat="44.33215" lon="0.77291">
        <ele>100</ele>
        <time>2025-10-12T13:55:59.518Z</time>
      </trkpt>
      <trkpt lat="44.33215" lon="0.77291">
        <ele>99</ele>
        <time>2025-10-12T13:56:00.518Z</time>
      </trkpt>
      <trkpt lat="44.33215" lon="0.77291">
        <ele>99</ele>
        <time>2025-10-12T13:56:01.518Z</time>
      </trkpt>
      <trkpt lat="44.33215" lon="0.77291">
        <ele>99</ele>
        <time>2025-10-12T13:56:02.518Z</time>
      </trkpt>
      <trkpt lat="44.33215" lon="0.77291">
        <ele>99</ele>
        <time>2025-10-12T13:56:03.518Z</time>
      </trkpt>
      <trkpt lat="44.33215" lon="0.77291">
        <ele>100</ele>
        <time>2025-10-12T13:56:04.518Z</time>
      </trkpt>
      <trkpt lat="44.33215" lon="0.77291">
        <ele>100</ele>
        <time>2025-10-12T13:56:05.518Z</time>
      </trkpt>
      <trkpt lat="44.33215" lon="0.77291">
        <ele>100</ele>
        <time>2025-10-12T13:56:06.518Z</time>
      </trkpt>
      <trkpt lat="44.33215" lon="0.77291">
        <ele>100</ele>
        <time>2025-10-12T13:56:07.518Z</time>
      </trkpt>
      <trkpt lat="44.33215" lon="0.77291">
        <ele>100</ele>
        <time>2025-10-12T13:56:08.518Z</time>
      </trkpt>
      <trkpt lat="44.33215" lon="0.77291">
        <ele>100</ele>
        <time>2025-10-12T13:56:09.518Z</time>
      </trkpt>
      <trkpt lat="44.33215" lon="0.77291">
        <ele>100</ele>
        <time>2025-10-12T13:56:10.518Z</time>
      </trkpt>
      <trkpt lat="44.33215" lon="0.77291">
        <ele>101</ele>
        <time>2025-10-12T13:56:11.518Z</time>
      </trkpt>
      <trkpt lat="44.33215" lon="0.77291">
        <ele>101</ele>
        <time>2025-10-12T13:56:12.518Z</time>
      </trkpt>
      <trkpt lat="44.33215" lon="0.77291">
        <ele>101</ele>
        <time>2025-10-12T13:56:13.518Z</time>
      </trkpt>
      <trkpt lat="44.33215" lon="0.77291">
        <ele>101</ele>
        <time>2025-10-12T13:56:14.518Z</time>
      </trkpt>
      <trkpt lat="44.33216" lon="0.77291">
        <ele>101</ele>
        <time>2025-10-12T13:56:15.518Z</time>
      </trkpt>
      <trkpt lat="44.33216" lon="0.77291">
        <ele>100</ele>
        <time>2025-10-12T13:56:16.518Z</time>
      </trkpt>
      <trkpt lat="44.33216" lon="0.77291">
        <ele>100</ele>
        <time>2025-10-12T13:56:17.518Z</time>
      </trkpt>
      <trkpt lat="44.33216" lon="0.77291">
        <ele>100</ele>
        <time>2025-10-12T13:56:18.518Z</time>
      </trkpt>
      <trkpt lat="44.33216" lon="0.77291">
        <ele>100</ele>
        <time>2025-10-12T13:56:19.518Z</time>
      </trkpt>
      <trkpt lat="44.33216" lon="0.77291">
        <ele>100</ele>
        <time>2025-10-12T13:56:20.518Z</time>
      </trkpt>
      <trkpt lat="44.33216" lon="0.77291">
        <ele>100</ele>
        <time>2025-10-12T13:56:21.518Z</time>
      </trkpt>
      <trkpt lat="44.33216" lon="0.77291">
        <ele>100</ele>
        <time>2025-10-12T13:56:22.518Z</time>
      </trkpt>
      <trkpt lat="44.33216" lon="0.77291">
        <ele>100</ele>
        <time>2025-10-12T13:56:23.518Z</time>
      </trkpt>
      <trkpt lat="44.33216" lon="0.77291">
        <ele>101</ele>
        <time>2025-10-12T13:56:24.518Z</time>
      </trkpt>
      <trkpt lat="44.33216" lon="0.77291">
        <ele>101</ele>
        <time>2025-10-12T13:56:25.518Z</time>
      </trkpt>
      <trkpt lat="44.33216" lon="0.77291">
        <ele>101</ele>
        <time>2025-10-12T13:56:26.518Z</time>
      </trkpt>
      <trkpt lat="44.33216" lon="0.77291">
        <ele>101</ele>
        <time>2025-10-12T13:56:27.518Z</time>
      </trkpt>
      <trkpt lat="44.33216" lon="0.77291">
        <ele>101</ele>
        <time>2025-10-12T13:56:28.518Z</time>
      </trkpt>
      <trkpt lat="44.33216" lon="0.77291">
        <ele>100</ele>
        <time>2025-10-12T13:56:29.518Z</time>
      </trkpt>
      <trkpt lat="44.33216" lon="0.77291">
        <ele>100</ele>
        <time>2025-10-12T13:56:30.518Z</time>
      </trkpt>
      <trkpt lat="44.33216" lon="0.77291">
        <ele>100</ele>
        <time>2025-10-12T13:56:31.518Z</time>
      </trkpt>
      <trkpt lat="44.33216" lon="0.77291">
        <ele>100</ele>
        <time>2025-10-12T13:56:32.518Z</time>
      </trkpt>
      <trkpt lat="44.33216" lon="0.77291">
        <ele>100</ele>
        <time>2025-10-12T13:56:33.518Z</time>
      </trkpt>
      <trkpt lat="44.33216" lon="0.77291">
        <ele>100</ele>
        <time>2025-10-12T13:56:34.518Z</time>
      </trkpt>
      <trkpt lat="44.33216" lon="0.77291">
        <ele>100</ele>
        <time>2025-10-12T13:56:35.518Z</time>
      </trkpt>
      <trkpt lat="44.33216" lon="0.77291">
        <ele>100</ele>
        <time>2025-10-12T13:56:36.518Z</time>
      </trkpt>
      <trkpt lat="44.33216" lon="0.77291">
        <ele>100</ele>
        <time>2025-10-12T13:56:37.518Z</time>
      </trkpt>
      <trkpt lat="44.33216" lon="0.77291">
        <ele>100</ele>
        <time>2025-10-12T13:56:38.518Z</time>
      </trkpt>
      <trkpt lat="44.33216" lon="0.77291">
        <ele>100</ele>
        <time>2025-10-12T13:56:39.518Z</time>
      </trkpt>
      <trkpt lat="44.33216" lon="0.7729">
        <ele>100</ele>
        <time>2025-10-12T13:56:40.518Z</time>
      </trkpt>
      <trkpt lat="44.33216" lon="0.7729">
        <ele>101</ele>
        <time>2025-10-12T13:56:41.518Z</time>
      </trkpt>
      <trkpt lat="44.33216" lon="0.77291">
        <ele>101</ele>
        <time>2025-10-12T13:56:42.518Z</time>
      </trkpt>
      <trkpt lat="44.33216" lon="0.77291">
        <ele>102</ele>
        <time>2025-10-12T13:56:43.518Z</time>
      </trkpt>
      <trkpt lat="44.33216" lon="0.77291">
        <ele>102</ele>
        <time>2025-10-12T13:56:44.518Z</time>
      </trkpt>
      <trkpt lat="44.33216" lon="0.77291">
        <ele>102</ele>
        <time>2025-10-12T13:56:45.518Z</time>
      </trkpt>
      <trkpt lat="44.33216" lon="0.7729">
        <ele>102</ele>
        <time>2025-10-12T13:56:46.518Z</time>
      </trkpt>
      <trkpt lat="44.33216" lon="0.7729">
        <ele>102</ele>
        <time>2025-10-12T13:56:47.518Z</time>
      </trkpt>
      <trkpt lat="44.33216" lon="0.7729">
        <ele>101</ele>
        <time>2025-10-12T13:56:48.518Z</time>
      </trkpt>
      <trkpt lat="44.33216" lon="0.7729">
        <ele>101</ele>
        <time>2025-10-12T13:56:49.518Z</time>
      </trkpt>
      <trkpt lat="44.33216" lon="0.7729">
        <ele>101</ele>
        <time>2025-10-12T13:56:50.518Z</time>
      </trkpt>
      <trkpt lat="44.33216" lon="0.7729">
        <ele>100</ele>
        <time>2025-10-12T13:56:51.518Z</time>
      </trkpt>
      <trkpt lat="44.33216" lon="0.7729">
        <ele>100</ele>
        <time>2025-10-12T13:56:52.518Z</time>
      </trkpt>
      <trkpt lat="44.33216" lon="0.7729">
        <ele>99</ele>
        <time>2025-10-12T13:56:53.518Z</time>
      </trkpt>
      <trkpt lat="44.33217" lon="0.7729">
        <ele>99</ele>
        <time>2025-10-12T13:56:54.518Z</time>
      </trkpt>
      <trkpt lat="44.33217" lon="0.7729">
        <ele>99</ele>
        <time>2025-10-12T13:56:55.518Z</time>
      </trkpt>
      <trkpt lat="44.33217" lon="0.77291">
        <ele>99</ele>
        <time>2025-10-12T13:56:56.518Z</time>
      </trkpt>
      <trkpt lat="44.33217" lon="0.77291">
        <ele>99</ele>
        <time>2025-10-12T13:56:57.518Z</time>
      </trkpt>
      <trkpt lat="44.33217" lon="0.77291">
        <ele>99</ele>
        <time>2025-10-12T13:56:58.518Z</time>
      </trkpt>
      <trkpt lat="44.33217" lon="0.77291">
        <ele>99</ele>
        <time>2025-10-12T13:56:59.518Z</time>
      </trkpt>
      <trkpt lat="44.33217" lon="0.77291">
        <ele>99</ele>
        <time>2025-10-12T13:57:00.518Z</time>
      </trkpt>
      <trkpt lat="44.33217" lon="0.77291">
        <ele>99</ele>
        <time>2025-10-12T13:57:01.518Z</time>
      </trkpt>
      <trkpt lat="44.33217" lon="0.77291">
        <ele>99</ele>
        <time>2025-10-12T13:57:02.518Z</time>
      </trkpt>
      <trkpt lat="44.33217" lon="0.77291">
        <ele>99</ele>
        <time>2025-10-12T13:57:03.518Z</time>
      </trkpt>
      <trkpt lat="44.33217" lon="0.77291">
        <ele>99</ele>
        <time>2025-10-12T13:57:04.518Z</time>
      </trkpt>
      <trkpt lat="44.33217" lon="0.77291">
        <ele>99</ele>
        <time>2025-10-12T13:57:05.518Z</time>
      </trkpt>
      <trkpt lat="44.33217" lon="0.77291">
        <ele>99</ele>
        <time>2025-10-12T13:57:06.518Z</time>
      </trkpt>
      <trkpt lat="44.33217" lon="0.77291">
        <ele>100</ele>
        <time>2025-10-12T13:57:07.518Z</time>
      </trkpt>
      <trkpt lat="44.33217" lon="0.77292">
        <ele>100</ele>
        <time>2025-10-12T13:57:08.518Z</time>
      </trkpt>
      <trkpt lat="44.33217" lon="0.77292">
        <ele>100</ele>
        <time>2025-10-12T13:57:09.518Z</time>
      </trkpt>
      <trkpt lat="44.33217" lon="0.77292">
        <ele>100</ele>
        <time>2025-10-12T13:57:10.518Z</time>
      </trkpt>
      <trkpt lat="44.33217" lon="0.77292">
        <ele>99</ele>
        <time>2025-10-12T13:57:11.518Z</time>
      </trkpt>
      <trkpt lat="44.33217" lon="0.77292">
        <ele>99</ele>
        <time>2025-10-12T13:57:12.518Z</time>
      </trkpt>
      <trkpt lat="44.33217" lon="0.77292">
        <ele>99</ele>
        <time>2025-10-12T13:57:13.518Z</time>
      </trkpt>
      <trkpt lat="44.33217" lon="0.77292">
        <ele>98</ele>
        <time>2025-10-12T13:57:14.518Z</time>
      </trkpt>
      <trkpt lat="44.33217" lon="0.77292">
        <ele>99</ele>
        <time>2025-10-12T13:57:15.518Z</time>
      </trkpt>
      <trkpt lat="44.33217" lon="0.77292">
        <ele>99</ele>
        <time>2025-10-12T13:57:16.518Z</time>
      </trkpt>
      <trkpt lat="44.33217" lon="0.77292">
        <ele>99</ele>
        <time>2025-10-12T13:57:17.518Z</time>
      </trkpt>
      <trkpt lat="44.33217" lon="0.77292">
        <ele>99</ele>
        <time>2025-10-12T13:57:18.518Z</time>
      </trkpt>
      <trkpt lat="44.33217" lon="0.77292">
        <ele>99</ele>
        <time>2025-10-12T13:57:19.518Z</time>
      </trkpt>
      <trkpt lat="44.33217" lon="0.77292">
        <ele>99</ele>
        <time>2025-10-12T13:57:20.518Z</time>
      </trkpt>
      <trkpt lat="44.33217" lon="0.77292">
        <ele>98</ele>
        <time>2025-10-12T13:57:21.518Z</time>
      </trkpt>
      <trkpt lat="44.33217" lon="0.77292">
        <ele>98</ele>
        <time>2025-10-12T13:57:22.518Z</time>
      </trkpt>
      <trkpt lat="44.33217" lon="0.77292">
        <ele>98</ele>
        <time>2025-10-12T13:57:23.518Z</time>
      </trkpt>
      <trkpt lat="44.33216" lon="0.77292">
        <ele>99</ele>
        <time>2025-10-12T13:57:24.518Z</time>
      </trkpt>
      <trkpt lat="44.33216" lon="0.77292">
        <ele>99</ele>
        <time>2025-10-12T13:57:25.518Z</time>
      </trkpt>
      <trkpt lat="44.33216" lon="0.77292">
        <ele>99</ele>
        <time>2025-10-12T13:57:26.518Z</time>
      </trkpt>
      <trkpt lat="44.33216" lon="0.77292">
        <ele>99</ele>
        <time>2025-10-12T13:57:27.518Z</time>
      </trkpt>
      <trkpt lat="44.33216" lon="0.77292">
        <ele>99</ele>
        <time>2025-10-12T13:57:28.518Z</time>
      </trkpt>
      <trkpt lat="44.33216" lon="0.77292">
        <ele>99</ele>
        <time>2025-10-12T13:57:29.518Z</time>
      </trkpt>
      <trkpt lat="44.33215" lon="0.77292">
        <ele>100</ele>
        <time>2025-10-12T13:57:30.518Z</time>
      </trkpt>
      <trkpt lat="44.33215" lon="0.77292">
        <ele>100</ele>
        <time>2025-10-12T13:57:31.518Z</time>
      </trkpt>
      <trkpt lat="44.33215" lon="0.77292">
        <ele>100</ele>
        <time>2025-10-12T13:57:32.518Z</time>
      </trkpt>
      <trkpt lat="44.33215" lon="0.77292">
        <ele>100</ele>
        <time>2025-10-12T13:57:33.518Z</time>
      </trkpt>
      <trkpt lat="44.33215" lon="0.77292">
        <ele>100</ele>
        <time>2025-10-12T13:57:34.518Z</time>
      </trkpt>
      <trkpt lat="44.33215" lon="0.77292">
        <ele>100</ele>
        <time>2025-10-12T13:57:35.518Z</time>
      </trkpt>
      <trkpt lat="44.33215" lon="0.77292">
        <ele>100</ele>
        <time>2025-10-12T13:57:36.518Z</time>
      </trkpt>
      <trkpt lat="44.33215" lon="0.77292">
        <ele>100</ele>
        <time>2025-10-12T13:57:37.518Z</time>
      </trkpt>
      <trkpt lat="44.33216" lon="0.77292">
        <ele>100</ele>
        <time>2025-10-12T13:57:38.518Z</time>
      </trkpt>
      <trkpt lat="44.33216" lon="0.77292">
        <ele>100</ele>
        <time>2025-10-12T13:57:39.518Z</time>
      </trkpt>
      <trkpt lat="44.33216" lon="0.77292">
        <ele>100</ele>
        <time>2025-10-12T13:57:40.518Z</time>
      </trkpt>
      <trkpt lat="44.33216" lon="0.77292">
        <ele>100</ele>
        <time>2025-10-12T13:57:41.518Z</time>
      </trkpt>
      <trkpt lat="44.33216" lon="0.77292">
        <ele>100</ele>
        <time>2025-10-12T13:57:42.518Z</time>
      </trkpt>
      <trkpt lat="44.33216" lon="0.77292">
        <ele>100</ele>
        <time>2025-10-12T13:57:43.518Z</time>
      </trkpt>
      <trkpt lat="44.33216" lon="0.77292">
        <ele>100</ele>
        <time>2025-10-12T13:57:44.518Z</time>
      </trkpt>
      <trkpt lat="44.33216" lon="0.77292">
        <ele>100</ele>
        <time>2025-10-12T13:57:45.518Z</time>
      </trkpt>
      <trkpt lat="44.33215" lon="0.77292">
        <ele>100</ele>
        <time>2025-10-12T13:57:46.518Z</time>
      </trkpt>
      <trkpt lat="44.33215" lon="0.77291">
        <ele>99</ele>
        <time>2025-10-12T13:57:47.518Z</time>
      </trkpt>
      <trkpt lat="44.33214" lon="0.77291">
        <ele>99</ele>
        <time>2025-10-12T13:57:48.518Z</time>
      </trkpt>
      <trkpt lat="44.33213" lon="0.7729">
        <ele>99</ele>
        <time>2025-10-12T13:57:49.518Z</time>
      </trkpt>
      <trkpt lat="44.33213" lon="0.77289">
        <ele>99</ele>
        <time>2025-10-12T13:57:50.518Z</time>
      </trkpt>
      <trkpt lat="44.33213" lon="0.77289">
        <ele>99</ele>
        <time>2025-10-12T13:57:51.518Z</time>
      </trkpt>
      <trkpt lat="44.33212" lon="0.77288">
        <ele>98</ele>
        <time>2025-10-12T13:57:52.518Z</time>
      </trkpt>
      <trkpt lat="44.33211" lon="0.77287">
        <ele>99</ele>
        <time>2025-10-12T13:57:53.518Z</time>
      </trkpt>
      <trkpt lat="44.33211" lon="0.77287">
        <ele>99</ele>
        <time>2025-10-12T13:57:54.518Z</time>
      </trkpt>
      <trkpt lat="44.3321" lon="0.77286">
        <ele>99</ele>
        <time>2025-10-12T13:57:55.518Z</time>
      </trkpt>
      <trkpt lat="44.33209" lon="0.77284">
        <ele>99</ele>
        <time>2025-10-12T13:57:56.518Z</time>
      </trkpt>
      <trkpt lat="44.33209" lon="0.77283">
        <ele>99</ele>
        <time>2025-10-12T13:57:57.518Z</time>
      </trkpt>
      <trkpt lat="44.33207" lon="0.77281">
        <ele>100</ele>
        <time>2025-10-12T13:57:58.518Z</time>
      </trkpt>
      <trkpt lat="44.33206" lon="0.7728">
        <ele>100</ele>
        <time>2025-10-12T13:57:59.518Z</time>
      </trkpt>
      <trkpt lat="44.33205" lon="0.77279">
        <ele>100</ele>
        <time>2025-10-12T13:58:00.518Z</time>
      </trkpt>
      <trkpt lat="44.33205" lon="0.77277">
        <ele>100</ele>
        <time>2025-10-12T13:58:01.518Z</time>
      </trkpt>
      <trkpt lat="44.33204" lon="0.77276">
        <ele>100</ele>
        <time>2025-10-12T13:58:02.518Z</time>
      </trkpt>
      <trkpt lat="44.33203" lon="0.77274">
        <ele>100</ele>
        <time>2025-10-12T13:58:03.518Z</time>
      </trkpt>
      <trkpt lat="44.33202" lon="0.77273">
        <ele>101</ele>
        <time>2025-10-12T13:58:04.518Z</time>
      </trkpt>
      <trkpt lat="44.33202" lon="0.77272">
        <ele>101</ele>
        <time>2025-10-12T13:58:05.518Z</time>
      </trkpt>
      <trkpt lat="44.33202" lon="0.7727">
        <ele>101</ele>
        <time>2025-10-12T13:58:06.518Z</time>
      </trkpt>
      <trkpt lat="44.33202" lon="0.77269">
        <ele>101</ele>
        <time>2025-10-12T13:58:07.518Z</time>
      </trkpt>
      <trkpt lat="44.33202" lon="0.77267">
        <ele>101</ele>
        <time>2025-10-12T13:58:08.518Z</time>
      </trkpt>
      <trkpt lat="44.33202" lon="0.77266">
        <ele>101</ele>
        <time>2025-10-12T13:58:09.518Z</time>
      </trkpt>
      <trkpt lat="44.33202" lon="0.77264">
        <ele>101</ele>
        <time>2025-10-12T13:58:10.518Z</time>
      </trkpt>
      <trkpt lat="44.33201" lon="0.77263">
        <ele>101</ele>
        <time>2025-10-12T13:58:11.518Z</time>
      </trkpt>
      <trkpt lat="44.33201" lon="0.77262">
        <ele>101</ele>
        <time>2025-10-12T13:58:12.518Z</time>
      </trkpt>
      <trkpt lat="44.332" lon="0.77261">
        <ele>101</ele>
        <time>2025-10-12T13:58:13.518Z</time>
      </trkpt>
      <trkpt lat="44.332" lon="0.77259">
        <ele>102</ele>
        <time>2025-10-12T13:58:14.518Z</time>
      </trkpt>
      <trkpt lat="44.33199" lon="0.77258">
        <ele>102</ele>
        <time>2025-10-12T13:58:15.518Z</time>
      </trkpt>
      <trkpt lat="44.33199" lon="0.77257">
        <ele>103</ele>
        <time>2025-10-12T13:58:16.518Z</time>
      </trkpt>
      <trkpt lat="44.33199" lon="0.77256">
        <ele>103</ele>
        <time>2025-10-12T13:58:17.518Z</time>
      </trkpt>
      <trkpt lat="44.33198" lon="0.77254">
        <ele>103</ele>
        <time>2025-10-12T13:58:18.518Z</time>
      </trkpt>
      <trkpt lat="44.33198" lon="0.77254">
        <ele>103</ele>
        <time>2025-10-12T13:58:19.518Z</time>
      </trkpt>
      <trkpt lat="44.33197" lon="0.77253">
        <ele>103</ele>
        <time>2025-10-12T13:58:20.518Z</time>
      </trkpt>
      <trkpt lat="44.33196" lon="0.77252">
        <ele>103</ele>
        <time>2025-10-12T13:58:21.518Z</time>
      </trkpt>
      <trkpt lat="44.33196" lon="0.77251">
        <ele>104</ele>
        <time>2025-10-12T13:58:22.518Z</time>
      </trkpt>
      <trkpt lat="44.33195" lon="0.7725">
        <ele>103</ele>
        <time>2025-10-12T13:58:23.518Z</time>
      </trkpt>
      <trkpt lat="44.33193" lon="0.77249">
        <ele>103</ele>
        <time>2025-10-12T13:58:24.518Z</time>
      </trkpt>
      <trkpt lat="44.33192" lon="0.77248">
        <ele>103</ele>
        <time>2025-10-12T13:58:25.518Z</time>
      </trkpt>
      <trkpt lat="44.33191" lon="0.77247">
        <ele>102</ele>
        <time>2025-10-12T13:58:26.518Z</time>
      </trkpt>
      <trkpt lat="44.3319" lon="0.77245">
        <ele>102</ele>
        <time>2025-10-12T13:58:27.518Z</time>
      </trkpt>
      <trkpt lat="44.33189" lon="0.77243">
        <ele>102</ele>
        <time>2025-10-12T13:58:28.518Z</time>
      </trkpt>
      <trkpt lat="44.33189" lon="0.77241">
        <ele>102</ele>
        <time>2025-10-12T13:58:29.518Z</time>
      </trkpt>
      <trkpt lat="44.33188" lon="0.7724">
        <ele>102</ele>
        <time>2025-10-12T13:58:30.518Z</time>
      </trkpt>
      <trkpt lat="44.33188" lon="0.77239">
        <ele>102</ele>
        <time>2025-10-12T13:58:31.518Z</time>
      </trkpt>
      <trkpt lat="44.33187" lon="0.77238">
        <ele>102</ele>
        <time>2025-10-12T13:58:32.518Z</time>
      </trkpt>
      <trkpt lat="44.33186" lon="0.77237">
        <ele>102</ele>
        <time>2025-10-12T13:58:33.518Z</time>
      </trkpt>
      <trkpt lat="44.33185" lon="0.77235">
        <ele>102</ele>
        <time>2025-10-12T13:58:34.518Z</time>
      </trkpt>
      <trkpt lat="44.33183" lon="0.77233">
        <ele>102</ele>
        <time>2025-10-12T13:58:35.518Z</time>
      </trkpt>
      <trkpt lat="44.33182" lon="0.77231">
        <ele>102</ele>
        <time>2025-10-12T13:58:36.518Z</time>
      </trkpt>
      <trkpt lat="44.33182" lon="0.77229">
        <ele>102</ele>
        <time>2025-10-12T13:58:37.518Z</time>
      </trkpt>
      <trkpt lat="44.33181" lon="0.77228">
        <ele>102</ele>
        <time>2025-10-12T13:58:38.518Z</time>
      </trkpt>
      <trkpt lat="44.33181" lon="0.77226">
        <ele>102</ele>
        <time>2025-10-12T13:58:39.518Z</time>
      </trkpt>
      <trkpt lat="44.3318" lon="0.77225">
        <ele>101</ele>
        <time>2025-10-12T13:58:40.518Z</time>
      </trkpt>
      <trkpt lat="44.3318" lon="0.77224">
        <ele>101</ele>
        <time>2025-10-12T13:58:41.518Z</time>
      </trkpt>
      <trkpt lat="44.33179" lon="0.77223">
        <ele>101</ele>
        <time>2025-10-12T13:58:42.518Z</time>
      </trkpt>
      <trkpt lat="44.33178" lon="0.77221">
        <ele>102</ele>
        <time>2025-10-12T13:58:43.518Z</time>
      </trkpt>
      <trkpt lat="44.33177" lon="0.7722">
        <ele>102</ele>
        <time>2025-10-12T13:58:44.518Z</time>
      </trkpt>
      <trkpt lat="44.33176" lon="0.77218">
        <ele>102</ele>
        <time>2025-10-12T13:58:45.518Z</time>
      </trkpt>
      <trkpt lat="44.33175" lon="0.77217">
        <ele>103</ele>
        <time>2025-10-12T13:58:46.518Z</time>
      </trkpt>
      <trkpt lat="44.33175" lon="0.77216">
        <ele>103</ele>
        <time>2025-10-12T13:58:47.518Z</time>
      </trkpt>
      <trkpt lat="44.33174" lon="0.77215">
        <ele>103</ele>
        <time>2025-10-12T13:58:48.518Z</time>
      </trkpt>
      <trkpt lat="44.33174" lon="0.77213">
        <ele>103</ele>
        <time>2025-10-12T13:58:49.518Z</time>
      </trkpt>
      <trkpt lat="44.33174" lon="0.77212">
        <ele>103</ele>
        <time>2025-10-12T13:58:50.518Z</time>
      </trkpt>
      <trkpt lat="44.33173" lon="0.77211">
        <ele>103</ele>
        <time>2025-10-12T13:58:51.518Z</time>
      </trkpt>
      <trkpt lat="44.33173" lon="0.7721">
        <ele>102</ele>
        <time>2025-10-12T13:58:52.518Z</time>
      </trkpt>
      <trkpt lat="44.33172" lon="0.77208">
        <ele>102</ele>
        <time>2025-10-12T13:58:53.518Z</time>
      </trkpt>
      <trkpt lat="44.33171" lon="0.77207">
        <ele>101</ele>
        <time>2025-10-12T13:58:54.518Z</time>
      </trkpt>
      <trkpt lat="44.3317" lon="0.77205">
        <ele>101</ele>
        <time>2025-10-12T13:58:55.518Z</time>
      </trkpt>
      <trkpt lat="44.33169" lon="0.77203">
        <ele>101</ele>
        <time>2025-10-12T13:58:56.518Z</time>
      </trkpt>
      <trkpt lat="44.33168" lon="0.77202">
        <ele>101</ele>
        <time>2025-10-12T13:58:57.518Z</time>
      </trkpt>
      <trkpt lat="44.33168" lon="0.77201">
        <ele>101</ele>
        <time>2025-10-12T13:58:58.518Z</time>
      </trkpt>
      <trkpt lat="44.33167" lon="0.77199">
        <ele>101</ele>
        <time>2025-10-12T13:58:59.518Z</time>
      </trkpt>
      <trkpt lat="44.33166" lon="0.77199">
        <ele>101</ele>
        <time>2025-10-12T13:59:00.518Z</time>
      </trkpt>
      <trkpt lat="44.33166" lon="0.77197">
        <ele>101</ele>
        <time>2025-10-12T13:59:01.518Z</time>
      </trkpt>
      <trkpt lat="44.33165" lon="0.77196">
        <ele>101</ele>
        <time>2025-10-12T13:59:02.518Z</time>
      </trkpt>
      <trkpt lat="44.33165" lon="0.77194">
        <ele>101</ele>
        <time>2025-10-12T13:59:03.518Z</time>
      </trkpt>
      <trkpt lat="44.33164" lon="0.77193">
        <ele>101</ele>
        <time>2025-10-12T13:59:04.518Z</time>
      </trkpt>
      <trkpt lat="44.33163" lon="0.77192">
        <ele>101</ele>
        <time>2025-10-12T13:59:05.518Z</time>
      </trkpt>
      <trkpt lat="44.33163" lon="0.77191">
        <ele>101</ele>
        <time>2025-10-12T13:59:06.518Z</time>
      </trkpt>
      <trkpt lat="44.33162" lon="0.7719">
        <ele>101</ele>
        <time>2025-10-12T13:59:07.518Z</time>
      </trkpt>
      <trkpt lat="44.33161" lon="0.77188">
        <ele>101</ele>
        <time>2025-10-12T13:59:08.518Z</time>
      </trkpt>
      <trkpt lat="44.3316" lon="0.77186">
        <ele>101</ele>
        <time>2025-10-12T13:59:09.518Z</time>
      </trkpt>
      <trkpt lat="44.3316" lon="0.77185">
        <ele>101</ele>
        <time>2025-10-12T13:59:10.518Z</time>
      </trkpt>
      <trkpt lat="44.3316" lon="0.77184">
        <ele>101</ele>
        <time>2025-10-12T13:59:11.518Z</time>
      </trkpt>
      <trkpt lat="44.3316" lon="0.77183">
        <ele>100</ele>
        <time>2025-10-12T13:59:12.518Z</time>
      </trkpt>
      <trkpt lat="44.3316" lon="0.77182">
        <ele>100</ele>
        <time>2025-10-12T13:59:13.518Z</time>
      </trkpt>
      <trkpt lat="44.3316" lon="0.7718">
        <ele>100</ele>
        <time>2025-10-12T13:59:14.518Z</time>
      </trkpt>
      <trkpt lat="44.3316" lon="0.77179">
        <ele>100</ele>
        <time>2025-10-12T13:59:15.518Z</time>
      </trkpt>
      <trkpt lat="44.33159" lon="0.77177">
        <ele>101</ele>
        <time>2025-10-12T13:59:16.518Z</time>
      </trkpt>
      <trkpt lat="44.33158" lon="0.77175">
        <ele>101</ele>
        <time>2025-10-12T13:59:17.518Z</time>
      </trkpt>
      <trkpt lat="44.33158" lon="0.77174">
        <ele>101</ele>
        <time>2025-10-12T13:59:18.518Z</time>
      </trkpt>
      <trkpt lat="44.33157" lon="0.77172">
        <ele>101</ele>
        <time>2025-10-12T13:59:19.518Z</time>
      </trkpt>
      <trkpt lat="44.33157" lon="0.77171">
        <ele>101</ele>
        <time>2025-10-12T13:59:20.518Z</time>
      </trkpt>
      <trkpt lat="44.33156" lon="0.7717">
        <ele>101</ele>
        <time>2025-10-12T13:59:21.518Z</time>
      </trkpt>
      <trkpt lat="44.33155" lon="0.77168">
        <ele>101</ele>
        <time>2025-10-12T13:59:22.518Z</time>
      </trkpt>
      <trkpt lat="44.33154" lon="0.77167">
        <ele>101</ele>
        <time>2025-10-12T13:59:23.518Z</time>
      </trkpt>
      <trkpt lat="44.33154" lon="0.77165">
        <ele>100</ele>
        <time>2025-10-12T13:59:24.518Z</time>
      </trkpt>
      <trkpt lat="44.33153" lon="0.77164">
        <ele>100</ele>
        <time>2025-10-12T13:59:25.518Z</time>
      </trkpt>
      <trkpt lat="44.33153" lon="0.77162">
        <ele>100</ele>
        <time>2025-10-12T13:59:26.518Z</time>
      </trkpt>
      <trkpt lat="44.33152" lon="0.7716">
        <ele>100</ele>
        <time>2025-10-12T13:59:27.518Z</time>
      </trkpt>
      <trkpt lat="44.33152" lon="0.77159">
        <ele>100</ele>
        <time>2025-10-12T13:59:28.518Z</time>
      </trkpt>
      <trkpt lat="44.33151" lon="0.77158">
        <ele>99</ele>
        <time>2025-10-12T13:59:29.518Z</time>
      </trkpt>
      <trkpt lat="44.3315" lon="0.77156">
        <ele>99</ele>
        <time>2025-10-12T13:59:30.518Z</time>
      </trkpt>
      <trkpt lat="44.33149" lon="0.77155">
        <ele>98</ele>
        <time>2025-10-12T13:59:31.518Z</time>
      </trkpt>
      <trkpt lat="44.33149" lon="0.77154">
        <ele>98</ele>
        <time>2025-10-12T13:59:32.518Z</time>
      </trkpt>
      <trkpt lat="44.33148" lon="0.77152">
        <ele>98</ele>
        <time>2025-10-12T13:59:33.518Z</time>
      </trkpt>
      <trkpt lat="44.33147" lon="0.7715">
        <ele>99</ele>
        <time>2025-10-12T13:59:34.518Z</time>
      </trkpt>
      <trkpt lat="44.33146" lon="0.77149">
        <ele>99</ele>
        <time>2025-10-12T13:59:35.518Z</time>
      </trkpt>
      <trkpt lat="44.33145" lon="0.77147">
        <ele>99</ele>
        <time>2025-10-12T13:59:36.518Z</time>
      </trkpt>
      <trkpt lat="44.33144" lon="0.77146">
        <ele>99</ele>
        <time>2025-10-12T13:59:37.518Z</time>
      </trkpt>
      <trkpt lat="44.33143" lon="0.77144">
        <ele>99</ele>
        <time>2025-10-12T13:59:38.518Z</time>
      </trkpt>
      <trkpt lat="44.33142" lon="0.77142">
        <ele>99</ele>
        <time>2025-10-12T13:59:39.518Z</time>
      </trkpt>
      <trkpt lat="44.33141" lon="0.77141">
        <ele>99</ele>
        <time>2025-10-12T13:59:40.518Z</time>
      </trkpt>
      <trkpt lat="44.3314" lon="0.77139">
        <ele>99</ele>
        <time>2025-10-12T13:59:41.518Z</time>
      </trkpt>
      <trkpt lat="44.33139" lon="0.77138">
        <ele>98</ele>
        <time>2025-10-12T13:59:42.518Z</time>
      </trkpt>
      <trkpt lat="44.33138" lon="0.77136">
        <ele>98</ele>
        <time>2025-10-12T13:59:43.518Z</time>
      </trkpt>
      <trkpt lat="44.33137" lon="0.77135">
        <ele>98</ele>
        <time>2025-10-12T13:59:44.518Z</time>
      </trkpt>
      <trkpt lat="44.33137" lon="0.77133">
        <ele>98</ele>
        <time>2025-10-12T13:59:45.518Z</time>
      </trkpt>
      <trkpt lat="44.33136" lon="0.77131">
        <ele>98</ele>
        <time>2025-10-12T13:59:46.518Z</time>
      </trkpt>
      <trkpt lat="44.33136" lon="0.7713">
        <ele>98</ele>
        <time>2025-10-12T13:59:47.518Z</time>
      </trkpt>
      <trkpt lat="44.33135" lon="0.77128">
        <ele>97</ele>
        <time>2025-10-12T13:59:48.518Z</time>
      </trkpt>
      <trkpt lat="44.33134" lon="0.77126">
        <ele>97</ele>
        <time>2025-10-12T13:59:49.518Z</time>
      </trkpt>
      <trkpt lat="44.33133" lon="0.77125">
        <ele>96</ele>
        <time>2025-10-12T13:59:50.518Z</time>
      </trkpt>
      <trkpt lat="44.33132" lon="0.77124">
        <ele>96</ele>
        <time>2025-10-12T13:59:51.518Z</time>
      </trkpt>
      <trkpt lat="44.33131" lon="0.77122">
        <ele>96</ele>
        <time>2025-10-12T13:59:52.518Z</time>
      </trkpt>
      <trkpt lat="44.3313" lon="0.77121">
        <ele>96</ele>
        <time>2025-10-12T13:59:53.518Z</time>
      </trkpt>
      <trkpt lat="44.3313" lon="0.77119">
        <ele>96</ele>
        <time>2025-10-12T13:59:54.518Z</time>
      </trkpt>
      <trkpt lat="44.33129" lon="0.77118">
        <ele>96</ele>
        <time>2025-10-12T13:59:55.518Z</time>
      </trkpt>
      <trkpt lat="44.33128" lon="0.77116">
        <ele>96</ele>
        <time>2025-10-12T13:59:56.518Z</time>
      </trkpt>
      <trkpt lat="44.33127" lon="0.77115">
        <ele>97</ele>
        <time>2025-10-12T13:59:57.518Z</time>
      </trkpt>
      <trkpt lat="44.33126" lon="0.77113">
        <ele>97</ele>
        <time>2025-10-12T13:59:58.518Z</time>
      </trkpt>
      <trkpt lat="44.33126" lon="0.77112">
        <ele>97</ele>
        <time>2025-10-12T13:59:59.518Z</time>
      </trkpt>
      <trkpt lat="44.33125" lon="0.7711">
        <ele>96</ele>
        <time>2025-10-12T14:00:00.518Z</time>
      </trkpt>
      <trkpt lat="44.33124" lon="0.77108">
        <ele>96</ele>
        <time>2025-10-12T14:00:01.518Z</time>
      </trkpt>
      <trkpt lat="44.33123" lon="0.77107">
        <ele>96</ele>
        <time>2025-10-12T14:00:02.518Z</time>
      </trkpt>
      <trkpt lat="44.33122" lon="0.77105">
        <ele>95</ele>
        <time>2025-10-12T14:00:03.518Z</time>
      </trkpt>
      <trkpt lat="44.33121" lon="0.77104">
        <ele>95</ele>
        <time>2025-10-12T14:00:04.518Z</time>
      </trkpt>
      <trkpt lat="44.3312" lon="0.77102">
        <ele>95</ele>
        <time>2025-10-12T14:00:05.518Z</time>
      </trkpt>
      <trkpt lat="44.33119" lon="0.77101">
        <ele>95</ele>
        <time>2025-10-12T14:00:06.518Z</time>
      </trkpt>
      <trkpt lat="44.33119" lon="0.77099">
        <ele>94</ele>
        <time>2025-10-12T14:00:07.518Z</time>
      </trkpt>
      <trkpt lat="44.33118" lon="0.77098">
        <ele>94</ele>
        <time>2025-10-12T14:00:08.518Z</time>
      </trkpt>
      <trkpt lat="44.33118" lon="0.77096">
        <ele>93</ele>
        <time>2025-10-12T14:00:09.518Z</time>
      </trkpt>
      <trkpt lat="44.33117" lon="0.77095">
        <ele>92</ele>
        <time>2025-10-12T14:00:10.518Z</time>
      </trkpt>
      <trkpt lat="44.33117" lon="0.77093">
        <ele>92</ele>
        <time>2025-10-12T14:00:11.518Z</time>
      </trkpt>
      <trkpt lat="44.33116" lon="0.77092">
        <ele>91</ele>
        <time>2025-10-12T14:00:12.518Z</time>
      </trkpt>
      <trkpt lat="44.33115" lon="0.77091">
        <ele>91</ele>
        <time>2025-10-12T14:00:13.518Z</time>
      </trkpt>
      <trkpt lat="44.33114" lon="0.7709">
        <ele>91</ele>
        <time>2025-10-12T14:00:14.518Z</time>
      </trkpt>
      <trkpt lat="44.33114" lon="0.77089">
        <ele>90</ele>
        <time>2025-10-12T14:00:15.518Z</time>
      </trkpt>
      <trkpt lat="44.33113" lon="0.77087">
        <ele>90</ele>
        <time>2025-10-12T14:00:16.518Z</time>
      </trkpt>
      <trkpt lat="44.33112" lon="0.77086">
        <ele>90</ele>
        <time>2025-10-12T14:00:17.518Z</time>
      </trkpt>
      <trkpt lat="44.33111" lon="0.77085">
        <ele>89</ele>
        <time>2025-10-12T14:00:18.518Z</time>
      </trkpt>
      <trkpt lat="44.3311" lon="0.77084">
        <ele>89</ele>
        <time>2025-10-12T14:00:19.518Z</time>
      </trkpt>
      <trkpt lat="44.3311" lon="0.77083">
        <ele>89</ele>
        <time>2025-10-12T14:00:20.518Z</time>
      </trkpt>
      <trkpt lat="44.33109" lon="0.77081">
        <ele>89</ele>
        <time>2025-10-12T14:00:21.518Z</time>
      </trkpt>
      <trkpt lat="44.33108" lon="0.7708">
        <ele>89</ele>
        <time>2025-10-12T14:00:22.518Z</time>
      </trkpt>
      <trkpt lat="44.33107" lon="0.77079">
        <ele>88</ele>
        <time>2025-10-12T14:00:23.518Z</time>
      </trkpt>
      <trkpt lat="44.33106" lon="0.77077">
        <ele>88</ele>
        <time>2025-10-12T14:00:24.518Z</time>
      </trkpt>
      <trkpt lat="44.33105" lon="0.77076">
        <ele>88</ele>
        <time>2025-10-12T14:00:25.518Z</time>
      </trkpt>
      <trkpt lat="44.33104" lon="0.77075">
        <ele>89</ele>
        <time>2025-10-12T14:00:26.518Z</time>
      </trkpt>
      <trkpt lat="44.33103" lon="0.77073">
        <ele>89</ele>
        <time>2025-10-12T14:00:27.518Z</time>
      </trkpt>
      <trkpt lat="44.33102" lon="0.77072">
        <ele>89</ele>
        <time>2025-10-12T14:00:28.518Z</time>
      </trkpt>
      <trkpt lat="44.33101" lon="0.77071">
        <ele>89</ele>
        <time>2025-10-12T14:00:29.518Z</time>
      </trkpt>
      <trkpt lat="44.331" lon="0.7707">
        <ele>89</ele>
        <time>2025-10-12T14:00:30.518Z</time>
      </trkpt>
      <trkpt lat="44.33099" lon="0.77069">
        <ele>89</ele>
        <time>2025-10-12T14:00:31.518Z</time>
      </trkpt>
      <trkpt lat="44.33099" lon="0.77067">
        <ele>89</ele>
        <time>2025-10-12T14:00:32.518Z</time>
      </trkpt>
      <trkpt lat="44.33098" lon="0.77066">
        <ele>89</ele>
        <time>2025-10-12T14:00:33.518Z</time>
      </trkpt>
      <trkpt lat="44.33097" lon="0.77064">
        <ele>90</ele>
        <time>2025-10-12T14:00:34.518Z</time>
      </trkpt>
      <trkpt lat="44.33095" lon="0.77063">
        <ele>90</ele>
        <time>2025-10-12T14:00:35.518Z</time>
      </trkpt>
      <trkpt lat="44.33094" lon="0.77062">
        <ele>90</ele>
        <time>2025-10-12T14:00:36.518Z</time>
      </trkpt>
      <trkpt lat="44.33093" lon="0.77061">
        <ele>91</ele>
        <time>2025-10-12T14:00:37.518Z</time>
      </trkpt>
      <trkpt lat="44.33093" lon="0.77059">
        <ele>91</ele>
        <time>2025-10-12T14:00:38.518Z</time>
      </trkpt>
      <trkpt lat="44.33092" lon="0.77058">
        <ele>91</ele>
        <time>2025-10-12T14:00:39.518Z</time>
      </trkpt>
      <trkpt lat="44.33091" lon="0.77057">
        <ele>91</ele>
        <time>2025-10-12T14:00:40.518Z</time>
      </trkpt>
      <trkpt lat="44.33091" lon="0.77056">
        <ele>91</ele>
        <time>2025-10-12T14:00:41.518Z</time>
      </trkpt>
      <trkpt lat="44.3309" lon="0.77055">
        <ele>92</ele>
        <time>2025-10-12T14:00:42.518Z</time>
      </trkpt>
      <trkpt lat="44.33089" lon="0.77054">
        <ele>92</ele>
        <time>2025-10-12T14:00:43.518Z</time>
      </trkpt>
      <trkpt lat="44.33088" lon="0.77053">
        <ele>92</ele>
        <time>2025-10-12T14:00:44.518Z</time>
      </trkpt>
      <trkpt lat="44.33088" lon="0.77052">
        <ele>92</ele>
        <time>2025-10-12T14:00:45.518Z</time>
      </trkpt>
      <trkpt lat="44.33087" lon="0.77051">
        <ele>92</ele>
        <time>2025-10-12T14:00:46.518Z</time>
      </trkpt>
      <trkpt lat="44.33086" lon="0.77051">
        <ele>92</ele>
        <time>2025-10-12T14:00:47.518Z</time>
      </trkpt>
      <trkpt lat="44.33085" lon="0.7705">
        <ele>92</ele>
        <time>2025-10-12T14:00:48.518Z</time>
      </trkpt>
      <trkpt lat="44.33085" lon="0.7705">
        <ele>92</ele>
        <time>2025-10-12T14:00:49.518Z</time>
      </trkpt>
      <trkpt lat="44.33084" lon="0.77049">
        <ele>92</ele>
        <time>2025-10-12T14:00:50.518Z</time>
      </trkpt>
      <trkpt lat="44.33083" lon="0.77048">
        <ele>92</ele>
        <time>2025-10-12T14:00:51.518Z</time>
      </trkpt>
      <trkpt lat="44.33083" lon="0.77048">
        <ele>92</ele>
        <time>2025-10-12T14:00:52.518Z</time>
      </trkpt>
      <trkpt lat="44.33082" lon="0.77047">
        <ele>92</ele>
        <time>2025-10-12T14:00:53.518Z</time>
      </trkpt>
      <trkpt lat="44.33082" lon="0.77046">
        <ele>92</ele>
        <time>2025-10-12T14:00:54.518Z</time>
      </trkpt>
      <trkpt lat="44.33082" lon="0.77045">
        <ele>92</ele>
        <time>2025-10-12T14:00:55.518Z</time>
      </trkpt>
      <trkpt lat="44.33081" lon="0.77045">
        <ele>93</ele>
        <time>2025-10-12T14:00:56.518Z</time>
      </trkpt>
      <trkpt lat="44.33081" lon="0.77044">
        <ele>93</ele>
        <time>2025-10-12T14:00:57.518Z</time>
      </trkpt>
      <trkpt lat="44.33081" lon="0.77043">
        <ele>93</ele>
        <time>2025-10-12T14:00:58.518Z</time>
      </trkpt>
      <trkpt lat="44.33081" lon="0.77043">
        <ele>93</ele>
        <time>2025-10-12T14:00:59.518Z</time>
      </trkpt>
      <trkpt lat="44.33081" lon="0.77043">
        <ele>94</ele>
        <time>2025-10-12T14:01:00.518Z</time>
      </trkpt>
      <trkpt lat="44.33081" lon="0.77043">
        <ele>94</ele>
        <time>2025-10-12T14:01:01.518Z</time>
      </trkpt>
      <trkpt lat="44.33081" lon="0.77043">
        <ele>94</ele>
        <time>2025-10-12T14:01:02.518Z</time>
      </trkpt>
      <trkpt lat="44.33081" lon="0.77043">
        <ele>95</ele>
        <time>2025-10-12T14:01:03.518Z</time>
      </trkpt>
      <trkpt lat="44.33081" lon="0.77043">
        <ele>95</ele>
        <time>2025-10-12T14:01:04.518Z</time>
      </trkpt>
      <trkpt lat="44.33081" lon="0.77043">
        <ele>95</ele>
        <time>2025-10-12T14:01:05.518Z</time>
      </trkpt>
      <trkpt lat="44.33081" lon="0.77043">
        <ele>96</ele>
        <time>2025-10-12T14:01:06.518Z</time>
      </trkpt>
      <trkpt lat="44.33081" lon="0.77043">
        <ele>96</ele>
        <time>2025-10-12T14:01:07.518Z</time>
      </trkpt>
      <trkpt lat="44.33081" lon="0.77042">
        <ele>96</ele>
        <time>2025-10-12T14:01:08.518Z</time>
      </trkpt>
      <trkpt lat="44.33081" lon="0.77042">
        <ele>96</ele>
        <time>2025-10-12T14:01:09.518Z</time>
      </trkpt>
      <trkpt lat="44.3308" lon="0.77042">
        <ele>95</ele>
        <time>2025-10-12T14:01:10.518Z</time>
      </trkpt>
      <trkpt lat="44.3308" lon="0.77042">
        <ele>95</ele>
        <time>2025-10-12T14:01:11.518Z</time>
      </trkpt>
      <trkpt lat="44.3308" lon="0.77042">
        <ele>94</ele>
        <time>2025-10-12T14:01:12.518Z</time>
      </trkpt>
      <trkpt lat="44.3308" lon="0.77042">
        <ele>94</ele>
        <time>2025-10-12T14:01:13.518Z</time>
      </trkpt>
      <trkpt lat="44.3308" lon="0.77042">
        <ele>93</ele>
        <time>2025-10-12T14:01:14.518Z</time>
      </trkpt>
      <trkpt lat="44.3308" lon="0.77042">
        <ele>93</ele>
        <time>2025-10-12T14:01:15.518Z</time>
      </trkpt>
      <trkpt lat="44.3308" lon="0.77042">
        <ele>93</ele>
        <time>2025-10-12T14:01:16.518Z</time>
      </trkpt>
      <trkpt lat="44.3308" lon="0.77042">
        <ele>93</ele>
        <time>2025-10-12T14:01:17.518Z</time>
      </trkpt>
      <trkpt lat="44.3308" lon="0.77042">
        <ele>93</ele>
        <time>2025-10-12T14:01:18.518Z</time>
      </trkpt>
      <trkpt lat="44.3308" lon="0.77042">
        <ele>92</ele>
        <time>2025-10-12T14:01:19.518Z</time>
      </trkpt>
      <trkpt lat="44.3308" lon="0.77042">
        <ele>92</ele>
        <time>2025-10-12T14:01:20.518Z</time>
      </trkpt>
      <trkpt lat="44.3308" lon="0.77042">
        <ele>92</ele>
        <time>2025-10-12T14:01:21.518Z</time>
      </trkpt>
      <trkpt lat="44.3308" lon="0.77042">
        <ele>92</ele>
        <time>2025-10-12T14:01:22.518Z</time>
      </trkpt>
      <trkpt lat="44.3308" lon="0.77041">
        <ele>92</ele>
        <time>2025-10-12T14:01:23.518Z</time>
      </trkpt>
      <trkpt lat="44.3308" lon="0.77041">
        <ele>92</ele>
        <time>2025-10-12T14:01:24.518Z</time>
      </trkpt>
      <trkpt lat="44.33079" lon="0.77041">
        <ele>92</ele>
        <time>2025-10-12T14:01:25.518Z</time>
      </trkpt>
      <trkpt lat="44.33079" lon="0.7704">
        <ele>92</ele>
        <time>2025-10-12T14:01:26.518Z</time>
      </trkpt>
      <trkpt lat="44.33079" lon="0.7704">
        <ele>92</ele>
        <time>2025-10-12T14:01:27.518Z</time>
      </trkpt>
      <trkpt lat="44.33079" lon="0.7704">
        <ele>92</ele>
        <time>2025-10-12T14:01:28.518Z</time>
      </trkpt>
      <trkpt lat="44.33079" lon="0.7704">
        <ele>92</ele>
        <time>2025-10-12T14:01:29.518Z</time>
      </trkpt>
      <trkpt lat="44.33078" lon="0.7704">
        <ele>92</ele>
        <time>2025-10-12T14:01:30.518Z</time>
      </trkpt>
      <trkpt lat="44.33078" lon="0.77039">
        <ele>91</ele>
        <time>2025-10-12T14:01:31.518Z</time>
      </trkpt>
      <trkpt lat="44.33078" lon="0.77039">
        <ele>92</ele>
        <time>2025-10-12T14:01:32.518Z</time>
      </trkpt>
      <trkpt lat="44.33078" lon="0.77039">
        <ele>91</ele>
        <time>2025-10-12T14:01:33.518Z</time>
      </trkpt>
      <trkpt lat="44.33077" lon="0.77039">
        <ele>91</ele>
        <time>2025-10-12T14:01:34.518Z</time>
      </trkpt>
      <trkpt lat="44.33077" lon="0.77038">
        <ele>91</ele>
        <time>2025-10-12T14:01:35.518Z</time>
      </trkpt>
      <trkpt lat="44.33076" lon="0.77038">
        <ele>91</ele>
        <time>2025-10-12T14:01:36.518Z</time>
      </trkpt>
      <trkpt lat="44.33076" lon="0.77037">
        <ele>91</ele>
        <time>2025-10-12T14:01:37.518Z</time>
      </trkpt>
      <trkpt lat="44.33075" lon="0.77036">
        <ele>91</ele>
        <time>2025-10-12T14:01:38.518Z</time>
      </trkpt>
      <trkpt lat="44.33074" lon="0.77035">
        <ele>91</ele>
        <time>2025-10-12T14:01:39.518Z</time>
      </trkpt>
      <trkpt lat="44.33074" lon="0.77035">
        <ele>91</ele>
        <time>2025-10-12T14:01:40.518Z</time>
      </trkpt>
      <trkpt lat="44.33073" lon="0.77034">
        <ele>91</ele>
        <time>2025-10-12T14:01:41.518Z</time>
      </trkpt>
      <trkpt lat="44.33073" lon="0.77033">
        <ele>91</ele>
        <time>2025-10-12T14:01:42.518Z</time>
      </trkpt>
      <trkpt lat="44.33072" lon="0.77032">
        <ele>90</ele>
        <time>2025-10-12T14:01:43.518Z</time>
      </trkpt>
      <trkpt lat="44.33071" lon="0.77032">
        <ele>91</ele>
        <time>2025-10-12T14:01:44.518Z</time>
      </trkpt>
      <trkpt lat="44.33071" lon="0.77031">
        <ele>91</ele>
        <time>2025-10-12T14:01:45.518Z</time>
      </trkpt>
      <trkpt lat="44.33071" lon="0.7703">
        <ele>91</ele>
        <time>2025-10-12T14:01:46.518Z</time>
      </trkpt>
      <trkpt lat="44.3307" lon="0.7703">
        <ele>91</ele>
        <time>2025-10-12T14:01:47.518Z</time>
      </trkpt>
      <trkpt lat="44.3307" lon="0.77029">
        <ele>91</ele>
        <time>2025-10-12T14:01:48.518Z</time>
      </trkpt>
      <trkpt lat="44.3307" lon="0.77029">
        <ele>90</ele>
        <time>2025-10-12T14:01:49.518Z</time>
      </trkpt>
      <trkpt lat="44.33069" lon="0.77028">
        <ele>90</ele>
        <time>2025-10-12T14:01:50.518Z</time>
      </trkpt>
      <trkpt lat="44.33069" lon="0.77028">
        <ele>90</ele>
        <time>2025-10-12T14:01:51.518Z</time>
      </trkpt>
      <trkpt lat="44.33069" lon="0.77027">
        <ele>90</ele>
        <time>2025-10-12T14:01:52.518Z</time>
      </trkpt>
      <trkpt lat="44.33069" lon="0.77027">
        <ele>90</ele>
        <time>2025-10-12T14:01:53.518Z</time>
      </trkpt>
      <trkpt lat="44.33069" lon="0.77026">
        <ele>90</ele>
        <time>2025-10-12T14:01:54.518Z</time>
      </trkpt>
      <trkpt lat="44.33069" lon="0.77026">
        <ele>90</ele>
        <time>2025-10-12T14:01:55.518Z</time>
      </trkpt>
      <trkpt lat="44.33069" lon="0.77026">
        <ele>90</ele>
        <time>2025-10-12T14:01:56.518Z</time>
      </trkpt>
      <trkpt lat="44.33069" lon="0.77026">
        <ele>90</ele>
        <time>2025-10-12T14:01:57.518Z</time>
      </trkpt>
      <trkpt lat="44.33069" lon="0.77026">
        <ele>90</ele>
        <time>2025-10-12T14:01:58.518Z</time>
      </trkpt>
      <trkpt lat="44.33069" lon="0.77026">
        <ele>91</ele>
        <time>2025-10-12T14:01:59.518Z</time>
      </trkpt>
      <trkpt lat="44.33069" lon="0.77026">
        <ele>90</ele>
        <time>2025-10-12T14:02:00.518Z</time>
      </trkpt>
      <trkpt lat="44.33069" lon="0.77026">
        <ele>90</ele>
        <time>2025-10-12T14:02:01.518Z</time>
      </trkpt>
      <trkpt lat="44.33069" lon="0.77026">
        <ele>90</ele>
        <time>2025-10-12T14:02:02.518Z</time>
      </trkpt>
      <trkpt lat="44.33069" lon="0.77026">
        <ele>90</ele>
        <time>2025-10-12T14:02:03.518Z</time>
      </trkpt>
      <trkpt lat="44.33069" lon="0.77026">
        <ele>90</ele>
        <time>2025-10-12T14:02:04.518Z</time>
      </trkpt>
      <trkpt lat="44.33069" lon="0.77026">
        <ele>90</ele>
        <time>2025-10-12T14:02:05.518Z</time>
      </trkpt>
      <trkpt lat="44.33069" lon="0.77026">
        <ele>90</ele>
        <time>2025-10-12T14:02:06.518Z</time>
      </trkpt>
      <trkpt lat="44.33069" lon="0.77026">
        <ele>91</ele>
        <time>2025-10-12T14:02:07.518Z</time>
      </trkpt>
      <trkpt lat="44.33069" lon="0.77026">
        <ele>90</ele>
        <time>2025-10-12T14:02:08.518Z</time>
      </trkpt>
      <trkpt lat="44.33069" lon="0.77026">
        <ele>90</ele>
        <time>2025-10-12T14:02:09.518Z</time>
      </trkpt>
      <trkpt lat="44.33069" lon="0.77026">
        <ele>90</ele>
        <time>2025-10-12T14:02:10.518Z</time>
      </trkpt>
      <trkpt lat="44.33069" lon="0.77025">
        <ele>91</ele>
        <time>2025-10-12T14:02:11.518Z</time>
      </trkpt>
      <trkpt lat="44.33069" lon="0.77025">
        <ele>91</ele>
        <time>2025-10-12T14:02:12.518Z</time>
      </trkpt>
      <trkpt lat="44.33069" lon="0.77025">
        <ele>91</ele>
        <time>2025-10-12T14:02:13.518Z</time>
      </trkpt>
      <trkpt lat="44.33069" lon="0.77025">
        <ele>91</ele>
        <time>2025-10-12T14:02:14.518Z</time>
      </trkpt>
      <trkpt lat="44.33069" lon="0.77025">
        <ele>91</ele>
        <time>2025-10-12T14:02:15.518Z</time>
      </trkpt>
      <trkpt lat="44.33069" lon="0.77025">
        <ele>91</ele>
        <time>2025-10-12T14:02:16.518Z</time>
      </trkpt>
      <trkpt lat="44.33069" lon="0.77025">
        <ele>91</ele>
        <time>2025-10-12T14:02:17.518Z</time>
      </trkpt>
      <trkpt lat="44.33069" lon="0.77025">
        <ele>91</ele>
        <time>2025-10-12T14:02:18.518Z</time>
      </trkpt>
      <trkpt lat="44.33069" lon="0.77025">
        <ele>91</ele>
        <time>2025-10-12T14:02:19.518Z</time>
      </trkpt>
      <trkpt lat="44.33069" lon="0.77025">
        <ele>91</ele>
        <time>2025-10-12T14:02:20.518Z</time>
      </trkpt>
      <trkpt lat="44.33069" lon="0.77025">
        <ele>91</ele>
        <time>2025-10-12T14:02:21.518Z</time>
      </trkpt>
      <trkpt lat="44.33069" lon="0.77025">
        <ele>91</ele>
        <time>2025-10-12T14:02:22.518Z</time>
      </trkpt>
      <trkpt lat="44.33069" lon="0.77025">
        <ele>91</ele>
        <time>2025-10-12T14:02:23.518Z</time>
      </trkpt>
      <trkpt lat="44.33069" lon="0.77025">
        <ele>91</ele>
        <time>2025-10-12T14:02:24.518Z</time>
      </trkpt>
      <trkpt lat="44.33069" lon="0.77025">
        <ele>91</ele>
        <time>2025-10-12T14:02:25.518Z</time>
      </trkpt>
      <trkpt lat="44.33069" lon="0.77025">
        <ele>91</ele>
        <time>2025-10-12T14:02:26.518Z</time>
      </trkpt>
      <trkpt lat="44.33069" lon="0.77025">
        <ele>91</ele>
        <time>2025-10-12T14:02:27.518Z</time>
      </trkpt>
      <trkpt lat="44.33069" lon="0.77025">
        <ele>91</ele>
        <time>2025-10-12T14:02:28.518Z</time>
      </trkpt>
      <trkpt lat="44.33069" lon="0.77025">
        <ele>91</ele>
        <time>2025-10-12T14:02:29.518Z</time>
      </trkpt>
      <trkpt lat="44.33069" lon="0.77025">
        <ele>91</ele>
        <time>2025-10-12T14:02:30.518Z</time>
      </trkpt>
      <trkpt lat="44.33069" lon="0.77025">
        <ele>91</ele>
        <time>2025-10-12T14:02:31.518Z</time>
      </trkpt>
      <trkpt lat="44.33069" lon="0.77025">
        <ele>91</ele>
        <time>2025-10-12T14:02:32.518Z</time>
      </trkpt>
      <trkpt lat="44.33069" lon="0.77025">
        <ele>91</ele>
        <time>2025-10-12T14:02:33.518Z</time>
      </trkpt>
      <trkpt lat="44.33069" lon="0.77025">
        <ele>90</ele>
        <time>2025-10-12T14:02:34.518Z</time>
      </trkpt>
      <trkpt lat="44.33069" lon="0.77025">
        <ele>90</ele>
        <time>2025-10-12T14:02:35.518Z</time>
      </trkpt>
      <trkpt lat="44.33069" lon="0.77025">
        <ele>90</ele>
        <time>2025-10-12T14:02:36.518Z</time>
      </trkpt>
      <trkpt lat="44.33068" lon="0.77025">
        <ele>90</ele>
        <time>2025-10-12T14:02:37.518Z</time>
      </trkpt>
      <trkpt lat="44.33068" lon="0.77025">
        <ele>90</ele>
        <time>2025-10-12T14:02:38.518Z</time>
      </trkpt>
      <trkpt lat="44.33067" lon="0.77024">
        <ele>90</ele>
        <time>2025-10-12T14:02:39.518Z</time>
      </trkpt>
      <trkpt lat="44.33066" lon="0.77023">
        <ele>90</ele>
        <time>2025-10-12T14:02:40.518Z</time>
      </trkpt>
      <trkpt lat="44.33064" lon="0.77022">
        <ele>90</ele>
        <time>2025-10-12T14:02:41.518Z</time>
      </trkpt>
      <trkpt lat="44.33063" lon="0.77021">
        <ele>90</ele>
        <time>2025-10-12T14:02:42.518Z</time>
      </trkpt>
      <trkpt lat="44.33062" lon="0.7702">
        <ele>90</ele>
        <time>2025-10-12T14:02:43.518Z</time>
      </trkpt>
      <trkpt lat="44.33061" lon="0.77019">
        <ele>90</ele>
        <time>2025-10-12T14:02:44.518Z</time>
      </trkpt>
      <trkpt lat="44.3306" lon="0.77018">
        <ele>90</ele>
        <time>2025-10-12T14:02:45.518Z</time>
      </trkpt>
      <trkpt lat="44.33059" lon="0.77017">
        <ele>90</ele>
        <time>2025-10-12T14:02:46.518Z</time>
      </trkpt>
      <trkpt lat="44.33058" lon="0.77016">
        <ele>90</ele>
        <time>2025-10-12T14:02:47.518Z</time>
      </trkpt>
      <trkpt lat="44.33057" lon="0.77015">
        <ele>90</ele>
        <time>2025-10-12T14:02:48.518Z</time>
      </trkpt>
      <trkpt lat="44.33057" lon="0.77014">
        <ele>90</ele>
        <time>2025-10-12T14:02:49.518Z</time>
      </trkpt>
      <trkpt lat="44.33056" lon="0.77013">
        <ele>90</ele>
        <time>2025-10-12T14:02:50.518Z</time>
      </trkpt>
      <trkpt lat="44.33055" lon="0.77011">
        <ele>90</ele>
        <time>2025-10-12T14:02:51.518Z</time>
      </trkpt>
      <trkpt lat="44.33054" lon="0.7701">
        <ele>89</ele>
        <time>2025-10-12T14:02:52.518Z</time>
      </trkpt>
      <trkpt lat="44.33053" lon="0.77009">
        <ele>89</ele>
        <time>2025-10-12T14:02:53.518Z</time>
      </trkpt>
      <trkpt lat="44.33051" lon="0.77007">
        <ele>90</ele>
        <time>2025-10-12T14:02:54.518Z</time>
      </trkpt>
      <trkpt lat="44.3305" lon="0.77006">
        <ele>90</ele>
        <time>2025-10-12T14:02:55.518Z</time>
      </trkpt>
      <trkpt lat="44.33049" lon="0.77005">
        <ele>90</ele>
        <time>2025-10-12T14:02:56.518Z</time>
      </trkpt>
      <trkpt lat="44.33048" lon="0.77004">
        <ele>90</ele>
        <time>2025-10-12T14:02:57.518Z</time>
      </trkpt>
      <trkpt lat="44.33047" lon="0.77003">
        <ele>90</ele>
        <time>2025-10-12T14:02:58.518Z</time>
      </trkpt>
      <trkpt lat="44.33046" lon="0.77002">
        <ele>90</ele>
        <time>2025-10-12T14:02:59.518Z</time>
      </trkpt>
      <trkpt lat="44.33045" lon="0.77002">
        <ele>90</ele>
        <time>2025-10-12T14:03:00.518Z</time>
      </trkpt>
      <trkpt lat="44.33044" lon="0.77001">
        <ele>90</ele>
        <time>2025-10-12T14:03:01.518Z</time>
      </trkpt>
      <trkpt lat="44.33043" lon="0.77">
        <ele>90</ele>
        <time>2025-10-12T14:03:02.518Z</time>
      </trkpt>
      <trkpt lat="44.33042" lon="0.76999">
        <ele>90</ele>
        <time>2025-10-12T14:03:03.518Z</time>
      </trkpt>
      <trkpt lat="44.33041" lon="0.76999">
        <ele>90</ele>
        <time>2025-10-12T14:03:04.518Z</time>
      </trkpt>
      <trkpt lat="44.3304" lon="0.76998">
        <ele>90</ele>
        <time>2025-10-12T14:03:05.518Z</time>
      </trkpt>
      <trkpt lat="44.33038" lon="0.76996">
        <ele>90</ele>
        <time>2025-10-12T14:03:06.518Z</time>
      </trkpt>
      <trkpt lat="44.33037" lon="0.76996">
        <ele>90</ele>
        <time>2025-10-12T14:03:07.518Z</time>
      </trkpt>
      <trkpt lat="44.33036" lon="0.76995">
        <ele>90</ele>
        <time>2025-10-12T14:03:08.518Z</time>
      </trkpt>
      <trkpt lat="44.33036" lon="0.76994">
        <ele>90</ele>
        <time>2025-10-12T14:03:09.518Z</time>
      </trkpt>
      <trkpt lat="44.33035" lon="0.76992">
        <ele>89</ele>
        <time>2025-10-12T14:03:10.518Z</time>
      </trkpt>
      <trkpt lat="44.33034" lon="0.76991">
        <ele>89</ele>
        <time>2025-10-12T14:03:11.518Z</time>
      </trkpt>
      <trkpt lat="44.33033" lon="0.7699">
        <ele>89</ele>
        <time>2025-10-12T14:03:12.518Z</time>
      </trkpt>
      <trkpt lat="44.33032" lon="0.76989">
        <ele>89</ele>
        <time>2025-10-12T14:03:13.518Z</time>
      </trkpt>
      <trkpt lat="44.33031" lon="0.76988">
        <ele>89</ele>
        <time>2025-10-12T14:03:14.518Z</time>
      </trkpt>
      <trkpt lat="44.3303" lon="0.76987">
        <ele>89</ele>
        <time>2025-10-12T14:03:15.518Z</time>
      </trkpt>
      <trkpt lat="44.33029" lon="0.76987">
        <ele>89</ele>
        <time>2025-10-12T14:03:16.518Z</time>
      </trkpt>
      <trkpt lat="44.33027" lon="0.76986">
        <ele>89</ele>
        <time>2025-10-12T14:03:17.518Z</time>
      </trkpt>
      <trkpt lat="44.33026" lon="0.76985">
        <ele>90</ele>
        <time>2025-10-12T14:03:18.518Z</time>
      </trkpt>
      <trkpt lat="44.33025" lon="0.76984">
        <ele>90</ele>
        <time>2025-10-12T14:03:19.518Z</time>
      </trkpt>
      <trkpt lat="44.33025" lon="0.76983">
        <ele>89</ele>
        <time>2025-10-12T14:03:20.518Z</time>
      </trkpt>
      <trkpt lat="44.33024" lon="0.76982">
        <ele>89</ele>
        <time>2025-10-12T14:03:21.518Z</time>
      </trkpt>
      <trkpt lat="44.33023" lon="0.76981">
        <ele>89</ele>
        <time>2025-10-12T14:03:22.518Z</time>
      </trkpt>
      <trkpt lat="44.33022" lon="0.76981">
        <ele>90</ele>
        <time>2025-10-12T14:03:23.518Z</time>
      </trkpt>
      <trkpt lat="44.33021" lon="0.7698">
        <ele>90</ele>
        <time>2025-10-12T14:03:24.518Z</time>
      </trkpt>
      <trkpt lat="44.3302" lon="0.76979">
        <ele>90</ele>
        <time>2025-10-12T14:03:25.518Z</time>
      </trkpt>
      <trkpt lat="44.33019" lon="0.76978">
        <ele>90</ele>
        <time>2025-10-12T14:03:26.518Z</time>
      </trkpt>
      <trkpt lat="44.33017" lon="0.76977">
        <ele>91</ele>
        <time>2025-10-12T14:03:27.518Z</time>
      </trkpt>
      <trkpt lat="44.33016" lon="0.76976">
        <ele>91</ele>
        <time>2025-10-12T14:03:28.518Z</time>
      </trkpt>
      <trkpt lat="44.33015" lon="0.76975">
        <ele>92</ele>
        <time>2025-10-12T14:03:29.518Z</time>
      </trkpt>
      <trkpt lat="44.33014" lon="0.76974">
        <ele>92</ele>
        <time>2025-10-12T14:03:30.518Z</time>
      </trkpt>
      <trkpt lat="44.33012" lon="0.76974">
        <ele>93</ele>
        <time>2025-10-12T14:03:31.518Z</time>
      </trkpt>
      <trkpt lat="44.33011" lon="0.76973">
        <ele>93</ele>
        <time>2025-10-12T14:03:32.518Z</time>
      </trkpt>
      <trkpt lat="44.3301" lon="0.76972">
        <ele>93</ele>
        <time>2025-10-12T14:03:33.518Z</time>
      </trkpt>
      <trkpt lat="44.33009" lon="0.76971">
        <ele>93</ele>
        <time>2025-10-12T14:03:34.518Z</time>
      </trkpt>
      <trkpt lat="44.33008" lon="0.7697">
        <ele>93</ele>
        <time>2025-10-12T14:03:35.518Z</time>
      </trkpt>
      <trkpt lat="44.33007" lon="0.76969">
        <ele>93</ele>
        <time>2025-10-12T14:03:36.518Z</time>
      </trkpt>
      <trkpt lat="44.33007" lon="0.76968">
        <ele>93</ele>
        <time>2025-10-12T14:03:37.518Z</time>
      </trkpt>
      <trkpt lat="44.33005" lon="0.76968">
        <ele>93</ele>
        <time>2025-10-12T14:03:38.518Z</time>
      </trkpt>
      <trkpt lat="44.33004" lon="0.76967">
        <ele>93</ele>
        <time>2025-10-12T14:03:39.518Z</time>
      </trkpt>
      <trkpt lat="44.33002" lon="0.76967">
        <ele>93</ele>
        <time>2025-10-12T14:03:40.518Z</time>
      </trkpt>
      <trkpt lat="44.33001" lon="0.76966">
        <ele>93</ele>
        <time>2025-10-12T14:03:41.518Z</time>
      </trkpt>
      <trkpt lat="44.32999" lon="0.76966">
        <ele>94</ele>
        <time>2025-10-12T14:03:42.518Z</time>
      </trkpt>
      <trkpt lat="44.32998" lon="0.76966">
        <ele>94</ele>
        <time>2025-10-12T14:03:43.518Z</time>
      </trkpt>
      <trkpt lat="44.32997" lon="0.76965">
        <ele>94</ele>
        <time>2025-10-12T14:03:44.518Z</time>
      </trkpt>
      <trkpt lat="44.32996" lon="0.76965">
        <ele>93</ele>
        <time>2025-10-12T14:03:45.518Z</time>
      </trkpt>
      <trkpt lat="44.32995" lon="0.76964">
        <ele>93</ele>
        <time>2025-10-12T14:03:46.518Z</time>
      </trkpt>
      <trkpt lat="44.32993" lon="0.76964">
        <ele>93</ele>
        <time>2025-10-12T14:03:47.518Z</time>
      </trkpt>
      <trkpt lat="44.32992" lon="0.76963">
        <ele>93</ele>
        <time>2025-10-12T14:03:48.518Z</time>
      </trkpt>
      <trkpt lat="44.32991" lon="0.76962">
        <ele>92</ele>
        <time>2025-10-12T14:03:49.518Z</time>
      </trkpt>
      <trkpt lat="44.3299" lon="0.76961">
        <ele>92</ele>
        <time>2025-10-12T14:03:50.518Z</time>
      </trkpt>
      <trkpt lat="44.32989" lon="0.7696">
        <ele>92</ele>
        <time>2025-10-12T14:03:51.518Z</time>
      </trkpt>
      <trkpt lat="44.32988" lon="0.76959">
        <ele>92</ele>
        <time>2025-10-12T14:03:52.518Z</time>
      </trkpt>
      <trkpt lat="44.32986" lon="0.76958">
        <ele>92</ele>
        <time>2025-10-12T14:03:53.518Z</time>
      </trkpt>
      <trkpt lat="44.32985" lon="0.76957">
        <ele>93</ele>
        <time>2025-10-12T14:03:54.518Z</time>
      </trkpt>
      <trkpt lat="44.32983" lon="0.76957">
        <ele>93</ele>
        <time>2025-10-12T14:03:55.518Z</time>
      </trkpt>
      <trkpt lat="44.32982" lon="0.76956">
        <ele>93</ele>
        <time>2025-10-12T14:03:56.518Z</time>
      </trkpt>
      <trkpt lat="44.3298" lon="0.76956">
        <ele>93</ele>
        <time>2025-10-12T14:03:57.518Z</time>
      </trkpt>
      <trkpt lat="44.32979" lon="0.76956">
        <ele>93</ele>
        <time>2025-10-12T14:03:58.518Z</time>
      </trkpt>
      <trkpt lat="44.32978" lon="0.76956">
        <ele>93</ele>
        <time>2025-10-12T14:03:59.518Z</time>
      </trkpt>
      <trkpt lat="44.32977" lon="0.76955">
        <ele>93</ele>
        <time>2025-10-12T14:04:00.518Z</time>
      </trkpt>
      <trkpt lat="44.32976" lon="0.76955">
        <ele>92</ele>
        <time>2025-10-12T14:04:01.518Z</time>
      </trkpt>
      <trkpt lat="44.32975" lon="0.76955">
        <ele>92</ele>
        <time>2025-10-12T14:04:02.518Z</time>
      </trkpt>
      <trkpt lat="44.32973" lon="0.76954">
        <ele>92</ele>
        <time>2025-10-12T14:04:03.518Z</time>
      </trkpt>
      <trkpt lat="44.32972" lon="0.76954">
        <ele>92</ele>
        <time>2025-10-12T14:04:04.518Z</time>
      </trkpt>
      <trkpt lat="44.32971" lon="0.76954">
        <ele>92</ele>
        <time>2025-10-12T14:04:05.518Z</time>
      </trkpt>
      <trkpt lat="44.32969" lon="0.76953">
        <ele>92</ele>
        <time>2025-10-12T14:04:06.518Z</time>
      </trkpt>
      <trkpt lat="44.32968" lon="0.76953">
        <ele>92</ele>
        <time>2025-10-12T14:04:07.518Z</time>
      </trkpt>
      <trkpt lat="44.32966" lon="0.76953">
        <ele>93</ele>
        <time>2025-10-12T14:04:08.518Z</time>
      </trkpt>
      <trkpt lat="44.32965" lon="0.76953">
        <ele>93</ele>
        <time>2025-10-12T14:04:09.518Z</time>
      </trkpt>
      <trkpt lat="44.32964" lon="0.76952">
        <ele>93</ele>
        <time>2025-10-12T14:04:10.518Z</time>
      </trkpt>
      <trkpt lat="44.32962" lon="0.76952">
        <ele>93</ele>
        <time>2025-10-12T14:04:11.518Z</time>
      </trkpt>
      <trkpt lat="44.32962" lon="0.76952">
        <ele>93</ele>
        <time>2025-10-12T14:04:12.518Z</time>
      </trkpt>
      <trkpt lat="44.32961" lon="0.76952">
        <ele>93</ele>
        <time>2025-10-12T14:04:13.518Z</time>
      </trkpt>
      <trkpt lat="44.32959" lon="0.76952">
        <ele>93</ele>
        <time>2025-10-12T14:04:14.518Z</time>
      </trkpt>
      <trkpt lat="44.32958" lon="0.76951">
        <ele>93</ele>
        <time>2025-10-12T14:04:15.518Z</time>
      </trkpt>
      <trkpt lat="44.32956" lon="0.76951">
        <ele>93</ele>
        <time>2025-10-12T14:04:16.518Z</time>
      </trkpt>
      <trkpt lat="44.32955" lon="0.76951">
        <ele>93</ele>
        <time>2025-10-12T14:04:17.518Z</time>
      </trkpt>
      <trkpt lat="44.32954" lon="0.76951">
        <ele>93</ele>
        <time>2025-10-12T14:04:18.518Z</time>
      </trkpt>
      <trkpt lat="44.32952" lon="0.76951">
        <ele>93</ele>
        <time>2025-10-12T14:04:19.518Z</time>
      </trkpt>
      <trkpt lat="44.32951" lon="0.7695">
        <ele>93</ele>
        <time>2025-10-12T14:04:20.518Z</time>
      </trkpt>
      <trkpt lat="44.32949" lon="0.76951">
        <ele>93</ele>
        <time>2025-10-12T14:04:21.518Z</time>
      </trkpt>
      <trkpt lat="44.32948" lon="0.76951">
        <ele>93</ele>
        <time>2025-10-12T14:04:22.518Z</time>
      </trkpt>
      <trkpt lat="44.32947" lon="0.76951">
        <ele>93</ele>
        <time>2025-10-12T14:04:23.518Z</time>
      </trkpt>
      <trkpt lat="44.32946" lon="0.76951">
        <ele>93</ele>
        <time>2025-10-12T14:04:24.518Z</time>
      </trkpt>
      <trkpt lat="44.32945" lon="0.7695">
        <ele>93</ele>
        <time>2025-10-12T14:04:25.518Z</time>
      </trkpt>
      <trkpt lat="44.32944" lon="0.7695">
        <ele>93</ele>
        <time>2025-10-12T14:04:26.518Z</time>
      </trkpt>
      <trkpt lat="44.32942" lon="0.7695">
        <ele>93</ele>
        <time>2025-10-12T14:04:27.518Z</time>
      </trkpt>
      <trkpt lat="44.32941" lon="0.76949">
        <ele>92</ele>
        <time>2025-10-12T14:04:28.518Z</time>
      </trkpt>
      <trkpt lat="44.32939" lon="0.76949">
        <ele>93</ele>
        <time>2025-10-12T14:04:29.518Z</time>
      </trkpt>
      <trkpt lat="44.32938" lon="0.76948">
        <ele>93</ele>
        <time>2025-10-12T14:04:30.518Z</time>
      </trkpt>
      <trkpt lat="44.32937" lon="0.76947">
        <ele>93</ele>
        <time>2025-10-12T14:04:31.518Z</time>
      </trkpt>
      <trkpt lat="44.32935" lon="0.76947">
        <ele>93</ele>
        <time>2025-10-12T14:04:32.518Z</time>
      </trkpt>
      <trkpt lat="44.32934" lon="0.76947">
        <ele>93</ele>
        <time>2025-10-12T14:04:33.518Z</time>
      </trkpt>
      <trkpt lat="44.32933" lon="0.76946">
        <ele>93</ele>
        <time>2025-10-12T14:04:34.518Z</time>
      </trkpt>
      <trkpt lat="44.32932" lon="0.76945">
        <ele>93</ele>
        <time>2025-10-12T14:04:35.518Z</time>
      </trkpt>
      <trkpt lat="44.32931" lon="0.76945">
        <ele>92</ele>
        <time>2025-10-12T14:04:36.518Z</time>
      </trkpt>
      <trkpt lat="44.32929" lon="0.76945">
        <ele>92</ele>
        <time>2025-10-12T14:04:37.518Z</time>
      </trkpt>
      <trkpt lat="44.32928" lon="0.76944">
        <ele>92</ele>
        <time>2025-10-12T14:04:38.518Z</time>
      </trkpt>
      <trkpt lat="44.32927" lon="0.76944">
        <ele>93</ele>
        <time>2025-10-12T14:04:39.518Z</time>
      </trkpt>
      <trkpt lat="44.32926" lon="0.76943">
        <ele>93</ele>
        <time>2025-10-12T14:04:40.518Z</time>
      </trkpt>
      <trkpt lat="44.32924" lon="0.76943">
        <ele>93</ele>
        <time>2025-10-12T14:04:41.518Z</time>
      </trkpt>
      <trkpt lat="44.32923" lon="0.76942">
        <ele>93</ele>
        <time>2025-10-12T14:04:42.518Z</time>
      </trkpt>
      <trkpt lat="44.32922" lon="0.76941">
        <ele>93</ele>
        <time>2025-10-12T14:04:43.518Z</time>
      </trkpt>
      <trkpt lat="44.3292" lon="0.76941">
        <ele>93</ele>
        <time>2025-10-12T14:04:44.518Z</time>
      </trkpt>
      <trkpt lat="44.32919" lon="0.7694">
        <ele>93</ele>
        <time>2025-10-12T14:04:45.518Z</time>
      </trkpt>
      <trkpt lat="44.32918" lon="0.7694">
        <ele>93</ele>
        <time>2025-10-12T14:04:46.518Z</time>
      </trkpt>
      <trkpt lat="44.32917" lon="0.7694">
        <ele>93</ele>
        <time>2025-10-12T14:04:47.518Z</time>
      </trkpt>
      <trkpt lat="44.32916" lon="0.76939">
        <ele>93</ele>
        <time>2025-10-12T14:04:48.518Z</time>
      </trkpt>
      <trkpt lat="44.32915" lon="0.76939">
        <ele>92</ele>
        <time>2025-10-12T14:04:49.518Z</time>
      </trkpt>
      <trkpt lat="44.32914" lon="0.76938">
        <ele>92</ele>
        <time>2025-10-12T14:04:50.518Z</time>
      </trkpt>
      <trkpt lat="44.32912" lon="0.76938">
        <ele>92</ele>
        <time>2025-10-12T14:04:51.518Z</time>
      </trkpt>
      <trkpt lat="44.32911" lon="0.76937">
        <ele>92</ele>
        <time>2025-10-12T14:04:52.518Z</time>
      </trkpt>
      <trkpt lat="44.3291" lon="0.76937">
        <ele>92</ele>
        <time>2025-10-12T14:04:53.518Z</time>
      </trkpt>
      <trkpt lat="44.32908" lon="0.76936">
        <ele>92</ele>
        <time>2025-10-12T14:04:54.518Z</time>
      </trkpt>
      <trkpt lat="44.32906" lon="0.76936">
        <ele>93</ele>
        <time>2025-10-12T14:04:55.518Z</time>
      </trkpt>
      <trkpt lat="44.32905" lon="0.76935">
        <ele>93</ele>
        <time>2025-10-12T14:04:56.518Z</time>
      </trkpt>
      <trkpt lat="44.32904" lon="0.76934">
        <ele>93</ele>
        <time>2025-10-12T14:04:57.518Z</time>
      </trkpt>
      <trkpt lat="44.32903" lon="0.76934">
        <ele>93</ele>
        <time>2025-10-12T14:04:58.518Z</time>
      </trkpt>
      <trkpt lat="44.32902" lon="0.76934">
        <ele>93</ele>
        <time>2025-10-12T14:04:59.518Z</time>
      </trkpt>
      <trkpt lat="44.32901" lon="0.76932">
        <ele>93</ele>
        <time>2025-10-12T14:05:00.518Z</time>
      </trkpt>
      <trkpt lat="44.329" lon="0.76932">
        <ele>93</ele>
        <time>2025-10-12T14:05:01.518Z</time>
      </trkpt>
      <trkpt lat="44.32898" lon="0.76931">
        <ele>93</ele>
        <time>2025-10-12T14:05:02.518Z</time>
      </trkpt>
      <trkpt lat="44.32897" lon="0.7693">
        <ele>92</ele>
        <time>2025-10-12T14:05:03.518Z</time>
      </trkpt>
      <trkpt lat="44.32896" lon="0.76929">
        <ele>92</ele>
        <time>2025-10-12T14:05:04.518Z</time>
      </trkpt>
      <trkpt lat="44.32895" lon="0.76929">
        <ele>92</ele>
        <time>2025-10-12T14:05:05.518Z</time>
      </trkpt>
      <trkpt lat="44.32893" lon="0.76928">
        <ele>91</ele>
        <time>2025-10-12T14:05:06.518Z</time>
      </trkpt>
      <trkpt lat="44.32892" lon="0.76927">
        <ele>91</ele>
        <time>2025-10-12T14:05:07.518Z</time>
      </trkpt>
      <trkpt lat="44.32891" lon="0.76927">
        <ele>91</ele>
        <time>2025-10-12T14:05:08.518Z</time>
      </trkpt>
      <trkpt lat="44.3289" lon="0.76926">
        <ele>91</ele>
        <time>2025-10-12T14:05:09.518Z</time>
      </trkpt>
      <trkpt lat="44.32888" lon="0.76926">
        <ele>91</ele>
        <time>2025-10-12T14:05:10.518Z</time>
      </trkpt>
      <trkpt lat="44.32887" lon="0.76926">
        <ele>91</ele>
        <time>2025-10-12T14:05:11.518Z</time>
      </trkpt>
      <trkpt lat="44.32886" lon="0.76926">
        <ele>91</ele>
        <time>2025-10-12T14:05:12.518Z</time>
      </trkpt>
      <trkpt lat="44.32885" lon="0.76925">
        <ele>92</ele>
        <time>2025-10-12T14:05:13.518Z</time>
      </trkpt>
      <trkpt lat="44.32883" lon="0.76924">
        <ele>92</ele>
        <time>2025-10-12T14:05:14.518Z</time>
      </trkpt>
      <trkpt lat="44.32882" lon="0.76923">
        <ele>92</ele>
        <time>2025-10-12T14:05:15.518Z</time>
      </trkpt>
      <trkpt lat="44.32881" lon="0.76923">
        <ele>93</ele>
        <time>2025-10-12T14:05:16.518Z</time>
      </trkpt>
      <trkpt lat="44.32879" lon="0.76922">
        <ele>92</ele>
        <time>2025-10-12T14:05:17.518Z</time>
      </trkpt>
      <trkpt lat="44.32878" lon="0.76922">
        <ele>93</ele>
        <time>2025-10-12T14:05:18.518Z</time>
      </trkpt>
      <trkpt lat="44.32877" lon="0.76921">
        <ele>93</ele>
        <time>2025-10-12T14:05:19.518Z</time>
      </trkpt>
      <trkpt lat="44.32876" lon="0.76921">
        <ele>93</ele>
        <time>2025-10-12T14:05:20.518Z</time>
      </trkpt>
      <trkpt lat="44.32874" lon="0.7692">
        <ele>93</ele>
        <time>2025-10-12T14:05:21.518Z</time>
      </trkpt>
      <trkpt lat="44.32873" lon="0.7692">
        <ele>93</ele>
        <time>2025-10-12T14:05:22.518Z</time>
      </trkpt>
      <trkpt lat="44.32872" lon="0.76919">
        <ele>93</ele>
        <time>2025-10-12T14:05:23.518Z</time>
      </trkpt>
      <trkpt lat="44.32871" lon="0.76919">
        <ele>93</ele>
        <time>2025-10-12T14:05:24.518Z</time>
      </trkpt>
      <trkpt lat="44.3287" lon="0.76919">
        <ele>93</ele>
        <time>2025-10-12T14:05:25.518Z</time>
      </trkpt>
      <trkpt lat="44.32868" lon="0.76918">
        <ele>93</ele>
        <time>2025-10-12T14:05:26.518Z</time>
      </trkpt>
      <trkpt lat="44.32866" lon="0.76918">
        <ele>93</ele>
        <time>2025-10-12T14:05:27.518Z</time>
      </trkpt>
      <trkpt lat="44.32865" lon="0.76918">
        <ele>94</ele>
        <time>2025-10-12T14:05:28.518Z</time>
      </trkpt>
      <trkpt lat="44.32864" lon="0.76917">
        <ele>94</ele>
        <time>2025-10-12T14:05:29.518Z</time>
      </trkpt>
      <trkpt lat="44.32862" lon="0.76917">
        <ele>93</ele>
        <time>2025-10-12T14:05:30.518Z</time>
      </trkpt>
      <trkpt lat="44.32861" lon="0.76916">
        <ele>93</ele>
        <time>2025-10-12T14:05:31.518Z</time>
      </trkpt>
      <trkpt lat="44.3286" lon="0.76916">
        <ele>93</ele>
        <time>2025-10-12T14:05:32.518Z</time>
      </trkpt>
      <trkpt lat="44.32859" lon="0.76915">
        <ele>93</ele>
        <time>2025-10-12T14:05:33.519Z</time>
      </trkpt>
      <trkpt lat="44.32858" lon="0.76914">
        <ele>93</ele>
        <time>2025-10-12T14:05:34.518Z</time>
      </trkpt>
      <trkpt lat="44.32857" lon="0.76914">
        <ele>93</ele>
        <time>2025-10-12T14:05:35.518Z</time>
      </trkpt>
      <trkpt lat="44.32855" lon="0.76913">
        <ele>93</ele>
        <time>2025-10-12T14:05:36.518Z</time>
      </trkpt>
      <trkpt lat="44.32854" lon="0.76913">
        <ele>93</ele>
        <time>2025-10-12T14:05:37.518Z</time>
      </trkpt>
      <trkpt lat="44.32852" lon="0.76912">
        <ele>93</ele>
        <time>2025-10-12T14:05:38.518Z</time>
      </trkpt>
      <trkpt lat="44.32851" lon="0.76911">
        <ele>93</ele>
        <time>2025-10-12T14:05:39.518Z</time>
      </trkpt>
      <trkpt lat="44.3285" lon="0.7691">
        <ele>93</ele>
        <time>2025-10-12T14:05:40.518Z</time>
      </trkpt>
      <trkpt lat="44.32849" lon="0.76909">
        <ele>93</ele>
        <time>2025-10-12T14:05:41.518Z</time>
      </trkpt>
      <trkpt lat="44.32848" lon="0.76909">
        <ele>92</ele>
        <time>2025-10-12T14:05:42.518Z</time>
      </trkpt>
      <trkpt lat="44.32846" lon="0.76908">
        <ele>92</ele>
        <time>2025-10-12T14:05:43.518Z</time>
      </trkpt>
      <trkpt lat="44.32845" lon="0.76908">
        <ele>92</ele>
        <time>2025-10-12T14:05:44.518Z</time>
      </trkpt>
      <trkpt lat="44.32844" lon="0.76908">
        <ele>93</ele>
        <time>2025-10-12T14:05:45.518Z</time>
      </trkpt>
      <trkpt lat="44.32843" lon="0.76907">
        <ele>93</ele>
        <time>2025-10-12T14:05:46.518Z</time>
      </trkpt>
      <trkpt lat="44.32842" lon="0.76907">
        <ele>93</ele>
        <time>2025-10-12T14:05:47.518Z</time>
      </trkpt>
      <trkpt lat="44.3284" lon="0.76906">
        <ele>93</ele>
        <time>2025-10-12T14:05:48.518Z</time>
      </trkpt>
      <trkpt lat="44.32839" lon="0.76905">
        <ele>94</ele>
        <time>2025-10-12T14:05:49.518Z</time>
      </trkpt>
      <trkpt lat="44.32838" lon="0.76905">
        <ele>94</ele>
        <time>2025-10-12T14:05:50.518Z</time>
      </trkpt>
      <trkpt lat="44.32836" lon="0.76904">
        <ele>94</ele>
        <time>2025-10-12T14:05:51.518Z</time>
      </trkpt>
      <trkpt lat="44.32835" lon="0.76903">
        <ele>94</ele>
        <time>2025-10-12T14:05:52.518Z</time>
      </trkpt>
      <trkpt lat="44.32834" lon="0.76902">
        <ele>94</ele>
        <time>2025-10-12T14:05:53.518Z</time>
      </trkpt>
      <trkpt lat="44.32832" lon="0.76902">
        <ele>95</ele>
        <time>2025-10-12T14:05:54.518Z</time>
      </trkpt>
      <trkpt lat="44.32831" lon="0.76901">
        <ele>95</ele>
        <time>2025-10-12T14:05:55.518Z</time>
      </trkpt>
      <trkpt lat="44.32829" lon="0.76901">
        <ele>95</ele>
        <time>2025-10-12T14:05:56.518Z</time>
      </trkpt>
      <trkpt lat="44.32828" lon="0.769">
        <ele>95</ele>
        <time>2025-10-12T14:05:57.518Z</time>
      </trkpt>
      <trkpt lat="44.32827" lon="0.769">
        <ele>95</ele>
        <time>2025-10-12T14:05:58.518Z</time>
      </trkpt>
      <trkpt lat="44.32826" lon="0.76899">
        <ele>95</ele>
        <time>2025-10-12T14:05:59.518Z</time>
      </trkpt>
      <trkpt lat="44.32825" lon="0.76899">
        <ele>95</ele>
        <time>2025-10-12T14:06:00.518Z</time>
      </trkpt>
      <trkpt lat="44.32824" lon="0.76899">
        <ele>95</ele>
        <time>2025-10-12T14:06:01.518Z</time>
      </trkpt>
      <trkpt lat="44.32823" lon="0.76898">
        <ele>95</ele>
        <time>2025-10-12T14:06:02.518Z</time>
      </trkpt>
      <trkpt lat="44.32821" lon="0.76897">
        <ele>95</ele>
        <time>2025-10-12T14:06:03.518Z</time>
      </trkpt>
      <trkpt lat="44.3282" lon="0.76897">
        <ele>95</ele>
        <time>2025-10-12T14:06:04.518Z</time>
      </trkpt>
      <trkpt lat="44.32818" lon="0.76896">
        <ele>95</ele>
        <time>2025-10-12T14:06:05.518Z</time>
      </trkpt>
      <trkpt lat="44.32817" lon="0.76895">
        <ele>95</ele>
        <time>2025-10-12T14:06:06.518Z</time>
      </trkpt>
      <trkpt lat="44.32816" lon="0.76894">
        <ele>95</ele>
        <time>2025-10-12T14:06:07.518Z</time>
      </trkpt>
      <trkpt lat="44.32814" lon="0.76893">
        <ele>95</ele>
        <time>2025-10-12T14:06:08.518Z</time>
      </trkpt>
      <trkpt lat="44.32813" lon="0.76893">
        <ele>95</ele>
        <time>2025-10-12T14:06:09.518Z</time>
      </trkpt>
      <trkpt lat="44.32812" lon="0.76892">
        <ele>95</ele>
        <time>2025-10-12T14:06:10.518Z</time>
      </trkpt>
      <trkpt lat="44.32811" lon="0.76891">
        <ele>95</ele>
        <time>2025-10-12T14:06:11.518Z</time>
      </trkpt>
      <trkpt lat="44.3281" lon="0.76891">
        <ele>95</ele>
        <time>2025-10-12T14:06:12.518Z</time>
      </trkpt>
      <trkpt lat="44.32809" lon="0.7689">
        <ele>95</ele>
        <time>2025-10-12T14:06:13.518Z</time>
      </trkpt>
      <trkpt lat="44.32807" lon="0.76889">
        <ele>95</ele>
        <time>2025-10-12T14:06:14.518Z</time>
      </trkpt>
      <trkpt lat="44.32806" lon="0.76888">
        <ele>95</ele>
        <time>2025-10-12T14:06:15.518Z</time>
      </trkpt>
      <trkpt lat="44.32805" lon="0.76887">
        <ele>95</ele>
        <time>2025-10-12T14:06:16.518Z</time>
      </trkpt>
      <trkpt lat="44.32804" lon="0.76886">
        <ele>95</ele>
        <time>2025-10-12T14:06:17.518Z</time>
      </trkpt>
      <trkpt lat="44.32803" lon="0.76885">
        <ele>95</ele>
        <time>2025-10-12T14:06:18.518Z</time>
      </trkpt>
      <trkpt lat="44.32801" lon="0.76884">
        <ele>95</ele>
        <time>2025-10-12T14:06:19.518Z</time>
      </trkpt>
      <trkpt lat="44.328" lon="0.76883">
        <ele>95</ele>
        <time>2025-10-12T14:06:20.518Z</time>
      </trkpt>
      <trkpt lat="44.32799" lon="0.76882">
        <ele>95</ele>
        <time>2025-10-12T14:06:21.518Z</time>
      </trkpt>
      <trkpt lat="44.32799" lon="0.76881">
        <ele>95</ele>
        <time>2025-10-12T14:06:22.518Z</time>
      </trkpt>
      <trkpt lat="44.32798" lon="0.7688">
        <ele>95</ele>
        <time>2025-10-12T14:06:23.518Z</time>
      </trkpt>
      <trkpt lat="44.32797" lon="0.76879">
        <ele>95</ele>
        <time>2025-10-12T14:06:24.518Z</time>
      </trkpt>
      <trkpt lat="44.32796" lon="0.76878">
        <ele>95</ele>
        <time>2025-10-12T14:06:25.518Z</time>
      </trkpt>
      <trkpt lat="44.32795" lon="0.76877">
        <ele>94</ele>
        <time>2025-10-12T14:06:26.518Z</time>
      </trkpt>
      <trkpt lat="44.32794" lon="0.76876">
        <ele>94</ele>
        <time>2025-10-12T14:06:27.518Z</time>
      </trkpt>
      <trkpt lat="44.32793" lon="0.76874">
        <ele>94</ele>
        <time>2025-10-12T14:06:28.518Z</time>
      </trkpt>
      <trkpt lat="44.32792" lon="0.76873">
        <ele>94</ele>
        <time>2025-10-12T14:06:29.518Z</time>
      </trkpt>
      <trkpt lat="44.3279" lon="0.76872">
        <ele>94</ele>
        <time>2025-10-12T14:06:30.518Z</time>
      </trkpt>
      <trkpt lat="44.32789" lon="0.76871">
        <ele>94</ele>
        <time>2025-10-12T14:06:31.518Z</time>
      </trkpt>
      <trkpt lat="44.32788" lon="0.76869">
        <ele>95</ele>
        <time>2025-10-12T14:06:32.518Z</time>
      </trkpt>
      <trkpt lat="44.32787" lon="0.76868">
        <ele>95</ele>
        <time>2025-10-12T14:06:33.518Z</time>
      </trkpt>
      <trkpt lat="44.32786" lon="0.76867">
        <ele>95</ele>
        <time>2025-10-12T14:06:34.518Z</time>
      </trkpt>
      <trkpt lat="44.32785" lon="0.76866">
        <ele>95</ele>
        <time>2025-10-12T14:06:35.518Z</time>
      </trkpt>
      <trkpt lat="44.32784" lon="0.76866">
        <ele>95</ele>
        <time>2025-10-12T14:06:36.518Z</time>
      </trkpt>
      <trkpt lat="44.32782" lon="0.76865">
        <ele>95</ele>
        <time>2025-10-12T14:06:37.518Z</time>
      </trkpt>
      <trkpt lat="44.32781" lon="0.76864">
        <ele>96</ele>
        <time>2025-10-12T14:06:38.518Z</time>
      </trkpt>
      <trkpt lat="44.3278" lon="0.76863">
        <ele>96</ele>
        <time>2025-10-12T14:06:39.518Z</time>
      </trkpt>
      <trkpt lat="44.3278" lon="0.76861">
        <ele>96</ele>
        <time>2025-10-12T14:06:40.518Z</time>
      </trkpt>
      <trkpt lat="44.32778" lon="0.7686">
        <ele>96</ele>
        <time>2025-10-12T14:06:41.518Z</time>
      </trkpt>
      <trkpt lat="44.32777" lon="0.76858">
        <ele>96</ele>
        <time>2025-10-12T14:06:42.518Z</time>
      </trkpt>
      <trkpt lat="44.32776" lon="0.76857">
        <ele>96</ele>
        <time>2025-10-12T14:06:43.518Z</time>
      </trkpt>
      <trkpt lat="44.32775" lon="0.76855">
        <ele>96</ele>
        <time>2025-10-12T14:06:44.518Z</time>
      </trkpt>
      <trkpt lat="44.32775" lon="0.76854">
        <ele>96</ele>
        <time>2025-10-12T14:06:45.518Z</time>
      </trkpt>
      <trkpt lat="44.32774" lon="0.76853">
        <ele>96</ele>
        <time>2025-10-12T14:06:46.518Z</time>
      </trkpt>
      <trkpt lat="44.32773" lon="0.76851">
        <ele>95</ele>
        <time>2025-10-12T14:06:47.519Z</time>
      </trkpt>
      <trkpt lat="44.32772" lon="0.7685">
        <ele>95</ele>
        <time>2025-10-12T14:06:48.518Z</time>
      </trkpt>
      <trkpt lat="44.32771" lon="0.76849">
        <ele>95</ele>
        <time>2025-10-12T14:06:49.518Z</time>
      </trkpt>
      <trkpt lat="44.3277" lon="0.76848">
        <ele>95</ele>
        <time>2025-10-12T14:06:50.518Z</time>
      </trkpt>
      <trkpt lat="44.32769" lon="0.76846">
        <ele>95</ele>
        <time>2025-10-12T14:06:51.518Z</time>
      </trkpt>
      <trkpt lat="44.32768" lon="0.76845">
        <ele>95</ele>
        <time>2025-10-12T14:06:52.518Z</time>
      </trkpt>
      <trkpt lat="44.32768" lon="0.76844">
        <ele>95</ele>
        <time>2025-10-12T14:06:53.518Z</time>
      </trkpt>
      <trkpt lat="44.32767" lon="0.76842">
        <ele>95</ele>
        <time>2025-10-12T14:06:54.518Z</time>
      </trkpt>
      <trkpt lat="44.32766" lon="0.76841">
        <ele>95</ele>
        <time>2025-10-12T14:06:55.518Z</time>
      </trkpt>
      <trkpt lat="44.32765" lon="0.7684">
        <ele>95</ele>
        <time>2025-10-12T14:06:56.518Z</time>
      </trkpt>
      <trkpt lat="44.32765" lon="0.76839">
        <ele>95</ele>
        <time>2025-10-12T14:06:57.518Z</time>
      </trkpt>
      <trkpt lat="44.32764" lon="0.76838">
        <ele>95</ele>
        <time>2025-10-12T14:06:58.518Z</time>
      </trkpt>
      <trkpt lat="44.32763" lon="0.76837">
        <ele>95</ele>
        <time>2025-10-12T14:06:59.518Z</time>
      </trkpt>
      <trkpt lat="44.32762" lon="0.76835">
        <ele>95</ele>
        <time>2025-10-12T14:07:00.518Z</time>
      </trkpt>
      <trkpt lat="44.32762" lon="0.76834">
        <ele>95</ele>
        <time>2025-10-12T14:07:01.518Z</time>
      </trkpt>
      <trkpt lat="44.32761" lon="0.76832">
        <ele>94</ele>
        <time>2025-10-12T14:07:02.518Z</time>
      </trkpt>
      <trkpt lat="44.32761" lon="0.76831">
        <ele>94</ele>
        <time>2025-10-12T14:07:03.518Z</time>
      </trkpt>
      <trkpt lat="44.3276" lon="0.76829">
        <ele>94</ele>
        <time>2025-10-12T14:07:04.518Z</time>
      </trkpt>
      <trkpt lat="44.32759" lon="0.76828">
        <ele>94</ele>
        <time>2025-10-12T14:07:05.518Z</time>
      </trkpt>
      <trkpt lat="44.32758" lon="0.76827">
        <ele>94</ele>
        <time>2025-10-12T14:07:06.518Z</time>
      </trkpt>
      <trkpt lat="44.32757" lon="0.76826">
        <ele>94</ele>
        <time>2025-10-12T14:07:07.518Z</time>
      </trkpt>
      <trkpt lat="44.32756" lon="0.76824">
        <ele>94</ele>
        <time>2025-10-12T14:07:08.518Z</time>
      </trkpt>
      <trkpt lat="44.32755" lon="0.76822">
        <ele>94</ele>
        <time>2025-10-12T14:07:09.518Z</time>
      </trkpt>
      <trkpt lat="44.32754" lon="0.7682">
        <ele>94</ele>
        <time>2025-10-12T14:07:10.518Z</time>
      </trkpt>
      <trkpt lat="44.32753" lon="0.76818">
        <ele>94</ele>
        <time>2025-10-12T14:07:11.518Z</time>
      </trkpt>
      <trkpt lat="44.32752" lon="0.76817">
        <ele>95</ele>
        <time>2025-10-12T14:07:12.518Z</time>
      </trkpt>
      <trkpt lat="44.32751" lon="0.76815">
        <ele>95</ele>
        <time>2025-10-12T14:07:13.518Z</time>
      </trkpt>
      <trkpt lat="44.3275" lon="0.76814">
        <ele>96</ele>
        <time>2025-10-12T14:07:14.518Z</time>
      </trkpt>
      <trkpt lat="44.32749" lon="0.76812">
        <ele>96</ele>
        <time>2025-10-12T14:07:15.518Z</time>
      </trkpt>
      <trkpt lat="44.32748" lon="0.76811">
        <ele>96</ele>
        <time>2025-10-12T14:07:16.518Z</time>
      </trkpt>
      <trkpt lat="44.32748" lon="0.76809">
        <ele>96</ele>
        <time>2025-10-12T14:07:17.518Z</time>
      </trkpt>
      <trkpt lat="44.32747" lon="0.76808">
        <ele>96</ele>
        <time>2025-10-12T14:07:18.518Z</time>
      </trkpt>
      <trkpt lat="44.32746" lon="0.76806">
        <ele>96</ele>
        <time>2025-10-12T14:07:19.518Z</time>
      </trkpt>
      <trkpt lat="44.32745" lon="0.76805">
        <ele>96</ele>
        <time>2025-10-12T14:07:20.518Z</time>
      </trkpt>
      <trkpt lat="44.32744" lon="0.76804">
        <ele>96</ele>
        <time>2025-10-12T14:07:21.518Z</time>
      </trkpt>
      <trkpt lat="44.32743" lon="0.76803">
        <ele>96</ele>
        <time>2025-10-12T14:07:22.518Z</time>
      </trkpt>
      <trkpt lat="44.32742" lon="0.76801">
        <ele>96</ele>
        <time>2025-10-12T14:07:23.518Z</time>
      </trkpt>
      <trkpt lat="44.32742" lon="0.768">
        <ele>96</ele>
        <time>2025-10-12T14:07:24.518Z</time>
      </trkpt>
      <trkpt lat="44.32741" lon="0.76799">
        <ele>96</ele>
        <time>2025-10-12T14:07:25.518Z</time>
      </trkpt>
      <trkpt lat="44.3274" lon="0.76797">
        <ele>96</ele>
        <time>2025-10-12T14:07:26.518Z</time>
      </trkpt>
      <trkpt lat="44.32739" lon="0.76796">
        <ele>96</ele>
        <time>2025-10-12T14:07:27.518Z</time>
      </trkpt>
      <trkpt lat="44.32738" lon="0.76794">
        <ele>96</ele>
        <time>2025-10-12T14:07:28.518Z</time>
      </trkpt>
      <trkpt lat="44.32737" lon="0.76792">
        <ele>96</ele>
        <time>2025-10-12T14:07:29.518Z</time>
      </trkpt>
      <trkpt lat="44.32736" lon="0.7679">
        <ele>96</ele>
        <time>2025-10-12T14:07:30.518Z</time>
      </trkpt>
      <trkpt lat="44.32735" lon="0.76788">
        <ele>96</ele>
        <time>2025-10-12T14:07:31.518Z</time>
      </trkpt>
      <trkpt lat="44.32735" lon="0.76786">
        <ele>95</ele>
        <time>2025-10-12T14:07:32.518Z</time>
      </trkpt>
      <trkpt lat="44.32734" lon="0.76785">
        <ele>95</ele>
        <time>2025-10-12T14:07:33.518Z</time>
      </trkpt>
      <trkpt lat="44.32733" lon="0.76783">
        <ele>95</ele>
        <time>2025-10-12T14:07:34.518Z</time>
      </trkpt>
      <trkpt lat="44.32732" lon="0.76782">
        <ele>94</ele>
        <time>2025-10-12T14:07:35.518Z</time>
      </trkpt>
      <trkpt lat="44.32732" lon="0.7678">
        <ele>94</ele>
        <time>2025-10-12T14:07:36.518Z</time>
      </trkpt>
      <trkpt lat="44.32731" lon="0.76779">
        <ele>94</ele>
        <time>2025-10-12T14:07:37.518Z</time>
      </trkpt>
      <trkpt lat="44.3273" lon="0.76778">
        <ele>93</ele>
        <time>2025-10-12T14:07:38.518Z</time>
      </trkpt>
      <trkpt lat="44.32729" lon="0.76777">
        <ele>94</ele>
        <time>2025-10-12T14:07:39.518Z</time>
      </trkpt>
      <trkpt lat="44.32728" lon="0.76775">
        <ele>94</ele>
        <time>2025-10-12T14:07:40.519Z</time>
      </trkpt>
      <trkpt lat="44.32727" lon="0.76774">
        <ele>94</ele>
        <time>2025-10-12T14:07:41.518Z</time>
      </trkpt>
      <trkpt lat="44.32726" lon="0.76772">
        <ele>94</ele>
        <time>2025-10-12T14:07:42.518Z</time>
      </trkpt>
      <trkpt lat="44.32725" lon="0.76771">
        <ele>94</ele>
        <time>2025-10-12T14:07:43.518Z</time>
      </trkpt>
      <trkpt lat="44.32725" lon="0.76769">
        <ele>94</ele>
        <time>2025-10-12T14:07:44.518Z</time>
      </trkpt>
      <trkpt lat="44.32724" lon="0.76768">
        <ele>94</ele>
        <time>2025-10-12T14:07:45.518Z</time>
      </trkpt>
      <trkpt lat="44.32723" lon="0.76766">
        <ele>94</ele>
        <time>2025-10-12T14:07:46.518Z</time>
      </trkpt>
      <trkpt lat="44.32722" lon="0.76765">
        <ele>95</ele>
        <time>2025-10-12T14:07:47.518Z</time>
      </trkpt>
      <trkpt lat="44.32721" lon="0.76763">
        <ele>95</ele>
        <time>2025-10-12T14:07:48.518Z</time>
      </trkpt>
      <trkpt lat="44.3272" lon="0.76762">
        <ele>95</ele>
        <time>2025-10-12T14:07:49.518Z</time>
      </trkpt>
      <trkpt lat="44.32719" lon="0.76762">
        <ele>96</ele>
        <time>2025-10-12T14:07:50.518Z</time>
      </trkpt>
      <trkpt lat="44.32719" lon="0.76761">
        <ele>96</ele>
        <time>2025-10-12T14:07:51.518Z</time>
      </trkpt>
      <trkpt lat="44.32718" lon="0.76759">
        <ele>96</ele>
        <time>2025-10-12T14:07:52.518Z</time>
      </trkpt>
      <trkpt lat="44.32717" lon="0.76758">
        <ele>96</ele>
        <time>2025-10-12T14:07:53.518Z</time>
      </trkpt>
      <trkpt lat="44.32716" lon="0.76756">
        <ele>96</ele>
        <time>2025-10-12T14:07:54.518Z</time>
      </trkpt>
      <trkpt lat="44.32715" lon="0.76755">
        <ele>96</ele>
        <time>2025-10-12T14:07:55.518Z</time>
      </trkpt>
      <trkpt lat="44.32715" lon="0.76753">
        <ele>96</ele>
        <time>2025-10-12T14:07:56.518Z</time>
      </trkpt>
      <trkpt lat="44.32714" lon="0.76752">
        <ele>96</ele>
        <time>2025-10-12T14:07:57.518Z</time>
      </trkpt>
      <trkpt lat="44.32713" lon="0.7675">
        <ele>96</ele>
        <time>2025-10-12T14:07:58.518Z</time>
      </trkpt>
      <trkpt lat="44.32713" lon="0.76749">
        <ele>96</ele>
        <time>2025-10-12T14:07:59.518Z</time>
      </trkpt>
      <trkpt lat="44.32712" lon="0.76748">
        <ele>96</ele>
        <time>2025-10-12T14:08:00.518Z</time>
      </trkpt>
      <trkpt lat="44.32711" lon="0.76746">
        <ele>96</ele>
        <time>2025-10-12T14:08:01.518Z</time>
      </trkpt>
      <trkpt lat="44.3271" lon="0.76745">
        <ele>96</ele>
        <time>2025-10-12T14:08:02.518Z</time>
      </trkpt>
      <trkpt lat="44.3271" lon="0.76744">
        <ele>96</ele>
        <time>2025-10-12T14:08:03.518Z</time>
      </trkpt>
      <trkpt lat="44.32709" lon="0.76742">
        <ele>96</ele>
        <time>2025-10-12T14:08:04.518Z</time>
      </trkpt>
      <trkpt lat="44.32708" lon="0.76741">
        <ele>95</ele>
        <time>2025-10-12T14:08:05.518Z</time>
      </trkpt>
      <trkpt lat="44.32707" lon="0.76739">
        <ele>95</ele>
        <time>2025-10-12T14:08:06.518Z</time>
      </trkpt>
      <trkpt lat="44.32706" lon="0.76737">
        <ele>95</ele>
        <time>2025-10-12T14:08:07.518Z</time>
      </trkpt>
      <trkpt lat="44.32706" lon="0.76736">
        <ele>95</ele>
        <time>2025-10-12T14:08:08.518Z</time>
      </trkpt>
      <trkpt lat="44.32705" lon="0.76734">
        <ele>95</ele>
        <time>2025-10-12T14:08:09.518Z</time>
      </trkpt>
      <trkpt lat="44.32704" lon="0.76733">
        <ele>95</ele>
        <time>2025-10-12T14:08:10.518Z</time>
      </trkpt>
      <trkpt lat="44.32703" lon="0.76732">
        <ele>95</ele>
        <time>2025-10-12T14:08:11.518Z</time>
      </trkpt>
      <trkpt lat="44.32703" lon="0.76731">
        <ele>95</ele>
        <time>2025-10-12T14:08:12.518Z</time>
      </trkpt>
      <trkpt lat="44.32702" lon="0.7673">
        <ele>95</ele>
        <time>2025-10-12T14:08:13.518Z</time>
      </trkpt>
      <trkpt lat="44.32701" lon="0.76728">
        <ele>95</ele>
        <time>2025-10-12T14:08:14.518Z</time>
      </trkpt>
      <trkpt lat="44.327" lon="0.76727">
        <ele>96</ele>
        <time>2025-10-12T14:08:15.518Z</time>
      </trkpt>
      <trkpt lat="44.32699" lon="0.76726">
        <ele>95</ele>
        <time>2025-10-12T14:08:16.518Z</time>
      </trkpt>
      <trkpt lat="44.32699" lon="0.76724">
        <ele>95</ele>
        <time>2025-10-12T14:08:17.518Z</time>
      </trkpt>
      <trkpt lat="44.32698" lon="0.76722">
        <ele>95</ele>
        <time>2025-10-12T14:08:18.518Z</time>
      </trkpt>
      <trkpt lat="44.32697" lon="0.76721">
        <ele>95</ele>
        <time>2025-10-12T14:08:19.518Z</time>
      </trkpt>
      <trkpt lat="44.32696" lon="0.76719">
        <ele>95</ele>
        <time>2025-10-12T14:08:20.518Z</time>
      </trkpt>
      <trkpt lat="44.32696" lon="0.76718">
        <ele>95</ele>
        <time>2025-10-12T14:08:21.518Z</time>
      </trkpt>
      <trkpt lat="44.32695" lon="0.76716">
        <ele>95</ele>
        <time>2025-10-12T14:08:22.518Z</time>
      </trkpt>
      <trkpt lat="44.32694" lon="0.76715">
        <ele>95</ele>
        <time>2025-10-12T14:08:23.518Z</time>
      </trkpt>
      <trkpt lat="44.32693" lon="0.76714">
        <ele>96</ele>
        <time>2025-10-12T14:08:24.518Z</time>
      </trkpt>
      <trkpt lat="44.32692" lon="0.76713">
        <ele>96</ele>
        <time>2025-10-12T14:08:25.518Z</time>
      </trkpt>
      <trkpt lat="44.32691" lon="0.76712">
        <ele>96</ele>
        <time>2025-10-12T14:08:26.518Z</time>
      </trkpt>
      <trkpt lat="44.32691" lon="0.7671">
        <ele>96</ele>
        <time>2025-10-12T14:08:27.518Z</time>
      </trkpt>
      <trkpt lat="44.3269" lon="0.76709">
        <ele>96</ele>
        <time>2025-10-12T14:08:28.518Z</time>
      </trkpt>
      <trkpt lat="44.32689" lon="0.76707">
        <ele>97</ele>
        <time>2025-10-12T14:08:29.518Z</time>
      </trkpt>
      <trkpt lat="44.32688" lon="0.76705">
        <ele>97</ele>
        <time>2025-10-12T14:08:30.518Z</time>
      </trkpt>
      <trkpt lat="44.32688" lon="0.76703">
        <ele>97</ele>
        <time>2025-10-12T14:08:31.518Z</time>
      </trkpt>
      <trkpt lat="44.32687" lon="0.76702">
        <ele>97</ele>
        <time>2025-10-12T14:08:32.518Z</time>
      </trkpt>
      <trkpt lat="44.32686" lon="0.76701">
        <ele>97</ele>
        <time>2025-10-12T14:08:33.518Z</time>
      </trkpt>
      <trkpt lat="44.32685" lon="0.767">
        <ele>97</ele>
        <time>2025-10-12T14:08:34.518Z</time>
      </trkpt>
      <trkpt lat="44.32685" lon="0.76699">
        <ele>97</ele>
        <time>2025-10-12T14:08:35.518Z</time>
      </trkpt>
      <trkpt lat="44.32684" lon="0.76698">
        <ele>97</ele>
        <time>2025-10-12T14:08:36.518Z</time>
      </trkpt>
      <trkpt lat="44.32683" lon="0.76697">
        <ele>97</ele>
        <time>2025-10-12T14:08:37.518Z</time>
      </trkpt>
      <trkpt lat="44.32682" lon="0.76695">
        <ele>97</ele>
        <time>2025-10-12T14:08:38.518Z</time>
      </trkpt>
      <trkpt lat="44.32681" lon="0.76694">
        <ele>97</ele>
        <time>2025-10-12T14:08:39.518Z</time>
      </trkpt>
      <trkpt lat="44.3268" lon="0.76692">
        <ele>97</ele>
        <time>2025-10-12T14:08:40.518Z</time>
      </trkpt>
      <trkpt lat="44.3268" lon="0.7669">
        <ele>97</ele>
        <time>2025-10-12T14:08:41.518Z</time>
      </trkpt>
      <trkpt lat="44.32679" lon="0.76689">
        <ele>96</ele>
        <time>2025-10-12T14:08:42.518Z</time>
      </trkpt>
      <trkpt lat="44.32678" lon="0.76688">
        <ele>96</ele>
        <time>2025-10-12T14:08:43.518Z</time>
      </trkpt>
      <trkpt lat="44.32677" lon="0.76687">
        <ele>96</ele>
        <time>2025-10-12T14:08:44.518Z</time>
      </trkpt>
      <trkpt lat="44.32676" lon="0.76686">
        <ele>96</ele>
        <time>2025-10-12T14:08:45.518Z</time>
      </trkpt>
      <trkpt lat="44.32676" lon="0.76684">
        <ele>96</ele>
        <time>2025-10-12T14:08:46.518Z</time>
      </trkpt>
      <trkpt lat="44.32675" lon="0.76683">
        <ele>95</ele>
        <time>2025-10-12T14:08:47.518Z</time>
      </trkpt>
      <trkpt lat="44.32674" lon="0.76681">
        <ele>95</ele>
        <time>2025-10-12T14:08:48.518Z</time>
      </trkpt>
      <trkpt lat="44.32673" lon="0.7668">
        <ele>95</ele>
        <time>2025-10-12T14:08:49.518Z</time>
      </trkpt>
      <trkpt lat="44.32673" lon="0.76678">
        <ele>95</ele>
        <time>2025-10-12T14:08:50.518Z</time>
      </trkpt>
      <trkpt lat="44.32672" lon="0.76677">
        <ele>95</ele>
        <time>2025-10-12T14:08:51.518Z</time>
      </trkpt>
      <trkpt lat="44.32671" lon="0.76675">
        <ele>95</ele>
        <time>2025-10-12T14:08:52.518Z</time>
      </trkpt>
      <trkpt lat="44.3267" lon="0.76674">
        <ele>95</ele>
        <time>2025-10-12T14:08:53.518Z</time>
      </trkpt>
      <trkpt lat="44.32669" lon="0.76672">
        <ele>95</ele>
        <time>2025-10-12T14:08:54.518Z</time>
      </trkpt>
      <trkpt lat="44.32669" lon="0.76671">
        <ele>96</ele>
        <time>2025-10-12T14:08:55.518Z</time>
      </trkpt>
      <trkpt lat="44.32668" lon="0.7667">
        <ele>96</ele>
        <time>2025-10-12T14:08:56.518Z</time>
      </trkpt>
      <trkpt lat="44.32668" lon="0.76669">
        <ele>96</ele>
        <time>2025-10-12T14:08:57.518Z</time>
      </trkpt>
      <trkpt lat="44.32667" lon="0.76667">
        <ele>96</ele>
        <time>2025-10-12T14:08:58.518Z</time>
      </trkpt>
      <trkpt lat="44.32666" lon="0.76666">
        <ele>96</ele>
        <time>2025-10-12T14:08:59.518Z</time>
      </trkpt>
      <trkpt lat="44.32666" lon="0.76664">
        <ele>96</ele>
        <time>2025-10-12T14:09:00.518Z</time>
      </trkpt>
      <trkpt lat="44.32665" lon="0.76663">
        <ele>96</ele>
        <time>2025-10-12T14:09:01.518Z</time>
      </trkpt>
      <trkpt lat="44.32664" lon="0.76661">
        <ele>96</ele>
        <time>2025-10-12T14:09:02.518Z</time>
      </trkpt>
      <trkpt lat="44.32663" lon="0.7666">
        <ele>96</ele>
        <time>2025-10-12T14:09:03.518Z</time>
      </trkpt>
      <trkpt lat="44.32662" lon="0.76659">
        <ele>95</ele>
        <time>2025-10-12T14:09:04.518Z</time>
      </trkpt>
      <trkpt lat="44.32662" lon="0.76658">
        <ele>95</ele>
        <time>2025-10-12T14:09:05.519Z</time>
      </trkpt>
      <trkpt lat="44.32661" lon="0.76657">
        <ele>95</ele>
        <time>2025-10-12T14:09:06.518Z</time>
      </trkpt>
      <trkpt lat="44.3266" lon="0.76656">
        <ele>95</ele>
        <time>2025-10-12T14:09:07.518Z</time>
      </trkpt>
      <trkpt lat="44.32659" lon="0.76655">
        <ele>95</ele>
        <time>2025-10-12T14:09:08.518Z</time>
      </trkpt>
      <trkpt lat="44.32658" lon="0.76653">
        <ele>95</ele>
        <time>2025-10-12T14:09:09.518Z</time>
      </trkpt>
      <trkpt lat="44.32657" lon="0.76652">
        <ele>95</ele>
        <time>2025-10-12T14:09:10.518Z</time>
      </trkpt>
      <trkpt lat="44.32656" lon="0.7665">
        <ele>95</ele>
        <time>2025-10-12T14:09:11.518Z</time>
      </trkpt>
      <trkpt lat="44.32655" lon="0.76648">
        <ele>96</ele>
        <time>2025-10-12T14:09:12.518Z</time>
      </trkpt>
      <trkpt lat="44.32654" lon="0.76647">
        <ele>96</ele>
        <time>2025-10-12T14:09:13.518Z</time>
      </trkpt>
      <trkpt lat="44.32653" lon="0.76645">
        <ele>96</ele>
        <time>2025-10-12T14:09:14.518Z</time>
      </trkpt>
      <trkpt lat="44.32653" lon="0.76644">
        <ele>96</ele>
        <time>2025-10-12T14:09:15.518Z</time>
      </trkpt>
      <trkpt lat="44.32652" lon="0.76643">
        <ele>96</ele>
        <time>2025-10-12T14:09:16.518Z</time>
      </trkpt>
      <trkpt lat="44.32651" lon="0.76642">
        <ele>96</ele>
        <time>2025-10-12T14:09:17.518Z</time>
      </trkpt>
      <trkpt lat="44.3265" lon="0.7664">
        <ele>96</ele>
        <time>2025-10-12T14:09:18.518Z</time>
      </trkpt>
      <trkpt lat="44.32649" lon="0.76639">
        <ele>96</ele>
        <time>2025-10-12T14:09:19.518Z</time>
      </trkpt>
      <trkpt lat="44.32649" lon="0.76637">
        <ele>96</ele>
        <time>2025-10-12T14:09:20.518Z</time>
      </trkpt>
      <trkpt lat="44.32648" lon="0.76636">
        <ele>96</ele>
        <time>2025-10-12T14:09:21.518Z</time>
      </trkpt>
      <trkpt lat="44.32647" lon="0.76634">
        <ele>96</ele>
        <time>2025-10-12T14:09:22.518Z</time>
      </trkpt>
      <trkpt lat="44.32646" lon="0.76632">
        <ele>96</ele>
        <time>2025-10-12T14:09:23.518Z</time>
      </trkpt>
      <trkpt lat="44.32645" lon="0.7663">
        <ele>96</ele>
        <time>2025-10-12T14:09:24.518Z</time>
      </trkpt>
      <trkpt lat="44.32644" lon="0.76629">
        <ele>96</ele>
        <time>2025-10-12T14:09:25.518Z</time>
      </trkpt>
      <trkpt lat="44.32643" lon="0.76627">
        <ele>96</ele>
        <time>2025-10-12T14:09:26.518Z</time>
      </trkpt>
      <trkpt lat="44.32643" lon="0.76626">
        <ele>96</ele>
        <time>2025-10-12T14:09:27.518Z</time>
      </trkpt>
      <trkpt lat="44.32642" lon="0.76625">
        <ele>96</ele>
        <time>2025-10-12T14:09:28.518Z</time>
      </trkpt>
      <trkpt lat="44.32641" lon="0.76624">
        <ele>95</ele>
        <time>2025-10-12T14:09:29.518Z</time>
      </trkpt>
      <trkpt lat="44.32641" lon="0.76622">
        <ele>95</ele>
        <time>2025-10-12T14:09:30.518Z</time>
      </trkpt>
      <trkpt lat="44.3264" lon="0.76621">
        <ele>94</ele>
        <time>2025-10-12T14:09:31.518Z</time>
      </trkpt>
      <trkpt lat="44.32639" lon="0.76619">
        <ele>94</ele>
        <time>2025-10-12T14:09:32.518Z</time>
      </trkpt>
      <trkpt lat="44.32638" lon="0.76618">
        <ele>95</ele>
        <time>2025-10-12T14:09:33.518Z</time>
      </trkpt>
      <trkpt lat="44.32637" lon="0.76616">
        <ele>95</ele>
        <time>2025-10-12T14:09:34.518Z</time>
      </trkpt>
      <trkpt lat="44.32636" lon="0.76615">
        <ele>96</ele>
        <time>2025-10-12T14:09:35.518Z</time>
      </trkpt>
      <trkpt lat="44.32635" lon="0.76613">
        <ele>96</ele>
        <time>2025-10-12T14:09:36.518Z</time>
      </trkpt>
      <trkpt lat="44.32635" lon="0.76612">
        <ele>96</ele>
        <time>2025-10-12T14:09:37.518Z</time>
      </trkpt>
      <trkpt lat="44.32634" lon="0.76611">
        <ele>96</ele>
        <time>2025-10-12T14:09:38.518Z</time>
      </trkpt>
      <trkpt lat="44.32633" lon="0.76609">
        <ele>96</ele>
        <time>2025-10-12T14:09:39.518Z</time>
      </trkpt>
      <trkpt lat="44.32632" lon="0.76608">
        <ele>97</ele>
        <time>2025-10-12T14:09:40.518Z</time>
      </trkpt>
      <trkpt lat="44.32632" lon="0.76607">
        <ele>97</ele>
        <time>2025-10-12T14:09:41.518Z</time>
      </trkpt>
      <trkpt lat="44.32631" lon="0.76606">
        <ele>97</ele>
        <time>2025-10-12T14:09:42.518Z</time>
      </trkpt>
      <trkpt lat="44.3263" lon="0.76605">
        <ele>97</ele>
        <time>2025-10-12T14:09:43.518Z</time>
      </trkpt>
      <trkpt lat="44.3263" lon="0.76603">
        <ele>97</ele>
        <time>2025-10-12T14:09:44.518Z</time>
      </trkpt>
      <trkpt lat="44.32629" lon="0.76601">
        <ele>97</ele>
        <time>2025-10-12T14:09:45.518Z</time>
      </trkpt>
      <trkpt lat="44.32628" lon="0.766">
        <ele>97</ele>
        <time>2025-10-12T14:09:46.518Z</time>
      </trkpt>
      <trkpt lat="44.32627" lon="0.76598">
        <ele>97</ele>
        <time>2025-10-12T14:09:47.518Z</time>
      </trkpt>
      <trkpt lat="44.32627" lon="0.76597">
        <ele>97</ele>
        <time>2025-10-12T14:09:48.518Z</time>
      </trkpt>
      <trkpt lat="44.32626" lon="0.76596">
        <ele>97</ele>
        <time>2025-10-12T14:09:49.518Z</time>
      </trkpt>
      <trkpt lat="44.32625" lon="0.76595">
        <ele>97</ele>
        <time>2025-10-12T14:09:50.518Z</time>
      </trkpt>
      <trkpt lat="44.32624" lon="0.76593">
        <ele>98</ele>
        <time>2025-10-12T14:09:51.518Z</time>
      </trkpt>
      <trkpt lat="44.32623" lon="0.76592">
        <ele>98</ele>
        <time>2025-10-12T14:09:52.518Z</time>
      </trkpt>
      <trkpt lat="44.32622" lon="0.7659">
        <ele>98</ele>
        <time>2025-10-12T14:09:53.518Z</time>
      </trkpt>
      <trkpt lat="44.32622" lon="0.76589">
        <ele>97</ele>
        <time>2025-10-12T14:09:54.518Z</time>
      </trkpt>
      <trkpt lat="44.32621" lon="0.76587">
        <ele>97</ele>
        <time>2025-10-12T14:09:55.518Z</time>
      </trkpt>
      <trkpt lat="44.3262" lon="0.76586">
        <ele>97</ele>
        <time>2025-10-12T14:09:56.518Z</time>
      </trkpt>
      <trkpt lat="44.32619" lon="0.76584">
        <ele>97</ele>
        <time>2025-10-12T14:09:57.518Z</time>
      </trkpt>
      <trkpt lat="44.32618" lon="0.76583">
        <ele>97</ele>
        <time>2025-10-12T14:09:58.518Z</time>
      </trkpt>
      <trkpt lat="44.32618" lon="0.76582">
        <ele>96</ele>
        <time>2025-10-12T14:09:59.518Z</time>
      </trkpt>
      <trkpt lat="44.32617" lon="0.76581">
        <ele>96</ele>
        <time>2025-10-12T14:10:00.518Z</time>
      </trkpt>
      <trkpt lat="44.32616" lon="0.76579">
        <ele>96</ele>
        <time>2025-10-12T14:10:01.518Z</time>
      </trkpt>
      <trkpt lat="44.32616" lon="0.76578">
        <ele>95</ele>
        <time>2025-10-12T14:10:02.518Z</time>
      </trkpt>
      <trkpt lat="44.32615" lon="0.76576">
        <ele>95</ele>
        <time>2025-10-12T14:10:03.518Z</time>
      </trkpt>
      <trkpt lat="44.32614" lon="0.76575">
        <ele>95</ele>
        <time>2025-10-12T14:10:04.518Z</time>
      </trkpt>
      <trkpt lat="44.32613" lon="0.76573">
        <ele>95</ele>
        <time>2025-10-12T14:10:05.518Z</time>
      </trkpt>
      <trkpt lat="44.32613" lon="0.76572">
        <ele>95</ele>
        <time>2025-10-12T14:10:06.518Z</time>
      </trkpt>
      <trkpt lat="44.32612" lon="0.7657">
        <ele>95</ele>
        <time>2025-10-12T14:10:07.518Z</time>
      </trkpt>
      <trkpt lat="44.32611" lon="0.76569">
        <ele>95</ele>
        <time>2025-10-12T14:10:08.518Z</time>
      </trkpt>
      <trkpt lat="44.3261" lon="0.76568">
        <ele>95</ele>
        <time>2025-10-12T14:10:09.518Z</time>
      </trkpt>
      <trkpt lat="44.3261" lon="0.76566">
        <ele>96</ele>
        <time>2025-10-12T14:10:10.518Z</time>
      </trkpt>
      <trkpt lat="44.32609" lon="0.76565">
        <ele>96</ele>
        <time>2025-10-12T14:10:11.518Z</time>
      </trkpt>
      <trkpt lat="44.32608" lon="0.76563">
        <ele>95</ele>
        <time>2025-10-12T14:10:12.518Z</time>
      </trkpt>
      <trkpt lat="44.32608" lon="0.76562">
        <ele>95</ele>
        <time>2025-10-12T14:10:13.518Z</time>
      </trkpt>
      <trkpt lat="44.32607" lon="0.7656">
        <ele>95</ele>
        <time>2025-10-12T14:10:14.518Z</time>
      </trkpt>
      <trkpt lat="44.32606" lon="0.76558">
        <ele>95</ele>
        <time>2025-10-12T14:10:15.518Z</time>
      </trkpt>
      <trkpt lat="44.32606" lon="0.76557">
        <ele>95</ele>
        <time>2025-10-12T14:10:16.518Z</time>
      </trkpt>
      <trkpt lat="44.32605" lon="0.76556">
        <ele>95</ele>
        <time>2025-10-12T14:10:17.518Z</time>
      </trkpt>
      <trkpt lat="44.32604" lon="0.76554">
        <ele>95</ele>
        <time>2025-10-12T14:10:18.518Z</time>
      </trkpt>
      <trkpt lat="44.32604" lon="0.76553">
        <ele>95</ele>
        <time>2025-10-12T14:10:19.518Z</time>
      </trkpt>
      <trkpt lat="44.32603" lon="0.76551">
        <ele>95</ele>
        <time>2025-10-12T14:10:20.518Z</time>
      </trkpt>
      <trkpt lat="44.32603" lon="0.7655">
        <ele>95</ele>
        <time>2025-10-12T14:10:21.518Z</time>
      </trkpt>
      <trkpt lat="44.32602" lon="0.76549">
        <ele>95</ele>
        <time>2025-10-12T14:10:22.518Z</time>
      </trkpt>
      <trkpt lat="44.32601" lon="0.76547">
        <ele>95</ele>
        <time>2025-10-12T14:10:23.518Z</time>
      </trkpt>
      <trkpt lat="44.32601" lon="0.76545">
        <ele>95</ele>
        <time>2025-10-12T14:10:24.518Z</time>
      </trkpt>
      <trkpt lat="44.326" lon="0.76544">
        <ele>95</ele>
        <time>2025-10-12T14:10:25.518Z</time>
      </trkpt>
      <trkpt lat="44.32599" lon="0.76542">
        <ele>95</ele>
        <time>2025-10-12T14:10:26.518Z</time>
      </trkpt>
      <trkpt lat="44.32598" lon="0.7654">
        <ele>95</ele>
        <time>2025-10-12T14:10:27.518Z</time>
      </trkpt>
      <trkpt lat="44.32598" lon="0.76539">
        <ele>95</ele>
        <time>2025-10-12T14:10:28.518Z</time>
      </trkpt>
      <trkpt lat="44.32597" lon="0.76537">
        <ele>95</ele>
        <time>2025-10-12T14:10:29.518Z</time>
      </trkpt>
      <trkpt lat="44.32597" lon="0.76536">
        <ele>95</ele>
        <time>2025-10-12T14:10:30.518Z</time>
      </trkpt>
      <trkpt lat="44.32596" lon="0.76534">
        <ele>95</ele>
        <time>2025-10-12T14:10:31.518Z</time>
      </trkpt>
      <trkpt lat="44.32596" lon="0.76532">
        <ele>95</ele>
        <time>2025-10-12T14:10:32.518Z</time>
      </trkpt>
      <trkpt lat="44.32595" lon="0.76531">
        <ele>96</ele>
        <time>2025-10-12T14:10:33.518Z</time>
      </trkpt>
      <trkpt lat="44.32595" lon="0.76529">
        <ele>96</ele>
        <time>2025-10-12T14:10:34.518Z</time>
      </trkpt>
      <trkpt lat="44.32594" lon="0.76527">
        <ele>96</ele>
        <time>2025-10-12T14:10:35.518Z</time>
      </trkpt>
      <trkpt lat="44.32594" lon="0.76525">
        <ele>97</ele>
        <time>2025-10-12T14:10:36.518Z</time>
      </trkpt>
      <trkpt lat="44.32593" lon="0.76524">
        <ele>97</ele>
        <time>2025-10-12T14:10:37.518Z</time>
      </trkpt>
      <trkpt lat="44.32593" lon="0.76522">
        <ele>97</ele>
        <time>2025-10-12T14:10:38.518Z</time>
      </trkpt>
      <trkpt lat="44.32592" lon="0.76521">
        <ele>97</ele>
        <time>2025-10-12T14:10:39.518Z</time>
      </trkpt>
      <trkpt lat="44.32592" lon="0.7652">
        <ele>97</ele>
        <time>2025-10-12T14:10:40.518Z</time>
      </trkpt>
      <trkpt lat="44.32591" lon="0.76518">
        <ele>97</ele>
        <time>2025-10-12T14:10:41.518Z</time>
      </trkpt>
      <trkpt lat="44.32591" lon="0.76516">
        <ele>97</ele>
        <time>2025-10-12T14:10:42.518Z</time>
      </trkpt>
      <trkpt lat="44.32591" lon="0.76514">
        <ele>97</ele>
        <time>2025-10-12T14:10:43.518Z</time>
      </trkpt>
      <trkpt lat="44.3259" lon="0.76513">
        <ele>96</ele>
        <time>2025-10-12T14:10:44.518Z</time>
      </trkpt>
      <trkpt lat="44.3259" lon="0.76511">
        <ele>96</ele>
        <time>2025-10-12T14:10:45.518Z</time>
      </trkpt>
      <trkpt lat="44.32589" lon="0.76509">
        <ele>96</ele>
        <time>2025-10-12T14:10:46.518Z</time>
      </trkpt>
      <trkpt lat="44.32589" lon="0.76507">
        <ele>96</ele>
        <time>2025-10-12T14:10:47.518Z</time>
      </trkpt>
      <trkpt lat="44.32589" lon="0.76506">
        <ele>96</ele>
        <time>2025-10-12T14:10:48.518Z</time>
      </trkpt>
      <trkpt lat="44.32589" lon="0.76504">
        <ele>96</ele>
        <time>2025-10-12T14:10:49.518Z</time>
      </trkpt>
      <trkpt lat="44.32589" lon="0.76502">
        <ele>95</ele>
        <time>2025-10-12T14:10:50.518Z</time>
      </trkpt>
      <trkpt lat="44.32589" lon="0.765">
        <ele>95</ele>
        <time>2025-10-12T14:10:51.518Z</time>
      </trkpt>
      <trkpt lat="44.32588" lon="0.76499">
        <ele>95</ele>
        <time>2025-10-12T14:10:52.518Z</time>
      </trkpt>
      <trkpt lat="44.32588" lon="0.76497">
        <ele>96</ele>
        <time>2025-10-12T14:10:53.518Z</time>
      </trkpt>
      <trkpt lat="44.32588" lon="0.76495">
        <ele>96</ele>
        <time>2025-10-12T14:10:54.518Z</time>
      </trkpt>
      <trkpt lat="44.32588" lon="0.76493">
        <ele>96</ele>
        <time>2025-10-12T14:10:55.518Z</time>
      </trkpt>
      <trkpt lat="44.32587" lon="0.76492">
        <ele>96</ele>
        <time>2025-10-12T14:10:56.518Z</time>
      </trkpt>
      <trkpt lat="44.32587" lon="0.7649">
        <ele>96</ele>
        <time>2025-10-12T14:10:57.518Z</time>
      </trkpt>
      <trkpt lat="44.32587" lon="0.76489">
        <ele>97</ele>
        <time>2025-10-12T14:10:58.518Z</time>
      </trkpt>
      <trkpt lat="44.32587" lon="0.76487">
        <ele>97</ele>
        <time>2025-10-12T14:10:59.518Z</time>
      </trkpt>
      <trkpt lat="44.32587" lon="0.76485">
        <ele>98</ele>
        <time>2025-10-12T14:11:00.518Z</time>
      </trkpt>
      <trkpt lat="44.32587" lon="0.76483">
        <ele>98</ele>
        <time>2025-10-12T14:11:01.518Z</time>
      </trkpt>
      <trkpt lat="44.32586" lon="0.76482">
        <ele>98</ele>
        <time>2025-10-12T14:11:02.518Z</time>
      </trkpt>
      <trkpt lat="44.32586" lon="0.7648">
        <ele>99</ele>
        <time>2025-10-12T14:11:03.518Z</time>
      </trkpt>
      <trkpt lat="44.32586" lon="0.76478">
        <ele>99</ele>
        <time>2025-10-12T14:11:04.518Z</time>
      </trkpt>
      <trkpt lat="44.32586" lon="0.76476">
        <ele>98</ele>
        <time>2025-10-12T14:11:05.518Z</time>
      </trkpt>
      <trkpt lat="44.32586" lon="0.76474">
        <ele>98</ele>
        <time>2025-10-12T14:11:06.518Z</time>
      </trkpt>
      <trkpt lat="44.32586" lon="0.76473">
        <ele>98</ele>
        <time>2025-10-12T14:11:07.518Z</time>
      </trkpt>
      <trkpt lat="44.32586" lon="0.76471">
        <ele>97</ele>
        <time>2025-10-12T14:11:08.518Z</time>
      </trkpt>
      <trkpt lat="44.32586" lon="0.76469">
        <ele>97</ele>
        <time>2025-10-12T14:11:09.518Z</time>
      </trkpt>
      <trkpt lat="44.32586" lon="0.76467">
        <ele>97</ele>
        <time>2025-10-12T14:11:10.518Z</time>
      </trkpt>
      <trkpt lat="44.32586" lon="0.76465">
        <ele>97</ele>
        <time>2025-10-12T14:11:11.518Z</time>
      </trkpt>
      <trkpt lat="44.32586" lon="0.76463">
        <ele>97</ele>
        <time>2025-10-12T14:11:12.518Z</time>
      </trkpt>
      <trkpt lat="44.32586" lon="0.76462">
        <ele>96</ele>
        <time>2025-10-12T14:11:13.518Z</time>
      </trkpt>
      <trkpt lat="44.32587" lon="0.7646">
        <ele>96</ele>
        <time>2025-10-12T14:11:14.518Z</time>
      </trkpt>
      <trkpt lat="44.32586" lon="0.76458">
        <ele>96</ele>
        <time>2025-10-12T14:11:15.518Z</time>
      </trkpt>
      <trkpt lat="44.32586" lon="0.76457">
        <ele>97</ele>
        <time>2025-10-12T14:11:16.518Z</time>
      </trkpt>
      <trkpt lat="44.32586" lon="0.76455">
        <ele>97</ele>
        <time>2025-10-12T14:11:17.518Z</time>
      </trkpt>
      <trkpt lat="44.32586" lon="0.76453">
        <ele>98</ele>
        <time>2025-10-12T14:11:18.518Z</time>
      </trkpt>
      <trkpt lat="44.32586" lon="0.76451">
        <ele>98</ele>
        <time>2025-10-12T14:11:19.518Z</time>
      </trkpt>
      <trkpt lat="44.32587" lon="0.76449">
        <ele>98</ele>
        <time>2025-10-12T14:11:20.518Z</time>
      </trkpt>
      <trkpt lat="44.32587" lon="0.76447">
        <ele>99</ele>
        <time>2025-10-12T14:11:21.518Z</time>
      </trkpt>
      <trkpt lat="44.32587" lon="0.76445">
        <ele>99</ele>
        <time>2025-10-12T14:11:22.518Z</time>
      </trkpt>
      <trkpt lat="44.32587" lon="0.76444">
        <ele>99</ele>
        <time>2025-10-12T14:11:23.518Z</time>
      </trkpt>
      <trkpt lat="44.32588" lon="0.76442">
        <ele>100</ele>
        <time>2025-10-12T14:11:24.518Z</time>
      </trkpt>
      <trkpt lat="44.32588" lon="0.7644">
        <ele>100</ele>
        <time>2025-10-12T14:11:25.518Z</time>
      </trkpt>
      <trkpt lat="44.32588" lon="0.76439">
        <ele>101</ele>
        <time>2025-10-12T14:11:26.518Z</time>
      </trkpt>
      <trkpt lat="44.32588" lon="0.76437">
        <ele>101</ele>
        <time>2025-10-12T14:11:27.518Z</time>
      </trkpt>
      <trkpt lat="44.32588" lon="0.76435">
        <ele>101</ele>
        <time>2025-10-12T14:11:28.518Z</time>
      </trkpt>
      <trkpt lat="44.32588" lon="0.76433">
        <ele>102</ele>
        <time>2025-10-12T14:11:29.518Z</time>
      </trkpt>
      <trkpt lat="44.32588" lon="0.7643">
        <ele>102</ele>
        <time>2025-10-12T14:11:30.518Z</time>
      </trkpt>
      <trkpt lat="44.32589" lon="0.76429">
        <ele>102</ele>
        <time>2025-10-12T14:11:31.518Z</time>
      </trkpt>
      <trkpt lat="44.32589" lon="0.76427">
        <ele>103</ele>
        <time>2025-10-12T14:11:32.518Z</time>
      </trkpt>
      <trkpt lat="44.32589" lon="0.76425">
        <ele>102</ele>
        <time>2025-10-12T14:11:33.518Z</time>
      </trkpt>
      <trkpt lat="44.3259" lon="0.76424">
        <ele>102</ele>
        <time>2025-10-12T14:11:34.518Z</time>
      </trkpt>
      <trkpt lat="44.3259" lon="0.76422">
        <ele>102</ele>
        <time>2025-10-12T14:11:35.518Z</time>
      </trkpt>
      <trkpt lat="44.3259" lon="0.76421">
        <ele>102</ele>
        <time>2025-10-12T14:11:36.518Z</time>
      </trkpt>
      <trkpt lat="44.32591" lon="0.76419">
        <ele>102</ele>
        <time>2025-10-12T14:11:37.518Z</time>
      </trkpt>
      <trkpt lat="44.32591" lon="0.76417">
        <ele>101</ele>
        <time>2025-10-12T14:11:38.518Z</time>
      </trkpt>
      <trkpt lat="44.32592" lon="0.76416">
        <ele>101</ele>
        <time>2025-10-12T14:11:39.518Z</time>
      </trkpt>
      <trkpt lat="44.32592" lon="0.76414">
        <ele>101</ele>
        <time>2025-10-12T14:11:40.518Z</time>
      </trkpt>
      <trkpt lat="44.32593" lon="0.76412">
        <ele>101</ele>
        <time>2025-10-12T14:11:41.518Z</time>
      </trkpt>
      <trkpt lat="44.32593" lon="0.76411">
        <ele>101</ele>
        <time>2025-10-12T14:11:42.518Z</time>
      </trkpt>
      <trkpt lat="44.32593" lon="0.76409">
        <ele>101</ele>
        <time>2025-10-12T14:11:43.518Z</time>
      </trkpt>
      <trkpt lat="44.32593" lon="0.76407">
        <ele>101</ele>
        <time>2025-10-12T14:11:44.518Z</time>
      </trkpt>
      <trkpt lat="44.32593" lon="0.76405">
        <ele>101</ele>
        <time>2025-10-12T14:11:45.518Z</time>
      </trkpt>
      <trkpt lat="44.32594" lon="0.76404">
        <ele>101</ele>
        <time>2025-10-12T14:11:46.518Z</time>
      </trkpt>
      <trkpt lat="44.32594" lon="0.76402">
        <ele>102</ele>
        <time>2025-10-12T14:11:47.518Z</time>
      </trkpt>
      <trkpt lat="44.32595" lon="0.764">
        <ele>102</ele>
        <time>2025-10-12T14:11:48.518Z</time>
      </trkpt>
      <trkpt lat="44.32595" lon="0.76398">
        <ele>102</ele>
        <time>2025-10-12T14:11:49.518Z</time>
      </trkpt>
      <trkpt lat="44.32596" lon="0.76397">
        <ele>102</ele>
        <time>2025-10-12T14:11:50.518Z</time>
      </trkpt>
      <trkpt lat="44.32597" lon="0.76395">
        <ele>102</ele>
        <time>2025-10-12T14:11:51.518Z</time>
      </trkpt>
      <trkpt lat="44.32598" lon="0.76394">
        <ele>101</ele>
        <time>2025-10-12T14:11:52.518Z</time>
      </trkpt>
      <trkpt lat="44.32599" lon="0.76393">
        <ele>101</ele>
        <time>2025-10-12T14:11:53.518Z</time>
      </trkpt>
      <trkpt lat="44.32599" lon="0.76391">
        <ele>101</ele>
        <time>2025-10-12T14:11:54.518Z</time>
      </trkpt>
      <trkpt lat="44.326" lon="0.7639">
        <ele>101</ele>
        <time>2025-10-12T14:11:55.518Z</time>
      </trkpt>
      <trkpt lat="44.326" lon="0.76389">
        <ele>101</ele>
        <time>2025-10-12T14:11:56.518Z</time>
      </trkpt>
      <trkpt lat="44.32601" lon="0.76387">
        <ele>101</ele>
        <time>2025-10-12T14:11:57.518Z</time>
      </trkpt>
      <trkpt lat="44.32602" lon="0.76386">
        <ele>101</ele>
        <time>2025-10-12T14:11:58.518Z</time>
      </trkpt>
      <trkpt lat="44.32603" lon="0.76384">
        <ele>101</ele>
        <time>2025-10-12T14:11:59.518Z</time>
      </trkpt>
      <trkpt lat="44.32604" lon="0.76382">
        <ele>101</ele>
        <time>2025-10-12T14:12:00.518Z</time>
      </trkpt>
      <trkpt lat="44.32604" lon="0.7638">
        <ele>101</ele>
        <time>2025-10-12T14:12:01.518Z</time>
      </trkpt>
      <trkpt lat="44.32605" lon="0.76379">
        <ele>101</ele>
        <time>2025-10-12T14:12:02.518Z</time>
      </trkpt>
      <trkpt lat="44.32606" lon="0.76377">
        <ele>101</ele>
        <time>2025-10-12T14:12:03.518Z</time>
      </trkpt>
      <trkpt lat="44.32606" lon="0.76375">
        <ele>101</ele>
        <time>2025-10-12T14:12:04.518Z</time>
      </trkpt>
      <trkpt lat="44.32607" lon="0.76374">
        <ele>101</ele>
        <time>2025-10-12T14:12:05.518Z</time>
      </trkpt>
      <trkpt lat="44.32607" lon="0.76372">
        <ele>101</ele>
        <time>2025-10-12T14:12:06.518Z</time>
      </trkpt>
      <trkpt lat="44.32608" lon="0.7637">
        <ele>102</ele>
        <time>2025-10-12T14:12:07.518Z</time>
      </trkpt>
      <trkpt lat="44.32609" lon="0.76369">
        <ele>102</ele>
        <time>2025-10-12T14:12:08.518Z</time>
      </trkpt>
      <trkpt lat="44.3261" lon="0.76367">
        <ele>102</ele>
        <time>2025-10-12T14:12:09.518Z</time>
      </trkpt>
      <trkpt lat="44.32611" lon="0.76366">
        <ele>102</ele>
        <time>2025-10-12T14:12:10.518Z</time>
      </trkpt>
      <trkpt lat="44.32611" lon="0.76364">
        <ele>102</ele>
        <time>2025-10-12T14:12:11.518Z</time>
      </trkpt>
      <trkpt lat="44.32612" lon="0.76362">
        <ele>102</ele>
        <time>2025-10-12T14:12:12.518Z</time>
      </trkpt>
      <trkpt lat="44.32613" lon="0.76361">
        <ele>102</ele>
        <time>2025-10-12T14:12:13.518Z</time>
      </trkpt>
      <trkpt lat="44.32614" lon="0.76359">
        <ele>102</ele>
        <time>2025-10-12T14:12:14.518Z</time>
      </trkpt>
      <trkpt lat="44.32615" lon="0.76358">
        <ele>102</ele>
        <time>2025-10-12T14:12:15.518Z</time>
      </trkpt>
      <trkpt lat="44.32615" lon="0.76357">
        <ele>102</ele>
        <time>2025-10-12T14:12:16.518Z</time>
      </trkpt>
      <trkpt lat="44.32616" lon="0.76355">
        <ele>102</ele>
        <time>2025-10-12T14:12:17.518Z</time>
      </trkpt>
      <trkpt lat="44.32617" lon="0.76354">
        <ele>102</ele>
        <time>2025-10-12T14:12:18.518Z</time>
      </trkpt>
      <trkpt lat="44.32618" lon="0.76353">
        <ele>102</ele>
        <time>2025-10-12T14:12:19.518Z</time>
      </trkpt>
      <trkpt lat="44.32619" lon="0.76352">
        <ele>102</ele>
        <time>2025-10-12T14:12:20.518Z</time>
      </trkpt>
      <trkpt lat="44.3262" lon="0.7635">
        <ele>102</ele>
        <time>2025-10-12T14:12:21.518Z</time>
      </trkpt>
      <trkpt lat="44.3262" lon="0.76348">
        <ele>103</ele>
        <time>2025-10-12T14:12:22.518Z</time>
      </trkpt>
      <trkpt lat="44.32621" lon="0.76346">
        <ele>103</ele>
        <time>2025-10-12T14:12:23.518Z</time>
      </trkpt>
      <trkpt lat="44.32622" lon="0.76345">
        <ele>102</ele>
        <time>2025-10-12T14:12:24.518Z</time>
      </trkpt>
      <trkpt lat="44.32623" lon="0.76344">
        <ele>102</ele>
        <time>2025-10-12T14:12:25.518Z</time>
      </trkpt>
      <trkpt lat="44.32624" lon="0.76342">
        <ele>101</ele>
        <time>2025-10-12T14:12:26.518Z</time>
      </trkpt>
      <trkpt lat="44.32625" lon="0.76341">
        <ele>101</ele>
        <time>2025-10-12T14:12:27.518Z</time>
      </trkpt>
      <trkpt lat="44.32626" lon="0.76339">
        <ele>101</ele>
        <time>2025-10-12T14:12:28.518Z</time>
      </trkpt>
      <trkpt lat="44.32627" lon="0.76337">
        <ele>100</ele>
        <time>2025-10-12T14:12:29.518Z</time>
      </trkpt>
      <trkpt lat="44.32627" lon="0.76335">
        <ele>100</ele>
        <time>2025-10-12T14:12:30.518Z</time>
      </trkpt>
      <trkpt lat="44.32628" lon="0.76334">
        <ele>100</ele>
        <time>2025-10-12T14:12:31.518Z</time>
      </trkpt>
      <trkpt lat="44.32628" lon="0.76332">
        <ele>100</ele>
        <time>2025-10-12T14:12:32.518Z</time>
      </trkpt>
      <trkpt lat="44.32629" lon="0.7633">
        <ele>100</ele>
        <time>2025-10-12T14:12:33.518Z</time>
      </trkpt>
      <trkpt lat="44.3263" lon="0.76328">
        <ele>100</ele>
        <time>2025-10-12T14:12:34.518Z</time>
      </trkpt>
      <trkpt lat="44.3263" lon="0.76326">
        <ele>101</ele>
        <time>2025-10-12T14:12:35.518Z</time>
      </trkpt>
      <trkpt lat="44.32631" lon="0.76324">
        <ele>101</ele>
        <time>2025-10-12T14:12:36.518Z</time>
      </trkpt>
      <trkpt lat="44.32632" lon="0.76322">
        <ele>102</ele>
        <time>2025-10-12T14:12:37.518Z</time>
      </trkpt>
      <trkpt lat="44.32633" lon="0.76321">
        <ele>102</ele>
        <time>2025-10-12T14:12:38.518Z</time>
      </trkpt>
      <trkpt lat="44.32634" lon="0.7632">
        <ele>102</ele>
        <time>2025-10-12T14:12:39.518Z</time>
      </trkpt>
      <trkpt lat="44.32635" lon="0.76319">
        <ele>102</ele>
        <time>2025-10-12T14:12:40.518Z</time>
      </trkpt>
      <trkpt lat="44.32636" lon="0.76318">
        <ele>102</ele>
        <time>2025-10-12T14:12:41.518Z</time>
      </trkpt>
      <trkpt lat="44.32637" lon="0.76317">
        <ele>103</ele>
        <time>2025-10-12T14:12:42.518Z</time>
      </trkpt>
      <trkpt lat="44.32638" lon="0.76317">
        <ele>103</ele>
        <time>2025-10-12T14:12:43.518Z</time>
      </trkpt>
      <trkpt lat="44.3264" lon="0.76316">
        <ele>103</ele>
        <time>2025-10-12T14:12:44.518Z</time>
      </trkpt>
      <trkpt lat="44.3264" lon="0.76314">
        <ele>103</ele>
        <time>2025-10-12T14:12:45.518Z</time>
      </trkpt>
      <trkpt lat="44.32641" lon="0.76313">
        <ele>104</ele>
        <time>2025-10-12T14:12:46.518Z</time>
      </trkpt>
      <trkpt lat="44.32642" lon="0.76311">
        <ele>104</ele>
        <time>2025-10-12T14:12:47.518Z</time>
      </trkpt>
      <trkpt lat="44.32643" lon="0.7631">
        <ele>104</ele>
        <time>2025-10-12T14:12:48.518Z</time>
      </trkpt>
      <trkpt lat="44.32644" lon="0.76309">
        <ele>104</ele>
        <time>2025-10-12T14:12:49.518Z</time>
      </trkpt>
      <trkpt lat="44.32645" lon="0.76308">
        <ele>104</ele>
        <time>2025-10-12T14:12:50.518Z</time>
      </trkpt>
      <trkpt lat="44.32645" lon="0.76307">
        <ele>104</ele>
        <time>2025-10-12T14:12:51.518Z</time>
      </trkpt>
      <trkpt lat="44.32646" lon="0.76305">
        <ele>104</ele>
        <time>2025-10-12T14:12:52.518Z</time>
      </trkpt>
      <trkpt lat="44.32646" lon="0.76304">
        <ele>104</ele>
        <time>2025-10-12T14:12:53.518Z</time>
      </trkpt>
      <trkpt lat="44.32647" lon="0.76302">
        <ele>104</ele>
        <time>2025-10-12T14:12:54.518Z</time>
      </trkpt>
      <trkpt lat="44.32647" lon="0.76301">
        <ele>104</ele>
        <time>2025-10-12T14:12:55.518Z</time>
      </trkpt>
      <trkpt lat="44.32648" lon="0.763">
        <ele>104</ele>
        <time>2025-10-12T14:12:56.518Z</time>
      </trkpt>
      <trkpt lat="44.32649" lon="0.76299">
        <ele>104</ele>
        <time>2025-10-12T14:12:57.518Z</time>
      </trkpt>
      <trkpt lat="44.3265" lon="0.76297">
        <ele>104</ele>
        <time>2025-10-12T14:12:58.518Z</time>
      </trkpt>
      <trkpt lat="44.32652" lon="0.76296">
        <ele>104</ele>
        <time>2025-10-12T14:12:59.518Z</time>
      </trkpt>
      <trkpt lat="44.32653" lon="0.76294">
        <ele>104</ele>
        <time>2025-10-12T14:13:00.518Z</time>
      </trkpt>
      <trkpt lat="44.32654" lon="0.76293">
        <ele>104</ele>
        <time>2025-10-12T14:13:01.518Z</time>
      </trkpt>
      <trkpt lat="44.32655" lon="0.76292">
        <ele>104</ele>
        <time>2025-10-12T14:13:02.518Z</time>
      </trkpt>
      <trkpt lat="44.32655" lon="0.76292">
        <ele>104</ele>
        <time>2025-10-12T14:13:03.518Z</time>
      </trkpt>
      <trkpt lat="44.32656" lon="0.76291">
        <ele>104</ele>
        <time>2025-10-12T14:13:04.518Z</time>
      </trkpt>
      <trkpt lat="44.32656" lon="0.7629">
        <ele>103</ele>
        <time>2025-10-12T14:13:05.518Z</time>
      </trkpt>
      <trkpt lat="44.32657" lon="0.76289">
        <ele>103</ele>
        <time>2025-10-12T14:13:06.518Z</time>
      </trkpt>
      <trkpt lat="44.32657" lon="0.76289">
        <ele>103</ele>
        <time>2025-10-12T14:13:07.518Z</time>
      </trkpt>
      <trkpt lat="44.32657" lon="0.76288">
        <ele>104</ele>
        <time>2025-10-12T14:13:08.518Z</time>
      </trkpt>
      <trkpt lat="44.32657" lon="0.76288">
        <ele>104</ele>
        <time>2025-10-12T14:13:09.518Z</time>
      </trkpt>
      <trkpt lat="44.32657" lon="0.76288">
        <ele>104</ele>
        <time>2025-10-12T14:13:10.518Z</time>
      </trkpt>
      <trkpt lat="44.32657" lon="0.76288">
        <ele>105</ele>
        <time>2025-10-12T14:13:11.518Z</time>
      </trkpt>
      <trkpt lat="44.32657" lon="0.76288">
        <ele>105</ele>
        <time>2025-10-12T14:13:12.518Z</time>
      </trkpt>
      <trkpt lat="44.32657" lon="0.76288">
        <ele>105</ele>
        <time>2025-10-12T14:13:13.518Z</time>
      </trkpt>
      <trkpt lat="44.32657" lon="0.76288">
        <ele>106</ele>
        <time>2025-10-12T14:13:14.518Z</time>
      </trkpt>
      <trkpt lat="44.32657" lon="0.76288">
        <ele>106</ele>
        <time>2025-10-12T14:13:15.518Z</time>
      </trkpt>
      <trkpt lat="44.32657" lon="0.76288">
        <ele>106</ele>
        <time>2025-10-12T14:13:16.518Z</time>
      </trkpt>
      <trkpt lat="44.32658" lon="0.76288">
        <ele>106</ele>
        <time>2025-10-12T14:13:17.518Z</time>
      </trkpt>
      <trkpt lat="44.32658" lon="0.76288">
        <ele>106</ele>
        <time>2025-10-12T14:13:18.518Z</time>
      </trkpt>
      <trkpt lat="44.32658" lon="0.76288">
        <ele>106</ele>
        <time>2025-10-12T14:13:19.518Z</time>
      </trkpt>
      <trkpt lat="44.32658" lon="0.76288">
        <ele>106</ele>
        <time>2025-10-12T14:13:20.518Z</time>
      </trkpt>
      <trkpt lat="44.32658" lon="0.76288">
        <ele>106</ele>
        <time>2025-10-12T14:13:21.518Z</time>
      </trkpt>
      <trkpt lat="44.32658" lon="0.76288">
        <ele>106</ele>
        <time>2025-10-12T14:13:22.518Z</time>
      </trkpt>
      <trkpt lat="44.32658" lon="0.76288">
        <ele>106</ele>
        <time>2025-10-12T14:13:23.518Z</time>
      </trkpt>
      <trkpt lat="44.32658" lon="0.76289">
        <ele>106</ele>
        <time>2025-10-12T14:13:24.518Z</time>
      </trkpt>
      <trkpt lat="44.32658" lon="0.76289">
        <ele>106</ele>
        <time>2025-10-12T14:13:25.518Z</time>
      </trkpt>
      <trkpt lat="44.32658" lon="0.76289">
        <ele>106</ele>
        <time>2025-10-12T14:13:26.518Z</time>
      </trkpt>
      <trkpt lat="44.32658" lon="0.76289">
        <ele>105</ele>
        <time>2025-10-12T14:13:27.518Z</time>
      </trkpt>
      <trkpt lat="44.32659" lon="0.76289">
        <ele>105</ele>
        <time>2025-10-12T14:13:28.518Z</time>
      </trkpt>
      <trkpt lat="44.32659" lon="0.7629">
        <ele>105</ele>
        <time>2025-10-12T14:13:29.518Z</time>
      </trkpt>
      <trkpt lat="44.3266" lon="0.7629">
        <ele>104</ele>
        <time>2025-10-12T14:13:30.518Z</time>
      </trkpt>
      <trkpt lat="44.32661" lon="0.7629">
        <ele>104</ele>
        <time>2025-10-12T14:13:31.518Z</time>
      </trkpt>
      <trkpt lat="44.32661" lon="0.7629">
        <ele>104</ele>
        <time>2025-10-12T14:13:32.518Z</time>
      </trkpt>
      <trkpt lat="44.3266" lon="0.7629">
        <ele>104</ele>
        <time>2025-10-12T14:13:33.518Z</time>
      </trkpt>
      <trkpt lat="44.3266" lon="0.7629">
        <ele>104</ele>
        <time>2025-10-12T14:13:34.518Z</time>
      </trkpt>
      <trkpt lat="44.3266" lon="0.7629">
        <ele>104</ele>
        <time>2025-10-12T14:13:35.518Z</time>
      </trkpt>
      <trkpt lat="44.3266" lon="0.7629">
        <ele>104</ele>
        <time>2025-10-12T14:13:36.518Z</time>
      </trkpt>
      <trkpt lat="44.3266" lon="0.7629">
        <ele>104</ele>
        <time>2025-10-12T14:13:37.518Z</time>
      </trkpt>
      <trkpt lat="44.3266" lon="0.7629">
        <ele>105</ele>
        <time>2025-10-12T14:13:38.518Z</time>
      </trkpt>
      <trkpt lat="44.3266" lon="0.7629">
        <ele>105</ele>
        <time>2025-10-12T14:13:39.518Z</time>
      </trkpt>
      <trkpt lat="44.3266" lon="0.7629">
        <ele>105</ele>
        <time>2025-10-12T14:13:40.518Z</time>
      </trkpt>
      <trkpt lat="44.32661" lon="0.7629">
        <ele>105</ele>
        <time>2025-10-12T14:13:41.518Z</time>
      </trkpt>
      <trkpt lat="44.32661" lon="0.7629">
        <ele>105</ele>
        <time>2025-10-12T14:13:42.518Z</time>
      </trkpt>
      <trkpt lat="44.32661" lon="0.7629">
        <ele>105</ele>
        <time>2025-10-12T14:13:43.518Z</time>
      </trkpt>
      <trkpt lat="44.32661" lon="0.7629">
        <ele>105</ele>
        <time>2025-10-12T14:13:44.518Z</time>
      </trkpt>
      <trkpt lat="44.32661" lon="0.7629">
        <ele>105</ele>
        <time>2025-10-12T14:13:45.518Z</time>
      </trkpt>
      <trkpt lat="44.32661" lon="0.7629">
        <ele>105</ele>
        <time>2025-10-12T14:13:46.518Z</time>
      </trkpt>
      <trkpt lat="44.32661" lon="0.7629">
        <ele>106</ele>
        <time>2025-10-12T14:13:47.518Z</time>
      </trkpt>
      <trkpt lat="44.3266" lon="0.7629">
        <ele>106</ele>
        <time>2025-10-12T14:13:48.518Z</time>
      </trkpt>
      <trkpt lat="44.3266" lon="0.7629">
        <ele>106</ele>
        <time>2025-10-12T14:13:49.518Z</time>
      </trkpt>
      <trkpt lat="44.3266" lon="0.7629">
        <ele>106</ele>
        <time>2025-10-12T14:13:50.518Z</time>
      </trkpt>
      <trkpt lat="44.32661" lon="0.7629">
        <ele>106</ele>
        <time>2025-10-12T14:13:51.518Z</time>
      </trkpt>
      <trkpt lat="44.32661" lon="0.7629">
        <ele>106</ele>
        <time>2025-10-12T14:13:52.518Z</time>
      </trkpt>
      <trkpt lat="44.3266" lon="0.7629">
        <ele>106</ele>
        <time>2025-10-12T14:13:53.518Z</time>
      </trkpt>
      <trkpt lat="44.3266" lon="0.7629">
        <ele>106</ele>
        <time>2025-10-12T14:13:54.518Z</time>
      </trkpt>
      <trkpt lat="44.32661" lon="0.7629">
        <ele>106</ele>
        <time>2025-10-12T14:13:55.518Z</time>
      </trkpt>
      <trkpt lat="44.32661" lon="0.7629">
        <ele>106</ele>
        <time>2025-10-12T14:13:56.518Z</time>
      </trkpt>
      <trkpt lat="44.32661" lon="0.7629">
        <ele>106</ele>
        <time>2025-10-12T14:13:57.518Z</time>
      </trkpt>
      <trkpt lat="44.32661" lon="0.7629">
        <ele>106</ele>
        <time>2025-10-12T14:13:58.518Z</time>
      </trkpt>
      <trkpt lat="44.32661" lon="0.7629">
        <ele>106</ele>
        <time>2025-10-12T14:13:59.518Z</time>
      </trkpt>
      <trkpt lat="44.32661" lon="0.7629">
        <ele>106</ele>
        <time>2025-10-12T14:14:00.518Z</time>
      </trkpt>
      <trkpt lat="44.32661" lon="0.76291">
        <ele>107</ele>
        <time>2025-10-12T14:14:01.518Z</time>
      </trkpt>
      <trkpt lat="44.3266" lon="0.76292">
        <ele>107</ele>
        <time>2025-10-12T14:14:02.518Z</time>
      </trkpt>
      <trkpt lat="44.3266" lon="0.76292">
        <ele>107</ele>
        <time>2025-10-12T14:14:03.518Z</time>
      </trkpt>
      <trkpt lat="44.3266" lon="0.76292">
        <ele>107</ele>
        <time>2025-10-12T14:14:04.518Z</time>
      </trkpt>
      <trkpt lat="44.3266" lon="0.76292">
        <ele>107</ele>
        <time>2025-10-12T14:14:05.518Z</time>
      </trkpt>
      <trkpt lat="44.3266" lon="0.76292">
        <ele>107</ele>
        <time>2025-10-12T14:14:06.518Z</time>
      </trkpt>
      <trkpt lat="44.3266" lon="0.76292">
        <ele>107</ele>
        <time>2025-10-12T14:14:07.518Z</time>
      </trkpt>
      <trkpt lat="44.3266" lon="0.76292">
        <ele>107</ele>
        <time>2025-10-12T14:14:08.518Z</time>
      </trkpt>
      <trkpt lat="44.32659" lon="0.76292">
        <ele>107</ele>
        <time>2025-10-12T14:14:09.518Z</time>
      </trkpt>
      <trkpt lat="44.32659" lon="0.76291">
        <ele>107</ele>
        <time>2025-10-12T14:14:10.518Z</time>
      </trkpt>
      <trkpt lat="44.32659" lon="0.76291">
        <ele>107</ele>
        <time>2025-10-12T14:14:11.518Z</time>
      </trkpt>
      <trkpt lat="44.32659" lon="0.76291">
        <ele>107</ele>
        <time>2025-10-12T14:14:12.518Z</time>
      </trkpt>
      <trkpt lat="44.32659" lon="0.76291">
        <ele>108</ele>
        <time>2025-10-12T14:14:13.518Z</time>
      </trkpt>
      <trkpt lat="44.32659" lon="0.76291">
        <ele>108</ele>
        <time>2025-10-12T14:14:14.518Z</time>
      </trkpt>
      <trkpt lat="44.32659" lon="0.76292">
        <ele>109</ele>
        <time>2025-10-12T14:14:15.518Z</time>
      </trkpt>
      <trkpt lat="44.32659" lon="0.76293">
        <ele>109</ele>
        <time>2025-10-12T14:14:16.518Z</time>
      </trkpt>
      <trkpt lat="44.32659" lon="0.76293">
        <ele>109</ele>
        <time>2025-10-12T14:14:17.518Z</time>
      </trkpt>
      <trkpt lat="44.32659" lon="0.76292">
        <ele>109</ele>
        <time>2025-10-12T14:14:18.518Z</time>
      </trkpt>
      <trkpt lat="44.32659" lon="0.76292">
        <ele>108</ele>
        <time>2025-10-12T14:14:19.518Z</time>
      </trkpt>
      <trkpt lat="44.32659" lon="0.76292">
        <ele>108</ele>
        <time>2025-10-12T14:14:20.518Z</time>
      </trkpt>
      <trkpt lat="44.32659" lon="0.76292">
        <ele>108</ele>
        <time>2025-10-12T14:14:21.518Z</time>
      </trkpt>
      <trkpt lat="44.32659" lon="0.76293">
        <ele>108</ele>
        <time>2025-10-12T14:14:22.518Z</time>
      </trkpt>
      <trkpt lat="44.32659" lon="0.76293">
        <ele>108</ele>
        <time>2025-10-12T14:14:23.518Z</time>
      </trkpt>
      <trkpt lat="44.32659" lon="0.76293">
        <ele>107</ele>
        <time>2025-10-12T14:14:24.518Z</time>
      </trkpt>
      <trkpt lat="44.32659" lon="0.76294">
        <ele>107</ele>
        <time>2025-10-12T14:14:25.518Z</time>
      </trkpt>
      <trkpt lat="44.32659" lon="0.76294">
        <ele>107</ele>
        <time>2025-10-12T14:14:26.518Z</time>
      </trkpt>
      <trkpt lat="44.32659" lon="0.76294">
        <ele>107</ele>
        <time>2025-10-12T14:14:27.518Z</time>
      </trkpt>
      <trkpt lat="44.3266" lon="0.76294">
        <ele>107</ele>
        <time>2025-10-12T14:14:28.518Z</time>
      </trkpt>
      <trkpt lat="44.3266" lon="0.76293">
        <ele>107</ele>
        <time>2025-10-12T14:14:29.518Z</time>
      </trkpt>
      <trkpt lat="44.32659" lon="0.76292">
        <ele>107</ele>
        <time>2025-10-12T14:14:30.518Z</time>
      </trkpt>
      <trkpt lat="44.32659" lon="0.76291">
        <ele>107</ele>
        <time>2025-10-12T14:14:31.518Z</time>
      </trkpt>
      <trkpt lat="44.32659" lon="0.7629">
        <ele>107</ele>
        <time>2025-10-12T14:14:32.518Z</time>
      </trkpt>
      <trkpt lat="44.32659" lon="0.76288">
        <ele>107</ele>
        <time>2025-10-12T14:14:33.518Z</time>
      </trkpt>
      <trkpt lat="44.3266" lon="0.76286">
        <ele>107</ele>
        <time>2025-10-12T14:14:34.518Z</time>
      </trkpt>
      <trkpt lat="44.3266" lon="0.76285">
        <ele>107</ele>
        <time>2025-10-12T14:14:35.518Z</time>
      </trkpt>
      <trkpt lat="44.3266" lon="0.76283">
        <ele>107</ele>
        <time>2025-10-12T14:14:36.518Z</time>
      </trkpt>
      <trkpt lat="44.32661" lon="0.76282">
        <ele>108</ele>
        <time>2025-10-12T14:14:37.518Z</time>
      </trkpt>
      <trkpt lat="44.32661" lon="0.76279">
        <ele>108</ele>
        <time>2025-10-12T14:14:38.518Z</time>
      </trkpt>
      <trkpt lat="44.32662" lon="0.76277">
        <ele>109</ele>
        <time>2025-10-12T14:14:39.518Z</time>
      </trkpt>
      <trkpt lat="44.32661" lon="0.76273">
        <ele>109</ele>
        <time>2025-10-12T14:14:40.518Z</time>
      </trkpt>
      <trkpt lat="44.32662" lon="0.76271">
        <ele>110</ele>
        <time>2025-10-12T14:14:41.518Z</time>
      </trkpt>
      <trkpt lat="44.32663" lon="0.76269">
        <ele>110</ele>
        <time>2025-10-12T14:14:42.518Z</time>
      </trkpt>
      <trkpt lat="44.32663" lon="0.76267">
        <ele>110</ele>
        <time>2025-10-12T14:14:43.518Z</time>
      </trkpt>
      <trkpt lat="44.32663" lon="0.76265">
        <ele>110</ele>
        <time>2025-10-12T14:14:44.518Z</time>
      </trkpt>
      <trkpt lat="44.32663" lon="0.76264">
        <ele>110</ele>
        <time>2025-10-12T14:14:45.518Z</time>
      </trkpt>
      <trkpt lat="44.32663" lon="0.76262">
        <ele>111</ele>
        <time>2025-10-12T14:14:46.518Z</time>
      </trkpt>
      <trkpt lat="44.32663" lon="0.7626">
        <ele>111</ele>
        <time>2025-10-12T14:14:47.518Z</time>
      </trkpt>
      <trkpt lat="44.32664" lon="0.76258">
        <ele>111</ele>
        <time>2025-10-12T14:14:48.518Z</time>
      </trkpt>
      <trkpt lat="44.32664" lon="0.76257">
        <ele>111</ele>
        <time>2025-10-12T14:14:49.518Z</time>
      </trkpt>
      <trkpt lat="44.32664" lon="0.76256">
        <ele>112</ele>
        <time>2025-10-12T14:14:50.518Z</time>
      </trkpt>
      <trkpt lat="44.32664" lon="0.76255">
        <ele>113</ele>
        <time>2025-10-12T14:14:51.518Z</time>
      </trkpt>
      <trkpt lat="44.32664" lon="0.76255">
        <ele>113</ele>
        <time>2025-10-12T14:14:52.518Z</time>
      </trkpt>
      <trkpt lat="44.32664" lon="0.76254">
        <ele>114</ele>
        <time>2025-10-12T14:14:53.518Z</time>
      </trkpt>
      <trkpt lat="44.32665" lon="0.76253">
        <ele>114</ele>
        <time>2025-10-12T14:14:54.518Z</time>
      </trkpt>
      <trkpt lat="44.32665" lon="0.76251">
        <ele>115</ele>
        <time>2025-10-12T14:14:55.518Z</time>
      </trkpt>
      <trkpt lat="44.32665" lon="0.76249">
        <ele>115</ele>
        <time>2025-10-12T14:14:56.518Z</time>
      </trkpt>
      <trkpt lat="44.32666" lon="0.76247">
        <ele>115</ele>
        <time>2025-10-12T14:14:57.518Z</time>
      </trkpt>
      <trkpt lat="44.32666" lon="0.76245">
        <ele>114</ele>
        <time>2025-10-12T14:14:58.518Z</time>
      </trkpt>
      <trkpt lat="44.32666" lon="0.76243">
        <ele>114</ele>
        <time>2025-10-12T14:14:59.518Z</time>
      </trkpt>
      <trkpt lat="44.32667" lon="0.76241">
        <ele>114</ele>
        <time>2025-10-12T14:15:00.518Z</time>
      </trkpt>
      <trkpt lat="44.32667" lon="0.76239">
        <ele>114</ele>
        <time>2025-10-12T14:15:01.518Z</time>
      </trkpt>
      <trkpt lat="44.32668" lon="0.76238">
        <ele>114</ele>
        <time>2025-10-12T14:15:02.518Z</time>
      </trkpt>
      <trkpt lat="44.32668" lon="0.76236">
        <ele>114</ele>
        <time>2025-10-12T14:15:03.518Z</time>
      </trkpt>
      <trkpt lat="44.32668" lon="0.76234">
        <ele>114</ele>
        <time>2025-10-12T14:15:04.518Z</time>
      </trkpt>
      <trkpt lat="44.32668" lon="0.76232">
        <ele>114</ele>
        <time>2025-10-12T14:15:05.518Z</time>
      </trkpt>
      <trkpt lat="44.32667" lon="0.7623">
        <ele>114</ele>
        <time>2025-10-12T14:15:06.518Z</time>
      </trkpt>
      <trkpt lat="44.32667" lon="0.76228">
        <ele>113</ele>
        <time>2025-10-12T14:15:07.518Z</time>
      </trkpt>
      <trkpt lat="44.32667" lon="0.76226">
        <ele>113</ele>
        <time>2025-10-12T14:15:08.518Z</time>
      </trkpt>
      <trkpt lat="44.32668" lon="0.76224">
        <ele>113</ele>
        <time>2025-10-12T14:15:09.518Z</time>
      </trkpt>
      <trkpt lat="44.32669" lon="0.76223">
        <ele>113</ele>
        <time>2025-10-12T14:15:10.518Z</time>
      </trkpt>
      <trkpt lat="44.32669" lon="0.76221">
        <ele>112</ele>
        <time>2025-10-12T14:15:11.518Z</time>
      </trkpt>
      <trkpt lat="44.3267" lon="0.7622">
        <ele>112</ele>
        <time>2025-10-12T14:15:12.518Z</time>
      </trkpt>
      <trkpt lat="44.32671" lon="0.76219">
        <ele>111</ele>
        <time>2025-10-12T14:15:13.518Z</time>
      </trkpt>
      <trkpt lat="44.32671" lon="0.76218">
        <ele>111</ele>
        <time>2025-10-12T14:15:14.518Z</time>
      </trkpt>
      <trkpt lat="44.32672" lon="0.76217">
        <ele>111</ele>
        <time>2025-10-12T14:15:15.518Z</time>
      </trkpt>
      <trkpt lat="44.32671" lon="0.76215">
        <ele>110</ele>
        <time>2025-10-12T14:15:16.518Z</time>
      </trkpt>
      <trkpt lat="44.32671" lon="0.76213">
        <ele>110</ele>
        <time>2025-10-12T14:15:17.518Z</time>
      </trkpt>
      <trkpt lat="44.32671" lon="0.76212">
        <ele>109</ele>
        <time>2025-10-12T14:15:18.518Z</time>
      </trkpt>
      <trkpt lat="44.32671" lon="0.7621">
        <ele>109</ele>
        <time>2025-10-12T14:15:19.518Z</time>
      </trkpt>
      <trkpt lat="44.32671" lon="0.76208">
        <ele>109</ele>
        <time>2025-10-12T14:15:20.518Z</time>
      </trkpt>
      <trkpt lat="44.32672" lon="0.76207">
        <ele>108</ele>
        <time>2025-10-12T14:15:21.518Z</time>
      </trkpt>
      <trkpt lat="44.32671" lon="0.76205">
        <ele>108</ele>
        <time>2025-10-12T14:15:22.518Z</time>
      </trkpt>
      <trkpt lat="44.32671" lon="0.76204">
        <ele>108</ele>
        <time>2025-10-12T14:15:23.518Z</time>
      </trkpt>
      <trkpt lat="44.3267" lon="0.76204">
        <ele>107</ele>
        <time>2025-10-12T14:15:24.518Z</time>
      </trkpt>
      <trkpt lat="44.3267" lon="0.76203">
        <ele>107</ele>
        <time>2025-10-12T14:15:25.518Z</time>
      </trkpt>
      <trkpt lat="44.32669" lon="0.76202">
        <ele>107</ele>
        <time>2025-10-12T14:15:26.518Z</time>
      </trkpt>
      <trkpt lat="44.32668" lon="0.76201">
        <ele>106</ele>
        <time>2025-10-12T14:15:27.518Z</time>
      </trkpt>
      <trkpt lat="44.32667" lon="0.762">
        <ele>106</ele>
        <time>2025-10-12T14:15:28.518Z</time>
      </trkpt>
      <trkpt lat="44.32666" lon="0.76199">
        <ele>106</ele>
        <time>2025-10-12T14:15:29.518Z</time>
      </trkpt>
      <trkpt lat="44.32666" lon="0.76197">
        <ele>105</ele>
        <time>2025-10-12T14:15:30.518Z</time>
      </trkpt>
      <trkpt lat="44.32665" lon="0.76196">
        <ele>105</ele>
        <time>2025-10-12T14:15:31.518Z</time>
      </trkpt>
      <trkpt lat="44.32664" lon="0.76195">
        <ele>104</ele>
        <time>2025-10-12T14:15:32.518Z</time>
      </trkpt>
      <trkpt lat="44.32663" lon="0.76194">
        <ele>104</ele>
        <time>2025-10-12T14:15:33.518Z</time>
      </trkpt>
      <trkpt lat="44.32662" lon="0.76193">
        <ele>104</ele>
        <time>2025-10-12T14:15:34.518Z</time>
      </trkpt>
      <trkpt lat="44.3266" lon="0.76192">
        <ele>103</ele>
        <time>2025-10-12T14:15:35.518Z</time>
      </trkpt>
      <trkpt lat="44.32659" lon="0.76191">
        <ele>103</ele>
        <time>2025-10-12T14:15:36.518Z</time>
      </trkpt>
      <trkpt lat="44.32658" lon="0.7619">
        <ele>103</ele>
        <time>2025-10-12T14:15:37.518Z</time>
      </trkpt>
      <trkpt lat="44.32657" lon="0.76189">
        <ele>103</ele>
        <time>2025-10-12T14:15:38.518Z</time>
      </trkpt>
      <trkpt lat="44.32656" lon="0.76189">
        <ele>102</ele>
        <time>2025-10-12T14:15:39.518Z</time>
      </trkpt>
      <trkpt lat="44.32655" lon="0.76188">
        <ele>102</ele>
        <time>2025-10-12T14:15:40.518Z</time>
      </trkpt>
      <trkpt lat="44.32654" lon="0.76188">
        <ele>102</ele>
        <time>2025-10-12T14:15:41.518Z</time>
      </trkpt>
      <trkpt lat="44.32652" lon="0.76187">
        <ele>103</ele>
        <time>2025-10-12T14:15:42.518Z</time>
      </trkpt>
      <trkpt lat="44.32651" lon="0.76187">
        <ele>103</ele>
        <time>2025-10-12T14:15:43.518Z</time>
      </trkpt>
      <trkpt lat="44.3265" lon="0.76187">
        <ele>103</ele>
        <time>2025-10-12T14:15:44.518Z</time>
      </trkpt>
      <trkpt lat="44.32649" lon="0.76187">
        <ele>104</ele>
        <time>2025-10-12T14:15:45.518Z</time>
      </trkpt>
      <trkpt lat="44.32648" lon="0.76186">
        <ele>104</ele>
        <time>2025-10-12T14:15:46.518Z</time>
      </trkpt>
      <trkpt lat="44.32647" lon="0.76186">
        <ele>104</ele>
        <time>2025-10-12T14:15:47.518Z</time>
      </trkpt>
      <trkpt lat="44.32646" lon="0.76186">
        <ele>104</ele>
        <time>2025-10-12T14:15:48.518Z</time>
      </trkpt>
      <trkpt lat="44.32645" lon="0.76185">
        <ele>104</ele>
        <time>2025-10-12T14:15:49.518Z</time>
      </trkpt>
      <trkpt lat="44.32643" lon="0.76185">
        <ele>104</ele>
        <time>2025-10-12T14:15:50.518Z</time>
      </trkpt>
      <trkpt lat="44.32642" lon="0.76184">
        <ele>104</ele>
        <time>2025-10-12T14:15:51.518Z</time>
      </trkpt>
      <trkpt lat="44.32641" lon="0.76183">
        <ele>104</ele>
        <time>2025-10-12T14:15:52.518Z</time>
      </trkpt>
      <trkpt lat="44.32639" lon="0.76183">
        <ele>104</ele>
        <time>2025-10-12T14:15:53.518Z</time>
      </trkpt>
      <trkpt lat="44.32638" lon="0.76182">
        <ele>103</ele>
        <time>2025-10-12T14:15:54.518Z</time>
      </trkpt>
      <trkpt lat="44.32637" lon="0.76182">
        <ele>103</ele>
        <time>2025-10-12T14:15:55.518Z</time>
      </trkpt>
      <trkpt lat="44.32635" lon="0.76181">
        <ele>103</ele>
        <time>2025-10-12T14:15:56.518Z</time>
      </trkpt>
      <trkpt lat="44.32634" lon="0.76181">
        <ele>102</ele>
        <time>2025-10-12T14:15:57.518Z</time>
      </trkpt>
      <trkpt lat="44.32633" lon="0.76181">
        <ele>102</ele>
        <time>2025-10-12T14:15:58.518Z</time>
      </trkpt>
      <trkpt lat="44.32631" lon="0.76181">
        <ele>102</ele>
        <time>2025-10-12T14:15:59.518Z</time>
      </trkpt>
      <trkpt lat="44.3263" lon="0.7618">
        <ele>101</ele>
        <time>2025-10-12T14:16:00.518Z</time>
      </trkpt>
      <trkpt lat="44.32629" lon="0.7618">
        <ele>101</ele>
        <time>2025-10-12T14:16:01.518Z</time>
      </trkpt>
      <trkpt lat="44.32627" lon="0.7618">
        <ele>101</ele>
        <time>2025-10-12T14:16:02.518Z</time>
      </trkpt>
      <trkpt lat="44.32626" lon="0.7618">
        <ele>102</ele>
        <time>2025-10-12T14:16:03.518Z</time>
      </trkpt>
      <trkpt lat="44.32625" lon="0.7618">
        <ele>102</ele>
        <time>2025-10-12T14:16:04.518Z</time>
      </trkpt>
      <trkpt lat="44.32623" lon="0.7618">
        <ele>102</ele>
        <time>2025-10-12T14:16:05.518Z</time>
      </trkpt>
      <trkpt lat="44.32622" lon="0.76179">
        <ele>102</ele>
        <time>2025-10-12T14:16:06.518Z</time>
      </trkpt>
      <trkpt lat="44.3262" lon="0.76178">
        <ele>102</ele>
        <time>2025-10-12T14:16:07.518Z</time>
      </trkpt>
      <trkpt lat="44.32619" lon="0.76178">
        <ele>102</ele>
        <time>2025-10-12T14:16:08.518Z</time>
      </trkpt>
      <trkpt lat="44.32618" lon="0.76178">
        <ele>102</ele>
        <time>2025-10-12T14:16:09.518Z</time>
      </trkpt>
      <trkpt lat="44.32617" lon="0.76178">
        <ele>102</ele>
        <time>2025-10-12T14:16:10.518Z</time>
      </trkpt>
      <trkpt lat="44.32615" lon="0.76178">
        <ele>103</ele>
        <time>2025-10-12T14:16:11.518Z</time>
      </trkpt>
      <trkpt lat="44.32614" lon="0.76178">
        <ele>103</ele>
        <time>2025-10-12T14:16:12.518Z</time>
      </trkpt>
      <trkpt lat="44.32613" lon="0.76177">
        <ele>104</ele>
        <time>2025-10-12T14:16:13.518Z</time>
      </trkpt>
      <trkpt lat="44.32612" lon="0.76177">
        <ele>104</ele>
        <time>2025-10-12T14:16:14.518Z</time>
      </trkpt>
      <trkpt lat="44.32611" lon="0.76176">
        <ele>104</ele>
        <time>2025-10-12T14:16:15.518Z</time>
      </trkpt>
      <trkpt lat="44.32609" lon="0.76175">
        <ele>104</ele>
        <time>2025-10-12T14:16:16.518Z</time>
      </trkpt>
      <trkpt lat="44.32608" lon="0.76174">
        <ele>104</ele>
        <time>2025-10-12T14:16:17.518Z</time>
      </trkpt>
      <trkpt lat="44.32607" lon="0.76173">
        <ele>104</ele>
        <time>2025-10-12T14:16:18.518Z</time>
      </trkpt>
      <trkpt lat="44.32605" lon="0.76173">
        <ele>104</ele>
        <time>2025-10-12T14:16:19.518Z</time>
      </trkpt>
      <trkpt lat="44.32604" lon="0.76173">
        <ele>104</ele>
        <time>2025-10-12T14:16:20.518Z</time>
      </trkpt>
      <trkpt lat="44.32602" lon="0.76173">
        <ele>103</ele>
        <time>2025-10-12T14:16:21.518Z</time>
      </trkpt>
      <trkpt lat="44.32601" lon="0.76173">
        <ele>104</ele>
        <time>2025-10-12T14:16:22.518Z</time>
      </trkpt>
      <trkpt lat="44.32599" lon="0.76172">
        <ele>104</ele>
        <time>2025-10-12T14:16:23.518Z</time>
      </trkpt>
      <trkpt lat="44.32598" lon="0.76171">
        <ele>104</ele>
        <time>2025-10-12T14:16:24.518Z</time>
      </trkpt>
      <trkpt lat="44.32597" lon="0.76171">
        <ele>104</ele>
        <time>2025-10-12T14:16:25.518Z</time>
      </trkpt>
      <trkpt lat="44.32596" lon="0.7617">
        <ele>104</ele>
        <time>2025-10-12T14:16:26.518Z</time>
      </trkpt>
      <trkpt lat="44.32595" lon="0.76169">
        <ele>104</ele>
        <time>2025-10-12T14:16:27.518Z</time>
      </trkpt>
      <trkpt lat="44.32594" lon="0.76169">
        <ele>104</ele>
        <time>2025-10-12T14:16:28.518Z</time>
      </trkpt>
      <trkpt lat="44.32593" lon="0.76169">
        <ele>104</ele>
        <time>2025-10-12T14:16:29.518Z</time>
      </trkpt>
      <trkpt lat="44.32591" lon="0.76168">
        <ele>104</ele>
        <time>2025-10-12T14:16:30.518Z</time>
      </trkpt>
      <trkpt lat="44.3259" lon="0.76168">
        <ele>105</ele>
        <time>2025-10-12T14:16:31.518Z</time>
      </trkpt>
      <trkpt lat="44.32588" lon="0.76168">
        <ele>105</ele>
        <time>2025-10-12T14:16:32.518Z</time>
      </trkpt>
      <trkpt lat="44.32586" lon="0.76168">
        <ele>105</ele>
        <time>2025-10-12T14:16:33.518Z</time>
      </trkpt>
      <trkpt lat="44.32585" lon="0.76168">
        <ele>105</ele>
        <time>2025-10-12T14:16:34.518Z</time>
      </trkpt>
      <trkpt lat="44.32584" lon="0.76168">
        <ele>104</ele>
        <time>2025-10-12T14:16:35.518Z</time>
      </trkpt>
      <trkpt lat="44.32583" lon="0.76168">
        <ele>104</ele>
        <time>2025-10-12T14:16:36.518Z</time>
      </trkpt>
      <trkpt lat="44.32581" lon="0.76168">
        <ele>104</ele>
        <time>2025-10-12T14:16:37.518Z</time>
      </trkpt>
      <trkpt lat="44.3258" lon="0.76167">
        <ele>104</ele>
        <time>2025-10-12T14:16:38.518Z</time>
      </trkpt>
      <trkpt lat="44.32579" lon="0.76167">
        <ele>104</ele>
        <time>2025-10-12T14:16:39.518Z</time>
      </trkpt>
      <trkpt lat="44.32578" lon="0.76167">
        <ele>104</ele>
        <time>2025-10-12T14:16:40.518Z</time>
      </trkpt>
      <trkpt lat="44.32576" lon="0.76167">
        <ele>104</ele>
        <time>2025-10-12T14:16:41.518Z</time>
      </trkpt>
      <trkpt lat="44.32574" lon="0.76167">
        <ele>104</ele>
        <time>2025-10-12T14:16:42.518Z</time>
      </trkpt>
      <trkpt lat="44.32573" lon="0.76167">
        <ele>105</ele>
        <time>2025-10-12T14:16:43.518Z</time>
      </trkpt>
      <trkpt lat="44.32572" lon="0.76167">
        <ele>105</ele>
        <time>2025-10-12T14:16:44.518Z</time>
      </trkpt>
      <trkpt lat="44.32571" lon="0.76166">
        <ele>105</ele>
        <time>2025-10-12T14:16:45.518Z</time>
      </trkpt>
      <trkpt lat="44.3257" lon="0.76166">
        <ele>105</ele>
        <time>2025-10-12T14:16:46.518Z</time>
      </trkpt>
      <trkpt lat="44.32568" lon="0.76166">
        <ele>105</ele>
        <time>2025-10-12T14:16:47.518Z</time>
      </trkpt>
      <trkpt lat="44.32567" lon="0.76165">
        <ele>105</ele>
        <time>2025-10-12T14:16:48.518Z</time>
      </trkpt>
      <trkpt lat="44.32566" lon="0.76166">
        <ele>105</ele>
        <time>2025-10-12T14:16:49.518Z</time>
      </trkpt>
      <trkpt lat="44.32565" lon="0.76166">
        <ele>105</ele>
        <time>2025-10-12T14:16:50.518Z</time>
      </trkpt>
      <trkpt lat="44.32563" lon="0.76165">
        <ele>105</ele>
        <time>2025-10-12T14:16:51.518Z</time>
      </trkpt>
      <trkpt lat="44.32562" lon="0.76165">
        <ele>105</ele>
        <time>2025-10-12T14:16:52.518Z</time>
      </trkpt>
      <trkpt lat="44.32561" lon="0.76165">
        <ele>105</ele>
        <time>2025-10-12T14:16:53.518Z</time>
      </trkpt>
      <trkpt lat="44.3256" lon="0.76166">
        <ele>106</ele>
        <time>2025-10-12T14:16:54.518Z</time>
      </trkpt>
      <trkpt lat="44.32558" lon="0.76166">
        <ele>106</ele>
        <time>2025-10-12T14:16:55.518Z</time>
      </trkpt>
      <trkpt lat="44.32557" lon="0.76166">
        <ele>106</ele>
        <time>2025-10-12T14:16:56.518Z</time>
      </trkpt>
      <trkpt lat="44.32556" lon="0.76166">
        <ele>106</ele>
        <time>2025-10-12T14:16:57.518Z</time>
      </trkpt>
      <trkpt lat="44.32555" lon="0.76166">
        <ele>106</ele>
        <time>2025-10-12T14:16:58.518Z</time>
      </trkpt>
      <trkpt lat="44.32554" lon="0.76166">
        <ele>105</ele>
        <time>2025-10-12T14:16:59.518Z</time>
      </trkpt>
      <trkpt lat="44.32553" lon="0.76166">
        <ele>105</ele>
        <time>2025-10-12T14:17:00.518Z</time>
      </trkpt>
      <trkpt lat="44.32551" lon="0.76166">
        <ele>105</ele>
        <time>2025-10-12T14:17:01.518Z</time>
      </trkpt>
      <trkpt lat="44.3255" lon="0.76166">
        <ele>105</ele>
        <time>2025-10-12T14:17:02.518Z</time>
      </trkpt>
      <trkpt lat="44.32548" lon="0.76166">
        <ele>105</ele>
        <time>2025-10-12T14:17:03.518Z</time>
      </trkpt>
      <trkpt lat="44.32547" lon="0.76166">
        <ele>105</ele>
        <time>2025-10-12T14:17:04.518Z</time>
      </trkpt>
      <trkpt lat="44.32546" lon="0.76166">
        <ele>105</ele>
        <time>2025-10-12T14:17:05.518Z</time>
      </trkpt>
      <trkpt lat="44.32544" lon="0.76166">
        <ele>105</ele>
        <time>2025-10-12T14:17:06.518Z</time>
      </trkpt>
      <trkpt lat="44.32543" lon="0.76165">
        <ele>105</ele>
        <time>2025-10-12T14:17:07.518Z</time>
      </trkpt>
      <trkpt lat="44.32542" lon="0.76165">
        <ele>105</ele>
        <time>2025-10-12T14:17:08.518Z</time>
      </trkpt>
      <trkpt lat="44.32541" lon="0.76166">
        <ele>105</ele>
        <time>2025-10-12T14:17:09.518Z</time>
      </trkpt>
      <trkpt lat="44.3254" lon="0.76166">
        <ele>105</ele>
        <time>2025-10-12T14:17:10.518Z</time>
      </trkpt>
      <trkpt lat="44.32539" lon="0.76165">
        <ele>105</ele>
        <time>2025-10-12T14:17:11.518Z</time>
      </trkpt>
      <trkpt lat="44.32538" lon="0.76165">
        <ele>105</ele>
        <time>2025-10-12T14:17:12.518Z</time>
      </trkpt>
      <trkpt lat="44.32536" lon="0.76165">
        <ele>105</ele>
        <time>2025-10-12T14:17:13.518Z</time>
      </trkpt>
      <trkpt lat="44.32535" lon="0.76165">
        <ele>105</ele>
        <time>2025-10-12T14:17:14.518Z</time>
      </trkpt>
      <trkpt lat="44.32534" lon="0.76165">
        <ele>105</ele>
        <time>2025-10-12T14:17:15.518Z</time>
      </trkpt>
      <trkpt lat="44.32533" lon="0.76164">
        <ele>105</ele>
        <time>2025-10-12T14:17:16.518Z</time>
      </trkpt>
      <trkpt lat="44.32532" lon="0.76164">
        <ele>105</ele>
        <time>2025-10-12T14:17:17.518Z</time>
      </trkpt>
      <trkpt lat="44.32531" lon="0.76164">
        <ele>105</ele>
        <time>2025-10-12T14:17:18.518Z</time>
      </trkpt>
      <trkpt lat="44.3253" lon="0.76165">
        <ele>105</ele>
        <time>2025-10-12T14:17:19.518Z</time>
      </trkpt>
      <trkpt lat="44.32529" lon="0.76165">
        <ele>105</ele>
        <time>2025-10-12T14:17:20.518Z</time>
      </trkpt>
      <trkpt lat="44.32527" lon="0.76165">
        <ele>105</ele>
        <time>2025-10-12T14:17:21.518Z</time>
      </trkpt>
      <trkpt lat="44.32526" lon="0.76165">
        <ele>106</ele>
        <time>2025-10-12T14:17:22.518Z</time>
      </trkpt>
      <trkpt lat="44.32525" lon="0.76166">
        <ele>106</ele>
        <time>2025-10-12T14:17:23.518Z</time>
      </trkpt>
      <trkpt lat="44.32524" lon="0.76166">
        <ele>106</ele>
        <time>2025-10-12T14:17:24.518Z</time>
      </trkpt>
      <trkpt lat="44.32523" lon="0.76166">
        <ele>106</ele>
        <time>2025-10-12T14:17:25.518Z</time>
      </trkpt>
      <trkpt lat="44.32521" lon="0.76165">
        <ele>106</ele>
        <time>2025-10-12T14:17:26.518Z</time>
      </trkpt>
      <trkpt lat="44.3252" lon="0.76166">
        <ele>107</ele>
        <time>2025-10-12T14:17:27.518Z</time>
      </trkpt>
      <trkpt lat="44.32519" lon="0.76166">
        <ele>107</ele>
        <time>2025-10-12T14:17:28.518Z</time>
      </trkpt>
      <trkpt lat="44.32518" lon="0.76166">
        <ele>108</ele>
        <time>2025-10-12T14:17:29.518Z</time>
      </trkpt>
      <trkpt lat="44.32517" lon="0.76167">
        <ele>108</ele>
        <time>2025-10-12T14:17:30.518Z</time>
      </trkpt>
      <trkpt lat="44.32516" lon="0.76167">
        <ele>109</ele>
        <time>2025-10-12T14:17:31.518Z</time>
      </trkpt>
      <trkpt lat="44.32515" lon="0.76167">
        <ele>109</ele>
        <time>2025-10-12T14:17:32.518Z</time>
      </trkpt>
      <trkpt lat="44.32514" lon="0.76167">
        <ele>109</ele>
        <time>2025-10-12T14:17:33.518Z</time>
      </trkpt>
      <trkpt lat="44.32513" lon="0.76167">
        <ele>109</ele>
        <time>2025-10-12T14:17:34.518Z</time>
      </trkpt>
      <trkpt lat="44.32511" lon="0.76168">
        <ele>109</ele>
        <time>2025-10-12T14:17:35.518Z</time>
      </trkpt>
      <trkpt lat="44.3251" lon="0.76168">
        <ele>110</ele>
        <time>2025-10-12T14:17:36.518Z</time>
      </trkpt>
      <trkpt lat="44.32508" lon="0.76169">
        <ele>110</ele>
        <time>2025-10-12T14:17:37.518Z</time>
      </trkpt>
      <trkpt lat="44.32507" lon="0.76169">
        <ele>110</ele>
        <time>2025-10-12T14:17:38.518Z</time>
      </trkpt>
      <trkpt lat="44.32505" lon="0.7617">
        <ele>110</ele>
        <time>2025-10-12T14:17:39.518Z</time>
      </trkpt>
      <trkpt lat="44.32504" lon="0.7617">
        <ele>110</ele>
        <time>2025-10-12T14:17:40.518Z</time>
      </trkpt>
      <trkpt lat="44.32503" lon="0.7617">
        <ele>110</ele>
        <time>2025-10-12T14:17:41.518Z</time>
      </trkpt>
      <trkpt lat="44.32501" lon="0.76171">
        <ele>110</ele>
        <time>2025-10-12T14:17:42.518Z</time>
      </trkpt>
      <trkpt lat="44.32501" lon="0.76171">
        <ele>110</ele>
        <time>2025-10-12T14:17:43.518Z</time>
      </trkpt>
      <trkpt lat="44.325" lon="0.76171">
        <ele>110</ele>
        <time>2025-10-12T14:17:44.518Z</time>
      </trkpt>
      <trkpt lat="44.32499" lon="0.76171">
        <ele>110</ele>
        <time>2025-10-12T14:17:45.518Z</time>
      </trkpt>
      <trkpt lat="44.32498" lon="0.76171">
        <ele>111</ele>
        <time>2025-10-12T14:17:46.518Z</time>
      </trkpt>
      <trkpt lat="44.32497" lon="0.76172">
        <ele>111</ele>
        <time>2025-10-12T14:17:47.518Z</time>
      </trkpt>
      <trkpt lat="44.32496" lon="0.76172">
        <ele>111</ele>
        <time>2025-10-12T14:17:48.518Z</time>
      </trkpt>
      <trkpt lat="44.32495" lon="0.76173">
        <ele>111</ele>
        <time>2025-10-12T14:17:49.518Z</time>
      </trkpt>
      <trkpt lat="44.32494" lon="0.76174">
        <ele>111</ele>
        <time>2025-10-12T14:17:50.518Z</time>
      </trkpt>
      <trkpt lat="44.32493" lon="0.76174">
        <ele>111</ele>
        <time>2025-10-12T14:17:51.518Z</time>
      </trkpt>
      <trkpt lat="44.32492" lon="0.76174">
        <ele>111</ele>
        <time>2025-10-12T14:17:52.518Z</time>
      </trkpt>
      <trkpt lat="44.32491" lon="0.76175">
        <ele>111</ele>
        <time>2025-10-12T14:17:53.518Z</time>
      </trkpt>
      <trkpt lat="44.3249" lon="0.76175">
        <ele>111</ele>
        <time>2025-10-12T14:17:54.518Z</time>
      </trkpt>
      <trkpt lat="44.32489" lon="0.76175">
        <ele>111</ele>
        <time>2025-10-12T14:17:55.518Z</time>
      </trkpt>
      <trkpt lat="44.32488" lon="0.76175">
        <ele>111</ele>
        <time>2025-10-12T14:17:56.518Z</time>
      </trkpt>
      <trkpt lat="44.32487" lon="0.76176">
        <ele>112</ele>
        <time>2025-10-12T14:17:57.518Z</time>
      </trkpt>
      <trkpt lat="44.32486" lon="0.76176">
        <ele>112</ele>
        <time>2025-10-12T14:17:58.518Z</time>
      </trkpt>
      <trkpt lat="44.32485" lon="0.76177">
        <ele>112</ele>
        <time>2025-10-12T14:17:59.518Z</time>
      </trkpt>
      <trkpt lat="44.32484" lon="0.76177">
        <ele>112</ele>
        <time>2025-10-12T14:18:00.518Z</time>
      </trkpt>
      <trkpt lat="44.32483" lon="0.76177">
        <ele>112</ele>
        <time>2025-10-12T14:18:01.518Z</time>
      </trkpt>
      <trkpt lat="44.32482" lon="0.76177">
        <ele>112</ele>
        <time>2025-10-12T14:18:02.518Z</time>
      </trkpt>
      <trkpt lat="44.32481" lon="0.76177">
        <ele>112</ele>
        <time>2025-10-12T14:18:03.518Z</time>
      </trkpt>
      <trkpt lat="44.3248" lon="0.76178">
        <ele>112</ele>
        <time>2025-10-12T14:18:04.518Z</time>
      </trkpt>
      <trkpt lat="44.32479" lon="0.76178">
        <ele>112</ele>
        <time>2025-10-12T14:18:05.518Z</time>
      </trkpt>
      <trkpt lat="44.32477" lon="0.76178">
        <ele>111</ele>
        <time>2025-10-12T14:18:06.518Z</time>
      </trkpt>
      <trkpt lat="44.32476" lon="0.76179">
        <ele>111</ele>
        <time>2025-10-12T14:18:07.518Z</time>
      </trkpt>
      <trkpt lat="44.32475" lon="0.76179">
        <ele>111</ele>
        <time>2025-10-12T14:18:08.518Z</time>
      </trkpt>
      <trkpt lat="44.32474" lon="0.7618">
        <ele>111</ele>
        <time>2025-10-12T14:18:09.518Z</time>
      </trkpt>
      <trkpt lat="44.32473" lon="0.7618">
        <ele>111</ele>
        <time>2025-10-12T14:18:10.518Z</time>
      </trkpt>
      <trkpt lat="44.32472" lon="0.76181">
        <ele>110</ele>
        <time>2025-10-12T14:18:11.518Z</time>
      </trkpt>
      <trkpt lat="44.32471" lon="0.76181">
        <ele>111</ele>
        <time>2025-10-12T14:18:12.518Z</time>
      </trkpt>
      <trkpt lat="44.3247" lon="0.76181">
        <ele>111</ele>
        <time>2025-10-12T14:18:13.518Z</time>
      </trkpt>
      <trkpt lat="44.32469" lon="0.76182">
        <ele>111</ele>
        <time>2025-10-12T14:18:14.518Z</time>
      </trkpt>
      <trkpt lat="44.32467" lon="0.76182">
        <ele>111</ele>
        <time>2025-10-12T14:18:15.518Z</time>
      </trkpt>
      <trkpt lat="44.32467" lon="0.76182">
        <ele>112</ele>
        <time>2025-10-12T14:18:16.518Z</time>
      </trkpt>
      <trkpt lat="44.32466" lon="0.76182">
        <ele>112</ele>
        <time>2025-10-12T14:18:17.518Z</time>
      </trkpt>
      <trkpt lat="44.32465" lon="0.76182">
        <ele>112</ele>
        <time>2025-10-12T14:18:18.518Z</time>
      </trkpt>
      <trkpt lat="44.32464" lon="0.76182">
        <ele>112</ele>
        <time>2025-10-12T14:18:19.518Z</time>
      </trkpt>
      <trkpt lat="44.32463" lon="0.76182">
        <ele>112</ele>
        <time>2025-10-12T14:18:20.518Z</time>
      </trkpt>
      <trkpt lat="44.32461" lon="0.76183">
        <ele>112</ele>
        <time>2025-10-12T14:18:21.518Z</time>
      </trkpt>
      <trkpt lat="44.3246" lon="0.76183">
        <ele>112</ele>
        <time>2025-10-12T14:18:22.518Z</time>
      </trkpt>
      <trkpt lat="44.32459" lon="0.76184">
        <ele>113</ele>
        <time>2025-10-12T14:18:23.518Z</time>
      </trkpt>
      <trkpt lat="44.32458" lon="0.76184">
        <ele>113</ele>
        <time>2025-10-12T14:18:24.518Z</time>
      </trkpt>
      <trkpt lat="44.32457" lon="0.76184">
        <ele>113</ele>
        <time>2025-10-12T14:18:25.518Z</time>
      </trkpt>
      <trkpt lat="44.32456" lon="0.76184">
        <ele>114</ele>
        <time>2025-10-12T14:18:26.518Z</time>
      </trkpt>
      <trkpt lat="44.32455" lon="0.76184">
        <ele>114</ele>
        <time>2025-10-12T14:18:27.518Z</time>
      </trkpt>
      <trkpt lat="44.32454" lon="0.76184">
        <ele>114</ele>
        <time>2025-10-12T14:18:28.518Z</time>
      </trkpt>
      <trkpt lat="44.32453" lon="0.76184">
        <ele>114</ele>
        <time>2025-10-12T14:18:29.518Z</time>
      </trkpt>
      <trkpt lat="44.32452" lon="0.76185">
        <ele>114</ele>
        <time>2025-10-12T14:18:30.518Z</time>
      </trkpt>
      <trkpt lat="44.3245" lon="0.76185">
        <ele>113</ele>
        <time>2025-10-12T14:18:31.518Z</time>
      </trkpt>
      <trkpt lat="44.3245" lon="0.76185">
        <ele>113</ele>
        <time>2025-10-12T14:18:32.518Z</time>
      </trkpt>
      <trkpt lat="44.32449" lon="0.76185">
        <ele>113</ele>
        <time>2025-10-12T14:18:33.518Z</time>
      </trkpt>
      <trkpt lat="44.32448" lon="0.76185">
        <ele>112</ele>
        <time>2025-10-12T14:18:34.518Z</time>
      </trkpt>
      <trkpt lat="44.32447" lon="0.76186">
        <ele>112</ele>
        <time>2025-10-12T14:18:35.518Z</time>
      </trkpt>
      <trkpt lat="44.32446" lon="0.76186">
        <ele>112</ele>
        <time>2025-10-12T14:18:36.518Z</time>
      </trkpt>
      <trkpt lat="44.32445" lon="0.76186">
        <ele>112</ele>
        <time>2025-10-12T14:18:37.518Z</time>
      </trkpt>
      <trkpt lat="44.32444" lon="0.76187">
        <ele>112</ele>
        <time>2025-10-12T14:18:38.518Z</time>
      </trkpt>
      <trkpt lat="44.32443" lon="0.76187">
        <ele>112</ele>
        <time>2025-10-12T14:18:39.518Z</time>
      </trkpt>
      <trkpt lat="44.32442" lon="0.76187">
        <ele>112</ele>
        <time>2025-10-12T14:18:40.518Z</time>
      </trkpt>
      <trkpt lat="44.32441" lon="0.76187">
        <ele>113</ele>
        <time>2025-10-12T14:18:41.518Z</time>
      </trkpt>
      <trkpt lat="44.3244" lon="0.76187">
        <ele>113</ele>
        <time>2025-10-12T14:18:42.518Z</time>
      </trkpt>
      <trkpt lat="44.32439" lon="0.76187">
        <ele>113</ele>
        <time>2025-10-12T14:18:43.518Z</time>
      </trkpt>
      <trkpt lat="44.32438" lon="0.76187">
        <ele>113</ele>
        <time>2025-10-12T14:18:44.518Z</time>
      </trkpt>
      <trkpt lat="44.32437" lon="0.76187">
        <ele>113</ele>
        <time>2025-10-12T14:18:45.518Z</time>
      </trkpt>
      <trkpt lat="44.32436" lon="0.76187">
        <ele>113</ele>
        <time>2025-10-12T14:18:46.518Z</time>
      </trkpt>
      <trkpt lat="44.32435" lon="0.76187">
        <ele>113</ele>
        <time>2025-10-12T14:18:47.518Z</time>
      </trkpt>
      <trkpt lat="44.32434" lon="0.76188">
        <ele>113</ele>
        <time>2025-10-12T14:18:48.518Z</time>
      </trkpt>
      <trkpt lat="44.32433" lon="0.76188">
        <ele>113</ele>
        <time>2025-10-12T14:18:49.518Z</time>
      </trkpt>
      <trkpt lat="44.32432" lon="0.76188">
        <ele>113</ele>
        <time>2025-10-12T14:18:50.518Z</time>
      </trkpt>
      <trkpt lat="44.32431" lon="0.76187">
        <ele>113</ele>
        <time>2025-10-12T14:18:51.518Z</time>
      </trkpt>
      <trkpt lat="44.3243" lon="0.76187">
        <ele>113</ele>
        <time>2025-10-12T14:18:52.518Z</time>
      </trkpt>
      <trkpt lat="44.32429" lon="0.76187">
        <ele>113</ele>
        <time>2025-10-12T14:18:53.518Z</time>
      </trkpt>
      <trkpt lat="44.32427" lon="0.76187">
        <ele>113</ele>
        <time>2025-10-12T14:18:54.518Z</time>
      </trkpt>
      <trkpt lat="44.32426" lon="0.76187">
        <ele>114</ele>
        <time>2025-10-12T14:18:55.518Z</time>
      </trkpt>
      <trkpt lat="44.32426" lon="0.76187">
        <ele>114</ele>
        <time>2025-10-12T14:18:56.518Z</time>
      </trkpt>
      <trkpt lat="44.32425" lon="0.76187">
        <ele>114</ele>
        <time>2025-10-12T14:18:57.518Z</time>
      </trkpt>
      <trkpt lat="44.32424" lon="0.76186">
        <ele>114</ele>
        <time>2025-10-12T14:18:58.518Z</time>
      </trkpt>
      <trkpt lat="44.32423" lon="0.76186">
        <ele>114</ele>
        <time>2025-10-12T14:18:59.518Z</time>
      </trkpt>
      <trkpt lat="44.32422" lon="0.76186">
        <ele>115</ele>
        <time>2025-10-12T14:19:00.518Z</time>
      </trkpt>
      <trkpt lat="44.32421" lon="0.76186">
        <ele>115</ele>
        <time>2025-10-12T14:19:01.518Z</time>
      </trkpt>
      <trkpt lat="44.3242" lon="0.76185">
        <ele>115</ele>
        <time>2025-10-12T14:19:02.518Z</time>
      </trkpt>
      <trkpt lat="44.32419" lon="0.76185">
        <ele>114</ele>
        <time>2025-10-12T14:19:03.518Z</time>
      </trkpt>
      <trkpt lat="44.32418" lon="0.76184">
        <ele>114</ele>
        <time>2025-10-12T14:19:04.518Z</time>
      </trkpt>
      <trkpt lat="44.32417" lon="0.76183">
        <ele>114</ele>
        <time>2025-10-12T14:19:05.518Z</time>
      </trkpt>
      <trkpt lat="44.32416" lon="0.76183">
        <ele>114</ele>
        <time>2025-10-12T14:19:06.518Z</time>
      </trkpt>
      <trkpt lat="44.32415" lon="0.76182">
        <ele>114</ele>
        <time>2025-10-12T14:19:07.518Z</time>
      </trkpt>
      <trkpt lat="44.32414" lon="0.76182">
        <ele>114</ele>
        <time>2025-10-12T14:19:08.518Z</time>
      </trkpt>
      <trkpt lat="44.32413" lon="0.76181">
        <ele>114</ele>
        <time>2025-10-12T14:19:09.518Z</time>
      </trkpt>
      <trkpt lat="44.32412" lon="0.76181">
        <ele>114</ele>
        <time>2025-10-12T14:19:10.518Z</time>
      </trkpt>
      <trkpt lat="44.32411" lon="0.76181">
        <ele>114</ele>
        <time>2025-10-12T14:19:11.518Z</time>
      </trkpt>
      <trkpt lat="44.3241" lon="0.7618">
        <ele>114</ele>
        <time>2025-10-12T14:19:12.518Z</time>
      </trkpt>
      <trkpt lat="44.32409" lon="0.7618">
        <ele>115</ele>
        <time>2025-10-12T14:19:13.518Z</time>
      </trkpt>
      <trkpt lat="44.32408" lon="0.7618">
        <ele>115</ele>
        <time>2025-10-12T14:19:14.518Z</time>
      </trkpt>
      <trkpt lat="44.32407" lon="0.7618">
        <ele>115</ele>
        <time>2025-10-12T14:19:15.518Z</time>
      </trkpt>
      <trkpt lat="44.32406" lon="0.7618">
        <ele>115</ele>
        <time>2025-10-12T14:19:16.518Z</time>
      </trkpt>
      <trkpt lat="44.32405" lon="0.7618">
        <ele>115</ele>
        <time>2025-10-12T14:19:17.518Z</time>
      </trkpt>
      <trkpt lat="44.32404" lon="0.76179">
        <ele>116</ele>
        <time>2025-10-12T14:19:18.518Z</time>
      </trkpt>
      <trkpt lat="44.32403" lon="0.76179">
        <ele>116</ele>
        <time>2025-10-12T14:19:19.518Z</time>
      </trkpt>
      <trkpt lat="44.32403" lon="0.76179">
        <ele>116</ele>
        <time>2025-10-12T14:19:20.518Z</time>
      </trkpt>
      <trkpt lat="44.32402" lon="0.76179">
        <ele>116</ele>
        <time>2025-10-12T14:19:21.518Z</time>
      </trkpt>
      <trkpt lat="44.324" lon="0.7618">
        <ele>116</ele>
        <time>2025-10-12T14:19:22.518Z</time>
      </trkpt>
      <trkpt lat="44.32399" lon="0.7618">
        <ele>116</ele>
        <time>2025-10-12T14:19:23.518Z</time>
      </trkpt>
      <trkpt lat="44.32398" lon="0.7618">
        <ele>116</ele>
        <time>2025-10-12T14:19:24.518Z</time>
      </trkpt>
      <trkpt lat="44.32397" lon="0.76181">
        <ele>116</ele>
        <time>2025-10-12T14:19:25.518Z</time>
      </trkpt>
      <trkpt lat="44.32396" lon="0.76181">
        <ele>116</ele>
        <time>2025-10-12T14:19:26.518Z</time>
      </trkpt>
      <trkpt lat="44.32395" lon="0.76181">
        <ele>117</ele>
        <time>2025-10-12T14:19:27.518Z</time>
      </trkpt>
      <trkpt lat="44.32393" lon="0.76181">
        <ele>117</ele>
        <time>2025-10-12T14:19:28.518Z</time>
      </trkpt>
      <trkpt lat="44.32392" lon="0.7618">
        <ele>117</ele>
        <time>2025-10-12T14:19:29.518Z</time>
      </trkpt>
      <trkpt lat="44.32391" lon="0.7618">
        <ele>117</ele>
        <time>2025-10-12T14:19:30.518Z</time>
      </trkpt>
      <trkpt lat="44.3239" lon="0.76179">
        <ele>118</ele>
        <time>2025-10-12T14:19:31.518Z</time>
      </trkpt>
      <trkpt lat="44.32389" lon="0.76179">
        <ele>118</ele>
        <time>2025-10-12T14:19:32.518Z</time>
      </trkpt>
      <trkpt lat="44.32388" lon="0.76179">
        <ele>118</ele>
        <time>2025-10-12T14:19:33.518Z</time>
      </trkpt>
      <trkpt lat="44.32387" lon="0.76179">
        <ele>119</ele>
        <time>2025-10-12T14:19:34.518Z</time>
      </trkpt>
      <trkpt lat="44.32386" lon="0.76178">
        <ele>119</ele>
        <time>2025-10-12T14:19:35.518Z</time>
      </trkpt>
      <trkpt lat="44.32386" lon="0.76178">
        <ele>118</ele>
        <time>2025-10-12T14:19:36.518Z</time>
      </trkpt>
      <trkpt lat="44.32386" lon="0.76178">
        <ele>118</ele>
        <time>2025-10-12T14:19:37.518Z</time>
      </trkpt>
      <trkpt lat="44.32385" lon="0.76178">
        <ele>118</ele>
        <time>2025-10-12T14:19:38.518Z</time>
      </trkpt>
      <trkpt lat="44.32385" lon="0.76178">
        <ele>117</ele>
        <time>2025-10-12T14:19:39.518Z</time>
      </trkpt>
      <trkpt lat="44.32385" lon="0.76178">
        <ele>117</ele>
        <time>2025-10-12T14:19:40.518Z</time>
      </trkpt>
      <trkpt lat="44.32385" lon="0.76178">
        <ele>117</ele>
        <time>2025-10-12T14:19:41.518Z</time>
      </trkpt>
      <trkpt lat="44.32385" lon="0.76178">
        <ele>116</ele>
        <time>2025-10-12T14:19:42.518Z</time>
      </trkpt>
      <trkpt lat="44.32385" lon="0.76178">
        <ele>116</ele>
        <time>2025-10-12T14:19:43.518Z</time>
      </trkpt>
      <trkpt lat="44.32385" lon="0.76179">
        <ele>116</ele>
        <time>2025-10-12T14:19:44.518Z</time>
      </trkpt>
      <trkpt lat="44.32385" lon="0.76179">
        <ele>116</ele>
        <time>2025-10-12T14:19:45.518Z</time>
      </trkpt>
      <trkpt lat="44.32384" lon="0.76179">
        <ele>116</ele>
        <time>2025-10-12T14:19:46.518Z</time>
      </trkpt>
      <trkpt lat="44.32383" lon="0.7618">
        <ele>116</ele>
        <time>2025-10-12T14:19:47.518Z</time>
      </trkpt>
      <trkpt lat="44.32382" lon="0.7618">
        <ele>116</ele>
        <time>2025-10-12T14:19:48.518Z</time>
      </trkpt>
      <trkpt lat="44.32381" lon="0.7618">
        <ele>116</ele>
        <time>2025-10-12T14:19:49.518Z</time>
      </trkpt>
      <trkpt lat="44.3238" lon="0.7618">
        <ele>117</ele>
        <time>2025-10-12T14:19:50.518Z</time>
      </trkpt>
      <trkpt lat="44.32379" lon="0.7618">
        <ele>117</ele>
        <time>2025-10-12T14:19:51.518Z</time>
      </trkpt>
      <trkpt lat="44.32378" lon="0.7618">
        <ele>117</ele>
        <time>2025-10-12T14:19:52.518Z</time>
      </trkpt>
      <trkpt lat="44.32377" lon="0.7618">
        <ele>117</ele>
        <time>2025-10-12T14:19:53.518Z</time>
      </trkpt>
      <trkpt lat="44.32376" lon="0.76181">
        <ele>117</ele>
        <time>2025-10-12T14:19:54.518Z</time>
      </trkpt>
      <trkpt lat="44.32375" lon="0.76181">
        <ele>118</ele>
        <time>2025-10-12T14:19:55.518Z</time>
      </trkpt>
      <trkpt lat="44.32374" lon="0.76181">
        <ele>118</ele>
        <time>2025-10-12T14:19:56.518Z</time>
      </trkpt>
      <trkpt lat="44.32373" lon="0.76181">
        <ele>118</ele>
        <time>2025-10-12T14:19:57.518Z</time>
      </trkpt>
      <trkpt lat="44.32373" lon="0.76181">
        <ele>119</ele>
        <time>2025-10-12T14:19:58.518Z</time>
      </trkpt>
      <trkpt lat="44.32372" lon="0.76181">
        <ele>119</ele>
        <time>2025-10-12T14:19:59.518Z</time>
      </trkpt>
      <trkpt lat="44.32371" lon="0.76181">
        <ele>119</ele>
        <time>2025-10-12T14:20:00.518Z</time>
      </trkpt>
      <trkpt lat="44.32371" lon="0.76181">
        <ele>119</ele>
        <time>2025-10-12T14:20:01.518Z</time>
      </trkpt>
      <trkpt lat="44.3237" lon="0.7618">
        <ele>120</ele>
        <time>2025-10-12T14:20:02.518Z</time>
      </trkpt>
      <trkpt lat="44.32369" lon="0.7618">
        <ele>120</ele>
        <time>2025-10-12T14:20:03.518Z</time>
      </trkpt>
      <trkpt lat="44.32368" lon="0.7618">
        <ele>120</ele>
        <time>2025-10-12T14:20:04.518Z</time>
      </trkpt>
      <trkpt lat="44.32367" lon="0.7618">
        <ele>120</ele>
        <time>2025-10-12T14:20:05.518Z</time>
      </trkpt>
      <trkpt lat="44.32366" lon="0.7618">
        <ele>120</ele>
        <time>2025-10-12T14:20:06.518Z</time>
      </trkpt>
      <trkpt lat="44.32364" lon="0.7618">
        <ele>120</ele>
        <time>2025-10-12T14:20:07.518Z</time>
      </trkpt>
      <trkpt lat="44.32363" lon="0.7618">
        <ele>120</ele>
        <time>2025-10-12T14:20:08.518Z</time>
      </trkpt>
      <trkpt lat="44.32362" lon="0.7618">
        <ele>120</ele>
        <time>2025-10-12T14:20:09.518Z</time>
      </trkpt>
      <trkpt lat="44.32361" lon="0.7618">
        <ele>121</ele>
        <time>2025-10-12T14:20:10.518Z</time>
      </trkpt>
      <trkpt lat="44.32359" lon="0.76179">
        <ele>121</ele>
        <time>2025-10-12T14:20:11.518Z</time>
      </trkpt>
      <trkpt lat="44.32358" lon="0.76179">
        <ele>121</ele>
        <time>2025-10-12T14:20:12.518Z</time>
      </trkpt>
      <trkpt lat="44.32356" lon="0.76178">
        <ele>121</ele>
        <time>2025-10-12T14:20:13.518Z</time>
      </trkpt>
      <trkpt lat="44.32355" lon="0.76179">
        <ele>121</ele>
        <time>2025-10-12T14:20:14.518Z</time>
      </trkpt>
      <trkpt lat="44.32353" lon="0.76179">
        <ele>122</ele>
        <time>2025-10-12T14:20:15.518Z</time>
      </trkpt>
      <trkpt lat="44.32352" lon="0.76179">
        <ele>122</ele>
        <time>2025-10-12T14:20:16.518Z</time>
      </trkpt>
      <trkpt lat="44.32351" lon="0.76179">
        <ele>122</ele>
        <time>2025-10-12T14:20:17.518Z</time>
      </trkpt>
      <trkpt lat="44.3235" lon="0.76179">
        <ele>122</ele>
        <time>2025-10-12T14:20:18.518Z</time>
      </trkpt>
      <trkpt lat="44.32349" lon="0.76179">
        <ele>122</ele>
        <time>2025-10-12T14:20:19.518Z</time>
      </trkpt>
      <trkpt lat="44.32348" lon="0.76179">
        <ele>121</ele>
        <time>2025-10-12T14:20:20.518Z</time>
      </trkpt>
      <trkpt lat="44.32347" lon="0.76179">
        <ele>121</ele>
        <time>2025-10-12T14:20:21.518Z</time>
      </trkpt>
      <trkpt lat="44.32346" lon="0.76179">
        <ele>121</ele>
        <time>2025-10-12T14:20:22.518Z</time>
      </trkpt>
      <trkpt lat="44.32345" lon="0.76179">
        <ele>121</ele>
        <time>2025-10-12T14:20:23.518Z</time>
      </trkpt>
      <trkpt lat="44.32344" lon="0.76179">
        <ele>121</ele>
        <time>2025-10-12T14:20:24.518Z</time>
      </trkpt>
      <trkpt lat="44.32343" lon="0.76178">
        <ele>121</ele>
        <time>2025-10-12T14:20:25.518Z</time>
      </trkpt>
      <trkpt lat="44.32342" lon="0.76178">
        <ele>120</ele>
        <time>2025-10-12T14:20:26.518Z</time>
      </trkpt>
      <trkpt lat="44.32341" lon="0.76178">
        <ele>120</ele>
        <time>2025-10-12T14:20:27.518Z</time>
      </trkpt>
      <trkpt lat="44.3234" lon="0.76178">
        <ele>120</ele>
        <time>2025-10-12T14:20:28.518Z</time>
      </trkpt>
      <trkpt lat="44.32338" lon="0.76178">
        <ele>120</ele>
        <time>2025-10-12T14:20:29.518Z</time>
      </trkpt>
      <trkpt lat="44.32337" lon="0.76178">
        <ele>120</ele>
        <time>2025-10-12T14:20:30.518Z</time>
      </trkpt>
      <trkpt lat="44.32336" lon="0.76178">
        <ele>121</ele>
        <time>2025-10-12T14:20:31.518Z</time>
      </trkpt>
      <trkpt lat="44.32335" lon="0.76178">
        <ele>121</ele>
        <time>2025-10-12T14:20:32.518Z</time>
      </trkpt>
      <trkpt lat="44.32334" lon="0.76179">
        <ele>121</ele>
        <time>2025-10-12T14:20:33.518Z</time>
      </trkpt>
      <trkpt lat="44.32333" lon="0.7618">
        <ele>121</ele>
        <time>2025-10-12T14:20:34.518Z</time>
      </trkpt>
      <trkpt lat="44.32331" lon="0.76181">
        <ele>122</ele>
        <time>2025-10-12T14:20:35.518Z</time>
      </trkpt>
      <trkpt lat="44.32329" lon="0.76182">
        <ele>122</ele>
        <time>2025-10-12T14:20:36.518Z</time>
      </trkpt>
      <trkpt lat="44.32328" lon="0.76182">
        <ele>122</ele>
        <time>2025-10-12T14:20:37.518Z</time>
      </trkpt>
      <trkpt lat="44.32327" lon="0.76181">
        <ele>122</ele>
        <time>2025-10-12T14:20:38.518Z</time>
      </trkpt>
      <trkpt lat="44.32325" lon="0.76181">
        <ele>122</ele>
        <time>2025-10-12T14:20:39.518Z</time>
      </trkpt>
      <trkpt lat="44.32324" lon="0.76182">
        <ele>123</ele>
        <time>2025-10-12T14:20:40.518Z</time>
      </trkpt>
      <trkpt lat="44.32323" lon="0.76182">
        <ele>123</ele>
        <time>2025-10-12T14:20:41.518Z</time>
      </trkpt>
      <trkpt lat="44.32322" lon="0.76182">
        <ele>123</ele>
        <time>2025-10-12T14:20:42.518Z</time>
      </trkpt>
      <trkpt lat="44.3232" lon="0.76181">
        <ele>123</ele>
        <time>2025-10-12T14:20:43.518Z</time>
      </trkpt>
      <trkpt lat="44.32319" lon="0.76181">
        <ele>123</ele>
        <time>2025-10-12T14:20:44.518Z</time>
      </trkpt>
      <trkpt lat="44.32318" lon="0.76179">
        <ele>123</ele>
        <time>2025-10-12T14:20:45.518Z</time>
      </trkpt>
      <trkpt lat="44.32317" lon="0.76178">
        <ele>123</ele>
        <time>2025-10-12T14:20:46.518Z</time>
      </trkpt>
      <trkpt lat="44.32316" lon="0.76178">
        <ele>123</ele>
        <time>2025-10-12T14:20:47.518Z</time>
      </trkpt>
      <trkpt lat="44.32315" lon="0.76178">
        <ele>123</ele>
        <time>2025-10-12T14:20:48.518Z</time>
      </trkpt>
      <trkpt lat="44.32314" lon="0.76178">
        <ele>123</ele>
        <time>2025-10-12T14:20:49.518Z</time>
      </trkpt>
      <trkpt lat="44.32313" lon="0.76178">
        <ele>123</ele>
        <time>2025-10-12T14:20:50.518Z</time>
      </trkpt>
      <trkpt lat="44.32312" lon="0.76178">
        <ele>123</ele>
        <time>2025-10-12T14:20:51.518Z</time>
      </trkpt>
      <trkpt lat="44.32311" lon="0.76178">
        <ele>123</ele>
        <time>2025-10-12T14:20:52.518Z</time>
      </trkpt>
      <trkpt lat="44.3231" lon="0.76178">
        <ele>124</ele>
        <time>2025-10-12T14:20:53.518Z</time>
      </trkpt>
      <trkpt lat="44.32309" lon="0.76177">
        <ele>124</ele>
        <time>2025-10-12T14:20:54.518Z</time>
      </trkpt>
      <trkpt lat="44.32308" lon="0.76177">
        <ele>124</ele>
        <time>2025-10-12T14:20:55.518Z</time>
      </trkpt>
      <trkpt lat="44.32307" lon="0.76177">
        <ele>124</ele>
        <time>2025-10-12T14:20:56.518Z</time>
      </trkpt>
      <trkpt lat="44.32307" lon="0.76176">
        <ele>124</ele>
        <time>2025-10-12T14:20:57.518Z</time>
      </trkpt>
      <trkpt lat="44.32306" lon="0.76176">
        <ele>124</ele>
        <time>2025-10-12T14:20:58.518Z</time>
      </trkpt>
      <trkpt lat="44.32305" lon="0.76176">
        <ele>124</ele>
        <time>2025-10-12T14:20:59.518Z</time>
      </trkpt>
      <trkpt lat="44.32303" lon="0.76176">
        <ele>124</ele>
        <time>2025-10-12T14:21:00.518Z</time>
      </trkpt>
      <trkpt lat="44.32302" lon="0.76175">
        <ele>124</ele>
        <time>2025-10-12T14:21:01.518Z</time>
      </trkpt>
      <trkpt lat="44.32301" lon="0.76175">
        <ele>124</ele>
        <time>2025-10-12T14:21:02.518Z</time>
      </trkpt>
      <trkpt lat="44.323" lon="0.76174">
        <ele>125</ele>
        <time>2025-10-12T14:21:03.518Z</time>
      </trkpt>
      <trkpt lat="44.32299" lon="0.76174">
        <ele>125</ele>
        <time>2025-10-12T14:21:04.518Z</time>
      </trkpt>
      <trkpt lat="44.32298" lon="0.76173">
        <ele>125</ele>
        <time>2025-10-12T14:21:05.518Z</time>
      </trkpt>
      <trkpt lat="44.32298" lon="0.76173">
        <ele>126</ele>
        <time>2025-10-12T14:21:06.518Z</time>
      </trkpt>
      <trkpt lat="44.32297" lon="0.76172">
        <ele>126</ele>
        <time>2025-10-12T14:21:07.518Z</time>
      </trkpt>
      <trkpt lat="44.32296" lon="0.76172">
        <ele>126</ele>
        <time>2025-10-12T14:21:08.518Z</time>
      </trkpt>
      <trkpt lat="44.32295" lon="0.76172">
        <ele>127</ele>
        <time>2025-10-12T14:21:09.518Z</time>
      </trkpt>
      <trkpt lat="44.32294" lon="0.76172">
        <ele>127</ele>
        <time>2025-10-12T14:21:10.518Z</time>
      </trkpt>
      <trkpt lat="44.32293" lon="0.76172">
        <ele>127</ele>
        <time>2025-10-12T14:21:11.518Z</time>
      </trkpt>
      <trkpt lat="44.32292" lon="0.76171">
        <ele>127</ele>
        <time>2025-10-12T14:21:12.518Z</time>
      </trkpt>
      <trkpt lat="44.32291" lon="0.76171">
        <ele>127</ele>
        <time>2025-10-12T14:21:13.518Z</time>
      </trkpt>
      <trkpt lat="44.3229" lon="0.7617">
        <ele>127</ele>
        <time>2025-10-12T14:21:14.518Z</time>
      </trkpt>
      <trkpt lat="44.32289" lon="0.7617">
        <ele>128</ele>
        <time>2025-10-12T14:21:15.518Z</time>
      </trkpt>
      <trkpt lat="44.32288" lon="0.7617">
        <ele>128</ele>
        <time>2025-10-12T14:21:16.518Z</time>
      </trkpt>
      <trkpt lat="44.32287" lon="0.7617">
        <ele>129</ele>
        <time>2025-10-12T14:21:17.518Z</time>
      </trkpt>
      <trkpt lat="44.32286" lon="0.7617">
        <ele>129</ele>
        <time>2025-10-12T14:21:18.518Z</time>
      </trkpt>
      <trkpt lat="44.32285" lon="0.76169">
        <ele>129</ele>
        <time>2025-10-12T14:21:19.518Z</time>
      </trkpt>
      <trkpt lat="44.32284" lon="0.76169">
        <ele>129</ele>
        <time>2025-10-12T14:21:20.518Z</time>
      </trkpt>
      <trkpt lat="44.32283" lon="0.76169">
        <ele>130</ele>
        <time>2025-10-12T14:21:21.518Z</time>
      </trkpt>
      <trkpt lat="44.32282" lon="0.76169">
        <ele>130</ele>
        <time>2025-10-12T14:21:22.518Z</time>
      </trkpt>
      <trkpt lat="44.32281" lon="0.76168">
        <ele>130</ele>
        <time>2025-10-12T14:21:23.518Z</time>
      </trkpt>
      <trkpt lat="44.3228" lon="0.76168">
        <ele>130</ele>
        <time>2025-10-12T14:21:24.518Z</time>
      </trkpt>
      <trkpt lat="44.32279" lon="0.76168">
        <ele>130</ele>
        <time>2025-10-12T14:21:25.518Z</time>
      </trkpt>
      <trkpt lat="44.32278" lon="0.76167">
        <ele>130</ele>
        <time>2025-10-12T14:21:26.518Z</time>
      </trkpt>
      <trkpt lat="44.32277" lon="0.76166">
        <ele>130</ele>
        <time>2025-10-12T14:21:27.518Z</time>
      </trkpt>
      <trkpt lat="44.32276" lon="0.76165">
        <ele>131</ele>
        <time>2025-10-12T14:21:28.518Z</time>
      </trkpt>
      <trkpt lat="44.32275" lon="0.76164">
        <ele>131</ele>
        <time>2025-10-12T14:21:29.518Z</time>
      </trkpt>
      <trkpt lat="44.32273" lon="0.76164">
        <ele>131</ele>
        <time>2025-10-12T14:21:30.518Z</time>
      </trkpt>
      <trkpt lat="44.32272" lon="0.76163">
        <ele>131</ele>
        <time>2025-10-12T14:21:31.518Z</time>
      </trkpt>
      <trkpt lat="44.32271" lon="0.76163">
        <ele>131</ele>
        <time>2025-10-12T14:21:32.518Z</time>
      </trkpt>
      <trkpt lat="44.32271" lon="0.76162">
        <ele>131</ele>
        <time>2025-10-12T14:21:33.518Z</time>
      </trkpt>
      <trkpt lat="44.32269" lon="0.76162">
        <ele>132</ele>
        <time>2025-10-12T14:21:34.518Z</time>
      </trkpt>
      <trkpt lat="44.32267" lon="0.76161">
        <ele>132</ele>
        <time>2025-10-12T14:21:35.518Z</time>
      </trkpt>
      <trkpt lat="44.32266" lon="0.76161">
        <ele>132</ele>
        <time>2025-10-12T14:21:36.518Z</time>
      </trkpt>
      <trkpt lat="44.32265" lon="0.76161">
        <ele>132</ele>
        <time>2025-10-12T14:21:37.518Z</time>
      </trkpt>
      <trkpt lat="44.32264" lon="0.76161">
        <ele>133</ele>
        <time>2025-10-12T14:21:38.518Z</time>
      </trkpt>
      <trkpt lat="44.32264" lon="0.76162">
        <ele>133</ele>
        <time>2025-10-12T14:21:39.518Z</time>
      </trkpt>
      <trkpt lat="44.32262" lon="0.76162">
        <ele>133</ele>
        <time>2025-10-12T14:21:40.518Z</time>
      </trkpt>
      <trkpt lat="44.32261" lon="0.76161">
        <ele>134</ele>
        <time>2025-10-12T14:21:41.518Z</time>
      </trkpt>
      <trkpt lat="44.32261" lon="0.76161">
        <ele>134</ele>
        <time>2025-10-12T14:21:42.518Z</time>
      </trkpt>
      <trkpt lat="44.32259" lon="0.76161">
        <ele>134</ele>
        <time>2025-10-12T14:21:43.518Z</time>
      </trkpt>
      <trkpt lat="44.32258" lon="0.76161">
        <ele>135</ele>
        <time>2025-10-12T14:21:44.518Z</time>
      </trkpt>
      <trkpt lat="44.32257" lon="0.7616">
        <ele>135</ele>
        <time>2025-10-12T14:21:45.518Z</time>
      </trkpt>
      <trkpt lat="44.32256" lon="0.76159">
        <ele>135</ele>
        <time>2025-10-12T14:21:46.518Z</time>
      </trkpt>
      <trkpt lat="44.32255" lon="0.76158">
        <ele>135</ele>
        <time>2025-10-12T14:21:47.518Z</time>
      </trkpt>
      <trkpt lat="44.32254" lon="0.76157">
        <ele>135</ele>
        <time>2025-10-12T14:21:48.518Z</time>
      </trkpt>
      <trkpt lat="44.32254" lon="0.76157">
        <ele>135</ele>
        <time>2025-10-12T14:21:49.518Z</time>
      </trkpt>
      <trkpt lat="44.32253" lon="0.76157">
        <ele>134</ele>
        <time>2025-10-12T14:21:50.518Z</time>
      </trkpt>
      <trkpt lat="44.32252" lon="0.76156">
        <ele>134</ele>
        <time>2025-10-12T14:21:51.518Z</time>
      </trkpt>
      <trkpt lat="44.32251" lon="0.76156">
        <ele>134</ele>
        <time>2025-10-12T14:21:52.518Z</time>
      </trkpt>
      <trkpt lat="44.3225" lon="0.76156">
        <ele>134</ele>
        <time>2025-10-12T14:21:53.518Z</time>
      </trkpt>
      <trkpt lat="44.32249" lon="0.76155">
        <ele>134</ele>
        <time>2025-10-12T14:21:54.518Z</time>
      </trkpt>
      <trkpt lat="44.32248" lon="0.76155">
        <ele>134</ele>
        <time>2025-10-12T14:21:55.518Z</time>
      </trkpt>
      <trkpt lat="44.32247" lon="0.76154">
        <ele>134</ele>
        <time>2025-10-12T14:21:56.518Z</time>
      </trkpt>
      <trkpt lat="44.32246" lon="0.76152">
        <ele>134</ele>
        <time>2025-10-12T14:21:57.518Z</time>
      </trkpt>
      <trkpt lat="44.32245" lon="0.76152">
        <ele>134</ele>
        <time>2025-10-12T14:21:58.518Z</time>
      </trkpt>
      <trkpt lat="44.32244" lon="0.76151">
        <ele>134</ele>
        <time>2025-10-12T14:21:59.518Z</time>
      </trkpt>
      <trkpt lat="44.32243" lon="0.76151">
        <ele>134</ele>
        <time>2025-10-12T14:22:00.518Z</time>
      </trkpt>
      <trkpt lat="44.32242" lon="0.76151">
        <ele>134</ele>
        <time>2025-10-12T14:22:01.518Z</time>
      </trkpt>
      <trkpt lat="44.32241" lon="0.7615">
        <ele>134</ele>
        <time>2025-10-12T14:22:02.518Z</time>
      </trkpt>
      <trkpt lat="44.3224" lon="0.7615">
        <ele>134</ele>
        <time>2025-10-12T14:22:03.518Z</time>
      </trkpt>
      <trkpt lat="44.32239" lon="0.7615">
        <ele>134</ele>
        <time>2025-10-12T14:22:04.518Z</time>
      </trkpt>
      <trkpt lat="44.32238" lon="0.7615">
        <ele>134</ele>
        <time>2025-10-12T14:22:05.518Z</time>
      </trkpt>
      <trkpt lat="44.32237" lon="0.76149">
        <ele>134</ele>
        <time>2025-10-12T14:22:06.518Z</time>
      </trkpt>
      <trkpt lat="44.32236" lon="0.76149">
        <ele>135</ele>
        <time>2025-10-12T14:22:07.518Z</time>
      </trkpt>
      <trkpt lat="44.32235" lon="0.76149">
        <ele>135</ele>
        <time>2025-10-12T14:22:08.518Z</time>
      </trkpt>
      <trkpt lat="44.32234" lon="0.76149">
        <ele>135</ele>
        <time>2025-10-12T14:22:09.518Z</time>
      </trkpt>
      <trkpt lat="44.32232" lon="0.76148">
        <ele>134</ele>
        <time>2025-10-12T14:22:10.518Z</time>
      </trkpt>
      <trkpt lat="44.32232" lon="0.76148">
        <ele>134</ele>
        <time>2025-10-12T14:22:11.518Z</time>
      </trkpt>
      <trkpt lat="44.32231" lon="0.76147">
        <ele>134</ele>
        <time>2025-10-12T14:22:12.518Z</time>
      </trkpt>
      <trkpt lat="44.32229" lon="0.76147">
        <ele>134</ele>
        <time>2025-10-12T14:22:13.518Z</time>
      </trkpt>
      <trkpt lat="44.32228" lon="0.76146">
        <ele>134</ele>
        <time>2025-10-12T14:22:14.518Z</time>
      </trkpt>
      <trkpt lat="44.32227" lon="0.76146">
        <ele>134</ele>
        <time>2025-10-12T14:22:15.518Z</time>
      </trkpt>
      <trkpt lat="44.32225" lon="0.76147">
        <ele>134</ele>
        <time>2025-10-12T14:22:16.518Z</time>
      </trkpt>
      <trkpt lat="44.32224" lon="0.76146">
        <ele>135</ele>
        <time>2025-10-12T14:22:17.518Z</time>
      </trkpt>
      <trkpt lat="44.32222" lon="0.76145">
        <ele>135</ele>
        <time>2025-10-12T14:22:18.518Z</time>
      </trkpt>
      <trkpt lat="44.32221" lon="0.76144">
        <ele>135</ele>
        <time>2025-10-12T14:22:19.518Z</time>
      </trkpt>
      <trkpt lat="44.32219" lon="0.76142">
        <ele>135</ele>
        <time>2025-10-12T14:22:20.518Z</time>
      </trkpt>
      <trkpt lat="44.32217" lon="0.76141">
        <ele>135</ele>
        <time>2025-10-12T14:22:21.518Z</time>
      </trkpt>
      <trkpt lat="44.32216" lon="0.7614">
        <ele>136</ele>
        <time>2025-10-12T14:22:22.518Z</time>
      </trkpt>
      <trkpt lat="44.32216" lon="0.7614">
        <ele>136</ele>
        <time>2025-10-12T14:22:23.518Z</time>
      </trkpt>
      <trkpt lat="44.32215" lon="0.76139">
        <ele>136</ele>
        <time>2025-10-12T14:22:24.518Z</time>
      </trkpt>
      <trkpt lat="44.32214" lon="0.76139">
        <ele>136</ele>
        <time>2025-10-12T14:22:25.518Z</time>
      </trkpt>
      <trkpt lat="44.32212" lon="0.76139">
        <ele>136</ele>
        <time>2025-10-12T14:22:26.518Z</time>
      </trkpt>
      <trkpt lat="44.32211" lon="0.76139">
        <ele>136</ele>
        <time>2025-10-12T14:22:27.518Z</time>
      </trkpt>
      <trkpt lat="44.3221" lon="0.76138">
        <ele>137</ele>
        <time>2025-10-12T14:22:28.518Z</time>
      </trkpt>
      <trkpt lat="44.32209" lon="0.76137">
        <ele>137</ele>
        <time>2025-10-12T14:22:29.518Z</time>
      </trkpt>
      <trkpt lat="44.32207" lon="0.76137">
        <ele>137</ele>
        <time>2025-10-12T14:22:30.518Z</time>
      </trkpt>
      <trkpt lat="44.32206" lon="0.76136">
        <ele>137</ele>
        <time>2025-10-12T14:22:31.518Z</time>
      </trkpt>
      <trkpt lat="44.32205" lon="0.76136">
        <ele>138</ele>
        <time>2025-10-12T14:22:32.518Z</time>
      </trkpt>
      <trkpt lat="44.32204" lon="0.76136">
        <ele>138</ele>
        <time>2025-10-12T14:22:33.518Z</time>
      </trkpt>
      <trkpt lat="44.32202" lon="0.76135">
        <ele>139</ele>
        <time>2025-10-12T14:22:34.518Z</time>
      </trkpt>
      <trkpt lat="44.32201" lon="0.76135">
        <ele>139</ele>
        <time>2025-10-12T14:22:35.518Z</time>
      </trkpt>
      <trkpt lat="44.322" lon="0.76135">
        <ele>139</ele>
        <time>2025-10-12T14:22:36.518Z</time>
      </trkpt>
      <trkpt lat="44.32199" lon="0.76135">
        <ele>139</ele>
        <time>2025-10-12T14:22:37.518Z</time>
      </trkpt>
      <trkpt lat="44.32198" lon="0.76134">
        <ele>139</ele>
        <time>2025-10-12T14:22:38.518Z</time>
      </trkpt>
      <trkpt lat="44.32197" lon="0.76135">
        <ele>139</ele>
        <time>2025-10-12T14:22:39.518Z</time>
      </trkpt>
      <trkpt lat="44.32196" lon="0.76134">
        <ele>139</ele>
        <time>2025-10-12T14:22:40.518Z</time>
      </trkpt>
      <trkpt lat="44.32194" lon="0.76135">
        <ele>139</ele>
        <time>2025-10-12T14:22:41.518Z</time>
      </trkpt>
      <trkpt lat="44.32193" lon="0.76135">
        <ele>140</ele>
        <time>2025-10-12T14:22:42.518Z</time>
      </trkpt>
      <trkpt lat="44.32192" lon="0.76134">
        <ele>140</ele>
        <time>2025-10-12T14:22:43.518Z</time>
      </trkpt>
      <trkpt lat="44.32192" lon="0.76134">
        <ele>139</ele>
        <time>2025-10-12T14:22:44.518Z</time>
      </trkpt>
      <trkpt lat="44.32191" lon="0.76133">
        <ele>139</ele>
        <time>2025-10-12T14:22:45.518Z</time>
      </trkpt>
      <trkpt lat="44.32189" lon="0.76133">
        <ele>139</ele>
        <time>2025-10-12T14:22:46.518Z</time>
      </trkpt>
      <trkpt lat="44.32188" lon="0.76132">
        <ele>138</ele>
        <time>2025-10-12T14:22:47.518Z</time>
      </trkpt>
      <trkpt lat="44.32188" lon="0.76132">
        <ele>138</ele>
        <time>2025-10-12T14:22:48.518Z</time>
      </trkpt>
      <trkpt lat="44.32187" lon="0.76132">
        <ele>138</ele>
        <time>2025-10-12T14:22:49.518Z</time>
      </trkpt>
      <trkpt lat="44.32186" lon="0.76132">
        <ele>138</ele>
        <time>2025-10-12T14:22:50.518Z</time>
      </trkpt>
      <trkpt lat="44.32185" lon="0.76133">
        <ele>138</ele>
        <time>2025-10-12T14:22:51.518Z</time>
      </trkpt>
      <trkpt lat="44.32184" lon="0.76133">
        <ele>138</ele>
        <time>2025-10-12T14:22:52.518Z</time>
      </trkpt>
      <trkpt lat="44.32182" lon="0.76133">
        <ele>138</ele>
        <time>2025-10-12T14:22:53.518Z</time>
      </trkpt>
      <trkpt lat="44.32181" lon="0.76133">
        <ele>138</ele>
        <time>2025-10-12T14:22:54.518Z</time>
      </trkpt>
      <trkpt lat="44.3218" lon="0.76133">
        <ele>138</ele>
        <time>2025-10-12T14:22:55.518Z</time>
      </trkpt>
      <trkpt lat="44.32179" lon="0.76133">
        <ele>138</ele>
        <time>2025-10-12T14:22:56.518Z</time>
      </trkpt>
      <trkpt lat="44.32178" lon="0.76133">
        <ele>137</ele>
        <time>2025-10-12T14:22:57.518Z</time>
      </trkpt>
      <trkpt lat="44.32177" lon="0.76134">
        <ele>137</ele>
        <time>2025-10-12T14:22:58.518Z</time>
      </trkpt>
      <trkpt lat="44.32177" lon="0.76134">
        <ele>137</ele>
        <time>2025-10-12T14:22:59.518Z</time>
      </trkpt>
      <trkpt lat="44.32177" lon="0.76134">
        <ele>137</ele>
        <time>2025-10-12T14:23:00.518Z</time>
      </trkpt>
      <trkpt lat="44.32176" lon="0.76134">
        <ele>138</ele>
        <time>2025-10-12T14:23:01.518Z</time>
      </trkpt>
      <trkpt lat="44.32176" lon="0.76134">
        <ele>138</ele>
        <time>2025-10-12T14:23:02.518Z</time>
      </trkpt>
      <trkpt lat="44.32175" lon="0.76134">
        <ele>138</ele>
        <time>2025-10-12T14:23:03.518Z</time>
      </trkpt>
      <trkpt lat="44.32175" lon="0.76134">
        <ele>138</ele>
        <time>2025-10-12T14:23:04.518Z</time>
      </trkpt>
      <trkpt lat="44.32175" lon="0.76135">
        <ele>138</ele>
        <time>2025-10-12T14:23:05.518Z</time>
      </trkpt>
      <trkpt lat="44.32174" lon="0.76135">
        <ele>139</ele>
        <time>2025-10-12T14:23:06.518Z</time>
      </trkpt>
      <trkpt lat="44.32174" lon="0.76135">
        <ele>139</ele>
        <time>2025-10-12T14:23:07.518Z</time>
      </trkpt>
      <trkpt lat="44.32173" lon="0.76136">
        <ele>139</ele>
        <time>2025-10-12T14:23:08.518Z</time>
      </trkpt>
      <trkpt lat="44.32173" lon="0.76136">
        <ele>138</ele>
        <time>2025-10-12T14:23:09.518Z</time>
      </trkpt>
      <trkpt lat="44.32173" lon="0.76137">
        <ele>138</ele>
        <time>2025-10-12T14:23:10.518Z</time>
      </trkpt>
      <trkpt lat="44.32173" lon="0.76137">
        <ele>137</ele>
        <time>2025-10-12T14:23:11.518Z</time>
      </trkpt>
      <trkpt lat="44.32173" lon="0.76138">
        <ele>136</ele>
        <time>2025-10-12T14:23:12.518Z</time>
      </trkpt>
      <trkpt lat="44.32172" lon="0.76138">
        <ele>136</ele>
        <time>2025-10-12T14:23:13.518Z</time>
      </trkpt>
      <trkpt lat="44.32172" lon="0.76139">
        <ele>135</ele>
        <time>2025-10-12T14:23:14.518Z</time>
      </trkpt>
      <trkpt lat="44.32171" lon="0.76139">
        <ele>135</ele>
        <time>2025-10-12T14:23:15.518Z</time>
      </trkpt>
      <trkpt lat="44.32171" lon="0.7614">
        <ele>134</ele>
        <time>2025-10-12T14:23:16.518Z</time>
      </trkpt>
      <trkpt lat="44.3217" lon="0.7614">
        <ele>134</ele>
        <time>2025-10-12T14:23:17.518Z</time>
      </trkpt>
      <trkpt lat="44.3217" lon="0.76141">
        <ele>134</ele>
        <time>2025-10-12T14:23:18.518Z</time>
      </trkpt>
      <trkpt lat="44.3217" lon="0.76142">
        <ele>134</ele>
        <time>2025-10-12T14:23:19.518Z</time>
      </trkpt>
      <trkpt lat="44.3217" lon="0.76142">
        <ele>134</ele>
        <time>2025-10-12T14:23:20.518Z</time>
      </trkpt>
      <trkpt lat="44.3217" lon="0.76142">
        <ele>134</ele>
        <time>2025-10-12T14:23:21.518Z</time>
      </trkpt>
      <trkpt lat="44.3217" lon="0.76143">
        <ele>133</ele>
        <time>2025-10-12T14:23:22.518Z</time>
      </trkpt>
      <trkpt lat="44.3217" lon="0.76143">
        <ele>133</ele>
        <time>2025-10-12T14:23:23.518Z</time>
      </trkpt>
      <trkpt lat="44.3217" lon="0.76143">
        <ele>133</ele>
        <time>2025-10-12T14:23:24.518Z</time>
      </trkpt>
      <trkpt lat="44.3217" lon="0.76143">
        <ele>134</ele>
        <time>2025-10-12T14:23:25.518Z</time>
      </trkpt>
      <trkpt lat="44.3217" lon="0.76143">
        <ele>133</ele>
        <time>2025-10-12T14:23:26.518Z</time>
      </trkpt>
      <trkpt lat="44.3217" lon="0.76143">
        <ele>133</ele>
        <time>2025-10-12T14:23:27.518Z</time>
      </trkpt>
      <trkpt lat="44.32169" lon="0.76143">
        <ele>133</ele>
        <time>2025-10-12T14:23:28.518Z</time>
      </trkpt>
      <trkpt lat="44.32169" lon="0.76142">
        <ele>133</ele>
        <time>2025-10-12T14:23:29.518Z</time>
      </trkpt>
      <trkpt lat="44.32169" lon="0.76142">
        <ele>132</ele>
        <time>2025-10-12T14:23:30.518Z</time>
      </trkpt>
      <trkpt lat="44.32169" lon="0.76142">
        <ele>132</ele>
        <time>2025-10-12T14:23:31.518Z</time>
      </trkpt>
      <trkpt lat="44.32168" lon="0.76142">
        <ele>133</ele>
        <time>2025-10-12T14:23:32.518Z</time>
      </trkpt>
      <trkpt lat="44.32168" lon="0.76142">
        <ele>134</ele>
        <time>2025-10-12T14:23:33.518Z</time>
      </trkpt>
      <trkpt lat="44.32168" lon="0.76142">
        <ele>134</ele>
        <time>2025-10-12T14:23:34.518Z</time>
      </trkpt>
      <trkpt lat="44.32168" lon="0.76142">
        <ele>135</ele>
        <time>2025-10-12T14:23:35.518Z</time>
      </trkpt>
      <trkpt lat="44.32168" lon="0.76143">
        <ele>136</ele>
        <time>2025-10-12T14:23:36.518Z</time>
      </trkpt>
      <trkpt lat="44.32168" lon="0.76143">
        <ele>136</ele>
        <time>2025-10-12T14:23:37.518Z</time>
      </trkpt>
      <trkpt lat="44.32168" lon="0.76143">
        <ele>137</ele>
        <time>2025-10-12T14:23:38.518Z</time>
      </trkpt>
      <trkpt lat="44.32168" lon="0.76142">
        <ele>137</ele>
        <time>2025-10-12T14:23:39.518Z</time>
      </trkpt>
      <trkpt lat="44.32168" lon="0.76142">
        <ele>137</ele>
        <time>2025-10-12T14:23:40.518Z</time>
      </trkpt>
      <trkpt lat="44.32168" lon="0.76142">
        <ele>138</ele>
        <time>2025-10-12T14:23:41.518Z</time>
      </trkpt>
      <trkpt lat="44.32168" lon="0.76142">
        <ele>138</ele>
        <time>2025-10-12T14:23:42.518Z</time>
      </trkpt>
      <trkpt lat="44.32168" lon="0.76142">
        <ele>138</ele>
        <time>2025-10-12T14:23:43.518Z</time>
      </trkpt>
      <trkpt lat="44.32168" lon="0.76142">
        <ele>139</ele>
        <time>2025-10-12T14:23:44.518Z</time>
      </trkpt>
      <trkpt lat="44.32168" lon="0.76142">
        <ele>139</ele>
        <time>2025-10-12T14:23:45.518Z</time>
      </trkpt>
      <trkpt lat="44.32168" lon="0.76142">
        <ele>139</ele>
        <time>2025-10-12T14:23:46.518Z</time>
      </trkpt>
      <trkpt lat="44.32168" lon="0.76142">
        <ele>139</ele>
        <time>2025-10-12T14:23:47.518Z</time>
      </trkpt>
      <trkpt lat="44.32168" lon="0.76142">
        <ele>139</ele>
        <time>2025-10-12T14:23:48.518Z</time>
      </trkpt>
      <trkpt lat="44.32167" lon="0.76142">
        <ele>138</ele>
        <time>2025-10-12T14:23:49.518Z</time>
      </trkpt>
      <trkpt lat="44.32168" lon="0.76142">
        <ele>138</ele>
        <time>2025-10-12T14:23:50.518Z</time>
      </trkpt>
      <trkpt lat="44.32168" lon="0.76142">
        <ele>138</ele>
        <time>2025-10-12T14:23:51.518Z</time>
      </trkpt>
      <trkpt lat="44.32168" lon="0.76142">
        <ele>138</ele>
        <time>2025-10-12T14:23:52.518Z</time>
      </trkpt>
      <trkpt lat="44.32168" lon="0.76143">
        <ele>138</ele>
        <time>2025-10-12T14:23:53.518Z</time>
      </trkpt>
      <trkpt lat="44.32168" lon="0.76143">
        <ele>138</ele>
        <time>2025-10-12T14:23:54.518Z</time>
      </trkpt>
      <trkpt lat="44.32168" lon="0.76143">
        <ele>138</ele>
        <time>2025-10-12T14:23:55.518Z</time>
      </trkpt>
      <trkpt lat="44.32167" lon="0.76143">
        <ele>138</ele>
        <time>2025-10-12T14:23:56.518Z</time>
      </trkpt>
      <trkpt lat="44.32167" lon="0.76143">
        <ele>137</ele>
        <time>2025-10-12T14:23:57.518Z</time>
      </trkpt>
      <trkpt lat="44.32167" lon="0.76143">
        <ele>138</ele>
        <time>2025-10-12T14:23:58.518Z</time>
      </trkpt>
      <trkpt lat="44.32167" lon="0.76143">
        <ele>138</ele>
        <time>2025-10-12T14:23:59.518Z</time>
      </trkpt>
      <trkpt lat="44.32168" lon="0.76143">
        <ele>138</ele>
        <time>2025-10-12T14:24:00.518Z</time>
      </trkpt>
      <trkpt lat="44.32168" lon="0.76143">
        <ele>138</ele>
        <time>2025-10-12T14:24:01.518Z</time>
      </trkpt>
      <trkpt lat="44.32167" lon="0.76143">
        <ele>138</ele>
        <time>2025-10-12T14:24:02.518Z</time>
      </trkpt>
      <trkpt lat="44.32167" lon="0.76143">
        <ele>138</ele>
        <time>2025-10-12T14:24:03.518Z</time>
      </trkpt>
      <trkpt lat="44.32167" lon="0.76143">
        <ele>138</ele>
        <time>2025-10-12T14:24:04.518Z</time>
      </trkpt>
      <trkpt lat="44.32167" lon="0.76143">
        <ele>138</ele>
        <time>2025-10-12T14:24:05.518Z</time>
      </trkpt>
      <trkpt lat="44.32166" lon="0.76143">
        <ele>137</ele>
        <time>2025-10-12T14:24:06.518Z</time>
      </trkpt>
      <trkpt lat="44.32166" lon="0.76144">
        <ele>137</ele>
        <time>2025-10-12T14:24:07.518Z</time>
      </trkpt>
      <trkpt lat="44.32166" lon="0.76143">
        <ele>137</ele>
        <time>2025-10-12T14:24:08.518Z</time>
      </trkpt>
      <trkpt lat="44.32166" lon="0.76143">
        <ele>136</ele>
        <time>2025-10-12T14:24:09.518Z</time>
      </trkpt>
      <trkpt lat="44.32166" lon="0.76143">
        <ele>136</ele>
        <time>2025-10-12T14:24:10.518Z</time>
      </trkpt>
      <trkpt lat="44.32166" lon="0.76143">
        <ele>135</ele>
        <time>2025-10-12T14:24:11.518Z</time>
      </trkpt>
      <trkpt lat="44.32166" lon="0.76143">
        <ele>135</ele>
        <time>2025-10-12T14:24:12.518Z</time>
      </trkpt>
      <trkpt lat="44.32166" lon="0.76143">
        <ele>135</ele>
        <time>2025-10-12T14:24:13.518Z</time>
      </trkpt>
      <trkpt lat="44.32166" lon="0.76143">
        <ele>135</ele>
        <time>2025-10-12T14:24:14.518Z</time>
      </trkpt>
      <trkpt lat="44.32166" lon="0.76143">
        <ele>136</ele>
        <time>2025-10-12T14:24:15.518Z</time>
      </trkpt>
      <trkpt lat="44.32165" lon="0.76143">
        <ele>136</ele>
        <time>2025-10-12T14:24:16.518Z</time>
      </trkpt>
      <trkpt lat="44.32165" lon="0.76143">
        <ele>136</ele>
        <time>2025-10-12T14:24:17.518Z</time>
      </trkpt>
      <trkpt lat="44.32165" lon="0.76143">
        <ele>137</ele>
        <time>2025-10-12T14:24:18.518Z</time>
      </trkpt>
      <trkpt lat="44.32165" lon="0.76143">
        <ele>137</ele>
        <time>2025-10-12T14:24:19.518Z</time>
      </trkpt>
      <trkpt lat="44.32165" lon="0.76143">
        <ele>137</ele>
        <time>2025-10-12T14:24:20.518Z</time>
      </trkpt>
      <trkpt lat="44.32165" lon="0.76143">
        <ele>138</ele>
        <time>2025-10-12T14:24:21.518Z</time>
      </trkpt>
      <trkpt lat="44.32165" lon="0.76143">
        <ele>138</ele>
        <time>2025-10-12T14:24:22.518Z</time>
      </trkpt>
      <trkpt lat="44.32165" lon="0.76143">
        <ele>138</ele>
        <time>2025-10-12T14:24:23.518Z</time>
      </trkpt>
      <trkpt lat="44.32165" lon="0.76142">
        <ele>138</ele>
        <time>2025-10-12T14:24:24.518Z</time>
      </trkpt>
      <trkpt lat="44.32165" lon="0.76142">
        <ele>138</ele>
        <time>2025-10-12T14:24:25.518Z</time>
      </trkpt>
      <trkpt lat="44.32165" lon="0.76142">
        <ele>138</ele>
        <time>2025-10-12T14:24:26.518Z</time>
      </trkpt>
      <trkpt lat="44.32165" lon="0.76142">
        <ele>138</ele>
        <time>2025-10-12T14:24:27.518Z</time>
      </trkpt>
      <trkpt lat="44.32165" lon="0.76141">
        <ele>139</ele>
        <time>2025-10-12T14:24:28.518Z</time>
      </trkpt>
      <trkpt lat="44.32165" lon="0.7614">
        <ele>139</ele>
        <time>2025-10-12T14:24:29.518Z</time>
      </trkpt>
      <trkpt lat="44.32165" lon="0.7614">
        <ele>140</ele>
        <time>2025-10-12T14:24:30.518Z</time>
      </trkpt>
      <trkpt lat="44.32165" lon="0.7614">
        <ele>140</ele>
        <time>2025-10-12T14:24:31.518Z</time>
      </trkpt>
      <trkpt lat="44.32165" lon="0.7614">
        <ele>140</ele>
        <time>2025-10-12T14:24:32.518Z</time>
      </trkpt>
      <trkpt lat="44.32165" lon="0.7614">
        <ele>141</ele>
        <time>2025-10-12T14:24:33.518Z</time>
      </trkpt>
      <trkpt lat="44.32165" lon="0.7614">
        <ele>141</ele>
        <time>2025-10-12T14:24:34.518Z</time>
      </trkpt>
      <trkpt lat="44.32165" lon="0.7614">
        <ele>142</ele>
        <time>2025-10-12T14:24:35.518Z</time>
      </trkpt>
      <trkpt lat="44.32165" lon="0.7614">
        <ele>142</ele>
        <time>2025-10-12T14:24:36.518Z</time>
      </trkpt>
      <trkpt lat="44.32165" lon="0.7614">
        <ele>141</ele>
        <time>2025-10-12T14:24:37.518Z</time>
      </trkpt>
      <trkpt lat="44.32165" lon="0.7614">
        <ele>141</ele>
        <time>2025-10-12T14:24:38.518Z</time>
      </trkpt>
      <trkpt lat="44.32166" lon="0.7614">
        <ele>141</ele>
        <time>2025-10-12T14:24:39.518Z</time>
      </trkpt>
      <trkpt lat="44.32166" lon="0.7614">
        <ele>141</ele>
        <time>2025-10-12T14:24:40.518Z</time>
      </trkpt>
      <trkpt lat="44.32166" lon="0.7614">
        <ele>141</ele>
        <time>2025-10-12T14:24:41.518Z</time>
      </trkpt>
      <trkpt lat="44.32166" lon="0.7614">
        <ele>141</ele>
        <time>2025-10-12T14:24:42.518Z</time>
      </trkpt>
      <trkpt lat="44.32166" lon="0.7614">
        <ele>141</ele>
        <time>2025-10-12T14:24:43.518Z</time>
      </trkpt>
      <trkpt lat="44.32166" lon="0.76141">
        <ele>141</ele>
        <time>2025-10-12T14:24:44.518Z</time>
      </trkpt>
      <trkpt lat="44.32167" lon="0.76141">
        <ele>141</ele>
        <time>2025-10-12T14:24:45.518Z</time>
      </trkpt>
      <trkpt lat="44.32167" lon="0.76141">
        <ele>141</ele>
        <time>2025-10-12T14:24:46.518Z</time>
      </trkpt>
      <trkpt lat="44.32167" lon="0.76142">
        <ele>141</ele>
        <time>2025-10-12T14:24:47.518Z</time>
      </trkpt>
      <trkpt lat="44.32167" lon="0.76142">
        <ele>141</ele>
        <time>2025-10-12T14:24:48.518Z</time>
      </trkpt>
      <trkpt lat="44.32167" lon="0.76142">
        <ele>141</ele>
        <time>2025-10-12T14:24:49.518Z</time>
      </trkpt>
      <trkpt lat="44.32167" lon="0.76142">
        <ele>140</ele>
        <time>2025-10-12T14:24:50.518Z</time>
      </trkpt>
      <trkpt lat="44.32167" lon="0.76143">
        <ele>140</ele>
        <time>2025-10-12T14:24:51.518Z</time>
      </trkpt>
      <trkpt lat="44.32168" lon="0.76143">
        <ele>140</ele>
        <time>2025-10-12T14:24:52.518Z</time>
      </trkpt>
      <trkpt lat="44.32168" lon="0.76143">
        <ele>139</ele>
        <time>2025-10-12T14:24:53.518Z</time>
      </trkpt>
      <trkpt lat="44.32169" lon="0.76145">
        <ele>140</ele>
        <time>2025-10-12T14:24:54.518Z</time>
      </trkpt>
      <trkpt lat="44.32169" lon="0.76147">
        <ele>140</ele>
        <time>2025-10-12T14:24:55.518Z</time>
      </trkpt>
      <trkpt lat="44.32169" lon="0.76147">
        <ele>140</ele>
        <time>2025-10-12T14:24:56.518Z</time>
      </trkpt>
      <trkpt lat="44.32169" lon="0.76147">
        <ele>140</ele>
        <time>2025-10-12T14:24:57.518Z</time>
      </trkpt>
      <trkpt lat="44.32169" lon="0.76147">
        <ele>140</ele>
        <time>2025-10-12T14:24:58.518Z</time>
      </trkpt>
      <trkpt lat="44.32169" lon="0.76147">
        <ele>139</ele>
        <time>2025-10-12T14:24:59.518Z</time>
      </trkpt>
      <trkpt lat="44.32169" lon="0.76148">
        <ele>140</ele>
        <time>2025-10-12T14:25:00.518Z</time>
      </trkpt>
      <trkpt lat="44.32169" lon="0.76148">
        <ele>140</ele>
        <time>2025-10-12T14:25:01.518Z</time>
      </trkpt>
      <trkpt lat="44.32169" lon="0.76148">
        <ele>140</ele>
        <time>2025-10-12T14:25:02.518Z</time>
      </trkpt>
      <trkpt lat="44.32169" lon="0.76148">
        <ele>140</ele>
        <time>2025-10-12T14:25:03.518Z</time>
      </trkpt>
      <trkpt lat="44.32169" lon="0.76148">
        <ele>140</ele>
        <time>2025-10-12T14:25:04.518Z</time>
      </trkpt>
      <trkpt lat="44.32169" lon="0.76148">
        <ele>140</ele>
        <time>2025-10-12T14:25:05.518Z</time>
      </trkpt>
      <trkpt lat="44.32169" lon="0.76148">
        <ele>140</ele>
        <time>2025-10-12T14:25:06.518Z</time>
      </trkpt>
      <trkpt lat="44.32169" lon="0.76148">
        <ele>139</ele>
        <time>2025-10-12T14:25:07.518Z</time>
      </trkpt>
      <trkpt lat="44.32169" lon="0.76148">
        <ele>139</ele>
        <time>2025-10-12T14:25:08.518Z</time>
      </trkpt>
      <trkpt lat="44.32169" lon="0.76148">
        <ele>140</ele>
        <time>2025-10-12T14:25:09.518Z</time>
      </trkpt>
      <trkpt lat="44.32169" lon="0.76148">
        <ele>140</ele>
        <time>2025-10-12T14:25:10.518Z</time>
      </trkpt>
      <trkpt lat="44.32169" lon="0.76148">
        <ele>140</ele>
        <time>2025-10-12T14:25:11.518Z</time>
      </trkpt>
      <trkpt lat="44.32169" lon="0.76148">
        <ele>140</ele>
        <time>2025-10-12T14:25:12.518Z</time>
      </trkpt>
      <trkpt lat="44.32169" lon="0.76148">
        <ele>140</ele>
        <time>2025-10-12T14:25:13.518Z</time>
      </trkpt>
      <trkpt lat="44.32168" lon="0.76148">
        <ele>140</ele>
        <time>2025-10-12T14:25:14.518Z</time>
      </trkpt>
      <trkpt lat="44.32169" lon="0.76148">
        <ele>140</ele>
        <time>2025-10-12T14:25:15.518Z</time>
      </trkpt>
      <trkpt lat="44.32169" lon="0.76148">
        <ele>140</ele>
        <time>2025-10-12T14:25:16.518Z</time>
      </trkpt>
      <trkpt lat="44.32169" lon="0.76148">
        <ele>140</ele>
        <time>2025-10-12T14:25:17.518Z</time>
      </trkpt>
      <trkpt lat="44.32169" lon="0.76148">
        <ele>139</ele>
        <time>2025-10-12T14:25:18.518Z</time>
      </trkpt>
      <trkpt lat="44.32169" lon="0.76148">
        <ele>139</ele>
        <time>2025-10-12T14:25:19.518Z</time>
      </trkpt>
      <trkpt lat="44.32169" lon="0.76148">
        <ele>140</ele>
        <time>2025-10-12T14:25:20.518Z</time>
      </trkpt>
      <trkpt lat="44.32169" lon="0.76148">
        <ele>140</ele>
        <time>2025-10-12T14:25:21.518Z</time>
      </trkpt>
      <trkpt lat="44.32169" lon="0.76148">
        <ele>140</ele>
        <time>2025-10-12T14:25:22.518Z</time>
      </trkpt>
      <trkpt lat="44.32169" lon="0.76147">
        <ele>140</ele>
        <time>2025-10-12T14:25:23.518Z</time>
      </trkpt>
      <trkpt lat="44.32169" lon="0.76147">
        <ele>140</ele>
        <time>2025-10-12T14:25:24.518Z</time>
      </trkpt>
      <trkpt lat="44.32168" lon="0.76147">
        <ele>140</ele>
        <time>2025-10-12T14:25:25.518Z</time>
      </trkpt>
      <trkpt lat="44.32168" lon="0.76147">
        <ele>140</ele>
        <time>2025-10-12T14:25:26.518Z</time>
      </trkpt>
      <trkpt lat="44.32168" lon="0.76147">
        <ele>140</ele>
        <time>2025-10-12T14:25:27.518Z</time>
      </trkpt>
      <trkpt lat="44.32168" lon="0.76147">
        <ele>140</ele>
        <time>2025-10-12T14:25:28.518Z</time>
      </trkpt>
      <trkpt lat="44.32168" lon="0.76147">
        <ele>140</ele>
        <time>2025-10-12T14:25:29.518Z</time>
      </trkpt>
      <trkpt lat="44.32168" lon="0.76147">
        <ele>140</ele>
        <time>2025-10-12T14:25:30.518Z</time>
      </trkpt>
      <trkpt lat="44.32168" lon="0.76147">
        <ele>140</ele>
        <time>2025-10-12T14:25:31.518Z</time>
      </trkpt>
      <trkpt lat="44.32169" lon="0.76147">
        <ele>139</ele>
        <time>2025-10-12T14:25:32.518Z</time>
      </trkpt>
      <trkpt lat="44.32169" lon="0.76147">
        <ele>139</ele>
        <time>2025-10-12T14:25:33.518Z</time>
      </trkpt>
      <trkpt lat="44.32169" lon="0.76148">
        <ele>139</ele>
        <time>2025-10-12T14:25:34.518Z</time>
      </trkpt>
      <trkpt lat="44.32169" lon="0.76148">
        <ele>138</ele>
        <time>2025-10-12T14:25:35.518Z</time>
      </trkpt>
      <trkpt lat="44.32169" lon="0.76148">
        <ele>138</ele>
        <time>2025-10-12T14:25:36.518Z</time>
      </trkpt>
      <trkpt lat="44.32169" lon="0.76148">
        <ele>138</ele>
        <time>2025-10-12T14:25:37.518Z</time>
      </trkpt>
      <trkpt lat="44.3217" lon="0.76148">
        <ele>137</ele>
        <time>2025-10-12T14:25:38.518Z</time>
      </trkpt>
      <trkpt lat="44.3217" lon="0.76148">
        <ele>137</ele>
        <time>2025-10-12T14:25:39.518Z</time>
      </trkpt>
      <trkpt lat="44.3217" lon="0.76147">
        <ele>137</ele>
        <time>2025-10-12T14:25:40.518Z</time>
      </trkpt>
      <trkpt lat="44.3217" lon="0.76147">
        <ele>137</ele>
        <time>2025-10-12T14:25:41.518Z</time>
      </trkpt>
      <trkpt lat="44.32171" lon="0.76147">
        <ele>138</ele>
        <time>2025-10-12T14:25:42.518Z</time>
      </trkpt>
      <trkpt lat="44.32172" lon="0.76148">
        <ele>138</ele>
        <time>2025-10-12T14:25:43.518Z</time>
      </trkpt>
      <trkpt lat="44.32174" lon="0.76149">
        <ele>137</ele>
        <time>2025-10-12T14:25:44.518Z</time>
      </trkpt>
      <trkpt lat="44.32174" lon="0.76149">
        <ele>137</ele>
        <time>2025-10-12T14:25:45.518Z</time>
      </trkpt>
      <trkpt lat="44.32175" lon="0.76151">
        <ele>137</ele>
        <time>2025-10-12T14:25:46.518Z</time>
      </trkpt>
      <trkpt lat="44.32176" lon="0.76151">
        <ele>137</ele>
        <time>2025-10-12T14:25:47.518Z</time>
      </trkpt>
      <trkpt lat="44.32177" lon="0.76152">
        <ele>137</ele>
        <time>2025-10-12T14:25:48.518Z</time>
      </trkpt>
      <trkpt lat="44.32178" lon="0.76153">
        <ele>138</ele>
        <time>2025-10-12T14:25:49.518Z</time>
      </trkpt>
      <trkpt lat="44.32179" lon="0.76154">
        <ele>138</ele>
        <time>2025-10-12T14:25:50.518Z</time>
      </trkpt>
      <trkpt lat="44.32179" lon="0.76154">
        <ele>138</ele>
        <time>2025-10-12T14:25:51.518Z</time>
      </trkpt>
      <trkpt lat="44.32179" lon="0.76155">
        <ele>138</ele>
        <time>2025-10-12T14:25:52.518Z</time>
      </trkpt>
      <trkpt lat="44.32179" lon="0.76156">
        <ele>138</ele>
        <time>2025-10-12T14:25:53.518Z</time>
      </trkpt>
      <trkpt lat="44.3218" lon="0.76156">
        <ele>138</ele>
        <time>2025-10-12T14:25:54.518Z</time>
      </trkpt>
      <trkpt lat="44.3218" lon="0.76157">
        <ele>138</ele>
        <time>2025-10-12T14:25:55.518Z</time>
      </trkpt>
      <trkpt lat="44.32181" lon="0.76157">
        <ele>138</ele>
        <time>2025-10-12T14:25:56.518Z</time>
      </trkpt>
      <trkpt lat="44.32182" lon="0.76158">
        <ele>138</ele>
        <time>2025-10-12T14:25:57.518Z</time>
      </trkpt>
      <trkpt lat="44.32182" lon="0.76159">
        <ele>138</ele>
        <time>2025-10-12T14:25:58.518Z</time>
      </trkpt>
      <trkpt lat="44.32182" lon="0.76161">
        <ele>138</ele>
        <time>2025-10-12T14:25:59.518Z</time>
      </trkpt>
      <trkpt lat="44.32183" lon="0.76163">
        <ele>138</ele>
        <time>2025-10-12T14:26:00.518Z</time>
      </trkpt>
      <trkpt lat="44.32182" lon="0.76165">
        <ele>138</ele>
        <time>2025-10-12T14:26:01.518Z</time>
      </trkpt>
      <trkpt lat="44.32182" lon="0.76168">
        <ele>138</ele>
        <time>2025-10-12T14:26:02.518Z</time>
      </trkpt>
      <trkpt lat="44.32182" lon="0.76169">
        <ele>138</ele>
        <time>2025-10-12T14:26:03.518Z</time>
      </trkpt>
      <trkpt lat="44.32182" lon="0.76171">
        <ele>137</ele>
        <time>2025-10-12T14:26:04.518Z</time>
      </trkpt>
      <trkpt lat="44.32182" lon="0.76172">
        <ele>137</ele>
        <time>2025-10-12T14:26:05.518Z</time>
      </trkpt>
      <trkpt lat="44.32182" lon="0.76173">
        <ele>137</ele>
        <time>2025-10-12T14:26:06.518Z</time>
      </trkpt>
      <trkpt lat="44.32181" lon="0.76174">
        <ele>137</ele>
        <time>2025-10-12T14:26:07.518Z</time>
      </trkpt>
      <trkpt lat="44.3218" lon="0.76175">
        <ele>136</ele>
        <time>2025-10-12T14:26:08.518Z</time>
      </trkpt>
      <trkpt lat="44.32179" lon="0.76177">
        <ele>136</ele>
        <time>2025-10-12T14:26:09.518Z</time>
      </trkpt>
      <trkpt lat="44.32178" lon="0.76178">
        <ele>136</ele>
        <time>2025-10-12T14:26:10.518Z</time>
      </trkpt>
      <trkpt lat="44.32176" lon="0.7618">
        <ele>135</ele>
        <time>2025-10-12T14:26:11.518Z</time>
      </trkpt>
      <trkpt lat="44.32175" lon="0.76181">
        <ele>135</ele>
        <time>2025-10-12T14:26:12.518Z</time>
      </trkpt>
      <trkpt lat="44.32173" lon="0.76182">
        <ele>134</ele>
        <time>2025-10-12T14:26:13.518Z</time>
      </trkpt>
      <trkpt lat="44.32171" lon="0.76183">
        <ele>134</ele>
        <time>2025-10-12T14:26:14.518Z</time>
      </trkpt>
      <trkpt lat="44.3217" lon="0.76182">
        <ele>134</ele>
        <time>2025-10-12T14:26:15.518Z</time>
      </trkpt>
      <trkpt lat="44.32168" lon="0.76183">
        <ele>134</ele>
        <time>2025-10-12T14:26:16.518Z</time>
      </trkpt>
      <trkpt lat="44.32167" lon="0.76184">
        <ele>134</ele>
        <time>2025-10-12T14:26:17.518Z</time>
      </trkpt>
      <trkpt lat="44.32165" lon="0.76185">
        <ele>134</ele>
        <time>2025-10-12T14:26:18.518Z</time>
      </trkpt>
      <trkpt lat="44.32164" lon="0.76185">
        <ele>134</ele>
        <time>2025-10-12T14:26:19.518Z</time>
      </trkpt>
      <trkpt lat="44.32163" lon="0.76186">
        <ele>134</ele>
        <time>2025-10-12T14:26:20.518Z</time>
      </trkpt>
      <trkpt lat="44.32163" lon="0.76186">
        <ele>134</ele>
        <time>2025-10-12T14:26:21.518Z</time>
      </trkpt>
      <trkpt lat="44.32162" lon="0.76187">
        <ele>134</ele>
        <time>2025-10-12T14:26:22.518Z</time>
      </trkpt>
      <trkpt lat="44.32161" lon="0.76188">
        <ele>134</ele>
        <time>2025-10-12T14:26:23.518Z</time>
      </trkpt>
      <trkpt lat="44.3216" lon="0.76188">
        <ele>134</ele>
        <time>2025-10-12T14:26:24.518Z</time>
      </trkpt>
      <trkpt lat="44.32159" lon="0.76189">
        <ele>134</ele>
        <time>2025-10-12T14:26:25.518Z</time>
      </trkpt>
      <trkpt lat="44.32158" lon="0.7619">
        <ele>134</ele>
        <time>2025-10-12T14:26:26.518Z</time>
      </trkpt>
      <trkpt lat="44.32157" lon="0.76192">
        <ele>134</ele>
        <time>2025-10-12T14:26:27.518Z</time>
      </trkpt>
      <trkpt lat="44.32156" lon="0.76194">
        <ele>134</ele>
        <time>2025-10-12T14:26:28.518Z</time>
      </trkpt>
      <trkpt lat="44.32154" lon="0.76195">
        <ele>134</ele>
        <time>2025-10-12T14:26:29.518Z</time>
      </trkpt>
      <trkpt lat="44.32153" lon="0.76196">
        <ele>134</ele>
        <time>2025-10-12T14:26:30.518Z</time>
      </trkpt>
      <trkpt lat="44.32152" lon="0.76197">
        <ele>134</ele>
        <time>2025-10-12T14:26:31.518Z</time>
      </trkpt>
      <trkpt lat="44.32151" lon="0.76198">
        <ele>133</ele>
        <time>2025-10-12T14:26:32.518Z</time>
      </trkpt>
      <trkpt lat="44.3215" lon="0.76198">
        <ele>133</ele>
        <time>2025-10-12T14:26:33.518Z</time>
      </trkpt>
      <trkpt lat="44.32149" lon="0.76199">
        <ele>133</ele>
        <time>2025-10-12T14:26:34.518Z</time>
      </trkpt>
      <trkpt lat="44.32148" lon="0.76199">
        <ele>133</ele>
        <time>2025-10-12T14:26:35.518Z</time>
      </trkpt>
      <trkpt lat="44.32147" lon="0.762">
        <ele>133</ele>
        <time>2025-10-12T14:26:36.518Z</time>
      </trkpt>
      <trkpt lat="44.32147" lon="0.762">
        <ele>133</ele>
        <time>2025-10-12T14:26:37.518Z</time>
      </trkpt>
      <trkpt lat="44.32146" lon="0.762">
        <ele>133</ele>
        <time>2025-10-12T14:26:38.518Z</time>
      </trkpt>
      <trkpt lat="44.32146" lon="0.762">
        <ele>133</ele>
        <time>2025-10-12T14:26:39.518Z</time>
      </trkpt>
      <trkpt lat="44.32146" lon="0.76199">
        <ele>132</ele>
        <time>2025-10-12T14:26:40.518Z</time>
      </trkpt>
      <trkpt lat="44.32146" lon="0.76199">
        <ele>132</ele>
        <time>2025-10-12T14:26:41.518Z</time>
      </trkpt>
      <trkpt lat="44.32146" lon="0.76199">
        <ele>132</ele>
        <time>2025-10-12T14:26:42.518Z</time>
      </trkpt>
      <trkpt lat="44.32146" lon="0.76199">
        <ele>131</ele>
        <time>2025-10-12T14:26:43.518Z</time>
      </trkpt>
      <trkpt lat="44.32146" lon="0.76199">
        <ele>131</ele>
        <time>2025-10-12T14:26:44.518Z</time>
      </trkpt>
      <trkpt lat="44.32145" lon="0.762">
        <ele>131</ele>
        <time>2025-10-12T14:26:45.518Z</time>
      </trkpt>
      <trkpt lat="44.32144" lon="0.76201">
        <ele>130</ele>
        <time>2025-10-12T14:26:46.518Z</time>
      </trkpt>
      <trkpt lat="44.32143" lon="0.76201">
        <ele>130</ele>
        <time>2025-10-12T14:26:47.518Z</time>
      </trkpt>
      <trkpt lat="44.32142" lon="0.76202">
        <ele>130</ele>
        <time>2025-10-12T14:26:48.518Z</time>
      </trkpt>
      <trkpt lat="44.32141" lon="0.76202">
        <ele>130</ele>
        <time>2025-10-12T14:26:49.518Z</time>
      </trkpt>
      <trkpt lat="44.3214" lon="0.76202">
        <ele>130</ele>
        <time>2025-10-12T14:26:50.518Z</time>
      </trkpt>
      <trkpt lat="44.32139" lon="0.76202">
        <ele>130</ele>
        <time>2025-10-12T14:26:51.518Z</time>
      </trkpt>
      <trkpt lat="44.32138" lon="0.76202">
        <ele>130</ele>
        <time>2025-10-12T14:26:52.518Z</time>
      </trkpt>
      <trkpt lat="44.32137" lon="0.76203">
        <ele>129</ele>
        <time>2025-10-12T14:26:53.518Z</time>
      </trkpt>
      <trkpt lat="44.32136" lon="0.76203">
        <ele>129</ele>
        <time>2025-10-12T14:26:54.518Z</time>
      </trkpt>
      <trkpt lat="44.32135" lon="0.76204">
        <ele>129</ele>
        <time>2025-10-12T14:26:55.518Z</time>
      </trkpt>
      <trkpt lat="44.32134" lon="0.76205">
        <ele>128</ele>
        <time>2025-10-12T14:26:56.518Z</time>
      </trkpt>
      <trkpt lat="44.32133" lon="0.76205">
        <ele>128</ele>
        <time>2025-10-12T14:26:57.518Z</time>
      </trkpt>
      <trkpt lat="44.32131" lon="0.76205">
        <ele>128</ele>
        <time>2025-10-12T14:26:58.518Z</time>
      </trkpt>
      <trkpt lat="44.3213" lon="0.76205">
        <ele>128</ele>
        <time>2025-10-12T14:26:59.518Z</time>
      </trkpt>
      <trkpt lat="44.32129" lon="0.76205">
        <ele>128</ele>
        <time>2025-10-12T14:27:00.518Z</time>
      </trkpt>
      <trkpt lat="44.32128" lon="0.76205">
        <ele>128</ele>
        <time>2025-10-12T14:27:01.518Z</time>
      </trkpt>
      <trkpt lat="44.32127" lon="0.76205">
        <ele>128</ele>
        <time>2025-10-12T14:27:02.518Z</time>
      </trkpt>
      <trkpt lat="44.32126" lon="0.76204">
        <ele>127</ele>
        <time>2025-10-12T14:27:03.518Z</time>
      </trkpt>
      <trkpt lat="44.32125" lon="0.76203">
        <ele>127</ele>
        <time>2025-10-12T14:27:04.518Z</time>
      </trkpt>
      <trkpt lat="44.32124" lon="0.76202">
        <ele>127</ele>
        <time>2025-10-12T14:27:05.518Z</time>
      </trkpt>
      <trkpt lat="44.32123" lon="0.76202">
        <ele>127</ele>
        <time>2025-10-12T14:27:06.518Z</time>
      </trkpt>
      <trkpt lat="44.32122" lon="0.76201">
        <ele>127</ele>
        <time>2025-10-12T14:27:07.518Z</time>
      </trkpt>
      <trkpt lat="44.32121" lon="0.76201">
        <ele>126</ele>
        <time>2025-10-12T14:27:08.518Z</time>
      </trkpt>
      <trkpt lat="44.3212" lon="0.76202">
        <ele>126</ele>
        <time>2025-10-12T14:27:09.518Z</time>
      </trkpt>
      <trkpt lat="44.32119" lon="0.76202">
        <ele>126</ele>
        <time>2025-10-12T14:27:10.518Z</time>
      </trkpt>
      <trkpt lat="44.32118" lon="0.76202">
        <ele>125</ele>
        <time>2025-10-12T14:27:11.518Z</time>
      </trkpt>
      <trkpt lat="44.32117" lon="0.76202">
        <ele>125</ele>
        <time>2025-10-12T14:27:12.518Z</time>
      </trkpt>
      <trkpt lat="44.32116" lon="0.76202">
        <ele>125</ele>
        <time>2025-10-12T14:27:13.518Z</time>
      </trkpt>
      <trkpt lat="44.32116" lon="0.76202">
        <ele>125</ele>
        <time>2025-10-12T14:27:14.518Z</time>
      </trkpt>
      <trkpt lat="44.32115" lon="0.76202">
        <ele>125</ele>
        <time>2025-10-12T14:27:15.518Z</time>
      </trkpt>
      <trkpt lat="44.32115" lon="0.76202">
        <ele>125</ele>
        <time>2025-10-12T14:27:16.518Z</time>
      </trkpt>
      <trkpt lat="44.32115" lon="0.76202">
        <ele>125</ele>
        <time>2025-10-12T14:27:17.518Z</time>
      </trkpt>
      <trkpt lat="44.32115" lon="0.76202">
        <ele>125</ele>
        <time>2025-10-12T14:27:18.518Z</time>
      </trkpt>
      <trkpt lat="44.32114" lon="0.76202">
        <ele>125</ele>
        <time>2025-10-12T14:27:19.518Z</time>
      </trkpt>
      <trkpt lat="44.32113" lon="0.76202">
        <ele>125</ele>
        <time>2025-10-12T14:27:20.518Z</time>
      </trkpt>
      <trkpt lat="44.32112" lon="0.76202">
        <ele>125</ele>
        <time>2025-10-12T14:27:21.518Z</time>
      </trkpt>
      <trkpt lat="44.32112" lon="0.76203">
        <ele>125</ele>
        <time>2025-10-12T14:27:22.518Z</time>
      </trkpt>
      <trkpt lat="44.32112" lon="0.76203">
        <ele>125</ele>
        <time>2025-10-12T14:27:23.518Z</time>
      </trkpt>
      <trkpt lat="44.32111" lon="0.76203">
        <ele>126</ele>
        <time>2025-10-12T14:27:24.518Z</time>
      </trkpt>
      <trkpt lat="44.32111" lon="0.76202">
        <ele>126</ele>
        <time>2025-10-12T14:27:25.518Z</time>
      </trkpt>
      <trkpt lat="44.32111" lon="0.76202">
        <ele>127</ele>
        <time>2025-10-12T14:27:26.518Z</time>
      </trkpt>
      <trkpt lat="44.3211" lon="0.76201">
        <ele>127</ele>
        <time>2025-10-12T14:27:27.518Z</time>
      </trkpt>
      <trkpt lat="44.3211" lon="0.76202">
        <ele>128</ele>
        <time>2025-10-12T14:27:28.518Z</time>
      </trkpt>
      <trkpt lat="44.3211" lon="0.76202">
        <ele>128</ele>
        <time>2025-10-12T14:27:29.518Z</time>
      </trkpt>
      <trkpt lat="44.32109" lon="0.76203">
        <ele>129</ele>
        <time>2025-10-12T14:27:30.518Z</time>
      </trkpt>
      <trkpt lat="44.32108" lon="0.76203">
        <ele>129</ele>
        <time>2025-10-12T14:27:31.518Z</time>
      </trkpt>
      <trkpt lat="44.32107" lon="0.76202">
        <ele>129</ele>
        <time>2025-10-12T14:27:32.518Z</time>
      </trkpt>
      <trkpt lat="44.32107" lon="0.76202">
        <ele>129</ele>
        <time>2025-10-12T14:27:33.518Z</time>
      </trkpt>
      <trkpt lat="44.32107" lon="0.76202">
        <ele>129</ele>
        <time>2025-10-12T14:27:34.518Z</time>
      </trkpt>
      <trkpt lat="44.32106" lon="0.76202">
        <ele>129</ele>
        <time>2025-10-12T14:27:35.518Z</time>
      </trkpt>
      <trkpt lat="44.32106" lon="0.76202">
        <ele>130</ele>
        <time>2025-10-12T14:27:36.518Z</time>
      </trkpt>
      <trkpt lat="44.32105" lon="0.76202">
        <ele>130</ele>
        <time>2025-10-12T14:27:37.518Z</time>
      </trkpt>
      <trkpt lat="44.32105" lon="0.76202">
        <ele>130</ele>
        <time>2025-10-12T14:27:38.518Z</time>
      </trkpt>
      <trkpt lat="44.32105" lon="0.76202">
        <ele>131</ele>
        <time>2025-10-12T14:27:39.518Z</time>
      </trkpt>
      <trkpt lat="44.32105" lon="0.76202">
        <ele>131</ele>
        <time>2025-10-12T14:27:40.518Z</time>
      </trkpt>
      <trkpt lat="44.32105" lon="0.76202">
        <ele>131</ele>
        <time>2025-10-12T14:27:41.518Z</time>
      </trkpt>
      <trkpt lat="44.32104" lon="0.76202">
        <ele>131</ele>
        <time>2025-10-12T14:27:42.518Z</time>
      </trkpt>
      <trkpt lat="44.32104" lon="0.76202">
        <ele>131</ele>
        <time>2025-10-12T14:27:43.518Z</time>
      </trkpt>
      <trkpt lat="44.32104" lon="0.76202">
        <ele>131</ele>
        <time>2025-10-12T14:27:44.518Z</time>
      </trkpt>
      <trkpt lat="44.32104" lon="0.76202">
        <ele>131</ele>
        <time>2025-10-12T14:27:45.518Z</time>
      </trkpt>
      <trkpt lat="44.32104" lon="0.76202">
        <ele>131</ele>
        <time>2025-10-12T14:27:46.518Z</time>
      </trkpt>
      <trkpt lat="44.32104" lon="0.76202">
        <ele>131</ele>
        <time>2025-10-12T14:27:47.518Z</time>
      </trkpt>
      <trkpt lat="44.32104" lon="0.76202">
        <ele>131</ele>
        <time>2025-10-12T14:27:48.518Z</time>
      </trkpt>
      <trkpt lat="44.32104" lon="0.76202">
        <ele>130</ele>
        <time>2025-10-12T14:27:49.518Z</time>
      </trkpt>
      <trkpt lat="44.32104" lon="0.76202">
        <ele>130</ele>
        <time>2025-10-12T14:27:50.518Z</time>
      </trkpt>
      <trkpt lat="44.32104" lon="0.76202">
        <ele>129</ele>
        <time>2025-10-12T14:27:51.518Z</time>
      </trkpt>
      <trkpt lat="44.32104" lon="0.76202">
        <ele>129</ele>
        <time>2025-10-12T14:27:52.518Z</time>
      </trkpt>
      <trkpt lat="44.32103" lon="0.76202">
        <ele>128</ele>
        <time>2025-10-12T14:27:53.518Z</time>
      </trkpt>
      <trkpt lat="44.32102" lon="0.76204">
        <ele>128</ele>
        <time>2025-10-12T14:27:54.518Z</time>
      </trkpt>
      <trkpt lat="44.32102" lon="0.76204">
        <ele>127</ele>
        <time>2025-10-12T14:27:55.518Z</time>
      </trkpt>
      <trkpt lat="44.321" lon="0.76205">
        <ele>127</ele>
        <time>2025-10-12T14:27:56.518Z</time>
      </trkpt>
      <trkpt lat="44.32099" lon="0.76206">
        <ele>126</ele>
        <time>2025-10-12T14:27:57.518Z</time>
      </trkpt>
      <trkpt lat="44.32098" lon="0.76208">
        <ele>126</ele>
        <time>2025-10-12T14:27:58.518Z</time>
      </trkpt>
      <trkpt lat="44.32098" lon="0.76209">
        <ele>125</ele>
        <time>2025-10-12T14:27:59.518Z</time>
      </trkpt>
      <trkpt lat="44.32097" lon="0.7621">
        <ele>125</ele>
        <time>2025-10-12T14:28:00.518Z</time>
      </trkpt>
      <trkpt lat="44.32097" lon="0.76212">
        <ele>124</ele>
        <time>2025-10-12T14:28:01.518Z</time>
      </trkpt>
      <trkpt lat="44.32096" lon="0.76213">
        <ele>124</ele>
        <time>2025-10-12T14:28:02.518Z</time>
      </trkpt>
      <trkpt lat="44.32096" lon="0.76214">
        <ele>123</ele>
        <time>2025-10-12T14:28:03.518Z</time>
      </trkpt>
      <trkpt lat="44.32095" lon="0.76215">
        <ele>123</ele>
        <time>2025-10-12T14:28:04.518Z</time>
      </trkpt>
      <trkpt lat="44.32095" lon="0.76216">
        <ele>122</ele>
        <time>2025-10-12T14:28:05.518Z</time>
      </trkpt>
      <trkpt lat="44.32094" lon="0.76217">
        <ele>122</ele>
        <time>2025-10-12T14:28:06.518Z</time>
      </trkpt>
      <trkpt lat="44.32093" lon="0.76217">
        <ele>122</ele>
        <time>2025-10-12T14:28:07.518Z</time>
      </trkpt>
      <trkpt lat="44.32093" lon="0.76217">
        <ele>122</ele>
        <time>2025-10-12T14:28:08.518Z</time>
      </trkpt>
      <trkpt lat="44.32093" lon="0.76218">
        <ele>121</ele>
        <time>2025-10-12T14:28:09.518Z</time>
      </trkpt>
      <trkpt lat="44.32092" lon="0.76219">
        <ele>121</ele>
        <time>2025-10-12T14:28:10.518Z</time>
      </trkpt>
      <trkpt lat="44.32092" lon="0.7622">
        <ele>121</ele>
        <time>2025-10-12T14:28:11.518Z</time>
      </trkpt>
      <trkpt lat="44.32092" lon="0.7622">
        <ele>120</ele>
        <time>2025-10-12T14:28:12.518Z</time>
      </trkpt>
      <trkpt lat="44.32092" lon="0.76221">
        <ele>119</ele>
        <time>2025-10-12T14:28:13.518Z</time>
      </trkpt>
      <trkpt lat="44.32093" lon="0.76222">
        <ele>119</ele>
        <time>2025-10-12T14:28:14.518Z</time>
      </trkpt>
      <trkpt lat="44.32093" lon="0.76223">
        <ele>118</ele>
        <time>2025-10-12T14:28:15.518Z</time>
      </trkpt>
      <trkpt lat="44.32093" lon="0.76221">
        <ele>118</ele>
        <time>2025-10-12T14:28:16.518Z</time>
      </trkpt>
      <trkpt lat="44.32094" lon="0.7622">
        <ele>117</ele>
        <time>2025-10-12T14:28:17.518Z</time>
      </trkpt>
      <trkpt lat="44.32094" lon="0.76219">
        <ele>116</ele>
        <time>2025-10-12T14:28:18.518Z</time>
      </trkpt>
      <trkpt lat="44.32094" lon="0.76219">
        <ele>116</ele>
        <time>2025-10-12T14:28:19.518Z</time>
      </trkpt>
      <trkpt lat="44.32094" lon="0.76219">
        <ele>115</ele>
        <time>2025-10-12T14:28:20.518Z</time>
      </trkpt>
      <trkpt lat="44.32094" lon="0.76221">
        <ele>115</ele>
        <time>2025-10-12T14:28:21.518Z</time>
      </trkpt>
      <trkpt lat="44.32094" lon="0.76222">
        <ele>114</ele>
        <time>2025-10-12T14:28:22.518Z</time>
      </trkpt>
      <trkpt lat="44.32094" lon="0.76223">
        <ele>114</ele>
        <time>2025-10-12T14:28:23.518Z</time>
      </trkpt>
      <trkpt lat="44.32095" lon="0.76224">
        <ele>114</ele>
        <time>2025-10-12T14:28:24.518Z</time>
      </trkpt>
      <trkpt lat="44.32094" lon="0.76225">
        <ele>114</ele>
        <time>2025-10-12T14:28:25.518Z</time>
      </trkpt>
      <trkpt lat="44.32094" lon="0.76227">
        <ele>114</ele>
        <time>2025-10-12T14:28:26.518Z</time>
      </trkpt>
      <trkpt lat="44.32095" lon="0.76228">
        <ele>114</ele>
        <time>2025-10-12T14:28:27.518Z</time>
      </trkpt>
      <trkpt lat="44.32095" lon="0.7623">
        <ele>113</ele>
        <time>2025-10-12T14:28:28.518Z</time>
      </trkpt>
      <trkpt lat="44.32095" lon="0.76232">
        <ele>113</ele>
        <time>2025-10-12T14:28:29.518Z</time>
      </trkpt>
      <trkpt lat="44.32095" lon="0.76235">
        <ele>113</ele>
        <time>2025-10-12T14:28:30.518Z</time>
      </trkpt>
      <trkpt lat="44.32095" lon="0.76236">
        <ele>113</ele>
        <time>2025-10-12T14:28:31.518Z</time>
      </trkpt>
      <trkpt lat="44.32094" lon="0.76238">
        <ele>113</ele>
        <time>2025-10-12T14:28:32.518Z</time>
      </trkpt>
      <trkpt lat="44.32094" lon="0.76238">
        <ele>113</ele>
        <time>2025-10-12T14:28:33.518Z</time>
      </trkpt>
      <trkpt lat="44.32093" lon="0.76239">
        <ele>113</ele>
        <time>2025-10-12T14:28:34.518Z</time>
      </trkpt>
      <trkpt lat="44.32093" lon="0.7624">
        <ele>113</ele>
        <time>2025-10-12T14:28:35.518Z</time>
      </trkpt>
      <trkpt lat="44.32092" lon="0.7624">
        <ele>113</ele>
        <time>2025-10-12T14:28:36.518Z</time>
      </trkpt>
      <trkpt lat="44.32092" lon="0.76241">
        <ele>114</ele>
        <time>2025-10-12T14:28:37.518Z</time>
      </trkpt>
      <trkpt lat="44.32091" lon="0.76241">
        <ele>114</ele>
        <time>2025-10-12T14:28:38.518Z</time>
      </trkpt>
      <trkpt lat="44.32091" lon="0.7624">
        <ele>115</ele>
        <time>2025-10-12T14:28:39.518Z</time>
      </trkpt>
      <trkpt lat="44.32091" lon="0.76241">
        <ele>115</ele>
        <time>2025-10-12T14:28:40.518Z</time>
      </trkpt>
      <trkpt lat="44.32091" lon="0.7624">
        <ele>116</ele>
        <time>2025-10-12T14:28:41.518Z</time>
      </trkpt>
      <trkpt lat="44.32091" lon="0.7624">
        <ele>116</ele>
        <time>2025-10-12T14:28:42.518Z</time>
      </trkpt>
      <trkpt lat="44.32091" lon="0.7624">
        <ele>116</ele>
        <time>2025-10-12T14:28:43.518Z</time>
      </trkpt>
      <trkpt lat="44.32091" lon="0.7624">
        <ele>116</ele>
        <time>2025-10-12T14:28:44.518Z</time>
      </trkpt>
      <trkpt lat="44.32091" lon="0.7624">
        <ele>116</ele>
        <time>2025-10-12T14:28:45.518Z</time>
      </trkpt>
      <trkpt lat="44.32091" lon="0.7624">
        <ele>116</ele>
        <time>2025-10-12T14:28:46.518Z</time>
      </trkpt>
      <trkpt lat="44.3209" lon="0.7624">
        <ele>116</ele>
        <time>2025-10-12T14:28:47.518Z</time>
      </trkpt>
      <trkpt lat="44.3209" lon="0.76241">
        <ele>116</ele>
        <time>2025-10-12T14:28:48.518Z</time>
      </trkpt>
      <trkpt lat="44.3209" lon="0.76241">
        <ele>116</ele>
        <time>2025-10-12T14:28:49.518Z</time>
      </trkpt>
      <trkpt lat="44.3209" lon="0.76241">
        <ele>116</ele>
        <time>2025-10-12T14:28:50.518Z</time>
      </trkpt>
      <trkpt lat="44.3209" lon="0.76241">
        <ele>116</ele>
        <time>2025-10-12T14:28:51.518Z</time>
      </trkpt>
      <trkpt lat="44.32089" lon="0.76242">
        <ele>117</ele>
        <time>2025-10-12T14:28:52.518Z</time>
      </trkpt>
      <trkpt lat="44.32089" lon="0.76242">
        <ele>117</ele>
        <time>2025-10-12T14:28:53.518Z</time>
      </trkpt>
      <trkpt lat="44.32089" lon="0.76242">
        <ele>117</ele>
        <time>2025-10-12T14:28:54.518Z</time>
      </trkpt>
      <trkpt lat="44.32089" lon="0.76243">
        <ele>117</ele>
        <time>2025-10-12T14:28:55.518Z</time>
      </trkpt>
      <trkpt lat="44.32088" lon="0.76243">
        <ele>117</ele>
        <time>2025-10-12T14:28:56.518Z</time>
      </trkpt>
      <trkpt lat="44.32088" lon="0.76243">
        <ele>118</ele>
        <time>2025-10-12T14:28:57.518Z</time>
      </trkpt>
      <trkpt lat="44.32088" lon="0.76244">
        <ele>118</ele>
        <time>2025-10-12T14:28:58.518Z</time>
      </trkpt>
      <trkpt lat="44.32088" lon="0.76245">
        <ele>118</ele>
        <time>2025-10-12T14:28:59.518Z</time>
      </trkpt>
      <trkpt lat="44.32087" lon="0.76246">
        <ele>118</ele>
        <time>2025-10-12T14:29:00.518Z</time>
      </trkpt>
      <trkpt lat="44.32086" lon="0.76246">
        <ele>118</ele>
        <time>2025-10-12T14:29:01.518Z</time>
      </trkpt>
      <trkpt lat="44.32086" lon="0.76247">
        <ele>119</ele>
        <time>2025-10-12T14:29:02.518Z</time>
      </trkpt>
      <trkpt lat="44.32086" lon="0.76247">
        <ele>119</ele>
        <time>2025-10-12T14:29:03.518Z</time>
      </trkpt>
      <trkpt lat="44.32086" lon="0.76248">
        <ele>119</ele>
        <time>2025-10-12T14:29:04.518Z</time>
      </trkpt>
      <trkpt lat="44.32085" lon="0.76248">
        <ele>119</ele>
        <time>2025-10-12T14:29:05.518Z</time>
      </trkpt>
      <trkpt lat="44.32085" lon="0.76249">
        <ele>118</ele>
        <time>2025-10-12T14:29:06.518Z</time>
      </trkpt>
      <trkpt lat="44.32084" lon="0.7625">
        <ele>118</ele>
        <time>2025-10-12T14:29:07.518Z</time>
      </trkpt>
      <trkpt lat="44.32083" lon="0.7625">
        <ele>118</ele>
        <time>2025-10-12T14:29:08.518Z</time>
      </trkpt>
      <trkpt lat="44.32082" lon="0.76252">
        <ele>117</ele>
        <time>2025-10-12T14:29:09.518Z</time>
      </trkpt>
      <trkpt lat="44.32081" lon="0.76254">
        <ele>117</ele>
        <time>2025-10-12T14:29:10.518Z</time>
      </trkpt>
      <trkpt lat="44.3208" lon="0.76255">
        <ele>117</ele>
        <time>2025-10-12T14:29:11.518Z</time>
      </trkpt>
      <trkpt lat="44.32079" lon="0.76256">
        <ele>116</ele>
        <time>2025-10-12T14:29:12.518Z</time>
      </trkpt>
      <trkpt lat="44.32078" lon="0.76257">
        <ele>116</ele>
        <time>2025-10-12T14:29:13.518Z</time>
      </trkpt>
      <trkpt lat="44.32078" lon="0.76259">
        <ele>115</ele>
        <time>2025-10-12T14:29:14.518Z</time>
      </trkpt>
      <trkpt lat="44.32077" lon="0.76261">
        <ele>115</ele>
        <time>2025-10-12T14:29:15.518Z</time>
      </trkpt>
      <trkpt lat="44.32076" lon="0.76262">
        <ele>115</ele>
        <time>2025-10-12T14:29:16.518Z</time>
      </trkpt>
      <trkpt lat="44.32075" lon="0.76263">
        <ele>115</ele>
        <time>2025-10-12T14:29:17.518Z</time>
      </trkpt>
      <trkpt lat="44.32074" lon="0.76264">
        <ele>115</ele>
        <time>2025-10-12T14:29:18.518Z</time>
      </trkpt>
      <trkpt lat="44.32074" lon="0.76265">
        <ele>114</ele>
        <time>2025-10-12T14:29:19.518Z</time>
      </trkpt>
      <trkpt lat="44.32074" lon="0.76267">
        <ele>114</ele>
        <time>2025-10-12T14:29:20.518Z</time>
      </trkpt>
      <trkpt lat="44.32074" lon="0.76268">
        <ele>114</ele>
        <time>2025-10-12T14:29:21.518Z</time>
      </trkpt>
      <trkpt lat="44.32074" lon="0.7627">
        <ele>114</ele>
        <time>2025-10-12T14:29:22.518Z</time>
      </trkpt>
      <trkpt lat="44.32073" lon="0.76271">
        <ele>113</ele>
        <time>2025-10-12T14:29:23.518Z</time>
      </trkpt>
      <trkpt lat="44.32073" lon="0.76273">
        <ele>113</ele>
        <time>2025-10-12T14:29:24.518Z</time>
      </trkpt>
      <trkpt lat="44.32073" lon="0.76274">
        <ele>112</ele>
        <time>2025-10-12T14:29:25.518Z</time>
      </trkpt>
      <trkpt lat="44.32073" lon="0.76276">
        <ele>111</ele>
        <time>2025-10-12T14:29:26.518Z</time>
      </trkpt>
      <trkpt lat="44.32072" lon="0.76277">
        <ele>111</ele>
        <time>2025-10-12T14:29:27.518Z</time>
      </trkpt>
      <trkpt lat="44.32072" lon="0.76279">
        <ele>111</ele>
        <time>2025-10-12T14:29:28.518Z</time>
      </trkpt>
      <trkpt lat="44.32072" lon="0.7628">
        <ele>111</ele>
        <time>2025-10-12T14:29:29.518Z</time>
      </trkpt>
      <trkpt lat="44.32073" lon="0.76281">
        <ele>111</ele>
        <time>2025-10-12T14:29:30.518Z</time>
      </trkpt>
      <trkpt lat="44.32073" lon="0.76283">
        <ele>111</ele>
        <time>2025-10-12T14:29:31.518Z</time>
      </trkpt>
      <trkpt lat="44.32073" lon="0.76284">
        <ele>111</ele>
        <time>2025-10-12T14:29:32.518Z</time>
      </trkpt>
      <trkpt lat="44.32074" lon="0.76286">
        <ele>111</ele>
        <time>2025-10-12T14:29:33.518Z</time>
      </trkpt>
      <trkpt lat="44.32074" lon="0.76287">
        <ele>112</ele>
        <time>2025-10-12T14:29:34.518Z</time>
      </trkpt>
      <trkpt lat="44.32074" lon="0.76289">
        <ele>112</ele>
        <time>2025-10-12T14:29:35.518Z</time>
      </trkpt>
      <trkpt lat="44.32074" lon="0.7629">
        <ele>112</ele>
        <time>2025-10-12T14:29:36.518Z</time>
      </trkpt>
      <trkpt lat="44.32075" lon="0.76291">
        <ele>112</ele>
        <time>2025-10-12T14:29:37.518Z</time>
      </trkpt>
      <trkpt lat="44.32075" lon="0.76293">
        <ele>112</ele>
        <time>2025-10-12T14:29:38.518Z</time>
      </trkpt>
      <trkpt lat="44.32075" lon="0.76294">
        <ele>112</ele>
        <time>2025-10-12T14:29:39.518Z</time>
      </trkpt>
      <trkpt lat="44.32075" lon="0.76296">
        <ele>112</ele>
        <time>2025-10-12T14:29:40.518Z</time>
      </trkpt>
      <trkpt lat="44.32076" lon="0.76298">
        <ele>112</ele>
        <time>2025-10-12T14:29:41.518Z</time>
      </trkpt>
      <trkpt lat="44.32076" lon="0.76299">
        <ele>112</ele>
        <time>2025-10-12T14:29:42.518Z</time>
      </trkpt>
      <trkpt lat="44.32076" lon="0.76301">
        <ele>113</ele>
        <time>2025-10-12T14:29:43.518Z</time>
      </trkpt>
      <trkpt lat="44.32077" lon="0.76302">
        <ele>113</ele>
        <time>2025-10-12T14:29:44.518Z</time>
      </trkpt>
      <trkpt lat="44.32077" lon="0.76303">
        <ele>113</ele>
        <time>2025-10-12T14:29:45.518Z</time>
      </trkpt>
      <trkpt lat="44.32077" lon="0.76304">
        <ele>113</ele>
        <time>2025-10-12T14:29:46.518Z</time>
      </trkpt>
      <trkpt lat="44.32077" lon="0.76306">
        <ele>113</ele>
        <time>2025-10-12T14:29:47.518Z</time>
      </trkpt>
      <trkpt lat="44.32077" lon="0.76307">
        <ele>113</ele>
        <time>2025-10-12T14:29:48.518Z</time>
      </trkpt>
      <trkpt lat="44.32077" lon="0.76309">
        <ele>113</ele>
        <time>2025-10-12T14:29:49.518Z</time>
      </trkpt>
      <trkpt lat="44.32076" lon="0.76309">
        <ele>113</ele>
        <time>2025-10-12T14:29:50.518Z</time>
      </trkpt>
      <trkpt lat="44.32076" lon="0.76311">
        <ele>112</ele>
        <time>2025-10-12T14:29:51.518Z</time>
      </trkpt>
      <trkpt lat="44.32076" lon="0.76312">
        <ele>112</ele>
        <time>2025-10-12T14:29:52.518Z</time>
      </trkpt>
      <trkpt lat="44.32076" lon="0.76314">
        <ele>111</ele>
        <time>2025-10-12T14:29:53.518Z</time>
      </trkpt>
      <trkpt lat="44.32076" lon="0.76316">
        <ele>111</ele>
        <time>2025-10-12T14:29:54.518Z</time>
      </trkpt>
      <trkpt lat="44.32076" lon="0.76318">
        <ele>111</ele>
        <time>2025-10-12T14:29:55.518Z</time>
      </trkpt>
      <trkpt lat="44.32076" lon="0.76319">
        <ele>110</ele>
        <time>2025-10-12T14:29:56.518Z</time>
      </trkpt>
      <trkpt lat="44.32076" lon="0.7632">
        <ele>110</ele>
        <time>2025-10-12T14:29:57.518Z</time>
      </trkpt>
      <trkpt lat="44.32076" lon="0.76322">
        <ele>110</ele>
        <time>2025-10-12T14:29:58.518Z</time>
      </trkpt>
      <trkpt lat="44.32076" lon="0.76326">
        <ele>109</ele>
        <time>2025-10-12T14:29:59.518Z</time>
      </trkpt>
      <trkpt lat="44.32076" lon="0.76328">
        <ele>109</ele>
        <time>2025-10-12T14:30:00.518Z</time>
      </trkpt>
      <trkpt lat="44.32075" lon="0.7633">
        <ele>109</ele>
        <time>2025-10-12T14:30:01.518Z</time>
      </trkpt>
      <trkpt lat="44.32076" lon="0.76332">
        <ele>109</ele>
        <time>2025-10-12T14:30:02.518Z</time>
      </trkpt>
      <trkpt lat="44.32075" lon="0.76334">
        <ele>109</ele>
        <time>2025-10-12T14:30:03.518Z</time>
      </trkpt>
      <trkpt lat="44.32076" lon="0.76335">
        <ele>109</ele>
        <time>2025-10-12T14:30:04.518Z</time>
      </trkpt>
      <trkpt lat="44.32076" lon="0.76337">
        <ele>108</ele>
        <time>2025-10-12T14:30:05.518Z</time>
      </trkpt>
      <trkpt lat="44.32076" lon="0.76338">
        <ele>107</ele>
        <time>2025-10-12T14:30:06.518Z</time>
      </trkpt>
      <trkpt lat="44.32076" lon="0.76339">
        <ele>107</ele>
        <time>2025-10-12T14:30:07.518Z</time>
      </trkpt>
      <trkpt lat="44.32075" lon="0.76341">
        <ele>106</ele>
        <time>2025-10-12T14:30:08.518Z</time>
      </trkpt>
      <trkpt lat="44.32076" lon="0.76342">
        <ele>106</ele>
        <time>2025-10-12T14:30:09.518Z</time>
      </trkpt>
      <trkpt lat="44.32076" lon="0.76344">
        <ele>106</ele>
        <time>2025-10-12T14:30:10.518Z</time>
      </trkpt>
      <trkpt lat="44.32076" lon="0.76345">
        <ele>105</ele>
        <time>2025-10-12T14:30:11.518Z</time>
      </trkpt>
      <trkpt lat="44.32076" lon="0.76347">
        <ele>105</ele>
        <time>2025-10-12T14:30:12.518Z</time>
      </trkpt>
      <trkpt lat="44.32076" lon="0.76349">
        <ele>105</ele>
        <time>2025-10-12T14:30:13.518Z</time>
      </trkpt>
      <trkpt lat="44.32076" lon="0.7635">
        <ele>104</ele>
        <time>2025-10-12T14:30:14.518Z</time>
      </trkpt>
      <trkpt lat="44.32076" lon="0.76352">
        <ele>104</ele>
        <time>2025-10-12T14:30:15.518Z</time>
      </trkpt>
      <trkpt lat="44.32076" lon="0.76353">
        <ele>104</ele>
        <time>2025-10-12T14:30:16.518Z</time>
      </trkpt>
      <trkpt lat="44.32076" lon="0.76355">
        <ele>104</ele>
        <time>2025-10-12T14:30:17.518Z</time>
      </trkpt>
      <trkpt lat="44.32076" lon="0.76357">
        <ele>104</ele>
        <time>2025-10-12T14:30:18.518Z</time>
      </trkpt>
      <trkpt lat="44.32076" lon="0.76358">
        <ele>104</ele>
        <time>2025-10-12T14:30:19.518Z</time>
      </trkpt>
      <trkpt lat="44.32076" lon="0.7636">
        <ele>104</ele>
        <time>2025-10-12T14:30:20.518Z</time>
      </trkpt>
      <trkpt lat="44.32076" lon="0.76361">
        <ele>104</ele>
        <time>2025-10-12T14:30:21.518Z</time>
      </trkpt>
      <trkpt lat="44.32076" lon="0.76363">
        <ele>104</ele>
        <time>2025-10-12T14:30:22.518Z</time>
      </trkpt>
      <trkpt lat="44.32076" lon="0.76364">
        <ele>104</ele>
        <time>2025-10-12T14:30:23.518Z</time>
      </trkpt>
      <trkpt lat="44.32076" lon="0.76366">
        <ele>104</ele>
        <time>2025-10-12T14:30:24.518Z</time>
      </trkpt>
      <trkpt lat="44.32076" lon="0.76367">
        <ele>104</ele>
        <time>2025-10-12T14:30:25.518Z</time>
      </trkpt>
      <trkpt lat="44.32076" lon="0.76368">
        <ele>104</ele>
        <time>2025-10-12T14:30:26.518Z</time>
      </trkpt>
      <trkpt lat="44.32076" lon="0.7637">
        <ele>104</ele>
        <time>2025-10-12T14:30:27.518Z</time>
      </trkpt>
      <trkpt lat="44.32076" lon="0.76371">
        <ele>104</ele>
        <time>2025-10-12T14:30:28.518Z</time>
      </trkpt>
      <trkpt lat="44.32076" lon="0.76373">
        <ele>104</ele>
        <time>2025-10-12T14:30:29.518Z</time>
      </trkpt>
      <trkpt lat="44.32077" lon="0.76374">
        <ele>103</ele>
        <time>2025-10-12T14:30:30.518Z</time>
      </trkpt>
      <trkpt lat="44.32077" lon="0.76376">
        <ele>103</ele>
        <time>2025-10-12T14:30:31.518Z</time>
      </trkpt>
      <trkpt lat="44.32077" lon="0.76378">
        <ele>102</ele>
        <time>2025-10-12T14:30:32.518Z</time>
      </trkpt>
      <trkpt lat="44.32076" lon="0.76379">
        <ele>102</ele>
        <time>2025-10-12T14:30:33.518Z</time>
      </trkpt>
      <trkpt lat="44.32076" lon="0.7638">
        <ele>101</ele>
        <time>2025-10-12T14:30:34.518Z</time>
      </trkpt>
      <trkpt lat="44.32077" lon="0.76382">
        <ele>101</ele>
        <time>2025-10-12T14:30:35.518Z</time>
      </trkpt>
      <trkpt lat="44.32076" lon="0.76383">
        <ele>101</ele>
        <time>2025-10-12T14:30:36.518Z</time>
      </trkpt>
      <trkpt lat="44.32076" lon="0.76385">
        <ele>101</ele>
        <time>2025-10-12T14:30:37.518Z</time>
      </trkpt>
      <trkpt lat="44.32076" lon="0.76387">
        <ele>101</ele>
        <time>2025-10-12T14:30:38.518Z</time>
      </trkpt>
      <trkpt lat="44.32076" lon="0.76388">
        <ele>101</ele>
        <time>2025-10-12T14:30:39.518Z</time>
      </trkpt>
      <trkpt lat="44.32076" lon="0.7639">
        <ele>100</ele>
        <time>2025-10-12T14:30:40.518Z</time>
      </trkpt>
      <trkpt lat="44.32076" lon="0.76392">
        <ele>100</ele>
        <time>2025-10-12T14:30:41.518Z</time>
      </trkpt>
      <trkpt lat="44.32076" lon="0.76393">
        <ele>100</ele>
        <time>2025-10-12T14:30:42.518Z</time>
      </trkpt>
      <trkpt lat="44.32076" lon="0.76395">
        <ele>100</ele>
        <time>2025-10-12T14:30:43.518Z</time>
      </trkpt>
      <trkpt lat="44.32076" lon="0.76396">
        <ele>100</ele>
        <time>2025-10-12T14:30:44.518Z</time>
      </trkpt>
      <trkpt lat="44.32076" lon="0.76398">
        <ele>99</ele>
        <time>2025-10-12T14:30:45.518Z</time>
      </trkpt>
      <trkpt lat="44.32076" lon="0.764">
        <ele>100</ele>
        <time>2025-10-12T14:30:46.518Z</time>
      </trkpt>
      <trkpt lat="44.32077" lon="0.76401">
        <ele>100</ele>
        <time>2025-10-12T14:30:47.518Z</time>
      </trkpt>
      <trkpt lat="44.32077" lon="0.76403">
        <ele>101</ele>
        <time>2025-10-12T14:30:48.518Z</time>
      </trkpt>
      <trkpt lat="44.32077" lon="0.76404">
        <ele>101</ele>
        <time>2025-10-12T14:30:49.518Z</time>
      </trkpt>
      <trkpt lat="44.32077" lon="0.76406">
        <ele>101</ele>
        <time>2025-10-12T14:30:50.518Z</time>
      </trkpt>
      <trkpt lat="44.32076" lon="0.76407">
        <ele>102</ele>
        <time>2025-10-12T14:30:51.518Z</time>
      </trkpt>
      <trkpt lat="44.32076" lon="0.76409">
        <ele>102</ele>
        <time>2025-10-12T14:30:52.518Z</time>
      </trkpt>
      <trkpt lat="44.32076" lon="0.7641">
        <ele>102</ele>
        <time>2025-10-12T14:30:53.518Z</time>
      </trkpt>
      <trkpt lat="44.32076" lon="0.76411">
        <ele>102</ele>
        <time>2025-10-12T14:30:54.518Z</time>
      </trkpt>
      <trkpt lat="44.32076" lon="0.76413">
        <ele>103</ele>
        <time>2025-10-12T14:30:55.518Z</time>
      </trkpt>
      <trkpt lat="44.32077" lon="0.76413">
        <ele>103</ele>
        <time>2025-10-12T14:30:56.518Z</time>
      </trkpt>
      <trkpt lat="44.32077" lon="0.76414">
        <ele>103</ele>
        <time>2025-10-12T14:30:57.518Z</time>
      </trkpt>
      <trkpt lat="44.32077" lon="0.76415">
        <ele>104</ele>
        <time>2025-10-12T14:30:58.518Z</time>
      </trkpt>
      <trkpt lat="44.32077" lon="0.76416">
        <ele>104</ele>
        <time>2025-10-12T14:30:59.518Z</time>
      </trkpt>
      <trkpt lat="44.32077" lon="0.76417">
        <ele>104</ele>
        <time>2025-10-12T14:31:00.518Z</time>
      </trkpt>
      <trkpt lat="44.32077" lon="0.76418">
        <ele>104</ele>
        <time>2025-10-12T14:31:01.518Z</time>
      </trkpt>
      <trkpt lat="44.32077" lon="0.76418">
        <ele>104</ele>
        <time>2025-10-12T14:31:02.518Z</time>
      </trkpt>
      <trkpt lat="44.32077" lon="0.76419">
        <ele>104</ele>
        <time>2025-10-12T14:31:03.518Z</time>
      </trkpt>
      <trkpt lat="44.32077" lon="0.76419">
        <ele>104</ele>
        <time>2025-10-12T14:31:04.518Z</time>
      </trkpt>
      <trkpt lat="44.32077" lon="0.76419">
        <ele>104</ele>
        <time>2025-10-12T14:31:05.518Z</time>
      </trkpt>
      <trkpt lat="44.32077" lon="0.76419">
        <ele>104</ele>
        <time>2025-10-12T14:31:06.518Z</time>
      </trkpt>
      <trkpt lat="44.32076" lon="0.76419">
        <ele>104</ele>
        <time>2025-10-12T14:31:07.518Z</time>
      </trkpt>
      <trkpt lat="44.32076" lon="0.76419">
        <ele>104</ele>
        <time>2025-10-12T14:31:08.518Z</time>
      </trkpt>
      <trkpt lat="44.32076" lon="0.76419">
        <ele>104</ele>
        <time>2025-10-12T14:31:09.518Z</time>
      </trkpt>
      <trkpt lat="44.32076" lon="0.76419">
        <ele>104</ele>
        <time>2025-10-12T14:31:10.518Z</time>
      </trkpt>
      <trkpt lat="44.32076" lon="0.76419">
        <ele>104</ele>
        <time>2025-10-12T14:31:11.518Z</time>
      </trkpt>
      <trkpt lat="44.32076" lon="0.76419">
        <ele>104</ele>
        <time>2025-10-12T14:31:12.518Z</time>
      </trkpt>
      <trkpt lat="44.32076" lon="0.76419">
        <ele>104</ele>
        <time>2025-10-12T14:31:13.518Z</time>
      </trkpt>
      <trkpt lat="44.32076" lon="0.76419">
        <ele>105</ele>
        <time>2025-10-12T14:31:14.518Z</time>
      </trkpt>
      <trkpt lat="44.32076" lon="0.76419">
        <ele>105</ele>
        <time>2025-10-12T14:31:15.518Z</time>
      </trkpt>
      <trkpt lat="44.32076" lon="0.76419">
        <ele>105</ele>
        <time>2025-10-12T14:31:16.518Z</time>
      </trkpt>
      <trkpt lat="44.32076" lon="0.76419">
        <ele>105</ele>
        <time>2025-10-12T14:31:17.518Z</time>
      </trkpt>
      <trkpt lat="44.32075" lon="0.76419">
        <ele>106</ele>
        <time>2025-10-12T14:31:18.518Z</time>
      </trkpt>
      <trkpt lat="44.32075" lon="0.76419">
        <ele>105</ele>
        <time>2025-10-12T14:31:19.518Z</time>
      </trkpt>
      <trkpt lat="44.32075" lon="0.76419">
        <ele>106</ele>
        <time>2025-10-12T14:31:20.518Z</time>
      </trkpt>
      <trkpt lat="44.32074" lon="0.76419">
        <ele>106</ele>
        <time>2025-10-12T14:31:21.518Z</time>
      </trkpt>
      <trkpt lat="44.32074" lon="0.76419">
        <ele>106</ele>
        <time>2025-10-12T14:31:22.518Z</time>
      </trkpt>
      <trkpt lat="44.32074" lon="0.76419">
        <ele>106</ele>
        <time>2025-10-12T14:31:23.518Z</time>
      </trkpt>
      <trkpt lat="44.32074" lon="0.76419">
        <ele>106</ele>
        <time>2025-10-12T14:31:24.518Z</time>
      </trkpt>
      <trkpt lat="44.32074" lon="0.76419">
        <ele>106</ele>
        <time>2025-10-12T14:31:25.518Z</time>
      </trkpt>
      <trkpt lat="44.32074" lon="0.76419">
        <ele>106</ele>
        <time>2025-10-12T14:31:26.518Z</time>
      </trkpt>
      <trkpt lat="44.32074" lon="0.76419">
        <ele>106</ele>
        <time>2025-10-12T14:31:27.518Z</time>
      </trkpt>
      <trkpt lat="44.32074" lon="0.76419">
        <ele>106</ele>
        <time>2025-10-12T14:31:28.518Z</time>
      </trkpt>
      <trkpt lat="44.32075" lon="0.76419">
        <ele>105</ele>
        <time>2025-10-12T14:31:29.518Z</time>
      </trkpt>
      <trkpt lat="44.32075" lon="0.76419">
        <ele>104</ele>
        <time>2025-10-12T14:31:30.518Z</time>
      </trkpt>
      <trkpt lat="44.32075" lon="0.76419">
        <ele>104</ele>
        <time>2025-10-12T14:31:31.518Z</time>
      </trkpt>
      <trkpt lat="44.32075" lon="0.76419">
        <ele>104</ele>
        <time>2025-10-12T14:31:32.518Z</time>
      </trkpt>
      <trkpt lat="44.32075" lon="0.76419">
        <ele>104</ele>
        <time>2025-10-12T14:31:33.518Z</time>
      </trkpt>
      <trkpt lat="44.32075" lon="0.76419">
        <ele>105</ele>
        <time>2025-10-12T14:31:34.518Z</time>
      </trkpt>
      <trkpt lat="44.32075" lon="0.76419">
        <ele>105</ele>
        <time>2025-10-12T14:31:35.518Z</time>
      </trkpt>
      <trkpt lat="44.32075" lon="0.76419">
        <ele>106</ele>
        <time>2025-10-12T14:31:36.518Z</time>
      </trkpt>
      <trkpt lat="44.32075" lon="0.76419">
        <ele>107</ele>
        <time>2025-10-12T14:31:37.518Z</time>
      </trkpt>
      <trkpt lat="44.32075" lon="0.76419">
        <ele>107</ele>
        <time>2025-10-12T14:31:38.518Z</time>
      </trkpt>
      <trkpt lat="44.32074" lon="0.76419">
        <ele>107</ele>
        <time>2025-10-12T14:31:39.518Z</time>
      </trkpt>
      <trkpt lat="44.32074" lon="0.76419">
        <ele>107</ele>
        <time>2025-10-12T14:31:40.518Z</time>
      </trkpt>
      <trkpt lat="44.32074" lon="0.76419">
        <ele>108</ele>
        <time>2025-10-12T14:31:41.518Z</time>
      </trkpt>
      <trkpt lat="44.32074" lon="0.76419">
        <ele>108</ele>
        <time>2025-10-12T14:31:42.518Z</time>
      </trkpt>
      <trkpt lat="44.32074" lon="0.76419">
        <ele>109</ele>
        <time>2025-10-12T14:31:43.518Z</time>
      </trkpt>
      <trkpt lat="44.32074" lon="0.76419">
        <ele>109</ele>
        <time>2025-10-12T14:31:44.518Z</time>
      </trkpt>
      <trkpt lat="44.32074" lon="0.76419">
        <ele>109</ele>
        <time>2025-10-12T14:31:45.518Z</time>
      </trkpt>
      <trkpt lat="44.32074" lon="0.76419">
        <ele>110</ele>
        <time>2025-10-12T14:31:46.518Z</time>
      </trkpt>
      <trkpt lat="44.32074" lon="0.76419">
        <ele>111</ele>
        <time>2025-10-12T14:31:47.518Z</time>
      </trkpt>
      <trkpt lat="44.32074" lon="0.76419">
        <ele>111</ele>
        <time>2025-10-12T14:31:48.518Z</time>
      </trkpt>
      <trkpt lat="44.32074" lon="0.76419">
        <ele>111</ele>
        <time>2025-10-12T14:31:49.518Z</time>
      </trkpt>
      <trkpt lat="44.32074" lon="0.7642">
        <ele>112</ele>
        <time>2025-10-12T14:31:50.518Z</time>
      </trkpt>
      <trkpt lat="44.32075" lon="0.7642">
        <ele>112</ele>
        <time>2025-10-12T14:31:51.518Z</time>
      </trkpt>
      <trkpt lat="44.32075" lon="0.7642">
        <ele>112</ele>
        <time>2025-10-12T14:31:52.518Z</time>
      </trkpt>
      <trkpt lat="44.32075" lon="0.7642">
        <ele>112</ele>
        <time>2025-10-12T14:31:53.518Z</time>
      </trkpt>
      <trkpt lat="44.32075" lon="0.7642">
        <ele>112</ele>
        <time>2025-10-12T14:31:54.518Z</time>
      </trkpt>
      <trkpt lat="44.32075" lon="0.7642">
        <ele>112</ele>
        <time>2025-10-12T14:31:55.518Z</time>
      </trkpt>
      <trkpt lat="44.32075" lon="0.7642">
        <ele>111</ele>
        <time>2025-10-12T14:31:56.518Z</time>
      </trkpt>
      <trkpt lat="44.32075" lon="0.7642">
        <ele>111</ele>
        <time>2025-10-12T14:31:57.518Z</time>
      </trkpt>
      <trkpt lat="44.32075" lon="0.7642">
        <ele>111</ele>
        <time>2025-10-12T14:31:58.518Z</time>
      </trkpt>
      <trkpt lat="44.32075" lon="0.7642">
        <ele>111</ele>
        <time>2025-10-12T14:31:59.518Z</time>
      </trkpt>
      <trkpt lat="44.32075" lon="0.7642">
        <ele>111</ele>
        <time>2025-10-12T14:32:00.518Z</time>
      </trkpt>
      <trkpt lat="44.32075" lon="0.76421">
        <ele>110</ele>
        <time>2025-10-12T14:32:01.518Z</time>
      </trkpt>
      <trkpt lat="44.32075" lon="0.76422">
        <ele>110</ele>
        <time>2025-10-12T14:32:02.518Z</time>
      </trkpt>
      <trkpt lat="44.32075" lon="0.76423">
        <ele>109</ele>
        <time>2025-10-12T14:32:03.518Z</time>
      </trkpt>
      <trkpt lat="44.32075" lon="0.76424">
        <ele>109</ele>
        <time>2025-10-12T14:32:04.518Z</time>
      </trkpt>
      <trkpt lat="44.32075" lon="0.76425">
        <ele>108</ele>
        <time>2025-10-12T14:32:05.518Z</time>
      </trkpt>
      <trkpt lat="44.32075" lon="0.76427">
        <ele>108</ele>
        <time>2025-10-12T14:32:06.518Z</time>
      </trkpt>
      <trkpt lat="44.32075" lon="0.76428">
        <ele>107</ele>
        <time>2025-10-12T14:32:07.518Z</time>
      </trkpt>
      <trkpt lat="44.32074" lon="0.7643">
        <ele>106</ele>
        <time>2025-10-12T14:32:08.518Z</time>
      </trkpt>
      <trkpt lat="44.32074" lon="0.76431">
        <ele>105</ele>
        <time>2025-10-12T14:32:09.518Z</time>
      </trkpt>
      <trkpt lat="44.32075" lon="0.76433">
        <ele>105</ele>
        <time>2025-10-12T14:32:10.518Z</time>
      </trkpt>
      <trkpt lat="44.32075" lon="0.76435">
        <ele>104</ele>
        <time>2025-10-12T14:32:11.518Z</time>
      </trkpt>
      <trkpt lat="44.32075" lon="0.76437">
        <ele>104</ele>
        <time>2025-10-12T14:32:12.518Z</time>
      </trkpt>
      <trkpt lat="44.32075" lon="0.76439">
        <ele>103</ele>
        <time>2025-10-12T14:32:13.518Z</time>
      </trkpt>
      <trkpt lat="44.32075" lon="0.76441">
        <ele>103</ele>
        <time>2025-10-12T14:32:14.518Z</time>
      </trkpt>
      <trkpt lat="44.32075" lon="0.76443">
        <ele>103</ele>
        <time>2025-10-12T14:32:15.518Z</time>
      </trkpt>
      <trkpt lat="44.32074" lon="0.76444">
        <ele>103</ele>
        <time>2025-10-12T14:32:16.518Z</time>
      </trkpt>
      <trkpt lat="44.32074" lon="0.76446">
        <ele>102</ele>
        <time>2025-10-12T14:32:17.518Z</time>
      </trkpt>
      <trkpt lat="44.32074" lon="0.76448">
        <ele>102</ele>
        <time>2025-10-12T14:32:18.518Z</time>
      </trkpt>
      <trkpt lat="44.32075" lon="0.7645">
        <ele>102</ele>
        <time>2025-10-12T14:32:19.518Z</time>
      </trkpt>
      <trkpt lat="44.32075" lon="0.76451">
        <ele>102</ele>
        <time>2025-10-12T14:32:20.518Z</time>
      </trkpt>
      <trkpt lat="44.32075" lon="0.76453">
        <ele>102</ele>
        <time>2025-10-12T14:32:21.518Z</time>
      </trkpt>
      <trkpt lat="44.32075" lon="0.76455">
        <ele>102</ele>
        <time>2025-10-12T14:32:22.518Z</time>
      </trkpt>
      <trkpt lat="44.32075" lon="0.76456">
        <ele>102</ele>
        <time>2025-10-12T14:32:23.518Z</time>
      </trkpt>
      <trkpt lat="44.32075" lon="0.76458">
        <ele>102</ele>
        <time>2025-10-12T14:32:24.518Z</time>
      </trkpt>
      <trkpt lat="44.32075" lon="0.76459">
        <ele>101</ele>
        <time>2025-10-12T14:32:25.518Z</time>
      </trkpt>
      <trkpt lat="44.32075" lon="0.76461">
        <ele>101</ele>
        <time>2025-10-12T14:32:26.518Z</time>
      </trkpt>
      <trkpt lat="44.32075" lon="0.76463">
        <ele>101</ele>
        <time>2025-10-12T14:32:27.518Z</time>
      </trkpt>
      <trkpt lat="44.32075" lon="0.76464">
        <ele>101</ele>
        <time>2025-10-12T14:32:28.518Z</time>
      </trkpt>
      <trkpt lat="44.32074" lon="0.76466">
        <ele>101</ele>
        <time>2025-10-12T14:32:29.518Z</time>
      </trkpt>
      <trkpt lat="44.32074" lon="0.76468">
        <ele>101</ele>
        <time>2025-10-12T14:32:30.518Z</time>
      </trkpt>
      <trkpt lat="44.32074" lon="0.76469">
        <ele>100</ele>
        <time>2025-10-12T14:32:31.518Z</time>
      </trkpt>
      <trkpt lat="44.32074" lon="0.76471">
        <ele>100</ele>
        <time>2025-10-12T14:32:32.518Z</time>
      </trkpt>
      <trkpt lat="44.32074" lon="0.76473">
        <ele>100</ele>
        <time>2025-10-12T14:32:33.518Z</time>
      </trkpt>
      <trkpt lat="44.32075" lon="0.76474">
        <ele>100</ele>
        <time>2025-10-12T14:32:34.518Z</time>
      </trkpt>
      <trkpt lat="44.32075" lon="0.76476">
        <ele>100</ele>
        <time>2025-10-12T14:32:35.518Z</time>
      </trkpt>
      <trkpt lat="44.32075" lon="0.76478">
        <ele>100</ele>
        <time>2025-10-12T14:32:36.518Z</time>
      </trkpt>
      <trkpt lat="44.32075" lon="0.76479">
        <ele>100</ele>
        <time>2025-10-12T14:32:37.518Z</time>
      </trkpt>
      <trkpt lat="44.32075" lon="0.76481">
        <ele>100</ele>
        <time>2025-10-12T14:32:38.518Z</time>
      </trkpt>
      <trkpt lat="44.32075" lon="0.76483">
        <ele>100</ele>
        <time>2025-10-12T14:32:39.518Z</time>
      </trkpt>
      <trkpt lat="44.32075" lon="0.76485">
        <ele>100</ele>
        <time>2025-10-12T14:32:40.518Z</time>
      </trkpt>
      <trkpt lat="44.32075" lon="0.76487">
        <ele>100</ele>
        <time>2025-10-12T14:32:41.518Z</time>
      </trkpt>
      <trkpt lat="44.32075" lon="0.76489">
        <ele>100</ele>
        <time>2025-10-12T14:32:42.518Z</time>
      </trkpt>
      <trkpt lat="44.32075" lon="0.76491">
        <ele>100</ele>
        <time>2025-10-12T14:32:43.518Z</time>
      </trkpt>
      <trkpt lat="44.32074" lon="0.76492">
        <ele>100</ele>
        <time>2025-10-12T14:32:44.518Z</time>
      </trkpt>
      <trkpt lat="44.32074" lon="0.76493">
        <ele>100</ele>
        <time>2025-10-12T14:32:45.518Z</time>
      </trkpt>
      <trkpt lat="44.32074" lon="0.76495">
        <ele>100</ele>
        <time>2025-10-12T14:32:46.518Z</time>
      </trkpt>
      <trkpt lat="44.32075" lon="0.76497">
        <ele>100</ele>
        <time>2025-10-12T14:32:47.518Z</time>
      </trkpt>
      <trkpt lat="44.32075" lon="0.76499">
        <ele>100</ele>
        <time>2025-10-12T14:32:48.518Z</time>
      </trkpt>
      <trkpt lat="44.32074" lon="0.76501">
        <ele>100</ele>
        <time>2025-10-12T14:32:49.518Z</time>
      </trkpt>
      <trkpt lat="44.32074" lon="0.76503">
        <ele>100</ele>
        <time>2025-10-12T14:32:50.518Z</time>
      </trkpt>
      <trkpt lat="44.32074" lon="0.76505">
        <ele>100</ele>
        <time>2025-10-12T14:32:51.518Z</time>
      </trkpt>
      <trkpt lat="44.32074" lon="0.76506">
        <ele>100</ele>
        <time>2025-10-12T14:32:52.518Z</time>
      </trkpt>
      <trkpt lat="44.32074" lon="0.76508">
        <ele>101</ele>
        <time>2025-10-12T14:32:53.518Z</time>
      </trkpt>
      <trkpt lat="44.32073" lon="0.7651">
        <ele>101</ele>
        <time>2025-10-12T14:32:54.518Z</time>
      </trkpt>
      <trkpt lat="44.32073" lon="0.76511">
        <ele>101</ele>
        <time>2025-10-12T14:32:55.518Z</time>
      </trkpt>
      <trkpt lat="44.32073" lon="0.76512">
        <ele>101</ele>
        <time>2025-10-12T14:32:56.518Z</time>
      </trkpt>
      <trkpt lat="44.32072" lon="0.76514">
        <ele>101</ele>
        <time>2025-10-12T14:32:57.518Z</time>
      </trkpt>
      <trkpt lat="44.32072" lon="0.76516">
        <ele>101</ele>
        <time>2025-10-12T14:32:58.518Z</time>
      </trkpt>
      <trkpt lat="44.32072" lon="0.76518">
        <ele>101</ele>
        <time>2025-10-12T14:32:59.518Z</time>
      </trkpt>
      <trkpt lat="44.32071" lon="0.76519">
        <ele>101</ele>
        <time>2025-10-12T14:33:00.518Z</time>
      </trkpt>
      <trkpt lat="44.32071" lon="0.76521">
        <ele>101</ele>
        <time>2025-10-12T14:33:01.518Z</time>
      </trkpt>
      <trkpt lat="44.32071" lon="0.76522">
        <ele>101</ele>
        <time>2025-10-12T14:33:02.518Z</time>
      </trkpt>
      <trkpt lat="44.3207" lon="0.76524">
        <ele>101</ele>
        <time>2025-10-12T14:33:03.518Z</time>
      </trkpt>
      <trkpt lat="44.3207" lon="0.76526">
        <ele>101</ele>
        <time>2025-10-12T14:33:04.518Z</time>
      </trkpt>
      <trkpt lat="44.32069" lon="0.76527">
        <ele>101</ele>
        <time>2025-10-12T14:33:05.518Z</time>
      </trkpt>
      <trkpt lat="44.32069" lon="0.76529">
        <ele>102</ele>
        <time>2025-10-12T14:33:06.518Z</time>
      </trkpt>
      <trkpt lat="44.32068" lon="0.7653">
        <ele>102</ele>
        <time>2025-10-12T14:33:07.518Z</time>
      </trkpt>
      <trkpt lat="44.32068" lon="0.76532">
        <ele>102</ele>
        <time>2025-10-12T14:33:08.518Z</time>
      </trkpt>
      <trkpt lat="44.32067" lon="0.76533">
        <ele>103</ele>
        <time>2025-10-12T14:33:09.518Z</time>
      </trkpt>
      <trkpt lat="44.32067" lon="0.76534">
        <ele>103</ele>
        <time>2025-10-12T14:33:10.518Z</time>
      </trkpt>
      <trkpt lat="44.32067" lon="0.76536">
        <ele>103</ele>
        <time>2025-10-12T14:33:11.518Z</time>
      </trkpt>
      <trkpt lat="44.32066" lon="0.76537">
        <ele>103</ele>
        <time>2025-10-12T14:33:12.518Z</time>
      </trkpt>
      <trkpt lat="44.32066" lon="0.76539">
        <ele>103</ele>
        <time>2025-10-12T14:33:13.518Z</time>
      </trkpt>
      <trkpt lat="44.32065" lon="0.7654">
        <ele>103</ele>
        <time>2025-10-12T14:33:14.518Z</time>
      </trkpt>
      <trkpt lat="44.32064" lon="0.76542">
        <ele>104</ele>
        <time>2025-10-12T14:33:15.518Z</time>
      </trkpt>
      <trkpt lat="44.32064" lon="0.76544">
        <ele>104</ele>
        <time>2025-10-12T14:33:16.518Z</time>
      </trkpt>
      <trkpt lat="44.32063" lon="0.76545">
        <ele>104</ele>
        <time>2025-10-12T14:33:17.518Z</time>
      </trkpt>
      <trkpt lat="44.32063" lon="0.76546">
        <ele>104</ele>
        <time>2025-10-12T14:33:18.518Z</time>
      </trkpt>
      <trkpt lat="44.32062" lon="0.76548">
        <ele>104</ele>
        <time>2025-10-12T14:33:19.518Z</time>
      </trkpt>
      <trkpt lat="44.32062" lon="0.76549">
        <ele>104</ele>
        <time>2025-10-12T14:33:20.518Z</time>
      </trkpt>
      <trkpt lat="44.32062" lon="0.76551">
        <ele>104</ele>
        <time>2025-10-12T14:33:21.518Z</time>
      </trkpt>
      <trkpt lat="44.32061" lon="0.76553">
        <ele>104</ele>
        <time>2025-10-12T14:33:22.518Z</time>
      </trkpt>
      <trkpt lat="44.3206" lon="0.76554">
        <ele>104</ele>
        <time>2025-10-12T14:33:23.518Z</time>
      </trkpt>
      <trkpt lat="44.3206" lon="0.76556">
        <ele>104</ele>
        <time>2025-10-12T14:33:24.518Z</time>
      </trkpt>
      <trkpt lat="44.32059" lon="0.76557">
        <ele>103</ele>
        <time>2025-10-12T14:33:25.518Z</time>
      </trkpt>
      <trkpt lat="44.32059" lon="0.76558">
        <ele>103</ele>
        <time>2025-10-12T14:33:26.518Z</time>
      </trkpt>
      <trkpt lat="44.32058" lon="0.7656">
        <ele>104</ele>
        <time>2025-10-12T14:33:27.518Z</time>
      </trkpt>
      <trkpt lat="44.32058" lon="0.76561">
        <ele>104</ele>
        <time>2025-10-12T14:33:28.518Z</time>
      </trkpt>
      <trkpt lat="44.32057" lon="0.76563">
        <ele>104</ele>
        <time>2025-10-12T14:33:29.518Z</time>
      </trkpt>
      <trkpt lat="44.32056" lon="0.76565">
        <ele>104</ele>
        <time>2025-10-12T14:33:30.518Z</time>
      </trkpt>
      <trkpt lat="44.32056" lon="0.76566">
        <ele>104</ele>
        <time>2025-10-12T14:33:31.518Z</time>
      </trkpt>
      <trkpt lat="44.32055" lon="0.76568">
        <ele>104</ele>
        <time>2025-10-12T14:33:32.518Z</time>
      </trkpt>
      <trkpt lat="44.32054" lon="0.76569">
        <ele>104</ele>
        <time>2025-10-12T14:33:33.518Z</time>
      </trkpt>
      <trkpt lat="44.32054" lon="0.76571">
        <ele>104</ele>
        <time>2025-10-12T14:33:34.518Z</time>
      </trkpt>
      <trkpt lat="44.32053" lon="0.76572">
        <ele>103</ele>
        <time>2025-10-12T14:33:35.518Z</time>
      </trkpt>
      <trkpt lat="44.32053" lon="0.76573">
        <ele>103</ele>
        <time>2025-10-12T14:33:36.518Z</time>
      </trkpt>
      <trkpt lat="44.32052" lon="0.76575">
        <ele>103</ele>
        <time>2025-10-12T14:33:37.518Z</time>
      </trkpt>
      <trkpt lat="44.32052" lon="0.76576">
        <ele>103</ele>
        <time>2025-10-12T14:33:38.518Z</time>
      </trkpt>
      <trkpt lat="44.32051" lon="0.76578">
        <ele>103</ele>
        <time>2025-10-12T14:33:39.518Z</time>
      </trkpt>
      <trkpt lat="44.3205" lon="0.76579">
        <ele>103</ele>
        <time>2025-10-12T14:33:40.518Z</time>
      </trkpt>
      <trkpt lat="44.3205" lon="0.76581">
        <ele>104</ele>
        <time>2025-10-12T14:33:41.518Z</time>
      </trkpt>
      <trkpt lat="44.32049" lon="0.76582">
        <ele>104</ele>
        <time>2025-10-12T14:33:42.518Z</time>
      </trkpt>
      <trkpt lat="44.32048" lon="0.76584">
        <ele>104</ele>
        <time>2025-10-12T14:33:43.518Z</time>
      </trkpt>
      <trkpt lat="44.32047" lon="0.76585">
        <ele>104</ele>
        <time>2025-10-12T14:33:44.518Z</time>
      </trkpt>
      <trkpt lat="44.32047" lon="0.76586">
        <ele>105</ele>
        <time>2025-10-12T14:33:45.518Z</time>
      </trkpt>
      <trkpt lat="44.32046" lon="0.76588">
        <ele>105</ele>
        <time>2025-10-12T14:33:46.518Z</time>
      </trkpt>
      <trkpt lat="44.32045" lon="0.76589">
        <ele>105</ele>
        <time>2025-10-12T14:33:47.518Z</time>
      </trkpt>
      <trkpt lat="44.32045" lon="0.7659">
        <ele>105</ele>
        <time>2025-10-12T14:33:48.518Z</time>
      </trkpt>
      <trkpt lat="44.32044" lon="0.76592">
        <ele>105</ele>
        <time>2025-10-12T14:33:49.518Z</time>
      </trkpt>
      <trkpt lat="44.32043" lon="0.76593">
        <ele>105</ele>
        <time>2025-10-12T14:33:50.518Z</time>
      </trkpt>
      <trkpt lat="44.32042" lon="0.76594">
        <ele>105</ele>
        <time>2025-10-12T14:33:51.518Z</time>
      </trkpt>
      <trkpt lat="44.32041" lon="0.76596">
        <ele>104</ele>
        <time>2025-10-12T14:33:52.518Z</time>
      </trkpt>
      <trkpt lat="44.3204" lon="0.76597">
        <ele>104</ele>
        <time>2025-10-12T14:33:53.518Z</time>
      </trkpt>
      <trkpt lat="44.32039" lon="0.76598">
        <ele>104</ele>
        <time>2025-10-12T14:33:54.518Z</time>
      </trkpt>
      <trkpt lat="44.32039" lon="0.76599">
        <ele>104</ele>
        <time>2025-10-12T14:33:55.518Z</time>
      </trkpt>
      <trkpt lat="44.32038" lon="0.766">
        <ele>104</ele>
        <time>2025-10-12T14:33:56.518Z</time>
      </trkpt>
      <trkpt lat="44.32037" lon="0.76601">
        <ele>104</ele>
        <time>2025-10-12T14:33:57.518Z</time>
      </trkpt>
      <trkpt lat="44.32036" lon="0.76602">
        <ele>104</ele>
        <time>2025-10-12T14:33:58.518Z</time>
      </trkpt>
      <trkpt lat="44.32034" lon="0.76603">
        <ele>105</ele>
        <time>2025-10-12T14:33:59.518Z</time>
      </trkpt>
      <trkpt lat="44.32033" lon="0.76604">
        <ele>105</ele>
        <time>2025-10-12T14:34:00.518Z</time>
      </trkpt>
      <trkpt lat="44.32032" lon="0.76605">
        <ele>106</ele>
        <time>2025-10-12T14:34:01.518Z</time>
      </trkpt>
      <trkpt lat="44.32032" lon="0.76606">
        <ele>106</ele>
        <time>2025-10-12T14:34:02.518Z</time>
      </trkpt>
      <trkpt lat="44.32031" lon="0.76608">
        <ele>107</ele>
        <time>2025-10-12T14:34:03.518Z</time>
      </trkpt>
      <trkpt lat="44.3203" lon="0.76608">
        <ele>107</ele>
        <time>2025-10-12T14:34:04.518Z</time>
      </trkpt>
      <trkpt lat="44.32029" lon="0.76609">
        <ele>107</ele>
        <time>2025-10-12T14:34:05.518Z</time>
      </trkpt>
      <trkpt lat="44.32028" lon="0.7661">
        <ele>107</ele>
        <time>2025-10-12T14:34:06.518Z</time>
      </trkpt>
      <trkpt lat="44.32026" lon="0.76611">
        <ele>107</ele>
        <time>2025-10-12T14:34:07.518Z</time>
      </trkpt>
      <trkpt lat="44.32025" lon="0.76612">
        <ele>107</ele>
        <time>2025-10-12T14:34:08.518Z</time>
      </trkpt>
      <trkpt lat="44.32024" lon="0.76613">
        <ele>106</ele>
        <time>2025-10-12T14:34:09.518Z</time>
      </trkpt>
      <trkpt lat="44.32023" lon="0.76614">
        <ele>107</ele>
        <time>2025-10-12T14:34:10.518Z</time>
      </trkpt>
      <trkpt lat="44.32022" lon="0.76616">
        <ele>107</ele>
        <time>2025-10-12T14:34:11.518Z</time>
      </trkpt>
      <trkpt lat="44.32021" lon="0.76617">
        <ele>107</ele>
        <time>2025-10-12T14:34:12.518Z</time>
      </trkpt>
      <trkpt lat="44.3202" lon="0.76618">
        <ele>108</ele>
        <time>2025-10-12T14:34:13.518Z</time>
      </trkpt>
      <trkpt lat="44.32019" lon="0.76619">
        <ele>108</ele>
        <time>2025-10-12T14:34:14.518Z</time>
      </trkpt>
      <trkpt lat="44.32019" lon="0.7662">
        <ele>108</ele>
        <time>2025-10-12T14:34:15.518Z</time>
      </trkpt>
      <trkpt lat="44.32017" lon="0.76621">
        <ele>108</ele>
        <time>2025-10-12T14:34:16.518Z</time>
      </trkpt>
      <trkpt lat="44.32016" lon="0.76623">
        <ele>108</ele>
        <time>2025-10-12T14:34:17.518Z</time>
      </trkpt>
      <trkpt lat="44.32015" lon="0.76624">
        <ele>108</ele>
        <time>2025-10-12T14:34:18.518Z</time>
      </trkpt>
      <trkpt lat="44.32014" lon="0.76626">
        <ele>108</ele>
        <time>2025-10-12T14:34:19.518Z</time>
      </trkpt>
      <trkpt lat="44.32013" lon="0.76627">
        <ele>108</ele>
        <time>2025-10-12T14:34:20.518Z</time>
      </trkpt>
      <trkpt lat="44.32011" lon="0.76628">
        <ele>108</ele>
        <time>2025-10-12T14:34:21.518Z</time>
      </trkpt>
      <trkpt lat="44.3201" lon="0.76629">
        <ele>108</ele>
        <time>2025-10-12T14:34:22.518Z</time>
      </trkpt>
      <trkpt lat="44.32009" lon="0.7663">
        <ele>108</ele>
        <time>2025-10-12T14:34:23.518Z</time>
      </trkpt>
      <trkpt lat="44.32008" lon="0.76632">
        <ele>107</ele>
        <time>2025-10-12T14:34:24.518Z</time>
      </trkpt>
      <trkpt lat="44.32007" lon="0.76633">
        <ele>107</ele>
        <time>2025-10-12T14:34:25.518Z</time>
      </trkpt>
      <trkpt lat="44.32006" lon="0.76634">
        <ele>107</ele>
        <time>2025-10-12T14:34:26.518Z</time>
      </trkpt>
      <trkpt lat="44.32005" lon="0.76635">
        <ele>107</ele>
        <time>2025-10-12T14:34:27.518Z</time>
      </trkpt>
      <trkpt lat="44.32004" lon="0.76636">
        <ele>107</ele>
        <time>2025-10-12T14:34:28.518Z</time>
      </trkpt>
      <trkpt lat="44.32003" lon="0.76637">
        <ele>106</ele>
        <time>2025-10-12T14:34:29.518Z</time>
      </trkpt>
      <trkpt lat="44.32002" lon="0.76638">
        <ele>106</ele>
        <time>2025-10-12T14:34:30.518Z</time>
      </trkpt>
      <trkpt lat="44.32" lon="0.76639">
        <ele>106</ele>
        <time>2025-10-12T14:34:31.518Z</time>
      </trkpt>
      <trkpt lat="44.31999" lon="0.7664">
        <ele>106</ele>
        <time>2025-10-12T14:34:32.518Z</time>
      </trkpt>
      <trkpt lat="44.31998" lon="0.76641">
        <ele>106</ele>
        <time>2025-10-12T14:34:33.518Z</time>
      </trkpt>
      <trkpt lat="44.31997" lon="0.76642">
        <ele>106</ele>
        <time>2025-10-12T14:34:34.518Z</time>
      </trkpt>
      <trkpt lat="44.31996" lon="0.76643">
        <ele>106</ele>
        <time>2025-10-12T14:34:35.518Z</time>
      </trkpt>
      <trkpt lat="44.31994" lon="0.76645">
        <ele>106</ele>
        <time>2025-10-12T14:34:36.518Z</time>
      </trkpt>
      <trkpt lat="44.31993" lon="0.76646">
        <ele>106</ele>
        <time>2025-10-12T14:34:37.518Z</time>
      </trkpt>
      <trkpt lat="44.31992" lon="0.76647">
        <ele>106</ele>
        <time>2025-10-12T14:34:38.518Z</time>
      </trkpt>
      <trkpt lat="44.31991" lon="0.76648">
        <ele>106</ele>
        <time>2025-10-12T14:34:39.518Z</time>
      </trkpt>
      <trkpt lat="44.3199" lon="0.76649">
        <ele>106</ele>
        <time>2025-10-12T14:34:40.518Z</time>
      </trkpt>
      <trkpt lat="44.31989" lon="0.7665">
        <ele>106</ele>
        <time>2025-10-12T14:34:41.518Z</time>
      </trkpt>
      <trkpt lat="44.31988" lon="0.76652">
        <ele>106</ele>
        <time>2025-10-12T14:34:42.518Z</time>
      </trkpt>
      <trkpt lat="44.31987" lon="0.76653">
        <ele>106</ele>
        <time>2025-10-12T14:34:43.518Z</time>
      </trkpt>
      <trkpt lat="44.31986" lon="0.76654">
        <ele>106</ele>
        <time>2025-10-12T14:34:44.518Z</time>
      </trkpt>
      <trkpt lat="44.31985" lon="0.76655">
        <ele>106</ele>
        <time>2025-10-12T14:34:45.518Z</time>
      </trkpt>
      <trkpt lat="44.31984" lon="0.76657">
        <ele>106</ele>
        <time>2025-10-12T14:34:46.518Z</time>
      </trkpt>
      <trkpt lat="44.31983" lon="0.76658">
        <ele>105</ele>
        <time>2025-10-12T14:34:47.518Z</time>
      </trkpt>
      <trkpt lat="44.31982" lon="0.76659">
        <ele>105</ele>
        <time>2025-10-12T14:34:48.518Z</time>
      </trkpt>
      <trkpt lat="44.31981" lon="0.7666">
        <ele>105</ele>
        <time>2025-10-12T14:34:49.518Z</time>
      </trkpt>
      <trkpt lat="44.3198" lon="0.76661">
        <ele>105</ele>
        <time>2025-10-12T14:34:50.518Z</time>
      </trkpt>
      <trkpt lat="44.31979" lon="0.76663">
        <ele>105</ele>
        <time>2025-10-12T14:34:51.518Z</time>
      </trkpt>
      <trkpt lat="44.31978" lon="0.76664">
        <ele>105</ele>
        <time>2025-10-12T14:34:52.518Z</time>
      </trkpt>
      <trkpt lat="44.31977" lon="0.76665">
        <ele>105</ele>
        <time>2025-10-12T14:34:53.518Z</time>
      </trkpt>
      <trkpt lat="44.31976" lon="0.76667">
        <ele>105</ele>
        <time>2025-10-12T14:34:54.518Z</time>
      </trkpt>
      <trkpt lat="44.31975" lon="0.76668">
        <ele>105</ele>
        <time>2025-10-12T14:34:55.518Z</time>
      </trkpt>
      <trkpt lat="44.31974" lon="0.76669">
        <ele>105</ele>
        <time>2025-10-12T14:34:56.518Z</time>
      </trkpt>
      <trkpt lat="44.31973" lon="0.7667">
        <ele>105</ele>
        <time>2025-10-12T14:34:57.518Z</time>
      </trkpt>
      <trkpt lat="44.31972" lon="0.76671">
        <ele>105</ele>
        <time>2025-10-12T14:34:58.518Z</time>
      </trkpt>
      <trkpt lat="44.31971" lon="0.76673">
        <ele>104</ele>
        <time>2025-10-12T14:34:59.518Z</time>
      </trkpt>
      <trkpt lat="44.31971" lon="0.76674">
        <ele>104</ele>
        <time>2025-10-12T14:35:00.518Z</time>
      </trkpt>
      <trkpt lat="44.3197" lon="0.76675">
        <ele>104</ele>
        <time>2025-10-12T14:35:01.518Z</time>
      </trkpt>
      <trkpt lat="44.31969" lon="0.76676">
        <ele>104</ele>
        <time>2025-10-12T14:35:02.518Z</time>
      </trkpt>
      <trkpt lat="44.31968" lon="0.76677">
        <ele>104</ele>
        <time>2025-10-12T14:35:03.518Z</time>
      </trkpt>
      <trkpt lat="44.31967" lon="0.76679">
        <ele>104</ele>
        <time>2025-10-12T14:35:04.518Z</time>
      </trkpt>
      <trkpt lat="44.31966" lon="0.7668">
        <ele>104</ele>
        <time>2025-10-12T14:35:05.518Z</time>
      </trkpt>
      <trkpt lat="44.31965" lon="0.76681">
        <ele>104</ele>
        <time>2025-10-12T14:35:06.518Z</time>
      </trkpt>
      <trkpt lat="44.31965" lon="0.76683">
        <ele>105</ele>
        <time>2025-10-12T14:35:07.518Z</time>
      </trkpt>
      <trkpt lat="44.31965" lon="0.76684">
        <ele>104</ele>
        <time>2025-10-12T14:35:08.518Z</time>
      </trkpt>
      <trkpt lat="44.31964" lon="0.76686">
        <ele>104</ele>
        <time>2025-10-12T14:35:09.518Z</time>
      </trkpt>
      <trkpt lat="44.31964" lon="0.76687">
        <ele>104</ele>
        <time>2025-10-12T14:35:10.518Z</time>
      </trkpt>
      <trkpt lat="44.31963" lon="0.76688">
        <ele>104</ele>
        <time>2025-10-12T14:35:11.518Z</time>
      </trkpt>
      <trkpt lat="44.31963" lon="0.7669">
        <ele>104</ele>
        <time>2025-10-12T14:35:12.518Z</time>
      </trkpt>
      <trkpt lat="44.31962" lon="0.76691">
        <ele>103</ele>
        <time>2025-10-12T14:35:13.518Z</time>
      </trkpt>
      <trkpt lat="44.31961" lon="0.76692">
        <ele>103</ele>
        <time>2025-10-12T14:35:14.518Z</time>
      </trkpt>
      <trkpt lat="44.31961" lon="0.76694">
        <ele>103</ele>
        <time>2025-10-12T14:35:15.518Z</time>
      </trkpt>
      <trkpt lat="44.3196" lon="0.76695">
        <ele>103</ele>
        <time>2025-10-12T14:35:16.518Z</time>
      </trkpt>
      <trkpt lat="44.31959" lon="0.76697">
        <ele>103</ele>
        <time>2025-10-12T14:35:17.518Z</time>
      </trkpt>
      <trkpt lat="44.31958" lon="0.76698">
        <ele>103</ele>
        <time>2025-10-12T14:35:18.518Z</time>
      </trkpt>
      <trkpt lat="44.31958" lon="0.767">
        <ele>103</ele>
        <time>2025-10-12T14:35:19.518Z</time>
      </trkpt>
      <trkpt lat="44.31957" lon="0.76701">
        <ele>103</ele>
        <time>2025-10-12T14:35:20.518Z</time>
      </trkpt>
      <trkpt lat="44.31957" lon="0.76702">
        <ele>103</ele>
        <time>2025-10-12T14:35:21.518Z</time>
      </trkpt>
      <trkpt lat="44.31956" lon="0.76703">
        <ele>104</ele>
        <time>2025-10-12T14:35:22.518Z</time>
      </trkpt>
      <trkpt lat="44.31955" lon="0.76704">
        <ele>104</ele>
        <time>2025-10-12T14:35:23.518Z</time>
      </trkpt>
      <trkpt lat="44.31955" lon="0.76705">
        <ele>104</ele>
        <time>2025-10-12T14:35:24.518Z</time>
      </trkpt>
      <trkpt lat="44.31955" lon="0.76705">
        <ele>104</ele>
        <time>2025-10-12T14:35:25.518Z</time>
      </trkpt>
      <trkpt lat="44.31954" lon="0.76706">
        <ele>104</ele>
        <time>2025-10-12T14:35:26.518Z</time>
      </trkpt>
      <trkpt lat="44.31953" lon="0.76706">
        <ele>104</ele>
        <time>2025-10-12T14:35:27.518Z</time>
      </trkpt>
      <trkpt lat="44.31952" lon="0.76707">
        <ele>105</ele>
        <time>2025-10-12T14:35:28.518Z</time>
      </trkpt>
      <trkpt lat="44.31951" lon="0.76707">
        <ele>105</ele>
        <time>2025-10-12T14:35:29.518Z</time>
      </trkpt>
      <trkpt lat="44.3195" lon="0.76706">
        <ele>106</ele>
        <time>2025-10-12T14:35:30.518Z</time>
      </trkpt>
      <trkpt lat="44.3195" lon="0.76707">
        <ele>106</ele>
        <time>2025-10-12T14:35:31.518Z</time>
      </trkpt>
      <trkpt lat="44.31949" lon="0.76707">
        <ele>107</ele>
        <time>2025-10-12T14:35:32.518Z</time>
      </trkpt>
      <trkpt lat="44.31948" lon="0.76707">
        <ele>107</ele>
        <time>2025-10-12T14:35:33.518Z</time>
      </trkpt>
      <trkpt lat="44.31948" lon="0.76707">
        <ele>107</ele>
        <time>2025-10-12T14:35:34.518Z</time>
      </trkpt>
      <trkpt lat="44.31947" lon="0.76707">
        <ele>108</ele>
        <time>2025-10-12T14:35:35.518Z</time>
      </trkpt>
      <trkpt lat="44.31946" lon="0.76708">
        <ele>108</ele>
        <time>2025-10-12T14:35:36.518Z</time>
      </trkpt>
      <trkpt lat="44.31944" lon="0.76708">
        <ele>108</ele>
        <time>2025-10-12T14:35:37.518Z</time>
      </trkpt>
      <trkpt lat="44.31943" lon="0.76708">
        <ele>108</ele>
        <time>2025-10-12T14:35:38.518Z</time>
      </trkpt>
      <trkpt lat="44.31942" lon="0.76708">
        <ele>108</ele>
        <time>2025-10-12T14:35:39.518Z</time>
      </trkpt>
      <trkpt lat="44.31941" lon="0.76708">
        <ele>108</ele>
        <time>2025-10-12T14:35:40.518Z</time>
      </trkpt>
      <trkpt lat="44.3194" lon="0.76708">
        <ele>108</ele>
        <time>2025-10-12T14:35:41.518Z</time>
      </trkpt>
      <trkpt lat="44.31938" lon="0.76707">
        <ele>108</ele>
        <time>2025-10-12T14:35:42.518Z</time>
      </trkpt>
      <trkpt lat="44.31938" lon="0.76707">
        <ele>108</ele>
        <time>2025-10-12T14:35:43.518Z</time>
      </trkpt>
      <trkpt lat="44.31937" lon="0.76707">
        <ele>108</ele>
        <time>2025-10-12T14:35:44.518Z</time>
      </trkpt>
      <trkpt lat="44.31936" lon="0.76706">
        <ele>109</ele>
        <time>2025-10-12T14:35:45.518Z</time>
      </trkpt>
      <trkpt lat="44.31935" lon="0.76706">
        <ele>109</ele>
        <time>2025-10-12T14:35:46.518Z</time>
      </trkpt>
      <trkpt lat="44.31934" lon="0.76705">
        <ele>109</ele>
        <time>2025-10-12T14:35:47.518Z</time>
      </trkpt>
      <trkpt lat="44.31933" lon="0.76705">
        <ele>109</ele>
        <time>2025-10-12T14:35:48.518Z</time>
      </trkpt>
      <trkpt lat="44.31932" lon="0.76704">
        <ele>110</ele>
        <time>2025-10-12T14:35:49.518Z</time>
      </trkpt>
      <trkpt lat="44.31931" lon="0.76704">
        <ele>110</ele>
        <time>2025-10-12T14:35:50.518Z</time>
      </trkpt>
      <trkpt lat="44.3193" lon="0.76704">
        <ele>110</ele>
        <time>2025-10-12T14:35:51.518Z</time>
      </trkpt>
      <trkpt lat="44.31929" lon="0.76704">
        <ele>110</ele>
        <time>2025-10-12T14:35:52.518Z</time>
      </trkpt>
      <trkpt lat="44.31928" lon="0.76703">
        <ele>111</ele>
        <time>2025-10-12T14:35:53.518Z</time>
      </trkpt>
      <trkpt lat="44.31927" lon="0.76702">
        <ele>111</ele>
        <time>2025-10-12T14:35:54.518Z</time>
      </trkpt>
      <trkpt lat="44.31926" lon="0.76702">
        <ele>111</ele>
        <time>2025-10-12T14:35:55.518Z</time>
      </trkpt>
      <trkpt lat="44.31924" lon="0.76701">
        <ele>111</ele>
        <time>2025-10-12T14:35:56.518Z</time>
      </trkpt>
      <trkpt lat="44.31923" lon="0.767">
        <ele>111</ele>
        <time>2025-10-12T14:35:57.518Z</time>
      </trkpt>
      <trkpt lat="44.31922" lon="0.767">
        <ele>111</ele>
        <time>2025-10-12T14:35:58.518Z</time>
      </trkpt>
      <trkpt lat="44.31921" lon="0.767">
        <ele>111</ele>
        <time>2025-10-12T14:35:59.518Z</time>
      </trkpt>
      <trkpt lat="44.31919" lon="0.76699">
        <ele>112</ele>
        <time>2025-10-12T14:36:00.518Z</time>
      </trkpt>
      <trkpt lat="44.31918" lon="0.76699">
        <ele>112</ele>
        <time>2025-10-12T14:36:01.518Z</time>
      </trkpt>
      <trkpt lat="44.31917" lon="0.76699">
        <ele>112</ele>
        <time>2025-10-12T14:36:02.518Z</time>
      </trkpt>
      <trkpt lat="44.31916" lon="0.76698">
        <ele>113</ele>
        <time>2025-10-12T14:36:03.518Z</time>
      </trkpt>
      <trkpt lat="44.31915" lon="0.76698">
        <ele>113</ele>
        <time>2025-10-12T14:36:04.518Z</time>
      </trkpt>
      <trkpt lat="44.31914" lon="0.76698">
        <ele>113</ele>
        <time>2025-10-12T14:36:05.518Z</time>
      </trkpt>
      <trkpt lat="44.31913" lon="0.76697">
        <ele>113</ele>
        <time>2025-10-12T14:36:06.518Z</time>
      </trkpt>
      <trkpt lat="44.31912" lon="0.76697">
        <ele>112</ele>
        <time>2025-10-12T14:36:07.518Z</time>
      </trkpt>
      <trkpt lat="44.31911" lon="0.76696">
        <ele>112</ele>
        <time>2025-10-12T14:36:08.518Z</time>
      </trkpt>
      <trkpt lat="44.3191" lon="0.76696">
        <ele>112</ele>
        <time>2025-10-12T14:36:09.518Z</time>
      </trkpt>
      <trkpt lat="44.31909" lon="0.76695">
        <ele>112</ele>
        <time>2025-10-12T14:36:10.518Z</time>
      </trkpt>
      <trkpt lat="44.31908" lon="0.76695">
        <ele>112</ele>
        <time>2025-10-12T14:36:11.518Z</time>
      </trkpt>
      <trkpt lat="44.31907" lon="0.76694">
        <ele>112</ele>
        <time>2025-10-12T14:36:12.518Z</time>
      </trkpt>
      <trkpt lat="44.31905" lon="0.76693">
        <ele>112</ele>
        <time>2025-10-12T14:36:13.518Z</time>
      </trkpt>
      <trkpt lat="44.31904" lon="0.76693">
        <ele>112</ele>
        <time>2025-10-12T14:36:14.518Z</time>
      </trkpt>
      <trkpt lat="44.31903" lon="0.76693">
        <ele>112</ele>
        <time>2025-10-12T14:36:15.518Z</time>
      </trkpt>
      <trkpt lat="44.31902" lon="0.76693">
        <ele>113</ele>
        <time>2025-10-12T14:36:16.518Z</time>
      </trkpt>
      <trkpt lat="44.31901" lon="0.76692">
        <ele>113</ele>
        <time>2025-10-12T14:36:17.518Z</time>
      </trkpt>
      <trkpt lat="44.319" lon="0.76692">
        <ele>113</ele>
        <time>2025-10-12T14:36:18.518Z</time>
      </trkpt>
      <trkpt lat="44.31899" lon="0.76691">
        <ele>114</ele>
        <time>2025-10-12T14:36:19.518Z</time>
      </trkpt>
      <trkpt lat="44.31898" lon="0.76691">
        <ele>114</ele>
        <time>2025-10-12T14:36:20.518Z</time>
      </trkpt>
      <trkpt lat="44.31897" lon="0.76691">
        <ele>114</ele>
        <time>2025-10-12T14:36:21.518Z</time>
      </trkpt>
      <trkpt lat="44.31897" lon="0.76691">
        <ele>114</ele>
        <time>2025-10-12T14:36:22.518Z</time>
      </trkpt>
      <trkpt lat="44.31896" lon="0.76691">
        <ele>113</ele>
        <time>2025-10-12T14:36:23.518Z</time>
      </trkpt>
      <trkpt lat="44.31896" lon="0.76692">
        <ele>113</ele>
        <time>2025-10-12T14:36:24.518Z</time>
      </trkpt>
      <trkpt lat="44.31896" lon="0.76693">
        <ele>112</ele>
        <time>2025-10-12T14:36:25.518Z</time>
      </trkpt>
      <trkpt lat="44.31896" lon="0.76694">
        <ele>112</ele>
        <time>2025-10-12T14:36:26.518Z</time>
      </trkpt>
      <trkpt lat="44.31896" lon="0.76696">
        <ele>112</ele>
        <time>2025-10-12T14:36:27.518Z</time>
      </trkpt>
      <trkpt lat="44.31896" lon="0.76696">
        <ele>112</ele>
        <time>2025-10-12T14:36:28.518Z</time>
      </trkpt>
      <trkpt lat="44.31895" lon="0.76697">
        <ele>111</ele>
        <time>2025-10-12T14:36:29.518Z</time>
      </trkpt>
      <trkpt lat="44.31895" lon="0.76698">
        <ele>111</ele>
        <time>2025-10-12T14:36:30.518Z</time>
      </trkpt>
      <trkpt lat="44.31895" lon="0.76699">
        <ele>111</ele>
        <time>2025-10-12T14:36:31.518Z</time>
      </trkpt>
      <trkpt lat="44.31895" lon="0.767">
        <ele>110</ele>
        <time>2025-10-12T14:36:32.518Z</time>
      </trkpt>
      <trkpt lat="44.31895" lon="0.76702">
        <ele>110</ele>
        <time>2025-10-12T14:36:33.518Z</time>
      </trkpt>
      <trkpt lat="44.31894" lon="0.76703">
        <ele>110</ele>
        <time>2025-10-12T14:36:34.518Z</time>
      </trkpt>
      <trkpt lat="44.31894" lon="0.76705">
        <ele>110</ele>
        <time>2025-10-12T14:36:35.518Z</time>
      </trkpt>
      <trkpt lat="44.31894" lon="0.76706">
        <ele>110</ele>
        <time>2025-10-12T14:36:36.518Z</time>
      </trkpt>
      <trkpt lat="44.31894" lon="0.76707">
        <ele>110</ele>
        <time>2025-10-12T14:36:37.518Z</time>
      </trkpt>
      <trkpt lat="44.31894" lon="0.76709">
        <ele>110</ele>
        <time>2025-10-12T14:36:38.518Z</time>
      </trkpt>
      <trkpt lat="44.31894" lon="0.7671">
        <ele>110</ele>
        <time>2025-10-12T14:36:39.518Z</time>
      </trkpt>
      <trkpt lat="44.31894" lon="0.76712">
        <ele>111</ele>
        <time>2025-10-12T14:36:40.518Z</time>
      </trkpt>
      <trkpt lat="44.31893" lon="0.76713">
        <ele>111</ele>
        <time>2025-10-12T14:36:41.518Z</time>
      </trkpt>
      <trkpt lat="44.31893" lon="0.76715">
        <ele>111</ele>
        <time>2025-10-12T14:36:42.518Z</time>
      </trkpt>
      <trkpt lat="44.31893" lon="0.76716">
        <ele>112</ele>
        <time>2025-10-12T14:36:43.518Z</time>
      </trkpt>
      <trkpt lat="44.31892" lon="0.76718">
        <ele>112</ele>
        <time>2025-10-12T14:36:44.518Z</time>
      </trkpt>
      <trkpt lat="44.31892" lon="0.76719">
        <ele>111</ele>
        <time>2025-10-12T14:36:45.518Z</time>
      </trkpt>
      <trkpt lat="44.31892" lon="0.76721">
        <ele>111</ele>
        <time>2025-10-12T14:36:46.518Z</time>
      </trkpt>
      <trkpt lat="44.31892" lon="0.76722">
        <ele>111</ele>
        <time>2025-10-12T14:36:47.518Z</time>
      </trkpt>
      <trkpt lat="44.31892" lon="0.76723">
        <ele>112</ele>
        <time>2025-10-12T14:36:48.518Z</time>
      </trkpt>
      <trkpt lat="44.31892" lon="0.76725">
        <ele>112</ele>
        <time>2025-10-12T14:36:49.518Z</time>
      </trkpt>
      <trkpt lat="44.31892" lon="0.76727">
        <ele>112</ele>
        <time>2025-10-12T14:36:50.518Z</time>
      </trkpt>
      <trkpt lat="44.31892" lon="0.76729">
        <ele>112</ele>
        <time>2025-10-12T14:36:51.518Z</time>
      </trkpt>
      <trkpt lat="44.31892" lon="0.7673">
        <ele>112</ele>
        <time>2025-10-12T14:36:52.518Z</time>
      </trkpt>
      <trkpt lat="44.31892" lon="0.76732">
        <ele>112</ele>
        <time>2025-10-12T14:36:53.518Z</time>
      </trkpt>
      <trkpt lat="44.31892" lon="0.76734">
        <ele>112</ele>
        <time>2025-10-12T14:36:54.518Z</time>
      </trkpt>
      <trkpt lat="44.31892" lon="0.76735">
        <ele>112</ele>
        <time>2025-10-12T14:36:55.518Z</time>
      </trkpt>
      <trkpt lat="44.31892" lon="0.76736">
        <ele>112</ele>
        <time>2025-10-12T14:36:56.518Z</time>
      </trkpt>
      <trkpt lat="44.31891" lon="0.76738">
        <ele>113</ele>
        <time>2025-10-12T14:36:57.518Z</time>
      </trkpt>
      <trkpt lat="44.31891" lon="0.76739">
        <ele>113</ele>
        <time>2025-10-12T14:36:58.518Z</time>
      </trkpt>
      <trkpt lat="44.31891" lon="0.76741">
        <ele>113</ele>
        <time>2025-10-12T14:36:59.518Z</time>
      </trkpt>
      <trkpt lat="44.31891" lon="0.76743">
        <ele>113</ele>
        <time>2025-10-12T14:37:00.518Z</time>
      </trkpt>
      <trkpt lat="44.31892" lon="0.76745">
        <ele>113</ele>
        <time>2025-10-12T14:37:01.518Z</time>
      </trkpt>
      <trkpt lat="44.31892" lon="0.76746">
        <ele>113</ele>
        <time>2025-10-12T14:37:02.518Z</time>
      </trkpt>
      <trkpt lat="44.31891" lon="0.76748">
        <ele>112</ele>
        <time>2025-10-12T14:37:03.518Z</time>
      </trkpt>
      <trkpt lat="44.31891" lon="0.7675">
        <ele>112</ele>
        <time>2025-10-12T14:37:04.518Z</time>
      </trkpt>
      <trkpt lat="44.31891" lon="0.76751">
        <ele>112</ele>
        <time>2025-10-12T14:37:05.518Z</time>
      </trkpt>
      <trkpt lat="44.31891" lon="0.76753">
        <ele>111</ele>
        <time>2025-10-12T14:37:06.518Z</time>
      </trkpt>
      <trkpt lat="44.3189" lon="0.76755">
        <ele>111</ele>
        <time>2025-10-12T14:37:07.518Z</time>
      </trkpt>
      <trkpt lat="44.3189" lon="0.76757">
        <ele>111</ele>
        <time>2025-10-12T14:37:08.518Z</time>
      </trkpt>
      <trkpt lat="44.3189" lon="0.76759">
        <ele>110</ele>
        <time>2025-10-12T14:37:09.518Z</time>
      </trkpt>
      <trkpt lat="44.3189" lon="0.76761">
        <ele>110</ele>
        <time>2025-10-12T14:37:10.518Z</time>
      </trkpt>
      <trkpt lat="44.3189" lon="0.76762">
        <ele>110</ele>
        <time>2025-10-12T14:37:11.518Z</time>
      </trkpt>
      <trkpt lat="44.31889" lon="0.76764">
        <ele>110</ele>
        <time>2025-10-12T14:37:12.518Z</time>
      </trkpt>
      <trkpt lat="44.31889" lon="0.76766">
        <ele>110</ele>
        <time>2025-10-12T14:37:13.518Z</time>
      </trkpt>
      <trkpt lat="44.31888" lon="0.76767">
        <ele>110</ele>
        <time>2025-10-12T14:37:14.518Z</time>
      </trkpt>
      <trkpt lat="44.31888" lon="0.76769">
        <ele>111</ele>
        <time>2025-10-12T14:37:15.518Z</time>
      </trkpt>
      <trkpt lat="44.31887" lon="0.7677">
        <ele>111</ele>
        <time>2025-10-12T14:37:16.518Z</time>
      </trkpt>
      <trkpt lat="44.31887" lon="0.76772">
        <ele>111</ele>
        <time>2025-10-12T14:37:17.518Z</time>
      </trkpt>
      <trkpt lat="44.31888" lon="0.76774">
        <ele>111</ele>
        <time>2025-10-12T14:37:18.518Z</time>
      </trkpt>
      <trkpt lat="44.31888" lon="0.76776">
        <ele>111</ele>
        <time>2025-10-12T14:37:19.518Z</time>
      </trkpt>
      <trkpt lat="44.31888" lon="0.76777">
        <ele>111</ele>
        <time>2025-10-12T14:37:20.518Z</time>
      </trkpt>
      <trkpt lat="44.31888" lon="0.76779">
        <ele>111</ele>
        <time>2025-10-12T14:37:21.518Z</time>
      </trkpt>
      <trkpt lat="44.31887" lon="0.76781">
        <ele>111</ele>
        <time>2025-10-12T14:37:22.518Z</time>
      </trkpt>
      <trkpt lat="44.31887" lon="0.76782">
        <ele>111</ele>
        <time>2025-10-12T14:37:23.518Z</time>
      </trkpt>
      <trkpt lat="44.31887" lon="0.76784">
        <ele>111</ele>
        <time>2025-10-12T14:37:24.518Z</time>
      </trkpt>
      <trkpt lat="44.31887" lon="0.76786">
        <ele>111</ele>
        <time>2025-10-12T14:37:25.518Z</time>
      </trkpt>
      <trkpt lat="44.31886" lon="0.76787">
        <ele>112</ele>
        <time>2025-10-12T14:37:26.518Z</time>
      </trkpt>
      <trkpt lat="44.31886" lon="0.76789">
        <ele>112</ele>
        <time>2025-10-12T14:37:27.518Z</time>
      </trkpt>
      <trkpt lat="44.31886" lon="0.7679">
        <ele>112</ele>
        <time>2025-10-12T14:37:28.518Z</time>
      </trkpt>
      <trkpt lat="44.31886" lon="0.76792">
        <ele>112</ele>
        <time>2025-10-12T14:37:29.518Z</time>
      </trkpt>
      <trkpt lat="44.31885" lon="0.76793">
        <ele>112</ele>
        <time>2025-10-12T14:37:30.518Z</time>
      </trkpt>
      <trkpt lat="44.31885" lon="0.76795">
        <ele>112</ele>
        <time>2025-10-12T14:37:31.518Z</time>
      </trkpt>
      <trkpt lat="44.31884" lon="0.76796">
        <ele>111</ele>
        <time>2025-10-12T14:37:32.518Z</time>
      </trkpt>
      <trkpt lat="44.31884" lon="0.76798">
        <ele>111</ele>
        <time>2025-10-12T14:37:33.518Z</time>
      </trkpt>
      <trkpt lat="44.31884" lon="0.768">
        <ele>111</ele>
        <time>2025-10-12T14:37:34.518Z</time>
      </trkpt>
      <trkpt lat="44.31884" lon="0.76802">
        <ele>111</ele>
        <time>2025-10-12T14:37:35.518Z</time>
      </trkpt>
      <trkpt lat="44.31883" lon="0.76803">
        <ele>111</ele>
        <time>2025-10-12T14:37:36.518Z</time>
      </trkpt>
      <trkpt lat="44.31883" lon="0.76805">
        <ele>111</ele>
        <time>2025-10-12T14:37:37.518Z</time>
      </trkpt>
      <trkpt lat="44.31883" lon="0.76806">
        <ele>111</ele>
        <time>2025-10-12T14:37:38.518Z</time>
      </trkpt>
      <trkpt lat="44.31883" lon="0.76808">
        <ele>111</ele>
        <time>2025-10-12T14:37:39.518Z</time>
      </trkpt>
      <trkpt lat="44.31883" lon="0.76809">
        <ele>112</ele>
        <time>2025-10-12T14:37:40.518Z</time>
      </trkpt>
      <trkpt lat="44.31883" lon="0.7681">
        <ele>112</ele>
        <time>2025-10-12T14:37:41.518Z</time>
      </trkpt>
      <trkpt lat="44.31883" lon="0.76812">
        <ele>112</ele>
        <time>2025-10-12T14:37:42.518Z</time>
      </trkpt>
      <trkpt lat="44.31883" lon="0.76813">
        <ele>112</ele>
        <time>2025-10-12T14:37:43.518Z</time>
      </trkpt>
      <trkpt lat="44.31884" lon="0.76814">
        <ele>113</ele>
        <time>2025-10-12T14:37:44.518Z</time>
      </trkpt>
      <trkpt lat="44.31884" lon="0.76816">
        <ele>113</ele>
        <time>2025-10-12T14:37:45.518Z</time>
      </trkpt>
      <trkpt lat="44.31885" lon="0.76817">
        <ele>113</ele>
        <time>2025-10-12T14:37:46.518Z</time>
      </trkpt>
      <trkpt lat="44.31885" lon="0.76818">
        <ele>113</ele>
        <time>2025-10-12T14:37:47.518Z</time>
      </trkpt>
      <trkpt lat="44.31886" lon="0.76819">
        <ele>113</ele>
        <time>2025-10-12T14:37:48.518Z</time>
      </trkpt>
      <trkpt lat="44.31886" lon="0.76819">
        <ele>113</ele>
        <time>2025-10-12T14:37:49.518Z</time>
      </trkpt>
      <trkpt lat="44.31887" lon="0.7682">
        <ele>113</ele>
        <time>2025-10-12T14:37:50.518Z</time>
      </trkpt>
      <trkpt lat="44.31888" lon="0.7682">
        <ele>113</ele>
        <time>2025-10-12T14:37:51.518Z</time>
      </trkpt>
      <trkpt lat="44.31889" lon="0.7682">
        <ele>113</ele>
        <time>2025-10-12T14:37:52.518Z</time>
      </trkpt>
      <trkpt lat="44.3189" lon="0.76821">
        <ele>113</ele>
        <time>2025-10-12T14:37:53.518Z</time>
      </trkpt>
      <trkpt lat="44.31891" lon="0.76821">
        <ele>113</ele>
        <time>2025-10-12T14:37:54.518Z</time>
      </trkpt>
      <trkpt lat="44.31892" lon="0.76822">
        <ele>113</ele>
        <time>2025-10-12T14:37:55.518Z</time>
      </trkpt>
      <trkpt lat="44.31893" lon="0.76822">
        <ele>113</ele>
        <time>2025-10-12T14:37:56.518Z</time>
      </trkpt>
      <trkpt lat="44.31895" lon="0.76822">
        <ele>113</ele>
        <time>2025-10-12T14:37:57.518Z</time>
      </trkpt>
      <trkpt lat="44.31896" lon="0.76823">
        <ele>113</ele>
        <time>2025-10-12T14:37:58.518Z</time>
      </trkpt>
      <trkpt lat="44.31897" lon="0.76823">
        <ele>113</ele>
        <time>2025-10-12T14:37:59.518Z</time>
      </trkpt>
      <trkpt lat="44.31898" lon="0.76823">
        <ele>113</ele>
        <time>2025-10-12T14:38:00.518Z</time>
      </trkpt>
      <trkpt lat="44.31899" lon="0.76824">
        <ele>113</ele>
        <time>2025-10-12T14:38:01.518Z</time>
      </trkpt>
      <trkpt lat="44.319" lon="0.76824">
        <ele>113</ele>
        <time>2025-10-12T14:38:02.518Z</time>
      </trkpt>
      <trkpt lat="44.31902" lon="0.76825">
        <ele>113</ele>
        <time>2025-10-12T14:38:03.518Z</time>
      </trkpt>
      <trkpt lat="44.31903" lon="0.76826">
        <ele>113</ele>
        <time>2025-10-12T14:38:04.518Z</time>
      </trkpt>
      <trkpt lat="44.31904" lon="0.76826">
        <ele>113</ele>
        <time>2025-10-12T14:38:05.518Z</time>
      </trkpt>
      <trkpt lat="44.31906" lon="0.76827">
        <ele>113</ele>
        <time>2025-10-12T14:38:06.518Z</time>
      </trkpt>
      <trkpt lat="44.31907" lon="0.76827">
        <ele>113</ele>
        <time>2025-10-12T14:38:07.518Z</time>
      </trkpt>
      <trkpt lat="44.31908" lon="0.76827">
        <ele>113</ele>
        <time>2025-10-12T14:38:08.518Z</time>
      </trkpt>
      <trkpt lat="44.31909" lon="0.76827">
        <ele>113</ele>
        <time>2025-10-12T14:38:09.518Z</time>
      </trkpt>
      <trkpt lat="44.3191" lon="0.76828">
        <ele>113</ele>
        <time>2025-10-12T14:38:10.518Z</time>
      </trkpt>
      <trkpt lat="44.31911" lon="0.76828">
        <ele>113</ele>
        <time>2025-10-12T14:38:11.518Z</time>
      </trkpt>
      <trkpt lat="44.31912" lon="0.76829">
        <ele>113</ele>
        <time>2025-10-12T14:38:12.518Z</time>
      </trkpt>
      <trkpt lat="44.31914" lon="0.76829">
        <ele>113</ele>
        <time>2025-10-12T14:38:13.518Z</time>
      </trkpt>
      <trkpt lat="44.31915" lon="0.76829">
        <ele>113</ele>
        <time>2025-10-12T14:38:14.518Z</time>
      </trkpt>
      <trkpt lat="44.31915" lon="0.7683">
        <ele>113</ele>
        <time>2025-10-12T14:38:15.518Z</time>
      </trkpt>
      <trkpt lat="44.31917" lon="0.7683">
        <ele>113</ele>
        <time>2025-10-12T14:38:16.518Z</time>
      </trkpt>
      <trkpt lat="44.31918" lon="0.7683">
        <ele>113</ele>
        <time>2025-10-12T14:38:17.518Z</time>
      </trkpt>
      <trkpt lat="44.31919" lon="0.76831">
        <ele>113</ele>
        <time>2025-10-12T14:38:18.518Z</time>
      </trkpt>
      <trkpt lat="44.3192" lon="0.76831">
        <ele>113</ele>
        <time>2025-10-12T14:38:19.518Z</time>
      </trkpt>
      <trkpt lat="44.31922" lon="0.76831">
        <ele>112</ele>
        <time>2025-10-12T14:38:20.518Z</time>
      </trkpt>
      <trkpt lat="44.31923" lon="0.76831">
        <ele>112</ele>
        <time>2025-10-12T14:38:21.518Z</time>
      </trkpt>
      <trkpt lat="44.31923" lon="0.76831">
        <ele>112</ele>
        <time>2025-10-12T14:38:22.518Z</time>
      </trkpt>
      <trkpt lat="44.31924" lon="0.76831">
        <ele>112</ele>
        <time>2025-10-12T14:38:23.518Z</time>
      </trkpt>
      <trkpt lat="44.31925" lon="0.76832">
        <ele>111</ele>
        <time>2025-10-12T14:38:24.518Z</time>
      </trkpt>
      <trkpt lat="44.31925" lon="0.76832">
        <ele>111</ele>
        <time>2025-10-12T14:38:25.518Z</time>
      </trkpt>
      <trkpt lat="44.31926" lon="0.76833">
        <ele>112</ele>
        <time>2025-10-12T14:38:26.518Z</time>
      </trkpt>
      <trkpt lat="44.31927" lon="0.76833">
        <ele>112</ele>
        <time>2025-10-12T14:38:27.518Z</time>
      </trkpt>
      <trkpt lat="44.31928" lon="0.76833">
        <ele>112</ele>
        <time>2025-10-12T14:38:28.518Z</time>
      </trkpt>
      <trkpt lat="44.31929" lon="0.76833">
        <ele>112</ele>
        <time>2025-10-12T14:38:29.518Z</time>
      </trkpt>
      <trkpt lat="44.3193" lon="0.76834">
        <ele>111</ele>
        <time>2025-10-12T14:38:30.518Z</time>
      </trkpt>
      <trkpt lat="44.31931" lon="0.76834">
        <ele>111</ele>
        <time>2025-10-12T14:38:31.518Z</time>
      </trkpt>
      <trkpt lat="44.31932" lon="0.76835">
        <ele>111</ele>
        <time>2025-10-12T14:38:32.518Z</time>
      </trkpt>
      <trkpt lat="44.31933" lon="0.76836">
        <ele>111</ele>
        <time>2025-10-12T14:38:33.518Z</time>
      </trkpt>
      <trkpt lat="44.31935" lon="0.76836">
        <ele>111</ele>
        <time>2025-10-12T14:38:34.518Z</time>
      </trkpt>
      <trkpt lat="44.31936" lon="0.76836">
        <ele>111</ele>
        <time>2025-10-12T14:38:35.518Z</time>
      </trkpt>
      <trkpt lat="44.31937" lon="0.76837">
        <ele>111</ele>
        <time>2025-10-12T14:38:36.518Z</time>
      </trkpt>
      <trkpt lat="44.31938" lon="0.76838">
        <ele>111</ele>
        <time>2025-10-12T14:38:37.518Z</time>
      </trkpt>
      <trkpt lat="44.31939" lon="0.76839">
        <ele>112</ele>
        <time>2025-10-12T14:38:38.518Z</time>
      </trkpt>
      <trkpt lat="44.3194" lon="0.76839">
        <ele>112</ele>
        <time>2025-10-12T14:38:39.518Z</time>
      </trkpt>
      <trkpt lat="44.31941" lon="0.7684">
        <ele>112</ele>
        <time>2025-10-12T14:38:40.518Z</time>
      </trkpt>
      <trkpt lat="44.31942" lon="0.7684">
        <ele>112</ele>
        <time>2025-10-12T14:38:41.518Z</time>
      </trkpt>
      <trkpt lat="44.31943" lon="0.76841">
        <ele>112</ele>
        <time>2025-10-12T14:38:42.518Z</time>
      </trkpt>
      <trkpt lat="44.31944" lon="0.76842">
        <ele>111</ele>
        <time>2025-10-12T14:38:43.518Z</time>
      </trkpt>
      <trkpt lat="44.31945" lon="0.76842">
        <ele>111</ele>
        <time>2025-10-12T14:38:44.518Z</time>
      </trkpt>
      <trkpt lat="44.31946" lon="0.76843">
        <ele>111</ele>
        <time>2025-10-12T14:38:45.518Z</time>
      </trkpt>
      <trkpt lat="44.31947" lon="0.76843">
        <ele>111</ele>
        <time>2025-10-12T14:38:46.518Z</time>
      </trkpt>
      <trkpt lat="44.31948" lon="0.76843">
        <ele>111</ele>
        <time>2025-10-12T14:38:47.518Z</time>
      </trkpt>
      <trkpt lat="44.31948" lon="0.76844">
        <ele>111</ele>
        <time>2025-10-12T14:38:48.518Z</time>
      </trkpt>
      <trkpt lat="44.31949" lon="0.76844">
        <ele>110</ele>
        <time>2025-10-12T14:38:49.518Z</time>
      </trkpt>
      <trkpt lat="44.3195" lon="0.76845">
        <ele>110</ele>
        <time>2025-10-12T14:38:50.518Z</time>
      </trkpt>
      <trkpt lat="44.31951" lon="0.76846">
        <ele>110</ele>
        <time>2025-10-12T14:38:51.518Z</time>
      </trkpt>
      <trkpt lat="44.31953" lon="0.76847">
        <ele>110</ele>
        <time>2025-10-12T14:38:52.518Z</time>
      </trkpt>
      <trkpt lat="44.31955" lon="0.76848">
        <ele>110</ele>
        <time>2025-10-12T14:38:53.518Z</time>
      </trkpt>
      <trkpt lat="44.31956" lon="0.76848">
        <ele>110</ele>
        <time>2025-10-12T14:38:54.518Z</time>
      </trkpt>
      <trkpt lat="44.31957" lon="0.76849">
        <ele>110</ele>
        <time>2025-10-12T14:38:55.518Z</time>
      </trkpt>
      <trkpt lat="44.31958" lon="0.7685">
        <ele>110</ele>
        <time>2025-10-12T14:38:56.518Z</time>
      </trkpt>
      <trkpt lat="44.31959" lon="0.76851">
        <ele>111</ele>
        <time>2025-10-12T14:38:57.518Z</time>
      </trkpt>
      <trkpt lat="44.3196" lon="0.76851">
        <ele>111</ele>
        <time>2025-10-12T14:38:58.518Z</time>
      </trkpt>
      <trkpt lat="44.3196" lon="0.76852">
        <ele>111</ele>
        <time>2025-10-12T14:38:59.518Z</time>
      </trkpt>
      <trkpt lat="44.31961" lon="0.76852">
        <ele>111</ele>
        <time>2025-10-12T14:39:00.518Z</time>
      </trkpt>
      <trkpt lat="44.31962" lon="0.76853">
        <ele>111</ele>
        <time>2025-10-12T14:39:01.518Z</time>
      </trkpt>
      <trkpt lat="44.31962" lon="0.76854">
        <ele>111</ele>
        <time>2025-10-12T14:39:02.518Z</time>
      </trkpt>
      <trkpt lat="44.31964" lon="0.76855">
        <ele>112</ele>
        <time>2025-10-12T14:39:03.518Z</time>
      </trkpt>
      <trkpt lat="44.31965" lon="0.76856">
        <ele>112</ele>
        <time>2025-10-12T14:39:04.518Z</time>
      </trkpt>
      <trkpt lat="44.31966" lon="0.76857">
        <ele>112</ele>
        <time>2025-10-12T14:39:05.518Z</time>
      </trkpt>
      <trkpt lat="44.31967" lon="0.76857">
        <ele>112</ele>
        <time>2025-10-12T14:39:06.518Z</time>
      </trkpt>
      <trkpt lat="44.31967" lon="0.76858">
        <ele>113</ele>
        <time>2025-10-12T14:39:07.518Z</time>
      </trkpt>
      <trkpt lat="44.31969" lon="0.76859">
        <ele>113</ele>
        <time>2025-10-12T14:39:08.518Z</time>
      </trkpt>
      <trkpt lat="44.3197" lon="0.76859">
        <ele>113</ele>
        <time>2025-10-12T14:39:09.518Z</time>
      </trkpt>
      <trkpt lat="44.31971" lon="0.7686">
        <ele>114</ele>
        <time>2025-10-12T14:39:10.518Z</time>
      </trkpt>
      <trkpt lat="44.31972" lon="0.76861">
        <ele>114</ele>
        <time>2025-10-12T14:39:11.518Z</time>
      </trkpt>
      <trkpt lat="44.31973" lon="0.76862">
        <ele>114</ele>
        <time>2025-10-12T14:39:12.518Z</time>
      </trkpt>
      <trkpt lat="44.31974" lon="0.76862">
        <ele>115</ele>
        <time>2025-10-12T14:39:13.518Z</time>
      </trkpt>
      <trkpt lat="44.31976" lon="0.76863">
        <ele>115</ele>
        <time>2025-10-12T14:39:14.518Z</time>
      </trkpt>
      <trkpt lat="44.31977" lon="0.76864">
        <ele>115</ele>
        <time>2025-10-12T14:39:15.518Z</time>
      </trkpt>
      <trkpt lat="44.31978" lon="0.76864">
        <ele>116</ele>
        <time>2025-10-12T14:39:16.518Z</time>
      </trkpt>
      <trkpt lat="44.31979" lon="0.76864">
        <ele>116</ele>
        <time>2025-10-12T14:39:17.518Z</time>
      </trkpt>
      <trkpt lat="44.3198" lon="0.76865">
        <ele>116</ele>
        <time>2025-10-12T14:39:18.518Z</time>
      </trkpt>
      <trkpt lat="44.31981" lon="0.76865">
        <ele>117</ele>
        <time>2025-10-12T14:39:19.518Z</time>
      </trkpt>
      <trkpt lat="44.31982" lon="0.76866">
        <ele>117</ele>
        <time>2025-10-12T14:39:20.518Z</time>
      </trkpt>
      <trkpt lat="44.31983" lon="0.76866">
        <ele>117</ele>
        <time>2025-10-12T14:39:21.518Z</time>
      </trkpt>
      <trkpt lat="44.31984" lon="0.76867">
        <ele>117</ele>
        <time>2025-10-12T14:39:22.518Z</time>
      </trkpt>
      <trkpt lat="44.31985" lon="0.76868">
        <ele>116</ele>
        <time>2025-10-12T14:39:23.518Z</time>
      </trkpt>
      <trkpt lat="44.31986" lon="0.76869">
        <ele>116</ele>
        <time>2025-10-12T14:39:24.518Z</time>
      </trkpt>
      <trkpt lat="44.31987" lon="0.7687">
        <ele>116</ele>
        <time>2025-10-12T14:39:25.518Z</time>
      </trkpt>
      <trkpt lat="44.31989" lon="0.76871">
        <ele>116</ele>
        <time>2025-10-12T14:39:26.518Z</time>
      </trkpt>
      <trkpt lat="44.3199" lon="0.76871">
        <ele>116</ele>
        <time>2025-10-12T14:39:27.518Z</time>
      </trkpt>
      <trkpt lat="44.31991" lon="0.76872">
        <ele>116</ele>
        <time>2025-10-12T14:39:28.518Z</time>
      </trkpt>
      <trkpt lat="44.31992" lon="0.76873">
        <ele>116</ele>
        <time>2025-10-12T14:39:29.518Z</time>
      </trkpt>
      <trkpt lat="44.31993" lon="0.76874">
        <ele>117</ele>
        <time>2025-10-12T14:39:30.518Z</time>
      </trkpt>
      <trkpt lat="44.31994" lon="0.76874">
        <ele>117</ele>
        <time>2025-10-12T14:39:31.518Z</time>
      </trkpt>
      <trkpt lat="44.31995" lon="0.76875">
        <ele>118</ele>
        <time>2025-10-12T14:39:32.518Z</time>
      </trkpt>
      <trkpt lat="44.31996" lon="0.76876">
        <ele>118</ele>
        <time>2025-10-12T14:39:33.518Z</time>
      </trkpt>
      <trkpt lat="44.31997" lon="0.76877">
        <ele>118</ele>
        <time>2025-10-12T14:39:34.518Z</time>
      </trkpt>
      <trkpt lat="44.31998" lon="0.76878">
        <ele>118</ele>
        <time>2025-10-12T14:39:35.518Z</time>
      </trkpt>
      <trkpt lat="44.31999" lon="0.76879">
        <ele>118</ele>
        <time>2025-10-12T14:39:36.518Z</time>
      </trkpt>
      <trkpt lat="44.32" lon="0.7688">
        <ele>118</ele>
        <time>2025-10-12T14:39:37.518Z</time>
      </trkpt>
      <trkpt lat="44.32001" lon="0.76881">
        <ele>118</ele>
        <time>2025-10-12T14:39:38.518Z</time>
      </trkpt>
      <trkpt lat="44.32001" lon="0.76882">
        <ele>118</ele>
        <time>2025-10-12T14:39:39.518Z</time>
      </trkpt>
      <trkpt lat="44.32002" lon="0.76883">
        <ele>118</ele>
        <time>2025-10-12T14:39:40.518Z</time>
      </trkpt>
      <trkpt lat="44.32003" lon="0.76884">
        <ele>118</ele>
        <time>2025-10-12T14:39:41.518Z</time>
      </trkpt>
      <trkpt lat="44.32004" lon="0.76884">
        <ele>118</ele>
        <time>2025-10-12T14:39:42.518Z</time>
      </trkpt>
      <trkpt lat="44.32005" lon="0.76885">
        <ele>117</ele>
        <time>2025-10-12T14:39:43.518Z</time>
      </trkpt>
      <trkpt lat="44.32006" lon="0.76885">
        <ele>117</ele>
        <time>2025-10-12T14:39:44.518Z</time>
      </trkpt>
      <trkpt lat="44.32007" lon="0.76886">
        <ele>117</ele>
        <time>2025-10-12T14:39:45.518Z</time>
      </trkpt>
      <trkpt lat="44.32008" lon="0.76887">
        <ele>117</ele>
        <time>2025-10-12T14:39:46.518Z</time>
      </trkpt>
      <trkpt lat="44.32009" lon="0.76888">
        <ele>117</ele>
        <time>2025-10-12T14:39:47.518Z</time>
      </trkpt>
      <trkpt lat="44.3201" lon="0.76888">
        <ele>117</ele>
        <time>2025-10-12T14:39:48.518Z</time>
      </trkpt>
      <trkpt lat="44.3201" lon="0.76889">
        <ele>117</ele>
        <time>2025-10-12T14:39:49.518Z</time>
      </trkpt>
      <trkpt lat="44.32011" lon="0.76889">
        <ele>117</ele>
        <time>2025-10-12T14:39:50.518Z</time>
      </trkpt>
      <trkpt lat="44.32012" lon="0.7689">
        <ele>117</ele>
        <time>2025-10-12T14:39:51.518Z</time>
      </trkpt>
      <trkpt lat="44.32013" lon="0.76891">
        <ele>117</ele>
        <time>2025-10-12T14:39:52.518Z</time>
      </trkpt>
      <trkpt lat="44.32014" lon="0.76891">
        <ele>117</ele>
        <time>2025-10-12T14:39:53.518Z</time>
      </trkpt>
      <trkpt lat="44.32014" lon="0.76892">
        <ele>116</ele>
        <time>2025-10-12T14:39:54.518Z</time>
      </trkpt>
      <trkpt lat="44.32015" lon="0.76892">
        <ele>116</ele>
        <time>2025-10-12T14:39:55.518Z</time>
      </trkpt>
      <trkpt lat="44.32015" lon="0.76893">
        <ele>116</ele>
        <time>2025-10-12T14:39:56.518Z</time>
      </trkpt>
      <trkpt lat="44.32016" lon="0.76894">
        <ele>116</ele>
        <time>2025-10-12T14:39:57.518Z</time>
      </trkpt>
      <trkpt lat="44.32016" lon="0.76894">
        <ele>116</ele>
        <time>2025-10-12T14:39:58.518Z</time>
      </trkpt>
      <trkpt lat="44.32017" lon="0.76895">
        <ele>116</ele>
        <time>2025-10-12T14:39:59.518Z</time>
      </trkpt>
      <trkpt lat="44.32018" lon="0.76896">
        <ele>116</ele>
        <time>2025-10-12T14:40:00.518Z</time>
      </trkpt>
      <trkpt lat="44.32019" lon="0.76897">
        <ele>117</ele>
        <time>2025-10-12T14:40:01.518Z</time>
      </trkpt>
      <trkpt lat="44.32019" lon="0.76898">
        <ele>117</ele>
        <time>2025-10-12T14:40:02.518Z</time>
      </trkpt>
      <trkpt lat="44.3202" lon="0.76898">
        <ele>117</ele>
        <time>2025-10-12T14:40:03.518Z</time>
      </trkpt>
      <trkpt lat="44.32021" lon="0.76899">
        <ele>117</ele>
        <time>2025-10-12T14:40:04.518Z</time>
      </trkpt>
      <trkpt lat="44.32021" lon="0.76899">
        <ele>117</ele>
        <time>2025-10-12T14:40:05.518Z</time>
      </trkpt>
      <trkpt lat="44.32022" lon="0.769">
        <ele>117</ele>
        <time>2025-10-12T14:40:06.518Z</time>
      </trkpt>
      <trkpt lat="44.32022" lon="0.76901">
        <ele>118</ele>
        <time>2025-10-12T14:40:07.518Z</time>
      </trkpt>
      <trkpt lat="44.32023" lon="0.76901">
        <ele>118</ele>
        <time>2025-10-12T14:40:08.518Z</time>
      </trkpt>
      <trkpt lat="44.32024" lon="0.76902">
        <ele>118</ele>
        <time>2025-10-12T14:40:09.518Z</time>
      </trkpt>
      <trkpt lat="44.32024" lon="0.76903">
        <ele>119</ele>
        <time>2025-10-12T14:40:10.518Z</time>
      </trkpt>
      <trkpt lat="44.32025" lon="0.76904">
        <ele>119</ele>
        <time>2025-10-12T14:40:11.518Z</time>
      </trkpt>
      <trkpt lat="44.32026" lon="0.76904">
        <ele>119</ele>
        <time>2025-10-12T14:40:12.518Z</time>
      </trkpt>
      <trkpt lat="44.32026" lon="0.76905">
        <ele>120</ele>
        <time>2025-10-12T14:40:13.518Z</time>
      </trkpt>
      <trkpt lat="44.32027" lon="0.76905">
        <ele>120</ele>
        <time>2025-10-12T14:40:14.518Z</time>
      </trkpt>
      <trkpt lat="44.32028" lon="0.76905">
        <ele>121</ele>
        <time>2025-10-12T14:40:15.518Z</time>
      </trkpt>
      <trkpt lat="44.32028" lon="0.76906">
        <ele>121</ele>
        <time>2025-10-12T14:40:16.518Z</time>
      </trkpt>
      <trkpt lat="44.32028" lon="0.76906">
        <ele>121</ele>
        <time>2025-10-12T14:40:17.518Z</time>
      </trkpt>
      <trkpt lat="44.32028" lon="0.76906">
        <ele>121</ele>
        <time>2025-10-12T14:40:18.518Z</time>
      </trkpt>
      <trkpt lat="44.32028" lon="0.76907">
        <ele>121</ele>
        <time>2025-10-12T14:40:19.518Z</time>
      </trkpt>
      <trkpt lat="44.32028" lon="0.76907">
        <ele>121</ele>
        <time>2025-10-12T14:40:20.518Z</time>
      </trkpt>
      <trkpt lat="44.32029" lon="0.76907">
        <ele>121</ele>
        <time>2025-10-12T14:40:21.518Z</time>
      </trkpt>
      <trkpt lat="44.32029" lon="0.76907">
        <ele>121</ele>
        <time>2025-10-12T14:40:22.518Z</time>
      </trkpt>
      <trkpt lat="44.3203" lon="0.76907">
        <ele>121</ele>
        <time>2025-10-12T14:40:23.518Z</time>
      </trkpt>
      <trkpt lat="44.32031" lon="0.76907">
        <ele>121</ele>
        <time>2025-10-12T14:40:24.518Z</time>
      </trkpt>
      <trkpt lat="44.32032" lon="0.76907">
        <ele>121</ele>
        <time>2025-10-12T14:40:25.518Z</time>
      </trkpt>
      <trkpt lat="44.32033" lon="0.76907">
        <ele>121</ele>
        <time>2025-10-12T14:40:26.518Z</time>
      </trkpt>
      <trkpt lat="44.32033" lon="0.76907">
        <ele>121</ele>
        <time>2025-10-12T14:40:27.518Z</time>
      </trkpt>
      <trkpt lat="44.32034" lon="0.76908">
        <ele>121</ele>
        <time>2025-10-12T14:40:28.518Z</time>
      </trkpt>
      <trkpt lat="44.32035" lon="0.76908">
        <ele>121</ele>
        <time>2025-10-12T14:40:29.518Z</time>
      </trkpt>
      <trkpt lat="44.32036" lon="0.76909">
        <ele>121</ele>
        <time>2025-10-12T14:40:30.518Z</time>
      </trkpt>
      <trkpt lat="44.32036" lon="0.76909">
        <ele>122</ele>
        <time>2025-10-12T14:40:31.518Z</time>
      </trkpt>
      <trkpt lat="44.32037" lon="0.7691">
        <ele>122</ele>
        <time>2025-10-12T14:40:32.518Z</time>
      </trkpt>
      <trkpt lat="44.32038" lon="0.7691">
        <ele>123</ele>
        <time>2025-10-12T14:40:33.518Z</time>
      </trkpt>
      <trkpt lat="44.32039" lon="0.76911">
        <ele>124</ele>
        <time>2025-10-12T14:40:34.518Z</time>
      </trkpt>
      <trkpt lat="44.3204" lon="0.76912">
        <ele>124</ele>
        <time>2025-10-12T14:40:35.518Z</time>
      </trkpt>
      <trkpt lat="44.32041" lon="0.76913">
        <ele>125</ele>
        <time>2025-10-12T14:40:36.518Z</time>
      </trkpt>
      <trkpt lat="44.32042" lon="0.76914">
        <ele>126</ele>
        <time>2025-10-12T14:40:37.518Z</time>
      </trkpt>
      <trkpt lat="44.32042" lon="0.76915">
        <ele>126</ele>
        <time>2025-10-12T14:40:38.518Z</time>
      </trkpt>
      <trkpt lat="44.32043" lon="0.76916">
        <ele>127</ele>
        <time>2025-10-12T14:40:39.518Z</time>
      </trkpt>
      <trkpt lat="44.32044" lon="0.76918">
        <ele>127</ele>
        <time>2025-10-12T14:40:40.518Z</time>
      </trkpt>
      <trkpt lat="44.32044" lon="0.76919">
        <ele>127</ele>
        <time>2025-10-12T14:40:41.518Z</time>
      </trkpt>
      <trkpt lat="44.32045" lon="0.7692">
        <ele>128</ele>
        <time>2025-10-12T14:40:42.518Z</time>
      </trkpt>
      <trkpt lat="44.32045" lon="0.76921">
        <ele>128</ele>
        <time>2025-10-12T14:40:43.518Z</time>
      </trkpt>
      <trkpt lat="44.32046" lon="0.76923">
        <ele>129</ele>
        <time>2025-10-12T14:40:44.518Z</time>
      </trkpt>
      <trkpt lat="44.32046" lon="0.76924">
        <ele>129</ele>
        <time>2025-10-12T14:40:45.518Z</time>
      </trkpt>
      <trkpt lat="44.32046" lon="0.76926">
        <ele>129</ele>
        <time>2025-10-12T14:40:46.518Z</time>
      </trkpt>
      <trkpt lat="44.32046" lon="0.76927">
        <ele>129</ele>
        <time>2025-10-12T14:40:47.518Z</time>
      </trkpt>
      <trkpt lat="44.32046" lon="0.76928">
        <ele>129</ele>
        <time>2025-10-12T14:40:48.518Z</time>
      </trkpt>
      <trkpt lat="44.32046" lon="0.76929">
        <ele>129</ele>
        <time>2025-10-12T14:40:49.518Z</time>
      </trkpt>
      <trkpt lat="44.32046" lon="0.76929">
        <ele>129</ele>
        <time>2025-10-12T14:40:50.518Z</time>
      </trkpt>
      <trkpt lat="44.32047" lon="0.7693">
        <ele>129</ele>
        <time>2025-10-12T14:40:51.518Z</time>
      </trkpt>
      <trkpt lat="44.32047" lon="0.76931">
        <ele>129</ele>
        <time>2025-10-12T14:40:52.518Z</time>
      </trkpt>
      <trkpt lat="44.32047" lon="0.76933">
        <ele>129</ele>
        <time>2025-10-12T14:40:53.518Z</time>
      </trkpt>
      <trkpt lat="44.32047" lon="0.76934">
        <ele>129</ele>
        <time>2025-10-12T14:40:54.518Z</time>
      </trkpt>
      <trkpt lat="44.32046" lon="0.76936">
        <ele>129</ele>
        <time>2025-10-12T14:40:55.518Z</time>
      </trkpt>
      <trkpt lat="44.32046" lon="0.76937">
        <ele>129</ele>
        <time>2025-10-12T14:40:56.518Z</time>
      </trkpt>
      <trkpt lat="44.32046" lon="0.76939">
        <ele>129</ele>
        <time>2025-10-12T14:40:57.518Z</time>
      </trkpt>
      <trkpt lat="44.32045" lon="0.7694">
        <ele>129</ele>
        <time>2025-10-12T14:40:58.518Z</time>
      </trkpt>
      <trkpt lat="44.32045" lon="0.76942">
        <ele>129</ele>
        <time>2025-10-12T14:40:59.518Z</time>
      </trkpt>
      <trkpt lat="44.32046" lon="0.76944">
        <ele>129</ele>
        <time>2025-10-12T14:41:00.518Z</time>
      </trkpt>
      <trkpt lat="44.32045" lon="0.76946">
        <ele>129</ele>
        <time>2025-10-12T14:41:01.518Z</time>
      </trkpt>
      <trkpt lat="44.32046" lon="0.76947">
        <ele>129</ele>
        <time>2025-10-12T14:41:02.518Z</time>
      </trkpt>
      <trkpt lat="44.32045" lon="0.76949">
        <ele>128</ele>
        <time>2025-10-12T14:41:03.518Z</time>
      </trkpt>
      <trkpt lat="44.32045" lon="0.76951">
        <ele>128</ele>
        <time>2025-10-12T14:41:04.518Z</time>
      </trkpt>
      <trkpt lat="44.32045" lon="0.76953">
        <ele>128</ele>
        <time>2025-10-12T14:41:05.518Z</time>
      </trkpt>
      <trkpt lat="44.32045" lon="0.76954">
        <ele>128</ele>
        <time>2025-10-12T14:41:06.518Z</time>
      </trkpt>
      <trkpt lat="44.32045" lon="0.76955">
        <ele>129</ele>
        <time>2025-10-12T14:41:07.518Z</time>
      </trkpt>
      <trkpt lat="44.32045" lon="0.76956">
        <ele>129</ele>
        <time>2025-10-12T14:41:08.518Z</time>
      </trkpt>
      <trkpt lat="44.32045" lon="0.76957">
        <ele>129</ele>
        <time>2025-10-12T14:41:09.518Z</time>
      </trkpt>
      <trkpt lat="44.32045" lon="0.76958">
        <ele>129</ele>
        <time>2025-10-12T14:41:10.518Z</time>
      </trkpt>
      <trkpt lat="44.32045" lon="0.76959">
        <ele>129</ele>
        <time>2025-10-12T14:41:11.518Z</time>
      </trkpt>
      <trkpt lat="44.32045" lon="0.76961">
        <ele>130</ele>
        <time>2025-10-12T14:41:12.518Z</time>
      </trkpt>
      <trkpt lat="44.32044" lon="0.76962">
        <ele>130</ele>
        <time>2025-10-12T14:41:13.518Z</time>
      </trkpt>
      <trkpt lat="44.32043" lon="0.76963">
        <ele>131</ele>
        <time>2025-10-12T14:41:14.518Z</time>
      </trkpt>
      <trkpt lat="44.32043" lon="0.76965">
        <ele>131</ele>
        <time>2025-10-12T14:41:15.518Z</time>
      </trkpt>
      <trkpt lat="44.32043" lon="0.76967">
        <ele>131</ele>
        <time>2025-10-12T14:41:16.518Z</time>
      </trkpt>
      <trkpt lat="44.32043" lon="0.76968">
        <ele>132</ele>
        <time>2025-10-12T14:41:17.518Z</time>
      </trkpt>
      <trkpt lat="44.32043" lon="0.76969">
        <ele>132</ele>
        <time>2025-10-12T14:41:18.518Z</time>
      </trkpt>
      <trkpt lat="44.32044" lon="0.7697">
        <ele>132</ele>
        <time>2025-10-12T14:41:19.518Z</time>
      </trkpt>
      <trkpt lat="44.32044" lon="0.76972">
        <ele>132</ele>
        <time>2025-10-12T14:41:20.518Z</time>
      </trkpt>
      <trkpt lat="44.32043" lon="0.76973">
        <ele>132</ele>
        <time>2025-10-12T14:41:21.518Z</time>
      </trkpt>
      <trkpt lat="44.32043" lon="0.76974">
        <ele>132</ele>
        <time>2025-10-12T14:41:22.518Z</time>
      </trkpt>
      <trkpt lat="44.32042" lon="0.76975">
        <ele>132</ele>
        <time>2025-10-12T14:41:23.518Z</time>
      </trkpt>
      <trkpt lat="44.32042" lon="0.76977">
        <ele>132</ele>
        <time>2025-10-12T14:41:24.518Z</time>
      </trkpt>
      <trkpt lat="44.32042" lon="0.76978">
        <ele>132</ele>
        <time>2025-10-12T14:41:25.518Z</time>
      </trkpt>
      <trkpt lat="44.32042" lon="0.7698">
        <ele>132</ele>
        <time>2025-10-12T14:41:26.518Z</time>
      </trkpt>
      <trkpt lat="44.32042" lon="0.76981">
        <ele>132</ele>
        <time>2025-10-12T14:41:27.518Z</time>
      </trkpt>
      <trkpt lat="44.32042" lon="0.76983">
        <ele>132</ele>
        <time>2025-10-12T14:41:28.518Z</time>
      </trkpt>
      <trkpt lat="44.32041" lon="0.76984">
        <ele>131</ele>
        <time>2025-10-12T14:41:29.518Z</time>
      </trkpt>
      <trkpt lat="44.32041" lon="0.76986">
        <ele>131</ele>
        <time>2025-10-12T14:41:30.518Z</time>
      </trkpt>
      <trkpt lat="44.32041" lon="0.76987">
        <ele>130</ele>
        <time>2025-10-12T14:41:31.518Z</time>
      </trkpt>
      <trkpt lat="44.32041" lon="0.76988">
        <ele>130</ele>
        <time>2025-10-12T14:41:32.518Z</time>
      </trkpt>
      <trkpt lat="44.32041" lon="0.7699">
        <ele>129</ele>
        <time>2025-10-12T14:41:33.518Z</time>
      </trkpt>
      <trkpt lat="44.32041" lon="0.76992">
        <ele>129</ele>
        <time>2025-10-12T14:41:34.518Z</time>
      </trkpt>
      <trkpt lat="44.32041" lon="0.76994">
        <ele>129</ele>
        <time>2025-10-12T14:41:35.518Z</time>
      </trkpt>
      <trkpt lat="44.32041" lon="0.76996">
        <ele>129</ele>
        <time>2025-10-12T14:41:36.518Z</time>
      </trkpt>
      <trkpt lat="44.32041" lon="0.76998">
        <ele>128</ele>
        <time>2025-10-12T14:41:37.518Z</time>
      </trkpt>
      <trkpt lat="44.32041" lon="0.76999">
        <ele>128</ele>
        <time>2025-10-12T14:41:38.518Z</time>
      </trkpt>
      <trkpt lat="44.32041" lon="0.77">
        <ele>128</ele>
        <time>2025-10-12T14:41:39.518Z</time>
      </trkpt>
      <trkpt lat="44.32042" lon="0.77002">
        <ele>128</ele>
        <time>2025-10-12T14:41:40.518Z</time>
      </trkpt>
      <trkpt lat="44.32042" lon="0.77003">
        <ele>128</ele>
        <time>2025-10-12T14:41:41.518Z</time>
      </trkpt>
      <trkpt lat="44.32043" lon="0.77005">
        <ele>128</ele>
        <time>2025-10-12T14:41:42.518Z</time>
      </trkpt>
      <trkpt lat="44.32043" lon="0.77006">
        <ele>128</ele>
        <time>2025-10-12T14:41:43.518Z</time>
      </trkpt>
      <trkpt lat="44.32043" lon="0.77008">
        <ele>128</ele>
        <time>2025-10-12T14:41:44.518Z</time>
      </trkpt>
      <trkpt lat="44.32043" lon="0.7701">
        <ele>129</ele>
        <time>2025-10-12T14:41:45.518Z</time>
      </trkpt>
      <trkpt lat="44.32043" lon="0.77012">
        <ele>129</ele>
        <time>2025-10-12T14:41:46.518Z</time>
      </trkpt>
      <trkpt lat="44.32043" lon="0.77013">
        <ele>129</ele>
        <time>2025-10-12T14:41:47.518Z</time>
      </trkpt>
      <trkpt lat="44.32043" lon="0.77015">
        <ele>129</ele>
        <time>2025-10-12T14:41:48.518Z</time>
      </trkpt>
      <trkpt lat="44.32043" lon="0.77017">
        <ele>130</ele>
        <time>2025-10-12T14:41:49.518Z</time>
      </trkpt>
      <trkpt lat="44.32044" lon="0.77018">
        <ele>130</ele>
        <time>2025-10-12T14:41:50.518Z</time>
      </trkpt>
      <trkpt lat="44.32044" lon="0.77019">
        <ele>130</ele>
        <time>2025-10-12T14:41:51.518Z</time>
      </trkpt>
      <trkpt lat="44.32044" lon="0.77021">
        <ele>130</ele>
        <time>2025-10-12T14:41:52.518Z</time>
      </trkpt>
      <trkpt lat="44.32044" lon="0.77022">
        <ele>129</ele>
        <time>2025-10-12T14:41:53.518Z</time>
      </trkpt>
      <trkpt lat="44.32045" lon="0.77023">
        <ele>129</ele>
        <time>2025-10-12T14:41:54.518Z</time>
      </trkpt>
      <trkpt lat="44.32045" lon="0.77025">
        <ele>129</ele>
        <time>2025-10-12T14:41:55.518Z</time>
      </trkpt>
      <trkpt lat="44.32045" lon="0.77026">
        <ele>129</ele>
        <time>2025-10-12T14:41:56.518Z</time>
      </trkpt>
      <trkpt lat="44.32045" lon="0.77028">
        <ele>129</ele>
        <time>2025-10-12T14:41:57.518Z</time>
      </trkpt>
      <trkpt lat="44.32045" lon="0.77029">
        <ele>129</ele>
        <time>2025-10-12T14:41:58.518Z</time>
      </trkpt>
      <trkpt lat="44.32045" lon="0.77031">
        <ele>129</ele>
        <time>2025-10-12T14:41:59.518Z</time>
      </trkpt>
      <trkpt lat="44.32046" lon="0.77033">
        <ele>129</ele>
        <time>2025-10-12T14:42:00.518Z</time>
      </trkpt>
      <trkpt lat="44.32045" lon="0.77034">
        <ele>129</ele>
        <time>2025-10-12T14:42:01.518Z</time>
      </trkpt>
      <trkpt lat="44.32045" lon="0.77036">
        <ele>128</ele>
        <time>2025-10-12T14:42:02.518Z</time>
      </trkpt>
      <trkpt lat="44.32045" lon="0.77038">
        <ele>128</ele>
        <time>2025-10-12T14:42:03.518Z</time>
      </trkpt>
      <trkpt lat="44.32045" lon="0.7704">
        <ele>128</ele>
        <time>2025-10-12T14:42:04.518Z</time>
      </trkpt>
      <trkpt lat="44.32045" lon="0.77041">
        <ele>127</ele>
        <time>2025-10-12T14:42:05.518Z</time>
      </trkpt>
      <trkpt lat="44.32045" lon="0.77043">
        <ele>127</ele>
        <time>2025-10-12T14:42:06.518Z</time>
      </trkpt>
      <trkpt lat="44.32045" lon="0.77045">
        <ele>127</ele>
        <time>2025-10-12T14:42:07.518Z</time>
      </trkpt>
      <trkpt lat="44.32045" lon="0.77047">
        <ele>127</ele>
        <time>2025-10-12T14:42:08.518Z</time>
      </trkpt>
      <trkpt lat="44.32045" lon="0.77048">
        <ele>127</ele>
        <time>2025-10-12T14:42:09.518Z</time>
      </trkpt>
      <trkpt lat="44.32045" lon="0.7705">
        <ele>127</ele>
        <time>2025-10-12T14:42:10.518Z</time>
      </trkpt>
      <trkpt lat="44.32045" lon="0.77052">
        <ele>127</ele>
        <time>2025-10-12T14:42:11.518Z</time>
      </trkpt>
      <trkpt lat="44.32045" lon="0.77054">
        <ele>128</ele>
        <time>2025-10-12T14:42:12.518Z</time>
      </trkpt>
      <trkpt lat="44.32044" lon="0.77056">
        <ele>128</ele>
        <time>2025-10-12T14:42:13.518Z</time>
      </trkpt>
      <trkpt lat="44.32044" lon="0.77058">
        <ele>128</ele>
        <time>2025-10-12T14:42:14.518Z</time>
      </trkpt>
      <trkpt lat="44.32044" lon="0.77059">
        <ele>128</ele>
        <time>2025-10-12T14:42:15.518Z</time>
      </trkpt>
      <trkpt lat="44.32044" lon="0.77061">
        <ele>128</ele>
        <time>2025-10-12T14:42:16.518Z</time>
      </trkpt>
      <trkpt lat="44.32044" lon="0.77063">
        <ele>128</ele>
        <time>2025-10-12T14:42:17.518Z</time>
      </trkpt>
      <trkpt lat="44.32044" lon="0.77064">
        <ele>128</ele>
        <time>2025-10-12T14:42:18.518Z</time>
      </trkpt>
      <trkpt lat="44.32043" lon="0.77065">
        <ele>128</ele>
        <time>2025-10-12T14:42:19.518Z</time>
      </trkpt>
      <trkpt lat="44.32043" lon="0.77067">
        <ele>128</ele>
        <time>2025-10-12T14:42:20.518Z</time>
      </trkpt>
      <trkpt lat="44.32043" lon="0.77068">
        <ele>128</ele>
        <time>2025-10-12T14:42:21.518Z</time>
      </trkpt>
      <trkpt lat="44.32043" lon="0.7707">
        <ele>128</ele>
        <time>2025-10-12T14:42:22.518Z</time>
      </trkpt>
      <trkpt lat="44.32043" lon="0.77071">
        <ele>128</ele>
        <time>2025-10-12T14:42:23.518Z</time>
      </trkpt>
      <trkpt lat="44.32042" lon="0.77073">
        <ele>129</ele>
        <time>2025-10-12T14:42:24.518Z</time>
      </trkpt>
      <trkpt lat="44.32042" lon="0.77074">
        <ele>129</ele>
        <time>2025-10-12T14:42:25.518Z</time>
      </trkpt>
      <trkpt lat="44.32042" lon="0.77076">
        <ele>129</ele>
        <time>2025-10-12T14:42:26.518Z</time>
      </trkpt>
      <trkpt lat="44.32042" lon="0.77077">
        <ele>129</ele>
        <time>2025-10-12T14:42:27.518Z</time>
      </trkpt>
      <trkpt lat="44.32042" lon="0.77079">
        <ele>129</ele>
        <time>2025-10-12T14:42:28.518Z</time>
      </trkpt>
      <trkpt lat="44.32041" lon="0.7708">
        <ele>129</ele>
        <time>2025-10-12T14:42:29.518Z</time>
      </trkpt>
      <trkpt lat="44.32041" lon="0.77082">
        <ele>129</ele>
        <time>2025-10-12T14:42:30.518Z</time>
      </trkpt>
      <trkpt lat="44.32041" lon="0.77084">
        <ele>129</ele>
        <time>2025-10-12T14:42:31.518Z</time>
      </trkpt>
      <trkpt lat="44.3204" lon="0.77085">
        <ele>129</ele>
        <time>2025-10-12T14:42:32.518Z</time>
      </trkpt>
      <trkpt lat="44.3204" lon="0.77087">
        <ele>129</ele>
        <time>2025-10-12T14:42:33.518Z</time>
      </trkpt>
      <trkpt lat="44.3204" lon="0.77088">
        <ele>129</ele>
        <time>2025-10-12T14:42:34.518Z</time>
      </trkpt>
      <trkpt lat="44.3204" lon="0.7709">
        <ele>129</ele>
        <time>2025-10-12T14:42:35.518Z</time>
      </trkpt>
      <trkpt lat="44.3204" lon="0.77091">
        <ele>129</ele>
        <time>2025-10-12T14:42:36.518Z</time>
      </trkpt>
      <trkpt lat="44.3204" lon="0.77092">
        <ele>129</ele>
        <time>2025-10-12T14:42:37.518Z</time>
      </trkpt>
      <trkpt lat="44.32039" lon="0.77094">
        <ele>129</ele>
        <time>2025-10-12T14:42:38.518Z</time>
      </trkpt>
      <trkpt lat="44.32039" lon="0.77096">
        <ele>129</ele>
        <time>2025-10-12T14:42:39.518Z</time>
      </trkpt>
      <trkpt lat="44.32038" lon="0.77097">
        <ele>129</ele>
        <time>2025-10-12T14:42:40.518Z</time>
      </trkpt>
      <trkpt lat="44.32038" lon="0.77099">
        <ele>129</ele>
        <time>2025-10-12T14:42:41.518Z</time>
      </trkpt>
      <trkpt lat="44.32037" lon="0.77101">
        <ele>129</ele>
        <time>2025-10-12T14:42:42.518Z</time>
      </trkpt>
      <trkpt lat="44.32037" lon="0.77103">
        <ele>129</ele>
        <time>2025-10-12T14:42:43.518Z</time>
      </trkpt>
      <trkpt lat="44.32037" lon="0.77105">
        <ele>129</ele>
        <time>2025-10-12T14:42:44.518Z</time>
      </trkpt>
      <trkpt lat="44.32036" lon="0.77107">
        <ele>130</ele>
        <time>2025-10-12T14:42:45.518Z</time>
      </trkpt>
      <trkpt lat="44.32036" lon="0.77109">
        <ele>130</ele>
        <time>2025-10-12T14:42:46.518Z</time>
      </trkpt>
      <trkpt lat="44.32036" lon="0.77111">
        <ele>131</ele>
        <time>2025-10-12T14:42:47.518Z</time>
      </trkpt>
      <trkpt lat="44.32036" lon="0.77113">
        <ele>131</ele>
        <time>2025-10-12T14:42:48.518Z</time>
      </trkpt>
      <trkpt lat="44.32037" lon="0.77114">
        <ele>131</ele>
        <time>2025-10-12T14:42:49.518Z</time>
      </trkpt>
      <trkpt lat="44.32037" lon="0.77116">
        <ele>131</ele>
        <time>2025-10-12T14:42:50.518Z</time>
      </trkpt>
      <trkpt lat="44.32037" lon="0.77117">
        <ele>131</ele>
        <time>2025-10-12T14:42:51.518Z</time>
      </trkpt>
      <trkpt lat="44.32037" lon="0.77118">
        <ele>131</ele>
        <time>2025-10-12T14:42:52.518Z</time>
      </trkpt>
      <trkpt lat="44.32037" lon="0.77119">
        <ele>131</ele>
        <time>2025-10-12T14:42:53.518Z</time>
      </trkpt>
      <trkpt lat="44.32037" lon="0.7712">
        <ele>131</ele>
        <time>2025-10-12T14:42:54.518Z</time>
      </trkpt>
      <trkpt lat="44.32037" lon="0.77123">
        <ele>131</ele>
        <time>2025-10-12T14:42:55.518Z</time>
      </trkpt>
      <trkpt lat="44.32037" lon="0.77125">
        <ele>131</ele>
        <time>2025-10-12T14:42:56.518Z</time>
      </trkpt>
      <trkpt lat="44.32038" lon="0.77128">
        <ele>131</ele>
        <time>2025-10-12T14:42:57.518Z</time>
      </trkpt>
      <trkpt lat="44.32038" lon="0.7713">
        <ele>131</ele>
        <time>2025-10-12T14:42:58.518Z</time>
      </trkpt>
      <trkpt lat="44.32038" lon="0.77132">
        <ele>132</ele>
        <time>2025-10-12T14:42:59.518Z</time>
      </trkpt>
      <trkpt lat="44.32038" lon="0.77134">
        <ele>132</ele>
        <time>2025-10-12T14:43:00.518Z</time>
      </trkpt>
      <trkpt lat="44.32037" lon="0.77136">
        <ele>133</ele>
        <time>2025-10-12T14:43:01.518Z</time>
      </trkpt>
      <trkpt lat="44.32037" lon="0.77137">
        <ele>133</ele>
        <time>2025-10-12T14:43:02.518Z</time>
      </trkpt>
      <trkpt lat="44.32037" lon="0.77139">
        <ele>133</ele>
        <time>2025-10-12T14:43:03.518Z</time>
      </trkpt>
      <trkpt lat="44.32036" lon="0.7714">
        <ele>134</ele>
        <time>2025-10-12T14:43:04.518Z</time>
      </trkpt>
      <trkpt lat="44.32036" lon="0.77141">
        <ele>134</ele>
        <time>2025-10-12T14:43:05.518Z</time>
      </trkpt>
      <trkpt lat="44.32036" lon="0.77143">
        <ele>134</ele>
        <time>2025-10-12T14:43:06.518Z</time>
      </trkpt>
      <trkpt lat="44.32036" lon="0.77144">
        <ele>134</ele>
        <time>2025-10-12T14:43:07.518Z</time>
      </trkpt>
      <trkpt lat="44.32036" lon="0.77146">
        <ele>134</ele>
        <time>2025-10-12T14:43:08.518Z</time>
      </trkpt>
      <trkpt lat="44.32035" lon="0.77147">
        <ele>134</ele>
        <time>2025-10-12T14:43:09.518Z</time>
      </trkpt>
      <trkpt lat="44.32035" lon="0.77148">
        <ele>134</ele>
        <time>2025-10-12T14:43:10.518Z</time>
      </trkpt>
      <trkpt lat="44.32034" lon="0.77149">
        <ele>135</ele>
        <time>2025-10-12T14:43:11.518Z</time>
      </trkpt>
      <trkpt lat="44.32033" lon="0.7715">
        <ele>135</ele>
        <time>2025-10-12T14:43:12.518Z</time>
      </trkpt>
      <trkpt lat="44.32033" lon="0.7715">
        <ele>134</ele>
        <time>2025-10-12T14:43:13.518Z</time>
      </trkpt>
      <trkpt lat="44.32032" lon="0.77151">
        <ele>134</ele>
        <time>2025-10-12T14:43:14.518Z</time>
      </trkpt>
      <trkpt lat="44.32033" lon="0.77152">
        <ele>134</ele>
        <time>2025-10-12T14:43:15.518Z</time>
      </trkpt>
      <trkpt lat="44.32032" lon="0.77153">
        <ele>134</ele>
        <time>2025-10-12T14:43:16.518Z</time>
      </trkpt>
      <trkpt lat="44.32032" lon="0.77154">
        <ele>134</ele>
        <time>2025-10-12T14:43:17.518Z</time>
      </trkpt>
      <trkpt lat="44.32032" lon="0.77155">
        <ele>134</ele>
        <time>2025-10-12T14:43:18.518Z</time>
      </trkpt>
      <trkpt lat="44.32032" lon="0.77156">
        <ele>133</ele>
        <time>2025-10-12T14:43:19.518Z</time>
      </trkpt>
      <trkpt lat="44.32033" lon="0.77157">
        <ele>133</ele>
        <time>2025-10-12T14:43:20.518Z</time>
      </trkpt>
      <trkpt lat="44.32032" lon="0.77157">
        <ele>132</ele>
        <time>2025-10-12T14:43:21.518Z</time>
      </trkpt>
      <trkpt lat="44.32032" lon="0.77158">
        <ele>132</ele>
        <time>2025-10-12T14:43:22.518Z</time>
      </trkpt>
      <trkpt lat="44.32032" lon="0.77159">
        <ele>132</ele>
        <time>2025-10-12T14:43:23.518Z</time>
      </trkpt>
      <trkpt lat="44.32032" lon="0.7716">
        <ele>132</ele>
        <time>2025-10-12T14:43:24.518Z</time>
      </trkpt>
      <trkpt lat="44.32033" lon="0.77162">
        <ele>132</ele>
        <time>2025-10-12T14:43:25.518Z</time>
      </trkpt>
      <trkpt lat="44.32035" lon="0.77163">
        <ele>132</ele>
        <time>2025-10-12T14:43:26.518Z</time>
      </trkpt>
      <trkpt lat="44.32036" lon="0.77164">
        <ele>132</ele>
        <time>2025-10-12T14:43:27.518Z</time>
      </trkpt>
      <trkpt lat="44.32037" lon="0.77165">
        <ele>132</ele>
        <time>2025-10-12T14:43:28.518Z</time>
      </trkpt>
      <trkpt lat="44.32038" lon="0.77166">
        <ele>132</ele>
        <time>2025-10-12T14:43:29.518Z</time>
      </trkpt>
      <trkpt lat="44.32038" lon="0.77167">
        <ele>132</ele>
        <time>2025-10-12T14:43:30.518Z</time>
      </trkpt>
      <trkpt lat="44.32039" lon="0.77169">
        <ele>133</ele>
        <time>2025-10-12T14:43:31.518Z</time>
      </trkpt>
      <trkpt lat="44.3204" lon="0.77171">
        <ele>133</ele>
        <time>2025-10-12T14:43:32.518Z</time>
      </trkpt>
      <trkpt lat="44.3204" lon="0.77172">
        <ele>133</ele>
        <time>2025-10-12T14:43:33.518Z</time>
      </trkpt>
      <trkpt lat="44.3204" lon="0.77173">
        <ele>133</ele>
        <time>2025-10-12T14:43:34.518Z</time>
      </trkpt>
      <trkpt lat="44.32041" lon="0.77174">
        <ele>133</ele>
        <time>2025-10-12T14:43:35.518Z</time>
      </trkpt>
      <trkpt lat="44.32042" lon="0.77174">
        <ele>133</ele>
        <time>2025-10-12T14:43:36.518Z</time>
      </trkpt>
      <trkpt lat="44.32043" lon="0.77175">
        <ele>133</ele>
        <time>2025-10-12T14:43:37.518Z</time>
      </trkpt>
      <trkpt lat="44.32042" lon="0.77176">
        <ele>133</ele>
        <time>2025-10-12T14:43:38.518Z</time>
      </trkpt>
      <trkpt lat="44.32043" lon="0.77176">
        <ele>134</ele>
        <time>2025-10-12T14:43:39.518Z</time>
      </trkpt>
      <trkpt lat="44.32043" lon="0.77176">
        <ele>134</ele>
        <time>2025-10-12T14:43:40.518Z</time>
      </trkpt>
      <trkpt lat="44.32043" lon="0.77176">
        <ele>134</ele>
        <time>2025-10-12T14:43:41.518Z</time>
      </trkpt>
      <trkpt lat="44.32043" lon="0.77177">
        <ele>134</ele>
        <time>2025-10-12T14:43:42.518Z</time>
      </trkpt>
      <trkpt lat="44.32044" lon="0.77177">
        <ele>134</ele>
        <time>2025-10-12T14:43:43.518Z</time>
      </trkpt>
      <trkpt lat="44.32045" lon="0.77177">
        <ele>134</ele>
        <time>2025-10-12T14:43:44.518Z</time>
      </trkpt>
      <trkpt lat="44.32045" lon="0.77177">
        <ele>134</ele>
        <time>2025-10-12T14:43:45.518Z</time>
      </trkpt>
      <trkpt lat="44.32045" lon="0.77178">
        <ele>135</ele>
        <time>2025-10-12T14:43:46.518Z</time>
      </trkpt>
      <trkpt lat="44.32045" lon="0.77178">
        <ele>135</ele>
        <time>2025-10-12T14:43:47.518Z</time>
      </trkpt>
      <trkpt lat="44.32045" lon="0.77179">
        <ele>135</ele>
        <time>2025-10-12T14:43:48.518Z</time>
      </trkpt>
      <trkpt lat="44.32045" lon="0.77179">
        <ele>135</ele>
        <time>2025-10-12T14:43:49.518Z</time>
      </trkpt>
      <trkpt lat="44.32045" lon="0.77179">
        <ele>136</ele>
        <time>2025-10-12T14:43:50.518Z</time>
      </trkpt>
      <trkpt lat="44.32045" lon="0.77179">
        <ele>136</ele>
        <time>2025-10-12T14:43:51.518Z</time>
      </trkpt>
      <trkpt lat="44.32045" lon="0.77179">
        <ele>137</ele>
        <time>2025-10-12T14:43:52.518Z</time>
      </trkpt>
      <trkpt lat="44.32045" lon="0.77179">
        <ele>137</ele>
        <time>2025-10-12T14:43:53.518Z</time>
      </trkpt>
      <trkpt lat="44.32045" lon="0.77179">
        <ele>138</ele>
        <time>2025-10-12T14:43:54.518Z</time>
      </trkpt>
      <trkpt lat="44.32045" lon="0.7718">
        <ele>139</ele>
        <time>2025-10-12T14:43:55.518Z</time>
      </trkpt>
      <trkpt lat="44.32046" lon="0.7718">
        <ele>139</ele>
        <time>2025-10-12T14:43:56.518Z</time>
      </trkpt>
      <trkpt lat="44.32047" lon="0.7718">
        <ele>139</ele>
        <time>2025-10-12T14:43:57.518Z</time>
      </trkpt>
      <trkpt lat="44.32048" lon="0.77181">
        <ele>139</ele>
        <time>2025-10-12T14:43:58.518Z</time>
      </trkpt>
      <trkpt lat="44.32048" lon="0.77181">
        <ele>139</ele>
        <time>2025-10-12T14:43:59.518Z</time>
      </trkpt>
      <trkpt lat="44.32048" lon="0.77182">
        <ele>139</ele>
        <time>2025-10-12T14:44:00.518Z</time>
      </trkpt>
      <trkpt lat="44.32049" lon="0.77182">
        <ele>139</ele>
        <time>2025-10-12T14:44:01.518Z</time>
      </trkpt>
      <trkpt lat="44.32049" lon="0.77183">
        <ele>139</ele>
        <time>2025-10-12T14:44:02.518Z</time>
      </trkpt>
      <trkpt lat="44.32049" lon="0.77183">
        <ele>139</ele>
        <time>2025-10-12T14:44:03.518Z</time>
      </trkpt>
      <trkpt lat="44.3205" lon="0.77183">
        <ele>139</ele>
        <time>2025-10-12T14:44:04.518Z</time>
      </trkpt>
      <trkpt lat="44.32051" lon="0.77183">
        <ele>139</ele>
        <time>2025-10-12T14:44:05.518Z</time>
      </trkpt>
      <trkpt lat="44.32052" lon="0.77184">
        <ele>139</ele>
        <time>2025-10-12T14:44:06.518Z</time>
      </trkpt>
      <trkpt lat="44.32053" lon="0.77184">
        <ele>139</ele>
        <time>2025-10-12T14:44:07.518Z</time>
      </trkpt>
      <trkpt lat="44.32053" lon="0.77184">
        <ele>139</ele>
        <time>2025-10-12T14:44:08.518Z</time>
      </trkpt>
      <trkpt lat="44.32054" lon="0.77184">
        <ele>138</ele>
        <time>2025-10-12T14:44:09.518Z</time>
      </trkpt>
      <trkpt lat="44.32054" lon="0.77184">
        <ele>138</ele>
        <time>2025-10-12T14:44:10.518Z</time>
      </trkpt>
      <trkpt lat="44.32055" lon="0.77185">
        <ele>138</ele>
        <time>2025-10-12T14:44:11.518Z</time>
      </trkpt>
      <trkpt lat="44.32055" lon="0.77185">
        <ele>138</ele>
        <time>2025-10-12T14:44:12.518Z</time>
      </trkpt>
      <trkpt lat="44.32055" lon="0.77185">
        <ele>137</ele>
        <time>2025-10-12T14:44:13.518Z</time>
      </trkpt>
      <trkpt lat="44.32056" lon="0.77186">
        <ele>137</ele>
        <time>2025-10-12T14:44:14.518Z</time>
      </trkpt>
      <trkpt lat="44.32057" lon="0.77186">
        <ele>137</ele>
        <time>2025-10-12T14:44:15.518Z</time>
      </trkpt>
      <trkpt lat="44.32057" lon="0.77186">
        <ele>138</ele>
        <time>2025-10-12T14:44:16.518Z</time>
      </trkpt>
      <trkpt lat="44.32057" lon="0.77186">
        <ele>138</ele>
        <time>2025-10-12T14:44:17.518Z</time>
      </trkpt>
      <trkpt lat="44.32058" lon="0.77187">
        <ele>138</ele>
        <time>2025-10-12T14:44:18.518Z</time>
      </trkpt>
      <trkpt lat="44.32059" lon="0.77188">
        <ele>139</ele>
        <time>2025-10-12T14:44:19.518Z</time>
      </trkpt>
      <trkpt lat="44.32059" lon="0.77189">
        <ele>139</ele>
        <time>2025-10-12T14:44:20.518Z</time>
      </trkpt>
      <trkpt lat="44.3206" lon="0.7719">
        <ele>139</ele>
        <time>2025-10-12T14:44:21.518Z</time>
      </trkpt>
      <trkpt lat="44.32061" lon="0.77191">
        <ele>139</ele>
        <time>2025-10-12T14:44:22.518Z</time>
      </trkpt>
      <trkpt lat="44.32062" lon="0.77192">
        <ele>139</ele>
        <time>2025-10-12T14:44:23.518Z</time>
      </trkpt>
      <trkpt lat="44.32062" lon="0.77193">
        <ele>139</ele>
        <time>2025-10-12T14:44:24.519Z</time>
      </trkpt>
      <trkpt lat="44.32063" lon="0.77194">
        <ele>139</ele>
        <time>2025-10-12T14:44:25.518Z</time>
      </trkpt>
      <trkpt lat="44.32064" lon="0.77195">
        <ele>139</ele>
        <time>2025-10-12T14:44:26.518Z</time>
      </trkpt>
      <trkpt lat="44.32064" lon="0.77196">
        <ele>139</ele>
        <time>2025-10-12T14:44:27.518Z</time>
      </trkpt>
      <trkpt lat="44.32064" lon="0.77196">
        <ele>139</ele>
        <time>2025-10-12T14:44:28.518Z</time>
      </trkpt>
      <trkpt lat="44.32065" lon="0.77198">
        <ele>140</ele>
        <time>2025-10-12T14:44:29.518Z</time>
      </trkpt>
      <trkpt lat="44.32066" lon="0.77198">
        <ele>140</ele>
        <time>2025-10-12T14:44:30.518Z</time>
      </trkpt>
      <trkpt lat="44.32066" lon="0.772">
        <ele>140</ele>
        <time>2025-10-12T14:44:31.518Z</time>
      </trkpt>
      <trkpt lat="44.32067" lon="0.77201">
        <ele>140</ele>
        <time>2025-10-12T14:44:32.518Z</time>
      </trkpt>
      <trkpt lat="44.32068" lon="0.77202">
        <ele>140</ele>
        <time>2025-10-12T14:44:33.518Z</time>
      </trkpt>
      <trkpt lat="44.32069" lon="0.77204">
        <ele>141</ele>
        <time>2025-10-12T14:44:34.518Z</time>
      </trkpt>
      <trkpt lat="44.32069" lon="0.77205">
        <ele>141</ele>
        <time>2025-10-12T14:44:35.518Z</time>
      </trkpt>
      <trkpt lat="44.3207" lon="0.77206">
        <ele>141</ele>
        <time>2025-10-12T14:44:36.518Z</time>
      </trkpt>
      <trkpt lat="44.32071" lon="0.77207">
        <ele>141</ele>
        <time>2025-10-12T14:44:37.518Z</time>
      </trkpt>
      <trkpt lat="44.32071" lon="0.77207">
        <ele>141</ele>
        <time>2025-10-12T14:44:38.518Z</time>
      </trkpt>
      <trkpt lat="44.32072" lon="0.77209">
        <ele>141</ele>
        <time>2025-10-12T14:44:39.518Z</time>
      </trkpt>
      <trkpt lat="44.32073" lon="0.7721">
        <ele>141</ele>
        <time>2025-10-12T14:44:40.518Z</time>
      </trkpt>
      <trkpt lat="44.32073" lon="0.77211">
        <ele>141</ele>
        <time>2025-10-12T14:44:41.518Z</time>
      </trkpt>
      <trkpt lat="44.32072" lon="0.77211">
        <ele>141</ele>
        <time>2025-10-12T14:44:42.518Z</time>
      </trkpt>
      <trkpt lat="44.32072" lon="0.77211">
        <ele>140</ele>
        <time>2025-10-12T14:44:43.518Z</time>
      </trkpt>
      <trkpt lat="44.32072" lon="0.77211">
        <ele>140</ele>
        <time>2025-10-12T14:44:44.518Z</time>
      </trkpt>
      <trkpt lat="44.32072" lon="0.77211">
        <ele>140</ele>
        <time>2025-10-12T14:44:45.518Z</time>
      </trkpt>
      <trkpt lat="44.32072" lon="0.77211">
        <ele>140</ele>
        <time>2025-10-12T14:44:46.518Z</time>
      </trkpt>
      <trkpt lat="44.32071" lon="0.77211">
        <ele>140</ele>
        <time>2025-10-12T14:44:47.518Z</time>
      </trkpt>
      <trkpt lat="44.32071" lon="0.77211">
        <ele>140</ele>
        <time>2025-10-12T14:44:48.518Z</time>
      </trkpt>
      <trkpt lat="44.32071" lon="0.77211">
        <ele>140</ele>
        <time>2025-10-12T14:44:49.518Z</time>
      </trkpt>
      <trkpt lat="44.32071" lon="0.77211">
        <ele>141</ele>
        <time>2025-10-12T14:44:50.518Z</time>
      </trkpt>
      <trkpt lat="44.32071" lon="0.77211">
        <ele>141</ele>
        <time>2025-10-12T14:44:51.518Z</time>
      </trkpt>
      <trkpt lat="44.32071" lon="0.77211">
        <ele>142</ele>
        <time>2025-10-12T14:44:52.518Z</time>
      </trkpt>
      <trkpt lat="44.32071" lon="0.77211">
        <ele>142</ele>
        <time>2025-10-12T14:44:53.518Z</time>
      </trkpt>
      <trkpt lat="44.32071" lon="0.77211">
        <ele>143</ele>
        <time>2025-10-12T14:44:54.518Z</time>
      </trkpt>
      <trkpt lat="44.32071" lon="0.77211">
        <ele>143</ele>
        <time>2025-10-12T14:44:55.518Z</time>
      </trkpt>
      <trkpt lat="44.32071" lon="0.77211">
        <ele>144</ele>
        <time>2025-10-12T14:44:56.518Z</time>
      </trkpt>
      <trkpt lat="44.32071" lon="0.77211">
        <ele>145</ele>
        <time>2025-10-12T14:44:57.518Z</time>
      </trkpt>
      <trkpt lat="44.32071" lon="0.7721">
        <ele>146</ele>
        <time>2025-10-12T14:44:58.518Z</time>
      </trkpt>
      <trkpt lat="44.32071" lon="0.77211">
        <ele>147</ele>
        <time>2025-10-12T14:44:59.518Z</time>
      </trkpt>
      <trkpt lat="44.32071" lon="0.77211">
        <ele>148</ele>
        <time>2025-10-12T14:45:00.518Z</time>
      </trkpt>
      <trkpt lat="44.32071" lon="0.77211">
        <ele>148</ele>
        <time>2025-10-12T14:45:01.518Z</time>
      </trkpt>
      <trkpt lat="44.32072" lon="0.77211">
        <ele>149</ele>
        <time>2025-10-12T14:45:02.518Z</time>
      </trkpt>
      <trkpt lat="44.32072" lon="0.77211">
        <ele>149</ele>
        <time>2025-10-12T14:45:03.518Z</time>
      </trkpt>
      <trkpt lat="44.32072" lon="0.77212">
        <ele>149</ele>
        <time>2025-10-12T14:45:04.518Z</time>
      </trkpt>
      <trkpt lat="44.32073" lon="0.77213">
        <ele>149</ele>
        <time>2025-10-12T14:45:05.518Z</time>
      </trkpt>
      <trkpt lat="44.32073" lon="0.77214">
        <ele>149</ele>
        <time>2025-10-12T14:45:06.518Z</time>
      </trkpt>
      <trkpt lat="44.32075" lon="0.77216">
        <ele>149</ele>
        <time>2025-10-12T14:45:07.518Z</time>
      </trkpt>
      <trkpt lat="44.32075" lon="0.77217">
        <ele>149</ele>
        <time>2025-10-12T14:45:08.518Z</time>
      </trkpt>
      <trkpt lat="44.32075" lon="0.77218">
        <ele>149</ele>
        <time>2025-10-12T14:45:09.518Z</time>
      </trkpt>
      <trkpt lat="44.32075" lon="0.77218">
        <ele>149</ele>
        <time>2025-10-12T14:45:10.518Z</time>
      </trkpt>
      <trkpt lat="44.32076" lon="0.7722">
        <ele>149</ele>
        <time>2025-10-12T14:45:11.518Z</time>
      </trkpt>
      <trkpt lat="44.32076" lon="0.77221">
        <ele>149</ele>
        <time>2025-10-12T14:45:12.518Z</time>
      </trkpt>
      <trkpt lat="44.32076" lon="0.77222">
        <ele>149</ele>
        <time>2025-10-12T14:45:13.518Z</time>
      </trkpt>
      <trkpt lat="44.32077" lon="0.77223">
        <ele>149</ele>
        <time>2025-10-12T14:45:14.518Z</time>
      </trkpt>
      <trkpt lat="44.32078" lon="0.77225">
        <ele>150</ele>
        <time>2025-10-12T14:45:15.518Z</time>
      </trkpt>
      <trkpt lat="44.32078" lon="0.77226">
        <ele>150</ele>
        <time>2025-10-12T14:45:16.518Z</time>
      </trkpt>
      <trkpt lat="44.32078" lon="0.77226">
        <ele>151</ele>
        <time>2025-10-12T14:45:17.518Z</time>
      </trkpt>
      <trkpt lat="44.32077" lon="0.77227">
        <ele>152</ele>
        <time>2025-10-12T14:45:18.518Z</time>
      </trkpt>
      <trkpt lat="44.32078" lon="0.77227">
        <ele>153</ele>
        <time>2025-10-12T14:45:19.518Z</time>
      </trkpt>
      <trkpt lat="44.32078" lon="0.77226">
        <ele>153</ele>
        <time>2025-10-12T14:45:20.518Z</time>
      </trkpt>
      <trkpt lat="44.32078" lon="0.77227">
        <ele>154</ele>
        <time>2025-10-12T14:45:21.518Z</time>
      </trkpt>
      <trkpt lat="44.32078" lon="0.77227">
        <ele>154</ele>
        <time>2025-10-12T14:45:22.518Z</time>
      </trkpt>
      <trkpt lat="44.32078" lon="0.77228">
        <ele>154</ele>
        <time>2025-10-12T14:45:23.518Z</time>
      </trkpt>
      <trkpt lat="44.32079" lon="0.77229">
        <ele>154</ele>
        <time>2025-10-12T14:45:24.518Z</time>
      </trkpt>
      <trkpt lat="44.32079" lon="0.7723">
        <ele>155</ele>
        <time>2025-10-12T14:45:25.518Z</time>
      </trkpt>
      <trkpt lat="44.32079" lon="0.77232">
        <ele>155</ele>
        <time>2025-10-12T14:45:26.518Z</time>
      </trkpt>
      <trkpt lat="44.32079" lon="0.77233">
        <ele>155</ele>
        <time>2025-10-12T14:45:27.518Z</time>
      </trkpt>
      <trkpt lat="44.32079" lon="0.77235">
        <ele>155</ele>
        <time>2025-10-12T14:45:28.518Z</time>
      </trkpt>
      <trkpt lat="44.3208" lon="0.77236">
        <ele>155</ele>
        <time>2025-10-12T14:45:29.518Z</time>
      </trkpt>
      <trkpt lat="44.3208" lon="0.77237">
        <ele>155</ele>
        <time>2025-10-12T14:45:30.518Z</time>
      </trkpt>
      <trkpt lat="44.3208" lon="0.77239">
        <ele>155</ele>
        <time>2025-10-12T14:45:31.518Z</time>
      </trkpt>
      <trkpt lat="44.32081" lon="0.7724">
        <ele>155</ele>
        <time>2025-10-12T14:45:32.518Z</time>
      </trkpt>
      <trkpt lat="44.32082" lon="0.77242">
        <ele>155</ele>
        <time>2025-10-12T14:45:33.518Z</time>
      </trkpt>
      <trkpt lat="44.32082" lon="0.77243">
        <ele>155</ele>
        <time>2025-10-12T14:45:34.518Z</time>
      </trkpt>
      <trkpt lat="44.32082" lon="0.77245">
        <ele>155</ele>
        <time>2025-10-12T14:45:35.518Z</time>
      </trkpt>
      <trkpt lat="44.32082" lon="0.77247">
        <ele>154</ele>
        <time>2025-10-12T14:45:36.518Z</time>
      </trkpt>
      <trkpt lat="44.32082" lon="0.77249">
        <ele>154</ele>
        <time>2025-10-12T14:45:37.518Z</time>
      </trkpt>
      <trkpt lat="44.32082" lon="0.7725">
        <ele>154</ele>
        <time>2025-10-12T14:45:38.518Z</time>
      </trkpt>
      <trkpt lat="44.32082" lon="0.77252">
        <ele>153</ele>
        <time>2025-10-12T14:45:39.518Z</time>
      </trkpt>
      <trkpt lat="44.32083" lon="0.77254">
        <ele>153</ele>
        <time>2025-10-12T14:45:40.518Z</time>
      </trkpt>
      <trkpt lat="44.32083" lon="0.77255">
        <ele>152</ele>
        <time>2025-10-12T14:45:41.518Z</time>
      </trkpt>
      <trkpt lat="44.32083" lon="0.77257">
        <ele>152</ele>
        <time>2025-10-12T14:45:42.518Z</time>
      </trkpt>
      <trkpt lat="44.32083" lon="0.77258">
        <ele>151</ele>
        <time>2025-10-12T14:45:43.518Z</time>
      </trkpt>
      <trkpt lat="44.32083" lon="0.7726">
        <ele>151</ele>
        <time>2025-10-12T14:45:44.518Z</time>
      </trkpt>
      <trkpt lat="44.32083" lon="0.77262">
        <ele>151</ele>
        <time>2025-10-12T14:45:45.518Z</time>
      </trkpt>
      <trkpt lat="44.32083" lon="0.77263">
        <ele>151</ele>
        <time>2025-10-12T14:45:46.518Z</time>
      </trkpt>
      <trkpt lat="44.32082" lon="0.77265">
        <ele>151</ele>
        <time>2025-10-12T14:45:47.518Z</time>
      </trkpt>
      <trkpt lat="44.32082" lon="0.77266">
        <ele>151</ele>
        <time>2025-10-12T14:45:48.518Z</time>
      </trkpt>
      <trkpt lat="44.32082" lon="0.77268">
        <ele>151</ele>
        <time>2025-10-12T14:45:49.518Z</time>
      </trkpt>
      <trkpt lat="44.32082" lon="0.7727">
        <ele>151</ele>
        <time>2025-10-12T14:45:50.518Z</time>
      </trkpt>
      <trkpt lat="44.32083" lon="0.77272">
        <ele>151</ele>
        <time>2025-10-12T14:45:51.518Z</time>
      </trkpt>
      <trkpt lat="44.32083" lon="0.77273">
        <ele>151</ele>
        <time>2025-10-12T14:45:52.518Z</time>
      </trkpt>
      <trkpt lat="44.32083" lon="0.77275">
        <ele>151</ele>
        <time>2025-10-12T14:45:53.518Z</time>
      </trkpt>
      <trkpt lat="44.32084" lon="0.77277">
        <ele>151</ele>
        <time>2025-10-12T14:45:54.518Z</time>
      </trkpt>
      <trkpt lat="44.32084" lon="0.77279">
        <ele>151</ele>
        <time>2025-10-12T14:45:55.518Z</time>
      </trkpt>
      <trkpt lat="44.32084" lon="0.7728">
        <ele>151</ele>
        <time>2025-10-12T14:45:56.518Z</time>
      </trkpt>
      <trkpt lat="44.32084" lon="0.7728">
        <ele>151</ele>
        <time>2025-10-12T14:45:57.518Z</time>
      </trkpt>
      <trkpt lat="44.32084" lon="0.77281">
        <ele>152</ele>
        <time>2025-10-12T14:45:58.518Z</time>
      </trkpt>
      <trkpt lat="44.32085" lon="0.77282">
        <ele>152</ele>
        <time>2025-10-12T14:45:59.518Z</time>
      </trkpt>
      <trkpt lat="44.32085" lon="0.77283">
        <ele>152</ele>
        <time>2025-10-12T14:46:00.518Z</time>
      </trkpt>
      <trkpt lat="44.32085" lon="0.77285">
        <ele>153</ele>
        <time>2025-10-12T14:46:01.518Z</time>
      </trkpt>
      <trkpt lat="44.32085" lon="0.77286">
        <ele>153</ele>
        <time>2025-10-12T14:46:02.518Z</time>
      </trkpt>
      <trkpt lat="44.32085" lon="0.77288">
        <ele>153</ele>
        <time>2025-10-12T14:46:03.518Z</time>
      </trkpt>
      <trkpt lat="44.32085" lon="0.7729">
        <ele>153</ele>
        <time>2025-10-12T14:46:04.518Z</time>
      </trkpt>
      <trkpt lat="44.32085" lon="0.77292">
        <ele>153</ele>
        <time>2025-10-12T14:46:05.518Z</time>
      </trkpt>
      <trkpt lat="44.32084" lon="0.77294">
        <ele>153</ele>
        <time>2025-10-12T14:46:06.518Z</time>
      </trkpt>
      <trkpt lat="44.32083" lon="0.77296">
        <ele>153</ele>
        <time>2025-10-12T14:46:07.518Z</time>
      </trkpt>
      <trkpt lat="44.32083" lon="0.77297">
        <ele>153</ele>
        <time>2025-10-12T14:46:08.518Z</time>
      </trkpt>
      <trkpt lat="44.32082" lon="0.77298">
        <ele>153</ele>
        <time>2025-10-12T14:46:09.518Z</time>
      </trkpt>
      <trkpt lat="44.32082" lon="0.77299">
        <ele>153</ele>
        <time>2025-10-12T14:46:10.518Z</time>
      </trkpt>
      <trkpt lat="44.32083" lon="0.77299">
        <ele>153</ele>
        <time>2025-10-12T14:46:11.518Z</time>
      </trkpt>
      <trkpt lat="44.32082" lon="0.77299">
        <ele>154</ele>
        <time>2025-10-12T14:46:12.518Z</time>
      </trkpt>
      <trkpt lat="44.32081" lon="0.773">
        <ele>154</ele>
        <time>2025-10-12T14:46:13.518Z</time>
      </trkpt>
      <trkpt lat="44.3208" lon="0.773">
        <ele>154</ele>
        <time>2025-10-12T14:46:14.518Z</time>
      </trkpt>
      <trkpt lat="44.3208" lon="0.77301">
        <ele>155</ele>
        <time>2025-10-12T14:46:15.518Z</time>
      </trkpt>
      <trkpt lat="44.3208" lon="0.77303">
        <ele>155</ele>
        <time>2025-10-12T14:46:16.518Z</time>
      </trkpt>
      <trkpt lat="44.3208" lon="0.77304">
        <ele>156</ele>
        <time>2025-10-12T14:46:17.518Z</time>
      </trkpt>
      <trkpt lat="44.32079" lon="0.77305">
        <ele>156</ele>
        <time>2025-10-12T14:46:18.518Z</time>
      </trkpt>
      <trkpt lat="44.3208" lon="0.77305">
        <ele>156</ele>
        <time>2025-10-12T14:46:19.518Z</time>
      </trkpt>
      <trkpt lat="44.3208" lon="0.77306">
        <ele>157</ele>
        <time>2025-10-12T14:46:20.518Z</time>
      </trkpt>
      <trkpt lat="44.3208" lon="0.77306">
        <ele>157</ele>
        <time>2025-10-12T14:46:21.518Z</time>
      </trkpt>
      <trkpt lat="44.3208" lon="0.77305">
        <ele>157</ele>
        <time>2025-10-12T14:46:22.518Z</time>
      </trkpt>
      <trkpt lat="44.3208" lon="0.77306">
        <ele>158</ele>
        <time>2025-10-12T14:46:23.518Z</time>
      </trkpt>
      <trkpt lat="44.32081" lon="0.77306">
        <ele>158</ele>
        <time>2025-10-12T14:46:24.518Z</time>
      </trkpt>
      <trkpt lat="44.32081" lon="0.77306">
        <ele>158</ele>
        <time>2025-10-12T14:46:25.518Z</time>
      </trkpt>
      <trkpt lat="44.32082" lon="0.77306">
        <ele>158</ele>
        <time>2025-10-12T14:46:26.518Z</time>
      </trkpt>
      <trkpt lat="44.32082" lon="0.77307">
        <ele>158</ele>
        <time>2025-10-12T14:46:27.518Z</time>
      </trkpt>
      <trkpt lat="44.32082" lon="0.77307">
        <ele>158</ele>
        <time>2025-10-12T14:46:28.518Z</time>
      </trkpt>
      <trkpt lat="44.32082" lon="0.77307">
        <ele>158</ele>
        <time>2025-10-12T14:46:29.518Z</time>
      </trkpt>
      <trkpt lat="44.32082" lon="0.77306">
        <ele>158</ele>
        <time>2025-10-12T14:46:30.518Z</time>
      </trkpt>
      <trkpt lat="44.32081" lon="0.77306">
        <ele>158</ele>
        <time>2025-10-12T14:46:31.518Z</time>
      </trkpt>
      <trkpt lat="44.32081" lon="0.77305">
        <ele>158</ele>
        <time>2025-10-12T14:46:32.518Z</time>
      </trkpt>
      <trkpt lat="44.3208" lon="0.77305">
        <ele>158</ele>
        <time>2025-10-12T14:46:33.518Z</time>
      </trkpt>
      <trkpt lat="44.3208" lon="0.77306">
        <ele>159</ele>
        <time>2025-10-12T14:46:34.518Z</time>
      </trkpt>
      <trkpt lat="44.32079" lon="0.77308">
        <ele>159</ele>
        <time>2025-10-12T14:46:35.518Z</time>
      </trkpt>
      <trkpt lat="44.32079" lon="0.7731">
        <ele>159</ele>
        <time>2025-10-12T14:46:36.518Z</time>
      </trkpt>
      <trkpt lat="44.32079" lon="0.77312">
        <ele>160</ele>
        <time>2025-10-12T14:46:37.518Z</time>
      </trkpt>
      <trkpt lat="44.32079" lon="0.77313">
        <ele>160</ele>
        <time>2025-10-12T14:46:38.518Z</time>
      </trkpt>
      <trkpt lat="44.32079" lon="0.77314">
        <ele>160</ele>
        <time>2025-10-12T14:46:39.518Z</time>
      </trkpt>
      <trkpt lat="44.32079" lon="0.77316">
        <ele>160</ele>
        <time>2025-10-12T14:46:40.518Z</time>
      </trkpt>
      <trkpt lat="44.32079" lon="0.77317">
        <ele>160</ele>
        <time>2025-10-12T14:46:41.518Z</time>
      </trkpt>
      <trkpt lat="44.32079" lon="0.77318">
        <ele>160</ele>
        <time>2025-10-12T14:46:42.518Z</time>
      </trkpt>
      <trkpt lat="44.32079" lon="0.7732">
        <ele>160</ele>
        <time>2025-10-12T14:46:43.518Z</time>
      </trkpt>
      <trkpt lat="44.32078" lon="0.77321">
        <ele>160</ele>
        <time>2025-10-12T14:46:44.518Z</time>
      </trkpt>
      <trkpt lat="44.32077" lon="0.77323">
        <ele>159</ele>
        <time>2025-10-12T14:46:45.518Z</time>
      </trkpt>
      <trkpt lat="44.32077" lon="0.77325">
        <ele>159</ele>
        <time>2025-10-12T14:46:46.518Z</time>
      </trkpt>
      <trkpt lat="44.32077" lon="0.77326">
        <ele>159</ele>
        <time>2025-10-12T14:46:47.518Z</time>
      </trkpt>
      <trkpt lat="44.32077" lon="0.77328">
        <ele>158</ele>
        <time>2025-10-12T14:46:48.518Z</time>
      </trkpt>
      <trkpt lat="44.32077" lon="0.7733">
        <ele>158</ele>
        <time>2025-10-12T14:46:49.518Z</time>
      </trkpt>
      <trkpt lat="44.32076" lon="0.77331">
        <ele>157</ele>
        <time>2025-10-12T14:46:50.518Z</time>
      </trkpt>
      <trkpt lat="44.32076" lon="0.77333">
        <ele>157</ele>
        <time>2025-10-12T14:46:51.518Z</time>
      </trkpt>
      <trkpt lat="44.32075" lon="0.77335">
        <ele>156</ele>
        <time>2025-10-12T14:46:52.518Z</time>
      </trkpt>
      <trkpt lat="44.32075" lon="0.77336">
        <ele>156</ele>
        <time>2025-10-12T14:46:53.518Z</time>
      </trkpt>
      <trkpt lat="44.32074" lon="0.77338">
        <ele>156</ele>
        <time>2025-10-12T14:46:54.518Z</time>
      </trkpt>
      <trkpt lat="44.32074" lon="0.77339">
        <ele>156</ele>
        <time>2025-10-12T14:46:55.518Z</time>
      </trkpt>
      <trkpt lat="44.32073" lon="0.77341">
        <ele>155</ele>
        <time>2025-10-12T14:46:56.518Z</time>
      </trkpt>
      <trkpt lat="44.32072" lon="0.77343">
        <ele>155</ele>
        <time>2025-10-12T14:46:57.518Z</time>
      </trkpt>
      <trkpt lat="44.32071" lon="0.77345">
        <ele>155</ele>
        <time>2025-10-12T14:46:58.518Z</time>
      </trkpt>
      <trkpt lat="44.32071" lon="0.77347">
        <ele>155</ele>
        <time>2025-10-12T14:46:59.518Z</time>
      </trkpt>
      <trkpt lat="44.32071" lon="0.77347">
        <ele>155</ele>
        <time>2025-10-12T14:47:00.518Z</time>
      </trkpt>
      <trkpt lat="44.3207" lon="0.77348">
        <ele>155</ele>
        <time>2025-10-12T14:47:01.518Z</time>
      </trkpt>
      <trkpt lat="44.3207" lon="0.77349">
        <ele>155</ele>
        <time>2025-10-12T14:47:02.518Z</time>
      </trkpt>
      <trkpt lat="44.3207" lon="0.7735">
        <ele>155</ele>
        <time>2025-10-12T14:47:03.518Z</time>
      </trkpt>
      <trkpt lat="44.32069" lon="0.77352">
        <ele>155</ele>
        <time>2025-10-12T14:47:04.518Z</time>
      </trkpt>
      <trkpt lat="44.32068" lon="0.77353">
        <ele>155</ele>
        <time>2025-10-12T14:47:05.518Z</time>
      </trkpt>
      <trkpt lat="44.32067" lon="0.77354">
        <ele>155</ele>
        <time>2025-10-12T14:47:06.518Z</time>
      </trkpt>
      <trkpt lat="44.32067" lon="0.77355">
        <ele>154</ele>
        <time>2025-10-12T14:47:07.518Z</time>
      </trkpt>
      <trkpt lat="44.32065" lon="0.77357">
        <ele>154</ele>
        <time>2025-10-12T14:47:08.518Z</time>
      </trkpt>
      <trkpt lat="44.32063" lon="0.77358">
        <ele>153</ele>
        <time>2025-10-12T14:47:09.518Z</time>
      </trkpt>
      <trkpt lat="44.32062" lon="0.77359">
        <ele>153</ele>
        <time>2025-10-12T14:47:10.518Z</time>
      </trkpt>
      <trkpt lat="44.32061" lon="0.7736">
        <ele>152</ele>
        <time>2025-10-12T14:47:11.518Z</time>
      </trkpt>
      <trkpt lat="44.3206" lon="0.7736">
        <ele>152</ele>
        <time>2025-10-12T14:47:12.518Z</time>
      </trkpt>
      <trkpt lat="44.3206" lon="0.77361">
        <ele>152</ele>
        <time>2025-10-12T14:47:13.518Z</time>
      </trkpt>
      <trkpt lat="44.3206" lon="0.77363">
        <ele>152</ele>
        <time>2025-10-12T14:47:14.518Z</time>
      </trkpt>
      <trkpt lat="44.32059" lon="0.77364">
        <ele>151</ele>
        <time>2025-10-12T14:47:15.518Z</time>
      </trkpt>
      <trkpt lat="44.32059" lon="0.77365">
        <ele>151</ele>
        <time>2025-10-12T14:47:16.518Z</time>
      </trkpt>
      <trkpt lat="44.32059" lon="0.77366">
        <ele>151</ele>
        <time>2025-10-12T14:47:17.518Z</time>
      </trkpt>
      <trkpt lat="44.32058" lon="0.77368">
        <ele>151</ele>
        <time>2025-10-12T14:47:18.518Z</time>
      </trkpt>
      <trkpt lat="44.32058" lon="0.7737">
        <ele>151</ele>
        <time>2025-10-12T14:47:19.518Z</time>
      </trkpt>
      <trkpt lat="44.32058" lon="0.77372">
        <ele>151</ele>
        <time>2025-10-12T14:47:20.518Z</time>
      </trkpt>
      <trkpt lat="44.32059" lon="0.77373">
        <ele>151</ele>
        <time>2025-10-12T14:47:21.518Z</time>
      </trkpt>
      <trkpt lat="44.32059" lon="0.77374">
        <ele>151</ele>
        <time>2025-10-12T14:47:22.518Z</time>
      </trkpt>
      <trkpt lat="44.3206" lon="0.77375">
        <ele>151</ele>
        <time>2025-10-12T14:47:23.518Z</time>
      </trkpt>
      <trkpt lat="44.32062" lon="0.77376">
        <ele>151</ele>
        <time>2025-10-12T14:47:24.518Z</time>
      </trkpt>
      <trkpt lat="44.32062" lon="0.77377">
        <ele>151</ele>
        <time>2025-10-12T14:47:25.518Z</time>
      </trkpt>
      <trkpt lat="44.32064" lon="0.77379">
        <ele>151</ele>
        <time>2025-10-12T14:47:26.518Z</time>
      </trkpt>
      <trkpt lat="44.32064" lon="0.77381">
        <ele>151</ele>
        <time>2025-10-12T14:47:27.518Z</time>
      </trkpt>
      <trkpt lat="44.32063" lon="0.77383">
        <ele>151</ele>
        <time>2025-10-12T14:47:28.518Z</time>
      </trkpt>
      <trkpt lat="44.32064" lon="0.77384">
        <ele>152</ele>
        <time>2025-10-12T14:47:29.518Z</time>
      </trkpt>
      <trkpt lat="44.32065" lon="0.77385">
        <ele>152</ele>
        <time>2025-10-12T14:47:30.518Z</time>
      </trkpt>
      <trkpt lat="44.32065" lon="0.77385">
        <ele>152</ele>
        <time>2025-10-12T14:47:31.518Z</time>
      </trkpt>
      <trkpt lat="44.32067" lon="0.77386">
        <ele>152</ele>
        <time>2025-10-12T14:47:32.518Z</time>
      </trkpt>
      <trkpt lat="44.32067" lon="0.77388">
        <ele>152</ele>
        <time>2025-10-12T14:47:33.518Z</time>
      </trkpt>
      <trkpt lat="44.32067" lon="0.77389">
        <ele>153</ele>
        <time>2025-10-12T14:47:34.518Z</time>
      </trkpt>
      <trkpt lat="44.32066" lon="0.7739">
        <ele>153</ele>
        <time>2025-10-12T14:47:35.518Z</time>
      </trkpt>
      <trkpt lat="44.32066" lon="0.77391">
        <ele>153</ele>
        <time>2025-10-12T14:47:36.518Z</time>
      </trkpt>
      <trkpt lat="44.32064" lon="0.77393">
        <ele>153</ele>
        <time>2025-10-12T14:47:37.518Z</time>
      </trkpt>
      <trkpt lat="44.32061" lon="0.77394">
        <ele>153</ele>
        <time>2025-10-12T14:47:38.518Z</time>
      </trkpt>
      <trkpt lat="44.3206" lon="0.77395">
        <ele>153</ele>
        <time>2025-10-12T14:47:39.518Z</time>
      </trkpt>
      <trkpt lat="44.32059" lon="0.77397">
        <ele>152</ele>
        <time>2025-10-12T14:47:40.518Z</time>
      </trkpt>
      <trkpt lat="44.32058" lon="0.77399">
        <ele>152</ele>
        <time>2025-10-12T14:47:41.518Z</time>
      </trkpt>
      <trkpt lat="44.32057" lon="0.774">
        <ele>152</ele>
        <time>2025-10-12T14:47:42.518Z</time>
      </trkpt>
      <trkpt lat="44.32057" lon="0.77401">
        <ele>152</ele>
        <time>2025-10-12T14:47:43.518Z</time>
      </trkpt>
      <trkpt lat="44.32057" lon="0.77403">
        <ele>152</ele>
        <time>2025-10-12T14:47:44.518Z</time>
      </trkpt>
      <trkpt lat="44.32057" lon="0.77404">
        <ele>152</ele>
        <time>2025-10-12T14:47:45.518Z</time>
      </trkpt>
      <trkpt lat="44.32057" lon="0.77406">
        <ele>152</ele>
        <time>2025-10-12T14:47:46.518Z</time>
      </trkpt>
      <trkpt lat="44.32057" lon="0.77408">
        <ele>152</ele>
        <time>2025-10-12T14:47:47.518Z</time>
      </trkpt>
      <trkpt lat="44.32057" lon="0.77409">
        <ele>152</ele>
        <time>2025-10-12T14:47:48.518Z</time>
      </trkpt>
      <trkpt lat="44.32058" lon="0.7741">
        <ele>152</ele>
        <time>2025-10-12T14:47:49.518Z</time>
      </trkpt>
      <trkpt lat="44.32058" lon="0.77411">
        <ele>152</ele>
        <time>2025-10-12T14:47:50.518Z</time>
      </trkpt>
      <trkpt lat="44.32058" lon="0.77413">
        <ele>153</ele>
        <time>2025-10-12T14:47:51.518Z</time>
      </trkpt>
      <trkpt lat="44.32057" lon="0.77414">
        <ele>153</ele>
        <time>2025-10-12T14:47:52.518Z</time>
      </trkpt>
      <trkpt lat="44.32057" lon="0.77416">
        <ele>153</ele>
        <time>2025-10-12T14:47:53.518Z</time>
      </trkpt>
      <trkpt lat="44.32057" lon="0.77417">
        <ele>153</ele>
        <time>2025-10-12T14:47:54.518Z</time>
      </trkpt>
      <trkpt lat="44.32056" lon="0.77419">
        <ele>154</ele>
        <time>2025-10-12T14:47:55.518Z</time>
      </trkpt>
      <trkpt lat="44.32056" lon="0.77421">
        <ele>154</ele>
        <time>2025-10-12T14:47:56.518Z</time>
      </trkpt>
      <trkpt lat="44.32056" lon="0.77423">
        <ele>155</ele>
        <time>2025-10-12T14:47:57.518Z</time>
      </trkpt>
      <trkpt lat="44.32056" lon="0.77425">
        <ele>155</ele>
        <time>2025-10-12T14:47:58.518Z</time>
      </trkpt>
      <trkpt lat="44.32056" lon="0.77427">
        <ele>155</ele>
        <time>2025-10-12T14:47:59.518Z</time>
      </trkpt>
      <trkpt lat="44.32056" lon="0.77428">
        <ele>155</ele>
        <time>2025-10-12T14:48:00.518Z</time>
      </trkpt>
      <trkpt lat="44.32056" lon="0.77429">
        <ele>155</ele>
        <time>2025-10-12T14:48:01.518Z</time>
      </trkpt>
      <trkpt lat="44.32055" lon="0.7743">
        <ele>155</ele>
        <time>2025-10-12T14:48:02.518Z</time>
      </trkpt>
      <trkpt lat="44.32055" lon="0.77431">
        <ele>155</ele>
        <time>2025-10-12T14:48:03.518Z</time>
      </trkpt>
      <trkpt lat="44.32055" lon="0.77433">
        <ele>155</ele>
        <time>2025-10-12T14:48:04.518Z</time>
      </trkpt>
      <trkpt lat="44.32055" lon="0.77435">
        <ele>156</ele>
        <time>2025-10-12T14:48:05.518Z</time>
      </trkpt>
      <trkpt lat="44.32054" lon="0.77436">
        <ele>156</ele>
        <time>2025-10-12T14:48:06.518Z</time>
      </trkpt>
      <trkpt lat="44.32054" lon="0.77437">
        <ele>156</ele>
        <time>2025-10-12T14:48:07.518Z</time>
      </trkpt>
      <trkpt lat="44.32054" lon="0.77439">
        <ele>156</ele>
        <time>2025-10-12T14:48:08.518Z</time>
      </trkpt>
      <trkpt lat="44.32054" lon="0.77441">
        <ele>156</ele>
        <time>2025-10-12T14:48:09.518Z</time>
      </trkpt>
      <trkpt lat="44.32053" lon="0.77443">
        <ele>156</ele>
        <time>2025-10-12T14:48:10.518Z</time>
      </trkpt>
      <trkpt lat="44.32052" lon="0.77444">
        <ele>156</ele>
        <time>2025-10-12T14:48:11.518Z</time>
      </trkpt>
      <trkpt lat="44.32052" lon="0.77445">
        <ele>156</ele>
        <time>2025-10-12T14:48:12.518Z</time>
      </trkpt>
      <trkpt lat="44.32052" lon="0.77446">
        <ele>157</ele>
        <time>2025-10-12T14:48:13.518Z</time>
      </trkpt>
      <trkpt lat="44.32052" lon="0.77448">
        <ele>157</ele>
        <time>2025-10-12T14:48:14.518Z</time>
      </trkpt>
      <trkpt lat="44.32052" lon="0.77449">
        <ele>157</ele>
        <time>2025-10-12T14:48:15.518Z</time>
      </trkpt>
      <trkpt lat="44.32052" lon="0.77451">
        <ele>157</ele>
        <time>2025-10-12T14:48:16.518Z</time>
      </trkpt>
      <trkpt lat="44.32051" lon="0.77453">
        <ele>157</ele>
        <time>2025-10-12T14:48:17.518Z</time>
      </trkpt>
      <trkpt lat="44.3205" lon="0.77456">
        <ele>157</ele>
        <time>2025-10-12T14:48:18.518Z</time>
      </trkpt>
      <trkpt lat="44.3205" lon="0.77458">
        <ele>158</ele>
        <time>2025-10-12T14:48:19.518Z</time>
      </trkpt>
      <trkpt lat="44.3205" lon="0.7746">
        <ele>158</ele>
        <time>2025-10-12T14:48:20.518Z</time>
      </trkpt>
      <trkpt lat="44.32051" lon="0.77461">
        <ele>158</ele>
        <time>2025-10-12T14:48:21.518Z</time>
      </trkpt>
      <trkpt lat="44.32051" lon="0.77462">
        <ele>158</ele>
        <time>2025-10-12T14:48:22.518Z</time>
      </trkpt>
      <trkpt lat="44.32052" lon="0.77464">
        <ele>159</ele>
        <time>2025-10-12T14:48:23.518Z</time>
      </trkpt>
      <trkpt lat="44.32052" lon="0.77465">
        <ele>159</ele>
        <time>2025-10-12T14:48:24.518Z</time>
      </trkpt>
      <trkpt lat="44.32053" lon="0.77467">
        <ele>160</ele>
        <time>2025-10-12T14:48:25.518Z</time>
      </trkpt>
      <trkpt lat="44.32053" lon="0.77468">
        <ele>160</ele>
        <time>2025-10-12T14:48:26.518Z</time>
      </trkpt>
      <trkpt lat="44.32053" lon="0.77469">
        <ele>161</ele>
        <time>2025-10-12T14:48:27.518Z</time>
      </trkpt>
      <trkpt lat="44.32053" lon="0.7747">
        <ele>161</ele>
        <time>2025-10-12T14:48:28.518Z</time>
      </trkpt>
      <trkpt lat="44.32054" lon="0.77472">
        <ele>161</ele>
        <time>2025-10-12T14:48:29.518Z</time>
      </trkpt>
      <trkpt lat="44.32054" lon="0.77473">
        <ele>162</ele>
        <time>2025-10-12T14:48:30.518Z</time>
      </trkpt>
      <trkpt lat="44.32054" lon="0.77477">
        <ele>161</ele>
        <time>2025-10-12T14:48:31.518Z</time>
      </trkpt>
      <trkpt lat="44.32055" lon="0.77478">
        <ele>161</ele>
        <time>2025-10-12T14:48:32.518Z</time>
      </trkpt>
      <trkpt lat="44.32054" lon="0.77478">
        <ele>162</ele>
        <time>2025-10-12T14:48:33.518Z</time>
      </trkpt>
      <trkpt lat="44.32054" lon="0.7748">
        <ele>162</ele>
        <time>2025-10-12T14:48:34.518Z</time>
      </trkpt>
      <trkpt lat="44.32052" lon="0.77482">
        <ele>162</ele>
        <time>2025-10-12T14:48:35.518Z</time>
      </trkpt>
      <trkpt lat="44.32052" lon="0.77485">
        <ele>163</ele>
        <time>2025-10-12T14:48:36.518Z</time>
      </trkpt>
      <trkpt lat="44.32052" lon="0.77487">
        <ele>163</ele>
        <time>2025-10-12T14:48:37.518Z</time>
      </trkpt>
      <trkpt lat="44.32052" lon="0.77489">
        <ele>163</ele>
        <time>2025-10-12T14:48:38.518Z</time>
      </trkpt>
      <trkpt lat="44.32052" lon="0.77491">
        <ele>163</ele>
        <time>2025-10-12T14:48:39.518Z</time>
      </trkpt>
      <trkpt lat="44.32051" lon="0.77494">
        <ele>163</ele>
        <time>2025-10-12T14:48:40.518Z</time>
      </trkpt>
      <trkpt lat="44.32051" lon="0.77497">
        <ele>163</ele>
        <time>2025-10-12T14:48:41.518Z</time>
      </trkpt>
      <trkpt lat="44.32051" lon="0.77499">
        <ele>163</ele>
        <time>2025-10-12T14:48:42.518Z</time>
      </trkpt>
      <trkpt lat="44.32051" lon="0.77501">
        <ele>163</ele>
        <time>2025-10-12T14:48:43.518Z</time>
      </trkpt>
      <trkpt lat="44.32052" lon="0.77502">
        <ele>163</ele>
        <time>2025-10-12T14:48:44.518Z</time>
      </trkpt>
      <trkpt lat="44.32051" lon="0.77503">
        <ele>162</ele>
        <time>2025-10-12T14:48:45.518Z</time>
      </trkpt>
      <trkpt lat="44.32051" lon="0.77503">
        <ele>162</ele>
        <time>2025-10-12T14:48:46.518Z</time>
      </trkpt>
      <trkpt lat="44.32051" lon="0.77504">
        <ele>162</ele>
        <time>2025-10-12T14:48:47.518Z</time>
      </trkpt>
      <trkpt lat="44.32051" lon="0.77506">
        <ele>161</ele>
        <time>2025-10-12T14:48:48.518Z</time>
      </trkpt>
      <trkpt lat="44.32051" lon="0.77507">
        <ele>161</ele>
        <time>2025-10-12T14:48:49.518Z</time>
      </trkpt>
      <trkpt lat="44.32051" lon="0.77508">
        <ele>162</ele>
        <time>2025-10-12T14:48:50.518Z</time>
      </trkpt>
      <trkpt lat="44.32051" lon="0.77509">
        <ele>162</ele>
        <time>2025-10-12T14:48:51.518Z</time>
      </trkpt>
      <trkpt lat="44.32051" lon="0.77511">
        <ele>162</ele>
        <time>2025-10-12T14:48:52.518Z</time>
      </trkpt>
      <trkpt lat="44.32051" lon="0.77512">
        <ele>162</ele>
        <time>2025-10-12T14:48:53.518Z</time>
      </trkpt>
      <trkpt lat="44.32051" lon="0.77514">
        <ele>162</ele>
        <time>2025-10-12T14:48:54.518Z</time>
      </trkpt>
      <trkpt lat="44.32051" lon="0.77515">
        <ele>162</ele>
        <time>2025-10-12T14:48:55.518Z</time>
      </trkpt>
      <trkpt lat="44.32051" lon="0.77516">
        <ele>162</ele>
        <time>2025-10-12T14:48:56.518Z</time>
      </trkpt>
      <trkpt lat="44.32051" lon="0.77517">
        <ele>162</ele>
        <time>2025-10-12T14:48:57.518Z</time>
      </trkpt>
      <trkpt lat="44.32051" lon="0.77518">
        <ele>162</ele>
        <time>2025-10-12T14:48:58.518Z</time>
      </trkpt>
      <trkpt lat="44.32051" lon="0.77519">
        <ele>162</ele>
        <time>2025-10-12T14:48:59.518Z</time>
      </trkpt>
      <trkpt lat="44.32051" lon="0.7752">
        <ele>162</ele>
        <time>2025-10-12T14:49:00.518Z</time>
      </trkpt>
      <trkpt lat="44.32051" lon="0.77522">
        <ele>162</ele>
        <time>2025-10-12T14:49:01.518Z</time>
      </trkpt>
      <trkpt lat="44.32051" lon="0.77523">
        <ele>163</ele>
        <time>2025-10-12T14:49:02.518Z</time>
      </trkpt>
      <trkpt lat="44.32051" lon="0.77524">
        <ele>163</ele>
        <time>2025-10-12T14:49:03.518Z</time>
      </trkpt>
      <trkpt lat="44.32051" lon="0.77526">
        <ele>163</ele>
        <time>2025-10-12T14:49:04.518Z</time>
      </trkpt>
      <trkpt lat="44.32051" lon="0.77528">
        <ele>164</ele>
        <time>2025-10-12T14:49:05.518Z</time>
      </trkpt>
      <trkpt lat="44.32051" lon="0.77529">
        <ele>164</ele>
        <time>2025-10-12T14:49:06.518Z</time>
      </trkpt>
      <trkpt lat="44.32051" lon="0.77531">
        <ele>163</ele>
        <time>2025-10-12T14:49:07.518Z</time>
      </trkpt>
      <trkpt lat="44.32051" lon="0.77532">
        <ele>163</ele>
        <time>2025-10-12T14:49:08.518Z</time>
      </trkpt>
      <trkpt lat="44.32051" lon="0.77533">
        <ele>163</ele>
        <time>2025-10-12T14:49:09.518Z</time>
      </trkpt>
      <trkpt lat="44.32051" lon="0.77534">
        <ele>163</ele>
        <time>2025-10-12T14:49:10.518Z</time>
      </trkpt>
      <trkpt lat="44.32052" lon="0.77536">
        <ele>163</ele>
        <time>2025-10-12T14:49:11.518Z</time>
      </trkpt>
      <trkpt lat="44.32052" lon="0.77537">
        <ele>163</ele>
        <time>2025-10-12T14:49:12.518Z</time>
      </trkpt>
      <trkpt lat="44.32052" lon="0.77538">
        <ele>163</ele>
        <time>2025-10-12T14:49:13.518Z</time>
      </trkpt>
      <trkpt lat="44.32053" lon="0.77539">
        <ele>163</ele>
        <time>2025-10-12T14:49:14.518Z</time>
      </trkpt>
      <trkpt lat="44.32052" lon="0.77541">
        <ele>163</ele>
        <time>2025-10-12T14:49:15.518Z</time>
      </trkpt>
      <trkpt lat="44.32053" lon="0.77542">
        <ele>163</ele>
        <time>2025-10-12T14:49:16.518Z</time>
      </trkpt>
      <trkpt lat="44.32053" lon="0.77543">
        <ele>163</ele>
        <time>2025-10-12T14:49:17.518Z</time>
      </trkpt>
      <trkpt lat="44.32052" lon="0.77544">
        <ele>164</ele>
        <time>2025-10-12T14:49:18.518Z</time>
      </trkpt>
      <trkpt lat="44.32052" lon="0.77545">
        <ele>164</ele>
        <time>2025-10-12T14:49:19.518Z</time>
      </trkpt>
      <trkpt lat="44.32052" lon="0.77546">
        <ele>164</ele>
        <time>2025-10-12T14:49:20.518Z</time>
      </trkpt>
      <trkpt lat="44.32052" lon="0.77547">
        <ele>164</ele>
        <time>2025-10-12T14:49:21.518Z</time>
      </trkpt>
      <trkpt lat="44.32052" lon="0.77549">
        <ele>164</ele>
        <time>2025-10-12T14:49:22.518Z</time>
      </trkpt>
      <trkpt lat="44.32053" lon="0.7755">
        <ele>164</ele>
        <time>2025-10-12T14:49:23.518Z</time>
      </trkpt>
      <trkpt lat="44.32053" lon="0.77551">
        <ele>164</ele>
        <time>2025-10-12T14:49:24.518Z</time>
      </trkpt>
      <trkpt lat="44.32052" lon="0.77551">
        <ele>164</ele>
        <time>2025-10-12T14:49:25.518Z</time>
      </trkpt>
      <trkpt lat="44.32052" lon="0.77553">
        <ele>164</ele>
        <time>2025-10-12T14:49:26.518Z</time>
      </trkpt>
      <trkpt lat="44.32052" lon="0.77554">
        <ele>164</ele>
        <time>2025-10-12T14:49:27.518Z</time>
      </trkpt>
      <trkpt lat="44.32052" lon="0.77554">
        <ele>164</ele>
        <time>2025-10-12T14:49:28.518Z</time>
      </trkpt>
      <trkpt lat="44.32052" lon="0.77555">
        <ele>164</ele>
        <time>2025-10-12T14:49:29.518Z</time>
      </trkpt>
      <trkpt lat="44.32052" lon="0.77556">
        <ele>164</ele>
        <time>2025-10-12T14:49:30.518Z</time>
      </trkpt>
      <trkpt lat="44.32052" lon="0.77557">
        <ele>164</ele>
        <time>2025-10-12T14:49:31.518Z</time>
      </trkpt>
      <trkpt lat="44.32052" lon="0.77558">
        <ele>164</ele>
        <time>2025-10-12T14:49:32.518Z</time>
      </trkpt>
      <trkpt lat="44.32053" lon="0.7756">
        <ele>164</ele>
        <time>2025-10-12T14:49:33.518Z</time>
      </trkpt>
      <trkpt lat="44.32052" lon="0.77561">
        <ele>164</ele>
        <time>2025-10-12T14:49:34.518Z</time>
      </trkpt>
      <trkpt lat="44.32053" lon="0.77563">
        <ele>164</ele>
        <time>2025-10-12T14:49:35.518Z</time>
      </trkpt>
      <trkpt lat="44.32053" lon="0.77564">
        <ele>165</ele>
        <time>2025-10-12T14:49:36.518Z</time>
      </trkpt>
      <trkpt lat="44.32054" lon="0.77565">
        <ele>165</ele>
        <time>2025-10-12T14:49:37.518Z</time>
      </trkpt>
      <trkpt lat="44.32054" lon="0.77567">
        <ele>165</ele>
        <time>2025-10-12T14:49:38.518Z</time>
      </trkpt>
      <trkpt lat="44.32054" lon="0.77568">
        <ele>165</ele>
        <time>2025-10-12T14:49:39.518Z</time>
      </trkpt>
      <trkpt lat="44.32054" lon="0.77569">
        <ele>165</ele>
        <time>2025-10-12T14:49:40.518Z</time>
      </trkpt>
      <trkpt lat="44.32054" lon="0.7757">
        <ele>165</ele>
        <time>2025-10-12T14:49:41.518Z</time>
      </trkpt>
      <trkpt lat="44.32055" lon="0.77572">
        <ele>165</ele>
        <time>2025-10-12T14:49:42.518Z</time>
      </trkpt>
      <trkpt lat="44.32055" lon="0.77573">
        <ele>165</ele>
        <time>2025-10-12T14:49:43.518Z</time>
      </trkpt>
      <trkpt lat="44.32055" lon="0.77574">
        <ele>165</ele>
        <time>2025-10-12T14:49:44.518Z</time>
      </trkpt>
      <trkpt lat="44.32055" lon="0.77576">
        <ele>166</ele>
        <time>2025-10-12T14:49:45.518Z</time>
      </trkpt>
      <trkpt lat="44.32055" lon="0.77577">
        <ele>166</ele>
        <time>2025-10-12T14:49:46.518Z</time>
      </trkpt>
      <trkpt lat="44.32055" lon="0.77578">
        <ele>166</ele>
        <time>2025-10-12T14:49:47.518Z</time>
      </trkpt>
      <trkpt lat="44.32055" lon="0.7758">
        <ele>166</ele>
        <time>2025-10-12T14:49:48.518Z</time>
      </trkpt>
      <trkpt lat="44.32056" lon="0.77581">
        <ele>166</ele>
        <time>2025-10-12T14:49:49.518Z</time>
      </trkpt>
      <trkpt lat="44.32057" lon="0.77583">
        <ele>166</ele>
        <time>2025-10-12T14:49:50.518Z</time>
      </trkpt>
      <trkpt lat="44.32056" lon="0.77584">
        <ele>166</ele>
        <time>2025-10-12T14:49:51.518Z</time>
      </trkpt>
      <trkpt lat="44.32057" lon="0.77586">
        <ele>166</ele>
        <time>2025-10-12T14:49:52.518Z</time>
      </trkpt>
      <trkpt lat="44.32057" lon="0.77587">
        <ele>166</ele>
        <time>2025-10-12T14:49:53.518Z</time>
      </trkpt>
      <trkpt lat="44.32057" lon="0.77589">
        <ele>166</ele>
        <time>2025-10-12T14:49:54.518Z</time>
      </trkpt>
      <trkpt lat="44.32057" lon="0.77591">
        <ele>166</ele>
        <time>2025-10-12T14:49:55.518Z</time>
      </trkpt>
      <trkpt lat="44.32057" lon="0.77593">
        <ele>166</ele>
        <time>2025-10-12T14:49:56.518Z</time>
      </trkpt>
      <trkpt lat="44.32058" lon="0.77595">
        <ele>166</ele>
        <time>2025-10-12T14:49:57.518Z</time>
      </trkpt>
      <trkpt lat="44.32059" lon="0.77596">
        <ele>166</ele>
        <time>2025-10-12T14:49:58.518Z</time>
      </trkpt>
      <trkpt lat="44.3206" lon="0.77598">
        <ele>165</ele>
        <time>2025-10-12T14:49:59.518Z</time>
      </trkpt>
      <trkpt lat="44.3206" lon="0.77599">
        <ele>165</ele>
        <time>2025-10-12T14:50:00.518Z</time>
      </trkpt>
      <trkpt lat="44.32061" lon="0.77601">
        <ele>165</ele>
        <time>2025-10-12T14:50:01.518Z</time>
      </trkpt>
      <trkpt lat="44.32061" lon="0.77603">
        <ele>165</ele>
        <time>2025-10-12T14:50:02.518Z</time>
      </trkpt>
      <trkpt lat="44.32062" lon="0.77604">
        <ele>165</ele>
        <time>2025-10-12T14:50:03.518Z</time>
      </trkpt>
      <trkpt lat="44.32062" lon="0.77605">
        <ele>165</ele>
        <time>2025-10-12T14:50:04.518Z</time>
      </trkpt>
      <trkpt lat="44.32062" lon="0.77607">
        <ele>165</ele>
        <time>2025-10-12T14:50:05.518Z</time>
      </trkpt>
      <trkpt lat="44.32062" lon="0.77608">
        <ele>165</ele>
        <time>2025-10-12T14:50:06.518Z</time>
      </trkpt>
      <trkpt lat="44.32062" lon="0.77609">
        <ele>165</ele>
        <time>2025-10-12T14:50:07.518Z</time>
      </trkpt>
      <trkpt lat="44.32063" lon="0.7761">
        <ele>165</ele>
        <time>2025-10-12T14:50:08.518Z</time>
      </trkpt>
      <trkpt lat="44.32063" lon="0.77612">
        <ele>165</ele>
        <time>2025-10-12T14:50:09.518Z</time>
      </trkpt>
      <trkpt lat="44.32064" lon="0.77613">
        <ele>165</ele>
        <time>2025-10-12T14:50:10.518Z</time>
      </trkpt>
      <trkpt lat="44.32064" lon="0.77614">
        <ele>165</ele>
        <time>2025-10-12T14:50:11.518Z</time>
      </trkpt>
      <trkpt lat="44.32065" lon="0.77615">
        <ele>165</ele>
        <time>2025-10-12T14:50:12.518Z</time>
      </trkpt>
      <trkpt lat="44.32065" lon="0.77617">
        <ele>165</ele>
        <time>2025-10-12T14:50:13.518Z</time>
      </trkpt>
      <trkpt lat="44.32065" lon="0.77618">
        <ele>165</ele>
        <time>2025-10-12T14:50:14.518Z</time>
      </trkpt>
      <trkpt lat="44.32066" lon="0.77619">
        <ele>165</ele>
        <time>2025-10-12T14:50:15.518Z</time>
      </trkpt>
      <trkpt lat="44.32067" lon="0.7762">
        <ele>165</ele>
        <time>2025-10-12T14:50:16.518Z</time>
      </trkpt>
      <trkpt lat="44.32067" lon="0.77621">
        <ele>165</ele>
        <time>2025-10-12T14:50:17.518Z</time>
      </trkpt>
      <trkpt lat="44.32068" lon="0.77623">
        <ele>165</ele>
        <time>2025-10-12T14:50:18.518Z</time>
      </trkpt>
      <trkpt lat="44.32069" lon="0.77624">
        <ele>165</ele>
        <time>2025-10-12T14:50:19.518Z</time>
      </trkpt>
      <trkpt lat="44.3207" lon="0.77624">
        <ele>165</ele>
        <time>2025-10-12T14:50:20.518Z</time>
      </trkpt>
      <trkpt lat="44.3207" lon="0.77626">
        <ele>166</ele>
        <time>2025-10-12T14:50:21.518Z</time>
      </trkpt>
      <trkpt lat="44.3207" lon="0.77627">
        <ele>166</ele>
        <time>2025-10-12T14:50:22.518Z</time>
      </trkpt>
      <trkpt lat="44.32071" lon="0.77629">
        <ele>166</ele>
        <time>2025-10-12T14:50:23.518Z</time>
      </trkpt>
      <trkpt lat="44.32071" lon="0.77631">
        <ele>167</ele>
        <time>2025-10-12T14:50:24.518Z</time>
      </trkpt>
      <trkpt lat="44.32073" lon="0.77633">
        <ele>168</ele>
        <time>2025-10-12T14:50:25.518Z</time>
      </trkpt>
      <trkpt lat="44.32073" lon="0.77634">
        <ele>168</ele>
        <time>2025-10-12T14:50:26.518Z</time>
      </trkpt>
      <trkpt lat="44.32074" lon="0.77636">
        <ele>169</ele>
        <time>2025-10-12T14:50:27.518Z</time>
      </trkpt>
      <trkpt lat="44.32074" lon="0.77638">
        <ele>169</ele>
        <time>2025-10-12T14:50:28.518Z</time>
      </trkpt>
      <trkpt lat="44.32074" lon="0.7764">
        <ele>169</ele>
        <time>2025-10-12T14:50:29.518Z</time>
      </trkpt>
      <trkpt lat="44.32074" lon="0.77643">
        <ele>169</ele>
        <time>2025-10-12T14:50:30.518Z</time>
      </trkpt>
      <trkpt lat="44.32074" lon="0.77645">
        <ele>169</ele>
        <time>2025-10-12T14:50:31.518Z</time>
      </trkpt>
      <trkpt lat="44.32075" lon="0.77646">
        <ele>169</ele>
        <time>2025-10-12T14:50:32.518Z</time>
      </trkpt>
      <trkpt lat="44.32076" lon="0.77647">
        <ele>170</ele>
        <time>2025-10-12T14:50:33.518Z</time>
      </trkpt>
      <trkpt lat="44.32077" lon="0.77649">
        <ele>170</ele>
        <time>2025-10-12T14:50:34.518Z</time>
      </trkpt>
      <trkpt lat="44.32077" lon="0.7765">
        <ele>170</ele>
        <time>2025-10-12T14:50:35.518Z</time>
      </trkpt>
      <trkpt lat="44.32077" lon="0.77651">
        <ele>170</ele>
        <time>2025-10-12T14:50:36.518Z</time>
      </trkpt>
      <trkpt lat="44.32078" lon="0.77653">
        <ele>171</ele>
        <time>2025-10-12T14:50:37.518Z</time>
      </trkpt>
      <trkpt lat="44.32078" lon="0.77654">
        <ele>171</ele>
        <time>2025-10-12T14:50:38.518Z</time>
      </trkpt>
      <trkpt lat="44.32079" lon="0.77656">
        <ele>171</ele>
        <time>2025-10-12T14:50:39.518Z</time>
      </trkpt>
      <trkpt lat="44.3208" lon="0.77659">
        <ele>171</ele>
        <time>2025-10-12T14:50:40.518Z</time>
      </trkpt>
      <trkpt lat="44.3208" lon="0.77661">
        <ele>171</ele>
        <time>2025-10-12T14:50:41.518Z</time>
      </trkpt>
      <trkpt lat="44.32081" lon="0.77663">
        <ele>171</ele>
        <time>2025-10-12T14:50:42.518Z</time>
      </trkpt>
      <trkpt lat="44.32081" lon="0.77664">
        <ele>170</ele>
        <time>2025-10-12T14:50:43.518Z</time>
      </trkpt>
      <trkpt lat="44.32082" lon="0.77666">
        <ele>170</ele>
        <time>2025-10-12T14:50:44.518Z</time>
      </trkpt>
      <trkpt lat="44.32083" lon="0.77667">
        <ele>170</ele>
        <time>2025-10-12T14:50:45.518Z</time>
      </trkpt>
      <trkpt lat="44.32083" lon="0.77668">
        <ele>170</ele>
        <time>2025-10-12T14:50:46.518Z</time>
      </trkpt>
      <trkpt lat="44.32084" lon="0.77668">
        <ele>170</ele>
        <time>2025-10-12T14:50:47.518Z</time>
      </trkpt>
      <trkpt lat="44.32084" lon="0.77669">
        <ele>170</ele>
        <time>2025-10-12T14:50:48.518Z</time>
      </trkpt>
      <trkpt lat="44.32086" lon="0.77671">
        <ele>170</ele>
        <time>2025-10-12T14:50:49.518Z</time>
      </trkpt>
      <trkpt lat="44.32086" lon="0.77672">
        <ele>170</ele>
        <time>2025-10-12T14:50:50.518Z</time>
      </trkpt>
      <trkpt lat="44.32088" lon="0.77673">
        <ele>170</ele>
        <time>2025-10-12T14:50:51.518Z</time>
      </trkpt>
      <trkpt lat="44.32088" lon="0.77674">
        <ele>169</ele>
        <time>2025-10-12T14:50:52.518Z</time>
      </trkpt>
      <trkpt lat="44.32088" lon="0.77676">
        <ele>169</ele>
        <time>2025-10-12T14:50:53.518Z</time>
      </trkpt>
      <trkpt lat="44.32088" lon="0.77676">
        <ele>169</ele>
        <time>2025-10-12T14:50:54.518Z</time>
      </trkpt>
      <trkpt lat="44.32088" lon="0.77677">
        <ele>169</ele>
        <time>2025-10-12T14:50:55.518Z</time>
      </trkpt>
      <trkpt lat="44.32088" lon="0.77678">
        <ele>169</ele>
        <time>2025-10-12T14:50:56.518Z</time>
      </trkpt>
      <trkpt lat="44.32089" lon="0.77679">
        <ele>169</ele>
        <time>2025-10-12T14:50:57.518Z</time>
      </trkpt>
      <trkpt lat="44.32089" lon="0.7768">
        <ele>169</ele>
        <time>2025-10-12T14:50:58.518Z</time>
      </trkpt>
      <trkpt lat="44.3209" lon="0.77681">
        <ele>169</ele>
        <time>2025-10-12T14:50:59.518Z</time>
      </trkpt>
      <trkpt lat="44.32091" lon="0.77683">
        <ele>169</ele>
        <time>2025-10-12T14:51:00.518Z</time>
      </trkpt>
      <trkpt lat="44.32091" lon="0.77684">
        <ele>169</ele>
        <time>2025-10-12T14:51:01.518Z</time>
      </trkpt>
      <trkpt lat="44.32092" lon="0.77685">
        <ele>169</ele>
        <time>2025-10-12T14:51:02.518Z</time>
      </trkpt>
      <trkpt lat="44.32092" lon="0.77687">
        <ele>170</ele>
        <time>2025-10-12T14:51:03.518Z</time>
      </trkpt>
      <trkpt lat="44.32093" lon="0.77688">
        <ele>170</ele>
        <time>2025-10-12T14:51:04.518Z</time>
      </trkpt>
      <trkpt lat="44.32094" lon="0.77689">
        <ele>170</ele>
        <time>2025-10-12T14:51:05.518Z</time>
      </trkpt>
      <trkpt lat="44.32095" lon="0.7769">
        <ele>170</ele>
        <time>2025-10-12T14:51:06.518Z</time>
      </trkpt>
      <trkpt lat="44.32096" lon="0.77691">
        <ele>170</ele>
        <time>2025-10-12T14:51:07.518Z</time>
      </trkpt>
      <trkpt lat="44.32097" lon="0.77692">
        <ele>170</ele>
        <time>2025-10-12T14:51:08.518Z</time>
      </trkpt>
      <trkpt lat="44.32099" lon="0.77693">
        <ele>170</ele>
        <time>2025-10-12T14:51:09.518Z</time>
      </trkpt>
      <trkpt lat="44.32099" lon="0.77694">
        <ele>170</ele>
        <time>2025-10-12T14:51:10.518Z</time>
      </trkpt>
      <trkpt lat="44.321" lon="0.77695">
        <ele>170</ele>
        <time>2025-10-12T14:51:11.518Z</time>
      </trkpt>
      <trkpt lat="44.321" lon="0.77696">
        <ele>170</ele>
        <time>2025-10-12T14:51:12.518Z</time>
      </trkpt>
      <trkpt lat="44.32101" lon="0.77697">
        <ele>170</ele>
        <time>2025-10-12T14:51:13.518Z</time>
      </trkpt>
      <trkpt lat="44.32101" lon="0.77698">
        <ele>169</ele>
        <time>2025-10-12T14:51:14.518Z</time>
      </trkpt>
      <trkpt lat="44.32102" lon="0.777">
        <ele>169</ele>
        <time>2025-10-12T14:51:15.518Z</time>
      </trkpt>
      <trkpt lat="44.32103" lon="0.77701">
        <ele>169</ele>
        <time>2025-10-12T14:51:16.518Z</time>
      </trkpt>
      <trkpt lat="44.32104" lon="0.77702">
        <ele>169</ele>
        <time>2025-10-12T14:51:17.518Z</time>
      </trkpt>
      <trkpt lat="44.32104" lon="0.77703">
        <ele>169</ele>
        <time>2025-10-12T14:51:18.518Z</time>
      </trkpt>
      <trkpt lat="44.32105" lon="0.77704">
        <ele>169</ele>
        <time>2025-10-12T14:51:19.518Z</time>
      </trkpt>
      <trkpt lat="44.32106" lon="0.77705">
        <ele>169</ele>
        <time>2025-10-12T14:51:20.518Z</time>
      </trkpt>
      <trkpt lat="44.32106" lon="0.77706">
        <ele>169</ele>
        <time>2025-10-12T14:51:21.518Z</time>
      </trkpt>
      <trkpt lat="44.32107" lon="0.77706">
        <ele>169</ele>
        <time>2025-10-12T14:51:22.518Z</time>
      </trkpt>
      <trkpt lat="44.32108" lon="0.77708">
        <ele>169</ele>
        <time>2025-10-12T14:51:23.518Z</time>
      </trkpt>
      <trkpt lat="44.32108" lon="0.77709">
        <ele>169</ele>
        <time>2025-10-12T14:51:24.518Z</time>
      </trkpt>
      <trkpt lat="44.32109" lon="0.7771">
        <ele>169</ele>
        <time>2025-10-12T14:51:25.518Z</time>
      </trkpt>
      <trkpt lat="44.32109" lon="0.77711">
        <ele>169</ele>
        <time>2025-10-12T14:51:26.518Z</time>
      </trkpt>
      <trkpt lat="44.3211" lon="0.77712">
        <ele>169</ele>
        <time>2025-10-12T14:51:27.518Z</time>
      </trkpt>
      <trkpt lat="44.3211" lon="0.77713">
        <ele>169</ele>
        <time>2025-10-12T14:51:28.518Z</time>
      </trkpt>
      <trkpt lat="44.32111" lon="0.77714">
        <ele>169</ele>
        <time>2025-10-12T14:51:29.518Z</time>
      </trkpt>
      <trkpt lat="44.32112" lon="0.77715">
        <ele>168</ele>
        <time>2025-10-12T14:51:30.518Z</time>
      </trkpt>
      <trkpt lat="44.32113" lon="0.77716">
        <ele>168</ele>
        <time>2025-10-12T14:51:31.518Z</time>
      </trkpt>
      <trkpt lat="44.32113" lon="0.77717">
        <ele>168</ele>
        <time>2025-10-12T14:51:32.518Z</time>
      </trkpt>
      <trkpt lat="44.32114" lon="0.77718">
        <ele>169</ele>
        <time>2025-10-12T14:51:33.518Z</time>
      </trkpt>
      <trkpt lat="44.32114" lon="0.77719">
        <ele>169</ele>
        <time>2025-10-12T14:51:34.518Z</time>
      </trkpt>
      <trkpt lat="44.32114" lon="0.7772">
        <ele>169</ele>
        <time>2025-10-12T14:51:35.518Z</time>
      </trkpt>
      <trkpt lat="44.32114" lon="0.77721">
        <ele>169</ele>
        <time>2025-10-12T14:51:36.518Z</time>
      </trkpt>
      <trkpt lat="44.32114" lon="0.77723">
        <ele>170</ele>
        <time>2025-10-12T14:51:37.518Z</time>
      </trkpt>
      <trkpt lat="44.32115" lon="0.77724">
        <ele>170</ele>
        <time>2025-10-12T14:51:38.518Z</time>
      </trkpt>
      <trkpt lat="44.32116" lon="0.77725">
        <ele>170</ele>
        <time>2025-10-12T14:51:39.518Z</time>
      </trkpt>
      <trkpt lat="44.32116" lon="0.77726">
        <ele>170</ele>
        <time>2025-10-12T14:51:40.518Z</time>
      </trkpt>
      <trkpt lat="44.32117" lon="0.77727">
        <ele>170</ele>
        <time>2025-10-12T14:51:41.518Z</time>
      </trkpt>
      <trkpt lat="44.32118" lon="0.77729">
        <ele>170</ele>
        <time>2025-10-12T14:51:42.518Z</time>
      </trkpt>
      <trkpt lat="44.32118" lon="0.7773">
        <ele>170</ele>
        <time>2025-10-12T14:51:43.518Z</time>
      </trkpt>
      <trkpt lat="44.32119" lon="0.77731">
        <ele>170</ele>
        <time>2025-10-12T14:51:44.518Z</time>
      </trkpt>
      <trkpt lat="44.32119" lon="0.77732">
        <ele>170</ele>
        <time>2025-10-12T14:51:45.518Z</time>
      </trkpt>
      <trkpt lat="44.32119" lon="0.77733">
        <ele>170</ele>
        <time>2025-10-12T14:51:46.518Z</time>
      </trkpt>
      <trkpt lat="44.32118" lon="0.77736">
        <ele>171</ele>
        <time>2025-10-12T14:51:47.518Z</time>
      </trkpt>
      <trkpt lat="44.32119" lon="0.77738">
        <ele>171</ele>
        <time>2025-10-12T14:51:48.518Z</time>
      </trkpt>
      <trkpt lat="44.32119" lon="0.7774">
        <ele>171</ele>
        <time>2025-10-12T14:51:49.518Z</time>
      </trkpt>
      <trkpt lat="44.3212" lon="0.77741">
        <ele>171</ele>
        <time>2025-10-12T14:51:50.518Z</time>
      </trkpt>
      <trkpt lat="44.32121" lon="0.77742">
        <ele>171</ele>
        <time>2025-10-12T14:51:51.518Z</time>
      </trkpt>
      <trkpt lat="44.32122" lon="0.77744">
        <ele>171</ele>
        <time>2025-10-12T14:51:52.518Z</time>
      </trkpt>
      <trkpt lat="44.32122" lon="0.77745">
        <ele>171</ele>
        <time>2025-10-12T14:51:53.518Z</time>
      </trkpt>
      <trkpt lat="44.32123" lon="0.77746">
        <ele>171</ele>
        <time>2025-10-12T14:51:54.518Z</time>
      </trkpt>
      <trkpt lat="44.32124" lon="0.77748">
        <ele>171</ele>
        <time>2025-10-12T14:51:55.518Z</time>
      </trkpt>
      <trkpt lat="44.32124" lon="0.7775">
        <ele>171</ele>
        <time>2025-10-12T14:51:56.518Z</time>
      </trkpt>
      <trkpt lat="44.32125" lon="0.77752">
        <ele>171</ele>
        <time>2025-10-12T14:51:57.518Z</time>
      </trkpt>
      <trkpt lat="44.32126" lon="0.77754">
        <ele>171</ele>
        <time>2025-10-12T14:51:58.518Z</time>
      </trkpt>
      <trkpt lat="44.32127" lon="0.77755">
        <ele>171</ele>
        <time>2025-10-12T14:51:59.518Z</time>
      </trkpt>
      <trkpt lat="44.32128" lon="0.77757">
        <ele>171</ele>
        <time>2025-10-12T14:52:00.518Z</time>
      </trkpt>
      <trkpt lat="44.32128" lon="0.77759">
        <ele>170</ele>
        <time>2025-10-12T14:52:01.518Z</time>
      </trkpt>
      <trkpt lat="44.32129" lon="0.77761">
        <ele>170</ele>
        <time>2025-10-12T14:52:02.518Z</time>
      </trkpt>
      <trkpt lat="44.32128" lon="0.77762">
        <ele>170</ele>
        <time>2025-10-12T14:52:03.518Z</time>
      </trkpt>
      <trkpt lat="44.32128" lon="0.77763">
        <ele>170</ele>
        <time>2025-10-12T14:52:04.518Z</time>
      </trkpt>
      <trkpt lat="44.32129" lon="0.77764">
        <ele>170</ele>
        <time>2025-10-12T14:52:05.518Z</time>
      </trkpt>
      <trkpt lat="44.32129" lon="0.77766">
        <ele>170</ele>
        <time>2025-10-12T14:52:06.518Z</time>
      </trkpt>
      <trkpt lat="44.3213" lon="0.77767">
        <ele>170</ele>
        <time>2025-10-12T14:52:07.518Z</time>
      </trkpt>
      <trkpt lat="44.32131" lon="0.77768">
        <ele>170</ele>
        <time>2025-10-12T14:52:08.518Z</time>
      </trkpt>
      <trkpt lat="44.32131" lon="0.77769">
        <ele>170</ele>
        <time>2025-10-12T14:52:09.518Z</time>
      </trkpt>
      <trkpt lat="44.32132" lon="0.7777">
        <ele>170</ele>
        <time>2025-10-12T14:52:10.518Z</time>
      </trkpt>
      <trkpt lat="44.32132" lon="0.77771">
        <ele>170</ele>
        <time>2025-10-12T14:52:11.518Z</time>
      </trkpt>
      <trkpt lat="44.32132" lon="0.77772">
        <ele>170</ele>
        <time>2025-10-12T14:52:12.518Z</time>
      </trkpt>
      <trkpt lat="44.32132" lon="0.77772">
        <ele>170</ele>
        <time>2025-10-12T14:52:13.518Z</time>
      </trkpt>
      <trkpt lat="44.32132" lon="0.77773">
        <ele>170</ele>
        <time>2025-10-12T14:52:14.518Z</time>
      </trkpt>
      <trkpt lat="44.32132" lon="0.77773">
        <ele>170</ele>
        <time>2025-10-12T14:52:15.518Z</time>
      </trkpt>
      <trkpt lat="44.32132" lon="0.77774">
        <ele>170</ele>
        <time>2025-10-12T14:52:16.518Z</time>
      </trkpt>
      <trkpt lat="44.32132" lon="0.77775">
        <ele>170</ele>
        <time>2025-10-12T14:52:17.518Z</time>
      </trkpt>
      <trkpt lat="44.32132" lon="0.77777">
        <ele>170</ele>
        <time>2025-10-12T14:52:18.518Z</time>
      </trkpt>
      <trkpt lat="44.32132" lon="0.77778">
        <ele>170</ele>
        <time>2025-10-12T14:52:19.518Z</time>
      </trkpt>
      <trkpt lat="44.32133" lon="0.7778">
        <ele>170</ele>
        <time>2025-10-12T14:52:20.518Z</time>
      </trkpt>
      <trkpt lat="44.32133" lon="0.77783">
        <ele>171</ele>
        <time>2025-10-12T14:52:21.518Z</time>
      </trkpt>
      <trkpt lat="44.32134" lon="0.77784">
        <ele>171</ele>
        <time>2025-10-12T14:52:22.518Z</time>
      </trkpt>
      <trkpt lat="44.32135" lon="0.77786">
        <ele>171</ele>
        <time>2025-10-12T14:52:23.518Z</time>
      </trkpt>
      <trkpt lat="44.32135" lon="0.77788">
        <ele>171</ele>
        <time>2025-10-12T14:52:24.518Z</time>
      </trkpt>
      <trkpt lat="44.32136" lon="0.77789">
        <ele>171</ele>
        <time>2025-10-12T14:52:25.518Z</time>
      </trkpt>
      <trkpt lat="44.32137" lon="0.77791">
        <ele>172</ele>
        <time>2025-10-12T14:52:26.518Z</time>
      </trkpt>
      <trkpt lat="44.32137" lon="0.77793">
        <ele>172</ele>
        <time>2025-10-12T14:52:27.518Z</time>
      </trkpt>
      <trkpt lat="44.32138" lon="0.77795">
        <ele>173</ele>
        <time>2025-10-12T14:52:28.518Z</time>
      </trkpt>
      <trkpt lat="44.32138" lon="0.77797">
        <ele>173</ele>
        <time>2025-10-12T14:52:29.518Z</time>
      </trkpt>
      <trkpt lat="44.32138" lon="0.77798">
        <ele>173</ele>
        <time>2025-10-12T14:52:30.518Z</time>
      </trkpt>
      <trkpt lat="44.32139" lon="0.778">
        <ele>173</ele>
        <time>2025-10-12T14:52:31.518Z</time>
      </trkpt>
      <trkpt lat="44.32139" lon="0.77801">
        <ele>173</ele>
        <time>2025-10-12T14:52:32.518Z</time>
      </trkpt>
      <trkpt lat="44.32139" lon="0.77802">
        <ele>173</ele>
        <time>2025-10-12T14:52:33.518Z</time>
      </trkpt>
      <trkpt lat="44.3214" lon="0.77804">
        <ele>174</ele>
        <time>2025-10-12T14:52:34.518Z</time>
      </trkpt>
      <trkpt lat="44.3214" lon="0.77805">
        <ele>174</ele>
        <time>2025-10-12T14:52:35.518Z</time>
      </trkpt>
      <trkpt lat="44.32141" lon="0.77806">
        <ele>174</ele>
        <time>2025-10-12T14:52:36.518Z</time>
      </trkpt>
      <trkpt lat="44.32141" lon="0.77807">
        <ele>174</ele>
        <time>2025-10-12T14:52:37.518Z</time>
      </trkpt>
      <trkpt lat="44.32142" lon="0.77809">
        <ele>174</ele>
        <time>2025-10-12T14:52:38.518Z</time>
      </trkpt>
      <trkpt lat="44.32142" lon="0.77809">
        <ele>174</ele>
        <time>2025-10-12T14:52:39.518Z</time>
      </trkpt>
      <trkpt lat="44.32143" lon="0.7781">
        <ele>174</ele>
        <time>2025-10-12T14:52:40.518Z</time>
      </trkpt>
      <trkpt lat="44.32143" lon="0.77812">
        <ele>174</ele>
        <time>2025-10-12T14:52:41.518Z</time>
      </trkpt>
      <trkpt lat="44.32144" lon="0.77814">
        <ele>174</ele>
        <time>2025-10-12T14:52:42.518Z</time>
      </trkpt>
      <trkpt lat="44.32144" lon="0.77815">
        <ele>174</ele>
        <time>2025-10-12T14:52:43.518Z</time>
      </trkpt>
      <trkpt lat="44.32145" lon="0.77817">
        <ele>175</ele>
        <time>2025-10-12T14:52:44.518Z</time>
      </trkpt>
      <trkpt lat="44.32146" lon="0.77818">
        <ele>175</ele>
        <time>2025-10-12T14:52:45.518Z</time>
      </trkpt>
      <trkpt lat="44.32147" lon="0.7782">
        <ele>175</ele>
        <time>2025-10-12T14:52:46.518Z</time>
      </trkpt>
      <trkpt lat="44.32148" lon="0.77821">
        <ele>175</ele>
        <time>2025-10-12T14:52:47.518Z</time>
      </trkpt>
      <trkpt lat="44.32148" lon="0.77822">
        <ele>175</ele>
        <time>2025-10-12T14:52:48.518Z</time>
      </trkpt>
      <trkpt lat="44.32148" lon="0.77823">
        <ele>175</ele>
        <time>2025-10-12T14:52:49.518Z</time>
      </trkpt>
      <trkpt lat="44.32148" lon="0.77823">
        <ele>175</ele>
        <time>2025-10-12T14:52:50.518Z</time>
      </trkpt>
      <trkpt lat="44.32148" lon="0.77824">
        <ele>175</ele>
        <time>2025-10-12T14:52:51.518Z</time>
      </trkpt>
      <trkpt lat="44.32149" lon="0.77825">
        <ele>175</ele>
        <time>2025-10-12T14:52:52.518Z</time>
      </trkpt>
      <trkpt lat="44.32149" lon="0.77826">
        <ele>175</ele>
        <time>2025-10-12T14:52:53.518Z</time>
      </trkpt>
      <trkpt lat="44.32149" lon="0.77826">
        <ele>175</ele>
        <time>2025-10-12T14:52:54.518Z</time>
      </trkpt>
      <trkpt lat="44.32148" lon="0.77827">
        <ele>174</ele>
        <time>2025-10-12T14:52:55.518Z</time>
      </trkpt>
      <trkpt lat="44.32148" lon="0.77828">
        <ele>174</ele>
        <time>2025-10-12T14:52:56.518Z</time>
      </trkpt>
      <trkpt lat="44.32147" lon="0.77829">
        <ele>173</ele>
        <time>2025-10-12T14:52:57.518Z</time>
      </trkpt>
      <trkpt lat="44.32147" lon="0.77829">
        <ele>173</ele>
        <time>2025-10-12T14:52:58.518Z</time>
      </trkpt>
      <trkpt lat="44.32147" lon="0.77829">
        <ele>173</ele>
        <time>2025-10-12T14:52:59.518Z</time>
      </trkpt>
      <trkpt lat="44.32147" lon="0.77829">
        <ele>173</ele>
        <time>2025-10-12T14:53:00.518Z</time>
      </trkpt>
      <trkpt lat="44.32147" lon="0.77829">
        <ele>173</ele>
        <time>2025-10-12T14:53:01.518Z</time>
      </trkpt>
      <trkpt lat="44.32147" lon="0.77829">
        <ele>173</ele>
        <time>2025-10-12T14:53:02.518Z</time>
      </trkpt>
      <trkpt lat="44.32147" lon="0.77829">
        <ele>173</ele>
        <time>2025-10-12T14:53:03.518Z</time>
      </trkpt>
      <trkpt lat="44.32147" lon="0.77829">
        <ele>173</ele>
        <time>2025-10-12T14:53:04.518Z</time>
      </trkpt>
      <trkpt lat="44.32147" lon="0.77829">
        <ele>173</ele>
        <time>2025-10-12T14:53:05.518Z</time>
      </trkpt>
      <trkpt lat="44.32147" lon="0.77829">
        <ele>172</ele>
        <time>2025-10-12T14:53:06.518Z</time>
      </trkpt>
      <trkpt lat="44.32147" lon="0.77829">
        <ele>172</ele>
        <time>2025-10-12T14:53:07.518Z</time>
      </trkpt>
      <trkpt lat="44.32147" lon="0.77829">
        <ele>172</ele>
        <time>2025-10-12T14:53:08.518Z</time>
      </trkpt>
      <trkpt lat="44.32147" lon="0.77829">
        <ele>172</ele>
        <time>2025-10-12T14:53:09.518Z</time>
      </trkpt>
      <trkpt lat="44.32147" lon="0.77829">
        <ele>172</ele>
        <time>2025-10-12T14:53:10.518Z</time>
      </trkpt>
      <trkpt lat="44.32147" lon="0.77829">
        <ele>172</ele>
        <time>2025-10-12T14:53:11.518Z</time>
      </trkpt>
      <trkpt lat="44.32147" lon="0.77829">
        <ele>171</ele>
        <time>2025-10-12T14:53:12.518Z</time>
      </trkpt>
      <trkpt lat="44.32147" lon="0.77829">
        <ele>171</ele>
        <time>2025-10-12T14:53:13.518Z</time>
      </trkpt>
      <trkpt lat="44.32147" lon="0.77829">
        <ele>171</ele>
        <time>2025-10-12T14:53:14.518Z</time>
      </trkpt>
      <trkpt lat="44.32147" lon="0.77829">
        <ele>171</ele>
        <time>2025-10-12T14:53:15.518Z</time>
      </trkpt>
      <trkpt lat="44.32147" lon="0.77829">
        <ele>171</ele>
        <time>2025-10-12T14:53:16.518Z</time>
      </trkpt>
      <trkpt lat="44.32147" lon="0.77829">
        <ele>172</ele>
        <time>2025-10-12T14:53:17.518Z</time>
      </trkpt>
      <trkpt lat="44.32147" lon="0.7783">
        <ele>172</ele>
        <time>2025-10-12T14:53:18.518Z</time>
      </trkpt>
      <trkpt lat="44.32147" lon="0.7783">
        <ele>172</ele>
        <time>2025-10-12T14:53:19.518Z</time>
      </trkpt>
      <trkpt lat="44.32147" lon="0.7783">
        <ele>172</ele>
        <time>2025-10-12T14:53:20.518Z</time>
      </trkpt>
      <trkpt lat="44.32147" lon="0.7783">
        <ele>172</ele>
        <time>2025-10-12T14:53:21.518Z</time>
      </trkpt>
      <trkpt lat="44.32147" lon="0.7783">
        <ele>172</ele>
        <time>2025-10-12T14:53:22.518Z</time>
      </trkpt>
      <trkpt lat="44.32147" lon="0.7783">
        <ele>172</ele>
        <time>2025-10-12T14:53:23.518Z</time>
      </trkpt>
      <trkpt lat="44.32148" lon="0.7783">
        <ele>171</ele>
        <time>2025-10-12T14:53:24.518Z</time>
      </trkpt>
      <trkpt lat="44.32148" lon="0.7783">
        <ele>171</ele>
        <time>2025-10-12T14:53:25.518Z</time>
      </trkpt>
      <trkpt lat="44.32148" lon="0.7783">
        <ele>171</ele>
        <time>2025-10-12T14:53:26.518Z</time>
      </trkpt>
      <trkpt lat="44.32148" lon="0.7783">
        <ele>170</ele>
        <time>2025-10-12T14:53:27.518Z</time>
      </trkpt>
      <trkpt lat="44.32148" lon="0.7783">
        <ele>170</ele>
        <time>2025-10-12T14:53:28.518Z</time>
      </trkpt>
      <trkpt lat="44.32148" lon="0.7783">
        <ele>171</ele>
        <time>2025-10-12T14:53:29.518Z</time>
      </trkpt>
      <trkpt lat="44.32148" lon="0.7783">
        <ele>172</ele>
        <time>2025-10-12T14:53:30.518Z</time>
      </trkpt>
      <trkpt lat="44.32148" lon="0.7783">
        <ele>172</ele>
        <time>2025-10-12T14:53:31.518Z</time>
      </trkpt>
      <trkpt lat="44.32148" lon="0.7783">
        <ele>173</ele>
        <time>2025-10-12T14:53:32.518Z</time>
      </trkpt>
      <trkpt lat="44.32148" lon="0.7783">
        <ele>173</ele>
        <time>2025-10-12T14:53:33.518Z</time>
      </trkpt>
      <trkpt lat="44.32148" lon="0.7783">
        <ele>174</ele>
        <time>2025-10-12T14:53:34.518Z</time>
      </trkpt>
      <trkpt lat="44.32148" lon="0.7783">
        <ele>174</ele>
        <time>2025-10-12T14:53:35.518Z</time>
      </trkpt>
      <trkpt lat="44.32148" lon="0.7783">
        <ele>174</ele>
        <time>2025-10-12T14:53:36.518Z</time>
      </trkpt>
      <trkpt lat="44.32148" lon="0.7783">
        <ele>174</ele>
        <time>2025-10-12T14:53:37.518Z</time>
      </trkpt>
      <trkpt lat="44.32148" lon="0.7783">
        <ele>174</ele>
        <time>2025-10-12T14:53:38.518Z</time>
      </trkpt>
      <trkpt lat="44.32148" lon="0.7783">
        <ele>173</ele>
        <time>2025-10-12T14:53:39.518Z</time>
      </trkpt>
      <trkpt lat="44.32148" lon="0.77829">
        <ele>173</ele>
        <time>2025-10-12T14:53:40.518Z</time>
      </trkpt>
      <trkpt lat="44.32148" lon="0.77829">
        <ele>173</ele>
        <time>2025-10-12T14:53:41.518Z</time>
      </trkpt>
      <trkpt lat="44.32148" lon="0.77829">
        <ele>174</ele>
        <time>2025-10-12T14:53:42.518Z</time>
      </trkpt>
      <trkpt lat="44.32148" lon="0.77829">
        <ele>174</ele>
        <time>2025-10-12T14:53:43.518Z</time>
      </trkpt>
      <trkpt lat="44.32148" lon="0.77829">
        <ele>175</ele>
        <time>2025-10-12T14:53:44.518Z</time>
      </trkpt>
      <trkpt lat="44.32148" lon="0.77829">
        <ele>175</ele>
        <time>2025-10-12T14:53:45.518Z</time>
      </trkpt>
      <trkpt lat="44.32148" lon="0.77829">
        <ele>175</ele>
        <time>2025-10-12T14:53:46.518Z</time>
      </trkpt>
      <trkpt lat="44.32148" lon="0.77829">
        <ele>175</ele>
        <time>2025-10-12T14:53:47.518Z</time>
      </trkpt>
      <trkpt lat="44.32148" lon="0.77829">
        <ele>175</ele>
        <time>2025-10-12T14:53:48.518Z</time>
      </trkpt>
      <trkpt lat="44.32148" lon="0.77829">
        <ele>175</ele>
        <time>2025-10-12T14:53:49.518Z</time>
      </trkpt>
      <trkpt lat="44.32148" lon="0.77829">
        <ele>175</ele>
        <time>2025-10-12T14:53:50.518Z</time>
      </trkpt>
      <trkpt lat="44.32148" lon="0.77829">
        <ele>175</ele>
        <time>2025-10-12T14:53:51.518Z</time>
      </trkpt>
      <trkpt lat="44.32148" lon="0.77829">
        <ele>175</ele>
        <time>2025-10-12T14:53:52.518Z</time>
      </trkpt>
      <trkpt lat="44.32148" lon="0.77829">
        <ele>175</ele>
        <time>2025-10-12T14:53:53.518Z</time>
      </trkpt>
      <trkpt lat="44.32148" lon="0.77829">
        <ele>174</ele>
        <time>2025-10-12T14:53:54.518Z</time>
      </trkpt>
      <trkpt lat="44.32148" lon="0.77829">
        <ele>174</ele>
        <time>2025-10-12T14:53:55.518Z</time>
      </trkpt>
      <trkpt lat="44.32148" lon="0.77829">
        <ele>174</ele>
        <time>2025-10-12T14:53:56.518Z</time>
      </trkpt>
      <trkpt lat="44.32148" lon="0.77829">
        <ele>174</ele>
        <time>2025-10-12T14:53:57.518Z</time>
      </trkpt>
      <trkpt lat="44.32148" lon="0.77829">
        <ele>173</ele>
        <time>2025-10-12T14:53:58.518Z</time>
      </trkpt>
      <trkpt lat="44.32148" lon="0.77829">
        <ele>173</ele>
        <time>2025-10-12T14:53:59.518Z</time>
      </trkpt>
      <trkpt lat="44.32148" lon="0.77829">
        <ele>173</ele>
        <time>2025-10-12T14:54:00.518Z</time>
      </trkpt>
      <trkpt lat="44.32148" lon="0.7783">
        <ele>173</ele>
        <time>2025-10-12T14:54:01.518Z</time>
      </trkpt>
      <trkpt lat="44.32147" lon="0.7783">
        <ele>173</ele>
        <time>2025-10-12T14:54:02.518Z</time>
      </trkpt>
      <trkpt lat="44.32147" lon="0.7783">
        <ele>173</ele>
        <time>2025-10-12T14:54:03.518Z</time>
      </trkpt>
      <trkpt lat="44.32147" lon="0.7783">
        <ele>173</ele>
        <time>2025-10-12T14:54:04.518Z</time>
      </trkpt>
      <trkpt lat="44.32146" lon="0.7783">
        <ele>173</ele>
        <time>2025-10-12T14:54:05.518Z</time>
      </trkpt>
      <trkpt lat="44.32146" lon="0.7783">
        <ele>173</ele>
        <time>2025-10-12T14:54:06.518Z</time>
      </trkpt>
      <trkpt lat="44.32146" lon="0.7783">
        <ele>173</ele>
        <time>2025-10-12T14:54:07.518Z</time>
      </trkpt>
      <trkpt lat="44.32146" lon="0.7783">
        <ele>173</ele>
        <time>2025-10-12T14:54:08.518Z</time>
      </trkpt>
      <trkpt lat="44.32146" lon="0.7783">
        <ele>174</ele>
        <time>2025-10-12T14:54:09.518Z</time>
      </trkpt>
      <trkpt lat="44.32146" lon="0.7783">
        <ele>174</ele>
        <time>2025-10-12T14:54:10.518Z</time>
      </trkpt>
      <trkpt lat="44.32146" lon="0.7783">
        <ele>174</ele>
        <time>2025-10-12T14:54:11.518Z</time>
      </trkpt>
      <trkpt lat="44.32146" lon="0.7783">
        <ele>175</ele>
        <time>2025-10-12T14:54:12.518Z</time>
      </trkpt>
      <trkpt lat="44.32146" lon="0.7783">
        <ele>175</ele>
        <time>2025-10-12T14:54:13.518Z</time>
      </trkpt>
      <trkpt lat="44.32146" lon="0.7783">
        <ele>176</ele>
        <time>2025-10-12T14:54:14.518Z</time>
      </trkpt>
      <trkpt lat="44.32146" lon="0.7783">
        <ele>176</ele>
        <time>2025-10-12T14:54:15.518Z</time>
      </trkpt>
      <trkpt lat="44.32146" lon="0.7783">
        <ele>177</ele>
        <time>2025-10-12T14:54:16.518Z</time>
      </trkpt>
      <trkpt lat="44.32146" lon="0.7783">
        <ele>177</ele>
        <time>2025-10-12T14:54:17.518Z</time>
      </trkpt>
      <trkpt lat="44.32146" lon="0.7783">
        <ele>177</ele>
        <time>2025-10-12T14:54:18.518Z</time>
      </trkpt>
      <trkpt lat="44.32146" lon="0.77829">
        <ele>177</ele>
        <time>2025-10-12T14:54:19.518Z</time>
      </trkpt>
      <trkpt lat="44.32146" lon="0.77829">
        <ele>178</ele>
        <time>2025-10-12T14:54:20.518Z</time>
      </trkpt>
      <trkpt lat="44.32146" lon="0.77829">
        <ele>178</ele>
        <time>2025-10-12T14:54:21.518Z</time>
      </trkpt>
      <trkpt lat="44.32146" lon="0.77829">
        <ele>178</ele>
        <time>2025-10-12T14:54:22.518Z</time>
      </trkpt>
      <trkpt lat="44.32146" lon="0.77829">
        <ele>177</ele>
        <time>2025-10-12T14:54:23.518Z</time>
      </trkpt>
      <trkpt lat="44.32146" lon="0.77829">
        <ele>177</ele>
        <time>2025-10-12T14:54:24.518Z</time>
      </trkpt>
      <trkpt lat="44.32146" lon="0.77829">
        <ele>177</ele>
        <time>2025-10-12T14:54:25.518Z</time>
      </trkpt>
      <trkpt lat="44.32146" lon="0.77829">
        <ele>177</ele>
        <time>2025-10-12T14:54:26.518Z</time>
      </trkpt>
      <trkpt lat="44.32146" lon="0.77829">
        <ele>178</ele>
        <time>2025-10-12T14:54:27.518Z</time>
      </trkpt>
      <trkpt lat="44.32146" lon="0.77829">
        <ele>178</ele>
        <time>2025-10-12T14:54:28.518Z</time>
      </trkpt>
      <trkpt lat="44.32146" lon="0.77829">
        <ele>178</ele>
        <time>2025-10-12T14:54:29.518Z</time>
      </trkpt>
      <trkpt lat="44.32146" lon="0.77829">
        <ele>178</ele>
        <time>2025-10-12T14:54:30.518Z</time>
      </trkpt>
      <trkpt lat="44.32146" lon="0.77829">
        <ele>178</ele>
        <time>2025-10-12T14:54:31.518Z</time>
      </trkpt>
      <trkpt lat="44.32146" lon="0.77829">
        <ele>177</ele>
        <time>2025-10-12T14:54:32.518Z</time>
      </trkpt>
      <trkpt lat="44.32146" lon="0.77829">
        <ele>177</ele>
        <time>2025-10-12T14:54:33.518Z</time>
      </trkpt>
      <trkpt lat="44.32146" lon="0.77829">
        <ele>176</ele>
        <time>2025-10-12T14:54:34.518Z</time>
      </trkpt>
      <trkpt lat="44.32146" lon="0.77829">
        <ele>176</ele>
        <time>2025-10-12T14:54:35.518Z</time>
      </trkpt>
      <trkpt lat="44.32146" lon="0.7783">
        <ele>175</ele>
        <time>2025-10-12T14:54:36.518Z</time>
      </trkpt>
      <trkpt lat="44.32146" lon="0.7783">
        <ele>174</ele>
        <time>2025-10-12T14:54:37.518Z</time>
      </trkpt>
      <trkpt lat="44.32147" lon="0.7783">
        <ele>174</ele>
        <time>2025-10-12T14:54:38.518Z</time>
      </trkpt>
      <trkpt lat="44.32147" lon="0.7783">
        <ele>174</ele>
        <time>2025-10-12T14:54:39.518Z</time>
      </trkpt>
      <trkpt lat="44.32147" lon="0.7783">
        <ele>174</ele>
        <time>2025-10-12T14:54:40.518Z</time>
      </trkpt>
      <trkpt lat="44.32147" lon="0.77831">
        <ele>174</ele>
        <time>2025-10-12T14:54:41.518Z</time>
      </trkpt>
      <trkpt lat="44.32147" lon="0.77831">
        <ele>174</ele>
        <time>2025-10-12T14:54:42.518Z</time>
      </trkpt>
      <trkpt lat="44.32147" lon="0.77832">
        <ele>174</ele>
        <time>2025-10-12T14:54:43.518Z</time>
      </trkpt>
      <trkpt lat="44.32147" lon="0.77833">
        <ele>174</ele>
        <time>2025-10-12T14:54:44.518Z</time>
      </trkpt>
      <trkpt lat="44.32148" lon="0.77834">
        <ele>174</ele>
        <time>2025-10-12T14:54:45.518Z</time>
      </trkpt>
      <trkpt lat="44.32148" lon="0.77835">
        <ele>174</ele>
        <time>2025-10-12T14:54:46.518Z</time>
      </trkpt>
      <trkpt lat="44.32149" lon="0.77836">
        <ele>174</ele>
        <time>2025-10-12T14:54:47.518Z</time>
      </trkpt>
      <trkpt lat="44.3215" lon="0.77837">
        <ele>174</ele>
        <time>2025-10-12T14:54:48.518Z</time>
      </trkpt>
      <trkpt lat="44.3215" lon="0.77838">
        <ele>174</ele>
        <time>2025-10-12T14:54:49.518Z</time>
      </trkpt>
      <trkpt lat="44.3215" lon="0.77839">
        <ele>175</ele>
        <time>2025-10-12T14:54:50.518Z</time>
      </trkpt>
      <trkpt lat="44.32151" lon="0.7784">
        <ele>175</ele>
        <time>2025-10-12T14:54:51.518Z</time>
      </trkpt>
      <trkpt lat="44.32152" lon="0.77842">
        <ele>175</ele>
        <time>2025-10-12T14:54:52.518Z</time>
      </trkpt>
      <trkpt lat="44.32152" lon="0.77845">
        <ele>176</ele>
        <time>2025-10-12T14:54:53.518Z</time>
      </trkpt>
      <trkpt lat="44.32152" lon="0.77847">
        <ele>176</ele>
        <time>2025-10-12T14:54:54.518Z</time>
      </trkpt>
      <trkpt lat="44.32152" lon="0.77848">
        <ele>177</ele>
        <time>2025-10-12T14:54:55.518Z</time>
      </trkpt>
      <trkpt lat="44.32153" lon="0.7785">
        <ele>177</ele>
        <time>2025-10-12T14:54:56.518Z</time>
      </trkpt>
      <trkpt lat="44.32154" lon="0.77851">
        <ele>177</ele>
        <time>2025-10-12T14:54:57.518Z</time>
      </trkpt>
      <trkpt lat="44.32154" lon="0.77852">
        <ele>177</ele>
        <time>2025-10-12T14:54:58.518Z</time>
      </trkpt>
      <trkpt lat="44.32154" lon="0.77853">
        <ele>177</ele>
        <time>2025-10-12T14:54:59.518Z</time>
      </trkpt>
      <trkpt lat="44.32155" lon="0.77855">
        <ele>178</ele>
        <time>2025-10-12T14:55:00.518Z</time>
      </trkpt>
      <trkpt lat="44.32155" lon="0.77856">
        <ele>178</ele>
        <time>2025-10-12T14:55:01.518Z</time>
      </trkpt>
      <trkpt lat="44.32156" lon="0.77858">
        <ele>178</ele>
        <time>2025-10-12T14:55:02.518Z</time>
      </trkpt>
      <trkpt lat="44.32157" lon="0.77859">
        <ele>178</ele>
        <time>2025-10-12T14:55:03.518Z</time>
      </trkpt>
      <trkpt lat="44.32157" lon="0.77861">
        <ele>178</ele>
        <time>2025-10-12T14:55:04.518Z</time>
      </trkpt>
      <trkpt lat="44.32158" lon="0.77862">
        <ele>178</ele>
        <time>2025-10-12T14:55:05.518Z</time>
      </trkpt>
      <trkpt lat="44.32159" lon="0.77864">
        <ele>178</ele>
        <time>2025-10-12T14:55:06.518Z</time>
      </trkpt>
      <trkpt lat="44.32159" lon="0.77866">
        <ele>178</ele>
        <time>2025-10-12T14:55:07.518Z</time>
      </trkpt>
      <trkpt lat="44.32159" lon="0.77867">
        <ele>178</ele>
        <time>2025-10-12T14:55:08.518Z</time>
      </trkpt>
      <trkpt lat="44.32159" lon="0.77869">
        <ele>178</ele>
        <time>2025-10-12T14:55:09.518Z</time>
      </trkpt>
      <trkpt lat="44.32159" lon="0.7787">
        <ele>178</ele>
        <time>2025-10-12T14:55:10.518Z</time>
      </trkpt>
      <trkpt lat="44.32159" lon="0.77871">
        <ele>178</ele>
        <time>2025-10-12T14:55:11.518Z</time>
      </trkpt>
      <trkpt lat="44.3216" lon="0.77872">
        <ele>178</ele>
        <time>2025-10-12T14:55:12.518Z</time>
      </trkpt>
      <trkpt lat="44.3216" lon="0.77873">
        <ele>178</ele>
        <time>2025-10-12T14:55:13.518Z</time>
      </trkpt>
      <trkpt lat="44.3216" lon="0.77874">
        <ele>179</ele>
        <time>2025-10-12T14:55:14.518Z</time>
      </trkpt>
      <trkpt lat="44.3216" lon="0.77876">
        <ele>179</ele>
        <time>2025-10-12T14:55:15.518Z</time>
      </trkpt>
      <trkpt lat="44.3216" lon="0.77877">
        <ele>179</ele>
        <time>2025-10-12T14:55:16.518Z</time>
      </trkpt>
      <trkpt lat="44.32161" lon="0.77879">
        <ele>179</ele>
        <time>2025-10-12T14:55:17.518Z</time>
      </trkpt>
      <trkpt lat="44.32161" lon="0.77881">
        <ele>180</ele>
        <time>2025-10-12T14:55:18.518Z</time>
      </trkpt>
      <trkpt lat="44.32162" lon="0.77882">
        <ele>180</ele>
        <time>2025-10-12T14:55:19.518Z</time>
      </trkpt>
      <trkpt lat="44.32162" lon="0.77884">
        <ele>180</ele>
        <time>2025-10-12T14:55:20.518Z</time>
      </trkpt>
      <trkpt lat="44.32163" lon="0.77886">
        <ele>180</ele>
        <time>2025-10-12T14:55:21.518Z</time>
      </trkpt>
      <trkpt lat="44.32164" lon="0.77887">
        <ele>180</ele>
        <time>2025-10-12T14:55:22.518Z</time>
      </trkpt>
      <trkpt lat="44.32165" lon="0.77889">
        <ele>180</ele>
        <time>2025-10-12T14:55:23.518Z</time>
      </trkpt>
      <trkpt lat="44.32165" lon="0.77892">
        <ele>180</ele>
        <time>2025-10-12T14:55:24.518Z</time>
      </trkpt>
      <trkpt lat="44.32166" lon="0.77894">
        <ele>180</ele>
        <time>2025-10-12T14:55:25.518Z</time>
      </trkpt>
      <trkpt lat="44.32167" lon="0.77896">
        <ele>180</ele>
        <time>2025-10-12T14:55:26.518Z</time>
      </trkpt>
      <trkpt lat="44.32168" lon="0.77897">
        <ele>180</ele>
        <time>2025-10-12T14:55:27.518Z</time>
      </trkpt>
      <trkpt lat="44.32169" lon="0.77899">
        <ele>180</ele>
        <time>2025-10-12T14:55:28.518Z</time>
      </trkpt>
      <trkpt lat="44.3217" lon="0.779">
        <ele>180</ele>
        <time>2025-10-12T14:55:29.518Z</time>
      </trkpt>
      <trkpt lat="44.32171" lon="0.77902">
        <ele>180</ele>
        <time>2025-10-12T14:55:30.518Z</time>
      </trkpt>
      <trkpt lat="44.32172" lon="0.77903">
        <ele>179</ele>
        <time>2025-10-12T14:55:31.518Z</time>
      </trkpt>
      <trkpt lat="44.32173" lon="0.77905">
        <ele>179</ele>
        <time>2025-10-12T14:55:32.518Z</time>
      </trkpt>
      <trkpt lat="44.32174" lon="0.77906">
        <ele>179</ele>
        <time>2025-10-12T14:55:33.518Z</time>
      </trkpt>
      <trkpt lat="44.32174" lon="0.77907">
        <ele>179</ele>
        <time>2025-10-12T14:55:34.518Z</time>
      </trkpt>
      <trkpt lat="44.32174" lon="0.77909">
        <ele>179</ele>
        <time>2025-10-12T14:55:35.518Z</time>
      </trkpt>
      <trkpt lat="44.32175" lon="0.7791">
        <ele>179</ele>
        <time>2025-10-12T14:55:36.518Z</time>
      </trkpt>
      <trkpt lat="44.32176" lon="0.77912">
        <ele>180</ele>
        <time>2025-10-12T14:55:37.518Z</time>
      </trkpt>
      <trkpt lat="44.32177" lon="0.77913">
        <ele>180</ele>
        <time>2025-10-12T14:55:38.518Z</time>
      </trkpt>
      <trkpt lat="44.32177" lon="0.77915">
        <ele>180</ele>
        <time>2025-10-12T14:55:39.518Z</time>
      </trkpt>
      <trkpt lat="44.32178" lon="0.77916">
        <ele>180</ele>
        <time>2025-10-12T14:55:40.518Z</time>
      </trkpt>
      <trkpt lat="44.32178" lon="0.77918">
        <ele>180</ele>
        <time>2025-10-12T14:55:41.518Z</time>
      </trkpt>
      <trkpt lat="44.32178" lon="0.77919">
        <ele>180</ele>
        <time>2025-10-12T14:55:42.518Z</time>
      </trkpt>
      <trkpt lat="44.32179" lon="0.77921">
        <ele>180</ele>
        <time>2025-10-12T14:55:43.518Z</time>
      </trkpt>
      <trkpt lat="44.32179" lon="0.77922">
        <ele>180</ele>
        <time>2025-10-12T14:55:44.518Z</time>
      </trkpt>
      <trkpt lat="44.32179" lon="0.77923">
        <ele>180</ele>
        <time>2025-10-12T14:55:45.518Z</time>
      </trkpt>
      <trkpt lat="44.32179" lon="0.77924">
        <ele>180</ele>
        <time>2025-10-12T14:55:46.518Z</time>
      </trkpt>
      <trkpt lat="44.3218" lon="0.77926">
        <ele>180</ele>
        <time>2025-10-12T14:55:47.518Z</time>
      </trkpt>
      <trkpt lat="44.3218" lon="0.77927">
        <ele>180</ele>
        <time>2025-10-12T14:55:48.518Z</time>
      </trkpt>
      <trkpt lat="44.3218" lon="0.77929">
        <ele>179</ele>
        <time>2025-10-12T14:55:49.518Z</time>
      </trkpt>
      <trkpt lat="44.3218" lon="0.7793">
        <ele>179</ele>
        <time>2025-10-12T14:55:50.518Z</time>
      </trkpt>
      <trkpt lat="44.3218" lon="0.77931">
        <ele>179</ele>
        <time>2025-10-12T14:55:51.518Z</time>
      </trkpt>
      <trkpt lat="44.3218" lon="0.77932">
        <ele>179</ele>
        <time>2025-10-12T14:55:52.518Z</time>
      </trkpt>
      <trkpt lat="44.3218" lon="0.77934">
        <ele>179</ele>
        <time>2025-10-12T14:55:53.518Z</time>
      </trkpt>
      <trkpt lat="44.3218" lon="0.77935">
        <ele>179</ele>
        <time>2025-10-12T14:55:54.518Z</time>
      </trkpt>
      <trkpt lat="44.3218" lon="0.77937">
        <ele>179</ele>
        <time>2025-10-12T14:55:55.518Z</time>
      </trkpt>
      <trkpt lat="44.3218" lon="0.77938">
        <ele>179</ele>
        <time>2025-10-12T14:55:56.518Z</time>
      </trkpt>
      <trkpt lat="44.3218" lon="0.77939">
        <ele>179</ele>
        <time>2025-10-12T14:55:57.518Z</time>
      </trkpt>
      <trkpt lat="44.32179" lon="0.77941">
        <ele>179</ele>
        <time>2025-10-12T14:55:58.518Z</time>
      </trkpt>
      <trkpt lat="44.3218" lon="0.77942">
        <ele>179</ele>
        <time>2025-10-12T14:55:59.518Z</time>
      </trkpt>
      <trkpt lat="44.3218" lon="0.77943">
        <ele>180</ele>
        <time>2025-10-12T14:56:00.518Z</time>
      </trkpt>
      <trkpt lat="44.32181" lon="0.77945">
        <ele>180</ele>
        <time>2025-10-12T14:56:01.518Z</time>
      </trkpt>
      <trkpt lat="44.32181" lon="0.77946">
        <ele>181</ele>
        <time>2025-10-12T14:56:02.518Z</time>
      </trkpt>
      <trkpt lat="44.32182" lon="0.77948">
        <ele>181</ele>
        <time>2025-10-12T14:56:03.518Z</time>
      </trkpt>
      <trkpt lat="44.32182" lon="0.7795">
        <ele>182</ele>
        <time>2025-10-12T14:56:04.518Z</time>
      </trkpt>
      <trkpt lat="44.32183" lon="0.77951">
        <ele>182</ele>
        <time>2025-10-12T14:56:05.518Z</time>
      </trkpt>
      <trkpt lat="44.32183" lon="0.77952">
        <ele>183</ele>
        <time>2025-10-12T14:56:06.518Z</time>
      </trkpt>
      <trkpt lat="44.32184" lon="0.77954">
        <ele>183</ele>
        <time>2025-10-12T14:56:07.518Z</time>
      </trkpt>
      <trkpt lat="44.32184" lon="0.77955">
        <ele>183</ele>
        <time>2025-10-12T14:56:08.518Z</time>
      </trkpt>
      <trkpt lat="44.32184" lon="0.77956">
        <ele>183</ele>
        <time>2025-10-12T14:56:09.518Z</time>
      </trkpt>
      <trkpt lat="44.32184" lon="0.77957">
        <ele>184</ele>
        <time>2025-10-12T14:56:10.518Z</time>
      </trkpt>
      <trkpt lat="44.32184" lon="0.77959">
        <ele>184</ele>
        <time>2025-10-12T14:56:11.518Z</time>
      </trkpt>
      <trkpt lat="44.32184" lon="0.7796">
        <ele>184</ele>
        <time>2025-10-12T14:56:12.518Z</time>
      </trkpt>
      <trkpt lat="44.32183" lon="0.77962">
        <ele>184</ele>
        <time>2025-10-12T14:56:13.518Z</time>
      </trkpt>
      <trkpt lat="44.32184" lon="0.77964">
        <ele>184</ele>
        <time>2025-10-12T14:56:14.518Z</time>
      </trkpt>
      <trkpt lat="44.32184" lon="0.77966">
        <ele>184</ele>
        <time>2025-10-12T14:56:15.518Z</time>
      </trkpt>
      <trkpt lat="44.32185" lon="0.77967">
        <ele>184</ele>
        <time>2025-10-12T14:56:16.518Z</time>
      </trkpt>
      <trkpt lat="44.32185" lon="0.77969">
        <ele>184</ele>
        <time>2025-10-12T14:56:17.518Z</time>
      </trkpt>
      <trkpt lat="44.32186" lon="0.77971">
        <ele>184</ele>
        <time>2025-10-12T14:56:18.518Z</time>
      </trkpt>
      <trkpt lat="44.32186" lon="0.77972">
        <ele>184</ele>
        <time>2025-10-12T14:56:19.518Z</time>
      </trkpt>
      <trkpt lat="44.32186" lon="0.77974">
        <ele>184</ele>
        <time>2025-10-12T14:56:20.518Z</time>
      </trkpt>
      <trkpt lat="44.32185" lon="0.77976">
        <ele>184</ele>
        <time>2025-10-12T14:56:21.518Z</time>
      </trkpt>
      <trkpt lat="44.32185" lon="0.77977">
        <ele>184</ele>
        <time>2025-10-12T14:56:22.518Z</time>
      </trkpt>
      <trkpt lat="44.32185" lon="0.7798">
        <ele>184</ele>
        <time>2025-10-12T14:56:23.518Z</time>
      </trkpt>
      <trkpt lat="44.32186" lon="0.77982">
        <ele>184</ele>
        <time>2025-10-12T14:56:24.518Z</time>
      </trkpt>
      <trkpt lat="44.32187" lon="0.77984">
        <ele>184</ele>
        <time>2025-10-12T14:56:25.518Z</time>
      </trkpt>
      <trkpt lat="44.32188" lon="0.77986">
        <ele>185</ele>
        <time>2025-10-12T14:56:26.518Z</time>
      </trkpt>
      <trkpt lat="44.32188" lon="0.77988">
        <ele>185</ele>
        <time>2025-10-12T14:56:27.518Z</time>
      </trkpt>
      <trkpt lat="44.32188" lon="0.7799">
        <ele>185</ele>
        <time>2025-10-12T14:56:28.518Z</time>
      </trkpt>
      <trkpt lat="44.32188" lon="0.77993">
        <ele>186</ele>
        <time>2025-10-12T14:56:29.518Z</time>
      </trkpt>
      <trkpt lat="44.32188" lon="0.77995">
        <ele>186</ele>
        <time>2025-10-12T14:56:30.518Z</time>
      </trkpt>
      <trkpt lat="44.32188" lon="0.77998">
        <ele>186</ele>
        <time>2025-10-12T14:56:31.518Z</time>
      </trkpt>
      <trkpt lat="44.32188" lon="0.78">
        <ele>186</ele>
        <time>2025-10-12T14:56:32.518Z</time>
      </trkpt>
      <trkpt lat="44.32187" lon="0.78003">
        <ele>186</ele>
        <time>2025-10-12T14:56:33.518Z</time>
      </trkpt>
      <trkpt lat="44.32186" lon="0.78005">
        <ele>186</ele>
        <time>2025-10-12T14:56:34.518Z</time>
      </trkpt>
      <trkpt lat="44.32185" lon="0.78006">
        <ele>186</ele>
        <time>2025-10-12T14:56:35.518Z</time>
      </trkpt>
      <trkpt lat="44.32184" lon="0.78008">
        <ele>186</ele>
        <time>2025-10-12T14:56:36.518Z</time>
      </trkpt>
      <trkpt lat="44.32184" lon="0.78009">
        <ele>186</ele>
        <time>2025-10-12T14:56:37.518Z</time>
      </trkpt>
      <trkpt lat="44.32183" lon="0.7801">
        <ele>186</ele>
        <time>2025-10-12T14:56:38.518Z</time>
      </trkpt>
      <trkpt lat="44.32182" lon="0.7801">
        <ele>186</ele>
        <time>2025-10-12T14:56:39.518Z</time>
      </trkpt>
      <trkpt lat="44.32182" lon="0.78011">
        <ele>186</ele>
        <time>2025-10-12T14:56:40.518Z</time>
      </trkpt>
      <trkpt lat="44.32181" lon="0.78012">
        <ele>186</ele>
        <time>2025-10-12T14:56:41.518Z</time>
      </trkpt>
      <trkpt lat="44.3218" lon="0.78014">
        <ele>185</ele>
        <time>2025-10-12T14:56:42.518Z</time>
      </trkpt>
      <trkpt lat="44.3218" lon="0.78017">
        <ele>185</ele>
        <time>2025-10-12T14:56:43.518Z</time>
      </trkpt>
      <trkpt lat="44.3218" lon="0.78021">
        <ele>186</ele>
        <time>2025-10-12T14:56:44.518Z</time>
      </trkpt>
      <trkpt lat="44.32181" lon="0.78023">
        <ele>186</ele>
        <time>2025-10-12T14:56:45.518Z</time>
      </trkpt>
      <trkpt lat="44.32182" lon="0.78024">
        <ele>186</ele>
        <time>2025-10-12T14:56:46.518Z</time>
      </trkpt>
      <trkpt lat="44.32182" lon="0.78026">
        <ele>186</ele>
        <time>2025-10-12T14:56:47.518Z</time>
      </trkpt>
      <trkpt lat="44.32182" lon="0.78027">
        <ele>187</ele>
        <time>2025-10-12T14:56:48.518Z</time>
      </trkpt>
      <trkpt lat="44.32182" lon="0.78029">
        <ele>187</ele>
        <time>2025-10-12T14:56:49.518Z</time>
      </trkpt>
      <trkpt lat="44.32181" lon="0.7803">
        <ele>187</ele>
        <time>2025-10-12T14:56:50.518Z</time>
      </trkpt>
      <trkpt lat="44.32181" lon="0.78031">
        <ele>188</ele>
        <time>2025-10-12T14:56:51.518Z</time>
      </trkpt>
      <trkpt lat="44.32181" lon="0.78033">
        <ele>188</ele>
        <time>2025-10-12T14:56:52.518Z</time>
      </trkpt>
      <trkpt lat="44.3218" lon="0.78034">
        <ele>188</ele>
        <time>2025-10-12T14:56:53.518Z</time>
      </trkpt>
      <trkpt lat="44.3218" lon="0.78036">
        <ele>189</ele>
        <time>2025-10-12T14:56:54.518Z</time>
      </trkpt>
      <trkpt lat="44.32179" lon="0.78037">
        <ele>189</ele>
        <time>2025-10-12T14:56:55.518Z</time>
      </trkpt>
      <trkpt lat="44.32179" lon="0.78038">
        <ele>189</ele>
        <time>2025-10-12T14:56:56.518Z</time>
      </trkpt>
      <trkpt lat="44.32178" lon="0.78039">
        <ele>189</ele>
        <time>2025-10-12T14:56:57.518Z</time>
      </trkpt>
      <trkpt lat="44.32177" lon="0.78041">
        <ele>189</ele>
        <time>2025-10-12T14:56:58.518Z</time>
      </trkpt>
      <trkpt lat="44.32177" lon="0.78042">
        <ele>190</ele>
        <time>2025-10-12T14:56:59.518Z</time>
      </trkpt>
      <trkpt lat="44.32176" lon="0.78043">
        <ele>190</ele>
        <time>2025-10-12T14:57:00.518Z</time>
      </trkpt>
      <trkpt lat="44.32175" lon="0.78045">
        <ele>190</ele>
        <time>2025-10-12T14:57:01.518Z</time>
      </trkpt>
      <trkpt lat="44.32174" lon="0.78047">
        <ele>190</ele>
        <time>2025-10-12T14:57:02.518Z</time>
      </trkpt>
      <trkpt lat="44.32173" lon="0.78048">
        <ele>190</ele>
        <time>2025-10-12T14:57:03.518Z</time>
      </trkpt>
      <trkpt lat="44.32173" lon="0.78049">
        <ele>190</ele>
        <time>2025-10-12T14:57:04.518Z</time>
      </trkpt>
      <trkpt lat="44.32173" lon="0.7805">
        <ele>190</ele>
        <time>2025-10-12T14:57:05.518Z</time>
      </trkpt>
      <trkpt lat="44.32172" lon="0.78052">
        <ele>191</ele>
        <time>2025-10-12T14:57:06.518Z</time>
      </trkpt>
      <trkpt lat="44.32172" lon="0.78053">
        <ele>191</ele>
        <time>2025-10-12T14:57:07.518Z</time>
      </trkpt>
      <trkpt lat="44.32171" lon="0.78055">
        <ele>191</ele>
        <time>2025-10-12T14:57:08.518Z</time>
      </trkpt>
      <trkpt lat="44.32171" lon="0.78056">
        <ele>191</ele>
        <time>2025-10-12T14:57:09.518Z</time>
      </trkpt>
      <trkpt lat="44.32171" lon="0.78057">
        <ele>191</ele>
        <time>2025-10-12T14:57:10.518Z</time>
      </trkpt>
      <trkpt lat="44.3217" lon="0.78058">
        <ele>191</ele>
        <time>2025-10-12T14:57:11.518Z</time>
      </trkpt>
      <trkpt lat="44.32169" lon="0.78059">
        <ele>191</ele>
        <time>2025-10-12T14:57:12.518Z</time>
      </trkpt>
      <trkpt lat="44.32168" lon="0.78061">
        <ele>192</ele>
        <time>2025-10-12T14:57:13.518Z</time>
      </trkpt>
      <trkpt lat="44.32168" lon="0.78062">
        <ele>192</ele>
        <time>2025-10-12T14:57:14.518Z</time>
      </trkpt>
      <trkpt lat="44.32167" lon="0.78063">
        <ele>192</ele>
        <time>2025-10-12T14:57:15.518Z</time>
      </trkpt>
      <trkpt lat="44.32166" lon="0.78065">
        <ele>193</ele>
        <time>2025-10-12T14:57:16.518Z</time>
      </trkpt>
      <trkpt lat="44.32165" lon="0.78066">
        <ele>193</ele>
        <time>2025-10-12T14:57:17.518Z</time>
      </trkpt>
      <trkpt lat="44.32164" lon="0.78067">
        <ele>193</ele>
        <time>2025-10-12T14:57:18.518Z</time>
      </trkpt>
      <trkpt lat="44.32163" lon="0.78068">
        <ele>193</ele>
        <time>2025-10-12T14:57:19.518Z</time>
      </trkpt>
      <trkpt lat="44.32163" lon="0.78069">
        <ele>193</ele>
        <time>2025-10-12T14:57:20.518Z</time>
      </trkpt>
      <trkpt lat="44.32162" lon="0.7807">
        <ele>192</ele>
        <time>2025-10-12T14:57:21.518Z</time>
      </trkpt>
      <trkpt lat="44.3216" lon="0.78071">
        <ele>192</ele>
        <time>2025-10-12T14:57:22.518Z</time>
      </trkpt>
      <trkpt lat="44.32159" lon="0.78073">
        <ele>192</ele>
        <time>2025-10-12T14:57:23.518Z</time>
      </trkpt>
      <trkpt lat="44.32158" lon="0.78074">
        <ele>192</ele>
        <time>2025-10-12T14:57:24.518Z</time>
      </trkpt>
      <trkpt lat="44.32157" lon="0.78075">
        <ele>193</ele>
        <time>2025-10-12T14:57:25.518Z</time>
      </trkpt>
      <trkpt lat="44.32156" lon="0.78076">
        <ele>193</ele>
        <time>2025-10-12T14:57:26.518Z</time>
      </trkpt>
      <trkpt lat="44.32155" lon="0.78077">
        <ele>193</ele>
        <time>2025-10-12T14:57:27.518Z</time>
      </trkpt>
      <trkpt lat="44.32155" lon="0.78078">
        <ele>194</ele>
        <time>2025-10-12T14:57:28.518Z</time>
      </trkpt>
      <trkpt lat="44.32154" lon="0.78079">
        <ele>194</ele>
        <time>2025-10-12T14:57:29.518Z</time>
      </trkpt>
      <trkpt lat="44.32153" lon="0.7808">
        <ele>195</ele>
        <time>2025-10-12T14:57:30.518Z</time>
      </trkpt>
      <trkpt lat="44.32152" lon="0.7808">
        <ele>195</ele>
        <time>2025-10-12T14:57:31.518Z</time>
      </trkpt>
      <trkpt lat="44.32152" lon="0.78081">
        <ele>195</ele>
        <time>2025-10-12T14:57:32.518Z</time>
      </trkpt>
      <trkpt lat="44.32151" lon="0.78082">
        <ele>195</ele>
        <time>2025-10-12T14:57:33.518Z</time>
      </trkpt>
      <trkpt lat="44.3215" lon="0.78083">
        <ele>195</ele>
        <time>2025-10-12T14:57:34.518Z</time>
      </trkpt>
      <trkpt lat="44.32149" lon="0.78084">
        <ele>196</ele>
        <time>2025-10-12T14:57:35.518Z</time>
      </trkpt>
      <trkpt lat="44.32148" lon="0.78085">
        <ele>196</ele>
        <time>2025-10-12T14:57:36.518Z</time>
      </trkpt>
      <trkpt lat="44.32147" lon="0.78086">
        <ele>196</ele>
        <time>2025-10-12T14:57:37.518Z</time>
      </trkpt>
      <trkpt lat="44.32146" lon="0.78087">
        <ele>197</ele>
        <time>2025-10-12T14:57:38.518Z</time>
      </trkpt>
      <trkpt lat="44.32145" lon="0.78088">
        <ele>197</ele>
        <time>2025-10-12T14:57:39.518Z</time>
      </trkpt>
      <trkpt lat="44.32145" lon="0.78089">
        <ele>197</ele>
        <time>2025-10-12T14:57:40.518Z</time>
      </trkpt>
      <trkpt lat="44.32144" lon="0.78089">
        <ele>197</ele>
        <time>2025-10-12T14:57:41.518Z</time>
      </trkpt>
      <trkpt lat="44.32143" lon="0.7809">
        <ele>198</ele>
        <time>2025-10-12T14:57:42.518Z</time>
      </trkpt>
      <trkpt lat="44.32142" lon="0.78091">
        <ele>198</ele>
        <time>2025-10-12T14:57:43.518Z</time>
      </trkpt>
      <trkpt lat="44.32141" lon="0.78092">
        <ele>198</ele>
        <time>2025-10-12T14:57:44.518Z</time>
      </trkpt>
      <trkpt lat="44.3214" lon="0.78093">
        <ele>198</ele>
        <time>2025-10-12T14:57:45.518Z</time>
      </trkpt>
      <trkpt lat="44.32139" lon="0.78095">
        <ele>198</ele>
        <time>2025-10-12T14:57:46.518Z</time>
      </trkpt>
      <trkpt lat="44.32139" lon="0.78096">
        <ele>198</ele>
        <time>2025-10-12T14:57:47.518Z</time>
      </trkpt>
      <trkpt lat="44.32138" lon="0.78098">
        <ele>198</ele>
        <time>2025-10-12T14:57:48.518Z</time>
      </trkpt>
      <trkpt lat="44.32139" lon="0.781">
        <ele>198</ele>
        <time>2025-10-12T14:57:49.518Z</time>
      </trkpt>
      <trkpt lat="44.32138" lon="0.78101">
        <ele>197</ele>
        <time>2025-10-12T14:57:50.518Z</time>
      </trkpt>
      <trkpt lat="44.32138" lon="0.78102">
        <ele>197</ele>
        <time>2025-10-12T14:57:51.518Z</time>
      </trkpt>
      <trkpt lat="44.32138" lon="0.78104">
        <ele>197</ele>
        <time>2025-10-12T14:57:52.518Z</time>
      </trkpt>
      <trkpt lat="44.32137" lon="0.78105">
        <ele>196</ele>
        <time>2025-10-12T14:57:53.518Z</time>
      </trkpt>
      <trkpt lat="44.32136" lon="0.78106">
        <ele>196</ele>
        <time>2025-10-12T14:57:54.518Z</time>
      </trkpt>
      <trkpt lat="44.32136" lon="0.78107">
        <ele>196</ele>
        <time>2025-10-12T14:57:55.518Z</time>
      </trkpt>
      <trkpt lat="44.32136" lon="0.78108">
        <ele>197</ele>
        <time>2025-10-12T14:57:56.518Z</time>
      </trkpt>
      <trkpt lat="44.32135" lon="0.78109">
        <ele>197</ele>
        <time>2025-10-12T14:57:57.518Z</time>
      </trkpt>
      <trkpt lat="44.32135" lon="0.7811">
        <ele>197</ele>
        <time>2025-10-12T14:57:58.518Z</time>
      </trkpt>
      <trkpt lat="44.32134" lon="0.78112">
        <ele>197</ele>
        <time>2025-10-12T14:57:59.518Z</time>
      </trkpt>
      <trkpt lat="44.32134" lon="0.78113">
        <ele>197</ele>
        <time>2025-10-12T14:58:00.518Z</time>
      </trkpt>
      <trkpt lat="44.32133" lon="0.78114">
        <ele>196</ele>
        <time>2025-10-12T14:58:01.518Z</time>
      </trkpt>
      <trkpt lat="44.32132" lon="0.78115">
        <ele>196</ele>
        <time>2025-10-12T14:58:02.518Z</time>
      </trkpt>
      <trkpt lat="44.32132" lon="0.78116">
        <ele>196</ele>
        <time>2025-10-12T14:58:03.518Z</time>
      </trkpt>
      <trkpt lat="44.32131" lon="0.78117">
        <ele>195</ele>
        <time>2025-10-12T14:58:04.518Z</time>
      </trkpt>
      <trkpt lat="44.3213" lon="0.78118">
        <ele>195</ele>
        <time>2025-10-12T14:58:05.518Z</time>
      </trkpt>
      <trkpt lat="44.3213" lon="0.7812">
        <ele>195</ele>
        <time>2025-10-12T14:58:06.518Z</time>
      </trkpt>
      <trkpt lat="44.3213" lon="0.78121">
        <ele>195</ele>
        <time>2025-10-12T14:58:07.518Z</time>
      </trkpt>
      <trkpt lat="44.32129" lon="0.78122">
        <ele>195</ele>
        <time>2025-10-12T14:58:08.518Z</time>
      </trkpt>
      <trkpt lat="44.32129" lon="0.78123">
        <ele>195</ele>
        <time>2025-10-12T14:58:09.518Z</time>
      </trkpt>
      <trkpt lat="44.32129" lon="0.78124">
        <ele>195</ele>
        <time>2025-10-12T14:58:10.518Z</time>
      </trkpt>
      <trkpt lat="44.32128" lon="0.78126">
        <ele>195</ele>
        <time>2025-10-12T14:58:11.518Z</time>
      </trkpt>
      <trkpt lat="44.32128" lon="0.78127">
        <ele>195</ele>
        <time>2025-10-12T14:58:12.518Z</time>
      </trkpt>
      <trkpt lat="44.32128" lon="0.78128">
        <ele>195</ele>
        <time>2025-10-12T14:58:13.518Z</time>
      </trkpt>
      <trkpt lat="44.32128" lon="0.78129">
        <ele>196</ele>
        <time>2025-10-12T14:58:14.518Z</time>
      </trkpt>
      <trkpt lat="44.32127" lon="0.7813">
        <ele>196</ele>
        <time>2025-10-12T14:58:15.518Z</time>
      </trkpt>
      <trkpt lat="44.32127" lon="0.78132">
        <ele>196</ele>
        <time>2025-10-12T14:58:16.518Z</time>
      </trkpt>
      <trkpt lat="44.32126" lon="0.78133">
        <ele>196</ele>
        <time>2025-10-12T14:58:17.518Z</time>
      </trkpt>
      <trkpt lat="44.32126" lon="0.78134">
        <ele>197</ele>
        <time>2025-10-12T14:58:18.518Z</time>
      </trkpt>
      <trkpt lat="44.32126" lon="0.78136">
        <ele>197</ele>
        <time>2025-10-12T14:58:19.518Z</time>
      </trkpt>
      <trkpt lat="44.32126" lon="0.78137">
        <ele>196</ele>
        <time>2025-10-12T14:58:20.518Z</time>
      </trkpt>
      <trkpt lat="44.32126" lon="0.78139">
        <ele>196</ele>
        <time>2025-10-12T14:58:21.518Z</time>
      </trkpt>
      <trkpt lat="44.32125" lon="0.78141">
        <ele>196</ele>
        <time>2025-10-12T14:58:22.518Z</time>
      </trkpt>
      <trkpt lat="44.32125" lon="0.78142">
        <ele>196</ele>
        <time>2025-10-12T14:58:23.518Z</time>
      </trkpt>
      <trkpt lat="44.32125" lon="0.78143">
        <ele>196</ele>
        <time>2025-10-12T14:58:24.518Z</time>
      </trkpt>
      <trkpt lat="44.32125" lon="0.78145">
        <ele>196</ele>
        <time>2025-10-12T14:58:25.518Z</time>
      </trkpt>
      <trkpt lat="44.32125" lon="0.78147">
        <ele>196</ele>
        <time>2025-10-12T14:58:26.518Z</time>
      </trkpt>
      <trkpt lat="44.32124" lon="0.78149">
        <ele>196</ele>
        <time>2025-10-12T14:58:27.518Z</time>
      </trkpt>
      <trkpt lat="44.32124" lon="0.7815">
        <ele>196</ele>
        <time>2025-10-12T14:58:28.518Z</time>
      </trkpt>
      <trkpt lat="44.32124" lon="0.78152">
        <ele>196</ele>
        <time>2025-10-12T14:58:29.518Z</time>
      </trkpt>
      <trkpt lat="44.32124" lon="0.78153">
        <ele>196</ele>
        <time>2025-10-12T14:58:30.518Z</time>
      </trkpt>
      <trkpt lat="44.32124" lon="0.78155">
        <ele>196</ele>
        <time>2025-10-12T14:58:31.518Z</time>
      </trkpt>
      <trkpt lat="44.32124" lon="0.78156">
        <ele>196</ele>
        <time>2025-10-12T14:58:32.518Z</time>
      </trkpt>
      <trkpt lat="44.32124" lon="0.78158">
        <ele>196</ele>
        <time>2025-10-12T14:58:33.518Z</time>
      </trkpt>
      <trkpt lat="44.32123" lon="0.7816">
        <ele>196</ele>
        <time>2025-10-12T14:58:34.518Z</time>
      </trkpt>
      <trkpt lat="44.32123" lon="0.78162">
        <ele>196</ele>
        <time>2025-10-12T14:58:35.518Z</time>
      </trkpt>
      <trkpt lat="44.32123" lon="0.78163">
        <ele>196</ele>
        <time>2025-10-12T14:58:36.518Z</time>
      </trkpt>
      <trkpt lat="44.32123" lon="0.78164">
        <ele>196</ele>
        <time>2025-10-12T14:58:37.518Z</time>
      </trkpt>
      <trkpt lat="44.32123" lon="0.78166">
        <ele>196</ele>
        <time>2025-10-12T14:58:38.518Z</time>
      </trkpt>
      <trkpt lat="44.32123" lon="0.78167">
        <ele>197</ele>
        <time>2025-10-12T14:58:39.518Z</time>
      </trkpt>
      <trkpt lat="44.32123" lon="0.78169">
        <ele>197</ele>
        <time>2025-10-12T14:58:40.518Z</time>
      </trkpt>
      <trkpt lat="44.32123" lon="0.7817">
        <ele>197</ele>
        <time>2025-10-12T14:58:41.518Z</time>
      </trkpt>
      <trkpt lat="44.32123" lon="0.78172">
        <ele>197</ele>
        <time>2025-10-12T14:58:42.518Z</time>
      </trkpt>
      <trkpt lat="44.32123" lon="0.78174">
        <ele>197</ele>
        <time>2025-10-12T14:58:43.518Z</time>
      </trkpt>
      <trkpt lat="44.32123" lon="0.78175">
        <ele>196</ele>
        <time>2025-10-12T14:58:44.518Z</time>
      </trkpt>
      <trkpt lat="44.32123" lon="0.78177">
        <ele>196</ele>
        <time>2025-10-12T14:58:45.518Z</time>
      </trkpt>
      <trkpt lat="44.32123" lon="0.78178">
        <ele>196</ele>
        <time>2025-10-12T14:58:46.518Z</time>
      </trkpt>
      <trkpt lat="44.32123" lon="0.78179">
        <ele>196</ele>
        <time>2025-10-12T14:58:47.518Z</time>
      </trkpt>
      <trkpt lat="44.32123" lon="0.78181">
        <ele>196</ele>
        <time>2025-10-12T14:58:48.518Z</time>
      </trkpt>
      <trkpt lat="44.32123" lon="0.78182">
        <ele>196</ele>
        <time>2025-10-12T14:58:49.518Z</time>
      </trkpt>
      <trkpt lat="44.32123" lon="0.78183">
        <ele>196</ele>
        <time>2025-10-12T14:58:50.518Z</time>
      </trkpt>
      <trkpt lat="44.32123" lon="0.78184">
        <ele>196</ele>
        <time>2025-10-12T14:58:51.518Z</time>
      </trkpt>
      <trkpt lat="44.32123" lon="0.78185">
        <ele>196</ele>
        <time>2025-10-12T14:58:52.518Z</time>
      </trkpt>
      <trkpt lat="44.32123" lon="0.78186">
        <ele>196</ele>
        <time>2025-10-12T14:58:53.518Z</time>
      </trkpt>
      <trkpt lat="44.32124" lon="0.78188">
        <ele>196</ele>
        <time>2025-10-12T14:58:54.518Z</time>
      </trkpt>
      <trkpt lat="44.32124" lon="0.7819">
        <ele>196</ele>
        <time>2025-10-12T14:58:55.518Z</time>
      </trkpt>
      <trkpt lat="44.32125" lon="0.78191">
        <ele>196</ele>
        <time>2025-10-12T14:58:56.518Z</time>
      </trkpt>
      <trkpt lat="44.32125" lon="0.78193">
        <ele>196</ele>
        <time>2025-10-12T14:58:57.518Z</time>
      </trkpt>
      <trkpt lat="44.32126" lon="0.78194">
        <ele>196</ele>
        <time>2025-10-12T14:58:58.518Z</time>
      </trkpt>
      <trkpt lat="44.32126" lon="0.78196">
        <ele>196</ele>
        <time>2025-10-12T14:58:59.518Z</time>
      </trkpt>
      <trkpt lat="44.32126" lon="0.78197">
        <ele>196</ele>
        <time>2025-10-12T14:59:00.518Z</time>
      </trkpt>
      <trkpt lat="44.32127" lon="0.78198">
        <ele>196</ele>
        <time>2025-10-12T14:59:01.518Z</time>
      </trkpt>
      <trkpt lat="44.32128" lon="0.78199">
        <ele>197</ele>
        <time>2025-10-12T14:59:02.518Z</time>
      </trkpt>
      <trkpt lat="44.32128" lon="0.78201">
        <ele>197</ele>
        <time>2025-10-12T14:59:03.518Z</time>
      </trkpt>
      <trkpt lat="44.32128" lon="0.78202">
        <ele>197</ele>
        <time>2025-10-12T14:59:04.518Z</time>
      </trkpt>
      <trkpt lat="44.32128" lon="0.78203">
        <ele>197</ele>
        <time>2025-10-12T14:59:05.518Z</time>
      </trkpt>
      <trkpt lat="44.32129" lon="0.78204">
        <ele>197</ele>
        <time>2025-10-12T14:59:06.518Z</time>
      </trkpt>
      <trkpt lat="44.3213" lon="0.78206">
        <ele>198</ele>
        <time>2025-10-12T14:59:07.518Z</time>
      </trkpt>
      <trkpt lat="44.3213" lon="0.78208">
        <ele>198</ele>
        <time>2025-10-12T14:59:08.518Z</time>
      </trkpt>
      <trkpt lat="44.3213" lon="0.78209">
        <ele>198</ele>
        <time>2025-10-12T14:59:09.518Z</time>
      </trkpt>
      <trkpt lat="44.32131" lon="0.78211">
        <ele>198</ele>
        <time>2025-10-12T14:59:10.518Z</time>
      </trkpt>
      <trkpt lat="44.32132" lon="0.78212">
        <ele>198</ele>
        <time>2025-10-12T14:59:11.518Z</time>
      </trkpt>
      <trkpt lat="44.32132" lon="0.78213">
        <ele>198</ele>
        <time>2025-10-12T14:59:12.518Z</time>
      </trkpt>
      <trkpt lat="44.32132" lon="0.78215">
        <ele>198</ele>
        <time>2025-10-12T14:59:13.518Z</time>
      </trkpt>
      <trkpt lat="44.32132" lon="0.78216">
        <ele>198</ele>
        <time>2025-10-12T14:59:14.518Z</time>
      </trkpt>
      <trkpt lat="44.32133" lon="0.78217">
        <ele>199</ele>
        <time>2025-10-12T14:59:15.518Z</time>
      </trkpt>
      <trkpt lat="44.32133" lon="0.78218">
        <ele>199</ele>
        <time>2025-10-12T14:59:16.518Z</time>
      </trkpt>
      <trkpt lat="44.32134" lon="0.7822">
        <ele>199</ele>
        <time>2025-10-12T14:59:17.518Z</time>
      </trkpt>
      <trkpt lat="44.32134" lon="0.78221">
        <ele>199</ele>
        <time>2025-10-12T14:59:18.518Z</time>
      </trkpt>
      <trkpt lat="44.32135" lon="0.78222">
        <ele>199</ele>
        <time>2025-10-12T14:59:19.518Z</time>
      </trkpt>
      <trkpt lat="44.32135" lon="0.78223">
        <ele>199</ele>
        <time>2025-10-12T14:59:20.518Z</time>
      </trkpt>
      <trkpt lat="44.32136" lon="0.78225">
        <ele>199</ele>
        <time>2025-10-12T14:59:21.518Z</time>
      </trkpt>
      <trkpt lat="44.32136" lon="0.78226">
        <ele>199</ele>
        <time>2025-10-12T14:59:22.518Z</time>
      </trkpt>
      <trkpt lat="44.32137" lon="0.78227">
        <ele>198</ele>
        <time>2025-10-12T14:59:23.518Z</time>
      </trkpt>
      <trkpt lat="44.32138" lon="0.78228">
        <ele>198</ele>
        <time>2025-10-12T14:59:24.518Z</time>
      </trkpt>
      <trkpt lat="44.32138" lon="0.78229">
        <ele>198</ele>
        <time>2025-10-12T14:59:25.518Z</time>
      </trkpt>
      <trkpt lat="44.32139" lon="0.7823">
        <ele>198</ele>
        <time>2025-10-12T14:59:26.518Z</time>
      </trkpt>
      <trkpt lat="44.32139" lon="0.78231">
        <ele>198</ele>
        <time>2025-10-12T14:59:27.518Z</time>
      </trkpt>
      <trkpt lat="44.3214" lon="0.78232">
        <ele>199</ele>
        <time>2025-10-12T14:59:28.518Z</time>
      </trkpt>
      <trkpt lat="44.32141" lon="0.78233">
        <ele>199</ele>
        <time>2025-10-12T14:59:29.518Z</time>
      </trkpt>
      <trkpt lat="44.32141" lon="0.78234">
        <ele>200</ele>
        <time>2025-10-12T14:59:30.518Z</time>
      </trkpt>
      <trkpt lat="44.32142" lon="0.78235">
        <ele>200</ele>
        <time>2025-10-12T14:59:31.518Z</time>
      </trkpt>
      <trkpt lat="44.32143" lon="0.78237">
        <ele>200</ele>
        <time>2025-10-12T14:59:32.518Z</time>
      </trkpt>
      <trkpt lat="44.32143" lon="0.78238">
        <ele>200</ele>
        <time>2025-10-12T14:59:33.518Z</time>
      </trkpt>
      <trkpt lat="44.32143" lon="0.78239">
        <ele>201</ele>
        <time>2025-10-12T14:59:34.518Z</time>
      </trkpt>
      <trkpt lat="44.32144" lon="0.7824">
        <ele>201</ele>
        <time>2025-10-12T14:59:35.518Z</time>
      </trkpt>
      <trkpt lat="44.32144" lon="0.78241">
        <ele>201</ele>
        <time>2025-10-12T14:59:36.518Z</time>
      </trkpt>
      <trkpt lat="44.32145" lon="0.78242">
        <ele>201</ele>
        <time>2025-10-12T14:59:37.518Z</time>
      </trkpt>
      <trkpt lat="44.32145" lon="0.78244">
        <ele>201</ele>
        <time>2025-10-12T14:59:38.518Z</time>
      </trkpt>
      <trkpt lat="44.32145" lon="0.78245">
        <ele>201</ele>
        <time>2025-10-12T14:59:39.518Z</time>
      </trkpt>
      <trkpt lat="44.32146" lon="0.78246">
        <ele>201</ele>
        <time>2025-10-12T14:59:40.518Z</time>
      </trkpt>
      <trkpt lat="44.32146" lon="0.78247">
        <ele>201</ele>
        <time>2025-10-12T14:59:41.518Z</time>
      </trkpt>
      <trkpt lat="44.32147" lon="0.78248">
        <ele>201</ele>
        <time>2025-10-12T14:59:42.518Z</time>
      </trkpt>
      <trkpt lat="44.32148" lon="0.7825">
        <ele>200</ele>
        <time>2025-10-12T14:59:43.518Z</time>
      </trkpt>
      <trkpt lat="44.32148" lon="0.78251">
        <ele>200</ele>
        <time>2025-10-12T14:59:44.518Z</time>
      </trkpt>
      <trkpt lat="44.32149" lon="0.78252">
        <ele>199</ele>
        <time>2025-10-12T14:59:45.518Z</time>
      </trkpt>
      <trkpt lat="44.32149" lon="0.78253">
        <ele>199</ele>
        <time>2025-10-12T14:59:46.518Z</time>
      </trkpt>
      <trkpt lat="44.3215" lon="0.78254">
        <ele>199</ele>
        <time>2025-10-12T14:59:47.518Z</time>
      </trkpt>
      <trkpt lat="44.32151" lon="0.78255">
        <ele>199</ele>
        <time>2025-10-12T14:59:48.518Z</time>
      </trkpt>
      <trkpt lat="44.32152" lon="0.78256">
        <ele>199</ele>
        <time>2025-10-12T14:59:49.518Z</time>
      </trkpt>
      <trkpt lat="44.32152" lon="0.78257">
        <ele>199</ele>
        <time>2025-10-12T14:59:50.518Z</time>
      </trkpt>
      <trkpt lat="44.32153" lon="0.78257">
        <ele>199</ele>
        <time>2025-10-12T14:59:51.518Z</time>
      </trkpt>
      <trkpt lat="44.32154" lon="0.78258">
        <ele>199</ele>
        <time>2025-10-12T14:59:52.518Z</time>
      </trkpt>
      <trkpt lat="44.32155" lon="0.78259">
        <ele>200</ele>
        <time>2025-10-12T14:59:53.518Z</time>
      </trkpt>
      <trkpt lat="44.32155" lon="0.78259">
        <ele>200</ele>
        <time>2025-10-12T14:59:54.518Z</time>
      </trkpt>
      <trkpt lat="44.32156" lon="0.7826">
        <ele>200</ele>
        <time>2025-10-12T14:59:55.518Z</time>
      </trkpt>
      <trkpt lat="44.32156" lon="0.78261">
        <ele>200</ele>
        <time>2025-10-12T14:59:56.518Z</time>
      </trkpt>
      <trkpt lat="44.32157" lon="0.78261">
        <ele>201</ele>
        <time>2025-10-12T14:59:57.518Z</time>
      </trkpt>
      <trkpt lat="44.32158" lon="0.78261">
        <ele>201</ele>
        <time>2025-10-12T14:59:58.518Z</time>
      </trkpt>
      <trkpt lat="44.32159" lon="0.78261">
        <ele>201</ele>
        <time>2025-10-12T14:59:59.518Z</time>
      </trkpt>
      <trkpt lat="44.32159" lon="0.78261">
        <ele>201</ele>
        <time>2025-10-12T15:00:00.518Z</time>
      </trkpt>
      <trkpt lat="44.32159" lon="0.78261">
        <ele>202</ele>
        <time>2025-10-12T15:00:01.518Z</time>
      </trkpt>
      <trkpt lat="44.32159" lon="0.78261">
        <ele>202</ele>
        <time>2025-10-12T15:00:02.518Z</time>
      </trkpt>
      <trkpt lat="44.32159" lon="0.78261">
        <ele>203</ele>
        <time>2025-10-12T15:00:03.518Z</time>
      </trkpt>
      <trkpt lat="44.32159" lon="0.78261">
        <ele>204</ele>
        <time>2025-10-12T15:00:04.518Z</time>
      </trkpt>
      <trkpt lat="44.32159" lon="0.78261">
        <ele>205</ele>
        <time>2025-10-12T15:00:05.518Z</time>
      </trkpt>
      <trkpt lat="44.32159" lon="0.78261">
        <ele>205</ele>
        <time>2025-10-12T15:00:06.518Z</time>
      </trkpt>
      <trkpt lat="44.32159" lon="0.78261">
        <ele>206</ele>
        <time>2025-10-12T15:00:07.518Z</time>
      </trkpt>
      <trkpt lat="44.32159" lon="0.78261">
        <ele>206</ele>
        <time>2025-10-12T15:00:08.518Z</time>
      </trkpt>
      <trkpt lat="44.32159" lon="0.78261">
        <ele>206</ele>
        <time>2025-10-12T15:00:09.518Z</time>
      </trkpt>
      <trkpt lat="44.32159" lon="0.78261">
        <ele>206</ele>
        <time>2025-10-12T15:00:10.518Z</time>
      </trkpt>
      <trkpt lat="44.32159" lon="0.78261">
        <ele>206</ele>
        <time>2025-10-12T15:00:11.518Z</time>
      </trkpt>
      <trkpt lat="44.32159" lon="0.78261">
        <ele>206</ele>
        <time>2025-10-12T15:00:12.518Z</time>
      </trkpt>
      <trkpt lat="44.32159" lon="0.78261">
        <ele>206</ele>
        <time>2025-10-12T15:00:13.518Z</time>
      </trkpt>
      <trkpt lat="44.32159" lon="0.78261">
        <ele>205</ele>
        <time>2025-10-12T15:00:14.518Z</time>
      </trkpt>
      <trkpt lat="44.32158" lon="0.78261">
        <ele>206</ele>
        <time>2025-10-12T15:00:15.518Z</time>
      </trkpt>
      <trkpt lat="44.32158" lon="0.78261">
        <ele>206</ele>
        <time>2025-10-12T15:00:16.518Z</time>
      </trkpt>
      <trkpt lat="44.32159" lon="0.78261">
        <ele>206</ele>
        <time>2025-10-12T15:00:17.518Z</time>
      </trkpt>
      <trkpt lat="44.32159" lon="0.78261">
        <ele>206</ele>
        <time>2025-10-12T15:00:18.518Z</time>
      </trkpt>
      <trkpt lat="44.32159" lon="0.78261">
        <ele>206</ele>
        <time>2025-10-12T15:00:19.518Z</time>
      </trkpt>
      <trkpt lat="44.32159" lon="0.78261">
        <ele>207</ele>
        <time>2025-10-12T15:00:20.518Z</time>
      </trkpt>
      <trkpt lat="44.32159" lon="0.78261">
        <ele>207</ele>
        <time>2025-10-12T15:00:21.518Z</time>
      </trkpt>
      <trkpt lat="44.32159" lon="0.78261">
        <ele>208</ele>
        <time>2025-10-12T15:00:22.518Z</time>
      </trkpt>
      <trkpt lat="44.32159" lon="0.78261">
        <ele>208</ele>
        <time>2025-10-12T15:00:23.518Z</time>
      </trkpt>
      <trkpt lat="44.3216" lon="0.78261">
        <ele>209</ele>
        <time>2025-10-12T15:00:24.518Z</time>
      </trkpt>
      <trkpt lat="44.3216" lon="0.78261">
        <ele>209</ele>
        <time>2025-10-12T15:00:25.518Z</time>
      </trkpt>
      <trkpt lat="44.32159" lon="0.78262">
        <ele>209</ele>
        <time>2025-10-12T15:00:26.518Z</time>
      </trkpt>
      <trkpt lat="44.32159" lon="0.78262">
        <ele>209</ele>
        <time>2025-10-12T15:00:27.518Z</time>
      </trkpt>
      <trkpt lat="44.32159" lon="0.78262">
        <ele>210</ele>
        <time>2025-10-12T15:00:28.518Z</time>
      </trkpt>
      <trkpt lat="44.32159" lon="0.78262">
        <ele>210</ele>
        <time>2025-10-12T15:00:29.518Z</time>
      </trkpt>
      <trkpt lat="44.32159" lon="0.78262">
        <ele>210</ele>
        <time>2025-10-12T15:00:30.518Z</time>
      </trkpt>
      <trkpt lat="44.32159" lon="0.78262">
        <ele>211</ele>
        <time>2025-10-12T15:00:31.518Z</time>
      </trkpt>
      <trkpt lat="44.32159" lon="0.78262">
        <ele>211</ele>
        <time>2025-10-12T15:00:32.518Z</time>
      </trkpt>
      <trkpt lat="44.32159" lon="0.78262">
        <ele>211</ele>
        <time>2025-10-12T15:00:33.518Z</time>
      </trkpt>
      <trkpt lat="44.3216" lon="0.78262">
        <ele>211</ele>
        <time>2025-10-12T15:00:34.518Z</time>
      </trkpt>
      <trkpt lat="44.3216" lon="0.78263">
        <ele>211</ele>
        <time>2025-10-12T15:00:35.518Z</time>
      </trkpt>
      <trkpt lat="44.3216" lon="0.78263">
        <ele>212</ele>
        <time>2025-10-12T15:00:36.518Z</time>
      </trkpt>
      <trkpt lat="44.3216" lon="0.78263">
        <ele>212</ele>
        <time>2025-10-12T15:00:37.518Z</time>
      </trkpt>
      <trkpt lat="44.3216" lon="0.78263">
        <ele>212</ele>
        <time>2025-10-12T15:00:38.518Z</time>
      </trkpt>
      <trkpt lat="44.3216" lon="0.78263">
        <ele>211</ele>
        <time>2025-10-12T15:00:39.518Z</time>
      </trkpt>
      <trkpt lat="44.3216" lon="0.78263">
        <ele>211</ele>
        <time>2025-10-12T15:00:40.518Z</time>
      </trkpt>
      <trkpt lat="44.32161" lon="0.78263">
        <ele>211</ele>
        <time>2025-10-12T15:00:41.518Z</time>
      </trkpt>
      <trkpt lat="44.32161" lon="0.78262">
        <ele>211</ele>
        <time>2025-10-12T15:00:42.518Z</time>
      </trkpt>
      <trkpt lat="44.32161" lon="0.78262">
        <ele>210</ele>
        <time>2025-10-12T15:00:43.518Z</time>
      </trkpt>
      <trkpt lat="44.32161" lon="0.78262">
        <ele>209</ele>
        <time>2025-10-12T15:00:44.518Z</time>
      </trkpt>
      <trkpt lat="44.32161" lon="0.78262">
        <ele>209</ele>
        <time>2025-10-12T15:00:45.518Z</time>
      </trkpt>
      <trkpt lat="44.32161" lon="0.78262">
        <ele>208</ele>
        <time>2025-10-12T15:00:46.518Z</time>
      </trkpt>
      <trkpt lat="44.32161" lon="0.78262">
        <ele>208</ele>
        <time>2025-10-12T15:00:47.518Z</time>
      </trkpt>
      <trkpt lat="44.32161" lon="0.78262">
        <ele>207</ele>
        <time>2025-10-12T15:00:48.518Z</time>
      </trkpt>
      <trkpt lat="44.32161" lon="0.78262">
        <ele>206</ele>
        <time>2025-10-12T15:00:49.518Z</time>
      </trkpt>
      <trkpt lat="44.32161" lon="0.78262">
        <ele>206</ele>
        <time>2025-10-12T15:00:50.518Z</time>
      </trkpt>
      <trkpt lat="44.32161" lon="0.78262">
        <ele>205</ele>
        <time>2025-10-12T15:00:51.518Z</time>
      </trkpt>
      <trkpt lat="44.3216" lon="0.78262">
        <ele>205</ele>
        <time>2025-10-12T15:00:52.518Z</time>
      </trkpt>
      <trkpt lat="44.3216" lon="0.78262">
        <ele>204</ele>
        <time>2025-10-12T15:00:53.518Z</time>
      </trkpt>
      <trkpt lat="44.3216" lon="0.78262">
        <ele>204</ele>
        <time>2025-10-12T15:00:54.518Z</time>
      </trkpt>
      <trkpt lat="44.3216" lon="0.78262">
        <ele>204</ele>
        <time>2025-10-12T15:00:55.518Z</time>
      </trkpt>
      <trkpt lat="44.3216" lon="0.78262">
        <ele>204</ele>
        <time>2025-10-12T15:00:56.518Z</time>
      </trkpt>
      <trkpt lat="44.3216" lon="0.78262">
        <ele>205</ele>
        <time>2025-10-12T15:00:57.518Z</time>
      </trkpt>
      <trkpt lat="44.3216" lon="0.78262">
        <ele>205</ele>
        <time>2025-10-12T15:00:58.518Z</time>
      </trkpt>
      <trkpt lat="44.3216" lon="0.78262">
        <ele>206</ele>
        <time>2025-10-12T15:00:59.518Z</time>
      </trkpt>
      <trkpt lat="44.3216" lon="0.78262">
        <ele>206</ele>
        <time>2025-10-12T15:01:00.518Z</time>
      </trkpt>
      <trkpt lat="44.3216" lon="0.78261">
        <ele>207</ele>
        <time>2025-10-12T15:01:01.518Z</time>
      </trkpt>
      <trkpt lat="44.3216" lon="0.78261">
        <ele>208</ele>
        <time>2025-10-12T15:01:02.518Z</time>
      </trkpt>
      <trkpt lat="44.3216" lon="0.78261">
        <ele>209</ele>
        <time>2025-10-12T15:01:03.518Z</time>
      </trkpt>
      <trkpt lat="44.3216" lon="0.78261">
        <ele>209</ele>
        <time>2025-10-12T15:01:04.518Z</time>
      </trkpt>
      <trkpt lat="44.3216" lon="0.78261">
        <ele>209</ele>
        <time>2025-10-12T15:01:05.518Z</time>
      </trkpt>
      <trkpt lat="44.3216" lon="0.78261">
        <ele>210</ele>
        <time>2025-10-12T15:01:06.518Z</time>
      </trkpt>
      <trkpt lat="44.3216" lon="0.78261">
        <ele>211</ele>
        <time>2025-10-12T15:01:07.518Z</time>
      </trkpt>
      <trkpt lat="44.3216" lon="0.78261">
        <ele>211</ele>
        <time>2025-10-12T15:01:08.518Z</time>
      </trkpt>
      <trkpt lat="44.3216" lon="0.78261">
        <ele>212</ele>
        <time>2025-10-12T15:01:09.518Z</time>
      </trkpt>
      <trkpt lat="44.3216" lon="0.78261">
        <ele>212</ele>
        <time>2025-10-12T15:01:10.518Z</time>
      </trkpt>
      <trkpt lat="44.32159" lon="0.78261">
        <ele>212</ele>
        <time>2025-10-12T15:01:11.518Z</time>
      </trkpt>
      <trkpt lat="44.32159" lon="0.78261">
        <ele>212</ele>
        <time>2025-10-12T15:01:12.518Z</time>
      </trkpt>
      <trkpt lat="44.32159" lon="0.78261">
        <ele>213</ele>
        <time>2025-10-12T15:01:13.518Z</time>
      </trkpt>
      <trkpt lat="44.32159" lon="0.78261">
        <ele>213</ele>
        <time>2025-10-12T15:01:14.518Z</time>
      </trkpt>
      <trkpt lat="44.32159" lon="0.78261">
        <ele>213</ele>
        <time>2025-10-12T15:01:15.518Z</time>
      </trkpt>
      <trkpt lat="44.32159" lon="0.78261">
        <ele>213</ele>
        <time>2025-10-12T15:01:16.518Z</time>
      </trkpt>
      <trkpt lat="44.32159" lon="0.78261">
        <ele>213</ele>
        <time>2025-10-12T15:01:17.518Z</time>
      </trkpt>
      <trkpt lat="44.32159" lon="0.78261">
        <ele>212</ele>
        <time>2025-10-12T15:01:18.518Z</time>
      </trkpt>
      <trkpt lat="44.32159" lon="0.78262">
        <ele>212</ele>
        <time>2025-10-12T15:01:19.518Z</time>
      </trkpt>
      <trkpt lat="44.32159" lon="0.78262">
        <ele>212</ele>
        <time>2025-10-12T15:01:20.518Z</time>
      </trkpt>
      <trkpt lat="44.32159" lon="0.78262">
        <ele>212</ele>
        <time>2025-10-12T15:01:21.518Z</time>
      </trkpt>
      <trkpt lat="44.32159" lon="0.78263">
        <ele>212</ele>
        <time>2025-10-12T15:01:22.518Z</time>
      </trkpt>
      <trkpt lat="44.3216" lon="0.78262">
        <ele>211</ele>
        <time>2025-10-12T15:01:23.518Z</time>
      </trkpt>
      <trkpt lat="44.32161" lon="0.78263">
        <ele>211</ele>
        <time>2025-10-12T15:01:24.518Z</time>
      </trkpt>
      <trkpt lat="44.32162" lon="0.78263">
        <ele>211</ele>
        <time>2025-10-12T15:01:25.518Z</time>
      </trkpt>
      <trkpt lat="44.32163" lon="0.78264">
        <ele>210</ele>
        <time>2025-10-12T15:01:26.518Z</time>
      </trkpt>
      <trkpt lat="44.32164" lon="0.78265">
        <ele>210</ele>
        <time>2025-10-12T15:01:27.518Z</time>
      </trkpt>
      <trkpt lat="44.32165" lon="0.78266">
        <ele>210</ele>
        <time>2025-10-12T15:01:28.518Z</time>
      </trkpt>
      <trkpt lat="44.32166" lon="0.78266">
        <ele>210</ele>
        <time>2025-10-12T15:01:29.518Z</time>
      </trkpt>
      <trkpt lat="44.32167" lon="0.78267">
        <ele>209</ele>
        <time>2025-10-12T15:01:30.518Z</time>
      </trkpt>
      <trkpt lat="44.32168" lon="0.78268">
        <ele>209</ele>
        <time>2025-10-12T15:01:31.518Z</time>
      </trkpt>
      <trkpt lat="44.3217" lon="0.78269">
        <ele>210</ele>
        <time>2025-10-12T15:01:32.518Z</time>
      </trkpt>
      <trkpt lat="44.32171" lon="0.78269">
        <ele>210</ele>
        <time>2025-10-12T15:01:33.518Z</time>
      </trkpt>
      <trkpt lat="44.32172" lon="0.7827">
        <ele>210</ele>
        <time>2025-10-12T15:01:34.518Z</time>
      </trkpt>
      <trkpt lat="44.32173" lon="0.78271">
        <ele>210</ele>
        <time>2025-10-12T15:01:35.518Z</time>
      </trkpt>
      <trkpt lat="44.32174" lon="0.78271">
        <ele>211</ele>
        <time>2025-10-12T15:01:36.518Z</time>
      </trkpt>
      <trkpt lat="44.32175" lon="0.78271">
        <ele>211</ele>
        <time>2025-10-12T15:01:37.518Z</time>
      </trkpt>
      <trkpt lat="44.32176" lon="0.78271">
        <ele>211</ele>
        <time>2025-10-12T15:01:38.518Z</time>
      </trkpt>
      <trkpt lat="44.32177" lon="0.78272">
        <ele>211</ele>
        <time>2025-10-12T15:01:39.518Z</time>
      </trkpt>
      <trkpt lat="44.32178" lon="0.78273">
        <ele>211</ele>
        <time>2025-10-12T15:01:40.518Z</time>
      </trkpt>
      <trkpt lat="44.32179" lon="0.78273">
        <ele>211</ele>
        <time>2025-10-12T15:01:41.518Z</time>
      </trkpt>
      <trkpt lat="44.3218" lon="0.78275">
        <ele>211</ele>
        <time>2025-10-12T15:01:42.518Z</time>
      </trkpt>
      <trkpt lat="44.32182" lon="0.78276">
        <ele>211</ele>
        <time>2025-10-12T15:01:43.518Z</time>
      </trkpt>
      <trkpt lat="44.32183" lon="0.78277">
        <ele>211</ele>
        <time>2025-10-12T15:01:44.518Z</time>
      </trkpt>
      <trkpt lat="44.32184" lon="0.78278">
        <ele>211</ele>
        <time>2025-10-12T15:01:45.518Z</time>
      </trkpt>
      <trkpt lat="44.32186" lon="0.78279">
        <ele>211</ele>
        <time>2025-10-12T15:01:46.518Z</time>
      </trkpt>
      <trkpt lat="44.32188" lon="0.7828">
        <ele>210</ele>
        <time>2025-10-12T15:01:47.518Z</time>
      </trkpt>
      <trkpt lat="44.32189" lon="0.78282">
        <ele>210</ele>
        <time>2025-10-12T15:01:48.518Z</time>
      </trkpt>
      <trkpt lat="44.3219" lon="0.78284">
        <ele>210</ele>
        <time>2025-10-12T15:01:49.518Z</time>
      </trkpt>
      <trkpt lat="44.32192" lon="0.78285">
        <ele>209</ele>
        <time>2025-10-12T15:01:50.518Z</time>
      </trkpt>
      <trkpt lat="44.32193" lon="0.78286">
        <ele>209</ele>
        <time>2025-10-12T15:01:51.518Z</time>
      </trkpt>
      <trkpt lat="44.32193" lon="0.78287">
        <ele>209</ele>
        <time>2025-10-12T15:01:52.518Z</time>
      </trkpt>
      <trkpt lat="44.32194" lon="0.78287">
        <ele>209</ele>
        <time>2025-10-12T15:01:53.518Z</time>
      </trkpt>
      <trkpt lat="44.32196" lon="0.78288">
        <ele>209</ele>
        <time>2025-10-12T15:01:54.518Z</time>
      </trkpt>
      <trkpt lat="44.32197" lon="0.78289">
        <ele>209</ele>
        <time>2025-10-12T15:01:55.518Z</time>
      </trkpt>
      <trkpt lat="44.32198" lon="0.7829">
        <ele>209</ele>
        <time>2025-10-12T15:01:56.518Z</time>
      </trkpt>
      <trkpt lat="44.322" lon="0.78291">
        <ele>209</ele>
        <time>2025-10-12T15:01:57.518Z</time>
      </trkpt>
      <trkpt lat="44.32201" lon="0.78292">
        <ele>209</ele>
        <time>2025-10-12T15:01:58.518Z</time>
      </trkpt>
      <trkpt lat="44.32202" lon="0.78293">
        <ele>210</ele>
        <time>2025-10-12T15:01:59.518Z</time>
      </trkpt>
      <trkpt lat="44.32203" lon="0.78294">
        <ele>210</ele>
        <time>2025-10-12T15:02:00.518Z</time>
      </trkpt>
      <trkpt lat="44.32204" lon="0.78294">
        <ele>210</ele>
        <time>2025-10-12T15:02:01.518Z</time>
      </trkpt>
      <trkpt lat="44.32206" lon="0.78295">
        <ele>210</ele>
        <time>2025-10-12T15:02:02.518Z</time>
      </trkpt>
      <trkpt lat="44.32207" lon="0.78296">
        <ele>210</ele>
        <time>2025-10-12T15:02:03.518Z</time>
      </trkpt>
      <trkpt lat="44.32208" lon="0.78297">
        <ele>211</ele>
        <time>2025-10-12T15:02:04.518Z</time>
      </trkpt>
      <trkpt lat="44.32209" lon="0.78297">
        <ele>211</ele>
        <time>2025-10-12T15:02:05.518Z</time>
      </trkpt>
      <trkpt lat="44.3221" lon="0.78299">
        <ele>211</ele>
        <time>2025-10-12T15:02:06.518Z</time>
      </trkpt>
      <trkpt lat="44.32211" lon="0.78299">
        <ele>211</ele>
        <time>2025-10-12T15:02:07.518Z</time>
      </trkpt>
      <trkpt lat="44.32212" lon="0.78301">
        <ele>211</ele>
        <time>2025-10-12T15:02:08.518Z</time>
      </trkpt>
      <trkpt lat="44.32213" lon="0.78302">
        <ele>211</ele>
        <time>2025-10-12T15:02:09.518Z</time>
      </trkpt>
      <trkpt lat="44.32214" lon="0.78303">
        <ele>210</ele>
        <time>2025-10-12T15:02:10.518Z</time>
      </trkpt>
      <trkpt lat="44.32215" lon="0.78304">
        <ele>210</ele>
        <time>2025-10-12T15:02:11.518Z</time>
      </trkpt>
      <trkpt lat="44.32216" lon="0.78305">
        <ele>210</ele>
        <time>2025-10-12T15:02:12.518Z</time>
      </trkpt>
      <trkpt lat="44.32217" lon="0.78306">
        <ele>210</ele>
        <time>2025-10-12T15:02:13.518Z</time>
      </trkpt>
      <trkpt lat="44.32218" lon="0.78307">
        <ele>210</ele>
        <time>2025-10-12T15:02:14.518Z</time>
      </trkpt>
      <trkpt lat="44.32219" lon="0.78308">
        <ele>210</ele>
        <time>2025-10-12T15:02:15.518Z</time>
      </trkpt>
      <trkpt lat="44.3222" lon="0.7831">
        <ele>210</ele>
        <time>2025-10-12T15:02:16.518Z</time>
      </trkpt>
      <trkpt lat="44.32221" lon="0.78311">
        <ele>209</ele>
        <time>2025-10-12T15:02:17.518Z</time>
      </trkpt>
      <trkpt lat="44.32222" lon="0.78313">
        <ele>209</ele>
        <time>2025-10-12T15:02:18.518Z</time>
      </trkpt>
      <trkpt lat="44.32222" lon="0.78314">
        <ele>209</ele>
        <time>2025-10-12T15:02:19.518Z</time>
      </trkpt>
      <trkpt lat="44.32223" lon="0.78315">
        <ele>209</ele>
        <time>2025-10-12T15:02:20.518Z</time>
      </trkpt>
      <trkpt lat="44.32223" lon="0.78316">
        <ele>209</ele>
        <time>2025-10-12T15:02:21.518Z</time>
      </trkpt>
      <trkpt lat="44.32224" lon="0.78317">
        <ele>209</ele>
        <time>2025-10-12T15:02:22.518Z</time>
      </trkpt>
      <trkpt lat="44.32224" lon="0.78318">
        <ele>209</ele>
        <time>2025-10-12T15:02:23.518Z</time>
      </trkpt>
      <trkpt lat="44.32225" lon="0.78319">
        <ele>209</ele>
        <time>2025-10-12T15:02:24.518Z</time>
      </trkpt>
      <trkpt lat="44.32226" lon="0.78321">
        <ele>209</ele>
        <time>2025-10-12T15:02:25.518Z</time>
      </trkpt>
      <trkpt lat="44.32226" lon="0.78322">
        <ele>209</ele>
        <time>2025-10-12T15:02:26.518Z</time>
      </trkpt>
      <trkpt lat="44.32227" lon="0.78323">
        <ele>209</ele>
        <time>2025-10-12T15:02:27.518Z</time>
      </trkpt>
      <trkpt lat="44.32228" lon="0.78325">
        <ele>209</ele>
        <time>2025-10-12T15:02:28.518Z</time>
      </trkpt>
      <trkpt lat="44.32229" lon="0.78327">
        <ele>209</ele>
        <time>2025-10-12T15:02:29.518Z</time>
      </trkpt>
      <trkpt lat="44.3223" lon="0.78328">
        <ele>209</ele>
        <time>2025-10-12T15:02:30.518Z</time>
      </trkpt>
      <trkpt lat="44.3223" lon="0.78329">
        <ele>209</ele>
        <time>2025-10-12T15:02:31.518Z</time>
      </trkpt>
      <trkpt lat="44.32231" lon="0.78331">
        <ele>209</ele>
        <time>2025-10-12T15:02:32.518Z</time>
      </trkpt>
      <trkpt lat="44.32232" lon="0.78332">
        <ele>209</ele>
        <time>2025-10-12T15:02:33.518Z</time>
      </trkpt>
      <trkpt lat="44.32232" lon="0.78334">
        <ele>209</ele>
        <time>2025-10-12T15:02:34.518Z</time>
      </trkpt>
      <trkpt lat="44.32233" lon="0.78336">
        <ele>210</ele>
        <time>2025-10-12T15:02:35.518Z</time>
      </trkpt>
      <trkpt lat="44.32234" lon="0.78337">
        <ele>210</ele>
        <time>2025-10-12T15:02:36.518Z</time>
      </trkpt>
      <trkpt lat="44.32235" lon="0.78339">
        <ele>210</ele>
        <time>2025-10-12T15:02:37.518Z</time>
      </trkpt>
      <trkpt lat="44.32235" lon="0.7834">
        <ele>210</ele>
        <time>2025-10-12T15:02:38.518Z</time>
      </trkpt>
      <trkpt lat="44.32235" lon="0.78342">
        <ele>210</ele>
        <time>2025-10-12T15:02:39.518Z</time>
      </trkpt>
      <trkpt lat="44.32236" lon="0.78343">
        <ele>210</ele>
        <time>2025-10-12T15:02:40.518Z</time>
      </trkpt>
      <trkpt lat="44.32236" lon="0.78344">
        <ele>209</ele>
        <time>2025-10-12T15:02:41.518Z</time>
      </trkpt>
      <trkpt lat="44.32237" lon="0.78345">
        <ele>209</ele>
        <time>2025-10-12T15:02:42.518Z</time>
      </trkpt>
      <trkpt lat="44.32238" lon="0.78346">
        <ele>209</ele>
        <time>2025-10-12T15:02:43.518Z</time>
      </trkpt>
      <trkpt lat="44.32238" lon="0.78348">
        <ele>209</ele>
        <time>2025-10-12T15:02:44.518Z</time>
      </trkpt>
      <trkpt lat="44.32239" lon="0.78349">
        <ele>209</ele>
        <time>2025-10-12T15:02:45.518Z</time>
      </trkpt>
      <trkpt lat="44.32239" lon="0.78351">
        <ele>209</ele>
        <time>2025-10-12T15:02:46.518Z</time>
      </trkpt>
      <trkpt lat="44.3224" lon="0.78352">
        <ele>209</ele>
        <time>2025-10-12T15:02:47.518Z</time>
      </trkpt>
      <trkpt lat="44.3224" lon="0.78353">
        <ele>209</ele>
        <time>2025-10-12T15:02:48.518Z</time>
      </trkpt>
      <trkpt lat="44.32241" lon="0.78354">
        <ele>209</ele>
        <time>2025-10-12T15:02:49.518Z</time>
      </trkpt>
      <trkpt lat="44.32241" lon="0.78355">
        <ele>208</ele>
        <time>2025-10-12T15:02:50.518Z</time>
      </trkpt>
      <trkpt lat="44.32242" lon="0.78356">
        <ele>208</ele>
        <time>2025-10-12T15:02:51.518Z</time>
      </trkpt>
      <trkpt lat="44.32243" lon="0.78357">
        <ele>208</ele>
        <time>2025-10-12T15:02:52.518Z</time>
      </trkpt>
      <trkpt lat="44.32243" lon="0.78359">
        <ele>207</ele>
        <time>2025-10-12T15:02:53.518Z</time>
      </trkpt>
      <trkpt lat="44.32244" lon="0.7836">
        <ele>207</ele>
        <time>2025-10-12T15:02:54.518Z</time>
      </trkpt>
      <trkpt lat="44.32245" lon="0.7836">
        <ele>207</ele>
        <time>2025-10-12T15:02:55.518Z</time>
      </trkpt>
      <trkpt lat="44.32246" lon="0.78361">
        <ele>206</ele>
        <time>2025-10-12T15:02:56.518Z</time>
      </trkpt>
      <trkpt lat="44.32247" lon="0.78362">
        <ele>206</ele>
        <time>2025-10-12T15:02:57.518Z</time>
      </trkpt>
      <trkpt lat="44.32247" lon="0.78363">
        <ele>206</ele>
        <time>2025-10-12T15:02:58.518Z</time>
      </trkpt>
      <trkpt lat="44.32247" lon="0.78365">
        <ele>206</ele>
        <time>2025-10-12T15:02:59.518Z</time>
      </trkpt>
      <trkpt lat="44.32248" lon="0.78366">
        <ele>206</ele>
        <time>2025-10-12T15:03:00.518Z</time>
      </trkpt>
      <trkpt lat="44.32248" lon="0.78367">
        <ele>205</ele>
        <time>2025-10-12T15:03:01.518Z</time>
      </trkpt>
      <trkpt lat="44.32249" lon="0.78368">
        <ele>205</ele>
        <time>2025-10-12T15:03:02.518Z</time>
      </trkpt>
      <trkpt lat="44.3225" lon="0.7837">
        <ele>205</ele>
        <time>2025-10-12T15:03:03.518Z</time>
      </trkpt>
      <trkpt lat="44.32251" lon="0.78371">
        <ele>205</ele>
        <time>2025-10-12T15:03:04.518Z</time>
      </trkpt>
      <trkpt lat="44.32252" lon="0.78372">
        <ele>204</ele>
        <time>2025-10-12T15:03:05.518Z</time>
      </trkpt>
      <trkpt lat="44.32253" lon="0.78373">
        <ele>204</ele>
        <time>2025-10-12T15:03:06.518Z</time>
      </trkpt>
      <trkpt lat="44.32253" lon="0.78374">
        <ele>204</ele>
        <time>2025-10-12T15:03:07.518Z</time>
      </trkpt>
      <trkpt lat="44.32254" lon="0.78375">
        <ele>204</ele>
        <time>2025-10-12T15:03:08.518Z</time>
      </trkpt>
      <trkpt lat="44.32255" lon="0.78377">
        <ele>204</ele>
        <time>2025-10-12T15:03:09.518Z</time>
      </trkpt>
      <trkpt lat="44.32255" lon="0.78378">
        <ele>203</ele>
        <time>2025-10-12T15:03:10.518Z</time>
      </trkpt>
      <trkpt lat="44.32256" lon="0.78379">
        <ele>203</ele>
        <time>2025-10-12T15:03:11.518Z</time>
      </trkpt>
      <trkpt lat="44.32256" lon="0.7838">
        <ele>203</ele>
        <time>2025-10-12T15:03:12.518Z</time>
      </trkpt>
      <trkpt lat="44.32256" lon="0.78381">
        <ele>203</ele>
        <time>2025-10-12T15:03:13.518Z</time>
      </trkpt>
      <trkpt lat="44.32257" lon="0.78382">
        <ele>204</ele>
        <time>2025-10-12T15:03:14.518Z</time>
      </trkpt>
      <trkpt lat="44.32257" lon="0.78383">
        <ele>204</ele>
        <time>2025-10-12T15:03:15.518Z</time>
      </trkpt>
      <trkpt lat="44.32258" lon="0.78384">
        <ele>205</ele>
        <time>2025-10-12T15:03:16.518Z</time>
      </trkpt>
      <trkpt lat="44.32258" lon="0.78386">
        <ele>205</ele>
        <time>2025-10-12T15:03:17.518Z</time>
      </trkpt>
      <trkpt lat="44.32259" lon="0.78387">
        <ele>205</ele>
        <time>2025-10-12T15:03:18.518Z</time>
      </trkpt>
      <trkpt lat="44.3226" lon="0.78389">
        <ele>206</ele>
        <time>2025-10-12T15:03:19.518Z</time>
      </trkpt>
      <trkpt lat="44.3226" lon="0.78391">
        <ele>206</ele>
        <time>2025-10-12T15:03:20.518Z</time>
      </trkpt>
      <trkpt lat="44.3226" lon="0.78393">
        <ele>206</ele>
        <time>2025-10-12T15:03:21.518Z</time>
      </trkpt>
      <trkpt lat="44.3226" lon="0.78394">
        <ele>206</ele>
        <time>2025-10-12T15:03:22.518Z</time>
      </trkpt>
      <trkpt lat="44.32261" lon="0.78395">
        <ele>207</ele>
        <time>2025-10-12T15:03:23.518Z</time>
      </trkpt>
      <trkpt lat="44.32262" lon="0.78397">
        <ele>207</ele>
        <time>2025-10-12T15:03:24.518Z</time>
      </trkpt>
      <trkpt lat="44.32262" lon="0.78399">
        <ele>207</ele>
        <time>2025-10-12T15:03:25.518Z</time>
      </trkpt>
      <trkpt lat="44.32262" lon="0.784">
        <ele>207</ele>
        <time>2025-10-12T15:03:26.518Z</time>
      </trkpt>
      <trkpt lat="44.32263" lon="0.78402">
        <ele>207</ele>
        <time>2025-10-12T15:03:27.518Z</time>
      </trkpt>
      <trkpt lat="44.32263" lon="0.78403">
        <ele>207</ele>
        <time>2025-10-12T15:03:28.518Z</time>
      </trkpt>
      <trkpt lat="44.32264" lon="0.78405">
        <ele>207</ele>
        <time>2025-10-12T15:03:29.518Z</time>
      </trkpt>
      <trkpt lat="44.32264" lon="0.78407">
        <ele>208</ele>
        <time>2025-10-12T15:03:30.518Z</time>
      </trkpt>
      <trkpt lat="44.32265" lon="0.78408">
        <ele>208</ele>
        <time>2025-10-12T15:03:31.518Z</time>
      </trkpt>
      <trkpt lat="44.32266" lon="0.78409">
        <ele>208</ele>
        <time>2025-10-12T15:03:32.518Z</time>
      </trkpt>
      <trkpt lat="44.32267" lon="0.78411">
        <ele>209</ele>
        <time>2025-10-12T15:03:33.518Z</time>
      </trkpt>
      <trkpt lat="44.32268" lon="0.78413">
        <ele>209</ele>
        <time>2025-10-12T15:03:34.518Z</time>
      </trkpt>
      <trkpt lat="44.32268" lon="0.78414">
        <ele>209</ele>
        <time>2025-10-12T15:03:35.518Z</time>
      </trkpt>
      <trkpt lat="44.32269" lon="0.78415">
        <ele>210</ele>
        <time>2025-10-12T15:03:36.518Z</time>
      </trkpt>
      <trkpt lat="44.32269" lon="0.78416">
        <ele>210</ele>
        <time>2025-10-12T15:03:37.518Z</time>
      </trkpt>
      <trkpt lat="44.3227" lon="0.78418">
        <ele>211</ele>
        <time>2025-10-12T15:03:38.518Z</time>
      </trkpt>
      <trkpt lat="44.32271" lon="0.78419">
        <ele>211</ele>
        <time>2025-10-12T15:03:39.518Z</time>
      </trkpt>
      <trkpt lat="44.32272" lon="0.78421">
        <ele>211</ele>
        <time>2025-10-12T15:03:40.518Z</time>
      </trkpt>
      <trkpt lat="44.32273" lon="0.78423">
        <ele>211</ele>
        <time>2025-10-12T15:03:41.518Z</time>
      </trkpt>
      <trkpt lat="44.32274" lon="0.78424">
        <ele>211</ele>
        <time>2025-10-12T15:03:42.518Z</time>
      </trkpt>
      <trkpt lat="44.32274" lon="0.78425">
        <ele>211</ele>
        <time>2025-10-12T15:03:43.518Z</time>
      </trkpt>
      <trkpt lat="44.32275" lon="0.78426">
        <ele>211</ele>
        <time>2025-10-12T15:03:44.518Z</time>
      </trkpt>
      <trkpt lat="44.32276" lon="0.78428">
        <ele>211</ele>
        <time>2025-10-12T15:03:45.518Z</time>
      </trkpt>
      <trkpt lat="44.32276" lon="0.78429">
        <ele>211</ele>
        <time>2025-10-12T15:03:46.518Z</time>
      </trkpt>
      <trkpt lat="44.32276" lon="0.78431">
        <ele>211</ele>
        <time>2025-10-12T15:03:47.518Z</time>
      </trkpt>
      <trkpt lat="44.32277" lon="0.78432">
        <ele>211</ele>
        <time>2025-10-12T15:03:48.518Z</time>
      </trkpt>
      <trkpt lat="44.32277" lon="0.78434">
        <ele>212</ele>
        <time>2025-10-12T15:03:49.518Z</time>
      </trkpt>
      <trkpt lat="44.32278" lon="0.78435">
        <ele>211</ele>
        <time>2025-10-12T15:03:50.518Z</time>
      </trkpt>
      <trkpt lat="44.32279" lon="0.78436">
        <ele>211</ele>
        <time>2025-10-12T15:03:51.518Z</time>
      </trkpt>
      <trkpt lat="44.3228" lon="0.78437">
        <ele>211</ele>
        <time>2025-10-12T15:03:52.518Z</time>
      </trkpt>
      <trkpt lat="44.32281" lon="0.78438">
        <ele>211</ele>
        <time>2025-10-12T15:03:53.518Z</time>
      </trkpt>
      <trkpt lat="44.32282" lon="0.78438">
        <ele>211</ele>
        <time>2025-10-12T15:03:54.518Z</time>
      </trkpt>
      <trkpt lat="44.32282" lon="0.78438">
        <ele>211</ele>
        <time>2025-10-12T15:03:55.518Z</time>
      </trkpt>
      <trkpt lat="44.32283" lon="0.78438">
        <ele>211</ele>
        <time>2025-10-12T15:03:56.518Z</time>
      </trkpt>
      <trkpt lat="44.32283" lon="0.78437">
        <ele>211</ele>
        <time>2025-10-12T15:03:57.518Z</time>
      </trkpt>
      <trkpt lat="44.32284" lon="0.78436">
        <ele>211</ele>
        <time>2025-10-12T15:03:58.518Z</time>
      </trkpt>
      <trkpt lat="44.32285" lon="0.78435">
        <ele>210</ele>
        <time>2025-10-12T15:03:59.518Z</time>
      </trkpt>
      <trkpt lat="44.32285" lon="0.78434">
        <ele>210</ele>
        <time>2025-10-12T15:04:00.518Z</time>
      </trkpt>
      <trkpt lat="44.32285" lon="0.78432">
        <ele>210</ele>
        <time>2025-10-12T15:04:01.518Z</time>
      </trkpt>
      <trkpt lat="44.32286" lon="0.78431">
        <ele>210</ele>
        <time>2025-10-12T15:04:02.518Z</time>
      </trkpt>
      <trkpt lat="44.32286" lon="0.78429">
        <ele>210</ele>
        <time>2025-10-12T15:04:03.518Z</time>
      </trkpt>
      <trkpt lat="44.32286" lon="0.78428">
        <ele>211</ele>
        <time>2025-10-12T15:04:04.518Z</time>
      </trkpt>
      <trkpt lat="44.32287" lon="0.78426">
        <ele>210</ele>
        <time>2025-10-12T15:04:05.518Z</time>
      </trkpt>
      <trkpt lat="44.32288" lon="0.78425">
        <ele>210</ele>
        <time>2025-10-12T15:04:06.518Z</time>
      </trkpt>
      <trkpt lat="44.32289" lon="0.78424">
        <ele>210</ele>
        <time>2025-10-12T15:04:07.518Z</time>
      </trkpt>
      <trkpt lat="44.3229" lon="0.78424">
        <ele>211</ele>
        <time>2025-10-12T15:04:08.518Z</time>
      </trkpt>
      <trkpt lat="44.32291" lon="0.78423">
        <ele>211</ele>
        <time>2025-10-12T15:04:09.518Z</time>
      </trkpt>
      <trkpt lat="44.32292" lon="0.78423">
        <ele>211</ele>
        <time>2025-10-12T15:04:10.518Z</time>
      </trkpt>
      <trkpt lat="44.32293" lon="0.78422">
        <ele>211</ele>
        <time>2025-10-12T15:04:11.518Z</time>
      </trkpt>
      <trkpt lat="44.32294" lon="0.78421">
        <ele>212</ele>
        <time>2025-10-12T15:04:12.518Z</time>
      </trkpt>
      <trkpt lat="44.32295" lon="0.7842">
        <ele>212</ele>
        <time>2025-10-12T15:04:13.518Z</time>
      </trkpt>
      <trkpt lat="44.32296" lon="0.7842">
        <ele>213</ele>
        <time>2025-10-12T15:04:14.518Z</time>
      </trkpt>
      <trkpt lat="44.32297" lon="0.78419">
        <ele>213</ele>
        <time>2025-10-12T15:04:15.518Z</time>
      </trkpt>
      <trkpt lat="44.32298" lon="0.78418">
        <ele>213</ele>
        <time>2025-10-12T15:04:16.518Z</time>
      </trkpt>
      <trkpt lat="44.32299" lon="0.78417">
        <ele>213</ele>
        <time>2025-10-12T15:04:17.518Z</time>
      </trkpt>
      <trkpt lat="44.323" lon="0.78417">
        <ele>213</ele>
        <time>2025-10-12T15:04:18.518Z</time>
      </trkpt>
      <trkpt lat="44.32301" lon="0.78417">
        <ele>213</ele>
        <time>2025-10-12T15:04:19.518Z</time>
      </trkpt>
      <trkpt lat="44.32301" lon="0.78417">
        <ele>212</ele>
        <time>2025-10-12T15:04:20.518Z</time>
      </trkpt>
      <trkpt lat="44.32302" lon="0.78417">
        <ele>212</ele>
        <time>2025-10-12T15:04:21.518Z</time>
      </trkpt>
      <trkpt lat="44.32303" lon="0.78418">
        <ele>212</ele>
        <time>2025-10-12T15:04:22.518Z</time>
      </trkpt>
      <trkpt lat="44.32304" lon="0.78418">
        <ele>212</ele>
        <time>2025-10-12T15:04:23.518Z</time>
      </trkpt>
      <trkpt lat="44.32305" lon="0.78418">
        <ele>212</ele>
        <time>2025-10-12T15:04:24.518Z</time>
      </trkpt>
      <trkpt lat="44.32306" lon="0.78419">
        <ele>212</ele>
        <time>2025-10-12T15:04:25.518Z</time>
      </trkpt>
      <trkpt lat="44.32307" lon="0.78419">
        <ele>212</ele>
        <time>2025-10-12T15:04:26.518Z</time>
      </trkpt>
      <trkpt lat="44.32307" lon="0.78419">
        <ele>212</ele>
        <time>2025-10-12T15:04:27.518Z</time>
      </trkpt>
      <trkpt lat="44.32308" lon="0.78419">
        <ele>213</ele>
        <time>2025-10-12T15:04:28.518Z</time>
      </trkpt>
      <trkpt lat="44.32309" lon="0.78418">
        <ele>213</ele>
        <time>2025-10-12T15:04:29.518Z</time>
      </trkpt>
      <trkpt lat="44.3231" lon="0.78418">
        <ele>213</ele>
        <time>2025-10-12T15:04:30.518Z</time>
      </trkpt>
      <trkpt lat="44.32311" lon="0.78418">
        <ele>214</ele>
        <time>2025-10-12T15:04:31.518Z</time>
      </trkpt>
      <trkpt lat="44.32312" lon="0.78418">
        <ele>214</ele>
        <time>2025-10-12T15:04:32.518Z</time>
      </trkpt>
      <trkpt lat="44.32313" lon="0.78418">
        <ele>214</ele>
        <time>2025-10-12T15:04:33.518Z</time>
      </trkpt>
      <trkpt lat="44.32313" lon="0.78418">
        <ele>214</ele>
        <time>2025-10-12T15:04:34.518Z</time>
      </trkpt>
      <trkpt lat="44.32314" lon="0.78418">
        <ele>213</ele>
        <time>2025-10-12T15:04:35.518Z</time>
      </trkpt>
      <trkpt lat="44.32314" lon="0.78419">
        <ele>213</ele>
        <time>2025-10-12T15:04:36.518Z</time>
      </trkpt>
      <trkpt lat="44.32314" lon="0.78419">
        <ele>212</ele>
        <time>2025-10-12T15:04:37.518Z</time>
      </trkpt>
      <trkpt lat="44.32314" lon="0.7842">
        <ele>212</ele>
        <time>2025-10-12T15:04:38.518Z</time>
      </trkpt>
      <trkpt lat="44.32314" lon="0.7842">
        <ele>212</ele>
        <time>2025-10-12T15:04:39.518Z</time>
      </trkpt>
      <trkpt lat="44.32314" lon="0.7842">
        <ele>212</ele>
        <time>2025-10-12T15:04:40.518Z</time>
      </trkpt>
      <trkpt lat="44.32315" lon="0.7842">
        <ele>212</ele>
        <time>2025-10-12T15:04:41.518Z</time>
      </trkpt>
      <trkpt lat="44.32315" lon="0.7842">
        <ele>213</ele>
        <time>2025-10-12T15:04:42.518Z</time>
      </trkpt>
      <trkpt lat="44.32315" lon="0.7842">
        <ele>213</ele>
        <time>2025-10-12T15:04:43.518Z</time>
      </trkpt>
      <trkpt lat="44.32315" lon="0.78419">
        <ele>213</ele>
        <time>2025-10-12T15:04:44.518Z</time>
      </trkpt>
      <trkpt lat="44.32315" lon="0.78419">
        <ele>213</ele>
        <time>2025-10-12T15:04:45.518Z</time>
      </trkpt>
      <trkpt lat="44.32315" lon="0.78419">
        <ele>213</ele>
        <time>2025-10-12T15:04:46.518Z</time>
      </trkpt>
      <trkpt lat="44.32315" lon="0.78419">
        <ele>213</ele>
        <time>2025-10-12T15:04:47.518Z</time>
      </trkpt>
      <trkpt lat="44.32315" lon="0.78419">
        <ele>213</ele>
        <time>2025-10-12T15:04:48.518Z</time>
      </trkpt>
      <trkpt lat="44.32315" lon="0.78419">
        <ele>212</ele>
        <time>2025-10-12T15:04:49.518Z</time>
      </trkpt>
      <trkpt lat="44.32316" lon="0.78419">
        <ele>212</ele>
        <time>2025-10-12T15:04:50.518Z</time>
      </trkpt>
    </trkseg>
  </trk>
</gpx>